<?xml version='1.0' encoding='UTF-8'?><gpx version="1.1" creator="JPX - https://github.com/jenetics/jpx" xmlns="http://www.topografix.com/GPX/1/1"><trk><trkseg><trkpt lat="41.1540092" lon="16.740321"><ele>30.0</ele><time>2026-04-19T07:47:49.39Z</time></trkpt><trkpt lat="41.1538801" lon="16.7403831"><ele>30.0</ele><time>2026-04-19T07:47:55.39Z</time></trkpt><trkpt lat="41.1537785" lon="16.740456"><ele>30.0</ele><time>2026-04-19T07:47:57.39Z</time></trkpt><trkpt lat="41.1537041" lon="16.740523"><ele>30.0</ele><time>2026-04-19T07:47:59.39Z</time></trkpt><trkpt lat="41.1536249" lon="16.7406014"><ele>30.0</ele><time>2026-04-19T07:48:02.39Z</time></trkpt><trkpt lat="41.153701" lon="16.7405699"><ele>30.0</ele><time>2026-04-19T07:48:04.39Z</time></trkpt><trkpt lat="41.153775" lon="16.7405001"><ele>30.0</ele><time>2026-04-19T07:48:10.39Z</time></trkpt><trkpt lat="41.1538413" lon="16.7404463"><ele>30.0</ele><time>2026-04-19T07:48:14.39Z</time></trkpt><trkpt lat="41.1538938" lon="16.7404343"><ele>30.0</ele><time>2026-04-19T07:48:29.39Z</time></trkpt><trkpt lat="41.1539426" lon="16.7403475"><ele>30.0</ele><time>2026-04-19T07:48:35.39Z</time></trkpt><trkpt lat="41.1540846" lon="16.7401265"><ele>30.0</ele><time>2026-04-19T07:48:40.39Z</time></trkpt><trkpt lat="41.1541721" lon="16.7402129"><ele>30.0</ele><time>2026-04-19T07:49:08.39Z</time></trkpt><trkpt lat="41.1542115" lon="16.7403699"><ele>30.0</ele><time>2026-04-19T07:49:10.39Z</time></trkpt><trkpt lat="41.1542135" lon="16.7405235"><ele>30.0</ele><time>2026-04-19T07:49:12.39Z</time></trkpt><trkpt lat="41.1541941" lon="16.7406058"><ele>30.0</ele><time>2026-04-19T07:49:13.39Z</time></trkpt><trkpt lat="41.1541656" lon="16.7406875"><ele>29.833333333333332</ele><time>2026-04-19T07:49:14.39Z</time></trkpt><trkpt lat="41.1541351" lon="16.7407624"><ele>29.666666666666664</ele><time>2026-04-19T07:49:15.39Z</time></trkpt><trkpt lat="41.1541413" lon="16.740888"><ele>29.5</ele><time>2026-04-19T07:49:17.39Z</time></trkpt><trkpt lat="41.1542258" lon="16.7409015"><ele>29.333333333333332</ele><time>2026-04-19T07:49:19.39Z</time></trkpt><trkpt lat="41.1542689" lon="16.7407669"><ele>29.166666666666664</ele><time>2026-04-19T07:49:21.39Z</time></trkpt><trkpt lat="41.1542935" lon="16.7406631"><ele>29.0</ele><time>2026-04-19T07:49:22.39Z</time></trkpt><trkpt lat="41.1543221" lon="16.7405727"><ele>28.999999999999996</ele><time>2026-04-19T07:49:23.39Z</time></trkpt><trkpt lat="41.1543495" lon="16.7404917"><ele>29.0</ele><time>2026-04-19T07:49:24.39Z</time></trkpt><trkpt lat="41.1543891" lon="16.740357"><ele>29.0</ele><time>2026-04-19T07:49:26.39Z</time></trkpt><trkpt lat="41.1543941" lon="16.740247"><ele>29.0</ele><time>2026-04-19T07:49:28.39Z</time></trkpt><trkpt lat="41.1543617" lon="16.740169"><ele>28.999999999999996</ele><time>2026-04-19T07:49:29.39Z</time></trkpt><trkpt lat="41.1542929" lon="16.740083"><ele>29.0</ele><time>2026-04-19T07:49:30.39Z</time></trkpt><trkpt lat="41.1541822" lon="16.7399731"><ele>29.25</ele><time>2026-04-19T07:49:31.39Z</time></trkpt><trkpt lat="41.1540677" lon="16.7398862"><ele>29.5</ele><time>2026-04-19T07:49:32.39Z</time></trkpt><trkpt lat="41.1539487" lon="16.7398078"><ele>29.75</ele><time>2026-04-19T07:49:33.39Z</time></trkpt><trkpt lat="41.1538165" lon="16.7397218"><ele>30.0</ele><time>2026-04-19T07:49:34.39Z</time></trkpt><trkpt lat="41.1536598" lon="16.7396295"><ele>30.666666666666664</ele><time>2026-04-19T07:49:35.39Z</time></trkpt><trkpt lat="41.153479" lon="16.7395267"><ele>31.333333333333332</ele><time>2026-04-19T07:49:36.39Z</time></trkpt><trkpt lat="41.1532851" lon="16.7394202"><ele>32.0</ele><time>2026-04-19T07:49:37.39Z</time></trkpt><trkpt lat="41.1531" lon="16.7393263"><ele>32.0</ele><time>2026-04-19T07:49:38.39Z</time></trkpt><trkpt lat="41.1529047" lon="16.7392454"><ele>32.0</ele><time>2026-04-19T07:49:39.39Z</time></trkpt><trkpt lat="41.1527059" lon="16.7391844"><ele>32.0</ele><time>2026-04-19T07:49:40.39Z</time></trkpt><trkpt lat="41.1525332" lon="16.7391346"><ele>32.0</ele><time>2026-04-19T07:49:41.39Z</time></trkpt><trkpt lat="41.1523797" lon="16.7390949"><ele>32.0</ele><time>2026-04-19T07:49:42.39Z</time></trkpt><trkpt lat="41.1522299" lon="16.7390635"><ele>32.0</ele><time>2026-04-19T07:49:43.39Z</time></trkpt><trkpt lat="41.1520779" lon="16.7390349"><ele>32.4</ele><time>2026-04-19T07:49:44.39Z</time></trkpt><trkpt lat="41.1519508" lon="16.7390231"><ele>32.800000000000004</ele><time>2026-04-19T07:49:45.39Z</time></trkpt><trkpt lat="41.1518538" lon="16.7390185"><ele>33.2</ele><time>2026-04-19T07:49:46.39Z</time></trkpt><trkpt lat="41.1517769" lon="16.7390177"><ele>33.6</ele><time>2026-04-19T07:49:47.39Z</time></trkpt><trkpt lat="41.1517071" lon="16.7390179"><ele>34.0</ele><time>2026-04-19T07:49:48.39Z</time></trkpt><trkpt lat="41.1516211" lon="16.7390142"><ele>34.75</ele><time>2026-04-19T07:49:49.39Z</time></trkpt><trkpt lat="41.1514998" lon="16.7390128"><ele>35.5</ele><time>2026-04-19T07:49:50.39Z</time></trkpt><trkpt lat="41.1513767" lon="16.7390223"><ele>36.25</ele><time>2026-04-19T07:49:51.39Z</time></trkpt><trkpt lat="41.1512521" lon="16.7390299"><ele>37.0</ele><time>2026-04-19T07:49:52.39Z</time></trkpt><trkpt lat="41.1511181" lon="16.7390529"><ele>37.0</ele><time>2026-04-19T07:49:53.39Z</time></trkpt><trkpt lat="41.1509656" lon="16.7390843"><ele>37.0</ele><time>2026-04-19T07:49:54.39Z</time></trkpt><trkpt lat="41.1507816" lon="16.7391299"><ele>37.0</ele><time>2026-04-19T07:49:55.39Z</time></trkpt><trkpt lat="41.1505829" lon="16.7391894"><ele>37.0</ele><time>2026-04-19T07:49:56.39Z</time></trkpt><trkpt lat="41.1503774" lon="16.7392612"><ele>37.0</ele><time>2026-04-19T07:49:57.39Z</time></trkpt><trkpt lat="41.1501837" lon="16.7393474"><ele>37.0</ele><time>2026-04-19T07:49:58.39Z</time></trkpt><trkpt lat="41.1499995" lon="16.7394397"><ele>37.333333333333336</ele><time>2026-04-19T07:49:59.39Z</time></trkpt><trkpt lat="41.1498138" lon="16.739543"><ele>37.666666666666664</ele><time>2026-04-19T07:50:00.39Z</time></trkpt><trkpt lat="41.149627" lon="16.7396521"><ele>38.0</ele><time>2026-04-19T07:50:01.39Z</time></trkpt><trkpt lat="41.1494387" lon="16.7397679"><ele>38.0</ele><time>2026-04-19T07:50:02.39Z</time></trkpt><trkpt lat="41.1492495" lon="16.73989"><ele>38.0</ele><time>2026-04-19T07:50:03.39Z</time></trkpt><trkpt lat="41.1490591" lon="16.7400269"><ele>38.0</ele><time>2026-04-19T07:50:04.39Z</time></trkpt><trkpt lat="41.1488621" lon="16.740179"><ele>38.5</ele><time>2026-04-19T07:50:05.39Z</time></trkpt><trkpt lat="41.1486755" lon="16.7403524"><ele>39.0</ele><time>2026-04-19T07:50:06.39Z</time></trkpt><trkpt lat="41.1485057" lon="16.7405452"><ele>39.0</ele><time>2026-04-19T07:50:07.39Z</time></trkpt><trkpt lat="41.1483739" lon="16.740739"><ele>39.0</ele><time>2026-04-19T07:50:08.39Z</time></trkpt><trkpt lat="41.1482614" lon="16.7409382"><ele>39.0</ele><time>2026-04-19T07:50:09.39Z</time></trkpt><trkpt lat="41.1481565" lon="16.7411289"><ele>39.4</ele><time>2026-04-19T07:50:10.39Z</time></trkpt><trkpt lat="41.1480745" lon="16.7412905"><ele>39.8</ele><time>2026-04-19T07:50:11.39Z</time></trkpt><trkpt lat="41.148017" lon="16.7414241"><ele>40.199999999999996</ele><time>2026-04-19T07:50:12.39Z</time></trkpt><trkpt lat="41.1479751" lon="16.7415205"><ele>40.599999999999994</ele><time>2026-04-19T07:50:13.39Z</time></trkpt><trkpt lat="41.1479203" lon="16.7415842"><ele>41.0</ele><time>2026-04-19T07:50:14.39Z</time></trkpt><trkpt lat="41.1478449" lon="16.7416065"><ele>41.0</ele><time>2026-04-19T07:50:15.39Z</time></trkpt><trkpt lat="41.1477633" lon="16.7415795"><ele>41.0</ele><time>2026-04-19T07:50:16.39Z</time></trkpt><trkpt lat="41.1476704" lon="16.7415023"><ele>41.0</ele><time>2026-04-19T07:50:17.39Z</time></trkpt><trkpt lat="41.147561" lon="16.7413672"><ele>41.0</ele><time>2026-04-19T07:50:18.39Z</time></trkpt><trkpt lat="41.1474436" lon="16.7411872"><ele>41.33333333333333</ele><time>2026-04-19T07:50:19.39Z</time></trkpt><trkpt lat="41.1473124" lon="16.7409921"><ele>41.666666666666664</ele><time>2026-04-19T07:50:20.39Z</time></trkpt><trkpt lat="41.1471787" lon="16.7408119"><ele>42.0</ele><time>2026-04-19T07:50:21.39Z</time></trkpt><trkpt lat="41.1470606" lon="16.7406461"><ele>42.0</ele><time>2026-04-19T07:50:22.39Z</time></trkpt><trkpt lat="41.1469542" lon="16.7404962"><ele>42.0</ele><time>2026-04-19T07:50:23.39Z</time></trkpt><trkpt lat="41.1468627" lon="16.7403568"><ele>42.0</ele><time>2026-04-19T07:50:24.39Z</time></trkpt><trkpt lat="41.1467837" lon="16.7402529"><ele>42.0</ele><time>2026-04-19T07:50:25.389Z</time></trkpt><trkpt lat="41.1466889" lon="16.7401593"><ele>41.666666666666664</ele><time>2026-04-19T07:50:26.389Z</time></trkpt><trkpt lat="41.1465602" lon="16.7400865"><ele>41.33333333333333</ele><time>2026-04-19T07:50:27.389Z</time></trkpt><trkpt lat="41.1464333" lon="16.7399656"><ele>41.0</ele><time>2026-04-19T07:50:28.389Z</time></trkpt><trkpt lat="41.1463108" lon="16.7398101"><ele>41.0</ele><time>2026-04-19T07:50:29.389Z</time></trkpt><trkpt lat="41.1461832" lon="16.7396193"><ele>41.0</ele><time>2026-04-19T07:50:30.389Z</time></trkpt><trkpt lat="41.1460417" lon="16.7394227"><ele>41.0</ele><time>2026-04-19T07:50:31.389Z</time></trkpt><trkpt lat="41.1459029" lon="16.7392277"><ele>41.0</ele><time>2026-04-19T07:50:32.389Z</time></trkpt><trkpt lat="41.1457628" lon="16.7390453"><ele>41.0</ele><time>2026-04-19T07:50:33.389Z</time></trkpt><trkpt lat="41.1456234" lon="16.7388654"><ele>41.0</ele><time>2026-04-19T07:50:34.389Z</time></trkpt><trkpt lat="41.1455036" lon="16.7386981"><ele>41.5</ele><time>2026-04-19T07:50:35.389Z</time></trkpt><trkpt lat="41.145393" lon="16.7385463"><ele>42.0</ele><time>2026-04-19T07:50:36.389Z</time></trkpt><trkpt lat="41.1453036" lon="16.7384207"><ele>42.5</ele><time>2026-04-19T07:50:37.389Z</time></trkpt><trkpt lat="41.1452256" lon="16.7383136"><ele>43.0</ele><time>2026-04-19T07:50:38.389Z</time></trkpt><trkpt lat="41.1451684" lon="16.7382163"><ele>43.0</ele><time>2026-04-19T07:50:39.389Z</time></trkpt><trkpt lat="41.1451548" lon="16.7380922"><ele>43.0</ele><time>2026-04-19T07:50:40.389Z</time></trkpt><trkpt lat="41.1451867" lon="16.7379304"><ele>43.0</ele><time>2026-04-19T07:50:41.389Z</time></trkpt><trkpt lat="41.1452525" lon="16.7377763"><ele>43.0</ele><time>2026-04-19T07:50:42.389Z</time></trkpt><trkpt lat="41.1453196" lon="16.7376416"><ele>43.2</ele><time>2026-04-19T07:50:43.389Z</time></trkpt><trkpt lat="41.1453515" lon="16.7375286"><ele>43.4</ele><time>2026-04-19T07:50:44.389Z</time></trkpt><trkpt lat="41.1453743" lon="16.7374303"><ele>43.6</ele><time>2026-04-19T07:50:45.389Z</time></trkpt><trkpt lat="41.1453621" lon="16.7372676"><ele>43.800000000000004</ele><time>2026-04-19T07:50:47.389Z</time></trkpt><trkpt lat="41.1453028" lon="16.7371817"><ele>44.0</ele><time>2026-04-19T07:50:48.389Z</time></trkpt><trkpt lat="41.1452019" lon="16.7370835"><ele>44.0</ele><time>2026-04-19T07:50:49.389Z</time></trkpt><trkpt lat="41.1450754" lon="16.7370008"><ele>44.0</ele><time>2026-04-19T07:50:50.389Z</time></trkpt><trkpt lat="41.1449745" lon="16.7369353"><ele>44.0</ele><time>2026-04-19T07:50:51.389Z</time></trkpt><trkpt lat="41.144881" lon="16.7368796"><ele>44.0</ele><time>2026-04-19T07:50:52.389Z</time></trkpt><trkpt lat="41.1447818" lon="16.7368746"><ele>44.5</ele><time>2026-04-19T07:50:53.389Z</time></trkpt><trkpt lat="41.1446945" lon="16.7369431"><ele>45.0</ele><time>2026-04-19T07:50:54.389Z</time></trkpt><trkpt lat="41.1446019" lon="16.7370639"><ele>45.5</ele><time>2026-04-19T07:50:55.389Z</time></trkpt><trkpt lat="41.1445348" lon="16.737239"><ele>46.0</ele><time>2026-04-19T07:50:56.389Z</time></trkpt><trkpt lat="41.1444623" lon="16.7374577"><ele>46.0</ele><time>2026-04-19T07:50:57.389Z</time></trkpt><trkpt lat="41.1443871" lon="16.7376809"><ele>46.0</ele><time>2026-04-19T07:50:58.389Z</time></trkpt><trkpt lat="41.1443078" lon="16.7378771"><ele>46.0</ele><time>2026-04-19T07:50:59.389Z</time></trkpt><trkpt lat="41.1442377" lon="16.7380628"><ele>46.0</ele><time>2026-04-19T07:51:00.389Z</time></trkpt><trkpt lat="41.1441783" lon="16.7382157"><ele>46.0</ele><time>2026-04-19T07:51:01.389Z</time></trkpt><trkpt lat="41.1441243" lon="16.7383658"><ele>46.0</ele><time>2026-04-19T07:51:02.389Z</time></trkpt><trkpt lat="41.1440697" lon="16.7385332"><ele>46.0</ele><time>2026-04-19T07:51:03.389Z</time></trkpt><trkpt lat="41.144007" lon="16.7387489"><ele>46.25</ele><time>2026-04-19T07:51:04.389Z</time></trkpt><trkpt lat="41.143952" lon="16.7389729"><ele>46.5</ele><time>2026-04-19T07:51:05.389Z</time></trkpt><trkpt lat="41.1439129" lon="16.7391561"><ele>46.75</ele><time>2026-04-19T07:51:06.389Z</time></trkpt><trkpt lat="41.1438788" lon="16.7392992"><ele>47.0</ele><time>2026-04-19T07:51:07.389Z</time></trkpt><trkpt lat="41.1438366" lon="16.739408"><ele>47.0</ele><time>2026-04-19T07:51:08.389Z</time></trkpt><trkpt lat="41.1437635" lon="16.7394711"><ele>47.0</ele><time>2026-04-19T07:51:09.389Z</time></trkpt><trkpt lat="41.1436596" lon="16.7394892"><ele>47.0</ele><time>2026-04-19T07:51:10.389Z</time></trkpt><trkpt lat="41.1435492" lon="16.7394484"><ele>47.0</ele><time>2026-04-19T07:51:11.389Z</time></trkpt><trkpt lat="41.1434289" lon="16.7393346"><ele>47.0</ele><time>2026-04-19T07:51:12.389Z</time></trkpt><trkpt lat="41.1432865" lon="16.7391973"><ele>47.0</ele><time>2026-04-19T07:51:13.389Z</time></trkpt><trkpt lat="41.143137" lon="16.7390228"><ele>47.0</ele><time>2026-04-19T07:51:14.389Z</time></trkpt><trkpt lat="41.1429934" lon="16.7388483"><ele>47.0</ele><time>2026-04-19T07:51:15.389Z</time></trkpt><trkpt lat="41.142859" lon="16.7386548"><ele>47.0</ele><time>2026-04-19T07:51:16.389Z</time></trkpt><trkpt lat="41.1427244" lon="16.7384549"><ele>47.0</ele><time>2026-04-19T07:51:17.389Z</time></trkpt><trkpt lat="41.1425839" lon="16.7382322"><ele>47.33333333333333</ele><time>2026-04-19T07:51:18.389Z</time></trkpt><trkpt lat="41.1424319" lon="16.7380086"><ele>47.666666666666664</ele><time>2026-04-19T07:51:19.389Z</time></trkpt><trkpt lat="41.1422838" lon="16.7378006"><ele>48.0</ele><time>2026-04-19T07:51:20.389Z</time></trkpt><trkpt lat="41.142146" lon="16.7376026"><ele>48.33333333333333</ele><time>2026-04-19T07:51:21.389Z</time></trkpt><trkpt lat="41.1420116" lon="16.7374101"><ele>48.666666666666664</ele><time>2026-04-19T07:51:22.389Z</time></trkpt><trkpt lat="41.1418894" lon="16.7372324"><ele>49.0</ele><time>2026-04-19T07:51:23.389Z</time></trkpt><trkpt lat="41.1417862" lon="16.7370797"><ele>49.0</ele><time>2026-04-19T07:51:24.389Z</time></trkpt><trkpt lat="41.1416882" lon="16.7369205"><ele>49.0</ele><time>2026-04-19T07:51:25.389Z</time></trkpt><trkpt lat="41.1415829" lon="16.7367728"><ele>49.0</ele><time>2026-04-19T07:51:26.389Z</time></trkpt><trkpt lat="41.1414532" lon="16.7365915"><ele>49.0</ele><time>2026-04-19T07:51:27.389Z</time></trkpt><trkpt lat="41.1412965" lon="16.7363801"><ele>49.0</ele><time>2026-04-19T07:51:28.389Z</time></trkpt><trkpt lat="41.1411328" lon="16.7361569"><ele>49.5</ele><time>2026-04-19T07:51:29.389Z</time></trkpt><trkpt lat="41.1409822" lon="16.7359291"><ele>50.0</ele><time>2026-04-19T07:51:30.389Z</time></trkpt><trkpt lat="41.1408347" lon="16.735699"><ele>50.5</ele><time>2026-04-19T07:51:31.389Z</time></trkpt><trkpt lat="41.1406817" lon="16.7354655"><ele>51.0</ele><time>2026-04-19T07:51:32.389Z</time></trkpt><trkpt lat="41.1405218" lon="16.7352243"><ele>51.0</ele><time>2026-04-19T07:51:33.389Z</time></trkpt><trkpt lat="41.1403463" lon="16.7349631"><ele>51.0</ele><time>2026-04-19T07:51:34.389Z</time></trkpt><trkpt lat="41.1401473" lon="16.7346843"><ele>51.0</ele><time>2026-04-19T07:51:35.389Z</time></trkpt><trkpt lat="41.1399615" lon="16.7344073"><ele>51.0</ele><time>2026-04-19T07:51:36.389Z</time></trkpt><trkpt lat="41.1397766" lon="16.7341453"><ele>52.0</ele><time>2026-04-19T07:51:37.389Z</time></trkpt><trkpt lat="41.1395923" lon="16.7338792"><ele>53.0</ele><time>2026-04-19T07:51:38.389Z</time></trkpt><trkpt lat="41.1394082" lon="16.7336081"><ele>53.0</ele><time>2026-04-19T07:51:39.389Z</time></trkpt><trkpt lat="41.1392197" lon="16.7333221"><ele>53.0</ele><time>2026-04-19T07:51:40.389Z</time></trkpt><trkpt lat="41.1390282" lon="16.7330485"><ele>53.0</ele><time>2026-04-19T07:51:41.389Z</time></trkpt><trkpt lat="41.1388644" lon="16.7328156"><ele>53.0</ele><time>2026-04-19T07:51:42.389Z</time></trkpt><trkpt lat="41.1387059" lon="16.7325759"><ele>53.5</ele><time>2026-04-19T07:51:43.389Z</time></trkpt><trkpt lat="41.1385339" lon="16.7323354"><ele>54.0</ele><time>2026-04-19T07:51:44.389Z</time></trkpt><trkpt lat="41.13836" lon="16.7320875"><ele>55.0</ele><time>2026-04-19T07:51:45.389Z</time></trkpt><trkpt lat="41.138193" lon="16.7318379"><ele>56.0</ele><time>2026-04-19T07:51:46.389Z</time></trkpt><trkpt lat="41.138033" lon="16.7316049"><ele>56.0</ele><time>2026-04-19T07:51:47.389Z</time></trkpt><trkpt lat="41.1378767" lon="16.7313775"><ele>56.0</ele><time>2026-04-19T07:51:48.389Z</time></trkpt><trkpt lat="41.1377112" lon="16.7311297"><ele>56.0</ele><time>2026-04-19T07:51:49.389Z</time></trkpt><trkpt lat="41.1375215" lon="16.7308664"><ele>56.0</ele><time>2026-04-19T07:51:50.389Z</time></trkpt><trkpt lat="41.1373145" lon="16.7305765"><ele>56.0</ele><time>2026-04-19T07:51:51.389Z</time></trkpt><trkpt lat="41.1371079" lon="16.7302626"><ele>56.0</ele><time>2026-04-19T07:51:52.389Z</time></trkpt><trkpt lat="41.1368965" lon="16.7299381"><ele>56.5</ele><time>2026-04-19T07:51:53.389Z</time></trkpt><trkpt lat="41.136674" lon="16.7296242"><ele>57.0</ele><time>2026-04-19T07:51:54.389Z</time></trkpt><trkpt lat="41.1364577" lon="16.7293107"><ele>57.5</ele><time>2026-04-19T07:51:55.389Z</time></trkpt><trkpt lat="41.1362229" lon="16.7289779"><ele>58.0</ele><time>2026-04-19T07:51:56.389Z</time></trkpt><trkpt lat="41.1359849" lon="16.7286411"><ele>58.0</ele><time>2026-04-19T07:51:57.389Z</time></trkpt><trkpt lat="41.1357401" lon="16.7283"><ele>58.0</ele><time>2026-04-19T07:51:58.389Z</time></trkpt><trkpt lat="41.1354879" lon="16.7279419"><ele>59.5</ele><time>2026-04-19T07:51:59.389Z</time></trkpt><trkpt lat="41.1352537" lon="16.7276061"><ele>61.0</ele><time>2026-04-19T07:52:00.389Z</time></trkpt><trkpt lat="41.1350353" lon="16.7272933"><ele>61.5</ele><time>2026-04-19T07:52:01.389Z</time></trkpt><trkpt lat="41.1348451" lon="16.7269928"><ele>62.0</ele><time>2026-04-19T07:52:02.389Z</time></trkpt><trkpt lat="41.1346603" lon="16.7267123"><ele>62.0</ele><time>2026-04-19T07:52:03.389Z</time></trkpt><trkpt lat="41.1344963" lon="16.7264599"><ele>62.0</ele><time>2026-04-19T07:52:04.389Z</time></trkpt><trkpt lat="41.1343098" lon="16.7262016"><ele>62.0</ele><time>2026-04-19T07:52:05.389Z</time></trkpt><trkpt lat="41.1340931" lon="16.7258976"><ele>62.0</ele><time>2026-04-19T07:52:06.389Z</time></trkpt><trkpt lat="41.1338553" lon="16.7255552"><ele>62.5</ele><time>2026-04-19T07:52:07.389Z</time></trkpt><trkpt lat="41.1336078" lon="16.7251838"><ele>63.0</ele><time>2026-04-19T07:52:08.389Z</time></trkpt><trkpt lat="41.1333538" lon="16.7248209"><ele>63.5</ele><time>2026-04-19T07:52:09.389Z</time></trkpt><trkpt lat="41.1331207" lon="16.7244791"><ele>64.0</ele><time>2026-04-19T07:52:10.389Z</time></trkpt><trkpt lat="41.1328901" lon="16.7241387"><ele>64.5</ele><time>2026-04-19T07:52:11.389Z</time></trkpt><trkpt lat="41.132663" lon="16.7238052"><ele>65.0</ele><time>2026-04-19T07:52:12.389Z</time></trkpt><trkpt lat="41.1324374" lon="16.7234702"><ele>65.0</ele><time>2026-04-19T07:52:13.389Z</time></trkpt><trkpt lat="41.1322111" lon="16.7231311"><ele>65.0</ele><time>2026-04-19T07:52:14.389Z</time></trkpt><trkpt lat="41.1319792" lon="16.7227909"><ele>65.5</ele><time>2026-04-19T07:52:15.389Z</time></trkpt><trkpt lat="41.1317241" lon="16.7224431"><ele>66.0</ele><time>2026-04-19T07:52:16.389Z</time></trkpt><trkpt lat="41.1314597" lon="16.7220698"><ele>67.0</ele><time>2026-04-19T07:52:17.389Z</time></trkpt><trkpt lat="41.1312017" lon="16.7216917"><ele>68.0</ele><time>2026-04-19T07:52:18.389Z</time></trkpt><trkpt lat="41.1309567" lon="16.7213219"><ele>68.0</ele><time>2026-04-19T07:52:19.389Z</time></trkpt><trkpt lat="41.1307099" lon="16.7209634"><ele>68.0</ele><time>2026-04-19T07:52:20.389Z</time></trkpt><trkpt lat="41.1304649" lon="16.7206009"><ele>68.0</ele><time>2026-04-19T07:52:21.389Z</time></trkpt><trkpt lat="41.1302245" lon="16.720251"><ele>68.0</ele><time>2026-04-19T07:52:22.389Z</time></trkpt><trkpt lat="41.1299989" lon="16.7199117"><ele>68.0</ele><time>2026-04-19T07:52:23.389Z</time></trkpt><trkpt lat="41.1297787" lon="16.7195864"><ele>68.0</ele><time>2026-04-19T07:52:24.389Z</time></trkpt><trkpt lat="41.1295589" lon="16.7192657"><ele>68.0</ele><time>2026-04-19T07:52:25.389Z</time></trkpt><trkpt lat="41.129339" lon="16.7189463"><ele>68.0</ele><time>2026-04-19T07:52:26.389Z</time></trkpt><trkpt lat="41.1291215" lon="16.7186352"><ele>69.5</ele><time>2026-04-19T07:52:27.389Z</time></trkpt><trkpt lat="41.1289071" lon="16.7183298"><ele>71.0</ele><time>2026-04-19T07:52:28.389Z</time></trkpt><trkpt lat="41.1287091" lon="16.7180499"><ele>71.0</ele><time>2026-04-19T07:52:29.389Z</time></trkpt><trkpt lat="41.1285235" lon="16.717798"><ele>71.0</ele><time>2026-04-19T07:52:30.389Z</time></trkpt><trkpt lat="41.1283515" lon="16.7175579"><ele>71.5</ele><time>2026-04-19T07:52:31.389Z</time></trkpt><trkpt lat="41.128191" lon="16.71732"><ele>72.0</ele><time>2026-04-19T07:52:32.389Z</time></trkpt><trkpt lat="41.1280458" lon="16.7170954"><ele>72.0</ele><time>2026-04-19T07:52:33.389Z</time></trkpt><trkpt lat="41.1279032" lon="16.7168957"><ele>72.0</ele><time>2026-04-19T07:52:34.389Z</time></trkpt><trkpt lat="41.1277826" lon="16.7167129"><ele>72.0</ele><time>2026-04-19T07:52:35.389Z</time></trkpt><trkpt lat="41.127668" lon="16.7165543"><ele>72.0</ele><time>2026-04-19T07:52:36.389Z</time></trkpt><trkpt lat="41.1275517" lon="16.7163773"><ele>72.0</ele><time>2026-04-19T07:52:37.389Z</time></trkpt><trkpt lat="41.1274393" lon="16.7161978"><ele>72.0</ele><time>2026-04-19T07:52:38.389Z</time></trkpt><trkpt lat="41.1273542" lon="16.7160269"><ele>71.25</ele><time>2026-04-19T07:52:39.389Z</time></trkpt><trkpt lat="41.1272795" lon="16.7158728"><ele>70.5</ele><time>2026-04-19T07:52:40.389Z</time></trkpt><trkpt lat="41.1272104" lon="16.7157339"><ele>69.75</ele><time>2026-04-19T07:52:41.389Z</time></trkpt><trkpt lat="41.1271358" lon="16.7156296"><ele>69.0</ele><time>2026-04-19T07:52:42.389Z</time></trkpt><trkpt lat="41.1270735" lon="16.7155277"><ele>69.0</ele><time>2026-04-19T07:52:43.389Z</time></trkpt><trkpt lat="41.1270297" lon="16.7154318"><ele>69.0</ele><time>2026-04-19T07:52:44.389Z</time></trkpt><trkpt lat="41.1270071" lon="16.7153191"><ele>69.0</ele><time>2026-04-19T07:52:45.389Z</time></trkpt><trkpt lat="41.1270041" lon="16.7152006"><ele>69.0</ele><time>2026-04-19T07:52:46.389Z</time></trkpt><trkpt lat="41.1270369" lon="16.7150904"><ele>69.0</ele><time>2026-04-19T07:52:47.389Z</time></trkpt><trkpt lat="41.1270926" lon="16.7149746"><ele>69.33333333333333</ele><time>2026-04-19T07:52:48.389Z</time></trkpt><trkpt lat="41.1271859" lon="16.7148228"><ele>69.66666666666666</ele><time>2026-04-19T07:52:49.389Z</time></trkpt><trkpt lat="41.1273096" lon="16.7146539"><ele>70.0</ele><time>2026-04-19T07:52:50.389Z</time></trkpt><trkpt lat="41.1274625" lon="16.7144969"><ele>70.0</ele><time>2026-04-19T07:52:51.389Z</time></trkpt><trkpt lat="41.1276183" lon="16.7143283"><ele>70.0</ele><time>2026-04-19T07:52:52.389Z</time></trkpt><trkpt lat="41.1277806" lon="16.7141628"><ele>70.0</ele><time>2026-04-19T07:52:53.389Z</time></trkpt><trkpt lat="41.127937" lon="16.7140188"><ele>70.0</ele><time>2026-04-19T07:52:54.389Z</time></trkpt><trkpt lat="41.1280861" lon="16.7138795"><ele>70.0</ele><time>2026-04-19T07:52:55.389Z</time></trkpt><trkpt lat="41.1282154" lon="16.7137701"><ele>70.0</ele><time>2026-04-19T07:52:56.389Z</time></trkpt><trkpt lat="41.1283242" lon="16.7136721"><ele>69.8</ele><time>2026-04-19T07:52:57.389Z</time></trkpt><trkpt lat="41.1284111" lon="16.7135929"><ele>69.6</ele><time>2026-04-19T07:52:58.389Z</time></trkpt><trkpt lat="41.1284892" lon="16.7135214"><ele>69.4</ele><time>2026-04-19T07:52:59.389Z</time></trkpt><trkpt lat="41.1285482" lon="16.7134374"><ele>69.2</ele><time>2026-04-19T07:53:00.389Z</time></trkpt><trkpt lat="41.1285847" lon="16.7133331"><ele>69.0</ele><time>2026-04-19T07:53:01.389Z</time></trkpt><trkpt lat="41.1285888" lon="16.713205"><ele>69.28571428571429</ele><time>2026-04-19T07:53:02.389Z</time></trkpt><trkpt lat="41.1285685" lon="16.7130813"><ele>69.57142857142858</ele><time>2026-04-19T07:53:03.389Z</time></trkpt><trkpt lat="41.1285363" lon="16.7129938"><ele>69.85714285714286</ele><time>2026-04-19T07:53:04.389Z</time></trkpt><trkpt lat="41.1284985" lon="16.7129237"><ele>70.14285714285714</ele><time>2026-04-19T07:53:05.389Z</time></trkpt><trkpt lat="41.1284561" lon="16.7128615"><ele>70.42857142857142</ele><time>2026-04-19T07:53:06.389Z</time></trkpt><trkpt lat="41.1284129" lon="16.7127929"><ele>70.71428571428571</ele><time>2026-04-19T07:53:07.389Z</time></trkpt><trkpt lat="41.1283812" lon="16.7127098"><ele>71.0</ele><time>2026-04-19T07:53:08.389Z</time></trkpt><trkpt lat="41.1283652" lon="16.7126243"><ele>71.0</ele><time>2026-04-19T07:53:09.389Z</time></trkpt><trkpt lat="41.1283688" lon="16.7125367"><ele>71.0</ele><time>2026-04-19T07:53:10.389Z</time></trkpt><trkpt lat="41.1283949" lon="16.7124252"><ele>71.0</ele><time>2026-04-19T07:53:11.389Z</time></trkpt><trkpt lat="41.1284428" lon="16.7123115"><ele>71.0</ele><time>2026-04-19T07:53:12.389Z</time></trkpt><trkpt lat="41.1284849" lon="16.7122019"><ele>71.0</ele><time>2026-04-19T07:53:13.389Z</time></trkpt><trkpt lat="41.1285291" lon="16.7120847"><ele>71.0</ele><time>2026-04-19T07:53:14.389Z</time></trkpt><trkpt lat="41.1286002" lon="16.7119132"><ele>71.66666666666667</ele><time>2026-04-19T07:53:15.389Z</time></trkpt><trkpt lat="41.128698" lon="16.7117308"><ele>72.33333333333333</ele><time>2026-04-19T07:53:16.389Z</time></trkpt><trkpt lat="41.1287982" lon="16.7115355"><ele>73.0</ele><time>2026-04-19T07:53:17.389Z</time></trkpt><trkpt lat="41.1289124" lon="16.7113278"><ele>73.0</ele><time>2026-04-19T07:53:18.389Z</time></trkpt><trkpt lat="41.1290379" lon="16.7110777"><ele>73.0</ele><time>2026-04-19T07:53:19.389Z</time></trkpt><trkpt lat="41.1291811" lon="16.7107973"><ele>72.5</ele><time>2026-04-19T07:53:20.389Z</time></trkpt><trkpt lat="41.1293304" lon="16.7105022"><ele>72.0</ele><time>2026-04-19T07:53:21.389Z</time></trkpt><trkpt lat="41.1294828" lon="16.7101975"><ele>72.0</ele><time>2026-04-19T07:53:22.389Z</time></trkpt><trkpt lat="41.1296568" lon="16.7098473"><ele>72.0</ele><time>2026-04-19T07:53:23.389Z</time></trkpt><trkpt lat="41.1298266" lon="16.7094961"><ele>71.0</ele><time>2026-04-19T07:53:24.389Z</time></trkpt><trkpt lat="41.1299995" lon="16.7091689"><ele>70.0</ele><time>2026-04-19T07:53:25.389Z</time></trkpt><trkpt lat="41.130174" lon="16.7088475"><ele>71.5</ele><time>2026-04-19T07:53:26.389Z</time></trkpt><trkpt lat="41.1303408" lon="16.7085196"><ele>73.0</ele><time>2026-04-19T07:53:27.389Z</time></trkpt><trkpt lat="41.1304961" lon="16.7082085"><ele>73.0</ele><time>2026-04-19T07:53:28.389Z</time></trkpt><trkpt lat="41.1306455" lon="16.7079299"><ele>73.0</ele><time>2026-04-19T07:53:29.389Z</time></trkpt><trkpt lat="41.1307938" lon="16.7076473"><ele>73.0</ele><time>2026-04-19T07:53:30.389Z</time></trkpt><trkpt lat="41.1309513" lon="16.7073474"><ele>73.0</ele><time>2026-04-19T07:53:31.389Z</time></trkpt><trkpt lat="41.1311127" lon="16.7070218"><ele>74.5</ele><time>2026-04-19T07:53:32.389Z</time></trkpt><trkpt lat="41.1312826" lon="16.7066676"><ele>76.0</ele><time>2026-04-19T07:53:33.389Z</time></trkpt><trkpt lat="41.1314457" lon="16.706312"><ele>74.5</ele><time>2026-04-19T07:53:34.389Z</time></trkpt><trkpt lat="41.1315938" lon="16.7059615"><ele>73.0</ele><time>2026-04-19T07:53:35.389Z</time></trkpt><trkpt lat="41.1317288" lon="16.705627"><ele>73.0</ele><time>2026-04-19T07:53:36.389Z</time></trkpt><trkpt lat="41.1318591" lon="16.7053013"><ele>73.0</ele><time>2026-04-19T07:53:37.389Z</time></trkpt><trkpt lat="41.131986" lon="16.7049993"><ele>73.5</ele><time>2026-04-19T07:53:38.389Z</time></trkpt><trkpt lat="41.1320942" lon="16.7047058"><ele>74.0</ele><time>2026-04-19T07:53:39.389Z</time></trkpt><trkpt lat="41.1321989" lon="16.7044134"><ele>74.0</ele><time>2026-04-19T07:53:40.388Z</time></trkpt><trkpt lat="41.1323082" lon="16.7041004"><ele>74.0</ele><time>2026-04-19T07:53:41.388Z</time></trkpt><trkpt lat="41.1324318" lon="16.7037364"><ele>74.5</ele><time>2026-04-19T07:53:42.388Z</time></trkpt><trkpt lat="41.1325646" lon="16.7033593"><ele>75.0</ele><time>2026-04-19T07:53:43.388Z</time></trkpt><trkpt lat="41.1326872" lon="16.7029668"><ele>74.5</ele><time>2026-04-19T07:53:44.388Z</time></trkpt><trkpt lat="41.1328085" lon="16.7025782"><ele>74.0</ele><time>2026-04-19T07:53:45.388Z</time></trkpt><trkpt lat="41.1329269" lon="16.7021882"><ele>74.5</ele><time>2026-04-19T07:53:46.388Z</time></trkpt><trkpt lat="41.1330463" lon="16.7018047"><ele>75.0</ele><time>2026-04-19T07:53:47.388Z</time></trkpt><trkpt lat="41.1331552" lon="16.7014223"><ele>74.5</ele><time>2026-04-19T07:53:48.388Z</time></trkpt><trkpt lat="41.1332666" lon="16.7010091"><ele>74.0</ele><time>2026-04-19T07:53:49.388Z</time></trkpt><trkpt lat="41.1333675" lon="16.7005899"><ele>74.5</ele><time>2026-04-19T07:53:50.388Z</time></trkpt><trkpt lat="41.1334551" lon="16.7001736"><ele>75.0</ele><time>2026-04-19T07:53:51.388Z</time></trkpt><trkpt lat="41.1335405" lon="16.6997656"><ele>75.0</ele><time>2026-04-19T07:53:52.388Z</time></trkpt><trkpt lat="41.1336111" lon="16.6993904"><ele>75.0</ele><time>2026-04-19T07:53:53.388Z</time></trkpt><trkpt lat="41.1336735" lon="16.6990473"><ele>75.0</ele><time>2026-04-19T07:53:54.388Z</time></trkpt><trkpt lat="41.1337236" lon="16.6987276"><ele>75.0</ele><time>2026-04-19T07:53:55.388Z</time></trkpt><trkpt lat="41.1337747" lon="16.6984252"><ele>75.0</ele><time>2026-04-19T07:53:56.388Z</time></trkpt><trkpt lat="41.1338212" lon="16.6981353"><ele>75.0</ele><time>2026-04-19T07:53:57.388Z</time></trkpt><trkpt lat="41.1338714" lon="16.697856"><ele>75.0</ele><time>2026-04-19T07:53:58.388Z</time></trkpt><trkpt lat="41.1339099" lon="16.697601"><ele>75.0</ele><time>2026-04-19T07:53:59.388Z</time></trkpt><trkpt lat="41.1339451" lon="16.6973679"><ele>75.0</ele><time>2026-04-19T07:54:00.388Z</time></trkpt><trkpt lat="41.1339802" lon="16.6971343"><ele>75.0</ele><time>2026-04-19T07:54:01.388Z</time></trkpt><trkpt lat="41.13402" lon="16.6968589"><ele>75.0</ele><time>2026-04-19T07:54:02.388Z</time></trkpt><trkpt lat="41.1340587" lon="16.6965605"><ele>75.0</ele><time>2026-04-19T07:54:03.388Z</time></trkpt><trkpt lat="41.1340918" lon="16.6962622"><ele>75.0</ele><time>2026-04-19T07:54:04.388Z</time></trkpt><trkpt lat="41.1341238" lon="16.6959634"><ele>75.0</ele><time>2026-04-19T07:54:05.388Z</time></trkpt><trkpt lat="41.1341514" lon="16.6956833"><ele>75.0</ele><time>2026-04-19T07:54:06.388Z</time></trkpt><trkpt lat="41.1341785" lon="16.6954073"><ele>74.66666666666667</ele><time>2026-04-19T07:54:07.388Z</time></trkpt><trkpt lat="41.1342026" lon="16.69513"><ele>74.33333333333334</ele><time>2026-04-19T07:54:08.388Z</time></trkpt><trkpt lat="41.1342293" lon="16.6948481"><ele>74.0</ele><time>2026-04-19T07:54:09.388Z</time></trkpt><trkpt lat="41.1342588" lon="16.6945791"><ele>74.33333333333334</ele><time>2026-04-19T07:54:10.388Z</time></trkpt><trkpt lat="41.1342849" lon="16.6943231"><ele>74.66666666666667</ele><time>2026-04-19T07:54:11.388Z</time></trkpt><trkpt lat="41.134308" lon="16.6940854"><ele>75.0</ele><time>2026-04-19T07:54:12.388Z</time></trkpt><trkpt lat="41.1343308" lon="16.6938516"><ele>75.0</ele><time>2026-04-19T07:54:13.388Z</time></trkpt><trkpt lat="41.1343497" lon="16.6936291"><ele>75.0</ele><time>2026-04-19T07:54:14.388Z</time></trkpt><trkpt lat="41.1343681" lon="16.6934116"><ele>75.0</ele><time>2026-04-19T07:54:15.388Z</time></trkpt><trkpt lat="41.1343853" lon="16.6931953"><ele>75.0</ele><time>2026-04-19T07:54:16.388Z</time></trkpt><trkpt lat="41.1344022" lon="16.6929795"><ele>75.0</ele><time>2026-04-19T07:54:17.388Z</time></trkpt><trkpt lat="41.1344168" lon="16.6927676"><ele>75.0</ele><time>2026-04-19T07:54:18.388Z</time></trkpt><trkpt lat="41.1344251" lon="16.6925662"><ele>75.0</ele><time>2026-04-19T07:54:19.388Z</time></trkpt><trkpt lat="41.1344367" lon="16.692367"><ele>75.0</ele><time>2026-04-19T07:54:20.388Z</time></trkpt><trkpt lat="41.1344422" lon="16.6921542"><ele>75.0</ele><time>2026-04-19T07:54:21.388Z</time></trkpt><trkpt lat="41.1344428" lon="16.69189"><ele>75.5</ele><time>2026-04-19T07:54:22.388Z</time></trkpt><trkpt lat="41.1344525" lon="16.6915849"><ele>76.0</ele><time>2026-04-19T07:54:23.388Z</time></trkpt><trkpt lat="41.1344738" lon="16.6912423"><ele>76.5</ele><time>2026-04-19T07:54:24.388Z</time></trkpt><trkpt lat="41.1344939" lon="16.6908866"><ele>77.0</ele><time>2026-04-19T07:54:25.388Z</time></trkpt><trkpt lat="41.1345152" lon="16.6905745"><ele>77.0</ele><time>2026-04-19T07:54:26.388Z</time></trkpt><trkpt lat="41.1345046" lon="16.6902934"><ele>77.0</ele><time>2026-04-19T07:54:27.388Z</time></trkpt><trkpt lat="41.1344906" lon="16.690041"><ele>77.0</ele><time>2026-04-19T07:54:28.388Z</time></trkpt><trkpt lat="41.1344797" lon="16.6898298"><ele>77.0</ele><time>2026-04-19T07:54:29.388Z</time></trkpt><trkpt lat="41.134486" lon="16.6896449"><ele>77.0</ele><time>2026-04-19T07:54:30.388Z</time></trkpt><trkpt lat="41.1345121" lon="16.6894708"><ele>77.0</ele><time>2026-04-19T07:54:31.388Z</time></trkpt><trkpt lat="41.1345551" lon="16.6893066"><ele>77.0</ele><time>2026-04-19T07:54:32.388Z</time></trkpt><trkpt lat="41.1345936" lon="16.6891532"><ele>77.0</ele><time>2026-04-19T07:54:33.388Z</time></trkpt><trkpt lat="41.1346299" lon="16.6890119"><ele>77.0</ele><time>2026-04-19T07:54:34.388Z</time></trkpt><trkpt lat="41.1346292" lon="16.6888831"><ele>77.0</ele><time>2026-04-19T07:54:35.388Z</time></trkpt><trkpt lat="41.1345805" lon="16.6887712"><ele>77.0</ele><time>2026-04-19T07:54:36.388Z</time></trkpt><trkpt lat="41.1345267" lon="16.6886617"><ele>77.0</ele><time>2026-04-19T07:54:37.388Z</time></trkpt><trkpt lat="41.1344698" lon="16.688529"><ele>77.33333333333334</ele><time>2026-04-19T07:54:38.388Z</time></trkpt><trkpt lat="41.1344223" lon="16.688348"><ele>77.66666666666667</ele><time>2026-04-19T07:54:39.388Z</time></trkpt><trkpt lat="41.1343914" lon="16.6881283"><ele>78.0</ele><time>2026-04-19T07:54:40.388Z</time></trkpt><trkpt lat="41.1343792" lon="16.6878606"><ele>78.5</ele><time>2026-04-19T07:54:41.388Z</time></trkpt><trkpt lat="41.1343788" lon="16.6875739"><ele>79.0</ele><time>2026-04-19T07:54:42.388Z</time></trkpt><trkpt lat="41.1343658" lon="16.6872581"><ele>79.5</ele><time>2026-04-19T07:54:43.388Z</time></trkpt><trkpt lat="41.1343443" lon="16.6869251"><ele>80.0</ele><time>2026-04-19T07:54:44.388Z</time></trkpt><trkpt lat="41.1343159" lon="16.6865384"><ele>80.0</ele><time>2026-04-19T07:54:45.388Z</time></trkpt><trkpt lat="41.1342792" lon="16.6861379"><ele>80.0</ele><time>2026-04-19T07:54:46.388Z</time></trkpt><trkpt lat="41.1342456" lon="16.6857511"><ele>81.0</ele><time>2026-04-19T07:54:47.388Z</time></trkpt><trkpt lat="41.1342082" lon="16.6853611"><ele>82.0</ele><time>2026-04-19T07:54:48.388Z</time></trkpt><trkpt lat="41.1341673" lon="16.6849605"><ele>83.0</ele><time>2026-04-19T07:54:49.388Z</time></trkpt><trkpt lat="41.134119" lon="16.6845419"><ele>84.0</ele><time>2026-04-19T07:54:50.388Z</time></trkpt><trkpt lat="41.1340661" lon="16.684132"><ele>85.5</ele><time>2026-04-19T07:54:51.388Z</time></trkpt><trkpt lat="41.1340183" lon="16.6837354"><ele>87.0</ele><time>2026-04-19T07:54:52.388Z</time></trkpt><trkpt lat="41.1339602" lon="16.6833554"><ele>87.0</ele><time>2026-04-19T07:54:53.388Z</time></trkpt><trkpt lat="41.1339" lon="16.6829819"><ele>87.0</ele><time>2026-04-19T07:54:54.388Z</time></trkpt><trkpt lat="41.1338411" lon="16.6826014"><ele>87.0</ele><time>2026-04-19T07:54:55.388Z</time></trkpt><trkpt lat="41.1337693" lon="16.6822007"><ele>87.0</ele><time>2026-04-19T07:54:56.388Z</time></trkpt><trkpt lat="41.1336909" lon="16.6817776"><ele>87.0</ele><time>2026-04-19T07:54:57.388Z</time></trkpt><trkpt lat="41.1336072" lon="16.6813388"><ele>87.0</ele><time>2026-04-19T07:54:58.388Z</time></trkpt><trkpt lat="41.1335258" lon="16.6809004"><ele>87.0</ele><time>2026-04-19T07:54:59.388Z</time></trkpt><trkpt lat="41.133451" lon="16.6804891"><ele>87.0</ele><time>2026-04-19T07:55:00.388Z</time></trkpt><trkpt lat="41.1333816" lon="16.6801047"><ele>88.5</ele><time>2026-04-19T07:55:01.388Z</time></trkpt><trkpt lat="41.1333151" lon="16.6797481"><ele>90.0</ele><time>2026-04-19T07:55:02.388Z</time></trkpt><trkpt lat="41.1332429" lon="16.67941"><ele>91.0</ele><time>2026-04-19T07:55:03.388Z</time></trkpt><trkpt lat="41.1331786" lon="16.6790949"><ele>92.0</ele><time>2026-04-19T07:55:04.388Z</time></trkpt><trkpt lat="41.1330987" lon="16.6787753"><ele>92.5</ele><time>2026-04-19T07:55:05.388Z</time></trkpt><trkpt lat="41.1330108" lon="16.6784341"><ele>93.0</ele><time>2026-04-19T07:55:06.388Z</time></trkpt><trkpt lat="41.1329052" lon="16.6780606"><ele>93.5</ele><time>2026-04-19T07:55:07.388Z</time></trkpt><trkpt lat="41.1328073" lon="16.6776905"><ele>94.0</ele><time>2026-04-19T07:55:08.388Z</time></trkpt><trkpt lat="41.1327126" lon="16.6773192"><ele>95.0</ele><time>2026-04-19T07:55:09.388Z</time></trkpt><trkpt lat="41.132605" lon="16.676932"><ele>96.0</ele><time>2026-04-19T07:55:10.388Z</time></trkpt><trkpt lat="41.1324805" lon="16.6765382"><ele>95.5</ele><time>2026-04-19T07:55:11.388Z</time></trkpt><trkpt lat="41.1323466" lon="16.6761507"><ele>95.0</ele><time>2026-04-19T07:55:12.388Z</time></trkpt><trkpt lat="41.1322177" lon="16.6757772"><ele>96.0</ele><time>2026-04-19T07:55:13.388Z</time></trkpt><trkpt lat="41.1320899" lon="16.6753871"><ele>97.0</ele><time>2026-04-19T07:55:14.387Z</time></trkpt><trkpt lat="41.131959" lon="16.6749907"><ele>97.5</ele><time>2026-04-19T07:55:15.388Z</time></trkpt><trkpt lat="41.1318092" lon="16.6745874"><ele>98.0</ele><time>2026-04-19T07:55:16.388Z</time></trkpt><trkpt lat="41.1316678" lon="16.674194"><ele>99.0</ele><time>2026-04-19T07:55:17.388Z</time></trkpt><trkpt lat="41.1315243" lon="16.6738326"><ele>100.0</ele><time>2026-04-19T07:55:18.388Z</time></trkpt><trkpt lat="41.1313704" lon="16.6734614"><ele>100.5</ele><time>2026-04-19T07:55:19.388Z</time></trkpt><trkpt lat="41.1312117" lon="16.6730827"><ele>101.0</ele><time>2026-04-19T07:55:20.388Z</time></trkpt><trkpt lat="41.1310363" lon="16.6726844"><ele>101.0</ele><time>2026-04-19T07:55:21.388Z</time></trkpt><trkpt lat="41.1308376" lon="16.6722639"><ele>101.0</ele><time>2026-04-19T07:55:22.388Z</time></trkpt><trkpt lat="41.1306299" lon="16.6718352"><ele>102.5</ele><time>2026-04-19T07:55:23.388Z</time></trkpt><trkpt lat="41.1304222" lon="16.671422"><ele>104.0</ele><time>2026-04-19T07:55:24.388Z</time></trkpt><trkpt lat="41.1302149" lon="16.6710296"><ele>104.5</ele><time>2026-04-19T07:55:25.388Z</time></trkpt><trkpt lat="41.1300077" lon="16.6706478"><ele>105.0</ele><time>2026-04-19T07:55:26.388Z</time></trkpt><trkpt lat="41.1297979" lon="16.6702706"><ele>105.0</ele><time>2026-04-19T07:55:27.388Z</time></trkpt><trkpt lat="41.1295855" lon="16.669876"><ele>105.0</ele><time>2026-04-19T07:55:28.388Z</time></trkpt><trkpt lat="41.1293666" lon="16.6694734"><ele>105.5</ele><time>2026-04-19T07:55:29.388Z</time></trkpt><trkpt lat="41.1291509" lon="16.6690701"><ele>106.0</ele><time>2026-04-19T07:55:30.388Z</time></trkpt><trkpt lat="41.1289457" lon="16.6686873"><ele>106.5</ele><time>2026-04-19T07:55:31.388Z</time></trkpt><trkpt lat="41.1287469" lon="16.6683491"><ele>107.0</ele><time>2026-04-19T07:55:32.388Z</time></trkpt><trkpt lat="41.1285338" lon="16.6680013"><ele>107.5</ele><time>2026-04-19T07:55:33.388Z</time></trkpt><trkpt lat="41.1283114" lon="16.6676429"><ele>108.0</ele><time>2026-04-19T07:55:34.388Z</time></trkpt><trkpt lat="41.1280766" lon="16.6672845"><ele>108.5</ele><time>2026-04-19T07:55:35.388Z</time></trkpt><trkpt lat="41.1278288" lon="16.6669284"><ele>109.0</ele><time>2026-04-19T07:55:36.388Z</time></trkpt><trkpt lat="41.1275653" lon="16.6665713"><ele>111.0</ele><time>2026-04-19T07:55:37.388Z</time></trkpt><trkpt lat="41.1272941" lon="16.6662414"><ele>113.0</ele><time>2026-04-19T07:55:38.388Z</time></trkpt><trkpt lat="41.1270389" lon="16.6659479"><ele>113.0</ele><time>2026-04-19T07:55:39.388Z</time></trkpt><trkpt lat="41.1267886" lon="16.6656545"><ele>113.0</ele><time>2026-04-19T07:55:40.388Z</time></trkpt><trkpt lat="41.1265395" lon="16.6653612"><ele>114.0</ele><time>2026-04-19T07:55:41.388Z</time></trkpt><trkpt lat="41.1262998" lon="16.6650543"><ele>115.0</ele><time>2026-04-19T07:55:42.388Z</time></trkpt><trkpt lat="41.1260582" lon="16.6647405"><ele>115.5</ele><time>2026-04-19T07:55:43.388Z</time></trkpt><trkpt lat="41.1258075" lon="16.6644392"><ele>116.0</ele><time>2026-04-19T07:55:44.388Z</time></trkpt><trkpt lat="41.1255623" lon="16.6641624"><ele>116.0</ele><time>2026-04-19T07:55:45.388Z</time></trkpt><trkpt lat="41.125327" lon="16.6639023"><ele>116.0</ele><time>2026-04-19T07:55:46.388Z</time></trkpt><trkpt lat="41.1250942" lon="16.6636418"><ele>116.0</ele><time>2026-04-19T07:55:47.388Z</time></trkpt><trkpt lat="41.1248654" lon="16.6633879"><ele>116.0</ele><time>2026-04-19T07:55:48.388Z</time></trkpt><trkpt lat="41.1246463" lon="16.6631564"><ele>116.0</ele><time>2026-04-19T07:55:49.388Z</time></trkpt><trkpt lat="41.1244597" lon="16.6629494"><ele>116.0</ele><time>2026-04-19T07:55:50.388Z</time></trkpt><trkpt lat="41.1242985" lon="16.6627689"><ele>116.25</ele><time>2026-04-19T07:55:51.388Z</time></trkpt><trkpt lat="41.1241527" lon="16.6626157"><ele>116.5</ele><time>2026-04-19T07:55:52.388Z</time></trkpt><trkpt lat="41.124035" lon="16.6624924"><ele>116.75</ele><time>2026-04-19T07:55:53.388Z</time></trkpt><trkpt lat="41.123958" lon="16.6623923"><ele>117.0</ele><time>2026-04-19T07:55:54.388Z</time></trkpt><trkpt lat="41.123906" lon="16.6623149"><ele>117.19999999999999</ele><time>2026-04-19T07:55:55.388Z</time></trkpt><trkpt lat="41.1238709" lon="16.6622381"><ele>117.39999999999999</ele><time>2026-04-19T07:55:56.388Z</time></trkpt><trkpt lat="41.123854" lon="16.6621515"><ele>117.60000000000001</ele><time>2026-04-19T07:55:57.388Z</time></trkpt><trkpt lat="41.1238573" lon="16.6620357"><ele>117.80000000000001</ele><time>2026-04-19T07:55:58.388Z</time></trkpt><trkpt lat="41.1239028" lon="16.6618895"><ele>118.0</ele><time>2026-04-19T07:55:59.388Z</time></trkpt><trkpt lat="41.1239839" lon="16.6617216"><ele>117.66666666666667</ele><time>2026-04-19T07:56:00.388Z</time></trkpt><trkpt lat="41.1240938" lon="16.6615382"><ele>117.33333333333334</ele><time>2026-04-19T07:56:01.388Z</time></trkpt><trkpt lat="41.1242147" lon="16.6613299"><ele>117.0</ele><time>2026-04-19T07:56:02.388Z</time></trkpt><trkpt lat="41.1243512" lon="16.6610806"><ele>117.0</ele><time>2026-04-19T07:56:03.388Z</time></trkpt><trkpt lat="41.1244799" lon="16.6608231"><ele>117.0</ele><time>2026-04-19T07:56:04.388Z</time></trkpt><trkpt lat="41.1246004" lon="16.6605534"><ele>117.0</ele><time>2026-04-19T07:56:05.388Z</time></trkpt><trkpt lat="41.1247243" lon="16.6602722"><ele>117.0</ele><time>2026-04-19T07:56:06.388Z</time></trkpt><trkpt lat="41.124836" lon="16.6599953"><ele>116.0</ele><time>2026-04-19T07:56:07.388Z</time></trkpt><trkpt lat="41.1249458" lon="16.6597391"><ele>115.0</ele><time>2026-04-19T07:56:08.388Z</time></trkpt><trkpt lat="41.1250699" lon="16.6594829"><ele>115.0</ele><time>2026-04-19T07:56:09.388Z</time></trkpt><trkpt lat="41.1252073" lon="16.6591949"><ele>115.0</ele><time>2026-04-19T07:56:10.388Z</time></trkpt><trkpt lat="41.1253185" lon="16.6589021"><ele>115.0</ele><time>2026-04-19T07:56:11.388Z</time></trkpt><trkpt lat="41.12542" lon="16.6586072"><ele>115.0</ele><time>2026-04-19T07:56:12.388Z</time></trkpt><trkpt lat="41.1255346" lon="16.658325"><ele>115.0</ele><time>2026-04-19T07:56:13.388Z</time></trkpt><trkpt lat="41.1256759" lon="16.6580365"><ele>115.0</ele><time>2026-04-19T07:56:14.388Z</time></trkpt><trkpt lat="41.1258289" lon="16.6577691"><ele>114.66666666666667</ele><time>2026-04-19T07:56:15.388Z</time></trkpt><trkpt lat="41.1259673" lon="16.657536"><ele>114.33333333333334</ele><time>2026-04-19T07:56:16.388Z</time></trkpt><trkpt lat="41.1260952" lon="16.6573363"><ele>114.0</ele><time>2026-04-19T07:56:17.388Z</time></trkpt><trkpt lat="41.1262022" lon="16.6571069"><ele>114.0</ele><time>2026-04-19T07:56:18.388Z</time></trkpt><trkpt lat="41.126309" lon="16.6568213"><ele>114.0</ele><time>2026-04-19T07:56:19.388Z</time></trkpt><trkpt lat="41.12641" lon="16.656539"><ele>114.0</ele><time>2026-04-19T07:56:20.388Z</time></trkpt><trkpt lat="41.126495" lon="16.6562768"><ele>114.0</ele><time>2026-04-19T07:56:21.388Z</time></trkpt><trkpt lat="41.1265622" lon="16.6559986"><ele>114.0</ele><time>2026-04-19T07:56:22.388Z</time></trkpt><trkpt lat="41.1266245" lon="16.6556775"><ele>114.5</ele><time>2026-04-19T07:56:23.388Z</time></trkpt><trkpt lat="41.1266968" lon="16.6553298"><ele>115.0</ele><time>2026-04-19T07:56:24.388Z</time></trkpt><trkpt lat="41.1267634" lon="16.6550106"><ele>115.0</ele><time>2026-04-19T07:56:25.388Z</time></trkpt><trkpt lat="41.1268241" lon="16.6547049"><ele>115.0</ele><time>2026-04-19T07:56:26.388Z</time></trkpt><trkpt lat="41.1268911" lon="16.6543992"><ele>115.0</ele><time>2026-04-19T07:56:27.388Z</time></trkpt><trkpt lat="41.126968" lon="16.6540777"><ele>115.0</ele><time>2026-04-19T07:56:28.388Z</time></trkpt><trkpt lat="41.127061" lon="16.6537474"><ele>115.5</ele><time>2026-04-19T07:56:29.388Z</time></trkpt><trkpt lat="41.1271555" lon="16.6533889"><ele>116.0</ele><time>2026-04-19T07:56:30.388Z</time></trkpt><trkpt lat="41.1272455" lon="16.6530061"><ele>116.0</ele><time>2026-04-19T07:56:31.388Z</time></trkpt><trkpt lat="41.1273301" lon="16.652622"><ele>116.0</ele><time>2026-04-19T07:56:32.388Z</time></trkpt><trkpt lat="41.1274176" lon="16.6522633"><ele>116.0</ele><time>2026-04-19T07:56:33.388Z</time></trkpt><trkpt lat="41.1275033" lon="16.6519548"><ele>116.0</ele><time>2026-04-19T07:56:34.388Z</time></trkpt><trkpt lat="41.1275807" lon="16.6516541"><ele>116.0</ele><time>2026-04-19T07:56:35.388Z</time></trkpt><trkpt lat="41.1276701" lon="16.6513658"><ele>116.0</ele><time>2026-04-19T07:56:36.388Z</time></trkpt><trkpt lat="41.1277857" lon="16.6510708"><ele>116.5</ele><time>2026-04-19T07:56:37.388Z</time></trkpt><trkpt lat="41.1279257" lon="16.6507616"><ele>117.0</ele><time>2026-04-19T07:56:38.388Z</time></trkpt><trkpt lat="41.1280765" lon="16.6504429"><ele>117.0</ele><time>2026-04-19T07:56:39.388Z</time></trkpt><trkpt lat="41.1282093" lon="16.6501575"><ele>117.0</ele><time>2026-04-19T07:56:40.388Z</time></trkpt><trkpt lat="41.1283328" lon="16.6498741"><ele>117.0</ele><time>2026-04-19T07:56:41.388Z</time></trkpt><trkpt lat="41.1284396" lon="16.6495915"><ele>117.0</ele><time>2026-04-19T07:56:42.388Z</time></trkpt><trkpt lat="41.1285256" lon="16.6493199"><ele>117.0</ele><time>2026-04-19T07:56:43.388Z</time></trkpt><trkpt lat="41.1286114" lon="16.6490714"><ele>117.0</ele><time>2026-04-19T07:56:44.388Z</time></trkpt><trkpt lat="41.1286823" lon="16.6488172"><ele>117.0</ele><time>2026-04-19T07:56:45.388Z</time></trkpt><trkpt lat="41.1287301" lon="16.6485537"><ele>117.33333333333334</ele><time>2026-04-19T07:56:46.388Z</time></trkpt><trkpt lat="41.1287694" lon="16.6482935"><ele>117.66666666666667</ele><time>2026-04-19T07:56:47.388Z</time></trkpt><trkpt lat="41.1288261" lon="16.6480301"><ele>118.0</ele><time>2026-04-19T07:56:48.388Z</time></trkpt><trkpt lat="41.1289175" lon="16.6477345"><ele>118.0</ele><time>2026-04-19T07:56:49.388Z</time></trkpt><trkpt lat="41.1290201" lon="16.6474456"><ele>118.0</ele><time>2026-04-19T07:56:50.388Z</time></trkpt><trkpt lat="41.1291157" lon="16.6471918"><ele>117.66666666666667</ele><time>2026-04-19T07:56:51.388Z</time></trkpt><trkpt lat="41.1291986" lon="16.6469748"><ele>117.33333333333334</ele><time>2026-04-19T07:56:52.388Z</time></trkpt><trkpt lat="41.1292839" lon="16.6467781"><ele>117.0</ele><time>2026-04-19T07:56:53.388Z</time></trkpt><trkpt lat="41.1294156" lon="16.6465998"><ele>117.0</ele><time>2026-04-19T07:56:54.388Z</time></trkpt><trkpt lat="41.1295919" lon="16.6464241"><ele>117.0</ele><time>2026-04-19T07:56:55.388Z</time></trkpt><trkpt lat="41.1297883" lon="16.6462419"><ele>115.5</ele><time>2026-04-19T07:56:56.388Z</time></trkpt><trkpt lat="41.1299877" lon="16.6460459"><ele>114.0</ele><time>2026-04-19T07:56:57.387Z</time></trkpt><trkpt lat="41.1301713" lon="16.6458653"><ele>114.0</ele><time>2026-04-19T07:56:58.387Z</time></trkpt><trkpt lat="41.1303354" lon="16.6456733"><ele>114.0</ele><time>2026-04-19T07:56:59.387Z</time></trkpt><trkpt lat="41.1304903" lon="16.645477"><ele>114.0</ele><time>2026-04-19T07:57:00.387Z</time></trkpt><trkpt lat="41.1306388" lon="16.6452912"><ele>113.0</ele><time>2026-04-19T07:57:01.387Z</time></trkpt><trkpt lat="41.1308214" lon="16.6451232"><ele>112.0</ele><time>2026-04-19T07:57:02.387Z</time></trkpt><trkpt lat="41.1310489" lon="16.6449647"><ele>112.0</ele><time>2026-04-19T07:57:03.387Z</time></trkpt><trkpt lat="41.1312888" lon="16.6447769"><ele>112.0</ele><time>2026-04-19T07:57:04.387Z</time></trkpt><trkpt lat="41.1315231" lon="16.6445849"><ele>110.5</ele><time>2026-04-19T07:57:05.387Z</time></trkpt><trkpt lat="41.1317431" lon="16.6444032"><ele>109.0</ele><time>2026-04-19T07:57:06.387Z</time></trkpt><trkpt lat="41.1319436" lon="16.6442432"><ele>109.0</ele><time>2026-04-19T07:57:07.387Z</time></trkpt><trkpt lat="41.1321311" lon="16.6441017"><ele>109.0</ele><time>2026-04-19T07:57:08.387Z</time></trkpt><trkpt lat="41.1323067" lon="16.6439705"><ele>109.0</ele><time>2026-04-19T07:57:09.387Z</time></trkpt><trkpt lat="41.1324631" lon="16.6438451"><ele>109.0</ele><time>2026-04-19T07:57:10.387Z</time></trkpt><trkpt lat="41.1326003" lon="16.6437144"><ele>109.0</ele><time>2026-04-19T07:57:11.387Z</time></trkpt><trkpt lat="41.1327102" lon="16.6435488"><ele>109.0</ele><time>2026-04-19T07:57:12.387Z</time></trkpt><trkpt lat="41.1328093" lon="16.6433211"><ele>108.5</ele><time>2026-04-19T07:57:13.387Z</time></trkpt><trkpt lat="41.1329052" lon="16.6430514"><ele>108.0</ele><time>2026-04-19T07:57:14.387Z</time></trkpt><trkpt lat="41.133009" lon="16.6427615"><ele>109.0</ele><time>2026-04-19T07:57:15.387Z</time></trkpt><trkpt lat="41.1330956" lon="16.6424336"><ele>110.0</ele><time>2026-04-19T07:57:16.387Z</time></trkpt><trkpt lat="41.1331856" lon="16.6420774"><ele>110.5</ele><time>2026-04-19T07:57:17.387Z</time></trkpt><trkpt lat="41.1332796" lon="16.6416979"><ele>111.0</ele><time>2026-04-19T07:57:18.387Z</time></trkpt><trkpt lat="41.1333592" lon="16.6413445"><ele>112.0</ele><time>2026-04-19T07:57:19.387Z</time></trkpt><trkpt lat="41.1334353" lon="16.6410095"><ele>113.0</ele><time>2026-04-19T07:57:20.387Z</time></trkpt><trkpt lat="41.1335314" lon="16.6406691"><ele>113.0</ele><time>2026-04-19T07:57:21.387Z</time></trkpt><trkpt lat="41.1336434" lon="16.6403049"><ele>113.0</ele><time>2026-04-19T07:57:22.387Z</time></trkpt><trkpt lat="41.1337668" lon="16.6399151"><ele>113.5</ele><time>2026-04-19T07:57:23.387Z</time></trkpt><trkpt lat="41.133885" lon="16.6395623"><ele>114.0</ele><time>2026-04-19T07:57:24.387Z</time></trkpt><trkpt lat="41.1339947" lon="16.6392259"><ele>113.5</ele><time>2026-04-19T07:57:25.387Z</time></trkpt><trkpt lat="41.134097" lon="16.6389022"><ele>113.0</ele><time>2026-04-19T07:57:26.387Z</time></trkpt><trkpt lat="41.1341911" lon="16.6385626"><ele>113.0</ele><time>2026-04-19T07:57:27.387Z</time></trkpt><trkpt lat="41.1342735" lon="16.6382244"><ele>113.0</ele><time>2026-04-19T07:57:28.387Z</time></trkpt><trkpt lat="41.1343447" lon="16.6379084"><ele>113.0</ele><time>2026-04-19T07:57:29.387Z</time></trkpt><trkpt lat="41.1344032" lon="16.6376161"><ele>113.0</ele><time>2026-04-19T07:57:30.387Z</time></trkpt><trkpt lat="41.134497" lon="16.637304"><ele>113.0</ele><time>2026-04-19T07:57:31.387Z</time></trkpt><trkpt lat="41.1345975" lon="16.6369739"><ele>113.0</ele><time>2026-04-19T07:57:32.387Z</time></trkpt><trkpt lat="41.1346996" lon="16.6366551"><ele>112.66666666666666</ele><time>2026-04-19T07:57:33.387Z</time></trkpt><trkpt lat="41.1347801" lon="16.6363982"><ele>112.33333333333334</ele><time>2026-04-19T07:57:34.387Z</time></trkpt><trkpt lat="41.1348536" lon="16.6361738"><ele>112.0</ele><time>2026-04-19T07:57:35.387Z</time></trkpt><trkpt lat="41.1349211" lon="16.6359573"><ele>111.66666666666667</ele><time>2026-04-19T07:57:36.387Z</time></trkpt><trkpt lat="41.1350095" lon="16.6357581"><ele>111.33333333333334</ele><time>2026-04-19T07:57:37.387Z</time></trkpt><trkpt lat="41.1351262" lon="16.6355691"><ele>111.0</ele><time>2026-04-19T07:57:38.387Z</time></trkpt><trkpt lat="41.135286" lon="16.6353921"><ele>111.0</ele><time>2026-04-19T07:57:39.387Z</time></trkpt><trkpt lat="41.1354582" lon="16.6352388"><ele>111.0</ele><time>2026-04-19T07:57:40.387Z</time></trkpt><trkpt lat="41.1356319" lon="16.6351249"><ele>111.0</ele><time>2026-04-19T07:57:41.387Z</time></trkpt><trkpt lat="41.1358" lon="16.6349985"><ele>111.0</ele><time>2026-04-19T07:57:42.387Z</time></trkpt><trkpt lat="41.1359656" lon="16.6348307"><ele>111.0</ele><time>2026-04-19T07:57:43.387Z</time></trkpt><trkpt lat="41.1361405" lon="16.6346022"><ele>111.5</ele><time>2026-04-19T07:57:44.387Z</time></trkpt><trkpt lat="41.1363244" lon="16.6343597"><ele>112.0</ele><time>2026-04-19T07:57:45.387Z</time></trkpt><trkpt lat="41.1365112" lon="16.6341041"><ele>112.0</ele><time>2026-04-19T07:57:46.387Z</time></trkpt><trkpt lat="41.1367028" lon="16.6338531"><ele>112.0</ele><time>2026-04-19T07:57:47.387Z</time></trkpt><trkpt lat="41.1369041" lon="16.6335972"><ele>112.0</ele><time>2026-04-19T07:57:48.387Z</time></trkpt><trkpt lat="41.1371117" lon="16.6333421"><ele>112.0</ele><time>2026-04-19T07:57:49.387Z</time></trkpt><trkpt lat="41.1373037" lon="16.6331017"><ele>111.5</ele><time>2026-04-19T07:57:50.387Z</time></trkpt><trkpt lat="41.1374763" lon="16.63289"><ele>111.0</ele><time>2026-04-19T07:57:51.387Z</time></trkpt><trkpt lat="41.1376336" lon="16.6326903"><ele>111.0</ele><time>2026-04-19T07:57:52.387Z</time></trkpt><trkpt lat="41.1377805" lon="16.6324865"><ele>111.0</ele><time>2026-04-19T07:57:53.387Z</time></trkpt><trkpt lat="41.1379381" lon="16.6322942"><ele>111.0</ele><time>2026-04-19T07:57:54.387Z</time></trkpt><trkpt lat="41.1381053" lon="16.6321047"><ele>110.33333333333334</ele><time>2026-04-19T07:57:55.387Z</time></trkpt><trkpt lat="41.1382723" lon="16.6319352"><ele>109.66666666666667</ele><time>2026-04-19T07:57:56.387Z</time></trkpt><trkpt lat="41.1384293" lon="16.6317862"><ele>109.0</ele><time>2026-04-19T07:57:57.387Z</time></trkpt><trkpt lat="41.1386033" lon="16.6316473"><ele>109.0</ele><time>2026-04-19T07:57:58.387Z</time></trkpt><trkpt lat="41.1388046" lon="16.63151"><ele>109.0</ele><time>2026-04-19T07:57:59.387Z</time></trkpt><trkpt lat="41.1390236" lon="16.6313821"><ele>108.66666666666667</ele><time>2026-04-19T07:58:00.387Z</time></trkpt><trkpt lat="41.1392239" lon="16.6312762"><ele>108.33333333333334</ele><time>2026-04-19T07:58:01.387Z</time></trkpt><trkpt lat="41.1394172" lon="16.6311807"><ele>108.0</ele><time>2026-04-19T07:58:02.387Z</time></trkpt><trkpt lat="41.1396236" lon="16.6311199"><ele>108.0</ele><time>2026-04-19T07:58:03.387Z</time></trkpt><trkpt lat="41.1398141" lon="16.6310623"><ele>108.0</ele><time>2026-04-19T07:58:04.387Z</time></trkpt><trkpt lat="41.1399967" lon="16.6309865"><ele>108.0</ele><time>2026-04-19T07:58:05.387Z</time></trkpt><trkpt lat="41.1401671" lon="16.6308907"><ele>108.0</ele><time>2026-04-19T07:58:06.387Z</time></trkpt><trkpt lat="41.1403211" lon="16.6307919"><ele>108.0</ele><time>2026-04-19T07:58:07.387Z</time></trkpt><trkpt lat="41.1404694" lon="16.6306673"><ele>108.0</ele><time>2026-04-19T07:58:08.387Z</time></trkpt><trkpt lat="41.1406071" lon="16.630536"><ele>107.66666666666666</ele><time>2026-04-19T07:58:09.387Z</time></trkpt><trkpt lat="41.1407375" lon="16.6303978"><ele>107.33333333333333</ele><time>2026-04-19T07:58:10.387Z</time></trkpt><trkpt lat="41.1408655" lon="16.6302395"><ele>107.0</ele><time>2026-04-19T07:58:11.387Z</time></trkpt><trkpt lat="41.1409896" lon="16.6301217"><ele>107.5</ele><time>2026-04-19T07:58:12.387Z</time></trkpt><trkpt lat="41.1411102" lon="16.6300197"><ele>108.0</ele><time>2026-04-19T07:58:13.387Z</time></trkpt><trkpt lat="41.141221" lon="16.6299316"><ele>108.5</ele><time>2026-04-19T07:58:14.387Z</time></trkpt><trkpt lat="41.1413212" lon="16.6298667"><ele>109.0</ele><time>2026-04-19T07:58:15.387Z</time></trkpt><trkpt lat="41.1414072" lon="16.6298147"><ele>109.0</ele><time>2026-04-19T07:58:16.387Z</time></trkpt><trkpt lat="41.1414744" lon="16.6297745"><ele>109.0</ele><time>2026-04-19T07:58:17.387Z</time></trkpt><trkpt lat="41.1415237" lon="16.6297225"><ele>109.0</ele><time>2026-04-19T07:58:18.387Z</time></trkpt><trkpt lat="41.1415592" lon="16.6296488"><ele>109.0</ele><time>2026-04-19T07:58:20.387Z</time></trkpt><trkpt lat="41.1414594" lon="16.6294595"><ele>109.0</ele><time>2026-04-19T07:58:22.387Z</time></trkpt><trkpt lat="41.1413675" lon="16.629309"><ele>109.0</ele><time>2026-04-19T07:58:23.387Z</time></trkpt><trkpt lat="41.1412587" lon="16.6291359"><ele>109.0</ele><time>2026-04-19T07:58:24.387Z</time></trkpt><trkpt lat="41.1411472" lon="16.628928"><ele>109.0</ele><time>2026-04-19T07:58:25.387Z</time></trkpt><trkpt lat="41.1410197" lon="16.6286912"><ele>109.5</ele><time>2026-04-19T07:58:26.387Z</time></trkpt><trkpt lat="41.1408671" lon="16.6284081"><ele>110.0</ele><time>2026-04-19T07:58:27.387Z</time></trkpt><trkpt lat="41.1407123" lon="16.6281224"><ele>111.0</ele><time>2026-04-19T07:58:28.387Z</time></trkpt><trkpt lat="41.1405352" lon="16.6278049"><ele>112.0</ele><time>2026-04-19T07:58:29.387Z</time></trkpt><trkpt lat="41.1403379" lon="16.6274703"><ele>112.0</ele><time>2026-04-19T07:58:30.387Z</time></trkpt><trkpt lat="41.1401559" lon="16.6271278"><ele>112.0</ele><time>2026-04-19T07:58:31.387Z</time></trkpt><trkpt lat="41.1399812" lon="16.6268054"><ele>114.0</ele><time>2026-04-19T07:58:32.387Z</time></trkpt><trkpt lat="41.1397966" lon="16.6264777"><ele>116.0</ele><time>2026-04-19T07:58:33.387Z</time></trkpt><trkpt lat="41.1396006" lon="16.6261146"><ele>116.5</ele><time>2026-04-19T07:58:34.387Z</time></trkpt><trkpt lat="41.1393844" lon="16.6257287"><ele>117.0</ele><time>2026-04-19T07:58:35.387Z</time></trkpt><trkpt lat="41.1391818" lon="16.6253676"><ele>117.5</ele><time>2026-04-19T07:58:36.387Z</time></trkpt><trkpt lat="41.1390014" lon="16.6250119"><ele>118.0</ele><time>2026-04-19T07:58:37.387Z</time></trkpt><trkpt lat="41.1388144" lon="16.6246644"><ele>119.0</ele><time>2026-04-19T07:58:38.387Z</time></trkpt><trkpt lat="41.1386183" lon="16.6243098"><ele>120.0</ele><time>2026-04-19T07:58:39.387Z</time></trkpt><trkpt lat="41.1384353" lon="16.6239848"><ele>120.0</ele><time>2026-04-19T07:58:40.387Z</time></trkpt><trkpt lat="41.1382783" lon="16.6236805"><ele>120.0</ele><time>2026-04-19T07:58:41.387Z</time></trkpt><trkpt lat="41.1381342" lon="16.6233951"><ele>120.33333333333334</ele><time>2026-04-19T07:58:42.387Z</time></trkpt><trkpt lat="41.1380059" lon="16.6231502"><ele>120.66666666666667</ele><time>2026-04-19T07:58:43.387Z</time></trkpt><trkpt lat="41.1378929" lon="16.6229343"><ele>121.0</ele><time>2026-04-19T07:58:44.387Z</time></trkpt><trkpt lat="41.1377691" lon="16.6227521"><ele>121.66666666666667</ele><time>2026-04-19T07:58:45.387Z</time></trkpt><trkpt lat="41.1376288" lon="16.6225955"><ele>122.33333333333334</ele><time>2026-04-19T07:58:46.387Z</time></trkpt><trkpt lat="41.1374499" lon="16.6224663"><ele>123.0</ele><time>2026-04-19T07:58:47.387Z</time></trkpt><trkpt lat="41.1372419" lon="16.6223691"><ele>123.0</ele><time>2026-04-19T07:58:48.387Z</time></trkpt><trkpt lat="41.1369982" lon="16.6222674"><ele>123.0</ele><time>2026-04-19T07:58:49.387Z</time></trkpt><trkpt lat="41.1367328" lon="16.6221508"><ele>122.5</ele><time>2026-04-19T07:58:50.387Z</time></trkpt><trkpt lat="41.136459" lon="16.6220372"><ele>122.0</ele><time>2026-04-19T07:58:51.387Z</time></trkpt><trkpt lat="41.1362172" lon="16.6219344"><ele>122.0</ele><time>2026-04-19T07:58:52.387Z</time></trkpt><trkpt lat="41.1359775" lon="16.6218382"><ele>122.0</ele><time>2026-04-19T07:58:53.387Z</time></trkpt><trkpt lat="41.1357153" lon="16.6217531"><ele>122.0</ele><time>2026-04-19T07:58:54.387Z</time></trkpt><trkpt lat="41.135458" lon="16.6216974"><ele>122.0</ele><time>2026-04-19T07:58:55.387Z</time></trkpt><trkpt lat="41.1352176" lon="16.6216513"><ele>122.0</ele><time>2026-04-19T07:58:56.387Z</time></trkpt><trkpt lat="41.1349738" lon="16.62161"><ele>122.0</ele><time>2026-04-19T07:58:57.387Z</time></trkpt><trkpt lat="41.1347263" lon="16.6215779"><ele>124.0</ele><time>2026-04-19T07:58:58.387Z</time></trkpt><trkpt lat="41.1344859" lon="16.621554"><ele>126.0</ele><time>2026-04-19T07:58:59.387Z</time></trkpt><trkpt lat="41.1342423" lon="16.6215219"><ele>126.5</ele><time>2026-04-19T07:59:00.387Z</time></trkpt><trkpt lat="41.134005" lon="16.6214843"><ele>127.0</ele><time>2026-04-19T07:59:01.387Z</time></trkpt><trkpt lat="41.1337734" lon="16.6214414"><ele>127.0</ele><time>2026-04-19T07:59:02.387Z</time></trkpt><trkpt lat="41.1335472" lon="16.6213872"><ele>127.0</ele><time>2026-04-19T07:59:03.387Z</time></trkpt><trkpt lat="41.1333188" lon="16.6213316"><ele>128.0</ele><time>2026-04-19T07:59:04.387Z</time></trkpt><trkpt lat="41.1330547" lon="16.6212679"><ele>129.0</ele><time>2026-04-19T07:59:05.387Z</time></trkpt><trkpt lat="41.1327507" lon="16.6211876"><ele>130.5</ele><time>2026-04-19T07:59:06.387Z</time></trkpt><trkpt lat="41.1324174" lon="16.6211006"><ele>132.0</ele><time>2026-04-19T07:59:07.387Z</time></trkpt><trkpt lat="41.1320992" lon="16.6210134"><ele>133.5</ele><time>2026-04-19T07:59:08.387Z</time></trkpt><trkpt lat="41.1318016" lon="16.6209319"><ele>135.0</ele><time>2026-04-19T07:59:09.387Z</time></trkpt><trkpt lat="41.1315328" lon="16.62086"><ele>136.0</ele><time>2026-04-19T07:59:10.387Z</time></trkpt><trkpt lat="41.1312776" lon="16.6207892"><ele>137.0</ele><time>2026-04-19T07:59:11.387Z</time></trkpt><trkpt lat="41.1310261" lon="16.6207196"><ele>137.0</ele><time>2026-04-19T07:59:12.387Z</time></trkpt><trkpt lat="41.1307945" lon="16.6206567"><ele>137.0</ele><time>2026-04-19T07:59:13.387Z</time></trkpt><trkpt lat="41.1305799" lon="16.6206037"><ele>137.33333333333331</ele><time>2026-04-19T07:59:14.387Z</time></trkpt><trkpt lat="41.1303821" lon="16.6205483"><ele>137.66666666666666</ele><time>2026-04-19T07:59:15.387Z</time></trkpt><trkpt lat="41.1302003" lon="16.6204711"><ele>138.0</ele><time>2026-04-19T07:59:16.387Z</time></trkpt><trkpt lat="41.1300287" lon="16.6203764"><ele>138.66666666666666</ele><time>2026-04-19T07:59:17.387Z</time></trkpt><trkpt lat="41.1298669" lon="16.6202569"><ele>139.33333333333331</ele><time>2026-04-19T07:59:18.387Z</time></trkpt><trkpt lat="41.1297187" lon="16.6201078"><ele>140.0</ele><time>2026-04-19T07:59:19.387Z</time></trkpt><trkpt lat="41.1295812" lon="16.6199413"><ele>140.0</ele><time>2026-04-19T07:59:20.387Z</time></trkpt><trkpt lat="41.1294683" lon="16.6197628"><ele>140.0</ele><time>2026-04-19T07:59:21.387Z</time></trkpt><trkpt lat="41.1293608" lon="16.6195656"><ele>140.0</ele><time>2026-04-19T07:59:22.387Z</time></trkpt><trkpt lat="41.1292587" lon="16.6193466"><ele>140.0</ele><time>2026-04-19T07:59:23.387Z</time></trkpt><trkpt lat="41.1291408" lon="16.6190861"><ele>140.0</ele><time>2026-04-19T07:59:24.386Z</time></trkpt><trkpt lat="41.1290098" lon="16.6188029"><ele>140.66666666666666</ele><time>2026-04-19T07:59:25.387Z</time></trkpt><trkpt lat="41.1289057" lon="16.6185374"><ele>141.33333333333334</ele><time>2026-04-19T07:59:26.387Z</time></trkpt><trkpt lat="41.1288006" lon="16.6183032"><ele>142.0</ele><time>2026-04-19T07:59:27.387Z</time></trkpt><trkpt lat="41.1287023" lon="16.6180827"><ele>142.0</ele><time>2026-04-19T07:59:28.387Z</time></trkpt><trkpt lat="41.1286153" lon="16.6178662"><ele>142.0</ele><time>2026-04-19T07:59:29.387Z</time></trkpt><trkpt lat="41.1285457" lon="16.617645"><ele>142.0</ele><time>2026-04-19T07:59:30.387Z</time></trkpt><trkpt lat="41.1284886" lon="16.6174139"><ele>142.0</ele><time>2026-04-19T07:59:31.387Z</time></trkpt><trkpt lat="41.1284366" lon="16.6171573"><ele>142.0</ele><time>2026-04-19T07:59:32.387Z</time></trkpt><trkpt lat="41.128396" lon="16.6168276"><ele>141.0</ele><time>2026-04-19T07:59:33.387Z</time></trkpt><trkpt lat="41.1283533" lon="16.6164755"><ele>140.0</ele><time>2026-04-19T07:59:34.387Z</time></trkpt><trkpt lat="41.1283156" lon="16.6161085"><ele>139.5</ele><time>2026-04-19T07:59:35.387Z</time></trkpt><trkpt lat="41.1282788" lon="16.6157704"><ele>139.0</ele><time>2026-04-19T07:59:36.387Z</time></trkpt><trkpt lat="41.1282444" lon="16.6154535"><ele>138.33333333333334</ele><time>2026-04-19T07:59:37.387Z</time></trkpt><trkpt lat="41.1282191" lon="16.615172"><ele>137.66666666666666</ele><time>2026-04-19T07:59:38.387Z</time></trkpt><trkpt lat="41.1281887" lon="16.6148739"><ele>137.0</ele><time>2026-04-19T07:59:39.387Z</time></trkpt><trkpt lat="41.1281825" lon="16.6145263"><ele>137.0</ele><time>2026-04-19T07:59:40.387Z</time></trkpt><trkpt lat="41.1281937" lon="16.6141246"><ele>137.0</ele><time>2026-04-19T07:59:41.387Z</time></trkpt><trkpt lat="41.1282218" lon="16.6137222"><ele>138.0</ele><time>2026-04-19T07:59:42.387Z</time></trkpt><trkpt lat="41.1282627" lon="16.6133185"><ele>139.0</ele><time>2026-04-19T07:59:43.387Z</time></trkpt><trkpt lat="41.1282947" lon="16.6128909"><ele>138.5</ele><time>2026-04-19T07:59:44.387Z</time></trkpt><trkpt lat="41.1283356" lon="16.6124542"><ele>138.0</ele><time>2026-04-19T07:59:45.387Z</time></trkpt><trkpt lat="41.1283846" lon="16.6119997"><ele>138.0</ele><time>2026-04-19T07:59:46.387Z</time></trkpt><trkpt lat="41.1284261" lon="16.6115807"><ele>138.0</ele><time>2026-04-19T07:59:47.387Z</time></trkpt><trkpt lat="41.1284715" lon="16.6111854"><ele>138.0</ele><time>2026-04-19T07:59:48.387Z</time></trkpt><trkpt lat="41.1285102" lon="16.610829"><ele>138.0</ele><time>2026-04-19T07:59:49.387Z</time></trkpt><trkpt lat="41.1285414" lon="16.6104956"><ele>138.5</ele><time>2026-04-19T07:59:50.387Z</time></trkpt><trkpt lat="41.1285769" lon="16.610184"><ele>139.0</ele><time>2026-04-19T07:59:51.387Z</time></trkpt><trkpt lat="41.1286203" lon="16.6098475"><ele>139.0</ele><time>2026-04-19T07:59:52.387Z</time></trkpt><trkpt lat="41.1286754" lon="16.6095057"><ele>139.0</ele><time>2026-04-19T07:59:53.387Z</time></trkpt><trkpt lat="41.1287581" lon="16.6091378"><ele>140.5</ele><time>2026-04-19T07:59:54.387Z</time></trkpt><trkpt lat="41.1288601" lon="16.6087147"><ele>142.0</ele><time>2026-04-19T07:59:55.387Z</time></trkpt><trkpt lat="41.1289761" lon="16.6082739"><ele>141.5</ele><time>2026-04-19T07:59:56.387Z</time></trkpt><trkpt lat="41.1290874" lon="16.607833"><ele>141.0</ele><time>2026-04-19T07:59:57.387Z</time></trkpt><trkpt lat="41.1291976" lon="16.6074019"><ele>141.0</ele><time>2026-04-19T07:59:58.387Z</time></trkpt><trkpt lat="41.1292891" lon="16.6069986"><ele>141.0</ele><time>2026-04-19T07:59:59.387Z</time></trkpt><trkpt lat="41.1293688" lon="16.6066229"><ele>142.0</ele><time>2026-04-19T08:00:00.387Z</time></trkpt><trkpt lat="41.1294418" lon="16.6062531"><ele>143.0</ele><time>2026-04-19T08:00:01.387Z</time></trkpt><trkpt lat="41.1295095" lon="16.6059041"><ele>143.5</ele><time>2026-04-19T08:00:02.387Z</time></trkpt><trkpt lat="41.1295733" lon="16.6055823"><ele>144.0</ele><time>2026-04-19T08:00:03.387Z</time></trkpt><trkpt lat="41.1296381" lon="16.6052669"><ele>144.5</ele><time>2026-04-19T08:00:04.387Z</time></trkpt><trkpt lat="41.1296969" lon="16.6049479"><ele>145.0</ele><time>2026-04-19T08:00:05.387Z</time></trkpt><trkpt lat="41.1297621" lon="16.6046232"><ele>144.5</ele><time>2026-04-19T08:00:06.387Z</time></trkpt><trkpt lat="41.1298586" lon="16.6042694"><ele>144.0</ele><time>2026-04-19T08:00:07.387Z</time></trkpt><trkpt lat="41.1299701" lon="16.603914"><ele>143.5</ele><time>2026-04-19T08:00:08.387Z</time></trkpt><trkpt lat="41.1300704" lon="16.6035722"><ele>143.0</ele><time>2026-04-19T08:00:09.387Z</time></trkpt><trkpt lat="41.1301481" lon="16.6032243"><ele>143.0</ele><time>2026-04-19T08:00:10.387Z</time></trkpt><trkpt lat="41.1302184" lon="16.6028442"><ele>143.0</ele><time>2026-04-19T08:00:11.387Z</time></trkpt><trkpt lat="41.1303002" lon="16.6024108"><ele>142.5</ele><time>2026-04-19T08:00:12.387Z</time></trkpt><trkpt lat="41.1303849" lon="16.6019482"><ele>142.0</ele><time>2026-04-19T08:00:13.387Z</time></trkpt><trkpt lat="41.1304721" lon="16.6015019"><ele>142.0</ele><time>2026-04-19T08:00:14.387Z</time></trkpt><trkpt lat="41.1305485" lon="16.6011042"><ele>142.0</ele><time>2026-04-19T08:00:15.387Z</time></trkpt><trkpt lat="41.1306136" lon="16.6007461"><ele>142.0</ele><time>2026-04-19T08:00:16.387Z</time></trkpt><trkpt lat="41.1306718" lon="16.6004198"><ele>142.0</ele><time>2026-04-19T08:00:17.387Z</time></trkpt><trkpt lat="41.1307271" lon="16.6001006"><ele>142.0</ele><time>2026-04-19T08:00:18.387Z</time></trkpt><trkpt lat="41.1307699" lon="16.5997573"><ele>142.0</ele><time>2026-04-19T08:00:19.387Z</time></trkpt><trkpt lat="41.1308054" lon="16.5993874"><ele>142.0</ele><time>2026-04-19T08:00:20.387Z</time></trkpt><trkpt lat="41.1308314" lon="16.5990105"><ele>142.0</ele><time>2026-04-19T08:00:21.387Z</time></trkpt><trkpt lat="41.1308481" lon="16.5986572"><ele>142.0</ele><time>2026-04-19T08:00:22.386Z</time></trkpt><trkpt lat="41.1308779" lon="16.59831"><ele>142.0</ele><time>2026-04-19T08:00:23.386Z</time></trkpt><trkpt lat="41.1309271" lon="16.5979577"><ele>142.5</ele><time>2026-04-19T08:00:24.386Z</time></trkpt><trkpt lat="41.1309909" lon="16.5976144"><ele>143.0</ele><time>2026-04-19T08:00:25.386Z</time></trkpt><trkpt lat="41.1310706" lon="16.5973004"><ele>143.0</ele><time>2026-04-19T08:00:26.386Z</time></trkpt><trkpt lat="41.1311474" lon="16.5970137"><ele>143.0</ele><time>2026-04-19T08:00:27.386Z</time></trkpt><trkpt lat="41.1312042" lon="16.5967385"><ele>143.0</ele><time>2026-04-19T08:00:28.386Z</time></trkpt><trkpt lat="41.1312464" lon="16.5964277"><ele>142.0</ele><time>2026-04-19T08:00:29.386Z</time></trkpt><trkpt lat="41.1312645" lon="16.5960731"><ele>141.0</ele><time>2026-04-19T08:00:30.386Z</time></trkpt><trkpt lat="41.1312524" lon="16.5956871"><ele>142.0</ele><time>2026-04-19T08:00:31.386Z</time></trkpt><trkpt lat="41.1312245" lon="16.5952837"><ele>143.0</ele><time>2026-04-19T08:00:32.386Z</time></trkpt><trkpt lat="41.1311972" lon="16.5949066"><ele>143.0</ele><time>2026-04-19T08:00:33.386Z</time></trkpt><trkpt lat="41.131175" lon="16.5945769"><ele>143.0</ele><time>2026-04-19T08:00:34.386Z</time></trkpt><trkpt lat="41.1311569" lon="16.5942848"><ele>143.0</ele><time>2026-04-19T08:00:35.386Z</time></trkpt><trkpt lat="41.1311408" lon="16.5939935"><ele>143.0</ele><time>2026-04-19T08:00:36.386Z</time></trkpt><trkpt lat="41.1311527" lon="16.5936674"><ele>142.5</ele><time>2026-04-19T08:00:37.386Z</time></trkpt><trkpt lat="41.1311907" lon="16.5932916"><ele>142.0</ele><time>2026-04-19T08:00:38.386Z</time></trkpt><trkpt lat="41.1312298" lon="16.592898"><ele>141.5</ele><time>2026-04-19T08:00:39.386Z</time></trkpt><trkpt lat="41.1312688" lon="16.5925194"><ele>141.0</ele><time>2026-04-19T08:00:40.386Z</time></trkpt><trkpt lat="41.1313063" lon="16.5921801"><ele>142.0</ele><time>2026-04-19T08:00:41.386Z</time></trkpt><trkpt lat="41.1313472" lon="16.5918695"><ele>143.0</ele><time>2026-04-19T08:00:42.386Z</time></trkpt><trkpt lat="41.1313802" lon="16.5915806"><ele>143.0</ele><time>2026-04-19T08:00:43.386Z</time></trkpt><trkpt lat="41.1313859" lon="16.5912599"><ele>143.0</ele><time>2026-04-19T08:00:44.386Z</time></trkpt><trkpt lat="41.1313732" lon="16.5908863"><ele>143.5</ele><time>2026-04-19T08:00:45.386Z</time></trkpt><trkpt lat="41.1313532" lon="16.5904851"><ele>144.0</ele><time>2026-04-19T08:00:46.386Z</time></trkpt><trkpt lat="41.1313252" lon="16.5900738"><ele>144.0</ele><time>2026-04-19T08:00:47.386Z</time></trkpt><trkpt lat="41.1313002" lon="16.5896727"><ele>144.0</ele><time>2026-04-19T08:00:48.386Z</time></trkpt><trkpt lat="41.1312801" lon="16.5893079"><ele>144.0</ele><time>2026-04-19T08:00:49.386Z</time></trkpt><trkpt lat="41.1312577" lon="16.5889607"><ele>144.0</ele><time>2026-04-19T08:00:50.386Z</time></trkpt><trkpt lat="41.1312359" lon="16.588603"><ele>144.5</ele><time>2026-04-19T08:00:51.386Z</time></trkpt><trkpt lat="41.1312267" lon="16.5882575"><ele>145.0</ele><time>2026-04-19T08:00:52.386Z</time></trkpt><trkpt lat="41.1312358" lon="16.5879538"><ele>145.33333333333334</ele><time>2026-04-19T08:00:53.386Z</time></trkpt><trkpt lat="41.1312471" lon="16.587656"><ele>145.66666666666666</ele><time>2026-04-19T08:00:54.386Z</time></trkpt><trkpt lat="41.131273" lon="16.5873696"><ele>146.0</ele><time>2026-04-19T08:00:55.386Z</time></trkpt><trkpt lat="41.1313245" lon="16.5871092"><ele>145.66666666666666</ele><time>2026-04-19T08:00:56.386Z</time></trkpt><trkpt lat="41.131408" lon="16.586858"><ele>145.33333333333334</ele><time>2026-04-19T08:00:57.386Z</time></trkpt><trkpt lat="41.1315295" lon="16.586589"><ele>145.0</ele><time>2026-04-19T08:00:58.386Z</time></trkpt><trkpt lat="41.1316719" lon="16.5862545"><ele>143.5</ele><time>2026-04-19T08:00:59.386Z</time></trkpt><trkpt lat="41.1318194" lon="16.5858968"><ele>142.0</ele><time>2026-04-19T08:01:00.386Z</time></trkpt><trkpt lat="41.1319692" lon="16.5855341"><ele>141.5</ele><time>2026-04-19T08:01:01.386Z</time></trkpt><trkpt lat="41.1321088" lon="16.5851839"><ele>141.0</ele><time>2026-04-19T08:01:02.386Z</time></trkpt><trkpt lat="41.1322326" lon="16.5848618"><ele>141.0</ele><time>2026-04-19T08:01:03.386Z</time></trkpt><trkpt lat="41.1323546" lon="16.5845599"><ele>141.0</ele><time>2026-04-19T08:01:04.386Z</time></trkpt><trkpt lat="41.1324621" lon="16.5842972"><ele>140.66666666666666</ele><time>2026-04-19T08:01:05.386Z</time></trkpt><trkpt lat="41.132566" lon="16.5840551"><ele>140.33333333333331</ele><time>2026-04-19T08:01:06.386Z</time></trkpt><trkpt lat="41.1326573" lon="16.5838078"><ele>140.0</ele><time>2026-04-19T08:01:07.386Z</time></trkpt><trkpt lat="41.1327361" lon="16.5835718"><ele>140.0</ele><time>2026-04-19T08:01:08.386Z</time></trkpt><trkpt lat="41.1327925" lon="16.5833459"><ele>140.0</ele><time>2026-04-19T08:01:09.386Z</time></trkpt><trkpt lat="41.1328309" lon="16.5831248"><ele>140.0</ele><time>2026-04-19T08:01:10.386Z</time></trkpt><trkpt lat="41.1328596" lon="16.5829053"><ele>140.66666666666666</ele><time>2026-04-19T08:01:11.386Z</time></trkpt><trkpt lat="41.1328767" lon="16.5826844"><ele>141.33333333333334</ele><time>2026-04-19T08:01:12.386Z</time></trkpt><trkpt lat="41.1328882" lon="16.5824903"><ele>142.0</ele><time>2026-04-19T08:01:13.386Z</time></trkpt><trkpt lat="41.1328938" lon="16.5822925"><ele>142.0</ele><time>2026-04-19T08:01:14.386Z</time></trkpt><trkpt lat="41.1329014" lon="16.5820975"><ele>142.0</ele><time>2026-04-19T08:01:15.386Z</time></trkpt><trkpt lat="41.1329126" lon="16.5819076"><ele>142.0</ele><time>2026-04-19T08:01:16.386Z</time></trkpt><trkpt lat="41.1329247" lon="16.5817118"><ele>142.0</ele><time>2026-04-19T08:01:17.386Z</time></trkpt><trkpt lat="41.1329469" lon="16.5815062"><ele>141.66666666666669</ele><time>2026-04-19T08:01:18.386Z</time></trkpt><trkpt lat="41.1329812" lon="16.581282"><ele>141.33333333333334</ele><time>2026-04-19T08:01:19.386Z</time></trkpt><trkpt lat="41.1330345" lon="16.5809959"><ele>141.0</ele><time>2026-04-19T08:01:20.386Z</time></trkpt><trkpt lat="41.133118" lon="16.5806845"><ele>141.0</ele><time>2026-04-19T08:01:21.386Z</time></trkpt><trkpt lat="41.1332122" lon="16.5803784"><ele>141.0</ele><time>2026-04-19T08:01:22.386Z</time></trkpt><trkpt lat="41.1333036" lon="16.5800673"><ele>141.0</ele><time>2026-04-19T08:01:23.386Z</time></trkpt><trkpt lat="41.1334136" lon="16.5797137"><ele>141.0</ele><time>2026-04-19T08:01:24.386Z</time></trkpt><trkpt lat="41.1335312" lon="16.5793233"><ele>142.0</ele><time>2026-04-19T08:01:25.386Z</time></trkpt><trkpt lat="41.1336424" lon="16.57892"><ele>143.0</ele><time>2026-04-19T08:01:26.386Z</time></trkpt><trkpt lat="41.133766" lon="16.5785035"><ele>143.0</ele><time>2026-04-19T08:01:27.386Z</time></trkpt><trkpt lat="41.1338881" lon="16.5780741"><ele>143.0</ele><time>2026-04-19T08:01:28.386Z</time></trkpt><trkpt lat="41.1340166" lon="16.5776382"><ele>143.5</ele><time>2026-04-19T08:01:29.386Z</time></trkpt><trkpt lat="41.1341496" lon="16.5771939"><ele>144.0</ele><time>2026-04-19T08:01:30.386Z</time></trkpt><trkpt lat="41.1342718" lon="16.5767545"><ele>144.5</ele><time>2026-04-19T08:01:31.386Z</time></trkpt><trkpt lat="41.1343828" lon="16.5763611"><ele>145.0</ele><time>2026-04-19T08:01:32.386Z</time></trkpt><trkpt lat="41.1344893" lon="16.5759811"><ele>146.0</ele><time>2026-04-19T08:01:33.386Z</time></trkpt><trkpt lat="41.1345912" lon="16.5756014"><ele>147.0</ele><time>2026-04-19T08:01:34.386Z</time></trkpt><trkpt lat="41.134681" lon="16.575246"><ele>147.0</ele><time>2026-04-19T08:01:35.386Z</time></trkpt><trkpt lat="41.1347698" lon="16.5749188"><ele>147.0</ele><time>2026-04-19T08:01:36.386Z</time></trkpt><trkpt lat="41.1348457" lon="16.5746239"><ele>148.0</ele><time>2026-04-19T08:01:37.386Z</time></trkpt><trkpt lat="41.1349172" lon="16.5743599"><ele>149.0</ele><time>2026-04-19T08:01:38.386Z</time></trkpt><trkpt lat="41.134976" lon="16.5741256"><ele>150.0</ele><time>2026-04-19T08:01:39.386Z</time></trkpt><trkpt lat="41.1350357" lon="16.5739074"><ele>150.0</ele><time>2026-04-19T08:01:40.386Z</time></trkpt><trkpt lat="41.135094" lon="16.5736969"><ele>150.0</ele><time>2026-04-19T08:01:41.386Z</time></trkpt><trkpt lat="41.1351338" lon="16.5734676"><ele>150.0</ele><time>2026-04-19T08:01:42.386Z</time></trkpt><trkpt lat="41.1351654" lon="16.5732137"><ele>150.0</ele><time>2026-04-19T08:01:43.386Z</time></trkpt><trkpt lat="41.1351848" lon="16.5728976"><ele>150.0</ele><time>2026-04-19T08:01:44.386Z</time></trkpt><trkpt lat="41.1352134" lon="16.572569"><ele>150.0</ele><time>2026-04-19T08:01:45.386Z</time></trkpt><trkpt lat="41.1352436" lon="16.5722812"><ele>150.0</ele><time>2026-04-19T08:01:46.386Z</time></trkpt><trkpt lat="41.135282" lon="16.5720109"><ele>150.0</ele><time>2026-04-19T08:01:47.386Z</time></trkpt><trkpt lat="41.1352983" lon="16.5717459"><ele>150.66666666666666</ele><time>2026-04-19T08:01:48.386Z</time></trkpt><trkpt lat="41.1352742" lon="16.5714595"><ele>151.33333333333331</ele><time>2026-04-19T08:01:49.386Z</time></trkpt><trkpt lat="41.1352252" lon="16.5711709"><ele>152.0</ele><time>2026-04-19T08:01:50.386Z</time></trkpt><trkpt lat="41.1351377" lon="16.57089"><ele>152.0</ele><time>2026-04-19T08:01:51.386Z</time></trkpt><trkpt lat="41.1350245" lon="16.5705945"><ele>152.0</ele><time>2026-04-19T08:01:52.386Z</time></trkpt><trkpt lat="41.1349044" lon="16.570286"><ele>152.5</ele><time>2026-04-19T08:01:53.386Z</time></trkpt><trkpt lat="41.1347828" lon="16.5699742"><ele>153.0</ele><time>2026-04-19T08:01:54.386Z</time></trkpt><trkpt lat="41.1346645" lon="16.5696548"><ele>154.5</ele><time>2026-04-19T08:01:55.386Z</time></trkpt><trkpt lat="41.1345562" lon="16.5693249"><ele>156.0</ele><time>2026-04-19T08:01:56.386Z</time></trkpt><trkpt lat="41.1344525" lon="16.5689814"><ele>156.5</ele><time>2026-04-19T08:01:57.386Z</time></trkpt><trkpt lat="41.134355" lon="16.568621"><ele>157.0</ele><time>2026-04-19T08:01:58.386Z</time></trkpt><trkpt lat="41.1342576" lon="16.5682372"><ele>158.0</ele><time>2026-04-19T08:01:59.386Z</time></trkpt><trkpt lat="41.134155" lon="16.5678344"><ele>159.0</ele><time>2026-04-19T08:02:00.386Z</time></trkpt><trkpt lat="41.1340487" lon="16.5674432"><ele>159.0</ele><time>2026-04-19T08:02:01.386Z</time></trkpt><trkpt lat="41.1339476" lon="16.5670956"><ele>159.0</ele><time>2026-04-19T08:02:02.386Z</time></trkpt><trkpt lat="41.1338655" lon="16.5667686"><ele>159.0</ele><time>2026-04-19T08:02:03.386Z</time></trkpt><trkpt lat="41.1337709" lon="16.566449"><ele>159.0</ele><time>2026-04-19T08:02:04.386Z</time></trkpt><trkpt lat="41.1336734" lon="16.5661436"><ele>159.0</ele><time>2026-04-19T08:02:05.386Z</time></trkpt><trkpt lat="41.1335428" lon="16.5658224"><ele>159.0</ele><time>2026-04-19T08:02:06.386Z</time></trkpt><trkpt lat="41.1333747" lon="16.5654744"><ele>160.5</ele><time>2026-04-19T08:02:07.386Z</time></trkpt><trkpt lat="41.1331904" lon="16.5651043"><ele>162.0</ele><time>2026-04-19T08:02:08.386Z</time></trkpt><trkpt lat="41.1330224" lon="16.5647585"><ele>162.5</ele><time>2026-04-19T08:02:09.386Z</time></trkpt><trkpt lat="41.1328892" lon="16.564473"><ele>163.0</ele><time>2026-04-19T08:02:10.386Z</time></trkpt><trkpt lat="41.13277" lon="16.5642176"><ele>163.0</ele><time>2026-04-19T08:02:11.386Z</time></trkpt><trkpt lat="41.1326594" lon="16.5639478"><ele>163.0</ele><time>2026-04-19T08:02:12.386Z</time></trkpt><trkpt lat="41.1325706" lon="16.5636398"><ele>164.0</ele><time>2026-04-19T08:02:13.386Z</time></trkpt><trkpt lat="41.1324958" lon="16.563302"><ele>165.0</ele><time>2026-04-19T08:02:14.386Z</time></trkpt><trkpt lat="41.1324327" lon="16.5629081"><ele>166.5</ele><time>2026-04-19T08:02:15.386Z</time></trkpt><trkpt lat="41.132365" lon="16.5624983"><ele>168.0</ele><time>2026-04-19T08:02:16.386Z</time></trkpt><trkpt lat="41.1322993" lon="16.5621422"><ele>169.0</ele><time>2026-04-19T08:02:17.386Z</time></trkpt><trkpt lat="41.1322496" lon="16.5618454"><ele>170.0</ele><time>2026-04-19T08:02:18.386Z</time></trkpt><trkpt lat="41.1322005" lon="16.5615587"><ele>170.0</ele><time>2026-04-19T08:02:19.386Z</time></trkpt><trkpt lat="41.1321418" lon="16.5612867"><ele>170.0</ele><time>2026-04-19T08:02:20.386Z</time></trkpt><trkpt lat="41.1320532" lon="16.560995"><ele>171.0</ele><time>2026-04-19T08:02:21.386Z</time></trkpt><trkpt lat="41.1319486" lon="16.5606814"><ele>172.0</ele><time>2026-04-19T08:02:22.386Z</time></trkpt><trkpt lat="41.1318318" lon="16.560367"><ele>172.5</ele><time>2026-04-19T08:02:23.386Z</time></trkpt><trkpt lat="41.1317007" lon="16.5600305"><ele>173.0</ele><time>2026-04-19T08:02:24.386Z</time></trkpt><trkpt lat="41.1315779" lon="16.5596374"><ele>173.0</ele><time>2026-04-19T08:02:25.386Z</time></trkpt><trkpt lat="41.1314623" lon="16.5592606"><ele>173.0</ele><time>2026-04-19T08:02:26.386Z</time></trkpt><trkpt lat="41.1313545" lon="16.5589203"><ele>174.0</ele><time>2026-04-19T08:02:27.386Z</time></trkpt><trkpt lat="41.131257" lon="16.5585949"><ele>175.0</ele><time>2026-04-19T08:02:28.386Z</time></trkpt><trkpt lat="41.1311712" lon="16.5582786"><ele>175.0</ele><time>2026-04-19T08:02:29.386Z</time></trkpt><trkpt lat="41.131104" lon="16.5579952"><ele>175.0</ele><time>2026-04-19T08:02:30.386Z</time></trkpt><trkpt lat="41.1310403" lon="16.5577284"><ele>175.0</ele><time>2026-04-19T08:02:31.386Z</time></trkpt><trkpt lat="41.130988" lon="16.5574804"><ele>175.66666666666669</ele><time>2026-04-19T08:02:32.386Z</time></trkpt><trkpt lat="41.1309484" lon="16.5572593"><ele>176.33333333333334</ele><time>2026-04-19T08:02:33.386Z</time></trkpt><trkpt lat="41.1309248" lon="16.5570595"><ele>177.0</ele><time>2026-04-19T08:02:34.386Z</time></trkpt><trkpt lat="41.1309056" lon="16.556878"><ele>177.0</ele><time>2026-04-19T08:02:35.386Z</time></trkpt><trkpt lat="41.1308849" lon="16.5566921"><ele>177.0</ele><time>2026-04-19T08:02:36.386Z</time></trkpt><trkpt lat="41.1308563" lon="16.5564757"><ele>177.0</ele><time>2026-04-19T08:02:37.386Z</time></trkpt><trkpt lat="41.1308137" lon="16.556233"><ele>177.33333333333334</ele><time>2026-04-19T08:02:38.386Z</time></trkpt><trkpt lat="41.1307807" lon="16.5559639"><ele>177.66666666666669</ele><time>2026-04-19T08:02:39.386Z</time></trkpt><trkpt lat="41.1307555" lon="16.5556906"><ele>178.0</ele><time>2026-04-19T08:02:40.386Z</time></trkpt><trkpt lat="41.1307395" lon="16.5554058"><ele>178.66666666666669</ele><time>2026-04-19T08:02:41.386Z</time></trkpt><trkpt lat="41.1307358" lon="16.5551555"><ele>179.33333333333334</ele><time>2026-04-19T08:02:42.386Z</time></trkpt><trkpt lat="41.1307308" lon="16.5549139"><ele>180.0</ele><time>2026-04-19T08:02:43.386Z</time></trkpt><trkpt lat="41.1307288" lon="16.5546758"><ele>180.5</ele><time>2026-04-19T08:02:44.386Z</time></trkpt><trkpt lat="41.1307104" lon="16.5544448"><ele>181.0</ele><time>2026-04-19T08:02:45.386Z</time></trkpt><trkpt lat="41.1306984" lon="16.5542645"><ele>181.5</ele><time>2026-04-19T08:02:46.386Z</time></trkpt><trkpt lat="41.1306835" lon="16.5541044"><ele>182.0</ele><time>2026-04-19T08:02:47.386Z</time></trkpt><trkpt lat="41.1306649" lon="16.5539504"><ele>182.0</ele><time>2026-04-19T08:02:48.386Z</time></trkpt><trkpt lat="41.1306423" lon="16.5537874"><ele>182.0</ele><time>2026-04-19T08:02:49.386Z</time></trkpt><trkpt lat="41.1306187" lon="16.5536284"><ele>182.0</ele><time>2026-04-19T08:02:50.386Z</time></trkpt><trkpt lat="41.130598" lon="16.553486"><ele>182.0</ele><time>2026-04-19T08:02:51.386Z</time></trkpt><trkpt lat="41.1305833" lon="16.5533643"><ele>182.0</ele><time>2026-04-19T08:02:52.386Z</time></trkpt><trkpt lat="41.1305728" lon="16.5532688"><ele>182.2</ele><time>2026-04-19T08:02:53.386Z</time></trkpt><trkpt lat="41.1305741" lon="16.5531822"><ele>182.39999999999998</ele><time>2026-04-19T08:02:54.386Z</time></trkpt><trkpt lat="41.1306165" lon="16.5530042"><ele>182.60000000000002</ele><time>2026-04-19T08:02:56.386Z</time></trkpt><trkpt lat="41.1306491" lon="16.5528897"><ele>182.8</ele><time>2026-04-19T08:02:57.386Z</time></trkpt><trkpt lat="41.1307186" lon="16.5527644"><ele>183.0</ele><time>2026-04-19T08:02:58.386Z</time></trkpt><trkpt lat="41.1308021" lon="16.5526349"><ele>183.0</ele><time>2026-04-19T08:02:59.386Z</time></trkpt><trkpt lat="41.1309047" lon="16.5524831"><ele>183.0</ele><time>2026-04-19T08:03:00.386Z</time></trkpt><trkpt lat="41.1310208" lon="16.5523085"><ele>183.0</ele><time>2026-04-19T08:03:01.386Z</time></trkpt><trkpt lat="41.1311744" lon="16.5521026"><ele>183.0</ele><time>2026-04-19T08:03:02.386Z</time></trkpt><trkpt lat="41.1313311" lon="16.5518862"><ele>183.0</ele><time>2026-04-19T08:03:03.386Z</time></trkpt><trkpt lat="41.131471" lon="16.5516749"><ele>183.0</ele><time>2026-04-19T08:03:04.386Z</time></trkpt><trkpt lat="41.1316031" lon="16.5514953"><ele>183.0</ele><time>2026-04-19T08:03:05.386Z</time></trkpt><trkpt lat="41.131716" lon="16.5513253"><ele>183.0</ele><time>2026-04-19T08:03:06.386Z</time></trkpt><trkpt lat="41.1318204" lon="16.5511665"><ele>183.0</ele><time>2026-04-19T08:03:07.386Z</time></trkpt><trkpt lat="41.1319201" lon="16.5510193"><ele>184.33333333333334</ele><time>2026-04-19T08:03:08.386Z</time></trkpt><trkpt lat="41.132027" lon="16.5508636"><ele>185.66666666666669</ele><time>2026-04-19T08:03:09.386Z</time></trkpt><trkpt lat="41.1321603" lon="16.5506831"><ele>187.0</ele><time>2026-04-19T08:03:10.386Z</time></trkpt><trkpt lat="41.132322" lon="16.5504649"><ele>185.33333333333334</ele><time>2026-04-19T08:03:11.386Z</time></trkpt><trkpt lat="41.1324791" lon="16.5502432"><ele>183.66666666666666</ele><time>2026-04-19T08:03:12.386Z</time></trkpt><trkpt lat="41.1326035" lon="16.55003"><ele>182.0</ele><time>2026-04-19T08:03:13.386Z</time></trkpt><trkpt lat="41.1327351" lon="16.549835"><ele>182.0</ele><time>2026-04-19T08:03:14.386Z</time></trkpt><trkpt lat="41.1328801" lon="16.5496383"><ele>182.0</ele><time>2026-04-19T08:03:15.386Z</time></trkpt><trkpt lat="41.1330201" lon="16.5494362"><ele>182.0</ele><time>2026-04-19T08:03:16.386Z</time></trkpt><trkpt lat="41.1331468" lon="16.5492468"><ele>181.33333333333331</ele><time>2026-04-19T08:03:17.386Z</time></trkpt><trkpt lat="41.1332636" lon="16.5490754"><ele>180.66666666666666</ele><time>2026-04-19T08:03:18.386Z</time></trkpt><trkpt lat="41.1333681" lon="16.5489228"><ele>180.0</ele><time>2026-04-19T08:03:19.386Z</time></trkpt><trkpt lat="41.1334641" lon="16.5487903"><ele>180.6</ele><time>2026-04-19T08:03:20.386Z</time></trkpt><trkpt lat="41.1335529" lon="16.5486762"><ele>181.2</ele><time>2026-04-19T08:03:21.386Z</time></trkpt><trkpt lat="41.1336297" lon="16.5485752"><ele>181.8</ele><time>2026-04-19T08:03:22.386Z</time></trkpt><trkpt lat="41.1337" lon="16.5484917"><ele>182.4</ele><time>2026-04-19T08:03:23.386Z</time></trkpt><trkpt lat="41.133774" lon="16.5484079"><ele>183.0</ele><time>2026-04-19T08:03:24.386Z</time></trkpt><trkpt lat="41.1338337" lon="16.5483312"><ele>183.0</ele><time>2026-04-19T08:03:25.386Z</time></trkpt><trkpt lat="41.1338835" lon="16.5482544"><ele>183.0</ele><time>2026-04-19T08:03:26.386Z</time></trkpt><trkpt lat="41.1339118" lon="16.5481629"><ele>183.0</ele><time>2026-04-19T08:03:27.386Z</time></trkpt><trkpt lat="41.1339274" lon="16.5480597"><ele>183.0</ele><time>2026-04-19T08:03:28.386Z</time></trkpt><trkpt lat="41.1339394" lon="16.5479207"><ele>183.0</ele><time>2026-04-19T08:03:29.386Z</time></trkpt><trkpt lat="41.1339488" lon="16.5477656"><ele>182.8</ele><time>2026-04-19T08:03:30.386Z</time></trkpt><trkpt lat="41.1339547" lon="16.547605"><ele>182.60000000000002</ele><time>2026-04-19T08:03:31.386Z</time></trkpt><trkpt lat="41.1339532" lon="16.5474586"><ele>182.39999999999998</ele><time>2026-04-19T08:03:32.386Z</time></trkpt><trkpt lat="41.1339596" lon="16.5473261"><ele>182.2</ele><time>2026-04-19T08:03:33.386Z</time></trkpt><trkpt lat="41.1339617" lon="16.5472237"><ele>182.0</ele><time>2026-04-19T08:03:34.386Z</time></trkpt><trkpt lat="41.1339651" lon="16.5471205"><ele>182.8</ele><time>2026-04-19T08:03:35.386Z</time></trkpt><trkpt lat="41.1339576" lon="16.5470276"><ele>183.6</ele><time>2026-04-19T08:03:36.386Z</time></trkpt><trkpt lat="41.1339534" lon="16.5469421"><ele>184.4</ele><time>2026-04-19T08:03:37.386Z</time></trkpt><trkpt lat="41.1339448" lon="16.5467983"><ele>185.20000000000002</ele><time>2026-04-19T08:03:39.386Z</time></trkpt><trkpt lat="41.1339401" lon="16.5466678"><ele>186.0</ele><time>2026-04-19T08:03:41.385Z</time></trkpt><trkpt lat="41.1339452" lon="16.5465223"><ele>186.0</ele><time>2026-04-19T08:03:43.385Z</time></trkpt><trkpt lat="41.1339452" lon="16.5463893"><ele>186.0</ele><time>2026-04-19T08:03:45.385Z</time></trkpt><trkpt lat="41.1339557" lon="16.5462668"><ele>186.0</ele><time>2026-04-19T08:03:47.385Z</time></trkpt><trkpt lat="41.1339585" lon="16.5461636"><ele>186.0</ele><time>2026-04-19T08:03:49.385Z</time></trkpt><trkpt lat="41.1339655" lon="16.5460106"><ele>186.0</ele><time>2026-04-19T08:03:51.385Z</time></trkpt><trkpt lat="41.1339764" lon="16.5459277"><ele>186.0</ele><time>2026-04-19T08:03:52.385Z</time></trkpt><trkpt lat="41.133975" lon="16.5457887"><ele>186.0</ele><time>2026-04-19T08:03:54.385Z</time></trkpt><trkpt lat="41.1339815" lon="16.5456039"><ele>186.0</ele><time>2026-04-19T08:03:56.385Z</time></trkpt><trkpt lat="41.1339827" lon="16.5454952"><ele>186.0</ele><time>2026-04-19T08:03:57.385Z</time></trkpt><trkpt lat="41.1339826" lon="16.5453707"><ele>186.0</ele><time>2026-04-19T08:03:58.385Z</time></trkpt><trkpt lat="41.1339798" lon="16.5452571"><ele>185.83333333333334</ele><time>2026-04-19T08:03:59.385Z</time></trkpt><trkpt lat="41.1339865" lon="16.5451586"><ele>185.66666666666666</ele><time>2026-04-19T08:04:00.385Z</time></trkpt><trkpt lat="41.1339914" lon="16.5450518"><ele>185.5</ele><time>2026-04-19T08:04:01.385Z</time></trkpt><trkpt lat="41.1339959" lon="16.5449369"><ele>185.33333333333331</ele><time>2026-04-19T08:04:02.385Z</time></trkpt><trkpt lat="41.1339993" lon="16.5448173"><ele>185.16666666666666</ele><time>2026-04-19T08:04:03.385Z</time></trkpt><trkpt lat="41.1340036" lon="16.5446952"><ele>185.0</ele><time>2026-04-19T08:04:04.385Z</time></trkpt><trkpt lat="41.1340138" lon="16.5445654"><ele>185.2</ele><time>2026-04-19T08:04:05.385Z</time></trkpt><trkpt lat="41.1340178" lon="16.5444308"><ele>185.4</ele><time>2026-04-19T08:04:06.385Z</time></trkpt><trkpt lat="41.1340273" lon="16.5442887"><ele>185.60000000000002</ele><time>2026-04-19T08:04:07.385Z</time></trkpt><trkpt lat="41.1340298" lon="16.5441595"><ele>185.8</ele><time>2026-04-19T08:04:08.385Z</time></trkpt><trkpt lat="41.1340301" lon="16.5440556"><ele>186.0</ele><time>2026-04-19T08:04:09.385Z</time></trkpt><trkpt lat="41.1340381" lon="16.5439613"><ele>186.0</ele><time>2026-04-19T08:04:10.385Z</time></trkpt><trkpt lat="41.1340438" lon="16.543867"><ele>186.0</ele><time>2026-04-19T08:04:11.385Z</time></trkpt><trkpt lat="41.134041" lon="16.5437221"><ele>186.0</ele><time>2026-04-19T08:04:13.385Z</time></trkpt><trkpt lat="41.1340399" lon="16.5436042"><ele>186.0</ele><time>2026-04-19T08:04:15.385Z</time></trkpt><trkpt lat="41.1340489" lon="16.5435168"><ele>186.0</ele><time>2026-04-19T08:04:16.385Z</time></trkpt><trkpt lat="41.1340667" lon="16.5433936"><ele>186.0</ele><time>2026-04-19T08:04:17.385Z</time></trkpt><trkpt lat="41.1340829" lon="16.5432196"><ele>185.75</ele><time>2026-04-19T08:04:18.385Z</time></trkpt><trkpt lat="41.1340959" lon="16.5430336"><ele>185.5</ele><time>2026-04-19T08:04:19.385Z</time></trkpt><trkpt lat="41.1341008" lon="16.5428491"><ele>185.25</ele><time>2026-04-19T08:04:20.385Z</time></trkpt><trkpt lat="41.134112" lon="16.5426798"><ele>185.0</ele><time>2026-04-19T08:04:21.385Z</time></trkpt><trkpt lat="41.1341277" lon="16.5425285"><ele>184.5</ele><time>2026-04-19T08:04:22.385Z</time></trkpt><trkpt lat="41.1341412" lon="16.5423729"><ele>184.0</ele><time>2026-04-19T08:04:23.385Z</time></trkpt><trkpt lat="41.1341558" lon="16.5422032"><ele>183.5</ele><time>2026-04-19T08:04:24.385Z</time></trkpt><trkpt lat="41.1341621" lon="16.542031"><ele>183.0</ele><time>2026-04-19T08:04:25.385Z</time></trkpt><trkpt lat="41.1341675" lon="16.5419019"><ele>182.8</ele><time>2026-04-19T08:04:26.385Z</time></trkpt><trkpt lat="41.1341681" lon="16.5417924"><ele>182.60000000000002</ele><time>2026-04-19T08:04:27.385Z</time></trkpt><trkpt lat="41.1341629" lon="16.5416803"><ele>182.39999999999998</ele><time>2026-04-19T08:04:28.385Z</time></trkpt><trkpt lat="41.1341588" lon="16.5415565"><ele>182.2</ele><time>2026-04-19T08:04:29.385Z</time></trkpt><trkpt lat="41.1341528" lon="16.5413877"><ele>182.0</ele><time>2026-04-19T08:04:30.385Z</time></trkpt><trkpt lat="41.1341295" lon="16.5411889"><ele>182.5</ele><time>2026-04-19T08:04:31.385Z</time></trkpt><trkpt lat="41.1340859" lon="16.5409844"><ele>183.0</ele><time>2026-04-19T08:04:32.385Z</time></trkpt><trkpt lat="41.1340362" lon="16.5408051"><ele>183.5</ele><time>2026-04-19T08:04:33.385Z</time></trkpt><trkpt lat="41.133979" lon="16.5406407"><ele>184.0</ele><time>2026-04-19T08:04:34.385Z</time></trkpt><trkpt lat="41.1339083" lon="16.5404916"><ele>184.0</ele><time>2026-04-19T08:04:35.385Z</time></trkpt><trkpt lat="41.13382" lon="16.5403367"><ele>184.0</ele><time>2026-04-19T08:04:36.385Z</time></trkpt><trkpt lat="41.1337345" lon="16.5401865"><ele>184.0</ele><time>2026-04-19T08:04:37.385Z</time></trkpt><trkpt lat="41.1336586" lon="16.5400627"><ele>184.0</ele><time>2026-04-19T08:04:38.385Z</time></trkpt><trkpt lat="41.1335944" lon="16.5399516"><ele>184.0</ele><time>2026-04-19T08:04:39.385Z</time></trkpt><trkpt lat="41.1335177" lon="16.5398251"><ele>184.0</ele><time>2026-04-19T08:04:40.385Z</time></trkpt><trkpt lat="41.1334235" lon="16.5396755"><ele>184.0</ele><time>2026-04-19T08:04:41.385Z</time></trkpt><trkpt lat="41.133319" lon="16.5394974"><ele>184.0</ele><time>2026-04-19T08:04:42.385Z</time></trkpt><trkpt lat="41.1332057" lon="16.539306"><ele>185.33333333333334</ele><time>2026-04-19T08:04:43.385Z</time></trkpt><trkpt lat="41.1330992" lon="16.5391316"><ele>186.66666666666666</ele><time>2026-04-19T08:04:44.385Z</time></trkpt><trkpt lat="41.1329935" lon="16.5389615"><ele>188.0</ele><time>2026-04-19T08:04:45.385Z</time></trkpt><trkpt lat="41.132896" lon="16.5388043"><ele>188.0</ele><time>2026-04-19T08:04:46.385Z</time></trkpt><trkpt lat="41.1327987" lon="16.5386617"><ele>188.0</ele><time>2026-04-19T08:04:47.385Z</time></trkpt><trkpt lat="41.1327115" lon="16.5385296"><ele>188.0</ele><time>2026-04-19T08:04:48.385Z</time></trkpt><trkpt lat="41.1326285" lon="16.5384051"><ele>188.0</ele><time>2026-04-19T08:04:49.385Z</time></trkpt><trkpt lat="41.1325602" lon="16.5382891"><ele>188.0</ele><time>2026-04-19T08:04:50.385Z</time></trkpt><trkpt lat="41.1325" lon="16.5381784"><ele>188.0</ele><time>2026-04-19T08:04:51.385Z</time></trkpt><trkpt lat="41.1324344" lon="16.5380759"><ele>188.0</ele><time>2026-04-19T08:04:52.385Z</time></trkpt><trkpt lat="41.1323688" lon="16.5379788"><ele>188.0</ele><time>2026-04-19T08:04:53.385Z</time></trkpt><trkpt lat="41.1323035" lon="16.5378929"><ele>188.0</ele><time>2026-04-19T08:04:54.385Z</time></trkpt><trkpt lat="41.1322513" lon="16.5378159"><ele>188.33333333333331</ele><time>2026-04-19T08:04:55.385Z</time></trkpt><trkpt lat="41.1322064" lon="16.5377451"><ele>188.66666666666666</ele><time>2026-04-19T08:04:56.385Z</time></trkpt><trkpt lat="41.1321558" lon="16.5376659"><ele>189.0</ele><time>2026-04-19T08:04:57.385Z</time></trkpt><trkpt lat="41.1321096" lon="16.5375851"><ele>189.33333333333334</ele><time>2026-04-19T08:04:58.385Z</time></trkpt><trkpt lat="41.1320531" lon="16.5375003"><ele>189.66666666666669</ele><time>2026-04-19T08:04:59.385Z</time></trkpt><trkpt lat="41.1320025" lon="16.5374099"><ele>190.0</ele><time>2026-04-19T08:05:00.385Z</time></trkpt><trkpt lat="41.1319434" lon="16.5373371"><ele>190.0</ele><time>2026-04-19T08:05:01.385Z</time></trkpt><trkpt lat="41.1318992" lon="16.5372584"><ele>190.0</ele><time>2026-04-19T08:05:02.385Z</time></trkpt><trkpt lat="41.1318505" lon="16.5371967"><ele>190.0</ele><time>2026-04-19T08:05:03.385Z</time></trkpt><trkpt lat="41.131771" lon="16.537092"><ele>190.0</ele><time>2026-04-19T08:05:05.385Z</time></trkpt><trkpt lat="41.1317292" lon="16.5370281"><ele>190.0</ele><time>2026-04-19T08:05:06.385Z</time></trkpt><trkpt lat="41.1316846" lon="16.536964"><ele>190.0</ele><time>2026-04-19T08:05:07.385Z</time></trkpt><trkpt lat="41.1316254" lon="16.5369013"><ele>190.0</ele><time>2026-04-19T08:05:08.385Z</time></trkpt><trkpt lat="41.1315704" lon="16.5368366"><ele>190.0</ele><time>2026-04-19T08:05:09.385Z</time></trkpt><trkpt lat="41.1315177" lon="16.5367755"><ele>190.0</ele><time>2026-04-19T08:05:10.385Z</time></trkpt><trkpt lat="41.1314286" lon="16.5366769"><ele>190.0</ele><time>2026-04-19T08:05:12.385Z</time></trkpt><trkpt lat="41.1313744" lon="16.5366286"><ele>190.0</ele><time>2026-04-19T08:05:13.385Z</time></trkpt><trkpt lat="41.1312756" lon="16.5365477"><ele>190.0</ele><time>2026-04-19T08:05:15.385Z</time></trkpt><trkpt lat="41.1312116" lon="16.5364802"><ele>189.75</ele><time>2026-04-19T08:05:16.385Z</time></trkpt><trkpt lat="41.1311212" lon="16.5363946"><ele>189.5</ele><time>2026-04-19T08:05:17.385Z</time></trkpt><trkpt lat="41.1310176" lon="16.5363008"><ele>189.25</ele><time>2026-04-19T08:05:18.385Z</time></trkpt><trkpt lat="41.1309155" lon="16.5362092"><ele>189.0</ele><time>2026-04-19T08:05:19.385Z</time></trkpt><trkpt lat="41.1308202" lon="16.5361167"><ele>189.0</ele><time>2026-04-19T08:05:20.385Z</time></trkpt><trkpt lat="41.1307246" lon="16.536018"><ele>189.0</ele><time>2026-04-19T08:05:21.385Z</time></trkpt><trkpt lat="41.1306179" lon="16.5359101"><ele>189.0</ele><time>2026-04-19T08:05:22.385Z</time></trkpt><trkpt lat="41.1304895" lon="16.5358182"><ele>189.0</ele><time>2026-04-19T08:05:23.385Z</time></trkpt><trkpt lat="41.1303698" lon="16.5357351"><ele>188.75</ele><time>2026-04-19T08:05:24.385Z</time></trkpt><trkpt lat="41.1302465" lon="16.5356553"><ele>188.5</ele><time>2026-04-19T08:05:25.385Z</time></trkpt><trkpt lat="41.1301142" lon="16.5355917"><ele>188.25</ele><time>2026-04-19T08:05:26.385Z</time></trkpt><trkpt lat="41.1299677" lon="16.5355146"><ele>188.0</ele><time>2026-04-19T08:05:27.385Z</time></trkpt><trkpt lat="41.1298112" lon="16.5354559"><ele>187.5</ele><time>2026-04-19T08:05:28.385Z</time></trkpt><trkpt lat="41.1296599" lon="16.5353973"><ele>187.0</ele><time>2026-04-19T08:05:29.385Z</time></trkpt><trkpt lat="41.1295226" lon="16.5353442"><ele>186.5</ele><time>2026-04-19T08:05:30.385Z</time></trkpt><trkpt lat="41.129398" lon="16.5352946"><ele>186.0</ele><time>2026-04-19T08:05:31.385Z</time></trkpt><trkpt lat="41.1292962" lon="16.5352492"><ele>185.8</ele><time>2026-04-19T08:05:32.385Z</time></trkpt><trkpt lat="41.1292218" lon="16.5352157"><ele>185.60000000000002</ele><time>2026-04-19T08:05:33.385Z</time></trkpt><trkpt lat="41.1291471" lon="16.5351838"><ele>185.4</ele><time>2026-04-19T08:05:35.385Z</time></trkpt><trkpt lat="41.1290699" lon="16.5350671"><ele>185.2</ele><time>2026-04-19T08:06:26.385Z</time></trkpt><trkpt lat="41.1290226" lon="16.5349578"><ele>185.0</ele><time>2026-04-19T08:06:27.385Z</time></trkpt><trkpt lat="41.1289772" lon="16.5348212"><ele>185.25</ele><time>2026-04-19T08:06:28.385Z</time></trkpt><trkpt lat="41.1289242" lon="16.5346594"><ele>185.5</ele><time>2026-04-19T08:06:29.385Z</time></trkpt><trkpt lat="41.1288815" lon="16.5344837"><ele>185.75</ele><time>2026-04-19T08:06:30.385Z</time></trkpt><trkpt lat="41.1288258" lon="16.534307"><ele>186.0</ele><time>2026-04-19T08:06:31.385Z</time></trkpt><trkpt lat="41.1287736" lon="16.5341264"><ele>186.0</ele><time>2026-04-19T08:06:32.385Z</time></trkpt><trkpt lat="41.1287234" lon="16.5339574"><ele>186.0</ele><time>2026-04-19T08:06:33.385Z</time></trkpt><trkpt lat="41.1286674" lon="16.5337462"><ele>186.0</ele><time>2026-04-19T08:06:34.385Z</time></trkpt><trkpt lat="41.1285993" lon="16.5335059"><ele>186.0</ele><time>2026-04-19T08:06:35.385Z</time></trkpt><trkpt lat="41.1285263" lon="16.5332754"><ele>186.0</ele><time>2026-04-19T08:06:36.385Z</time></trkpt><trkpt lat="41.1284537" lon="16.5330444"><ele>186.0</ele><time>2026-04-19T08:06:37.385Z</time></trkpt><trkpt lat="41.1283795" lon="16.5327963"><ele>186.0</ele><time>2026-04-19T08:06:38.385Z</time></trkpt><trkpt lat="41.1283009" lon="16.5325334"><ele>186.0</ele><time>2026-04-19T08:06:39.385Z</time></trkpt><trkpt lat="41.128217" lon="16.5322825"><ele>186.0</ele><time>2026-04-19T08:06:40.385Z</time></trkpt><trkpt lat="41.1281499" lon="16.5320452"><ele>186.66666666666666</ele><time>2026-04-19T08:06:41.385Z</time></trkpt><trkpt lat="41.1280806" lon="16.5318295"><ele>187.33333333333331</ele><time>2026-04-19T08:06:42.385Z</time></trkpt><trkpt lat="41.128005" lon="16.5315857"><ele>188.0</ele><time>2026-04-19T08:06:43.385Z</time></trkpt><trkpt lat="41.1279214" lon="16.531312"><ele>188.66666666666666</ele><time>2026-04-19T08:06:44.385Z</time></trkpt><trkpt lat="41.1278314" lon="16.5310323"><ele>189.33333333333334</ele><time>2026-04-19T08:06:45.385Z</time></trkpt><trkpt lat="41.1277518" lon="16.5307679"><ele>190.0</ele><time>2026-04-19T08:06:46.385Z</time></trkpt><trkpt lat="41.1276676" lon="16.5304977"><ele>190.5</ele><time>2026-04-19T08:06:47.385Z</time></trkpt><trkpt lat="41.1275789" lon="16.5301984"><ele>191.0</ele><time>2026-04-19T08:06:48.385Z</time></trkpt><trkpt lat="41.1274874" lon="16.5298989"><ele>191.0</ele><time>2026-04-19T08:06:49.385Z</time></trkpt><trkpt lat="41.1274151" lon="16.529634"><ele>191.0</ele><time>2026-04-19T08:06:50.385Z</time></trkpt><trkpt lat="41.1273338" lon="16.5293754"><ele>191.0</ele><time>2026-04-19T08:06:51.384Z</time></trkpt><trkpt lat="41.1272586" lon="16.5291065"><ele>192.0</ele><time>2026-04-19T08:06:52.385Z</time></trkpt><trkpt lat="41.1271714" lon="16.5288148"><ele>193.0</ele><time>2026-04-19T08:06:53.385Z</time></trkpt><trkpt lat="41.127084" lon="16.528501"><ele>193.5</ele><time>2026-04-19T08:06:54.384Z</time></trkpt><trkpt lat="41.126996" lon="16.5282019"><ele>194.0</ele><time>2026-04-19T08:06:55.384Z</time></trkpt><trkpt lat="41.1269133" lon="16.5279199"><ele>194.0</ele><time>2026-04-19T08:06:56.384Z</time></trkpt><trkpt lat="41.126816" lon="16.5276186"><ele>194.0</ele><time>2026-04-19T08:06:57.384Z</time></trkpt><trkpt lat="41.1267287" lon="16.5273414"><ele>194.0</ele><time>2026-04-19T08:06:58.384Z</time></trkpt><trkpt lat="41.1266447" lon="16.5270668"><ele>194.0</ele><time>2026-04-19T08:06:59.384Z</time></trkpt><trkpt lat="41.1265507" lon="16.5267482"><ele>194.0</ele><time>2026-04-19T08:07:00.384Z</time></trkpt><trkpt lat="41.1264353" lon="16.5263524"><ele>194.0</ele><time>2026-04-19T08:07:01.384Z</time></trkpt><trkpt lat="41.1263207" lon="16.5259638"><ele>194.0</ele><time>2026-04-19T08:07:02.384Z</time></trkpt><trkpt lat="41.1261965" lon="16.5255708"><ele>194.0</ele><time>2026-04-19T08:07:03.384Z</time></trkpt><trkpt lat="41.1260755" lon="16.5251841"><ele>193.5</ele><time>2026-04-19T08:07:04.384Z</time></trkpt><trkpt lat="41.1259737" lon="16.524824"><ele>193.0</ele><time>2026-04-19T08:07:05.384Z</time></trkpt><trkpt lat="41.1258752" lon="16.5244753"><ele>192.5</ele><time>2026-04-19T08:07:06.384Z</time></trkpt><trkpt lat="41.1257629" lon="16.5241183"><ele>192.0</ele><time>2026-04-19T08:07:07.384Z</time></trkpt><trkpt lat="41.125653" lon="16.523755"><ele>193.0</ele><time>2026-04-19T08:07:08.384Z</time></trkpt><trkpt lat="41.1255468" lon="16.5234124"><ele>194.0</ele><time>2026-04-19T08:07:09.384Z</time></trkpt><trkpt lat="41.1254508" lon="16.5231008"><ele>194.5</ele><time>2026-04-19T08:07:10.384Z</time></trkpt><trkpt lat="41.1253598" lon="16.5227962"><ele>195.0</ele><time>2026-04-19T08:07:11.384Z</time></trkpt><trkpt lat="41.1252703" lon="16.5224955"><ele>195.0</ele><time>2026-04-19T08:07:12.384Z</time></trkpt><trkpt lat="41.1251862" lon="16.5222044"><ele>195.0</ele><time>2026-04-19T08:07:13.384Z</time></trkpt><trkpt lat="41.1251041" lon="16.5218936"><ele>195.5</ele><time>2026-04-19T08:07:14.384Z</time></trkpt><trkpt lat="41.1250108" lon="16.5215863"><ele>196.0</ele><time>2026-04-19T08:07:15.384Z</time></trkpt><trkpt lat="41.1249098" lon="16.5212682"><ele>196.5</ele><time>2026-04-19T08:07:16.384Z</time></trkpt><trkpt lat="41.1248033" lon="16.5209308"><ele>197.0</ele><time>2026-04-19T08:07:17.384Z</time></trkpt><trkpt lat="41.1246866" lon="16.5205752"><ele>198.0</ele><time>2026-04-19T08:07:18.384Z</time></trkpt><trkpt lat="41.1245854" lon="16.5202297"><ele>199.0</ele><time>2026-04-19T08:07:19.384Z</time></trkpt><trkpt lat="41.124491" lon="16.5198723"><ele>199.5</ele><time>2026-04-19T08:07:20.384Z</time></trkpt><trkpt lat="41.1243843" lon="16.5195108"><ele>200.0</ele><time>2026-04-19T08:07:21.384Z</time></trkpt><trkpt lat="41.1242671" lon="16.5191348"><ele>200.0</ele><time>2026-04-19T08:07:22.384Z</time></trkpt><trkpt lat="41.1241521" lon="16.5187628"><ele>200.0</ele><time>2026-04-19T08:07:23.384Z</time></trkpt><trkpt lat="41.1240425" lon="16.5183888"><ele>201.0</ele><time>2026-04-19T08:07:24.384Z</time></trkpt><trkpt lat="41.1239256" lon="16.5180125"><ele>202.0</ele><time>2026-04-19T08:07:25.384Z</time></trkpt><trkpt lat="41.1238007" lon="16.5176014"><ele>203.5</ele><time>2026-04-19T08:07:26.384Z</time></trkpt><trkpt lat="41.1236732" lon="16.5171823"><ele>205.0</ele><time>2026-04-19T08:07:27.384Z</time></trkpt><trkpt lat="41.1235586" lon="16.5168087"><ele>205.5</ele><time>2026-04-19T08:07:28.384Z</time></trkpt><trkpt lat="41.1234722" lon="16.5164904"><ele>206.0</ele><time>2026-04-19T08:07:29.384Z</time></trkpt><trkpt lat="41.1233849" lon="16.5162017"><ele>206.0</ele><time>2026-04-19T08:07:30.384Z</time></trkpt><trkpt lat="41.1233209" lon="16.5159521"><ele>206.0</ele><time>2026-04-19T08:07:31.383Z</time></trkpt><trkpt lat="41.1232415" lon="16.5157237"><ele>206.0</ele><time>2026-04-19T08:07:32.384Z</time></trkpt><trkpt lat="41.1231596" lon="16.5155021"><ele>206.66666666666669</ele><time>2026-04-19T08:07:33.384Z</time></trkpt><trkpt lat="41.1231006" lon="16.5153005"><ele>207.33333333333331</ele><time>2026-04-19T08:07:34.384Z</time></trkpt><trkpt lat="41.1230545" lon="16.5151035"><ele>208.0</ele><time>2026-04-19T08:07:35.384Z</time></trkpt><trkpt lat="41.1229923" lon="16.5148901"><ele>208.0</ele><time>2026-04-19T08:07:36.384Z</time></trkpt><trkpt lat="41.1229078" lon="16.5146499"><ele>208.0</ele><time>2026-04-19T08:07:37.384Z</time></trkpt><trkpt lat="41.1228208" lon="16.5143772"><ele>208.0</ele><time>2026-04-19T08:07:38.384Z</time></trkpt><trkpt lat="41.1227261" lon="16.5140728"><ele>209.0</ele><time>2026-04-19T08:07:39.384Z</time></trkpt><trkpt lat="41.122623" lon="16.513721"><ele>210.0</ele><time>2026-04-19T08:07:40.384Z</time></trkpt><trkpt lat="41.1225008" lon="16.5133344"><ele>211.0</ele><time>2026-04-19T08:07:41.384Z</time></trkpt><trkpt lat="41.1223837" lon="16.5129616"><ele>212.0</ele><time>2026-04-19T08:07:42.384Z</time></trkpt><trkpt lat="41.1222878" lon="16.5126225"><ele>212.5</ele><time>2026-04-19T08:07:43.384Z</time></trkpt><trkpt lat="41.1222019" lon="16.5122973"><ele>213.0</ele><time>2026-04-19T08:07:44.384Z</time></trkpt><trkpt lat="41.1221136" lon="16.5119785"><ele>213.0</ele><time>2026-04-19T08:07:45.384Z</time></trkpt><trkpt lat="41.122022" lon="16.5116569"><ele>213.0</ele><time>2026-04-19T08:07:46.384Z</time></trkpt><trkpt lat="41.1219237" lon="16.5113223"><ele>213.5</ele><time>2026-04-19T08:07:47.384Z</time></trkpt><trkpt lat="41.1218109" lon="16.5109576"><ele>214.0</ele><time>2026-04-19T08:07:48.384Z</time></trkpt><trkpt lat="41.1216798" lon="16.510555"><ele>215.5</ele><time>2026-04-19T08:07:49.384Z</time></trkpt><trkpt lat="41.1215488" lon="16.5101266"><ele>217.0</ele><time>2026-04-19T08:07:50.384Z</time></trkpt><trkpt lat="41.1214259" lon="16.5097224"><ele>216.5</ele><time>2026-04-19T08:07:51.384Z</time></trkpt><trkpt lat="41.1213058" lon="16.5093298"><ele>216.0</ele><time>2026-04-19T08:07:52.384Z</time></trkpt><trkpt lat="41.1211874" lon="16.5089625"><ele>216.5</ele><time>2026-04-19T08:07:53.384Z</time></trkpt><trkpt lat="41.1210804" lon="16.5085781"><ele>217.0</ele><time>2026-04-19T08:07:54.384Z</time></trkpt><trkpt lat="41.1209573" lon="16.5081619"><ele>217.0</ele><time>2026-04-19T08:07:55.384Z</time></trkpt><trkpt lat="41.1208357" lon="16.5077816"><ele>217.0</ele><time>2026-04-19T08:07:56.384Z</time></trkpt><trkpt lat="41.1207222" lon="16.507408"><ele>217.5</ele><time>2026-04-19T08:07:57.384Z</time></trkpt><trkpt lat="41.1206204" lon="16.507058"><ele>218.0</ele><time>2026-04-19T08:07:58.384Z</time></trkpt><trkpt lat="41.1205253" lon="16.5067272"><ele>218.0</ele><time>2026-04-19T08:07:59.384Z</time></trkpt><trkpt lat="41.1204234" lon="16.5063985"><ele>218.0</ele><time>2026-04-19T08:08:00.384Z</time></trkpt><trkpt lat="41.1203303" lon="16.5060803"><ele>218.0</ele><time>2026-04-19T08:08:01.384Z</time></trkpt><trkpt lat="41.1202392" lon="16.505772"><ele>218.0</ele><time>2026-04-19T08:08:02.384Z</time></trkpt><trkpt lat="41.120146" lon="16.5054645"><ele>218.5</ele><time>2026-04-19T08:08:03.384Z</time></trkpt><trkpt lat="41.1200534" lon="16.5051576"><ele>219.0</ele><time>2026-04-19T08:08:04.384Z</time></trkpt><trkpt lat="41.1199584" lon="16.5048495"><ele>220.5</ele><time>2026-04-19T08:08:05.384Z</time></trkpt><trkpt lat="41.1198664" lon="16.5045576"><ele>222.0</ele><time>2026-04-19T08:08:06.384Z</time></trkpt><trkpt lat="41.119777" lon="16.5042776"><ele>222.0</ele><time>2026-04-19T08:08:07.384Z</time></trkpt><trkpt lat="41.1196929" lon="16.5040016"><ele>222.0</ele><time>2026-04-19T08:08:08.384Z</time></trkpt><trkpt lat="41.11962" lon="16.5037472"><ele>222.0</ele><time>2026-04-19T08:08:09.384Z</time></trkpt><trkpt lat="41.119552" lon="16.5035077"><ele>222.33333333333331</ele><time>2026-04-19T08:08:10.384Z</time></trkpt><trkpt lat="41.1194979" lon="16.5032962"><ele>222.66666666666666</ele><time>2026-04-19T08:08:11.384Z</time></trkpt><trkpt lat="41.1194345" lon="16.5030886"><ele>223.0</ele><time>2026-04-19T08:08:12.384Z</time></trkpt><trkpt lat="41.1193639" lon="16.5028764"><ele>223.0</ele><time>2026-04-19T08:08:13.384Z</time></trkpt><trkpt lat="41.119287" lon="16.5026331"><ele>223.0</ele><time>2026-04-19T08:08:14.384Z</time></trkpt><trkpt lat="41.1192097" lon="16.5023713"><ele>223.0</ele><time>2026-04-19T08:08:15.384Z</time></trkpt><trkpt lat="41.1191363" lon="16.5021363"><ele>223.66666666666666</ele><time>2026-04-19T08:08:16.384Z</time></trkpt><trkpt lat="41.1190672" lon="16.5019231"><ele>224.33333333333331</ele><time>2026-04-19T08:08:17.384Z</time></trkpt><trkpt lat="41.1190111" lon="16.5017346"><ele>225.0</ele><time>2026-04-19T08:08:18.384Z</time></trkpt><trkpt lat="41.1189602" lon="16.501564"><ele>225.0</ele><time>2026-04-19T08:08:19.384Z</time></trkpt><trkpt lat="41.1189174" lon="16.5014065"><ele>225.0</ele><time>2026-04-19T08:08:20.384Z</time></trkpt><trkpt lat="41.1188817" lon="16.5012706"><ele>225.0</ele><time>2026-04-19T08:08:21.384Z</time></trkpt><trkpt lat="41.1188419" lon="16.501158"><ele>225.0</ele><time>2026-04-19T08:08:22.384Z</time></trkpt><trkpt lat="41.1188045" lon="16.5010556"><ele>225.0</ele><time>2026-04-19T08:08:23.384Z</time></trkpt><trkpt lat="41.1187632" lon="16.5009466"><ele>224.8</ele><time>2026-04-19T08:08:25.384Z</time></trkpt><trkpt lat="41.1187369" lon="16.500866"><ele>224.6</ele><time>2026-04-19T08:08:27.384Z</time></trkpt><trkpt lat="41.1187092" lon="16.5007609"><ele>224.39999999999998</ele><time>2026-04-19T08:08:29.384Z</time></trkpt><trkpt lat="41.1186593" lon="16.5005986"><ele>224.2</ele><time>2026-04-19T08:08:31.384Z</time></trkpt><trkpt lat="41.118645" lon="16.5004904"><ele>224.0</ele><time>2026-04-19T08:08:32.384Z</time></trkpt><trkpt lat="41.118618" lon="16.5003776"><ele>224.00000000000003</ele><time>2026-04-19T08:08:33.384Z</time></trkpt><trkpt lat="41.118593" lon="16.5002875"><ele>224.0</ele><time>2026-04-19T08:08:34.384Z</time></trkpt><trkpt lat="41.1185669" lon="16.5002035"><ele>224.0</ele><time>2026-04-19T08:08:35.384Z</time></trkpt><trkpt lat="41.1185433" lon="16.5001018"><ele>224.0</ele><time>2026-04-19T08:08:36.384Z</time></trkpt><trkpt lat="41.1185049" lon="16.4999848"><ele>224.00000000000003</ele><time>2026-04-19T08:08:37.384Z</time></trkpt><trkpt lat="41.1184583" lon="16.4998354"><ele>224.0</ele><time>2026-04-19T08:08:38.384Z</time></trkpt><trkpt lat="41.1184125" lon="16.4996765"><ele>224.0</ele><time>2026-04-19T08:08:39.384Z</time></trkpt><trkpt lat="41.1183752" lon="16.4995231"><ele>224.0</ele><time>2026-04-19T08:08:40.384Z</time></trkpt><trkpt lat="41.1183167" lon="16.4993403"><ele>224.0</ele><time>2026-04-19T08:08:41.384Z</time></trkpt><trkpt lat="41.1182256" lon="16.4990996"><ele>225.0</ele><time>2026-04-19T08:08:42.384Z</time></trkpt><trkpt lat="41.1181343" lon="16.4988289"><ele>226.0</ele><time>2026-04-19T08:08:43.384Z</time></trkpt><trkpt lat="41.1180559" lon="16.4985601"><ele>227.0</ele><time>2026-04-19T08:08:44.384Z</time></trkpt><trkpt lat="41.1179916" lon="16.4983101"><ele>227.0</ele><time>2026-04-19T08:08:45.384Z</time></trkpt><trkpt lat="41.1179279" lon="16.498062"><ele>227.0</ele><time>2026-04-19T08:08:46.384Z</time></trkpt><trkpt lat="41.1178511" lon="16.4978177"><ele>227.0</ele><time>2026-04-19T08:08:47.384Z</time></trkpt><trkpt lat="41.117774" lon="16.4975702"><ele>227.0</ele><time>2026-04-19T08:08:48.384Z</time></trkpt><trkpt lat="41.1176899" lon="16.4972935"><ele>227.0</ele><time>2026-04-19T08:08:49.384Z</time></trkpt><trkpt lat="41.1175955" lon="16.4970037"><ele>227.0</ele><time>2026-04-19T08:08:50.384Z</time></trkpt><trkpt lat="41.1175036" lon="16.4967111"><ele>227.0</ele><time>2026-04-19T08:08:51.384Z</time></trkpt><trkpt lat="41.1174168" lon="16.4964312"><ele>228.0</ele><time>2026-04-19T08:08:52.384Z</time></trkpt><trkpt lat="41.1173303" lon="16.4961601"><ele>229.0</ele><time>2026-04-19T08:08:53.384Z</time></trkpt><trkpt lat="41.1172584" lon="16.4958952"><ele>230.0</ele><time>2026-04-19T08:08:54.384Z</time></trkpt><trkpt lat="41.1171761" lon="16.4956295"><ele>230.0</ele><time>2026-04-19T08:08:55.384Z</time></trkpt><trkpt lat="41.1170919" lon="16.4953534"><ele>230.0</ele><time>2026-04-19T08:08:56.384Z</time></trkpt><trkpt lat="41.1170128" lon="16.4951034"><ele>230.0</ele><time>2026-04-19T08:08:57.384Z</time></trkpt><trkpt lat="41.1169432" lon="16.4948696"><ele>230.0</ele><time>2026-04-19T08:08:58.384Z</time></trkpt><trkpt lat="41.1168775" lon="16.4946551"><ele>230.0</ele><time>2026-04-19T08:08:59.384Z</time></trkpt><trkpt lat="41.116826" lon="16.4944634"><ele>230.0</ele><time>2026-04-19T08:09:00.384Z</time></trkpt><trkpt lat="41.1167737" lon="16.494278"><ele>230.2</ele><time>2026-04-19T08:09:01.384Z</time></trkpt><trkpt lat="41.1167338" lon="16.4941281"><ele>230.4</ele><time>2026-04-19T08:09:02.384Z</time></trkpt><trkpt lat="41.1167026" lon="16.4939994"><ele>230.60000000000002</ele><time>2026-04-19T08:09:03.384Z</time></trkpt><trkpt lat="41.1166925" lon="16.4938824"><ele>230.8</ele><time>2026-04-19T08:09:04.384Z</time></trkpt><trkpt lat="41.1166943" lon="16.4937821"><ele>231.0</ele><time>2026-04-19T08:09:05.384Z</time></trkpt><trkpt lat="41.1166743" lon="16.4936922"><ele>231.0</ele><time>2026-04-19T08:09:06.384Z</time></trkpt><trkpt lat="41.1165855" lon="16.4936406"><ele>231.00000000000003</ele><time>2026-04-19T08:09:08.384Z</time></trkpt><trkpt lat="41.1165142" lon="16.4936415"><ele>231.00000000000003</ele><time>2026-04-19T08:09:09.384Z</time></trkpt><trkpt lat="41.1164367" lon="16.4936416"><ele>231.0</ele><time>2026-04-19T08:09:10.384Z</time></trkpt><trkpt lat="41.1163357" lon="16.4935776"><ele>231.0</ele><time>2026-04-19T08:09:12.384Z</time></trkpt><trkpt lat="41.1162353" lon="16.493476"><ele>231.0</ele><time>2026-04-19T08:09:14.384Z</time></trkpt><trkpt lat="41.1161598" lon="16.4933993"><ele>231.0</ele><time>2026-04-19T08:09:15.384Z</time></trkpt><trkpt lat="41.116045" lon="16.4932945"><ele>231.0</ele><time>2026-04-19T08:09:16.384Z</time></trkpt><trkpt lat="41.1159222" lon="16.4931673"><ele>231.0</ele><time>2026-04-19T08:09:17.384Z</time></trkpt><trkpt lat="41.1157923" lon="16.4930302"><ele>232.33333333333331</ele><time>2026-04-19T08:09:18.384Z</time></trkpt><trkpt lat="41.1156459" lon="16.4928846"><ele>233.66666666666666</ele><time>2026-04-19T08:09:19.386Z</time></trkpt><trkpt lat="41.1155013" lon="16.4927493"><ele>235.0</ele><time>2026-04-19T08:09:20.386Z</time></trkpt><trkpt lat="41.1153708" lon="16.4926113"><ele>235.0</ele><time>2026-04-19T08:09:21.386Z</time></trkpt><trkpt lat="41.1152124" lon="16.4924641"><ele>235.0</ele><time>2026-04-19T08:09:22.386Z</time></trkpt><trkpt lat="41.1150459" lon="16.4923216"><ele>235.0</ele><time>2026-04-19T08:09:23.386Z</time></trkpt><trkpt lat="41.1149107" lon="16.4921912"><ele>235.25</ele><time>2026-04-19T08:09:24.386Z</time></trkpt><trkpt lat="41.1147907" lon="16.4920809"><ele>235.5</ele><time>2026-04-19T08:09:25.386Z</time></trkpt><trkpt lat="41.1146708" lon="16.4919643"><ele>235.75</ele><time>2026-04-19T08:09:26.386Z</time></trkpt><trkpt lat="41.1145639" lon="16.4918578"><ele>236.0</ele><time>2026-04-19T08:09:27.386Z</time></trkpt><trkpt lat="41.1144718" lon="16.4917535"><ele>236.0</ele><time>2026-04-19T08:09:28.386Z</time></trkpt><trkpt lat="41.1143784" lon="16.4916584"><ele>236.00000000000003</ele><time>2026-04-19T08:09:29.386Z</time></trkpt><trkpt lat="41.1143" lon="16.4915564"><ele>236.00000000000003</ele><time>2026-04-19T08:09:30.386Z</time></trkpt><trkpt lat="41.1142284" lon="16.4914801"><ele>236.0</ele><time>2026-04-19T08:09:31.386Z</time></trkpt><trkpt lat="41.1141758" lon="16.4914258"><ele>236.0</ele><time>2026-04-19T08:09:32.385Z</time></trkpt><trkpt lat="41.1140857" lon="16.4913294"><ele>236.25</ele><time>2026-04-19T08:09:34.386Z</time></trkpt><trkpt lat="41.1140169" lon="16.4912687"><ele>236.5</ele><time>2026-04-19T08:09:35.386Z</time></trkpt><trkpt lat="41.1139201" lon="16.4911799"><ele>236.75</ele><time>2026-04-19T08:09:36.386Z</time></trkpt><trkpt lat="41.1138002" lon="16.4910487"><ele>237.0</ele><time>2026-04-19T08:09:37.386Z</time></trkpt><trkpt lat="41.1136761" lon="16.4909263"><ele>237.0</ele><time>2026-04-19T08:09:38.386Z</time></trkpt><trkpt lat="41.1135598" lon="16.490822"><ele>237.0</ele><time>2026-04-19T08:09:39.386Z</time></trkpt><trkpt lat="41.1134535" lon="16.4907307"><ele>237.0</ele><time>2026-04-19T08:09:40.386Z</time></trkpt><trkpt lat="41.1133691" lon="16.4906571"><ele>237.0</ele><time>2026-04-19T08:09:41.386Z</time></trkpt><trkpt lat="41.1132925" lon="16.4905725"><ele>236.83333333333334</ele><time>2026-04-19T08:09:42.386Z</time></trkpt><trkpt lat="41.1132126" lon="16.4905029"><ele>236.66666666666669</ele><time>2026-04-19T08:09:43.386Z</time></trkpt><trkpt lat="41.1131552" lon="16.4904369"><ele>236.5</ele><time>2026-04-19T08:09:44.386Z</time></trkpt><trkpt lat="41.1131003" lon="16.4903605"><ele>236.33333333333334</ele><time>2026-04-19T08:09:45.386Z</time></trkpt><trkpt lat="41.1130208" lon="16.4902728"><ele>236.16666666666669</ele><time>2026-04-19T08:09:47.386Z</time></trkpt><trkpt lat="41.11296" lon="16.4902201"><ele>236.0</ele><time>2026-04-19T08:09:49.386Z</time></trkpt><trkpt lat="41.1129051" lon="16.4901755"><ele>236.5</ele><time>2026-04-19T08:09:53.386Z</time></trkpt><trkpt lat="41.1128415" lon="16.4901164"><ele>237.0</ele><time>2026-04-19T08:10:14.386Z</time></trkpt><trkpt lat="41.1127654" lon="16.4900546"><ele>237.5</ele><time>2026-04-19T08:10:15.386Z</time></trkpt><trkpt lat="41.1126324" lon="16.4899447"><ele>238.0</ele><time>2026-04-19T08:10:16.386Z</time></trkpt><trkpt lat="41.1125146" lon="16.4898178"><ele>238.66666666666666</ele><time>2026-04-19T08:10:17.386Z</time></trkpt><trkpt lat="41.1123822" lon="16.4896774"><ele>239.33333333333331</ele><time>2026-04-19T08:10:18.386Z</time></trkpt><trkpt lat="41.1122133" lon="16.4895179"><ele>240.0</ele><time>2026-04-19T08:10:19.386Z</time></trkpt><trkpt lat="41.1120554" lon="16.4893617"><ele>240.33333333333331</ele><time>2026-04-19T08:10:20.386Z</time></trkpt><trkpt lat="41.1119154" lon="16.4892299"><ele>240.66666666666666</ele><time>2026-04-19T08:10:21.386Z</time></trkpt><trkpt lat="41.1117909" lon="16.4891004"><ele>241.0</ele><time>2026-04-19T08:10:22.386Z</time></trkpt><trkpt lat="41.1116785" lon="16.4889858"><ele>241.0</ele><time>2026-04-19T08:10:23.386Z</time></trkpt><trkpt lat="41.1115716" lon="16.4888539"><ele>241.0</ele><time>2026-04-19T08:10:24.386Z</time></trkpt><trkpt lat="41.1114658" lon="16.4886949"><ele>241.0</ele><time>2026-04-19T08:10:25.386Z</time></trkpt><trkpt lat="41.1113884" lon="16.4885044"><ele>241.0</ele><time>2026-04-19T08:10:26.386Z</time></trkpt><trkpt lat="41.1113302" lon="16.4883211"><ele>241.0</ele><time>2026-04-19T08:10:27.386Z</time></trkpt><trkpt lat="41.1112916" lon="16.4881516"><ele>241.0</ele><time>2026-04-19T08:10:28.386Z</time></trkpt><trkpt lat="41.1112878" lon="16.4879791"><ele>241.0</ele><time>2026-04-19T08:10:29.386Z</time></trkpt><trkpt lat="41.1112946" lon="16.4877733"><ele>241.0</ele><time>2026-04-19T08:10:30.386Z</time></trkpt><trkpt lat="41.1113133" lon="16.4875701"><ele>241.0</ele><time>2026-04-19T08:10:31.386Z</time></trkpt><trkpt lat="41.1113428" lon="16.4873955"><ele>241.0</ele><time>2026-04-19T08:10:32.386Z</time></trkpt><trkpt lat="41.1113829" lon="16.4872274"><ele>241.0</ele><time>2026-04-19T08:10:33.386Z</time></trkpt><trkpt lat="41.1114184" lon="16.4870681"><ele>241.0</ele><time>2026-04-19T08:10:34.386Z</time></trkpt><trkpt lat="41.1114467" lon="16.4869257"><ele>241.00000000000003</ele><time>2026-04-19T08:10:35.386Z</time></trkpt><trkpt lat="41.1114781" lon="16.4868007"><ele>241.00000000000003</ele><time>2026-04-19T08:10:36.386Z</time></trkpt><trkpt lat="41.1115086" lon="16.486656"><ele>241.0</ele><time>2026-04-19T08:10:37.386Z</time></trkpt><trkpt lat="41.1115359" lon="16.4865189"><ele>241.0</ele><time>2026-04-19T08:10:38.386Z</time></trkpt><trkpt lat="41.1115554" lon="16.4863938"><ele>242.0</ele><time>2026-04-19T08:10:39.386Z</time></trkpt><trkpt lat="41.1115849" lon="16.4862792"><ele>243.0</ele><time>2026-04-19T08:10:40.386Z</time></trkpt><trkpt lat="41.1116105" lon="16.4861493"><ele>244.0</ele><time>2026-04-19T08:10:41.386Z</time></trkpt><trkpt lat="41.111649" lon="16.4859808"><ele>245.0</ele><time>2026-04-19T08:10:42.386Z</time></trkpt><trkpt lat="41.1116958" lon="16.4857901"><ele>245.0</ele><time>2026-04-19T08:10:43.386Z</time></trkpt><trkpt lat="41.1117277" lon="16.4856275"><ele>245.0</ele><time>2026-04-19T08:10:44.386Z</time></trkpt><trkpt lat="41.1117592" lon="16.4854908"><ele>245.0</ele><time>2026-04-19T08:10:45.386Z</time></trkpt><trkpt lat="41.1117939" lon="16.4853643"><ele>245.0</ele><time>2026-04-19T08:10:46.386Z</time></trkpt><trkpt lat="41.1118287" lon="16.4852213"><ele>245.0</ele><time>2026-04-19T08:10:47.386Z</time></trkpt><trkpt lat="41.1118589" lon="16.4850612"><ele>244.25</ele><time>2026-04-19T08:10:48.386Z</time></trkpt><trkpt lat="41.1118897" lon="16.4848969"><ele>243.5</ele><time>2026-04-19T08:10:49.386Z</time></trkpt><trkpt lat="41.1119189" lon="16.4847553"><ele>242.75</ele><time>2026-04-19T08:10:50.386Z</time></trkpt><trkpt lat="41.1119545" lon="16.4846245"><ele>242.0</ele><time>2026-04-19T08:10:51.386Z</time></trkpt><trkpt lat="41.1119976" lon="16.4844831"><ele>241.8</ele><time>2026-04-19T08:10:52.386Z</time></trkpt><trkpt lat="41.1120496" lon="16.4843539"><ele>241.6</ele><time>2026-04-19T08:10:53.386Z</time></trkpt><trkpt lat="41.112098" lon="16.4842392"><ele>241.40000000000003</ele><time>2026-04-19T08:10:54.386Z</time></trkpt><trkpt lat="41.1121477" lon="16.4841413"><ele>241.20000000000002</ele><time>2026-04-19T08:10:55.386Z</time></trkpt><trkpt lat="41.1121956" lon="16.4840495"><ele>241.0</ele><time>2026-04-19T08:10:56.386Z</time></trkpt><trkpt lat="41.1122409" lon="16.483955"><ele>240.99999999999997</ele><time>2026-04-19T08:10:57.386Z</time></trkpt><trkpt lat="41.1122964" lon="16.4838703"><ele>241.0</ele><time>2026-04-19T08:10:58.386Z</time></trkpt><trkpt lat="41.1123502" lon="16.4837887"><ele>241.0</ele><time>2026-04-19T08:10:59.386Z</time></trkpt><trkpt lat="41.1124061" lon="16.4837147"><ele>241.0</ele><time>2026-04-19T08:11:00.386Z</time></trkpt><trkpt lat="41.1124498" lon="16.4836499"><ele>240.99999999999997</ele><time>2026-04-19T08:11:01.386Z</time></trkpt><trkpt lat="41.1125171" lon="16.4835303"><ele>241.0</ele><time>2026-04-19T08:11:03.386Z</time></trkpt><trkpt lat="41.1125801" lon="16.4834341"><ele>241.60000000000002</ele><time>2026-04-19T08:11:05.386Z</time></trkpt><trkpt lat="41.1126761" lon="16.4833096"><ele>242.20000000000002</ele><time>2026-04-19T08:11:07.386Z</time></trkpt><trkpt lat="41.1127219" lon="16.4832355"><ele>242.79999999999998</ele><time>2026-04-19T08:11:08.386Z</time></trkpt><trkpt lat="41.1127687" lon="16.4831643"><ele>243.39999999999998</ele><time>2026-04-19T08:11:09.386Z</time></trkpt><trkpt lat="41.1128158" lon="16.4830817"><ele>244.0</ele><time>2026-04-19T08:11:10.386Z</time></trkpt><trkpt lat="41.1128766" lon="16.4829817"><ele>243.6</ele><time>2026-04-19T08:11:11.386Z</time></trkpt><trkpt lat="41.1129468" lon="16.4828767"><ele>243.2</ele><time>2026-04-19T08:11:12.386Z</time></trkpt><trkpt lat="41.1130256" lon="16.4827737"><ele>242.79999999999998</ele><time>2026-04-19T08:11:13.386Z</time></trkpt><trkpt lat="41.1131041" lon="16.4826829"><ele>242.39999999999998</ele><time>2026-04-19T08:11:14.386Z</time></trkpt><trkpt lat="41.1131736" lon="16.4825795"><ele>242.0</ele><time>2026-04-19T08:11:15.386Z</time></trkpt><trkpt lat="41.1132404" lon="16.4824859"><ele>242.33333333333334</ele><time>2026-04-19T08:11:16.386Z</time></trkpt><trkpt lat="41.1132994" lon="16.4824011"><ele>242.66666666666669</ele><time>2026-04-19T08:11:17.386Z</time></trkpt><trkpt lat="41.1133602" lon="16.4823224"><ele>243.0</ele><time>2026-04-19T08:11:18.386Z</time></trkpt><trkpt lat="41.1134187" lon="16.4822386"><ele>243.33333333333331</ele><time>2026-04-19T08:11:19.386Z</time></trkpt><trkpt lat="41.1134701" lon="16.4821581"><ele>243.66666666666666</ele><time>2026-04-19T08:11:20.386Z</time></trkpt><trkpt lat="41.1135175" lon="16.4820883"><ele>244.0</ele><time>2026-04-19T08:11:21.386Z</time></trkpt><trkpt lat="41.1135644" lon="16.4820257"><ele>244.0</ele><time>2026-04-19T08:11:22.386Z</time></trkpt><trkpt lat="41.1136125" lon="16.481948"><ele>243.99999999999997</ele><time>2026-04-19T08:11:23.386Z</time></trkpt><trkpt lat="41.1136746" lon="16.4818447"><ele>243.99999999999997</ele><time>2026-04-19T08:11:24.386Z</time></trkpt><trkpt lat="41.113764" lon="16.48173"><ele>244.0</ele><time>2026-04-19T08:11:25.386Z</time></trkpt><trkpt lat="41.1138546" lon="16.4816002"><ele>244.0</ele><time>2026-04-19T08:11:26.386Z</time></trkpt><trkpt lat="41.113948" lon="16.4814741"><ele>244.0</ele><time>2026-04-19T08:11:27.386Z</time></trkpt><trkpt lat="41.1140411" lon="16.4813479"><ele>243.99999999999997</ele><time>2026-04-19T08:11:28.386Z</time></trkpt><trkpt lat="41.114116" lon="16.4812359"><ele>243.99999999999997</ele><time>2026-04-19T08:11:29.385Z</time></trkpt><trkpt lat="41.1141758" lon="16.4811366"><ele>244.0</ele><time>2026-04-19T08:11:30.385Z</time></trkpt><trkpt lat="41.1142334" lon="16.4810671"><ele>244.0</ele><time>2026-04-19T08:11:31.385Z</time></trkpt><trkpt lat="41.1142856" lon="16.4809442"><ele>243.83333333333331</ele><time>2026-04-19T08:11:33.385Z</time></trkpt><trkpt lat="41.1142628" lon="16.4808356"><ele>243.66666666666666</ele><time>2026-04-19T08:11:35.385Z</time></trkpt><trkpt lat="41.1141811" lon="16.4807171"><ele>243.5</ele><time>2026-04-19T08:11:37.385Z</time></trkpt><trkpt lat="41.1141155" lon="16.4806509"><ele>243.33333333333331</ele><time>2026-04-19T08:11:39.385Z</time></trkpt><trkpt lat="41.1140506" lon="16.4806018"><ele>243.16666666666666</ele><time>2026-04-19T08:11:41.385Z</time></trkpt><trkpt lat="41.1139836" lon="16.4805346"><ele>243.0</ele><time>2026-04-19T08:11:45.385Z</time></trkpt><trkpt lat="41.1138966" lon="16.4804266"><ele>241.5</ele><time>2026-04-19T08:11:48.385Z</time></trkpt><trkpt lat="41.1138322" lon="16.480357"><ele>240.0</ele><time>2026-04-19T08:11:49.385Z</time></trkpt><trkpt lat="41.1137792" lon="16.4802896"><ele>238.5</ele><time>2026-04-19T08:11:50.385Z</time></trkpt><trkpt lat="41.1137191" lon="16.4802183"><ele>237.0</ele><time>2026-04-19T08:11:51.385Z</time></trkpt><trkpt lat="41.1136565" lon="16.4801379"><ele>235.5</ele><time>2026-04-19T08:11:52.385Z</time></trkpt><trkpt lat="41.113581" lon="16.4800205"><ele>234.0</ele><time>2026-04-19T08:11:53.385Z</time></trkpt><trkpt lat="41.1135122" lon="16.4798452"><ele>234.0</ele><time>2026-04-19T08:11:54.385Z</time></trkpt><trkpt lat="41.1134486" lon="16.479647"><ele>234.0</ele><time>2026-04-19T08:11:55.385Z</time></trkpt><trkpt lat="41.1133743" lon="16.4794233"><ele>234.0</ele><time>2026-04-19T08:11:56.385Z</time></trkpt><trkpt lat="41.1132892" lon="16.4791919"><ele>233.33333333333331</ele><time>2026-04-19T08:11:57.385Z</time></trkpt><trkpt lat="41.1131779" lon="16.4789698"><ele>232.66666666666666</ele><time>2026-04-19T08:11:58.385Z</time></trkpt><trkpt lat="41.1130553" lon="16.4787393"><ele>232.0</ele><time>2026-04-19T08:11:59.385Z</time></trkpt><trkpt lat="41.1129185" lon="16.4784862"><ele>232.0</ele><time>2026-04-19T08:12:00.385Z</time></trkpt><trkpt lat="41.1127723" lon="16.4781974"><ele>232.0</ele><time>2026-04-19T08:12:01.385Z</time></trkpt><trkpt lat="41.1126205" lon="16.4779104"><ele>232.0</ele><time>2026-04-19T08:12:02.385Z</time></trkpt><trkpt lat="41.1124792" lon="16.4776358"><ele>232.0</ele><time>2026-04-19T08:12:03.385Z</time></trkpt><trkpt lat="41.1123494" lon="16.4773811"><ele>232.0</ele><time>2026-04-19T08:12:04.385Z</time></trkpt><trkpt lat="41.1122359" lon="16.4771661"><ele>232.0</ele><time>2026-04-19T08:12:05.385Z</time></trkpt><trkpt lat="41.1121422" lon="16.4769736"><ele>232.0</ele><time>2026-04-19T08:12:06.385Z</time></trkpt><trkpt lat="41.1120506" lon="16.4768053"><ele>232.0</ele><time>2026-04-19T08:12:07.385Z</time></trkpt><trkpt lat="41.1119727" lon="16.4766469"><ele>232.0</ele><time>2026-04-19T08:12:08.385Z</time></trkpt><trkpt lat="41.111902" lon="16.4764776"><ele>232.0</ele><time>2026-04-19T08:12:09.385Z</time></trkpt><trkpt lat="41.1118484" lon="16.4763165"><ele>232.0</ele><time>2026-04-19T08:12:10.385Z</time></trkpt><trkpt lat="41.1118142" lon="16.476128"><ele>232.0</ele><time>2026-04-19T08:12:11.385Z</time></trkpt><trkpt lat="41.1118022" lon="16.4759062"><ele>232.0</ele><time>2026-04-19T08:12:12.385Z</time></trkpt><trkpt lat="41.1117905" lon="16.4756344"><ele>232.0</ele><time>2026-04-19T08:12:13.385Z</time></trkpt><trkpt lat="41.1117862" lon="16.4753176"><ele>232.0</ele><time>2026-04-19T08:12:14.385Z</time></trkpt><trkpt lat="41.1117824" lon="16.4749703"><ele>232.0</ele><time>2026-04-19T08:12:15.385Z</time></trkpt><trkpt lat="41.1117793" lon="16.4746263"><ele>233.0</ele><time>2026-04-19T08:12:16.385Z</time></trkpt><trkpt lat="41.1117686" lon="16.4742843"><ele>234.0</ele><time>2026-04-19T08:12:17.385Z</time></trkpt><trkpt lat="41.1117546" lon="16.4739212"><ele>233.0</ele><time>2026-04-19T08:12:18.385Z</time></trkpt><trkpt lat="41.1117469" lon="16.4735917"><ele>232.0</ele><time>2026-04-19T08:12:19.385Z</time></trkpt><trkpt lat="41.1117471" lon="16.473312"><ele>232.0</ele><time>2026-04-19T08:12:20.385Z</time></trkpt><trkpt lat="41.1117413" lon="16.473041"><ele>232.0</ele><time>2026-04-19T08:12:21.385Z</time></trkpt><trkpt lat="41.1117658" lon="16.4727614"><ele>232.0</ele><time>2026-04-19T08:12:22.385Z</time></trkpt><trkpt lat="41.1118208" lon="16.4724431"><ele>233.0</ele><time>2026-04-19T08:12:23.385Z</time></trkpt><trkpt lat="41.1118909" lon="16.4720924"><ele>234.0</ele><time>2026-04-19T08:12:24.385Z</time></trkpt><trkpt lat="41.1119654" lon="16.4717329"><ele>234.0</ele><time>2026-04-19T08:12:25.385Z</time></trkpt><trkpt lat="41.1120332" lon="16.471362"><ele>234.0</ele><time>2026-04-19T08:12:26.385Z</time></trkpt><trkpt lat="41.112093" lon="16.4710256"><ele>233.5</ele><time>2026-04-19T08:12:27.385Z</time></trkpt><trkpt lat="41.1121569" lon="16.4707207"><ele>233.0</ele><time>2026-04-19T08:12:28.385Z</time></trkpt><trkpt lat="41.1122221" lon="16.4704117"><ele>234.5</ele><time>2026-04-19T08:12:29.385Z</time></trkpt><trkpt lat="41.1122782" lon="16.4700604"><ele>236.0</ele><time>2026-04-19T08:12:30.385Z</time></trkpt><trkpt lat="41.1123205" lon="16.4697148"><ele>237.0</ele><time>2026-04-19T08:12:31.385Z</time></trkpt><trkpt lat="41.1123439" lon="16.4693964"><ele>238.0</ele><time>2026-04-19T08:12:32.385Z</time></trkpt><trkpt lat="41.1123595" lon="16.469083"><ele>238.0</ele><time>2026-04-19T08:12:33.385Z</time></trkpt><trkpt lat="41.1123742" lon="16.4687919"><ele>238.0</ele><time>2026-04-19T08:12:34.385Z</time></trkpt><trkpt lat="41.112381" lon="16.4685212"><ele>238.0</ele><time>2026-04-19T08:12:35.385Z</time></trkpt><trkpt lat="41.1123962" lon="16.4682835"><ele>238.66666666666666</ele><time>2026-04-19T08:12:36.385Z</time></trkpt><trkpt lat="41.1123987" lon="16.468062"><ele>239.33333333333331</ele><time>2026-04-19T08:12:37.385Z</time></trkpt><trkpt lat="41.1123999" lon="16.4678642"><ele>240.0</ele><time>2026-04-19T08:12:38.385Z</time></trkpt><trkpt lat="41.1123791" lon="16.4676869"><ele>240.0</ele><time>2026-04-19T08:12:39.385Z</time></trkpt><trkpt lat="41.1123418" lon="16.467494"><ele>240.0</ele><time>2026-04-19T08:12:40.385Z</time></trkpt><trkpt lat="41.1122908" lon="16.4672744"><ele>240.0</ele><time>2026-04-19T08:12:41.385Z</time></trkpt><trkpt lat="41.1122122" lon="16.4670188"><ele>240.66666666666669</ele><time>2026-04-19T08:12:42.385Z</time></trkpt><trkpt lat="41.1120977" lon="16.4667929"><ele>241.33333333333334</ele><time>2026-04-19T08:12:43.385Z</time></trkpt><trkpt lat="41.1119502" lon="16.4665669"><ele>242.0</ele><time>2026-04-19T08:12:44.385Z</time></trkpt><trkpt lat="41.1117644" lon="16.4663297"><ele>243.0</ele><time>2026-04-19T08:12:45.385Z</time></trkpt><trkpt lat="41.1115627" lon="16.4660904"><ele>244.0</ele><time>2026-04-19T08:12:46.385Z</time></trkpt><trkpt lat="41.1113716" lon="16.4658719"><ele>244.0</ele><time>2026-04-19T08:12:47.385Z</time></trkpt><trkpt lat="41.1111924" lon="16.4656771"><ele>244.0</ele><time>2026-04-19T08:12:48.385Z</time></trkpt><trkpt lat="41.1110302" lon="16.4654916"><ele>244.0</ele><time>2026-04-19T08:12:49.385Z</time></trkpt><trkpt lat="41.110867" lon="16.4653263"><ele>244.33333333333331</ele><time>2026-04-19T08:12:50.385Z</time></trkpt><trkpt lat="41.1106855" lon="16.4651994"><ele>244.66666666666669</ele><time>2026-04-19T08:12:51.385Z</time></trkpt><trkpt lat="41.1104784" lon="16.4650853"><ele>245.0</ele><time>2026-04-19T08:12:52.385Z</time></trkpt><trkpt lat="41.110239" lon="16.4649674"><ele>245.0</ele><time>2026-04-19T08:12:53.384Z</time></trkpt><trkpt lat="41.1100027" lon="16.4648535"><ele>245.0</ele><time>2026-04-19T08:12:54.385Z</time></trkpt><trkpt lat="41.1097888" lon="16.4647597"><ele>245.0</ele><time>2026-04-19T08:12:55.385Z</time></trkpt><trkpt lat="41.1095945" lon="16.4646704"><ele>245.0</ele><time>2026-04-19T08:12:56.385Z</time></trkpt><trkpt lat="41.1094176" lon="16.4645804"><ele>245.0</ele><time>2026-04-19T08:12:57.385Z</time></trkpt><trkpt lat="41.1092512" lon="16.4644964"><ele>245.66666666666669</ele><time>2026-04-19T08:12:58.385Z</time></trkpt><trkpt lat="41.1090903" lon="16.4644162"><ele>246.33333333333331</ele><time>2026-04-19T08:12:59.385Z</time></trkpt><trkpt lat="41.1089525" lon="16.4643307"><ele>247.0</ele><time>2026-04-19T08:13:00.385Z</time></trkpt><trkpt lat="41.1088335" lon="16.4642488"><ele>247.0</ele><time>2026-04-19T08:13:01.385Z</time></trkpt><trkpt lat="41.1087282" lon="16.464144"><ele>247.0</ele><time>2026-04-19T08:13:02.385Z</time></trkpt><trkpt lat="41.1086276" lon="16.4639791"><ele>247.0</ele><time>2026-04-19T08:13:03.385Z</time></trkpt><trkpt lat="41.1085124" lon="16.4637672"><ele>247.33333333333331</ele><time>2026-04-19T08:13:04.385Z</time></trkpt><trkpt lat="41.108416" lon="16.4635187"><ele>247.66666666666669</ele><time>2026-04-19T08:13:05.385Z</time></trkpt><trkpt lat="41.1083308" lon="16.4632647"><ele>248.0</ele><time>2026-04-19T08:13:06.385Z</time></trkpt><trkpt lat="41.1082547" lon="16.4629818"><ele>249.5</ele><time>2026-04-19T08:13:07.385Z</time></trkpt><trkpt lat="41.1081675" lon="16.4626809"><ele>251.0</ele><time>2026-04-19T08:13:08.385Z</time></trkpt><trkpt lat="41.1080439" lon="16.4623577"><ele>251.0</ele><time>2026-04-19T08:13:09.385Z</time></trkpt><trkpt lat="41.1079143" lon="16.4620127"><ele>251.0</ele><time>2026-04-19T08:13:10.385Z</time></trkpt><trkpt lat="41.1077771" lon="16.4616739"><ele>251.0</ele><time>2026-04-19T08:13:11.385Z</time></trkpt><trkpt lat="41.107642" lon="16.4613565"><ele>251.0</ele><time>2026-04-19T08:13:12.385Z</time></trkpt><trkpt lat="41.107517" lon="16.4610709"><ele>252.0</ele><time>2026-04-19T08:13:13.385Z</time></trkpt><trkpt lat="41.1074052" lon="16.4608052"><ele>253.0</ele><time>2026-04-19T08:13:14.385Z</time></trkpt><trkpt lat="41.1072825" lon="16.460512"><ele>254.5</ele><time>2026-04-19T08:13:15.385Z</time></trkpt><trkpt lat="41.107157" lon="16.4601921"><ele>256.0</ele><time>2026-04-19T08:13:16.385Z</time></trkpt><trkpt lat="41.1070356" lon="16.4598982"><ele>256.0</ele><time>2026-04-19T08:13:17.385Z</time></trkpt><trkpt lat="41.1069167" lon="16.4596101"><ele>256.0</ele><time>2026-04-19T08:13:18.385Z</time></trkpt><trkpt lat="41.1067966" lon="16.4593019"><ele>256.0</ele><time>2026-04-19T08:13:19.385Z</time></trkpt><trkpt lat="41.1066784" lon="16.4589978"><ele>256.0</ele><time>2026-04-19T08:13:20.385Z</time></trkpt><trkpt lat="41.1065708" lon="16.4586881"><ele>257.0</ele><time>2026-04-19T08:13:21.385Z</time></trkpt><trkpt lat="41.1064762" lon="16.4583806"><ele>258.0</ele><time>2026-04-19T08:13:22.385Z</time></trkpt><trkpt lat="41.1063883" lon="16.4580941"><ele>259.0</ele><time>2026-04-19T08:13:23.385Z</time></trkpt><trkpt lat="41.1063167" lon="16.457831"><ele>260.0</ele><time>2026-04-19T08:13:24.385Z</time></trkpt><trkpt lat="41.1062499" lon="16.4575788"><ele>261.0</ele><time>2026-04-19T08:13:25.385Z</time></trkpt><trkpt lat="41.1061899" lon="16.4573268"><ele>260.6666666666667</ele><time>2026-04-19T08:13:26.385Z</time></trkpt><trkpt lat="41.106121" lon="16.4570784"><ele>260.33333333333337</ele><time>2026-04-19T08:13:27.385Z</time></trkpt><trkpt lat="41.1060478" lon="16.456826"><ele>260.0</ele><time>2026-04-19T08:13:28.385Z</time></trkpt><trkpt lat="41.1059792" lon="16.4565614"><ele>262.0</ele><time>2026-04-19T08:13:29.385Z</time></trkpt><trkpt lat="41.1059225" lon="16.4562861"><ele>264.0</ele><time>2026-04-19T08:13:30.385Z</time></trkpt><trkpt lat="41.1058648" lon="16.4559783"><ele>264.0</ele><time>2026-04-19T08:13:31.385Z</time></trkpt><trkpt lat="41.1058196" lon="16.4556372"><ele>264.0</ele><time>2026-04-19T08:13:32.385Z</time></trkpt><trkpt lat="41.1057875" lon="16.4552691"><ele>263.5</ele><time>2026-04-19T08:13:33.385Z</time></trkpt><trkpt lat="41.1057794" lon="16.454909"><ele>263.0</ele><time>2026-04-19T08:13:34.385Z</time></trkpt><trkpt lat="41.1057644" lon="16.4545245"><ele>262.5</ele><time>2026-04-19T08:13:35.385Z</time></trkpt><trkpt lat="41.1057574" lon="16.4540944"><ele>262.0</ele><time>2026-04-19T08:13:36.385Z</time></trkpt><trkpt lat="41.105745" lon="16.4536573"><ele>265.5</ele><time>2026-04-19T08:13:37.385Z</time></trkpt><trkpt lat="41.1057323" lon="16.4532229"><ele>269.0</ele><time>2026-04-19T08:13:38.385Z</time></trkpt><trkpt lat="41.1057157" lon="16.452806"><ele>270.5</ele><time>2026-04-19T08:13:39.385Z</time></trkpt><trkpt lat="41.1057144" lon="16.4524218"><ele>272.0</ele><time>2026-04-19T08:13:40.385Z</time></trkpt><trkpt lat="41.1057031" lon="16.452046"><ele>273.5</ele><time>2026-04-19T08:13:41.385Z</time></trkpt><trkpt lat="41.1056965" lon="16.4516453"><ele>275.0</ele><time>2026-04-19T08:13:42.385Z</time></trkpt><trkpt lat="41.1056817" lon="16.4512438"><ele>277.5</ele><time>2026-04-19T08:13:43.385Z</time></trkpt><trkpt lat="41.1056687" lon="16.4508677"><ele>280.0</ele><time>2026-04-19T08:13:44.385Z</time></trkpt><trkpt lat="41.1056539" lon="16.4505032"><ele>280.5</ele><time>2026-04-19T08:13:45.385Z</time></trkpt><trkpt lat="41.1056479" lon="16.4501228"><ele>281.0</ele><time>2026-04-19T08:13:46.385Z</time></trkpt><trkpt lat="41.1056336" lon="16.4497136"><ele>281.5</ele><time>2026-04-19T08:13:47.385Z</time></trkpt><trkpt lat="41.1056229" lon="16.4492826"><ele>282.0</ele><time>2026-04-19T08:13:48.385Z</time></trkpt><trkpt lat="41.1056126" lon="16.44885"><ele>282.5</ele><time>2026-04-19T08:13:49.385Z</time></trkpt><trkpt lat="41.1056115" lon="16.4484252"><ele>283.0</ele><time>2026-04-19T08:13:50.385Z</time></trkpt><trkpt lat="41.105605" lon="16.448001"><ele>284.0</ele><time>2026-04-19T08:13:51.385Z</time></trkpt><trkpt lat="41.1055905" lon="16.4475837"><ele>285.0</ele><time>2026-04-19T08:13:52.385Z</time></trkpt><trkpt lat="41.1055801" lon="16.4471865"><ele>285.0</ele><time>2026-04-19T08:13:53.385Z</time></trkpt><trkpt lat="41.1055713" lon="16.4468171"><ele>285.0</ele><time>2026-04-19T08:13:54.385Z</time></trkpt><trkpt lat="41.1055647" lon="16.4464744"><ele>285.0</ele><time>2026-04-19T08:13:55.385Z</time></trkpt><trkpt lat="41.1055538" lon="16.4461578"><ele>285.0</ele><time>2026-04-19T08:13:56.385Z</time></trkpt><trkpt lat="41.1055441" lon="16.4458172"><ele>285.0</ele><time>2026-04-19T08:13:57.385Z</time></trkpt><trkpt lat="41.1055314" lon="16.4454192"><ele>285.0</ele><time>2026-04-19T08:13:58.385Z</time></trkpt><trkpt lat="41.1055209" lon="16.4449873"><ele>283.5</ele><time>2026-04-19T08:13:59.385Z</time></trkpt><trkpt lat="41.1055136" lon="16.4445429"><ele>282.0</ele><time>2026-04-19T08:14:00.385Z</time></trkpt><trkpt lat="41.1055079" lon="16.4440771"><ele>281.0</ele><time>2026-04-19T08:14:01.385Z</time></trkpt><trkpt lat="41.1055069" lon="16.4435855"><ele>280.0</ele><time>2026-04-19T08:14:02.385Z</time></trkpt><trkpt lat="41.1055015" lon="16.4430863"><ele>280.0</ele><time>2026-04-19T08:14:03.385Z</time></trkpt><trkpt lat="41.1054986" lon="16.4425986"><ele>280.0</ele><time>2026-04-19T08:14:04.385Z</time></trkpt><trkpt lat="41.1054884" lon="16.4420812"><ele>280.0</ele><time>2026-04-19T08:14:05.385Z</time></trkpt><trkpt lat="41.10548" lon="16.4415678"><ele>280.0</ele><time>2026-04-19T08:14:06.385Z</time></trkpt><trkpt lat="41.1054714" lon="16.4410767"><ele>280.0</ele><time>2026-04-19T08:14:07.385Z</time></trkpt><trkpt lat="41.1054592" lon="16.4406082"><ele>280.0</ele><time>2026-04-19T08:14:08.385Z</time></trkpt><trkpt lat="41.1054565" lon="16.4401472"><ele>280.5</ele><time>2026-04-19T08:14:09.385Z</time></trkpt><trkpt lat="41.1054476" lon="16.4396869"><ele>281.0</ele><time>2026-04-19T08:14:10.385Z</time></trkpt><trkpt lat="41.1054411" lon="16.4392166"><ele>283.0</ele><time>2026-04-19T08:14:11.385Z</time></trkpt><trkpt lat="41.1054247" lon="16.4387249"><ele>285.0</ele><time>2026-04-19T08:14:12.385Z</time></trkpt><trkpt lat="41.1054085" lon="16.4382001"><ele>285.5</ele><time>2026-04-19T08:14:13.385Z</time></trkpt><trkpt lat="41.1053882" lon="16.4376548"><ele>286.0</ele><time>2026-04-19T08:14:14.385Z</time></trkpt><trkpt lat="41.1053768" lon="16.4371108"><ele>286.0</ele><time>2026-04-19T08:14:15.385Z</time></trkpt><trkpt lat="41.1053735" lon="16.4365711"><ele>286.0</ele><time>2026-04-19T08:14:16.385Z</time></trkpt><trkpt lat="41.1053662" lon="16.4360282"><ele>287.0</ele><time>2026-04-19T08:14:17.385Z</time></trkpt><trkpt lat="41.1053496" lon="16.4354933"><ele>288.0</ele><time>2026-04-19T08:14:18.385Z</time></trkpt><trkpt lat="41.1053296" lon="16.4349955"><ele>288.5</ele><time>2026-04-19T08:14:19.385Z</time></trkpt><trkpt lat="41.1053202" lon="16.4345088"><ele>289.0</ele><time>2026-04-19T08:14:20.385Z</time></trkpt><trkpt lat="41.1053019" lon="16.4340324"><ele>290.0</ele><time>2026-04-19T08:14:21.385Z</time></trkpt><trkpt lat="41.1052894" lon="16.4335849"><ele>291.0</ele><time>2026-04-19T08:14:22.385Z</time></trkpt><trkpt lat="41.1052811" lon="16.4331671"><ele>292.0</ele><time>2026-04-19T08:14:23.385Z</time></trkpt><trkpt lat="41.1052699" lon="16.4327873"><ele>293.0</ele><time>2026-04-19T08:14:24.385Z</time></trkpt><trkpt lat="41.1052646" lon="16.4324222"><ele>294.0</ele><time>2026-04-19T08:14:25.385Z</time></trkpt><trkpt lat="41.10526" lon="16.4320335"><ele>295.0</ele><time>2026-04-19T08:14:26.385Z</time></trkpt><trkpt lat="41.1052651" lon="16.4316272"><ele>296.5</ele><time>2026-04-19T08:14:27.385Z</time></trkpt><trkpt lat="41.105302" lon="16.4312117"><ele>298.0</ele><time>2026-04-19T08:14:28.385Z</time></trkpt><trkpt lat="41.1053634" lon="16.4307958"><ele>300.0</ele><time>2026-04-19T08:14:29.385Z</time></trkpt><trkpt lat="41.1054326" lon="16.4303832"><ele>302.0</ele><time>2026-04-19T08:14:30.385Z</time></trkpt><trkpt lat="41.1054992" lon="16.4300228"><ele>302.0</ele><time>2026-04-19T08:14:31.385Z</time></trkpt><trkpt lat="41.1055552" lon="16.4297062"><ele>302.0</ele><time>2026-04-19T08:14:32.385Z</time></trkpt><trkpt lat="41.1056093" lon="16.4294269"><ele>304.0</ele><time>2026-04-19T08:14:33.385Z</time></trkpt><trkpt lat="41.1056545" lon="16.4291442"><ele>306.0</ele><time>2026-04-19T08:14:34.385Z</time></trkpt><trkpt lat="41.1056985" lon="16.4288375"><ele>305.5</ele><time>2026-04-19T08:14:35.385Z</time></trkpt><trkpt lat="41.1057548" lon="16.4285353"><ele>305.0</ele><time>2026-04-19T08:14:36.385Z</time></trkpt><trkpt lat="41.1057942" lon="16.4282298"><ele>305.0</ele><time>2026-04-19T08:14:37.385Z</time></trkpt><trkpt lat="41.1057906" lon="16.4279284"><ele>305.0</ele><time>2026-04-19T08:14:38.385Z</time></trkpt><trkpt lat="41.1057547" lon="16.4276303"><ele>306.33333333333337</ele><time>2026-04-19T08:14:39.385Z</time></trkpt><trkpt lat="41.1057003" lon="16.4273485"><ele>307.6666666666667</ele><time>2026-04-19T08:14:40.385Z</time></trkpt><trkpt lat="41.1056333" lon="16.4270677"><ele>309.0</ele><time>2026-04-19T08:14:41.384Z</time></trkpt><trkpt lat="41.1055513" lon="16.4267907"><ele>309.0</ele><time>2026-04-19T08:14:42.384Z</time></trkpt><trkpt lat="41.1054791" lon="16.4265218"><ele>309.0</ele><time>2026-04-19T08:14:43.384Z</time></trkpt><trkpt lat="41.1054175" lon="16.4262745"><ele>309.0</ele><time>2026-04-19T08:14:44.384Z</time></trkpt><trkpt lat="41.1053561" lon="16.4260387"><ele>308.0</ele><time>2026-04-19T08:14:45.384Z</time></trkpt><trkpt lat="41.1052904" lon="16.425785"><ele>307.0</ele><time>2026-04-19T08:14:46.384Z</time></trkpt><trkpt lat="41.1052158" lon="16.4255055"><ele>306.0</ele><time>2026-04-19T08:14:47.384Z</time></trkpt><trkpt lat="41.1051348" lon="16.4251941"><ele>304.5</ele><time>2026-04-19T08:14:48.384Z</time></trkpt><trkpt lat="41.1050558" lon="16.4248422"><ele>303.0</ele><time>2026-04-19T08:14:49.384Z</time></trkpt><trkpt lat="41.1049818" lon="16.4244547"><ele>303.0</ele><time>2026-04-19T08:14:50.384Z</time></trkpt><trkpt lat="41.1048824" lon="16.4240361"><ele>303.0</ele><time>2026-04-19T08:14:51.384Z</time></trkpt><trkpt lat="41.1047747" lon="16.4236177"><ele>303.0</ele><time>2026-04-19T08:14:52.384Z</time></trkpt><trkpt lat="41.1046716" lon="16.4232204"><ele>303.0</ele><time>2026-04-19T08:14:53.384Z</time></trkpt><trkpt lat="41.1045765" lon="16.4228323"><ele>302.5</ele><time>2026-04-19T08:14:54.384Z</time></trkpt><trkpt lat="41.1044822" lon="16.42244"><ele>302.0</ele><time>2026-04-19T08:14:55.384Z</time></trkpt><trkpt lat="41.1043869" lon="16.4220434"><ele>302.0</ele><time>2026-04-19T08:14:56.384Z</time></trkpt><trkpt lat="41.1042886" lon="16.4216391"><ele>302.0</ele><time>2026-04-19T08:14:57.384Z</time></trkpt><trkpt lat="41.1041861" lon="16.4212131"><ele>303.0</ele><time>2026-04-19T08:14:58.384Z</time></trkpt><trkpt lat="41.1040795" lon="16.420766"><ele>304.0</ele><time>2026-04-19T08:14:59.384Z</time></trkpt><trkpt lat="41.1039715" lon="16.4203119"><ele>304.0</ele><time>2026-04-19T08:15:00.384Z</time></trkpt><trkpt lat="41.103858" lon="16.419863"><ele>304.0</ele><time>2026-04-19T08:15:01.384Z</time></trkpt><trkpt lat="41.1037372" lon="16.4193992"><ele>303.0</ele><time>2026-04-19T08:15:02.384Z</time></trkpt><trkpt lat="41.1036303" lon="16.4189575"><ele>302.0</ele><time>2026-04-19T08:15:03.384Z</time></trkpt><trkpt lat="41.1035205" lon="16.4185421"><ele>302.5</ele><time>2026-04-19T08:15:04.384Z</time></trkpt><trkpt lat="41.1034165" lon="16.4181161"><ele>303.0</ele><time>2026-04-19T08:15:05.384Z</time></trkpt><trkpt lat="41.1033095" lon="16.4176704"><ele>303.5</ele><time>2026-04-19T08:15:06.384Z</time></trkpt><trkpt lat="41.103193" lon="16.4172096"><ele>304.0</ele><time>2026-04-19T08:15:07.384Z</time></trkpt><trkpt lat="41.1030946" lon="16.4167855"><ele>306.0</ele><time>2026-04-19T08:15:08.384Z</time></trkpt><trkpt lat="41.1029985" lon="16.4163941"><ele>308.0</ele><time>2026-04-19T08:15:09.384Z</time></trkpt><trkpt lat="41.1029077" lon="16.4160084"><ele>309.5</ele><time>2026-04-19T08:15:10.384Z</time></trkpt><trkpt lat="41.1028167" lon="16.4156129"><ele>311.0</ele><time>2026-04-19T08:15:11.384Z</time></trkpt><trkpt lat="41.1027231" lon="16.4152398"><ele>311.5</ele><time>2026-04-19T08:15:12.384Z</time></trkpt><trkpt lat="41.10264" lon="16.4148739"><ele>312.0</ele><time>2026-04-19T08:15:13.384Z</time></trkpt><trkpt lat="41.1025622" lon="16.4144852"><ele>312.0</ele><time>2026-04-19T08:15:14.384Z</time></trkpt><trkpt lat="41.1025086" lon="16.4140709"><ele>312.0</ele><time>2026-04-19T08:15:15.384Z</time></trkpt><trkpt lat="41.102453" lon="16.4136393"><ele>317.5</ele><time>2026-04-19T08:15:16.384Z</time></trkpt><trkpt lat="41.1023962" lon="16.4132342"><ele>323.0</ele><time>2026-04-19T08:15:17.384Z</time></trkpt><trkpt lat="41.1023457" lon="16.412839"><ele>324.5</ele><time>2026-04-19T08:15:18.384Z</time></trkpt><trkpt lat="41.1023014" lon="16.4124492"><ele>326.0</ele><time>2026-04-19T08:15:19.384Z</time></trkpt><trkpt lat="41.1022535" lon="16.4120796"><ele>326.0</ele><time>2026-04-19T08:15:20.384Z</time></trkpt><trkpt lat="41.1022139" lon="16.4117407"><ele>326.0</ele><time>2026-04-19T08:15:21.384Z</time></trkpt><trkpt lat="41.1021742" lon="16.4114215"><ele>326.33333333333337</ele><time>2026-04-19T08:15:22.384Z</time></trkpt><trkpt lat="41.1021366" lon="16.4111236"><ele>326.6666666666667</ele><time>2026-04-19T08:15:23.384Z</time></trkpt><trkpt lat="41.1021039" lon="16.410869"><ele>327.0</ele><time>2026-04-19T08:15:24.384Z</time></trkpt><trkpt lat="41.1020787" lon="16.4106462"><ele>327.75</ele><time>2026-04-19T08:15:25.384Z</time></trkpt><trkpt lat="41.1020627" lon="16.4104463"><ele>328.5</ele><time>2026-04-19T08:15:26.384Z</time></trkpt><trkpt lat="41.102059" lon="16.4102754"><ele>329.25</ele><time>2026-04-19T08:15:27.384Z</time></trkpt><trkpt lat="41.1020689" lon="16.4101205"><ele>330.0</ele><time>2026-04-19T08:15:28.384Z</time></trkpt><trkpt lat="41.1020786" lon="16.409985"><ele>330.0</ele><time>2026-04-19T08:15:29.384Z</time></trkpt><trkpt lat="41.1020579" lon="16.4098488"><ele>330.0</ele><time>2026-04-19T08:15:30.384Z</time></trkpt><trkpt lat="41.1019896" lon="16.4097064"><ele>330.0</ele><time>2026-04-19T08:15:31.384Z</time></trkpt><trkpt lat="41.1018977" lon="16.4095209"><ele>330.0</ele><time>2026-04-19T08:15:32.384Z</time></trkpt><trkpt lat="41.1017951" lon="16.4093145"><ele>330.0</ele><time>2026-04-19T08:15:33.384Z</time></trkpt><trkpt lat="41.1016855" lon="16.4090279"><ele>330.0</ele><time>2026-04-19T08:15:34.384Z</time></trkpt><trkpt lat="41.1015844" lon="16.4087042"><ele>330.0</ele><time>2026-04-19T08:15:35.384Z</time></trkpt><trkpt lat="41.1014752" lon="16.4083623"><ele>330.0</ele><time>2026-04-19T08:15:36.384Z</time></trkpt><trkpt lat="41.1013538" lon="16.4079785"><ele>330.0</ele><time>2026-04-19T08:15:37.384Z</time></trkpt><trkpt lat="41.1012236" lon="16.4075839"><ele>330.0</ele><time>2026-04-19T08:15:38.384Z</time></trkpt><trkpt lat="41.1010908" lon="16.4071801"><ele>330.0</ele><time>2026-04-19T08:15:39.384Z</time></trkpt><trkpt lat="41.1009529" lon="16.4067615"><ele>330.0</ele><time>2026-04-19T08:15:40.384Z</time></trkpt><trkpt lat="41.1008169" lon="16.4063346"><ele>328.5</ele><time>2026-04-19T08:15:41.384Z</time></trkpt><trkpt lat="41.1006839" lon="16.4059148"><ele>327.0</ele><time>2026-04-19T08:15:42.384Z</time></trkpt><trkpt lat="41.1005534" lon="16.405524"><ele>326.5</ele><time>2026-04-19T08:15:43.384Z</time></trkpt><trkpt lat="41.1004416" lon="16.4051595"><ele>326.0</ele><time>2026-04-19T08:15:44.384Z</time></trkpt><trkpt lat="41.1003329" lon="16.4048254"><ele>327.0</ele><time>2026-04-19T08:15:45.384Z</time></trkpt><trkpt lat="41.1002317" lon="16.4044964"><ele>328.0</ele><time>2026-04-19T08:15:46.384Z</time></trkpt><trkpt lat="41.1001362" lon="16.4041867"><ele>328.0</ele><time>2026-04-19T08:15:47.384Z</time></trkpt><trkpt lat="41.1000444" lon="16.4038999"><ele>328.0</ele><time>2026-04-19T08:15:48.384Z</time></trkpt><trkpt lat="41.0999649" lon="16.4036055"><ele>328.5</ele><time>2026-04-19T08:15:49.384Z</time></trkpt><trkpt lat="41.0999034" lon="16.4032877"><ele>329.0</ele><time>2026-04-19T08:15:50.384Z</time></trkpt><trkpt lat="41.0998546" lon="16.4029229"><ele>329.0</ele><time>2026-04-19T08:15:51.384Z</time></trkpt><trkpt lat="41.0998261" lon="16.4025135"><ele>329.0</ele><time>2026-04-19T08:15:52.384Z</time></trkpt><trkpt lat="41.0998023" lon="16.4020623"><ele>330.0</ele><time>2026-04-19T08:15:53.384Z</time></trkpt><trkpt lat="41.0997711" lon="16.4016079"><ele>331.0</ele><time>2026-04-19T08:15:54.384Z</time></trkpt><trkpt lat="41.0997345" lon="16.4011631"><ele>332.0</ele><time>2026-04-19T08:15:55.384Z</time></trkpt><trkpt lat="41.0996984" lon="16.4006996"><ele>333.0</ele><time>2026-04-19T08:15:56.384Z</time></trkpt><trkpt lat="41.0996615" lon="16.4002356"><ele>333.0</ele><time>2026-04-19T08:15:57.384Z</time></trkpt><trkpt lat="41.0996245" lon="16.3997755"><ele>333.0</ele><time>2026-04-19T08:15:58.384Z</time></trkpt><trkpt lat="41.0995865" lon="16.3992967"><ele>333.0</ele><time>2026-04-19T08:15:59.384Z</time></trkpt><trkpt lat="41.0995506" lon="16.3988237"><ele>333.0</ele><time>2026-04-19T08:16:00.384Z</time></trkpt><trkpt lat="41.0995124" lon="16.3983624"><ele>330.5</ele><time>2026-04-19T08:16:01.384Z</time></trkpt><trkpt lat="41.0994712" lon="16.3978919"><ele>328.0</ele><time>2026-04-19T08:16:02.384Z</time></trkpt><trkpt lat="41.0994313" lon="16.3974011"><ele>327.5</ele><time>2026-04-19T08:16:03.384Z</time></trkpt><trkpt lat="41.0993949" lon="16.3969166"><ele>327.0</ele><time>2026-04-19T08:16:04.384Z</time></trkpt><trkpt lat="41.0993613" lon="16.396467"><ele>326.5</ele><time>2026-04-19T08:16:05.384Z</time></trkpt><trkpt lat="41.0993335" lon="16.3960272"><ele>326.0</ele><time>2026-04-19T08:16:06.384Z</time></trkpt><trkpt lat="41.0993086" lon="16.3955868"><ele>326.0</ele><time>2026-04-19T08:16:07.384Z</time></trkpt><trkpt lat="41.0992774" lon="16.3951359"><ele>326.0</ele><time>2026-04-19T08:16:08.384Z</time></trkpt><trkpt lat="41.0992418" lon="16.3946594"><ele>326.0</ele><time>2026-04-19T08:16:09.384Z</time></trkpt><trkpt lat="41.0991999" lon="16.3941502"><ele>326.0</ele><time>2026-04-19T08:16:10.384Z</time></trkpt><trkpt lat="41.0991643" lon="16.3936319"><ele>326.0</ele><time>2026-04-19T08:16:11.384Z</time></trkpt><trkpt lat="41.0991408" lon="16.3931438"><ele>326.0</ele><time>2026-04-19T08:16:12.384Z</time></trkpt><trkpt lat="41.0991112" lon="16.3926744"><ele>326.5</ele><time>2026-04-19T08:16:13.384Z</time></trkpt><trkpt lat="41.0990779" lon="16.3922098"><ele>327.0</ele><time>2026-04-19T08:16:14.384Z</time></trkpt><trkpt lat="41.0990494" lon="16.3917498"><ele>327.0</ele><time>2026-04-19T08:16:15.383Z</time></trkpt><trkpt lat="41.0990135" lon="16.3912894"><ele>327.0</ele><time>2026-04-19T08:16:16.384Z</time></trkpt><trkpt lat="41.0989763" lon="16.3908085"><ele>326.5</ele><time>2026-04-19T08:16:17.384Z</time></trkpt><trkpt lat="41.0989366" lon="16.3903175"><ele>326.0</ele><time>2026-04-19T08:16:18.384Z</time></trkpt><trkpt lat="41.0988914" lon="16.3898496"><ele>327.5</ele><time>2026-04-19T08:16:19.384Z</time></trkpt><trkpt lat="41.0988602" lon="16.3894123"><ele>329.0</ele><time>2026-04-19T08:16:20.384Z</time></trkpt><trkpt lat="41.0988305" lon="16.3889692"><ele>329.5</ele><time>2026-04-19T08:16:21.384Z</time></trkpt><trkpt lat="41.0987956" lon="16.3885341"><ele>330.0</ele><time>2026-04-19T08:16:22.384Z</time></trkpt><trkpt lat="41.0987662" lon="16.3881424"><ele>330.5</ele><time>2026-04-19T08:16:23.384Z</time></trkpt><trkpt lat="41.0987344" lon="16.3877553"><ele>331.0</ele><time>2026-04-19T08:16:24.384Z</time></trkpt><trkpt lat="41.0987077" lon="16.3873428"><ele>331.0</ele><time>2026-04-19T08:16:25.384Z</time></trkpt><trkpt lat="41.098675" lon="16.3868945"><ele>331.0</ele><time>2026-04-19T08:16:26.384Z</time></trkpt><trkpt lat="41.0986472" lon="16.3864023"><ele>331.0</ele><time>2026-04-19T08:16:27.384Z</time></trkpt><trkpt lat="41.0986086" lon="16.3859051"><ele>331.0</ele><time>2026-04-19T08:16:28.384Z</time></trkpt><trkpt lat="41.0985697" lon="16.3854221"><ele>330.5</ele><time>2026-04-19T08:16:29.384Z</time></trkpt><trkpt lat="41.0985297" lon="16.384967"><ele>330.0</ele><time>2026-04-19T08:16:30.384Z</time></trkpt><trkpt lat="41.0985023" lon="16.3845322"><ele>329.5</ele><time>2026-04-19T08:16:31.384Z</time></trkpt><trkpt lat="41.0984714" lon="16.38409"><ele>329.0</ele><time>2026-04-19T08:16:32.384Z</time></trkpt><trkpt lat="41.0984362" lon="16.3836336"><ele>329.0</ele><time>2026-04-19T08:16:33.384Z</time></trkpt><trkpt lat="41.0984043" lon="16.383186"><ele>329.0</ele><time>2026-04-19T08:16:34.384Z</time></trkpt><trkpt lat="41.0983726" lon="16.3827664"><ele>329.0</ele><time>2026-04-19T08:16:35.384Z</time></trkpt><trkpt lat="41.0983476" lon="16.3823825"><ele>329.0</ele><time>2026-04-19T08:16:36.384Z</time></trkpt><trkpt lat="41.0983238" lon="16.3819985"><ele>328.5</ele><time>2026-04-19T08:16:37.384Z</time></trkpt><trkpt lat="41.0982929" lon="16.3816071"><ele>328.0</ele><time>2026-04-19T08:16:38.384Z</time></trkpt><trkpt lat="41.098262" lon="16.3812085"><ele>328.5</ele><time>2026-04-19T08:16:39.384Z</time></trkpt><trkpt lat="41.0982239" lon="16.3807841"><ele>329.0</ele><time>2026-04-19T08:16:40.384Z</time></trkpt><trkpt lat="41.0981925" lon="16.3803836"><ele>330.0</ele><time>2026-04-19T08:16:41.384Z</time></trkpt><trkpt lat="41.0981698" lon="16.380017"><ele>331.0</ele><time>2026-04-19T08:16:42.384Z</time></trkpt><trkpt lat="41.0981547" lon="16.379685"><ele>331.3333333333333</ele><time>2026-04-19T08:16:43.384Z</time></trkpt><trkpt lat="41.0981274" lon="16.3793798"><ele>331.6666666666667</ele><time>2026-04-19T08:16:44.384Z</time></trkpt><trkpt lat="41.0981066" lon="16.3790958"><ele>332.0</ele><time>2026-04-19T08:16:45.384Z</time></trkpt><trkpt lat="41.098083" lon="16.3788268"><ele>332.6666666666667</ele><time>2026-04-19T08:16:46.384Z</time></trkpt><trkpt lat="41.098068" lon="16.3785634"><ele>333.3333333333333</ele><time>2026-04-19T08:16:47.384Z</time></trkpt><trkpt lat="41.0980538" lon="16.3783137"><ele>334.0</ele><time>2026-04-19T08:16:48.384Z</time></trkpt><trkpt lat="41.0980473" lon="16.3781168"><ele>334.25</ele><time>2026-04-19T08:16:49.384Z</time></trkpt><trkpt lat="41.0980477" lon="16.3779492"><ele>334.5</ele><time>2026-04-19T08:16:50.384Z</time></trkpt><trkpt lat="41.0980608" lon="16.3777948"><ele>334.75</ele><time>2026-04-19T08:16:51.384Z</time></trkpt><trkpt lat="41.0980911" lon="16.3776387"><ele>335.0</ele><time>2026-04-19T08:16:52.384Z</time></trkpt><trkpt lat="41.0980987" lon="16.3774867"><ele>335.0</ele><time>2026-04-19T08:16:53.384Z</time></trkpt><trkpt lat="41.0980522" lon="16.377328"><ele>335.0</ele><time>2026-04-19T08:16:54.384Z</time></trkpt><trkpt lat="41.0979795" lon="16.3771332"><ele>335.0</ele><time>2026-04-19T08:16:55.384Z</time></trkpt><trkpt lat="41.0979396" lon="16.3768851"><ele>335.5</ele><time>2026-04-19T08:16:56.384Z</time></trkpt><trkpt lat="41.0979263" lon="16.3765655"><ele>336.0</ele><time>2026-04-19T08:16:57.384Z</time></trkpt><trkpt lat="41.0979055" lon="16.3762142"><ele>336.5</ele><time>2026-04-19T08:16:58.384Z</time></trkpt><trkpt lat="41.0978802" lon="16.3758488"><ele>337.0</ele><time>2026-04-19T08:16:59.384Z</time></trkpt><trkpt lat="41.0978471" lon="16.3754383"><ele>338.0</ele><time>2026-04-19T08:17:00.384Z</time></trkpt><trkpt lat="41.097811" lon="16.3749894"><ele>339.0</ele><time>2026-04-19T08:17:01.384Z</time></trkpt><trkpt lat="41.0977704" lon="16.3745378"><ele>340.5</ele><time>2026-04-19T08:17:02.384Z</time></trkpt><trkpt lat="41.0977364" lon="16.3741064"><ele>342.0</ele><time>2026-04-19T08:17:03.384Z</time></trkpt><trkpt lat="41.0977009" lon="16.3736585"><ele>343.5</ele><time>2026-04-19T08:17:04.384Z</time></trkpt><trkpt lat="41.0976651" lon="16.3731861"><ele>345.0</ele><time>2026-04-19T08:17:05.384Z</time></trkpt><trkpt lat="41.0976278" lon="16.3726808"><ele>346.5</ele><time>2026-04-19T08:17:06.384Z</time></trkpt><trkpt lat="41.0975901" lon="16.3721734"><ele>348.0</ele><time>2026-04-19T08:17:07.384Z</time></trkpt><trkpt lat="41.0975534" lon="16.3717013"><ele>348.5</ele><time>2026-04-19T08:17:08.384Z</time></trkpt><trkpt lat="41.097519" lon="16.3712359"><ele>349.0</ele><time>2026-04-19T08:17:09.384Z</time></trkpt><trkpt lat="41.0974873" lon="16.3707893"><ele>349.5</ele><time>2026-04-19T08:17:10.384Z</time></trkpt><trkpt lat="41.0974553" lon="16.3703531"><ele>350.0</ele><time>2026-04-19T08:17:11.384Z</time></trkpt><trkpt lat="41.097421" lon="16.3699087"><ele>352.0</ele><time>2026-04-19T08:17:12.384Z</time></trkpt><trkpt lat="41.0973872" lon="16.3694577"><ele>354.0</ele><time>2026-04-19T08:17:13.384Z</time></trkpt><trkpt lat="41.0973523" lon="16.3690047"><ele>354.0</ele><time>2026-04-19T08:17:14.384Z</time></trkpt><trkpt lat="41.0973204" lon="16.3685652"><ele>354.0</ele><time>2026-04-19T08:17:15.384Z</time></trkpt><trkpt lat="41.0972878" lon="16.3681306"><ele>353.5</ele><time>2026-04-19T08:17:16.384Z</time></trkpt><trkpt lat="41.097254" lon="16.3676952"><ele>353.0</ele><time>2026-04-19T08:17:17.384Z</time></trkpt><trkpt lat="41.097219" lon="16.3672483"><ele>352.0</ele><time>2026-04-19T08:17:18.384Z</time></trkpt><trkpt lat="41.0971846" lon="16.3667786"><ele>351.0</ele><time>2026-04-19T08:17:19.384Z</time></trkpt><trkpt lat="41.0971532" lon="16.3663273"><ele>350.5</ele><time>2026-04-19T08:17:20.384Z</time></trkpt><trkpt lat="41.0971225" lon="16.3658786"><ele>350.0</ele><time>2026-04-19T08:17:21.384Z</time></trkpt><trkpt lat="41.0970935" lon="16.3654249"><ele>351.0</ele><time>2026-04-19T08:17:22.384Z</time></trkpt><trkpt lat="41.0970595" lon="16.3649495"><ele>352.0</ele><time>2026-04-19T08:17:23.384Z</time></trkpt><trkpt lat="41.0970207" lon="16.3644551"><ele>354.5</ele><time>2026-04-19T08:17:24.384Z</time></trkpt><trkpt lat="41.0969829" lon="16.3639784"><ele>357.0</ele><time>2026-04-19T08:17:25.384Z</time></trkpt><trkpt lat="41.0969453" lon="16.3634888"><ele>358.0</ele><time>2026-04-19T08:17:26.384Z</time></trkpt><trkpt lat="41.0969083" lon="16.3629755"><ele>359.0</ele><time>2026-04-19T08:17:27.384Z</time></trkpt><trkpt lat="41.0968729" lon="16.3624529"><ele>360.0</ele><time>2026-04-19T08:17:28.384Z</time></trkpt><trkpt lat="41.0968412" lon="16.3619587"><ele>361.0</ele><time>2026-04-19T08:17:29.384Z</time></trkpt><trkpt lat="41.0968105" lon="16.3614931"><ele>363.5</ele><time>2026-04-19T08:17:30.384Z</time></trkpt><trkpt lat="41.09678" lon="16.3610444"><ele>366.0</ele><time>2026-04-19T08:17:31.384Z</time></trkpt><trkpt lat="41.0967438" lon="16.360595"><ele>366.5</ele><time>2026-04-19T08:17:32.384Z</time></trkpt><trkpt lat="41.0967066" lon="16.3601768"><ele>367.0</ele><time>2026-04-19T08:17:33.384Z</time></trkpt><trkpt lat="41.0966773" lon="16.359813"><ele>368.5</ele><time>2026-04-19T08:17:34.384Z</time></trkpt><trkpt lat="41.096653" lon="16.3594824"><ele>370.0</ele><time>2026-04-19T08:17:35.384Z</time></trkpt><trkpt lat="41.0966301" lon="16.3591593"><ele>369.0</ele><time>2026-04-19T08:17:36.384Z</time></trkpt><trkpt lat="41.0965962" lon="16.3588155"><ele>368.0</ele><time>2026-04-19T08:17:37.384Z</time></trkpt><trkpt lat="41.0965593" lon="16.3584486"><ele>368.0</ele><time>2026-04-19T08:17:38.384Z</time></trkpt><trkpt lat="41.0965293" lon="16.3580446"><ele>368.0</ele><time>2026-04-19T08:17:39.384Z</time></trkpt><trkpt lat="41.0964872" lon="16.3576128"><ele>364.5</ele><time>2026-04-19T08:17:40.384Z</time></trkpt><trkpt lat="41.0964536" lon="16.3571875"><ele>361.0</ele><time>2026-04-19T08:17:41.384Z</time></trkpt><trkpt lat="41.09642" lon="16.3567763"><ele>359.5</ele><time>2026-04-19T08:17:42.384Z</time></trkpt><trkpt lat="41.0963851" lon="16.3563693"><ele>358.0</ele><time>2026-04-19T08:17:43.384Z</time></trkpt><trkpt lat="41.0963515" lon="16.3559548"><ele>359.0</ele><time>2026-04-19T08:17:44.384Z</time></trkpt><trkpt lat="41.096314" lon="16.3555271"><ele>360.0</ele><time>2026-04-19T08:17:45.384Z</time></trkpt><trkpt lat="41.0962714" lon="16.3550762"><ele>360.0</ele><time>2026-04-19T08:17:46.384Z</time></trkpt><trkpt lat="41.09623" lon="16.3546095"><ele>360.0</ele><time>2026-04-19T08:17:47.384Z</time></trkpt><trkpt lat="41.0961901" lon="16.3541483"><ele>360.0</ele><time>2026-04-19T08:17:48.384Z</time></trkpt><trkpt lat="41.096151" lon="16.3537045"><ele>360.0</ele><time>2026-04-19T08:17:49.384Z</time></trkpt><trkpt lat="41.0961173" lon="16.3532982"><ele>360.0</ele><time>2026-04-19T08:17:50.384Z</time></trkpt><trkpt lat="41.0960906" lon="16.3528857"><ele>360.0</ele><time>2026-04-19T08:17:51.383Z</time></trkpt><trkpt lat="41.0960528" lon="16.3524618"><ele>360.5</ele><time>2026-04-19T08:17:52.384Z</time></trkpt><trkpt lat="41.0960131" lon="16.3520202"><ele>361.0</ele><time>2026-04-19T08:17:53.384Z</time></trkpt><trkpt lat="41.095974" lon="16.3515662"><ele>363.0</ele><time>2026-04-19T08:17:54.384Z</time></trkpt><trkpt lat="41.0959346" lon="16.351139"><ele>365.0</ele><time>2026-04-19T08:17:55.384Z</time></trkpt><trkpt lat="41.0958957" lon="16.3507139"><ele>366.0</ele><time>2026-04-19T08:17:56.384Z</time></trkpt><trkpt lat="41.0958622" lon="16.3502934"><ele>367.0</ele><time>2026-04-19T08:17:57.384Z</time></trkpt><trkpt lat="41.0958302" lon="16.3498917"><ele>367.0</ele><time>2026-04-19T08:17:58.384Z</time></trkpt><trkpt lat="41.0957848" lon="16.3494851"><ele>367.0</ele><time>2026-04-19T08:17:59.383Z</time></trkpt><trkpt lat="41.0957481" lon="16.3490652"><ele>364.5</ele><time>2026-04-19T08:18:00.383Z</time></trkpt><trkpt lat="41.0957178" lon="16.3486304"><ele>362.0</ele><time>2026-04-19T08:18:01.383Z</time></trkpt><trkpt lat="41.0956783" lon="16.348223"><ele>361.0</ele><time>2026-04-19T08:18:02.383Z</time></trkpt><trkpt lat="41.0956389" lon="16.347851"><ele>360.0</ele><time>2026-04-19T08:18:03.383Z</time></trkpt><trkpt lat="41.0956048" lon="16.3474983"><ele>359.0</ele><time>2026-04-19T08:18:04.383Z</time></trkpt><trkpt lat="41.0955806" lon="16.3471586"><ele>358.0</ele><time>2026-04-19T08:18:05.383Z</time></trkpt><trkpt lat="41.0955538" lon="16.3468294"><ele>358.0</ele><time>2026-04-19T08:18:06.383Z</time></trkpt><trkpt lat="41.0955265" lon="16.3465024"><ele>358.0</ele><time>2026-04-19T08:18:07.383Z</time></trkpt><trkpt lat="41.0954971" lon="16.3461848"><ele>359.0</ele><time>2026-04-19T08:18:08.383Z</time></trkpt><trkpt lat="41.0954639" lon="16.3458736"><ele>360.0</ele><time>2026-04-19T08:18:09.383Z</time></trkpt><trkpt lat="41.095435" lon="16.3455722"><ele>359.0</ele><time>2026-04-19T08:18:10.383Z</time></trkpt><trkpt lat="41.0954124" lon="16.3452539"><ele>358.0</ele><time>2026-04-19T08:18:11.383Z</time></trkpt><trkpt lat="41.0953756" lon="16.3448706"><ele>357.5</ele><time>2026-04-19T08:18:12.383Z</time></trkpt><trkpt lat="41.095343" lon="16.3444266"><ele>357.0</ele><time>2026-04-19T08:18:13.383Z</time></trkpt><trkpt lat="41.0953074" lon="16.3439575"><ele>356.5</ele><time>2026-04-19T08:18:14.383Z</time></trkpt><trkpt lat="41.0952704" lon="16.3435134"><ele>356.0</ele><time>2026-04-19T08:18:15.383Z</time></trkpt><trkpt lat="41.0952397" lon="16.3430645"><ele>355.0</ele><time>2026-04-19T08:18:16.383Z</time></trkpt><trkpt lat="41.0952021" lon="16.3426086"><ele>354.0</ele><time>2026-04-19T08:18:17.383Z</time></trkpt><trkpt lat="41.0951625" lon="16.3421376"><ele>352.5</ele><time>2026-04-19T08:18:18.383Z</time></trkpt><trkpt lat="41.0951263" lon="16.3416847"><ele>351.0</ele><time>2026-04-19T08:18:19.383Z</time></trkpt><trkpt lat="41.0950887" lon="16.341242"><ele>351.0</ele><time>2026-04-19T08:18:20.383Z</time></trkpt><trkpt lat="41.0950506" lon="16.3408058"><ele>351.0</ele><time>2026-04-19T08:18:21.383Z</time></trkpt><trkpt lat="41.0950137" lon="16.3403696"><ele>351.0</ele><time>2026-04-19T08:18:22.383Z</time></trkpt><trkpt lat="41.0949781" lon="16.3399582"><ele>351.0</ele><time>2026-04-19T08:18:23.383Z</time></trkpt><trkpt lat="41.0949413" lon="16.3395754"><ele>350.5</ele><time>2026-04-19T08:18:24.383Z</time></trkpt><trkpt lat="41.0949115" lon="16.3392039"><ele>350.0</ele><time>2026-04-19T08:18:25.383Z</time></trkpt><trkpt lat="41.0948883" lon="16.3388585"><ele>351.0</ele><time>2026-04-19T08:18:26.383Z</time></trkpt><trkpt lat="41.0948564" lon="16.3385397"><ele>352.0</ele><time>2026-04-19T08:18:27.383Z</time></trkpt><trkpt lat="41.094832" lon="16.3382374"><ele>352.0</ele><time>2026-04-19T08:18:28.383Z</time></trkpt><trkpt lat="41.0947897" lon="16.337968"><ele>352.0</ele><time>2026-04-19T08:18:29.383Z</time></trkpt><trkpt lat="41.0947215" lon="16.3377077"><ele>352.0</ele><time>2026-04-19T08:18:30.383Z</time></trkpt><trkpt lat="41.0946005" lon="16.3374761"><ele>352.0</ele><time>2026-04-19T08:18:31.383Z</time></trkpt><trkpt lat="41.0944419" lon="16.3372404"><ele>352.0</ele><time>2026-04-19T08:18:32.383Z</time></trkpt><trkpt lat="41.0942498" lon="16.336997"><ele>353.0</ele><time>2026-04-19T08:18:33.383Z</time></trkpt><trkpt lat="41.0940349" lon="16.3367341"><ele>354.0</ele><time>2026-04-19T08:18:34.383Z</time></trkpt><trkpt lat="41.0938094" lon="16.3364486"><ele>353.5</ele><time>2026-04-19T08:18:35.383Z</time></trkpt><trkpt lat="41.093573" lon="16.3361631"><ele>353.0</ele><time>2026-04-19T08:18:36.383Z</time></trkpt><trkpt lat="41.0933422" lon="16.3358795"><ele>353.0</ele><time>2026-04-19T08:18:37.383Z</time></trkpt><trkpt lat="41.0931364" lon="16.3356291"><ele>353.0</ele><time>2026-04-19T08:18:38.383Z</time></trkpt><trkpt lat="41.092956" lon="16.3353853"><ele>353.0</ele><time>2026-04-19T08:18:39.383Z</time></trkpt><trkpt lat="41.0927888" lon="16.3351193"><ele>353.0</ele><time>2026-04-19T08:18:40.383Z</time></trkpt><trkpt lat="41.0926378" lon="16.334803"><ele>353.5</ele><time>2026-04-19T08:18:41.383Z</time></trkpt><trkpt lat="41.0925017" lon="16.3344827"><ele>354.0</ele><time>2026-04-19T08:18:42.383Z</time></trkpt><trkpt lat="41.0923866" lon="16.3341789"><ele>355.5</ele><time>2026-04-19T08:18:43.383Z</time></trkpt><trkpt lat="41.0922942" lon="16.3338565"><ele>357.0</ele><time>2026-04-19T08:18:44.383Z</time></trkpt><trkpt lat="41.0922002" lon="16.333492"><ele>357.0</ele><time>2026-04-19T08:18:45.383Z</time></trkpt><trkpt lat="41.0921093" lon="16.3331275"><ele>357.0</ele><time>2026-04-19T08:18:46.383Z</time></trkpt><trkpt lat="41.0920209" lon="16.3327639"><ele>357.5</ele><time>2026-04-19T08:18:47.383Z</time></trkpt><trkpt lat="41.0919222" lon="16.3323558"><ele>358.0</ele><time>2026-04-19T08:18:48.383Z</time></trkpt><trkpt lat="41.0918252" lon="16.331948"><ele>358.0</ele><time>2026-04-19T08:18:49.383Z</time></trkpt><trkpt lat="41.0917347" lon="16.3315785"><ele>358.0</ele><time>2026-04-19T08:18:50.383Z</time></trkpt><trkpt lat="41.0916467" lon="16.3312526"><ele>358.0</ele><time>2026-04-19T08:18:51.383Z</time></trkpt><trkpt lat="41.0915616" lon="16.3309395"><ele>358.0</ele><time>2026-04-19T08:18:52.383Z</time></trkpt><trkpt lat="41.0914746" lon="16.3306308"><ele>358.5</ele><time>2026-04-19T08:18:53.383Z</time></trkpt><trkpt lat="41.0913702" lon="16.3303311"><ele>359.0</ele><time>2026-04-19T08:18:54.383Z</time></trkpt><trkpt lat="41.0912627" lon="16.3300489"><ele>359.0</ele><time>2026-04-19T08:18:55.383Z</time></trkpt><trkpt lat="41.0911624" lon="16.3298056"><ele>359.0</ele><time>2026-04-19T08:18:56.383Z</time></trkpt><trkpt lat="41.0910625" lon="16.3295591"><ele>359.0</ele><time>2026-04-19T08:18:57.383Z</time></trkpt><trkpt lat="41.0909637" lon="16.3292554"><ele>359.5</ele><time>2026-04-19T08:18:58.383Z</time></trkpt><trkpt lat="41.0908769" lon="16.3289067"><ele>360.0</ele><time>2026-04-19T08:18:59.383Z</time></trkpt><trkpt lat="41.0907812" lon="16.3285448"><ele>361.5</ele><time>2026-04-19T08:19:00.383Z</time></trkpt><trkpt lat="41.0906705" lon="16.3281047"><ele>363.0</ele><time>2026-04-19T08:19:01.383Z</time></trkpt><trkpt lat="41.0905654" lon="16.327658"><ele>364.5</ele><time>2026-04-19T08:19:02.383Z</time></trkpt><trkpt lat="41.0904488" lon="16.3272161"><ele>366.0</ele><time>2026-04-19T08:19:03.383Z</time></trkpt><trkpt lat="41.0903344" lon="16.3267648"><ele>367.0</ele><time>2026-04-19T08:19:04.383Z</time></trkpt><trkpt lat="41.0902323" lon="16.3263314"><ele>368.0</ele><time>2026-04-19T08:19:05.383Z</time></trkpt><trkpt lat="41.0901233" lon="16.3259151"><ele>368.0</ele><time>2026-04-19T08:19:06.383Z</time></trkpt><trkpt lat="41.0900105" lon="16.3255107"><ele>368.0</ele><time>2026-04-19T08:19:07.383Z</time></trkpt><trkpt lat="41.089884" lon="16.3250921"><ele>370.5</ele><time>2026-04-19T08:19:08.383Z</time></trkpt><trkpt lat="41.0897445" lon="16.3246621"><ele>373.0</ele><time>2026-04-19T08:19:09.383Z</time></trkpt><trkpt lat="41.0895977" lon="16.3242248"><ele>373.5</ele><time>2026-04-19T08:19:10.383Z</time></trkpt><trkpt lat="41.0894639" lon="16.323822"><ele>374.0</ele><time>2026-04-19T08:19:11.383Z</time></trkpt><trkpt lat="41.0893408" lon="16.3234432"><ele>374.0</ele><time>2026-04-19T08:19:12.383Z</time></trkpt><trkpt lat="41.0892206" lon="16.3230563"><ele>374.0</ele><time>2026-04-19T08:19:13.383Z</time></trkpt><trkpt lat="41.0891093" lon="16.3226695"><ele>374.5</ele><time>2026-04-19T08:19:14.383Z</time></trkpt><trkpt lat="41.0889998" lon="16.3222683"><ele>375.0</ele><time>2026-04-19T08:19:15.383Z</time></trkpt><trkpt lat="41.0889002" lon="16.3218928"><ele>375.5</ele><time>2026-04-19T08:19:16.383Z</time></trkpt><trkpt lat="41.0888007" lon="16.3215413"><ele>376.0</ele><time>2026-04-19T08:19:17.383Z</time></trkpt><trkpt lat="41.0886871" lon="16.3211818"><ele>378.5</ele><time>2026-04-19T08:19:18.383Z</time></trkpt><trkpt lat="41.088561" lon="16.3208129"><ele>381.0</ele><time>2026-04-19T08:19:19.383Z</time></trkpt><trkpt lat="41.0884297" lon="16.320472"><ele>382.5</ele><time>2026-04-19T08:19:20.383Z</time></trkpt><trkpt lat="41.0882945" lon="16.3201503"><ele>384.0</ele><time>2026-04-19T08:19:21.383Z</time></trkpt><trkpt lat="41.0881475" lon="16.319831"><ele>385.0</ele><time>2026-04-19T08:19:22.383Z</time></trkpt><trkpt lat="41.0879919" lon="16.3194909"><ele>386.0</ele><time>2026-04-19T08:19:23.383Z</time></trkpt><trkpt lat="41.08782" lon="16.3191277"><ele>385.5</ele><time>2026-04-19T08:19:24.383Z</time></trkpt><trkpt lat="41.0876618" lon="16.31876"><ele>385.0</ele><time>2026-04-19T08:19:25.383Z</time></trkpt><trkpt lat="41.0875097" lon="16.3184139"><ele>386.0</ele><time>2026-04-19T08:19:26.383Z</time></trkpt><trkpt lat="41.0873715" lon="16.318064"><ele>387.0</ele><time>2026-04-19T08:19:27.383Z</time></trkpt><trkpt lat="41.0872399" lon="16.317731"><ele>387.0</ele><time>2026-04-19T08:19:28.383Z</time></trkpt><trkpt lat="41.0871197" lon="16.3173886"><ele>387.0</ele><time>2026-04-19T08:19:29.383Z</time></trkpt><trkpt lat="41.0870096" lon="16.3170432"><ele>387.0</ele><time>2026-04-19T08:19:30.383Z</time></trkpt><trkpt lat="41.0869069" lon="16.3167227"><ele>387.0</ele><time>2026-04-19T08:19:31.383Z</time></trkpt><trkpt lat="41.0868236" lon="16.3164472"><ele>388.33333333333337</ele><time>2026-04-19T08:19:32.383Z</time></trkpt><trkpt lat="41.0867502" lon="16.3162016"><ele>389.6666666666667</ele><time>2026-04-19T08:19:33.383Z</time></trkpt><trkpt lat="41.0866866" lon="16.3159939"><ele>391.0</ele><time>2026-04-19T08:19:34.383Z</time></trkpt><trkpt lat="41.0866253" lon="16.3157968"><ele>391.0</ele><time>2026-04-19T08:19:35.383Z</time></trkpt><trkpt lat="41.0865682" lon="16.3156173"><ele>391.0</ele><time>2026-04-19T08:19:36.383Z</time></trkpt><trkpt lat="41.0865055" lon="16.315457"><ele>391.0</ele><time>2026-04-19T08:19:37.383Z</time></trkpt><trkpt lat="41.0864453" lon="16.3153124"><ele>391.0</ele><time>2026-04-19T08:19:38.383Z</time></trkpt><trkpt lat="41.0863734" lon="16.3151628"><ele>391.0</ele><time>2026-04-19T08:19:39.383Z</time></trkpt><trkpt lat="41.0862911" lon="16.3150102"><ele>391.0</ele><time>2026-04-19T08:19:40.383Z</time></trkpt><trkpt lat="41.0862048" lon="16.3148534"><ele>391.0</ele><time>2026-04-19T08:19:41.383Z</time></trkpt><trkpt lat="41.0861336" lon="16.3146832"><ele>391.0</ele><time>2026-04-19T08:19:42.383Z</time></trkpt><trkpt lat="41.0860838" lon="16.3144972"><ele>391.0</ele><time>2026-04-19T08:19:43.383Z</time></trkpt><trkpt lat="41.0860447" lon="16.3143218"><ele>391.0</ele><time>2026-04-19T08:19:44.383Z</time></trkpt><trkpt lat="41.0860207" lon="16.3141444"><ele>391.0</ele><time>2026-04-19T08:19:45.383Z</time></trkpt><trkpt lat="41.0860001" lon="16.3139442"><ele>391.0</ele><time>2026-04-19T08:19:46.383Z</time></trkpt><trkpt lat="41.0859776" lon="16.3137113"><ele>391.33333333333337</ele><time>2026-04-19T08:19:47.383Z</time></trkpt><trkpt lat="41.085977" lon="16.3134452"><ele>391.66666666666663</ele><time>2026-04-19T08:19:48.383Z</time></trkpt><trkpt lat="41.085975" lon="16.3131298"><ele>392.0</ele><time>2026-04-19T08:19:49.383Z</time></trkpt><trkpt lat="41.0859797" lon="16.3128066"><ele>390.0</ele><time>2026-04-19T08:19:50.383Z</time></trkpt><trkpt lat="41.085978" lon="16.3124513"><ele>388.0</ele><time>2026-04-19T08:19:51.383Z</time></trkpt><trkpt lat="41.0859727" lon="16.3120778"><ele>387.5</ele><time>2026-04-19T08:19:52.383Z</time></trkpt><trkpt lat="41.0859583" lon="16.311726"><ele>387.0</ele><time>2026-04-19T08:19:53.383Z</time></trkpt><trkpt lat="41.0859337" lon="16.3114046"><ele>386.0</ele><time>2026-04-19T08:19:54.383Z</time></trkpt><trkpt lat="41.0859071" lon="16.3111014"><ele>385.0</ele><time>2026-04-19T08:19:55.383Z</time></trkpt><trkpt lat="41.0858675" lon="16.3108068"><ele>384.0</ele><time>2026-04-19T08:19:56.383Z</time></trkpt><trkpt lat="41.0858052" lon="16.3105307"><ele>383.0</ele><time>2026-04-19T08:19:57.383Z</time></trkpt><trkpt lat="41.085715" lon="16.3102679"><ele>382.0</ele><time>2026-04-19T08:19:58.383Z</time></trkpt><trkpt lat="41.0856066" lon="16.310041"><ele>384.0</ele><time>2026-04-19T08:19:59.383Z</time></trkpt><trkpt lat="41.0854442" lon="16.3098281"><ele>386.0</ele><time>2026-04-19T08:20:00.383Z</time></trkpt><trkpt lat="41.0852392" lon="16.3096276"><ele>386.0</ele><time>2026-04-19T08:20:01.383Z</time></trkpt><trkpt lat="41.0850057" lon="16.3094233"><ele>386.0</ele><time>2026-04-19T08:20:02.383Z</time></trkpt><trkpt lat="41.0847556" lon="16.3091888"><ele>386.5</ele><time>2026-04-19T08:20:03.383Z</time></trkpt><trkpt lat="41.0845114" lon="16.308949"><ele>387.0</ele><time>2026-04-19T08:20:04.383Z</time></trkpt><trkpt lat="41.0842826" lon="16.3087208"><ele>387.5</ele><time>2026-04-19T08:20:05.383Z</time></trkpt><trkpt lat="41.0840602" lon="16.3085158"><ele>388.0</ele><time>2026-04-19T08:20:06.383Z</time></trkpt><trkpt lat="41.0838582" lon="16.3083191"><ele>388.0</ele><time>2026-04-19T08:20:07.383Z</time></trkpt><trkpt lat="41.0836872" lon="16.3081038"><ele>388.0</ele><time>2026-04-19T08:20:08.383Z</time></trkpt><trkpt lat="41.083531" lon="16.3078616"><ele>388.6666666666667</ele><time>2026-04-19T08:20:09.383Z</time></trkpt><trkpt lat="41.0833962" lon="16.3076156"><ele>389.33333333333337</ele><time>2026-04-19T08:20:10.383Z</time></trkpt><trkpt lat="41.0832964" lon="16.3073955"><ele>390.0</ele><time>2026-04-19T08:20:11.383Z</time></trkpt><trkpt lat="41.0832401" lon="16.3071945"><ele>390.66666666666663</ele><time>2026-04-19T08:20:12.383Z</time></trkpt><trkpt lat="41.0832405" lon="16.3070001"><ele>391.3333333333333</ele><time>2026-04-19T08:20:13.383Z</time></trkpt><trkpt lat="41.0832927" lon="16.3068106"><ele>392.0</ele><time>2026-04-19T08:20:14.383Z</time></trkpt><trkpt lat="41.0833892" lon="16.3066253"><ele>392.0</ele><time>2026-04-19T08:20:15.383Z</time></trkpt><trkpt lat="41.083501" lon="16.3064382"><ele>392.0</ele><time>2026-04-19T08:20:16.383Z</time></trkpt><trkpt lat="41.0836285" lon="16.3062246"><ele>392.0</ele><time>2026-04-19T08:20:17.383Z</time></trkpt><trkpt lat="41.0837369" lon="16.3060396"><ele>392.3333333333333</ele><time>2026-04-19T08:20:18.383Z</time></trkpt><trkpt lat="41.0838326" lon="16.3058421"><ele>392.66666666666663</ele><time>2026-04-19T08:20:19.383Z</time></trkpt><trkpt lat="41.0838931" lon="16.3056217"><ele>393.0</ele><time>2026-04-19T08:20:20.383Z</time></trkpt><trkpt lat="41.0839401" lon="16.3053752"><ele>395.0</ele><time>2026-04-19T08:20:21.383Z</time></trkpt><trkpt lat="41.0839947" lon="16.3050865"><ele>397.0</ele><time>2026-04-19T08:20:22.383Z</time></trkpt><trkpt lat="41.0840427" lon="16.3048333"><ele>399.0</ele><time>2026-04-19T08:20:23.383Z</time></trkpt><trkpt lat="41.0840821" lon="16.3046195"><ele>400.0</ele><time>2026-04-19T08:20:24.383Z</time></trkpt><trkpt lat="41.0841146" lon="16.3044341"><ele>401.0</ele><time>2026-04-19T08:20:25.383Z</time></trkpt><trkpt lat="41.0841366" lon="16.3042402"><ele>402.0</ele><time>2026-04-19T08:20:26.383Z</time></trkpt><trkpt lat="41.0841423" lon="16.3040387"><ele>403.0</ele><time>2026-04-19T08:20:27.383Z</time></trkpt><trkpt lat="41.0841146" lon="16.3038512"><ele>404.33333333333337</ele><time>2026-04-19T08:20:28.383Z</time></trkpt><trkpt lat="41.0840569" lon="16.3036402"><ele>405.66666666666663</ele><time>2026-04-19T08:20:29.383Z</time></trkpt><trkpt lat="41.0839378" lon="16.3033441"><ele>407.0</ele><time>2026-04-19T08:20:30.383Z</time></trkpt><trkpt lat="41.0838044" lon="16.3030123"><ele>407.0</ele><time>2026-04-19T08:20:31.383Z</time></trkpt><trkpt lat="41.0836886" lon="16.302682"><ele>407.0</ele><time>2026-04-19T08:20:32.383Z</time></trkpt><trkpt lat="41.0835827" lon="16.3023704"><ele>408.66666666666663</ele><time>2026-04-19T08:20:33.383Z</time></trkpt><trkpt lat="41.0834837" lon="16.3021019"><ele>410.33333333333337</ele><time>2026-04-19T08:20:34.383Z</time></trkpt><trkpt lat="41.0833878" lon="16.3018558"><ele>412.0</ele><time>2026-04-19T08:20:35.383Z</time></trkpt><trkpt lat="41.0833055" lon="16.3016302"><ele>412.33333333333337</ele><time>2026-04-19T08:20:36.383Z</time></trkpt><trkpt lat="41.0832574" lon="16.3013574"><ele>412.66666666666663</ele><time>2026-04-19T08:20:37.383Z</time></trkpt><trkpt lat="41.0832395" lon="16.3010512"><ele>413.0</ele><time>2026-04-19T08:20:38.383Z</time></trkpt><trkpt lat="41.083221" lon="16.3007344"><ele>415.5</ele><time>2026-04-19T08:20:39.383Z</time></trkpt><trkpt lat="41.0831795" lon="16.3004045"><ele>418.0</ele><time>2026-04-19T08:20:40.383Z</time></trkpt><trkpt lat="41.0831041" lon="16.3000339"><ele>419.0</ele><time>2026-04-19T08:20:41.383Z</time></trkpt><trkpt lat="41.0830139" lon="16.2996533"><ele>420.0</ele><time>2026-04-19T08:20:42.383Z</time></trkpt><trkpt lat="41.0829172" lon="16.2992645"><ele>422.5</ele><time>2026-04-19T08:20:43.383Z</time></trkpt><trkpt lat="41.0828207" lon="16.298851"><ele>425.0</ele><time>2026-04-19T08:20:44.383Z</time></trkpt><trkpt lat="41.0827206" lon="16.2984324"><ele>426.0</ele><time>2026-04-19T08:20:45.383Z</time></trkpt><trkpt lat="41.0826261" lon="16.2980446"><ele>427.0</ele><time>2026-04-19T08:20:46.383Z</time></trkpt><trkpt lat="41.0825372" lon="16.2976582"><ele>427.0</ele><time>2026-04-19T08:20:47.383Z</time></trkpt><trkpt lat="41.0824438" lon="16.2972653"><ele>427.0</ele><time>2026-04-19T08:20:48.383Z</time></trkpt><trkpt lat="41.0823509" lon="16.2968573"><ele>426.5</ele><time>2026-04-19T08:20:49.383Z</time></trkpt><trkpt lat="41.0822474" lon="16.2964267"><ele>426.0</ele><time>2026-04-19T08:20:50.383Z</time></trkpt><trkpt lat="41.0821469" lon="16.2959933"><ele>429.5</ele><time>2026-04-19T08:20:51.383Z</time></trkpt><trkpt lat="41.0820454" lon="16.2955678"><ele>433.0</ele><time>2026-04-19T08:20:52.383Z</time></trkpt><trkpt lat="41.0819515" lon="16.2951578"><ele>433.0</ele><time>2026-04-19T08:20:53.383Z</time></trkpt><trkpt lat="41.081862" lon="16.2947712"><ele>433.0</ele><time>2026-04-19T08:20:54.383Z</time></trkpt><trkpt lat="41.0817826" lon="16.2944249"><ele>434.5</ele><time>2026-04-19T08:20:55.383Z</time></trkpt><trkpt lat="41.0817086" lon="16.294107"><ele>436.0</ele><time>2026-04-19T08:20:56.383Z</time></trkpt><trkpt lat="41.0816349" lon="16.2938146"><ele>437.0</ele><time>2026-04-19T08:20:57.383Z</time></trkpt><trkpt lat="41.0815406" lon="16.2935387"><ele>438.0</ele><time>2026-04-19T08:20:58.383Z</time></trkpt><trkpt lat="41.0814202" lon="16.293253"><ele>439.5</ele><time>2026-04-19T08:20:59.383Z</time></trkpt><trkpt lat="41.0812573" lon="16.29296"><ele>441.0</ele><time>2026-04-19T08:21:00.383Z</time></trkpt><trkpt lat="41.0810678" lon="16.2926494"><ele>441.0</ele><time>2026-04-19T08:21:01.383Z</time></trkpt><trkpt lat="41.0808935" lon="16.2923572"><ele>441.0</ele><time>2026-04-19T08:21:02.383Z</time></trkpt><trkpt lat="41.0807373" lon="16.2921074"><ele>443.0</ele><time>2026-04-19T08:21:03.383Z</time></trkpt><trkpt lat="41.0805947" lon="16.2918604"><ele>445.0</ele><time>2026-04-19T08:21:04.383Z</time></trkpt><trkpt lat="41.0804654" lon="16.2915695"><ele>444.5</ele><time>2026-04-19T08:21:05.383Z</time></trkpt><trkpt lat="41.0803321" lon="16.2912442"><ele>444.0</ele><time>2026-04-19T08:21:06.383Z</time></trkpt><trkpt lat="41.0802154" lon="16.2909316"><ele>444.0</ele><time>2026-04-19T08:21:07.383Z</time></trkpt><trkpt lat="41.080094" lon="16.2906412"><ele>444.0</ele><time>2026-04-19T08:21:08.383Z</time></trkpt><trkpt lat="41.0799789" lon="16.29034"><ele>444.0</ele><time>2026-04-19T08:21:09.383Z</time></trkpt><trkpt lat="41.0798759" lon="16.2899933"><ele>444.0</ele><time>2026-04-19T08:21:10.383Z</time></trkpt><trkpt lat="41.0797787" lon="16.289627"><ele>444.0</ele><time>2026-04-19T08:21:11.383Z</time></trkpt><trkpt lat="41.0797261" lon="16.2892439"><ele>444.0</ele><time>2026-04-19T08:21:12.383Z</time></trkpt><trkpt lat="41.0796908" lon="16.2888659"><ele>444.0</ele><time>2026-04-19T08:21:13.383Z</time></trkpt><trkpt lat="41.0796682" lon="16.2884894"><ele>444.0</ele><time>2026-04-19T08:21:14.383Z</time></trkpt><trkpt lat="41.0796652" lon="16.2881088"><ele>445.0</ele><time>2026-04-19T08:21:15.383Z</time></trkpt><trkpt lat="41.079679" lon="16.2877308"><ele>446.0</ele><time>2026-04-19T08:21:16.383Z</time></trkpt><trkpt lat="41.0796907" lon="16.2873903"><ele>446.0</ele><time>2026-04-19T08:21:17.383Z</time></trkpt><trkpt lat="41.0797055" lon="16.2870986"><ele>446.0</ele><time>2026-04-19T08:21:18.383Z</time></trkpt><trkpt lat="41.0797157" lon="16.286842"><ele>446.0</ele><time>2026-04-19T08:21:19.383Z</time></trkpt><trkpt lat="41.0797099" lon="16.2865969"><ele>445.3333333333333</ele><time>2026-04-19T08:21:20.383Z</time></trkpt><trkpt lat="41.079691" lon="16.2863679"><ele>444.66666666666663</ele><time>2026-04-19T08:21:21.383Z</time></trkpt><trkpt lat="41.0796194" lon="16.2861321"><ele>444.0</ele><time>2026-04-19T08:21:22.383Z</time></trkpt><trkpt lat="41.0795039" lon="16.2858831"><ele>444.0</ele><time>2026-04-19T08:21:23.383Z</time></trkpt><trkpt lat="41.0793518" lon="16.2856007"><ele>444.0</ele><time>2026-04-19T08:21:24.383Z</time></trkpt><trkpt lat="41.0791906" lon="16.2853036"><ele>443.5</ele><time>2026-04-19T08:21:25.383Z</time></trkpt><trkpt lat="41.0790308" lon="16.2849867"><ele>443.0</ele><time>2026-04-19T08:21:26.383Z</time></trkpt><trkpt lat="41.0788591" lon="16.284667"><ele>443.0</ele><time>2026-04-19T08:21:27.383Z</time></trkpt><trkpt lat="41.0787063" lon="16.2843688"><ele>443.0</ele><time>2026-04-19T08:21:28.383Z</time></trkpt><trkpt lat="41.0785628" lon="16.2840971"><ele>444.0</ele><time>2026-04-19T08:21:29.382Z</time></trkpt><trkpt lat="41.0784326" lon="16.2838561"><ele>445.0</ele><time>2026-04-19T08:21:30.382Z</time></trkpt><trkpt lat="41.0783145" lon="16.2836201"><ele>446.0</ele><time>2026-04-19T08:21:31.382Z</time></trkpt><trkpt lat="41.0782145" lon="16.2833477"><ele>451.5</ele><time>2026-04-19T08:21:32.382Z</time></trkpt><trkpt lat="41.0781458" lon="16.2830575"><ele>457.0</ele><time>2026-04-19T08:21:33.382Z</time></trkpt><trkpt lat="41.0780905" lon="16.2827726"><ele>457.0</ele><time>2026-04-19T08:21:34.382Z</time></trkpt><trkpt lat="41.0780465" lon="16.2825315"><ele>457.0</ele><time>2026-04-19T08:21:35.382Z</time></trkpt><trkpt lat="41.0779768" lon="16.2823436"><ele>457.0</ele><time>2026-04-19T08:21:36.382Z</time></trkpt><trkpt lat="41.0778483" lon="16.2821679"><ele>458.0</ele><time>2026-04-19T08:21:37.382Z</time></trkpt><trkpt lat="41.0776916" lon="16.281979"><ele>459.0</ele><time>2026-04-19T08:21:38.382Z</time></trkpt><trkpt lat="41.0775268" lon="16.2817637"><ele>460.0</ele><time>2026-04-19T08:21:39.382Z</time></trkpt><trkpt lat="41.0773709" lon="16.2815354"><ele>459.5</ele><time>2026-04-19T08:21:40.382Z</time></trkpt><trkpt lat="41.0772179" lon="16.2812838"><ele>459.0</ele><time>2026-04-19T08:21:41.382Z</time></trkpt><trkpt lat="41.0770435" lon="16.2809862"><ele>459.0</ele><time>2026-04-19T08:21:42.382Z</time></trkpt><trkpt lat="41.0768783" lon="16.2806911"><ele>459.0</ele><time>2026-04-19T08:21:43.382Z</time></trkpt><trkpt lat="41.0767387" lon="16.2804082"><ele>458.5</ele><time>2026-04-19T08:21:44.382Z</time></trkpt><trkpt lat="41.0766109" lon="16.280128"><ele>458.0</ele><time>2026-04-19T08:21:45.382Z</time></trkpt><trkpt lat="41.0764825" lon="16.279848"><ele>460.5</ele><time>2026-04-19T08:21:46.382Z</time></trkpt><trkpt lat="41.0763753" lon="16.2795457"><ele>463.0</ele><time>2026-04-19T08:21:47.382Z</time></trkpt><trkpt lat="41.0762855" lon="16.2792157"><ele>463.5</ele><time>2026-04-19T08:21:48.382Z</time></trkpt><trkpt lat="41.0762095" lon="16.2788632"><ele>464.0</ele><time>2026-04-19T08:21:49.382Z</time></trkpt><trkpt lat="41.0761293" lon="16.278516"><ele>464.0</ele><time>2026-04-19T08:21:50.382Z</time></trkpt><trkpt lat="41.0760536" lon="16.2782075"><ele>464.0</ele><time>2026-04-19T08:21:51.382Z</time></trkpt><trkpt lat="41.075981" lon="16.2779207"><ele>465.5</ele><time>2026-04-19T08:21:52.382Z</time></trkpt><trkpt lat="41.0759095" lon="16.2776487"><ele>467.0</ele><time>2026-04-19T08:21:53.382Z</time></trkpt><trkpt lat="41.0758008" lon="16.2773519"><ele>470.0</ele><time>2026-04-19T08:21:54.382Z</time></trkpt><trkpt lat="41.0756657" lon="16.2770472"><ele>473.0</ele><time>2026-04-19T08:21:55.382Z</time></trkpt><trkpt lat="41.0755382" lon="16.2767726"><ele>473.0</ele><time>2026-04-19T08:21:56.382Z</time></trkpt><trkpt lat="41.0754167" lon="16.2765304"><ele>473.0</ele><time>2026-04-19T08:21:57.382Z</time></trkpt><trkpt lat="41.0752961" lon="16.2762861"><ele>473.0</ele><time>2026-04-19T08:21:58.382Z</time></trkpt><trkpt lat="41.0751776" lon="16.2760354"><ele>473.0</ele><time>2026-04-19T08:21:59.382Z</time></trkpt><trkpt lat="41.075058" lon="16.2757896"><ele>473.0</ele><time>2026-04-19T08:22:00.382Z</time></trkpt><trkpt lat="41.0749328" lon="16.2755393"><ele>473.0</ele><time>2026-04-19T08:22:01.382Z</time></trkpt><trkpt lat="41.0748114" lon="16.2752621"><ele>473.0</ele><time>2026-04-19T08:22:02.382Z</time></trkpt><trkpt lat="41.0747107" lon="16.274978"><ele>473.0</ele><time>2026-04-19T08:22:03.382Z</time></trkpt><trkpt lat="41.0746223" lon="16.2747227"><ele>473.0</ele><time>2026-04-19T08:22:04.382Z</time></trkpt><trkpt lat="41.0745441" lon="16.2744944"><ele>473.0</ele><time>2026-04-19T08:22:05.382Z</time></trkpt><trkpt lat="41.0744615" lon="16.2742238"><ele>473.0</ele><time>2026-04-19T08:22:06.382Z</time></trkpt><trkpt lat="41.0743813" lon="16.2739067"><ele>473.0</ele><time>2026-04-19T08:22:07.382Z</time></trkpt><trkpt lat="41.0742594" lon="16.2735676"><ele>473.0</ele><time>2026-04-19T08:22:08.382Z</time></trkpt><trkpt lat="41.0741489" lon="16.2732306"><ele>474.0</ele><time>2026-04-19T08:22:09.382Z</time></trkpt><trkpt lat="41.0740343" lon="16.2728945"><ele>475.0</ele><time>2026-04-19T08:22:10.382Z</time></trkpt><trkpt lat="41.0739152" lon="16.2725417"><ele>475.0</ele><time>2026-04-19T08:22:11.382Z</time></trkpt><trkpt lat="41.0737948" lon="16.2721745"><ele>475.0</ele><time>2026-04-19T08:22:12.382Z</time></trkpt><trkpt lat="41.0736824" lon="16.2718069"><ele>475.0</ele><time>2026-04-19T08:22:13.382Z</time></trkpt><trkpt lat="41.0735763" lon="16.271462"><ele>475.0</ele><time>2026-04-19T08:22:14.382Z</time></trkpt><trkpt lat="41.0734625" lon="16.2711427"><ele>474.5</ele><time>2026-04-19T08:22:15.382Z</time></trkpt><trkpt lat="41.0733688" lon="16.2708233"><ele>474.0</ele><time>2026-04-19T08:22:16.382Z</time></trkpt><trkpt lat="41.07327" lon="16.2704907"><ele>475.5</ele><time>2026-04-19T08:22:17.382Z</time></trkpt><trkpt lat="41.0731579" lon="16.2701527"><ele>477.0</ele><time>2026-04-19T08:22:18.382Z</time></trkpt><trkpt lat="41.0730451" lon="16.2698149"><ele>476.5</ele><time>2026-04-19T08:22:19.382Z</time></trkpt><trkpt lat="41.07294" lon="16.2694854"><ele>476.0</ele><time>2026-04-19T08:22:20.382Z</time></trkpt><trkpt lat="41.0728475" lon="16.2691738"><ele>475.5</ele><time>2026-04-19T08:22:21.382Z</time></trkpt><trkpt lat="41.0727425" lon="16.2688377"><ele>475.0</ele><time>2026-04-19T08:22:22.382Z</time></trkpt><trkpt lat="41.0726258" lon="16.2684814"><ele>475.0</ele><time>2026-04-19T08:22:23.382Z</time></trkpt><trkpt lat="41.072497" lon="16.2681092"><ele>475.0</ele><time>2026-04-19T08:22:24.382Z</time></trkpt><trkpt lat="41.0723669" lon="16.2677305"><ele>475.0</ele><time>2026-04-19T08:22:25.382Z</time></trkpt><trkpt lat="41.0722479" lon="16.2673692"><ele>475.0</ele><time>2026-04-19T08:22:26.382Z</time></trkpt><trkpt lat="41.0721325" lon="16.2670064"><ele>475.0</ele><time>2026-04-19T08:22:27.382Z</time></trkpt><trkpt lat="41.0720126" lon="16.2666242"><ele>475.0</ele><time>2026-04-19T08:22:28.382Z</time></trkpt><trkpt lat="41.0718817" lon="16.2662184"><ele>476.0</ele><time>2026-04-19T08:22:29.382Z</time></trkpt><trkpt lat="41.071739" lon="16.2657832"><ele>477.0</ele><time>2026-04-19T08:22:30.382Z</time></trkpt><trkpt lat="41.0715936" lon="16.2653667"><ele>481.0</ele><time>2026-04-19T08:22:31.382Z</time></trkpt><trkpt lat="41.0714402" lon="16.2649642"><ele>485.0</ele><time>2026-04-19T08:22:32.382Z</time></trkpt><trkpt lat="41.0712831" lon="16.2645425"><ele>485.5</ele><time>2026-04-19T08:22:33.382Z</time></trkpt><trkpt lat="41.0711135" lon="16.26411"><ele>486.0</ele><time>2026-04-19T08:22:34.382Z</time></trkpt><trkpt lat="41.0709555" lon="16.2636822"><ele>486.0</ele><time>2026-04-19T08:22:35.382Z</time></trkpt><trkpt lat="41.0708097" lon="16.2632924"><ele>486.0</ele><time>2026-04-19T08:22:36.382Z</time></trkpt><trkpt lat="41.0706613" lon="16.2629342"><ele>488.0</ele><time>2026-04-19T08:22:37.382Z</time></trkpt><trkpt lat="41.0705293" lon="16.2625786"><ele>490.0</ele><time>2026-04-19T08:22:38.382Z</time></trkpt><trkpt lat="41.0703854" lon="16.2621924"><ele>490.5</ele><time>2026-04-19T08:22:39.382Z</time></trkpt><trkpt lat="41.0702293" lon="16.2618094"><ele>491.0</ele><time>2026-04-19T08:22:40.382Z</time></trkpt><trkpt lat="41.0700855" lon="16.2614505"><ele>491.5</ele><time>2026-04-19T08:22:41.382Z</time></trkpt><trkpt lat="41.0699548" lon="16.2611375"><ele>492.0</ele><time>2026-04-19T08:22:42.382Z</time></trkpt><trkpt lat="41.0698394" lon="16.2608455"><ele>493.5</ele><time>2026-04-19T08:22:43.382Z</time></trkpt><trkpt lat="41.0697233" lon="16.260556"><ele>495.0</ele><time>2026-04-19T08:22:44.382Z</time></trkpt><trkpt lat="41.0695952" lon="16.260283"><ele>495.0</ele><time>2026-04-19T08:22:45.382Z</time></trkpt><trkpt lat="41.0694575" lon="16.2600367"><ele>495.0</ele><time>2026-04-19T08:22:46.382Z</time></trkpt><trkpt lat="41.0692886" lon="16.2597959"><ele>495.5</ele><time>2026-04-19T08:22:47.382Z</time></trkpt><trkpt lat="41.0690696" lon="16.2595381"><ele>496.0</ele><time>2026-04-19T08:22:48.382Z</time></trkpt><trkpt lat="41.0688234" lon="16.2592549"><ele>496.0</ele><time>2026-04-19T08:22:49.382Z</time></trkpt><trkpt lat="41.0685667" lon="16.2589626"><ele>496.0</ele><time>2026-04-19T08:22:50.382Z</time></trkpt><trkpt lat="41.0683063" lon="16.2586565"><ele>497.5</ele><time>2026-04-19T08:22:51.382Z</time></trkpt><trkpt lat="41.0680456" lon="16.2583545"><ele>499.0</ele><time>2026-04-19T08:22:52.382Z</time></trkpt><trkpt lat="41.0677883" lon="16.258068"><ele>499.0</ele><time>2026-04-19T08:22:53.382Z</time></trkpt><trkpt lat="41.0675422" lon="16.2577906"><ele>499.0</ele><time>2026-04-19T08:22:54.382Z</time></trkpt><trkpt lat="41.0672888" lon="16.2574984"><ele>501.0</ele><time>2026-04-19T08:22:55.382Z</time></trkpt><trkpt lat="41.0670206" lon="16.257197"><ele>503.0</ele><time>2026-04-19T08:22:56.382Z</time></trkpt><trkpt lat="41.0667432" lon="16.2568808"><ele>503.0</ele><time>2026-04-19T08:22:57.382Z</time></trkpt><trkpt lat="41.0664615" lon="16.2565666"><ele>503.0</ele><time>2026-04-19T08:22:58.382Z</time></trkpt><trkpt lat="41.0661744" lon="16.2562459"><ele>503.0</ele><time>2026-04-19T08:22:59.382Z</time></trkpt><trkpt lat="41.0658942" lon="16.2559239"><ele>503.0</ele><time>2026-04-19T08:23:00.382Z</time></trkpt><trkpt lat="41.0656341" lon="16.2556303"><ele>503.5</ele><time>2026-04-19T08:23:01.382Z</time></trkpt><trkpt lat="41.0653927" lon="16.255356"><ele>504.0</ele><time>2026-04-19T08:23:02.381Z</time></trkpt><trkpt lat="41.0651639" lon="16.2550838"><ele>505.5</ele><time>2026-04-19T08:23:03.382Z</time></trkpt><trkpt lat="41.0649403" lon="16.2548353"><ele>507.0</ele><time>2026-04-19T08:23:04.382Z</time></trkpt><trkpt lat="41.0647341" lon="16.2546005"><ele>507.0</ele><time>2026-04-19T08:23:05.382Z</time></trkpt><trkpt lat="41.0645494" lon="16.2543711"><ele>507.0</ele><time>2026-04-19T08:23:06.382Z</time></trkpt><trkpt lat="41.0643917" lon="16.2541299"><ele>507.33333333333337</ele><time>2026-04-19T08:23:07.382Z</time></trkpt><trkpt lat="41.0642587" lon="16.2538915"><ele>507.6666666666667</ele><time>2026-04-19T08:23:08.382Z</time></trkpt><trkpt lat="41.0641419" lon="16.2536392"><ele>508.0</ele><time>2026-04-19T08:23:09.382Z</time></trkpt><trkpt lat="41.0640221" lon="16.2533479"><ele>506.5</ele><time>2026-04-19T08:23:10.382Z</time></trkpt><trkpt lat="41.0639192" lon="16.2530205"><ele>505.0</ele><time>2026-04-19T08:23:11.382Z</time></trkpt><trkpt lat="41.0638293" lon="16.2526767"><ele>505.0</ele><time>2026-04-19T08:23:12.382Z</time></trkpt><trkpt lat="41.0637495" lon="16.2523027"><ele>505.0</ele><time>2026-04-19T08:23:13.382Z</time></trkpt><trkpt lat="41.0636652" lon="16.2519029"><ele>504.5</ele><time>2026-04-19T08:23:14.382Z</time></trkpt><trkpt lat="41.063572" lon="16.2514578"><ele>504.0</ele><time>2026-04-19T08:23:15.382Z</time></trkpt><trkpt lat="41.0634725" lon="16.250973"><ele>502.5</ele><time>2026-04-19T08:23:16.382Z</time></trkpt><trkpt lat="41.063381" lon="16.2504851"><ele>501.0</ele><time>2026-04-19T08:23:17.382Z</time></trkpt><trkpt lat="41.0632916" lon="16.2500236"><ele>500.0</ele><time>2026-04-19T08:23:18.382Z</time></trkpt><trkpt lat="41.0631997" lon="16.2495733"><ele>499.0</ele><time>2026-04-19T08:23:19.382Z</time></trkpt><trkpt lat="41.0630984" lon="16.2491045"><ele>498.5</ele><time>2026-04-19T08:23:20.382Z</time></trkpt><trkpt lat="41.0630007" lon="16.2486234"><ele>498.0</ele><time>2026-04-19T08:23:21.382Z</time></trkpt><trkpt lat="41.0629091" lon="16.2481708"><ele>498.0</ele><time>2026-04-19T08:23:22.382Z</time></trkpt><trkpt lat="41.0628222" lon="16.2477429"><ele>498.0</ele><time>2026-04-19T08:23:23.382Z</time></trkpt><trkpt lat="41.0627414" lon="16.2473436"><ele>497.5</ele><time>2026-04-19T08:23:24.382Z</time></trkpt><trkpt lat="41.0626675" lon="16.2469793"><ele>497.0</ele><time>2026-04-19T08:23:25.382Z</time></trkpt><trkpt lat="41.0625959" lon="16.2466406"><ele>497.5</ele><time>2026-04-19T08:23:26.382Z</time></trkpt><trkpt lat="41.062533" lon="16.2463377"><ele>498.0</ele><time>2026-04-19T08:23:27.382Z</time></trkpt><trkpt lat="41.0624714" lon="16.246067"><ele>498.0</ele><time>2026-04-19T08:23:28.382Z</time></trkpt><trkpt lat="41.062401" lon="16.2458176"><ele>498.0</ele><time>2026-04-19T08:23:29.382Z</time></trkpt><trkpt lat="41.0622978" lon="16.2455984"><ele>498.0</ele><time>2026-04-19T08:23:30.382Z</time></trkpt><trkpt lat="41.0621725" lon="16.2454075"><ele>498.0</ele><time>2026-04-19T08:23:31.382Z</time></trkpt><trkpt lat="41.062033" lon="16.245242"><ele>498.0</ele><time>2026-04-19T08:23:32.382Z</time></trkpt><trkpt lat="41.0618607" lon="16.245084"><ele>498.0</ele><time>2026-04-19T08:23:33.382Z</time></trkpt><trkpt lat="41.0616537" lon="16.2449026"><ele>498.5</ele><time>2026-04-19T08:23:34.382Z</time></trkpt><trkpt lat="41.061454" lon="16.2447127"><ele>499.0</ele><time>2026-04-19T08:23:35.382Z</time></trkpt><trkpt lat="41.0612831" lon="16.2445498"><ele>499.0</ele><time>2026-04-19T08:23:36.382Z</time></trkpt><trkpt lat="41.0611317" lon="16.2444033"><ele>499.0</ele><time>2026-04-19T08:23:37.382Z</time></trkpt><trkpt lat="41.0609945" lon="16.2442261"><ele>499.0</ele><time>2026-04-19T08:23:38.382Z</time></trkpt><trkpt lat="41.0609077" lon="16.2440141"><ele>499.33333333333337</ele><time>2026-04-19T08:23:39.382Z</time></trkpt><trkpt lat="41.0608504" lon="16.2437825"><ele>499.66666666666663</ele><time>2026-04-19T08:23:40.382Z</time></trkpt><trkpt lat="41.0607981" lon="16.2435284"><ele>500.0</ele><time>2026-04-19T08:23:41.382Z</time></trkpt><trkpt lat="41.0607375" lon="16.243211"><ele>500.0</ele><time>2026-04-19T08:23:42.382Z</time></trkpt><trkpt lat="41.0606821" lon="16.2428512"><ele>500.0</ele><time>2026-04-19T08:23:43.382Z</time></trkpt><trkpt lat="41.0606372" lon="16.2424626"><ele>502.0</ele><time>2026-04-19T08:23:44.382Z</time></trkpt><trkpt lat="41.0605859" lon="16.2420998"><ele>504.0</ele><time>2026-04-19T08:23:45.382Z</time></trkpt><trkpt lat="41.0605329" lon="16.2417725"><ele>504.0</ele><time>2026-04-19T08:23:46.382Z</time></trkpt><trkpt lat="41.0604941" lon="16.2414773"><ele>504.0</ele><time>2026-04-19T08:23:47.382Z</time></trkpt><trkpt lat="41.060456" lon="16.2412213"><ele>504.0</ele><time>2026-04-19T08:23:48.382Z</time></trkpt><trkpt lat="41.0604004" lon="16.2409824"><ele>504.0</ele><time>2026-04-19T08:23:49.382Z</time></trkpt><trkpt lat="41.0603101" lon="16.2407621"><ele>504.0</ele><time>2026-04-19T08:23:50.382Z</time></trkpt><trkpt lat="41.0601963" lon="16.2405318"><ele>504.0</ele><time>2026-04-19T08:23:51.382Z</time></trkpt><trkpt lat="41.0600433" lon="16.2403074"><ele>504.0</ele><time>2026-04-19T08:23:52.382Z</time></trkpt><trkpt lat="41.0598545" lon="16.2400894"><ele>504.0</ele><time>2026-04-19T08:23:53.382Z</time></trkpt><trkpt lat="41.0596288" lon="16.2398727"><ele>502.5</ele><time>2026-04-19T08:23:54.382Z</time></trkpt><trkpt lat="41.0593953" lon="16.2396013"><ele>501.0</ele><time>2026-04-19T08:23:55.382Z</time></trkpt><trkpt lat="41.0591388" lon="16.2393032"><ele>501.0</ele><time>2026-04-19T08:23:56.382Z</time></trkpt><trkpt lat="41.0588697" lon="16.2389947"><ele>501.0</ele><time>2026-04-19T08:23:57.382Z</time></trkpt><trkpt lat="41.0585947" lon="16.2386817"><ele>500.0</ele><time>2026-04-19T08:23:58.382Z</time></trkpt><trkpt lat="41.0583173" lon="16.2383862"><ele>499.0</ele><time>2026-04-19T08:23:59.382Z</time></trkpt><trkpt lat="41.0580668" lon="16.2381058"><ele>499.0</ele><time>2026-04-19T08:24:00.382Z</time></trkpt><trkpt lat="41.0578312" lon="16.2378418"><ele>499.0</ele><time>2026-04-19T08:24:01.382Z</time></trkpt><trkpt lat="41.0575995" lon="16.2375797"><ele>498.5</ele><time>2026-04-19T08:24:02.382Z</time></trkpt><trkpt lat="41.057376" lon="16.237337"><ele>498.0</ele><time>2026-04-19T08:24:03.382Z</time></trkpt><trkpt lat="41.0571626" lon="16.2370895"><ele>499.0</ele><time>2026-04-19T08:24:04.382Z</time></trkpt><trkpt lat="41.0569372" lon="16.2368328"><ele>500.0</ele><time>2026-04-19T08:24:05.382Z</time></trkpt><trkpt lat="41.056689" lon="16.2365656"><ele>500.5</ele><time>2026-04-19T08:24:06.382Z</time></trkpt><trkpt lat="41.0564161" lon="16.2362769"><ele>501.0</ele><time>2026-04-19T08:24:07.382Z</time></trkpt><trkpt lat="41.0561183" lon="16.2359583"><ele>501.0</ele><time>2026-04-19T08:24:08.382Z</time></trkpt><trkpt lat="41.0558088" lon="16.2356185"><ele>501.0</ele><time>2026-04-19T08:24:09.382Z</time></trkpt><trkpt lat="41.05549" lon="16.2352634"><ele>502.0</ele><time>2026-04-19T08:24:10.382Z</time></trkpt><trkpt lat="41.0551919" lon="16.2349088"><ele>503.0</ele><time>2026-04-19T08:24:11.382Z</time></trkpt><trkpt lat="41.0549108" lon="16.2345866"><ele>503.5</ele><time>2026-04-19T08:24:12.382Z</time></trkpt><trkpt lat="41.0546387" lon="16.2342847"><ele>504.0</ele><time>2026-04-19T08:24:13.382Z</time></trkpt><trkpt lat="41.0543653" lon="16.233987"><ele>504.5</ele><time>2026-04-19T08:24:14.382Z</time></trkpt><trkpt lat="41.0541088" lon="16.2337106"><ele>505.0</ele><time>2026-04-19T08:24:15.382Z</time></trkpt><trkpt lat="41.0538755" lon="16.2334458"><ele>505.0</ele><time>2026-04-19T08:24:16.382Z</time></trkpt><trkpt lat="41.0536601" lon="16.2331729"><ele>505.0</ele><time>2026-04-19T08:24:17.382Z</time></trkpt><trkpt lat="41.0534609" lon="16.232867"><ele>506.5</ele><time>2026-04-19T08:24:18.382Z</time></trkpt><trkpt lat="41.0532596" lon="16.2325132"><ele>508.0</ele><time>2026-04-19T08:24:19.382Z</time></trkpt><trkpt lat="41.0530655" lon="16.2321376"><ele>508.5</ele><time>2026-04-19T08:24:20.382Z</time></trkpt><trkpt lat="41.0528591" lon="16.2317462"><ele>509.0</ele><time>2026-04-19T08:24:21.382Z</time></trkpt><trkpt lat="41.0526432" lon="16.2313299"><ele>510.5</ele><time>2026-04-19T08:24:22.382Z</time></trkpt><trkpt lat="41.0524222" lon="16.2309126"><ele>512.0</ele><time>2026-04-19T08:24:23.382Z</time></trkpt><trkpt lat="41.0521978" lon="16.2304853"><ele>512.0</ele><time>2026-04-19T08:24:24.382Z</time></trkpt><trkpt lat="41.0519829" lon="16.230084"><ele>512.0</ele><time>2026-04-19T08:24:25.382Z</time></trkpt><trkpt lat="41.0517872" lon="16.2296964"><ele>515.5</ele><time>2026-04-19T08:24:26.382Z</time></trkpt><trkpt lat="41.0516064" lon="16.229348"><ele>519.0</ele><time>2026-04-19T08:24:27.382Z</time></trkpt><trkpt lat="41.0514311" lon="16.2290161"><ele>519.5</ele><time>2026-04-19T08:24:28.382Z</time></trkpt><trkpt lat="41.0512712" lon="16.2287117"><ele>520.0</ele><time>2026-04-19T08:24:29.382Z</time></trkpt><trkpt lat="41.0511194" lon="16.2284202"><ele>520.0</ele><time>2026-04-19T08:24:30.382Z</time></trkpt><trkpt lat="41.0509735" lon="16.2281485"><ele>520.0</ele><time>2026-04-19T08:24:31.382Z</time></trkpt><trkpt lat="41.0508004" lon="16.2278888"><ele>523.0</ele><time>2026-04-19T08:24:32.382Z</time></trkpt><trkpt lat="41.0506145" lon="16.2276465"><ele>526.0</ele><time>2026-04-19T08:24:33.382Z</time></trkpt><trkpt lat="41.0504117" lon="16.2274466"><ele>526.5</ele><time>2026-04-19T08:24:34.382Z</time></trkpt><trkpt lat="41.0501885" lon="16.2272696"><ele>527.0</ele><time>2026-04-19T08:24:35.382Z</time></trkpt><trkpt lat="41.0499232" lon="16.2270869"><ele>528.5</ele><time>2026-04-19T08:24:36.382Z</time></trkpt><trkpt lat="41.049627" lon="16.2268981"><ele>530.0</ele><time>2026-04-19T08:24:37.382Z</time></trkpt><trkpt lat="41.0493268" lon="16.2267184"><ele>531.0</ele><time>2026-04-19T08:24:38.382Z</time></trkpt><trkpt lat="41.0490111" lon="16.2265257"><ele>532.0</ele><time>2026-04-19T08:24:39.382Z</time></trkpt><trkpt lat="41.0487012" lon="16.2263331"><ele>532.0</ele><time>2026-04-19T08:24:40.382Z</time></trkpt><trkpt lat="41.048406" lon="16.2261542"><ele>532.0</ele><time>2026-04-19T08:24:41.382Z</time></trkpt><trkpt lat="41.0481336" lon="16.2259934"><ele>534.0</ele><time>2026-04-19T08:24:42.382Z</time></trkpt><trkpt lat="41.0478827" lon="16.2258495"><ele>536.0</ele><time>2026-04-19T08:24:43.382Z</time></trkpt><trkpt lat="41.0476548" lon="16.2257208"><ele>538.0</ele><time>2026-04-19T08:24:44.382Z</time></trkpt><trkpt lat="41.0474473" lon="16.2255888"><ele>540.0</ele><time>2026-04-19T08:24:45.382Z</time></trkpt><trkpt lat="41.0472354" lon="16.2254203"><ele>540.0</ele><time>2026-04-19T08:24:46.382Z</time></trkpt><trkpt lat="41.0470239" lon="16.2252013"><ele>540.0</ele><time>2026-04-19T08:24:47.382Z</time></trkpt><trkpt lat="41.0467967" lon="16.2249361"><ele>541.0</ele><time>2026-04-19T08:24:48.382Z</time></trkpt><trkpt lat="41.0465686" lon="16.2246277"><ele>542.0</ele><time>2026-04-19T08:24:49.382Z</time></trkpt><trkpt lat="41.0463388" lon="16.2242791"><ele>541.5</ele><time>2026-04-19T08:24:50.382Z</time></trkpt><trkpt lat="41.0461017" lon="16.2239095"><ele>541.0</ele><time>2026-04-19T08:24:51.382Z</time></trkpt><trkpt lat="41.0458637" lon="16.2235452"><ele>541.5</ele><time>2026-04-19T08:24:52.382Z</time></trkpt><trkpt lat="41.0456389" lon="16.2231973"><ele>542.0</ele><time>2026-04-19T08:24:53.381Z</time></trkpt><trkpt lat="41.0454538" lon="16.2229086"><ele>543.5</ele><time>2026-04-19T08:24:54.382Z</time></trkpt><trkpt lat="41.0452859" lon="16.2226474"><ele>545.0</ele><time>2026-04-19T08:24:55.382Z</time></trkpt><trkpt lat="41.045129" lon="16.2224216"><ele>544.0</ele><time>2026-04-19T08:24:56.382Z</time></trkpt><trkpt lat="41.0449393" lon="16.2221864"><ele>543.0</ele><time>2026-04-19T08:24:57.382Z</time></trkpt><trkpt lat="41.044704" lon="16.2219489"><ele>543.0</ele><time>2026-04-19T08:24:58.382Z</time></trkpt><trkpt lat="41.0444431" lon="16.2216909"><ele>543.0</ele><time>2026-04-19T08:24:59.382Z</time></trkpt><trkpt lat="41.0441761" lon="16.2214259"><ele>541.0</ele><time>2026-04-19T08:25:00.382Z</time></trkpt><trkpt lat="41.0439335" lon="16.2211782"><ele>539.0</ele><time>2026-04-19T08:25:01.382Z</time></trkpt><trkpt lat="41.043696" lon="16.2209375"><ele>539.0</ele><time>2026-04-19T08:25:02.382Z</time></trkpt><trkpt lat="41.0434496" lon="16.2206877"><ele>539.0</ele><time>2026-04-19T08:25:03.382Z</time></trkpt><trkpt lat="41.0432084" lon="16.2204464"><ele>539.0</ele><time>2026-04-19T08:25:04.382Z</time></trkpt><trkpt lat="41.0429873" lon="16.2202193"><ele>539.0</ele><time>2026-04-19T08:25:05.382Z</time></trkpt><trkpt lat="41.0427777" lon="16.2200135"><ele>539.5</ele><time>2026-04-19T08:25:06.382Z</time></trkpt><trkpt lat="41.0425631" lon="16.2197959"><ele>540.0</ele><time>2026-04-19T08:25:07.382Z</time></trkpt><trkpt lat="41.0423348" lon="16.2195678"><ele>539.0</ele><time>2026-04-19T08:25:08.382Z</time></trkpt><trkpt lat="41.0421004" lon="16.2193281"><ele>538.0</ele><time>2026-04-19T08:25:09.382Z</time></trkpt><trkpt lat="41.0418803" lon="16.2191162"><ele>537.5</ele><time>2026-04-19T08:25:10.381Z</time></trkpt><trkpt lat="41.0416756" lon="16.2189064"><ele>537.0</ele><time>2026-04-19T08:25:11.381Z</time></trkpt><trkpt lat="41.0414995" lon="16.2187221"><ele>537.0</ele><time>2026-04-19T08:25:12.381Z</time></trkpt><trkpt lat="41.0413351" lon="16.2185588"><ele>537.0</ele><time>2026-04-19T08:25:13.381Z</time></trkpt><trkpt lat="41.0411867" lon="16.2183757"><ele>537.0</ele><time>2026-04-19T08:25:14.381Z</time></trkpt><trkpt lat="41.0410485" lon="16.2181593"><ele>537.3333333333334</ele><time>2026-04-19T08:25:15.381Z</time></trkpt><trkpt lat="41.0409209" lon="16.2179398"><ele>537.6666666666667</ele><time>2026-04-19T08:25:16.381Z</time></trkpt><trkpt lat="41.0408282" lon="16.2177353"><ele>538.0</ele><time>2026-04-19T08:25:17.381Z</time></trkpt><trkpt lat="41.040744" lon="16.21756"><ele>538.6</ele><time>2026-04-19T08:25:18.381Z</time></trkpt><trkpt lat="41.0406786" lon="16.2174132"><ele>539.1999999999999</ele><time>2026-04-19T08:25:19.381Z</time></trkpt><trkpt lat="41.0406232" lon="16.2172781"><ele>539.8</ele><time>2026-04-19T08:25:20.381Z</time></trkpt><trkpt lat="41.0405785" lon="16.2171801"><ele>540.4</ele><time>2026-04-19T08:25:21.381Z</time></trkpt><trkpt lat="41.0405409" lon="16.2170967"><ele>541.0</ele><time>2026-04-19T08:25:22.381Z</time></trkpt><trkpt lat="41.0404928" lon="16.2169749"><ele>541.0</ele><time>2026-04-19T08:25:24.381Z</time></trkpt><trkpt lat="41.0404219" lon="16.2168589"><ele>541.0</ele><time>2026-04-19T08:30:05.38Z</time></trkpt><trkpt lat="41.0403723" lon="16.2167498"><ele>541.0</ele><time>2026-04-19T08:30:06.38Z</time></trkpt><trkpt lat="41.0402884" lon="16.216598"><ele>541.0</ele><time>2026-04-19T08:30:07.38Z</time></trkpt><trkpt lat="41.0402018" lon="16.2164205"><ele>539.0</ele><time>2026-04-19T08:30:08.38Z</time></trkpt><trkpt lat="41.0401037" lon="16.2162266"><ele>537.0</ele><time>2026-04-19T08:30:09.38Z</time></trkpt><trkpt lat="41.0400076" lon="16.2160237"><ele>535.0</ele><time>2026-04-19T08:30:10.38Z</time></trkpt><trkpt lat="41.0399066" lon="16.215801"><ele>535.3333333333334</ele><time>2026-04-19T08:30:11.38Z</time></trkpt><trkpt lat="41.0397961" lon="16.2155661"><ele>535.6666666666666</ele><time>2026-04-19T08:30:12.38Z</time></trkpt><trkpt lat="41.0396766" lon="16.2153196"><ele>536.0</ele><time>2026-04-19T08:30:13.38Z</time></trkpt><trkpt lat="41.0395579" lon="16.2150575"><ele>536.0</ele><time>2026-04-19T08:30:14.38Z</time></trkpt><trkpt lat="41.039439" lon="16.2147897"><ele>536.0</ele><time>2026-04-19T08:30:15.38Z</time></trkpt><trkpt lat="41.0393044" lon="16.2145003"><ele>536.0</ele><time>2026-04-19T08:30:16.38Z</time></trkpt><trkpt lat="41.0391617" lon="16.2142117"><ele>536.0</ele><time>2026-04-19T08:30:17.38Z</time></trkpt><trkpt lat="41.0390202" lon="16.2139215"><ele>537.0</ele><time>2026-04-19T08:30:18.38Z</time></trkpt><trkpt lat="41.0388738" lon="16.2136156"><ele>538.0</ele><time>2026-04-19T08:30:19.38Z</time></trkpt><trkpt lat="41.03873" lon="16.2133156"><ele>537.5</ele><time>2026-04-19T08:30:20.38Z</time></trkpt><trkpt lat="41.0385903" lon="16.2130275"><ele>537.0</ele><time>2026-04-19T08:30:21.38Z</time></trkpt><trkpt lat="41.0384478" lon="16.2127365"><ele>537.5</ele><time>2026-04-19T08:30:22.38Z</time></trkpt><trkpt lat="41.0383011" lon="16.2124293"><ele>538.0</ele><time>2026-04-19T08:30:23.38Z</time></trkpt><trkpt lat="41.0381459" lon="16.2121029"><ele>538.0</ele><time>2026-04-19T08:30:24.38Z</time></trkpt><trkpt lat="41.0380142" lon="16.2117824"><ele>538.0</ele><time>2026-04-19T08:30:25.38Z</time></trkpt><trkpt lat="41.0378731" lon="16.2114516"><ele>539.0</ele><time>2026-04-19T08:30:26.38Z</time></trkpt><trkpt lat="41.0377131" lon="16.2110777"><ele>540.0</ele><time>2026-04-19T08:30:27.38Z</time></trkpt><trkpt lat="41.037557" lon="16.2107007"><ele>542.0</ele><time>2026-04-19T08:30:28.38Z</time></trkpt><trkpt lat="41.0374019" lon="16.210312"><ele>544.0</ele><time>2026-04-19T08:30:29.38Z</time></trkpt><trkpt lat="41.0372451" lon="16.2098941"><ele>545.0</ele><time>2026-04-19T08:30:30.38Z</time></trkpt><trkpt lat="41.0370843" lon="16.2094802"><ele>546.0</ele><time>2026-04-19T08:30:31.38Z</time></trkpt><trkpt lat="41.03693" lon="16.2090825"><ele>547.5</ele><time>2026-04-19T08:30:32.38Z</time></trkpt><trkpt lat="41.0367905" lon="16.208707"><ele>549.0</ele><time>2026-04-19T08:30:33.38Z</time></trkpt><trkpt lat="41.0366611" lon="16.2083577"><ele>551.0</ele><time>2026-04-19T08:30:34.38Z</time></trkpt><trkpt lat="41.036532" lon="16.208034"><ele>553.0</ele><time>2026-04-19T08:30:35.38Z</time></trkpt><trkpt lat="41.03639" lon="16.2077139"><ele>553.0</ele><time>2026-04-19T08:30:36.38Z</time></trkpt><trkpt lat="41.036221" lon="16.2073974"><ele>553.0</ele><time>2026-04-19T08:30:37.38Z</time></trkpt><trkpt lat="41.0360334" lon="16.2070979"><ele>556.5</ele><time>2026-04-19T08:30:38.38Z</time></trkpt><trkpt lat="41.0358218" lon="16.2067936"><ele>560.0</ele><time>2026-04-19T08:30:39.38Z</time></trkpt><trkpt lat="41.0356104" lon="16.2065133"><ele>565.0</ele><time>2026-04-19T08:30:40.38Z</time></trkpt><trkpt lat="41.0354327" lon="16.2062727"><ele>570.0</ele><time>2026-04-19T08:30:41.38Z</time></trkpt><trkpt lat="41.0352818" lon="16.2060724"><ele>570.0</ele><time>2026-04-19T08:30:42.38Z</time></trkpt><trkpt lat="41.0351565" lon="16.2058992"><ele>570.0</ele><time>2026-04-19T08:30:43.38Z</time></trkpt><trkpt lat="41.0350791" lon="16.2056904"><ele>570.0</ele><time>2026-04-19T08:30:44.38Z</time></trkpt><trkpt lat="41.0350093" lon="16.2054314"><ele>575.0</ele><time>2026-04-19T08:30:45.38Z</time></trkpt><trkpt lat="41.0349318" lon="16.205117"><ele>580.0</ele><time>2026-04-19T08:30:46.38Z</time></trkpt><trkpt lat="41.0348351" lon="16.2047696"><ele>581.0</ele><time>2026-04-19T08:30:47.38Z</time></trkpt><trkpt lat="41.034751" lon="16.2044094"><ele>582.0</ele><time>2026-04-19T08:30:48.38Z</time></trkpt><trkpt lat="41.0346694" lon="16.2041015"><ele>581.3333333333334</ele><time>2026-04-19T08:30:49.38Z</time></trkpt><trkpt lat="41.0346078" lon="16.2038441"><ele>580.6666666666667</ele><time>2026-04-19T08:30:50.38Z</time></trkpt><trkpt lat="41.0345613" lon="16.203634"><ele>580.0</ele><time>2026-04-19T08:30:51.38Z</time></trkpt><trkpt lat="41.0345215" lon="16.2034563"><ele>580.0</ele><time>2026-04-19T08:30:52.38Z</time></trkpt><trkpt lat="41.0344419" lon="16.2032832"><ele>580.0</ele><time>2026-04-19T08:30:53.38Z</time></trkpt><trkpt lat="41.0343131" lon="16.2030954"><ele>580.0</ele><time>2026-04-19T08:30:54.38Z</time></trkpt><trkpt lat="41.0341406" lon="16.2029018"><ele>579.0</ele><time>2026-04-19T08:30:55.38Z</time></trkpt><trkpt lat="41.0339655" lon="16.2027238"><ele>578.0</ele><time>2026-04-19T08:30:56.38Z</time></trkpt><trkpt lat="41.0338042" lon="16.2025452"><ele>577.0</ele><time>2026-04-19T08:30:57.38Z</time></trkpt><trkpt lat="41.0336573" lon="16.2023639"><ele>575.0</ele><time>2026-04-19T08:30:58.38Z</time></trkpt><trkpt lat="41.0335118" lon="16.2021269"><ele>573.0</ele><time>2026-04-19T08:30:59.38Z</time></trkpt><trkpt lat="41.0333512" lon="16.2018423"><ele>572.5</ele><time>2026-04-19T08:31:00.38Z</time></trkpt><trkpt lat="41.03316" lon="16.2015084"><ele>572.0</ele><time>2026-04-19T08:31:01.38Z</time></trkpt><trkpt lat="41.0329538" lon="16.2011536"><ele>572.0</ele><time>2026-04-19T08:31:02.38Z</time></trkpt><trkpt lat="41.0327497" lon="16.2008009"><ele>572.0</ele><time>2026-04-19T08:31:03.38Z</time></trkpt><trkpt lat="41.0325369" lon="16.2004257"><ele>571.5</ele><time>2026-04-19T08:31:04.38Z</time></trkpt><trkpt lat="41.0323246" lon="16.2000625"><ele>571.0</ele><time>2026-04-19T08:31:05.38Z</time></trkpt><trkpt lat="41.0321164" lon="16.1996983"><ele>570.5</ele><time>2026-04-19T08:31:06.38Z</time></trkpt><trkpt lat="41.0319051" lon="16.1993178"><ele>570.0</ele><time>2026-04-19T08:31:07.38Z</time></trkpt><trkpt lat="41.0316835" lon="16.1989218"><ele>569.0</ele><time>2026-04-19T08:31:08.38Z</time></trkpt><trkpt lat="41.0314514" lon="16.1985093"><ele>568.0</ele><time>2026-04-19T08:31:09.38Z</time></trkpt><trkpt lat="41.0312299" lon="16.1981114"><ele>568.0</ele><time>2026-04-19T08:31:10.38Z</time></trkpt><trkpt lat="41.0310152" lon="16.1977502"><ele>568.0</ele><time>2026-04-19T08:31:11.38Z</time></trkpt><trkpt lat="41.0308277" lon="16.1974114"><ele>571.5</ele><time>2026-04-19T08:31:12.38Z</time></trkpt><trkpt lat="41.0306319" lon="16.1970706"><ele>575.0</ele><time>2026-04-19T08:31:13.38Z</time></trkpt><trkpt lat="41.0304204" lon="16.1967062"><ele>576.0</ele><time>2026-04-19T08:31:14.38Z</time></trkpt><trkpt lat="41.0302021" lon="16.1963174"><ele>577.0</ele><time>2026-04-19T08:31:15.38Z</time></trkpt><trkpt lat="41.0299997" lon="16.1959408"><ele>581.5</ele><time>2026-04-19T08:31:16.38Z</time></trkpt><trkpt lat="41.0298221" lon="16.1956205"><ele>586.0</ele><time>2026-04-19T08:31:17.38Z</time></trkpt><trkpt lat="41.0296561" lon="16.1953144"><ele>586.0</ele><time>2026-04-19T08:31:18.38Z</time></trkpt><trkpt lat="41.0295103" lon="16.1950551"><ele>586.0</ele><time>2026-04-19T08:31:19.38Z</time></trkpt><trkpt lat="41.0293604" lon="16.1948203"><ele>586.0</ele><time>2026-04-19T08:31:20.38Z</time></trkpt><trkpt lat="41.0292007" lon="16.1946094"><ele>586.0</ele><time>2026-04-19T08:31:21.38Z</time></trkpt><trkpt lat="41.0290237" lon="16.1944205"><ele>588.5</ele><time>2026-04-19T08:31:22.38Z</time></trkpt><trkpt lat="41.0288233" lon="16.1942518"><ele>591.0</ele><time>2026-04-19T08:31:23.38Z</time></trkpt><trkpt lat="41.0285823" lon="16.1941048"><ele>591.5</ele><time>2026-04-19T08:31:24.38Z</time></trkpt><trkpt lat="41.0283138" lon="16.1939723"><ele>592.0</ele><time>2026-04-19T08:31:25.38Z</time></trkpt><trkpt lat="41.0280474" lon="16.193853"><ele>594.0</ele><time>2026-04-19T08:31:26.38Z</time></trkpt><trkpt lat="41.027802" lon="16.1937431"><ele>596.0</ele><time>2026-04-19T08:31:27.38Z</time></trkpt><trkpt lat="41.0275503" lon="16.1936159"><ele>595.0</ele><time>2026-04-19T08:31:28.38Z</time></trkpt><trkpt lat="41.0272701" lon="16.1934887"><ele>594.0</ele><time>2026-04-19T08:31:29.38Z</time></trkpt><trkpt lat="41.0269932" lon="16.1933638"><ele>594.0</ele><time>2026-04-19T08:31:30.38Z</time></trkpt><trkpt lat="41.0267396" lon="16.1932438"><ele>594.0</ele><time>2026-04-19T08:31:31.38Z</time></trkpt><trkpt lat="41.0265276" lon="16.1931422"><ele>592.6666666666666</ele><time>2026-04-19T08:31:32.38Z</time></trkpt><trkpt lat="41.0263293" lon="16.1930582"><ele>591.3333333333333</ele><time>2026-04-19T08:31:33.38Z</time></trkpt><trkpt lat="41.0261545" lon="16.1929784"><ele>590.0</ele><time>2026-04-19T08:31:34.38Z</time></trkpt><trkpt lat="41.0260037" lon="16.1928767"><ele>590.0</ele><time>2026-04-19T08:31:35.38Z</time></trkpt><trkpt lat="41.0258708" lon="16.1927337"><ele>590.0</ele><time>2026-04-19T08:31:36.38Z</time></trkpt><trkpt lat="41.0257378" lon="16.1925488"><ele>590.0</ele><time>2026-04-19T08:31:37.38Z</time></trkpt><trkpt lat="41.0256349" lon="16.1923382"><ele>587.0</ele><time>2026-04-19T08:31:38.38Z</time></trkpt><trkpt lat="41.0255508" lon="16.1921062"><ele>584.0</ele><time>2026-04-19T08:31:39.38Z</time></trkpt><trkpt lat="41.0254842" lon="16.1918164"><ele>581.0</ele><time>2026-04-19T08:31:40.38Z</time></trkpt><trkpt lat="41.0254294" lon="16.1914969"><ele>579.5</ele><time>2026-04-19T08:31:41.38Z</time></trkpt><trkpt lat="41.0253801" lon="16.1911646"><ele>578.0</ele><time>2026-04-19T08:31:42.38Z</time></trkpt><trkpt lat="41.0253375" lon="16.1908539"><ele>577.6666666666666</ele><time>2026-04-19T08:31:43.38Z</time></trkpt><trkpt lat="41.0252923" lon="16.1905658"><ele>577.3333333333334</ele><time>2026-04-19T08:31:44.38Z</time></trkpt><trkpt lat="41.0252522" lon="16.1903055"><ele>577.0</ele><time>2026-04-19T08:31:45.38Z</time></trkpt><trkpt lat="41.0252203" lon="16.1900609"><ele>576.6666666666667</ele><time>2026-04-19T08:31:46.38Z</time></trkpt><trkpt lat="41.0251871" lon="16.1898176"><ele>576.3333333333334</ele><time>2026-04-19T08:31:47.38Z</time></trkpt><trkpt lat="41.0251539" lon="16.1895581"><ele>576.0</ele><time>2026-04-19T08:31:48.38Z</time></trkpt><trkpt lat="41.0251138" lon="16.1892891"><ele>575.0</ele><time>2026-04-19T08:31:49.38Z</time></trkpt><trkpt lat="41.0250698" lon="16.1890002"><ele>574.0</ele><time>2026-04-19T08:31:50.38Z</time></trkpt><trkpt lat="41.0250289" lon="16.188693"><ele>574.0</ele><time>2026-04-19T08:31:51.38Z</time></trkpt><trkpt lat="41.0249873" lon="16.1883925"><ele>574.0</ele><time>2026-04-19T08:31:52.38Z</time></trkpt><trkpt lat="41.0249477" lon="16.1881201"><ele>574.0</ele><time>2026-04-19T08:31:53.38Z</time></trkpt><trkpt lat="41.0249137" lon="16.1878861"><ele>574.0</ele><time>2026-04-19T08:31:54.38Z</time></trkpt><trkpt lat="41.0248864" lon="16.1876868"><ele>574.0</ele><time>2026-04-19T08:31:55.38Z</time></trkpt><trkpt lat="41.0248587" lon="16.1875316"><ele>574.0</ele><time>2026-04-19T08:31:56.38Z</time></trkpt><trkpt lat="41.0248119" lon="16.1874046"><ele>574.0</ele><time>2026-04-19T08:31:57.38Z</time></trkpt><trkpt lat="41.0247509" lon="16.1873117"><ele>573.5</ele><time>2026-04-19T08:31:58.38Z</time></trkpt><trkpt lat="41.0246596" lon="16.1872412"><ele>573.0</ele><time>2026-04-19T08:31:59.38Z</time></trkpt><trkpt lat="41.0245401" lon="16.1872069"><ele>572.5</ele><time>2026-04-19T08:32:00.38Z</time></trkpt><trkpt lat="41.0244081" lon="16.1871788"><ele>572.0</ele><time>2026-04-19T08:32:01.38Z</time></trkpt><trkpt lat="41.024256" lon="16.1871882"><ele>573.3333333333333</ele><time>2026-04-19T08:32:02.38Z</time></trkpt><trkpt lat="41.0240924" lon="16.1872121"><ele>574.6666666666666</ele><time>2026-04-19T08:32:03.38Z</time></trkpt><trkpt lat="41.0239243" lon="16.1872095"><ele>576.0</ele><time>2026-04-19T08:32:04.38Z</time></trkpt><trkpt lat="41.0237295" lon="16.1872061"><ele>576.0</ele><time>2026-04-19T08:32:05.38Z</time></trkpt><trkpt lat="41.0235383" lon="16.187206"><ele>576.0</ele><time>2026-04-19T08:32:06.38Z</time></trkpt><trkpt lat="41.0233796" lon="16.1871927"><ele>576.0</ele><time>2026-04-19T08:32:07.379Z</time></trkpt><trkpt lat="41.0232556" lon="16.1870852"><ele>576.3333333333334</ele><time>2026-04-19T08:32:08.38Z</time></trkpt><trkpt lat="41.0231119" lon="16.1869587"><ele>576.6666666666667</ele><time>2026-04-19T08:32:09.38Z</time></trkpt><trkpt lat="41.0229419" lon="16.1867746"><ele>577.0</ele><time>2026-04-19T08:32:10.38Z</time></trkpt><trkpt lat="41.0227722" lon="16.1865647"><ele>577.0</ele><time>2026-04-19T08:32:11.38Z</time></trkpt><trkpt lat="41.0226009" lon="16.1863617"><ele>577.0</ele><time>2026-04-19T08:32:12.38Z</time></trkpt><trkpt lat="41.0224403" lon="16.1861542"><ele>577.0</ele><time>2026-04-19T08:32:13.38Z</time></trkpt><trkpt lat="41.0222838" lon="16.185948"><ele>577.0</ele><time>2026-04-19T08:32:14.38Z</time></trkpt><trkpt lat="41.0221231" lon="16.1857346"><ele>577.0</ele><time>2026-04-19T08:32:15.38Z</time></trkpt><trkpt lat="41.0219455" lon="16.1855038"><ele>578.0</ele><time>2026-04-19T08:32:16.38Z</time></trkpt><trkpt lat="41.0217226" lon="16.1852134"><ele>579.0</ele><time>2026-04-19T08:32:17.38Z</time></trkpt><trkpt lat="41.0214985" lon="16.1849245"><ele>580.5</ele><time>2026-04-19T08:32:18.38Z</time></trkpt><trkpt lat="41.0212744" lon="16.1846418"><ele>582.0</ele><time>2026-04-19T08:32:19.38Z</time></trkpt><trkpt lat="41.02105" lon="16.1843499"><ele>582.0</ele><time>2026-04-19T08:32:20.38Z</time></trkpt><trkpt lat="41.0208269" lon="16.1840666"><ele>582.0</ele><time>2026-04-19T08:32:21.38Z</time></trkpt><trkpt lat="41.0205952" lon="16.1837887"><ele>585.5</ele><time>2026-04-19T08:32:22.38Z</time></trkpt><trkpt lat="41.0203456" lon="16.1835181"><ele>589.0</ele><time>2026-04-19T08:32:23.38Z</time></trkpt><trkpt lat="41.020074" lon="16.1832465"><ele>591.5</ele><time>2026-04-19T08:32:24.38Z</time></trkpt><trkpt lat="41.0198058" lon="16.1829943"><ele>594.0</ele><time>2026-04-19T08:32:25.38Z</time></trkpt><trkpt lat="41.0195703" lon="16.1827418"><ele>594.0</ele><time>2026-04-19T08:32:26.38Z</time></trkpt><trkpt lat="41.0193254" lon="16.18249"><ele>594.0</ele><time>2026-04-19T08:32:27.38Z</time></trkpt><trkpt lat="41.019074" lon="16.1822437"><ele>597.0</ele><time>2026-04-19T08:32:28.38Z</time></trkpt><trkpt lat="41.0188394" lon="16.1820237"><ele>600.0</ele><time>2026-04-19T08:32:29.38Z</time></trkpt><trkpt lat="41.0186301" lon="16.1818195"><ele>600.0</ele><time>2026-04-19T08:32:30.38Z</time></trkpt><trkpt lat="41.0184288" lon="16.1816155"><ele>600.0</ele><time>2026-04-19T08:32:31.38Z</time></trkpt><trkpt lat="41.0182459" lon="16.1814263"><ele>601.6666666666666</ele><time>2026-04-19T08:32:32.38Z</time></trkpt><trkpt lat="41.0180816" lon="16.1812488"><ele>603.3333333333333</ele><time>2026-04-19T08:32:33.38Z</time></trkpt><trkpt lat="41.0179059" lon="16.1810805"><ele>605.0</ele><time>2026-04-19T08:32:34.38Z</time></trkpt><trkpt lat="41.0176988" lon="16.1809289"><ele>604.5</ele><time>2026-04-19T08:32:35.38Z</time></trkpt><trkpt lat="41.0174525" lon="16.1808004"><ele>604.0</ele><time>2026-04-19T08:32:36.38Z</time></trkpt><trkpt lat="41.0171634" lon="16.1806778"><ele>605.0</ele><time>2026-04-19T08:32:37.38Z</time></trkpt><trkpt lat="41.0168571" lon="16.1805582"><ele>606.0</ele><time>2026-04-19T08:32:38.38Z</time></trkpt><trkpt lat="41.0165397" lon="16.1804146"><ele>606.0</ele><time>2026-04-19T08:32:39.38Z</time></trkpt><trkpt lat="41.0162397" lon="16.1802688"><ele>606.0</ele><time>2026-04-19T08:32:40.38Z</time></trkpt><trkpt lat="41.0159582" lon="16.1801417"><ele>607.5</ele><time>2026-04-19T08:32:41.38Z</time></trkpt><trkpt lat="41.0156997" lon="16.1800312"><ele>609.0</ele><time>2026-04-19T08:32:42.38Z</time></trkpt><trkpt lat="41.0154692" lon="16.1799182"><ele>610.0</ele><time>2026-04-19T08:32:43.38Z</time></trkpt><trkpt lat="41.0152455" lon="16.1798149"><ele>611.0</ele><time>2026-04-19T08:32:44.38Z</time></trkpt><trkpt lat="41.0150153" lon="16.1797114"><ele>612.5</ele><time>2026-04-19T08:32:45.38Z</time></trkpt><trkpt lat="41.0147836" lon="16.1796034"><ele>614.0</ele><time>2026-04-19T08:32:46.38Z</time></trkpt><trkpt lat="41.0145334" lon="16.1794885"><ele>614.0</ele><time>2026-04-19T08:32:47.38Z</time></trkpt><trkpt lat="41.014251" lon="16.1793569"><ele>614.0</ele><time>2026-04-19T08:32:48.38Z</time></trkpt><trkpt lat="41.013968" lon="16.1792263"><ele>615.5</ele><time>2026-04-19T08:32:49.38Z</time></trkpt><trkpt lat="41.0136987" lon="16.179104"><ele>617.0</ele><time>2026-04-19T08:32:50.38Z</time></trkpt><trkpt lat="41.0134217" lon="16.1789767"><ele>617.0</ele><time>2026-04-19T08:32:51.38Z</time></trkpt><trkpt lat="41.0131299" lon="16.178849"><ele>617.0</ele><time>2026-04-19T08:32:52.38Z</time></trkpt><trkpt lat="41.0128476" lon="16.1787223"><ele>617.0</ele><time>2026-04-19T08:32:53.38Z</time></trkpt><trkpt lat="41.0125776" lon="16.1786052"><ele>617.0</ele><time>2026-04-19T08:32:54.38Z</time></trkpt><trkpt lat="41.0123058" lon="16.1784799"><ele>616.5</ele><time>2026-04-19T08:32:55.38Z</time></trkpt><trkpt lat="41.0120548" lon="16.1783657"><ele>616.0</ele><time>2026-04-19T08:32:56.38Z</time></trkpt><trkpt lat="41.011837" lon="16.1782564"><ele>614.5</ele><time>2026-04-19T08:32:57.38Z</time></trkpt><trkpt lat="41.0116242" lon="16.1781012"><ele>613.0</ele><time>2026-04-19T08:32:58.38Z</time></trkpt><trkpt lat="41.0113764" lon="16.1779014"><ele>613.0</ele><time>2026-04-19T08:32:59.38Z</time></trkpt><trkpt lat="41.0111151" lon="16.1776839"><ele>613.0</ele><time>2026-04-19T08:33:00.38Z</time></trkpt><trkpt lat="41.0108504" lon="16.1774545"><ele>611.0</ele><time>2026-04-19T08:33:01.38Z</time></trkpt><trkpt lat="41.0105569" lon="16.1772029"><ele>609.0</ele><time>2026-04-19T08:33:02.38Z</time></trkpt><trkpt lat="41.0102467" lon="16.176938"><ele>608.5</ele><time>2026-04-19T08:33:03.38Z</time></trkpt><trkpt lat="41.0099469" lon="16.1766795"><ele>608.0</ele><time>2026-04-19T08:33:04.38Z</time></trkpt><trkpt lat="41.0096364" lon="16.1764301"><ele>606.5</ele><time>2026-04-19T08:33:05.38Z</time></trkpt><trkpt lat="41.0093376" lon="16.1761801"><ele>605.0</ele><time>2026-04-19T08:33:06.38Z</time></trkpt><trkpt lat="41.0090563" lon="16.1759308"><ele>605.0</ele><time>2026-04-19T08:33:07.38Z</time></trkpt><trkpt lat="41.0087823" lon="16.1756997"><ele>605.0</ele><time>2026-04-19T08:33:08.38Z</time></trkpt><trkpt lat="41.0085175" lon="16.1754773"><ele>603.5</ele><time>2026-04-19T08:33:09.38Z</time></trkpt><trkpt lat="41.0082477" lon="16.1752533"><ele>602.0</ele><time>2026-04-19T08:33:10.38Z</time></trkpt><trkpt lat="41.0079831" lon="16.1750289"><ele>602.0</ele><time>2026-04-19T08:33:11.38Z</time></trkpt><trkpt lat="41.0077338" lon="16.1748133"><ele>602.0</ele><time>2026-04-19T08:33:12.38Z</time></trkpt><trkpt lat="41.0074934" lon="16.1746135"><ele>602.0</ele><time>2026-04-19T08:33:13.38Z</time></trkpt><trkpt lat="41.0072431" lon="16.1744149"><ele>602.0</ele><time>2026-04-19T08:33:14.38Z</time></trkpt><trkpt lat="41.006976" lon="16.1742006"><ele>602.0</ele><time>2026-04-19T08:33:15.38Z</time></trkpt><trkpt lat="41.0067061" lon="16.1739708"><ele>602.0</ele><time>2026-04-19T08:33:16.38Z</time></trkpt><trkpt lat="41.0064299" lon="16.1737331"><ele>602.0</ele><time>2026-04-19T08:33:17.38Z</time></trkpt><trkpt lat="41.0061697" lon="16.1735137"><ele>602.0</ele><time>2026-04-19T08:33:18.38Z</time></trkpt><trkpt lat="41.0059144" lon="16.1732992"><ele>599.0</ele><time>2026-04-19T08:33:19.379Z</time></trkpt><trkpt lat="41.00565" lon="16.1730737"><ele>596.0</ele><time>2026-04-19T08:33:20.379Z</time></trkpt><trkpt lat="41.0053732" lon="16.1728373"><ele>596.0</ele><time>2026-04-19T08:33:21.379Z</time></trkpt><trkpt lat="41.0050863" lon="16.1725919"><ele>596.0</ele><time>2026-04-19T08:33:22.379Z</time></trkpt><trkpt lat="41.0048027" lon="16.1723491"><ele>596.0</ele><time>2026-04-19T08:33:23.379Z</time></trkpt><trkpt lat="41.0045284" lon="16.1721046"><ele>596.0</ele><time>2026-04-19T08:33:24.379Z</time></trkpt><trkpt lat="41.0042682" lon="16.1718725"><ele>597.0</ele><time>2026-04-19T08:33:25.379Z</time></trkpt><trkpt lat="41.0040483" lon="16.1716701"><ele>598.0</ele><time>2026-04-19T08:33:26.379Z</time></trkpt><trkpt lat="41.0038614" lon="16.171493"><ele>598.3333333333334</ele><time>2026-04-19T08:33:27.379Z</time></trkpt><trkpt lat="41.0036949" lon="16.1713271"><ele>598.6666666666666</ele><time>2026-04-19T08:33:28.379Z</time></trkpt><trkpt lat="41.0035357" lon="16.1712023"><ele>599.0</ele><time>2026-04-19T08:33:29.379Z</time></trkpt><trkpt lat="41.003374" lon="16.1711289"><ele>599.6666666666666</ele><time>2026-04-19T08:33:30.379Z</time></trkpt><trkpt lat="41.0031811" lon="16.1711002"><ele>600.3333333333334</ele><time>2026-04-19T08:33:31.379Z</time></trkpt><trkpt lat="41.0029668" lon="16.1710818"><ele>601.0</ele><time>2026-04-19T08:33:32.379Z</time></trkpt><trkpt lat="41.0027096" lon="16.1710858"><ele>601.0</ele><time>2026-04-19T08:33:33.379Z</time></trkpt><trkpt lat="41.0024351" lon="16.1710863"><ele>601.0</ele><time>2026-04-19T08:33:34.379Z</time></trkpt><trkpt lat="41.0021778" lon="16.1710775"><ele>601.0</ele><time>2026-04-19T08:33:35.379Z</time></trkpt><trkpt lat="41.001926" lon="16.1710725"><ele>601.0</ele><time>2026-04-19T08:33:36.379Z</time></trkpt><trkpt lat="41.0016573" lon="16.1710651"><ele>602.0</ele><time>2026-04-19T08:33:37.379Z</time></trkpt><trkpt lat="41.0013962" lon="16.1710657"><ele>603.0</ele><time>2026-04-19T08:33:38.379Z</time></trkpt><trkpt lat="41.0011745" lon="16.1710589"><ele>603.0</ele><time>2026-04-19T08:33:39.379Z</time></trkpt><trkpt lat="41.0009827" lon="16.1710584"><ele>603.0</ele><time>2026-04-19T08:33:40.379Z</time></trkpt><trkpt lat="41.0008132" lon="16.17105"><ele>603.0</ele><time>2026-04-19T08:33:41.379Z</time></trkpt><trkpt lat="41.0006505" lon="16.1710835"><ele>604.0</ele><time>2026-04-19T08:33:42.379Z</time></trkpt><trkpt lat="41.0005125" lon="16.1711732"><ele>605.0</ele><time>2026-04-19T08:33:43.379Z</time></trkpt><trkpt lat="41.0003849" lon="16.1712816"><ele>606.0</ele><time>2026-04-19T08:33:44.379Z</time></trkpt><trkpt lat="41.0002722" lon="16.1714124"><ele>605.0</ele><time>2026-04-19T08:33:45.379Z</time></trkpt><trkpt lat="41.0002039" lon="16.171593"><ele>604.0</ele><time>2026-04-19T08:33:46.379Z</time></trkpt><trkpt lat="41.0001577" lon="16.1718315"><ele>603.0</ele><time>2026-04-19T08:33:47.379Z</time></trkpt><trkpt lat="41.0000997" lon="16.1721276"><ele>601.5</ele><time>2026-04-19T08:33:48.379Z</time></trkpt><trkpt lat="41.0000346" lon="16.1724645"><ele>600.0</ele><time>2026-04-19T08:33:49.379Z</time></trkpt><trkpt lat="40.9999798" lon="16.1727948"><ele>600.0</ele><time>2026-04-19T08:33:50.379Z</time></trkpt><trkpt lat="40.9999269" lon="16.1730956"><ele>600.0</ele><time>2026-04-19T08:33:51.379Z</time></trkpt><trkpt lat="40.9998788" lon="16.1733693"><ele>600.0</ele><time>2026-04-19T08:33:52.379Z</time></trkpt><trkpt lat="40.9998264" lon="16.1736191"><ele>599.0</ele><time>2026-04-19T08:33:53.379Z</time></trkpt><trkpt lat="40.9997714" lon="16.1738426"><ele>598.0</ele><time>2026-04-19T08:33:54.379Z</time></trkpt><trkpt lat="40.9996797" lon="16.1740645"><ele>597.0</ele><time>2026-04-19T08:33:55.379Z</time></trkpt><trkpt lat="40.9995609" lon="16.1743021"><ele>595.3333333333334</ele><time>2026-04-19T08:33:56.379Z</time></trkpt><trkpt lat="40.9994375" lon="16.1745485"><ele>593.6666666666667</ele><time>2026-04-19T08:33:57.379Z</time></trkpt><trkpt lat="40.9993259" lon="16.174747"><ele>592.0</ele><time>2026-04-19T08:33:58.379Z</time></trkpt><trkpt lat="40.9992239" lon="16.1749141"><ele>590.75</ele><time>2026-04-19T08:33:59.379Z</time></trkpt><trkpt lat="40.9991296" lon="16.1750499"><ele>589.5</ele><time>2026-04-19T08:34:00.379Z</time></trkpt><trkpt lat="40.999032" lon="16.1751299"><ele>588.25</ele><time>2026-04-19T08:34:01.379Z</time></trkpt><trkpt lat="40.998918" lon="16.1752102"><ele>587.0</ele><time>2026-04-19T08:34:02.379Z</time></trkpt><trkpt lat="40.9987644" lon="16.1752233"><ele>587.0</ele><time>2026-04-19T08:34:03.379Z</time></trkpt><trkpt lat="40.9985848" lon="16.1752027"><ele>587.0</ele><time>2026-04-19T08:34:04.379Z</time></trkpt><trkpt lat="40.998375" lon="16.175156"><ele>587.0</ele><time>2026-04-19T08:34:05.379Z</time></trkpt><trkpt lat="40.9981528" lon="16.1750823"><ele>587.0</ele><time>2026-04-19T08:34:06.379Z</time></trkpt><trkpt lat="40.9979334" lon="16.1750006"><ele>587.0</ele><time>2026-04-19T08:34:07.379Z</time></trkpt><trkpt lat="40.9977415" lon="16.174934"><ele>587.0</ele><time>2026-04-19T08:34:08.379Z</time></trkpt><trkpt lat="40.9975785" lon="16.1748865"><ele>586.6666666666666</ele><time>2026-04-19T08:34:09.379Z</time></trkpt><trkpt lat="40.9973856" lon="16.1748597"><ele>586.3333333333334</ele><time>2026-04-19T08:34:10.379Z</time></trkpt><trkpt lat="40.9971816" lon="16.1748488"><ele>586.0</ele><time>2026-04-19T08:34:11.379Z</time></trkpt><trkpt lat="40.9969663" lon="16.1748683"><ele>586.0</ele><time>2026-04-19T08:34:12.379Z</time></trkpt><trkpt lat="40.9967392" lon="16.1749075"><ele>586.0</ele><time>2026-04-19T08:34:13.379Z</time></trkpt><trkpt lat="40.9965081" lon="16.174982"><ele>585.6666666666667</ele><time>2026-04-19T08:34:14.379Z</time></trkpt><trkpt lat="40.9962959" lon="16.1750412"><ele>585.3333333333334</ele><time>2026-04-19T08:34:15.379Z</time></trkpt><trkpt lat="40.9961281" lon="16.175108"><ele>585.0</ele><time>2026-04-19T08:34:16.379Z</time></trkpt><trkpt lat="40.9959836" lon="16.175176"><ele>585.0</ele><time>2026-04-19T08:34:17.379Z</time></trkpt><trkpt lat="40.9958755" lon="16.1752563"><ele>585.0</ele><time>2026-04-19T08:34:18.379Z</time></trkpt><trkpt lat="40.9957701" lon="16.175361"><ele>585.0</ele><time>2026-04-19T08:34:19.379Z</time></trkpt><trkpt lat="40.9957007" lon="16.1754979"><ele>585.0</ele><time>2026-04-19T08:34:20.379Z</time></trkpt><trkpt lat="40.9956767" lon="16.1756839"><ele>583.75</ele><time>2026-04-19T08:34:21.379Z</time></trkpt><trkpt lat="40.9956748" lon="16.175865"><ele>582.5</ele><time>2026-04-19T08:34:22.379Z</time></trkpt><trkpt lat="40.995679" lon="16.1760692"><ele>581.25</ele><time>2026-04-19T08:34:23.379Z</time></trkpt><trkpt lat="40.995675" lon="16.1762712"><ele>580.0</ele><time>2026-04-19T08:34:24.379Z</time></trkpt><trkpt lat="40.9956542" lon="16.1764627"><ele>580.3333333333334</ele><time>2026-04-19T08:34:25.379Z</time></trkpt><trkpt lat="40.9955876" lon="16.1766786"><ele>580.6666666666666</ele><time>2026-04-19T08:34:26.379Z</time></trkpt><trkpt lat="40.9954972" lon="16.1769005"><ele>581.0</ele><time>2026-04-19T08:34:27.379Z</time></trkpt><trkpt lat="40.9953937" lon="16.1771051"><ele>581.0</ele><time>2026-04-19T08:34:28.379Z</time></trkpt><trkpt lat="40.9952689" lon="16.1772916"><ele>581.0</ele><time>2026-04-19T08:34:29.379Z</time></trkpt><trkpt lat="40.9951461" lon="16.1774441"><ele>581.0</ele><time>2026-04-19T08:34:30.379Z</time></trkpt><trkpt lat="40.9950465" lon="16.1775719"><ele>579.0</ele><time>2026-04-19T08:34:31.379Z</time></trkpt><trkpt lat="40.994973" lon="16.1777702"><ele>577.0</ele><time>2026-04-19T08:34:32.379Z</time></trkpt><trkpt lat="40.9949196" lon="16.1780087"><ele>575.0</ele><time>2026-04-19T08:34:33.379Z</time></trkpt><trkpt lat="40.9948889" lon="16.1782734"><ele>573.3333333333333</ele><time>2026-04-19T08:34:34.379Z</time></trkpt><trkpt lat="40.9948611" lon="16.1785297"><ele>571.6666666666666</ele><time>2026-04-19T08:34:35.379Z</time></trkpt><trkpt lat="40.9948363" lon="16.1787389"><ele>570.0</ele><time>2026-04-19T08:34:36.379Z</time></trkpt><trkpt lat="40.994804" lon="16.178923"><ele>569.25</ele><time>2026-04-19T08:34:37.379Z</time></trkpt><trkpt lat="40.9947514" lon="16.1790922"><ele>568.5</ele><time>2026-04-19T08:34:38.379Z</time></trkpt><trkpt lat="40.9946755" lon="16.1792616"><ele>567.75</ele><time>2026-04-19T08:34:39.379Z</time></trkpt><trkpt lat="40.9945884" lon="16.1794034"><ele>567.0</ele><time>2026-04-19T08:34:40.379Z</time></trkpt><trkpt lat="40.9944915" lon="16.1794932"><ele>567.0</ele><time>2026-04-19T08:34:41.379Z</time></trkpt><trkpt lat="40.9943739" lon="16.1795438"><ele>567.0</ele><time>2026-04-19T08:34:42.379Z</time></trkpt><trkpt lat="40.9942444" lon="16.1795586"><ele>567.0</ele><time>2026-04-19T08:34:43.379Z</time></trkpt><trkpt lat="40.9941025" lon="16.1795276"><ele>567.0</ele><time>2026-04-19T08:34:44.379Z</time></trkpt><trkpt lat="40.9939307" lon="16.1794712"><ele>564.6666666666666</ele><time>2026-04-19T08:34:45.379Z</time></trkpt><trkpt lat="40.9937838" lon="16.1793645"><ele>562.3333333333333</ele><time>2026-04-19T08:34:46.379Z</time></trkpt><trkpt lat="40.9936636" lon="16.1792565"><ele>560.0</ele><time>2026-04-19T08:34:47.379Z</time></trkpt><trkpt lat="40.9935461" lon="16.1791497"><ele>560.0</ele><time>2026-04-19T08:34:48.379Z</time></trkpt><trkpt lat="40.9934394" lon="16.1790551"><ele>560.0</ele><time>2026-04-19T08:34:49.379Z</time></trkpt><trkpt lat="40.9933311" lon="16.1790144"><ele>560.0</ele><time>2026-04-19T08:34:50.379Z</time></trkpt><trkpt lat="40.9932153" lon="16.1790228"><ele>560.0</ele><time>2026-04-19T08:34:51.379Z</time></trkpt><trkpt lat="40.9931121" lon="16.1791071"><ele>557.75</ele><time>2026-04-19T08:34:52.379Z</time></trkpt><trkpt lat="40.9930156" lon="16.1792274"><ele>555.5</ele><time>2026-04-19T08:34:53.379Z</time></trkpt><trkpt lat="40.9929213" lon="16.1793686"><ele>553.25</ele><time>2026-04-19T08:34:54.379Z</time></trkpt><trkpt lat="40.9928373" lon="16.1794796"><ele>551.0</ele><time>2026-04-19T08:34:55.379Z</time></trkpt><trkpt lat="40.9927335" lon="16.1795582"><ele>551.0</ele><time>2026-04-19T08:34:56.379Z</time></trkpt><trkpt lat="40.9925926" lon="16.1795931"><ele>551.0</ele><time>2026-04-19T08:34:57.379Z</time></trkpt><trkpt lat="40.9924089" lon="16.1795983"><ele>551.0</ele><time>2026-04-19T08:34:58.379Z</time></trkpt><trkpt lat="40.9922076" lon="16.1795913"><ele>548.6666666666666</ele><time>2026-04-19T08:34:59.379Z</time></trkpt><trkpt lat="40.9920365" lon="16.1795748"><ele>546.3333333333334</ele><time>2026-04-19T08:35:00.379Z</time></trkpt><trkpt lat="40.9918826" lon="16.1795532"><ele>544.0</ele><time>2026-04-19T08:35:01.379Z</time></trkpt><trkpt lat="40.9917355" lon="16.1795133"><ele>543.0</ele><time>2026-04-19T08:35:02.379Z</time></trkpt><trkpt lat="40.9915823" lon="16.1794465"><ele>542.0</ele><time>2026-04-19T08:35:03.379Z</time></trkpt><trkpt lat="40.9914351" lon="16.1793812"><ele>541.0</ele><time>2026-04-19T08:35:04.379Z</time></trkpt><trkpt lat="40.9912914" lon="16.1793776"><ele>541.0</ele><time>2026-04-19T08:35:05.379Z</time></trkpt><trkpt lat="40.9911183" lon="16.179417"><ele>541.0</ele><time>2026-04-19T08:35:06.379Z</time></trkpt><trkpt lat="40.9909344" lon="16.1794836"><ele>541.0</ele><time>2026-04-19T08:35:07.379Z</time></trkpt><trkpt lat="40.9907703" lon="16.1795106"><ele>538.3333333333334</ele><time>2026-04-19T08:35:08.379Z</time></trkpt><trkpt lat="40.9906162" lon="16.1795275"><ele>535.6666666666666</ele><time>2026-04-19T08:35:09.379Z</time></trkpt><trkpt lat="40.9904846" lon="16.179568"><ele>533.0</ele><time>2026-04-19T08:35:10.379Z</time></trkpt><trkpt lat="40.9903315" lon="16.1796679"><ele>533.0</ele><time>2026-04-19T08:35:11.379Z</time></trkpt><trkpt lat="40.9902084" lon="16.1797877"><ele>533.0</ele><time>2026-04-19T08:35:12.379Z</time></trkpt><trkpt lat="40.9900923" lon="16.1798885"><ele>533.0</ele><time>2026-04-19T08:35:13.379Z</time></trkpt><trkpt lat="40.9899801" lon="16.1799799"><ele>533.0</ele><time>2026-04-19T08:35:14.379Z</time></trkpt><trkpt lat="40.9898974" lon="16.1799518"><ele>531.0</ele><time>2026-04-19T08:35:15.379Z</time></trkpt><trkpt lat="40.9897902" lon="16.1799084"><ele>529.0</ele><time>2026-04-19T08:35:16.379Z</time></trkpt><trkpt lat="40.9896908" lon="16.1798243"><ele>527.0</ele><time>2026-04-19T08:35:17.379Z</time></trkpt><trkpt lat="40.9896272" lon="16.179695"><ele>525.0</ele><time>2026-04-19T08:35:18.379Z</time></trkpt><trkpt lat="40.98955" lon="16.1795024"><ele>525.0</ele><time>2026-04-19T08:35:19.379Z</time></trkpt><trkpt lat="40.9894765" lon="16.1792835"><ele>525.0</ele><time>2026-04-19T08:35:20.379Z</time></trkpt><trkpt lat="40.9893951" lon="16.1790336"><ele>525.0</ele><time>2026-04-19T08:35:21.379Z</time></trkpt><trkpt lat="40.9892979" lon="16.1787654"><ele>519.0</ele><time>2026-04-19T08:35:22.379Z</time></trkpt><trkpt lat="40.9892071" lon="16.178493"><ele>513.0</ele><time>2026-04-19T08:35:23.379Z</time></trkpt><trkpt lat="40.9891087" lon="16.1782243"><ele>512.0</ele><time>2026-04-19T08:35:24.379Z</time></trkpt><trkpt lat="40.9889899" lon="16.1779634"><ele>511.0</ele><time>2026-04-19T08:35:25.379Z</time></trkpt><trkpt lat="40.9888492" lon="16.1776874"><ele>511.0</ele><time>2026-04-19T08:35:26.379Z</time></trkpt><trkpt lat="40.988698" lon="16.1774138"><ele>511.0</ele><time>2026-04-19T08:35:27.379Z</time></trkpt><trkpt lat="40.9885483" lon="16.1771407"><ele>507.0</ele><time>2026-04-19T08:35:28.379Z</time></trkpt><trkpt lat="40.9884127" lon="16.176886"><ele>503.0</ele><time>2026-04-19T08:35:29.379Z</time></trkpt><trkpt lat="40.9882752" lon="16.1766237"><ele>501.66666666666663</ele><time>2026-04-19T08:35:30.379Z</time></trkpt><trkpt lat="40.9881711" lon="16.1763652"><ele>500.33333333333337</ele><time>2026-04-19T08:35:31.379Z</time></trkpt><trkpt lat="40.9880749" lon="16.1761431"><ele>499.0</ele><time>2026-04-19T08:35:32.379Z</time></trkpt><trkpt lat="40.9879972" lon="16.1759703"><ele>499.0</ele><time>2026-04-19T08:35:33.379Z</time></trkpt><trkpt lat="40.9879251" lon="16.1758571"><ele>499.0</ele><time>2026-04-19T08:35:34.379Z</time></trkpt><trkpt lat="40.987849" lon="16.1757609"><ele>499.0</ele><time>2026-04-19T08:35:35.379Z</time></trkpt><trkpt lat="40.9877629" lon="16.1756785"><ele>499.0</ele><time>2026-04-19T08:35:36.379Z</time></trkpt><trkpt lat="40.9876276" lon="16.1755808"><ele>497.6666666666667</ele><time>2026-04-19T08:35:37.379Z</time></trkpt><trkpt lat="40.9874585" lon="16.1754686"><ele>496.33333333333337</ele><time>2026-04-19T08:35:38.379Z</time></trkpt><trkpt lat="40.9872804" lon="16.175346"><ele>495.0</ele><time>2026-04-19T08:35:39.379Z</time></trkpt><trkpt lat="40.9871126" lon="16.1751914"><ele>495.0</ele><time>2026-04-19T08:35:40.379Z</time></trkpt><trkpt lat="40.9869482" lon="16.1749926"><ele>495.0</ele><time>2026-04-19T08:35:41.379Z</time></trkpt><trkpt lat="40.9867796" lon="16.1748031"><ele>495.0</ele><time>2026-04-19T08:35:42.379Z</time></trkpt><trkpt lat="40.9866037" lon="16.174625"><ele>490.0</ele><time>2026-04-19T08:35:43.379Z</time></trkpt><trkpt lat="40.9863831" lon="16.1744641"><ele>485.0</ele><time>2026-04-19T08:35:44.379Z</time></trkpt><trkpt lat="40.9861614" lon="16.174315"><ele>485.0</ele><time>2026-04-19T08:35:45.379Z</time></trkpt><trkpt lat="40.9859467" lon="16.1741783"><ele>485.0</ele><time>2026-04-19T08:35:46.379Z</time></trkpt><trkpt lat="40.9857417" lon="16.1740426"><ele>483.3333333333333</ele><time>2026-04-19T08:35:47.379Z</time></trkpt><trkpt lat="40.9855484" lon="16.1739044"><ele>481.66666666666663</ele><time>2026-04-19T08:35:48.379Z</time></trkpt><trkpt lat="40.9853949" lon="16.1737454"><ele>480.0</ele><time>2026-04-19T08:35:49.379Z</time></trkpt><trkpt lat="40.9852711" lon="16.1735977"><ele>480.0</ele><time>2026-04-19T08:35:50.379Z</time></trkpt><trkpt lat="40.9851764" lon="16.1734536"><ele>480.0</ele><time>2026-04-19T08:35:51.379Z</time></trkpt><trkpt lat="40.9850846" lon="16.1733361"><ele>480.0</ele><time>2026-04-19T08:35:52.379Z</time></trkpt><trkpt lat="40.9849863" lon="16.1732521"><ele>480.0</ele><time>2026-04-19T08:35:53.379Z</time></trkpt><trkpt lat="40.9848896" lon="16.1732043"><ele>478.0</ele><time>2026-04-19T08:35:54.379Z</time></trkpt><trkpt lat="40.9847693" lon="16.1732103"><ele>476.0</ele><time>2026-04-19T08:35:55.379Z</time></trkpt><trkpt lat="40.9846155" lon="16.173248"><ele>474.0</ele><time>2026-04-19T08:35:56.379Z</time></trkpt><trkpt lat="40.9844366" lon="16.1732932"><ele>474.0</ele><time>2026-04-19T08:35:57.379Z</time></trkpt><trkpt lat="40.9842418" lon="16.1733375"><ele>474.0</ele><time>2026-04-19T08:35:58.379Z</time></trkpt><trkpt lat="40.9840225" lon="16.173401"><ele>474.0</ele><time>2026-04-19T08:35:59.379Z</time></trkpt><trkpt lat="40.9837844" lon="16.1734735"><ele>472.5</ele><time>2026-04-19T08:36:00.379Z</time></trkpt><trkpt lat="40.9835345" lon="16.1735488"><ele>471.0</ele><time>2026-04-19T08:36:01.379Z</time></trkpt><trkpt lat="40.9832514" lon="16.173638"><ele>468.5</ele><time>2026-04-19T08:36:02.379Z</time></trkpt><trkpt lat="40.9829385" lon="16.1737304"><ele>466.0</ele><time>2026-04-19T08:36:03.379Z</time></trkpt><trkpt lat="40.9826315" lon="16.1738254"><ele>463.5</ele><time>2026-04-19T08:36:04.379Z</time></trkpt><trkpt lat="40.9823393" lon="16.1739109"><ele>461.0</ele><time>2026-04-19T08:36:05.379Z</time></trkpt><trkpt lat="40.9820567" lon="16.1739878"><ele>461.5</ele><time>2026-04-19T08:36:06.379Z</time></trkpt><trkpt lat="40.9817678" lon="16.174076"><ele>462.0</ele><time>2026-04-19T08:36:07.379Z</time></trkpt><trkpt lat="40.9814584" lon="16.1741716"><ele>460.5</ele><time>2026-04-19T08:36:08.379Z</time></trkpt><trkpt lat="40.981134" lon="16.1742646"><ele>459.0</ele><time>2026-04-19T08:36:09.379Z</time></trkpt><trkpt lat="40.9808289" lon="16.1743574"><ele>455.5</ele><time>2026-04-19T08:36:10.379Z</time></trkpt><trkpt lat="40.980529" lon="16.1744396"><ele>452.0</ele><time>2026-04-19T08:36:11.379Z</time></trkpt><trkpt lat="40.9802121" lon="16.174534"><ele>450.0</ele><time>2026-04-19T08:36:12.379Z</time></trkpt><trkpt lat="40.9798797" lon="16.1746381"><ele>448.0</ele><time>2026-04-19T08:36:13.379Z</time></trkpt><trkpt lat="40.9795394" lon="16.1747494"><ele>448.0</ele><time>2026-04-19T08:36:14.379Z</time></trkpt><trkpt lat="40.9792056" lon="16.1748537"><ele>448.0</ele><time>2026-04-19T08:36:15.379Z</time></trkpt><trkpt lat="40.9788733" lon="16.1749553"><ele>446.0</ele><time>2026-04-19T08:36:16.379Z</time></trkpt><trkpt lat="40.9785366" lon="16.1750533"><ele>444.0</ele><time>2026-04-19T08:36:17.379Z</time></trkpt><trkpt lat="40.9781986" lon="16.1751584"><ele>442.0</ele><time>2026-04-19T08:36:18.379Z</time></trkpt><trkpt lat="40.9778675" lon="16.1752609"><ele>440.0</ele><time>2026-04-19T08:36:19.379Z</time></trkpt><trkpt lat="40.9775513" lon="16.1753454"><ele>438.0</ele><time>2026-04-19T08:36:20.379Z</time></trkpt><trkpt lat="40.9772414" lon="16.1754401"><ele>436.0</ele><time>2026-04-19T08:36:21.379Z</time></trkpt><trkpt lat="40.976924" lon="16.1755289"><ele>434.0</ele><time>2026-04-19T08:36:22.379Z</time></trkpt><trkpt lat="40.9765967" lon="16.1756256"><ele>432.0</ele><time>2026-04-19T08:36:23.379Z</time></trkpt><trkpt lat="40.9762679" lon="16.1757247"><ele>432.0</ele><time>2026-04-19T08:36:24.379Z</time></trkpt><trkpt lat="40.9759582" lon="16.1758184"><ele>432.0</ele><time>2026-04-19T08:36:25.379Z</time></trkpt><trkpt lat="40.9756747" lon="16.175918"><ele>430.0</ele><time>2026-04-19T08:36:26.379Z</time></trkpt><trkpt lat="40.9754162" lon="16.1759857"><ele>428.0</ele><time>2026-04-19T08:36:27.379Z</time></trkpt><trkpt lat="40.975172" lon="16.1760491"><ele>426.5</ele><time>2026-04-19T08:36:28.379Z</time></trkpt><trkpt lat="40.9749313" lon="16.1761383"><ele>425.0</ele><time>2026-04-19T08:36:29.379Z</time></trkpt><trkpt lat="40.9746685" lon="16.1762626"><ele>425.0</ele><time>2026-04-19T08:36:30.379Z</time></trkpt><trkpt lat="40.9743998" lon="16.1763959"><ele>425.0</ele><time>2026-04-19T08:36:31.379Z</time></trkpt><trkpt lat="40.9741476" lon="16.1765301"><ele>423.5</ele><time>2026-04-19T08:36:32.379Z</time></trkpt><trkpt lat="40.9738936" lon="16.176662"><ele>422.0</ele><time>2026-04-19T08:36:33.379Z</time></trkpt><trkpt lat="40.9736213" lon="16.1768103"><ele>419.5</ele><time>2026-04-19T08:36:34.379Z</time></trkpt><trkpt lat="40.9733343" lon="16.1769652"><ele>417.0</ele><time>2026-04-19T08:36:35.379Z</time></trkpt><trkpt lat="40.9730318" lon="16.1771246"><ele>417.0</ele><time>2026-04-19T08:36:36.379Z</time></trkpt><trkpt lat="40.9727353" lon="16.1772791"><ele>417.0</ele><time>2026-04-19T08:36:37.379Z</time></trkpt><trkpt lat="40.9724298" lon="16.1774329"><ele>415.5</ele><time>2026-04-19T08:36:38.379Z</time></trkpt><trkpt lat="40.9721093" lon="16.1775935"><ele>414.0</ele><time>2026-04-19T08:36:39.379Z</time></trkpt><trkpt lat="40.9717653" lon="16.1777718"><ele>412.5</ele><time>2026-04-19T08:36:40.379Z</time></trkpt><trkpt lat="40.9713998" lon="16.1779591"><ele>411.0</ele><time>2026-04-19T08:36:41.379Z</time></trkpt><trkpt lat="40.9710401" lon="16.1781455"><ele>411.5</ele><time>2026-04-19T08:36:42.379Z</time></trkpt><trkpt lat="40.9707076" lon="16.1783288"><ele>412.0</ele><time>2026-04-19T08:36:43.379Z</time></trkpt><trkpt lat="40.9703964" lon="16.1784942"><ele>412.0</ele><time>2026-04-19T08:36:44.379Z</time></trkpt><trkpt lat="40.9700966" lon="16.1786433"><ele>412.0</ele><time>2026-04-19T08:36:45.379Z</time></trkpt><trkpt lat="40.9698139" lon="16.1787893"><ele>411.0</ele><time>2026-04-19T08:36:46.379Z</time></trkpt><trkpt lat="40.9695383" lon="16.1789259"><ele>410.0</ele><time>2026-04-19T08:36:47.379Z</time></trkpt><trkpt lat="40.9693095" lon="16.1790487"><ele>410.3333333333333</ele><time>2026-04-19T08:36:48.379Z</time></trkpt><trkpt lat="40.969115" lon="16.1791505"><ele>410.66666666666663</ele><time>2026-04-19T08:36:49.379Z</time></trkpt><trkpt lat="40.9689472" lon="16.179251"><ele>411.0</ele><time>2026-04-19T08:36:50.379Z</time></trkpt><trkpt lat="40.96881" lon="16.1793201"><ele>411.0</ele><time>2026-04-19T08:36:51.379Z</time></trkpt><trkpt lat="40.9686989" lon="16.1793639"><ele>411.0</ele><time>2026-04-19T08:36:52.379Z</time></trkpt><trkpt lat="40.9686029" lon="16.1793537"><ele>411.0</ele><time>2026-04-19T08:36:53.379Z</time></trkpt><trkpt lat="40.9685169" lon="16.1793134"><ele>411.0</ele><time>2026-04-19T08:36:54.379Z</time></trkpt><trkpt lat="40.96846" lon="16.179259"><ele>411.0</ele><time>2026-04-19T08:36:55.379Z</time></trkpt><trkpt lat="40.9684133" lon="16.1790984"><ele>410.25</ele><time>2026-04-19T08:36:57.379Z</time></trkpt><trkpt lat="40.9684114" lon="16.1789676"><ele>409.5</ele><time>2026-04-19T08:36:58.379Z</time></trkpt><trkpt lat="40.9683971" lon="16.1787836"><ele>408.75</ele><time>2026-04-19T08:36:59.379Z</time></trkpt><trkpt lat="40.9683694" lon="16.1785636"><ele>408.0</ele><time>2026-04-19T08:37:00.379Z</time></trkpt><trkpt lat="40.9683407" lon="16.1783272"><ele>406.66666666666663</ele><time>2026-04-19T08:37:01.379Z</time></trkpt><trkpt lat="40.9682993" lon="16.1780879"><ele>405.3333333333333</ele><time>2026-04-19T08:37:02.379Z</time></trkpt><trkpt lat="40.9682454" lon="16.1778407"><ele>404.0</ele><time>2026-04-19T08:37:03.379Z</time></trkpt><trkpt lat="40.9681794" lon="16.1775822"><ele>404.0</ele><time>2026-04-19T08:37:04.379Z</time></trkpt><trkpt lat="40.9681074" lon="16.1773584"><ele>404.0</ele><time>2026-04-19T08:37:05.379Z</time></trkpt><trkpt lat="40.9680269" lon="16.1771541"><ele>404.0</ele><time>2026-04-19T08:37:06.379Z</time></trkpt><trkpt lat="40.9679088" lon="16.1769625"><ele>405.66666666666663</ele><time>2026-04-19T08:37:07.379Z</time></trkpt><trkpt lat="40.9677607" lon="16.1767724"><ele>407.33333333333337</ele><time>2026-04-19T08:37:08.379Z</time></trkpt><trkpt lat="40.967623" lon="16.1766199"><ele>409.0</ele><time>2026-04-19T08:37:09.379Z</time></trkpt><trkpt lat="40.9675246" lon="16.1764622"><ele>410.0</ele><time>2026-04-19T08:37:10.379Z</time></trkpt><trkpt lat="40.9674355" lon="16.1762733"><ele>411.0</ele><time>2026-04-19T08:37:11.379Z</time></trkpt><trkpt lat="40.9673604" lon="16.1760489"><ele>412.0</ele><time>2026-04-19T08:37:12.379Z</time></trkpt><trkpt lat="40.9673136" lon="16.1758191"><ele>412.6666666666667</ele><time>2026-04-19T08:37:13.379Z</time></trkpt><trkpt lat="40.9672708" lon="16.1755802"><ele>413.33333333333337</ele><time>2026-04-19T08:37:14.379Z</time></trkpt><trkpt lat="40.9672197" lon="16.1753164"><ele>414.0</ele><time>2026-04-19T08:37:15.379Z</time></trkpt><trkpt lat="40.9671773" lon="16.1750073"><ele>415.0</ele><time>2026-04-19T08:37:16.379Z</time></trkpt><trkpt lat="40.9671445" lon="16.1746725"><ele>416.0</ele><time>2026-04-19T08:37:17.378Z</time></trkpt><trkpt lat="40.9671217" lon="16.1743334"><ele>417.0</ele><time>2026-04-19T08:37:18.378Z</time></trkpt><trkpt lat="40.9670901" lon="16.1739713"><ele>418.0</ele><time>2026-04-19T08:37:19.378Z</time></trkpt><trkpt lat="40.967044" lon="16.1735637"><ele>418.0</ele><time>2026-04-19T08:37:20.378Z</time></trkpt><trkpt lat="40.9670095" lon="16.1731448"><ele>418.0</ele><time>2026-04-19T08:37:21.378Z</time></trkpt><trkpt lat="40.9669674" lon="16.1727361"><ele>418.0</ele><time>2026-04-19T08:37:22.378Z</time></trkpt><trkpt lat="40.9669341" lon="16.172371"><ele>418.0</ele><time>2026-04-19T08:37:23.378Z</time></trkpt><trkpt lat="40.9668985" lon="16.1719934"><ele>418.0</ele><time>2026-04-19T08:37:24.378Z</time></trkpt><trkpt lat="40.9668585" lon="16.1715992"><ele>418.0</ele><time>2026-04-19T08:37:25.378Z</time></trkpt><trkpt lat="40.9668162" lon="16.1711889"><ele>418.0</ele><time>2026-04-19T08:37:26.378Z</time></trkpt><trkpt lat="40.9667732" lon="16.1707714"><ele>418.0</ele><time>2026-04-19T08:37:27.378Z</time></trkpt><trkpt lat="40.9667326" lon="16.1703807"><ele>417.5</ele><time>2026-04-19T08:37:28.378Z</time></trkpt><trkpt lat="40.9667006" lon="16.1700121"><ele>417.0</ele><time>2026-04-19T08:37:29.378Z</time></trkpt><trkpt lat="40.9666707" lon="16.1696565"><ele>416.0</ele><time>2026-04-19T08:37:30.378Z</time></trkpt><trkpt lat="40.9666385" lon="16.1693108"><ele>415.0</ele><time>2026-04-19T08:37:31.378Z</time></trkpt><trkpt lat="40.9666088" lon="16.1689666"><ele>414.5</ele><time>2026-04-19T08:37:32.378Z</time></trkpt><trkpt lat="40.9665761" lon="16.1686161"><ele>414.0</ele><time>2026-04-19T08:37:33.378Z</time></trkpt><trkpt lat="40.9665289" lon="16.168274"><ele>412.5</ele><time>2026-04-19T08:37:34.378Z</time></trkpt><trkpt lat="40.9664731" lon="16.1679392"><ele>411.0</ele><time>2026-04-19T08:37:35.378Z</time></trkpt><trkpt lat="40.9663956" lon="16.1675882"><ele>411.0</ele><time>2026-04-19T08:37:36.378Z</time></trkpt><trkpt lat="40.9663036" lon="16.1672446"><ele>411.0</ele><time>2026-04-19T08:37:37.378Z</time></trkpt><trkpt lat="40.9661989" lon="16.1669351"><ele>411.0</ele><time>2026-04-19T08:37:38.378Z</time></trkpt><trkpt lat="40.9660815" lon="16.1666403"><ele>411.0</ele><time>2026-04-19T08:37:39.378Z</time></trkpt><trkpt lat="40.9659293" lon="16.1663373"><ele>409.0</ele><time>2026-04-19T08:37:40.378Z</time></trkpt><trkpt lat="40.9657421" lon="16.1660166"><ele>407.0</ele><time>2026-04-19T08:37:41.378Z</time></trkpt><trkpt lat="40.9655388" lon="16.1656904"><ele>406.5</ele><time>2026-04-19T08:37:42.378Z</time></trkpt><trkpt lat="40.9653258" lon="16.1653618"><ele>406.0</ele><time>2026-04-19T08:37:43.378Z</time></trkpt><trkpt lat="40.9651068" lon="16.1650346"><ele>405.5</ele><time>2026-04-19T08:37:44.378Z</time></trkpt><trkpt lat="40.964899" lon="16.1647203"><ele>405.0</ele><time>2026-04-19T08:37:45.378Z</time></trkpt><trkpt lat="40.9646967" lon="16.1644188"><ele>405.0</ele><time>2026-04-19T08:37:46.378Z</time></trkpt><trkpt lat="40.9644935" lon="16.1641135"><ele>405.0</ele><time>2026-04-19T08:37:47.378Z</time></trkpt><trkpt lat="40.9642917" lon="16.1638154"><ele>404.5</ele><time>2026-04-19T08:37:48.378Z</time></trkpt><trkpt lat="40.9640817" lon="16.1635094"><ele>404.0</ele><time>2026-04-19T08:37:49.378Z</time></trkpt><trkpt lat="40.9638674" lon="16.1631862"><ele>404.0</ele><time>2026-04-19T08:37:50.378Z</time></trkpt><trkpt lat="40.9636574" lon="16.1628719"><ele>404.0</ele><time>2026-04-19T08:37:51.378Z</time></trkpt><trkpt lat="40.9634575" lon="16.1625885"><ele>403.0</ele><time>2026-04-19T08:37:52.378Z</time></trkpt><trkpt lat="40.963272" lon="16.1623217"><ele>402.0</ele><time>2026-04-19T08:37:53.378Z</time></trkpt><trkpt lat="40.9630908" lon="16.1620379"><ele>402.0</ele><time>2026-04-19T08:37:54.378Z</time></trkpt><trkpt lat="40.9628863" lon="16.1617368"><ele>402.0</ele><time>2026-04-19T08:37:55.378Z</time></trkpt><trkpt lat="40.9626665" lon="16.1614065"><ele>400.5</ele><time>2026-04-19T08:37:56.378Z</time></trkpt><trkpt lat="40.9624434" lon="16.16109"><ele>399.0</ele><time>2026-04-19T08:37:57.378Z</time></trkpt><trkpt lat="40.9622213" lon="16.160772"><ele>399.0</ele><time>2026-04-19T08:37:58.378Z</time></trkpt><trkpt lat="40.9620036" lon="16.1604588"><ele>399.0</ele><time>2026-04-19T08:37:59.378Z</time></trkpt><trkpt lat="40.9618019" lon="16.160159"><ele>397.5</ele><time>2026-04-19T08:38:00.378Z</time></trkpt><trkpt lat="40.9616039" lon="16.1598606"><ele>396.0</ele><time>2026-04-19T08:38:01.378Z</time></trkpt><trkpt lat="40.9614028" lon="16.1595586"><ele>396.0</ele><time>2026-04-19T08:38:02.378Z</time></trkpt><trkpt lat="40.9612084" lon="16.1592633"><ele>396.0</ele><time>2026-04-19T08:38:03.378Z</time></trkpt><trkpt lat="40.9610236" lon="16.1589877"><ele>395.0</ele><time>2026-04-19T08:38:04.378Z</time></trkpt><trkpt lat="40.9608571" lon="16.1587375"><ele>394.0</ele><time>2026-04-19T08:38:05.378Z</time></trkpt><trkpt lat="40.9606763" lon="16.1584783"><ele>394.5</ele><time>2026-04-19T08:38:06.378Z</time></trkpt><trkpt lat="40.960488" lon="16.1581916"><ele>395.0</ele><time>2026-04-19T08:38:07.378Z</time></trkpt><trkpt lat="40.9602769" lon="16.157895"><ele>395.0</ele><time>2026-04-19T08:38:08.378Z</time></trkpt><trkpt lat="40.9600705" lon="16.1575861"><ele>395.0</ele><time>2026-04-19T08:38:09.378Z</time></trkpt><trkpt lat="40.9598654" lon="16.1572788"><ele>392.5</ele><time>2026-04-19T08:38:10.378Z</time></trkpt><trkpt lat="40.9596524" lon="16.1569677"><ele>390.0</ele><time>2026-04-19T08:38:11.378Z</time></trkpt><trkpt lat="40.9594218" lon="16.1566411"><ele>386.5</ele><time>2026-04-19T08:38:12.377Z</time></trkpt><trkpt lat="40.9591841" lon="16.1562981"><ele>383.0</ele><time>2026-04-19T08:38:13.378Z</time></trkpt><trkpt lat="40.9589449" lon="16.1559542"><ele>381.5</ele><time>2026-04-19T08:38:14.378Z</time></trkpt><trkpt lat="40.9587222" lon="16.1556286"><ele>380.0</ele><time>2026-04-19T08:38:15.378Z</time></trkpt><trkpt lat="40.9585093" lon="16.1553057"><ele>377.0</ele><time>2026-04-19T08:38:16.378Z</time></trkpt><trkpt lat="40.9582983" lon="16.1549866"><ele>374.0</ele><time>2026-04-19T08:38:17.378Z</time></trkpt><trkpt lat="40.9580911" lon="16.1546748"><ele>373.0</ele><time>2026-04-19T08:38:18.378Z</time></trkpt><trkpt lat="40.9578808" lon="16.1543633"><ele>372.0</ele><time>2026-04-19T08:38:19.378Z</time></trkpt><trkpt lat="40.9576752" lon="16.1540554"><ele>370.0</ele><time>2026-04-19T08:38:20.378Z</time></trkpt><trkpt lat="40.9574765" lon="16.1537623"><ele>368.0</ele><time>2026-04-19T08:38:21.378Z</time></trkpt><trkpt lat="40.9572995" lon="16.1534965"><ele>368.0</ele><time>2026-04-19T08:38:22.378Z</time></trkpt><trkpt lat="40.9571244" lon="16.1532364"><ele>368.0</ele><time>2026-04-19T08:38:23.378Z</time></trkpt><trkpt lat="40.9569411" lon="16.1529691"><ele>366.5</ele><time>2026-04-19T08:38:24.378Z</time></trkpt><trkpt lat="40.9567666" lon="16.1527106"><ele>365.0</ele><time>2026-04-19T08:38:25.378Z</time></trkpt><trkpt lat="40.9566088" lon="16.1524708"><ele>364.0</ele><time>2026-04-19T08:38:26.378Z</time></trkpt><trkpt lat="40.9564608" lon="16.1522537"><ele>363.0</ele><time>2026-04-19T08:38:27.378Z</time></trkpt><trkpt lat="40.9563286" lon="16.1520677"><ele>362.0</ele><time>2026-04-19T08:38:28.378Z</time></trkpt><trkpt lat="40.9562179" lon="16.1519081"><ele>362.0</ele><time>2026-04-19T08:38:29.378Z</time></trkpt><trkpt lat="40.956134" lon="16.1517744"><ele>362.0</ele><time>2026-04-19T08:38:30.378Z</time></trkpt><trkpt lat="40.9560834" lon="16.151675"><ele>362.0</ele><time>2026-04-19T08:38:31.378Z</time></trkpt><trkpt lat="40.9560576" lon="16.1515759"><ele>362.0</ele><time>2026-04-19T08:38:32.378Z</time></trkpt><trkpt lat="40.9560458" lon="16.1514638"><ele>362.0</ele><time>2026-04-19T08:38:33.378Z</time></trkpt><trkpt lat="40.9560127" lon="16.1513703"><ele>362.0</ele><time>2026-04-19T08:38:34.378Z</time></trkpt><trkpt lat="40.9559273" lon="16.1512966"><ele>362.0</ele><time>2026-04-19T08:38:35.378Z</time></trkpt><trkpt lat="40.9558086" lon="16.1512222"><ele>362.0</ele><time>2026-04-19T08:38:36.378Z</time></trkpt><trkpt lat="40.9556794" lon="16.1511036"><ele>362.0</ele><time>2026-04-19T08:38:37.378Z</time></trkpt><trkpt lat="40.9555487" lon="16.1509137"><ele>361.0</ele><time>2026-04-19T08:38:38.378Z</time></trkpt><trkpt lat="40.9554024" lon="16.1506917"><ele>360.0</ele><time>2026-04-19T08:38:39.378Z</time></trkpt><trkpt lat="40.955254" lon="16.1504473"><ele>360.0</ele><time>2026-04-19T08:38:40.378Z</time></trkpt><trkpt lat="40.9550825" lon="16.150208"><ele>360.0</ele><time>2026-04-19T08:38:41.378Z</time></trkpt><trkpt lat="40.9549048" lon="16.1499542"><ele>358.5</ele><time>2026-04-19T08:38:42.378Z</time></trkpt><trkpt lat="40.9547201" lon="16.1496845"><ele>357.0</ele><time>2026-04-19T08:38:43.378Z</time></trkpt><trkpt lat="40.9545406" lon="16.1494232"><ele>357.0</ele><time>2026-04-19T08:38:44.378Z</time></trkpt><trkpt lat="40.9543724" lon="16.1491784"><ele>357.0</ele><time>2026-04-19T08:38:45.378Z</time></trkpt><trkpt lat="40.9542179" lon="16.1489443"><ele>358.0</ele><time>2026-04-19T08:38:46.378Z</time></trkpt><trkpt lat="40.9540671" lon="16.1487198"><ele>359.0</ele><time>2026-04-19T08:38:47.378Z</time></trkpt><trkpt lat="40.9539058" lon="16.1484889"><ele>359.0</ele><time>2026-04-19T08:38:48.378Z</time></trkpt><trkpt lat="40.9537162" lon="16.148213"><ele>359.0</ele><time>2026-04-19T08:38:49.378Z</time></trkpt><trkpt lat="40.9535123" lon="16.1479148"><ele>360.5</ele><time>2026-04-19T08:38:50.378Z</time></trkpt><trkpt lat="40.9533024" lon="16.147605"><ele>362.0</ele><time>2026-04-19T08:38:51.378Z</time></trkpt><trkpt lat="40.9530873" lon="16.1472815"><ele>362.5</ele><time>2026-04-19T08:38:52.378Z</time></trkpt><trkpt lat="40.9528729" lon="16.1469572"><ele>363.0</ele><time>2026-04-19T08:38:53.378Z</time></trkpt><trkpt lat="40.9526775" lon="16.1466614"><ele>364.0</ele><time>2026-04-19T08:38:54.378Z</time></trkpt><trkpt lat="40.9524974" lon="16.1463866"><ele>365.0</ele><time>2026-04-19T08:38:55.378Z</time></trkpt><trkpt lat="40.9523142" lon="16.1461109"><ele>365.0</ele><time>2026-04-19T08:38:56.378Z</time></trkpt><trkpt lat="40.9521272" lon="16.145836"><ele>365.0</ele><time>2026-04-19T08:38:57.378Z</time></trkpt><trkpt lat="40.9519417" lon="16.1455623"><ele>365.5</ele><time>2026-04-19T08:38:58.378Z</time></trkpt><trkpt lat="40.951756" lon="16.145293"><ele>366.0</ele><time>2026-04-19T08:38:59.378Z</time></trkpt><trkpt lat="40.9515695" lon="16.1450291"><ele>368.5</ele><time>2026-04-19T08:39:00.378Z</time></trkpt><trkpt lat="40.9513678" lon="16.1447607"><ele>371.0</ele><time>2026-04-19T08:39:01.378Z</time></trkpt><trkpt lat="40.9511466" lon="16.1444474"><ele>371.0</ele><time>2026-04-19T08:39:02.378Z</time></trkpt><trkpt lat="40.9509189" lon="16.144112"><ele>371.0</ele><time>2026-04-19T08:39:03.378Z</time></trkpt><trkpt lat="40.9507116" lon="16.1438041"><ele>373.0</ele><time>2026-04-19T08:39:04.378Z</time></trkpt><trkpt lat="40.9505348" lon="16.1435156"><ele>375.0</ele><time>2026-04-19T08:39:05.378Z</time></trkpt><trkpt lat="40.950376" lon="16.1432544"><ele>376.0</ele><time>2026-04-19T08:39:06.378Z</time></trkpt><trkpt lat="40.9502134" lon="16.1430078"><ele>377.0</ele><time>2026-04-19T08:39:07.378Z</time></trkpt><trkpt lat="40.950062" lon="16.1427841"><ele>377.33333333333337</ele><time>2026-04-19T08:39:08.378Z</time></trkpt><trkpt lat="40.9499265" lon="16.1425943"><ele>377.6666666666667</ele><time>2026-04-19T08:39:09.378Z</time></trkpt><trkpt lat="40.949812" lon="16.1424265"><ele>378.0</ele><time>2026-04-19T08:39:10.378Z</time></trkpt><trkpt lat="40.9497052" lon="16.1422668"><ele>379.0</ele><time>2026-04-19T08:39:11.378Z</time></trkpt><trkpt lat="40.9495948" lon="16.1421054"><ele>380.0</ele><time>2026-04-19T08:39:12.378Z</time></trkpt><trkpt lat="40.9494599" lon="16.1418985"><ele>381.0</ele><time>2026-04-19T08:39:13.378Z</time></trkpt><trkpt lat="40.9493145" lon="16.1416437"><ele>383.5</ele><time>2026-04-19T08:39:14.378Z</time></trkpt><trkpt lat="40.9491683" lon="16.1413708"><ele>386.0</ele><time>2026-04-19T08:39:15.378Z</time></trkpt><trkpt lat="40.9490338" lon="16.1410628"><ele>386.0</ele><time>2026-04-19T08:39:16.378Z</time></trkpt><trkpt lat="40.9489174" lon="16.1407353"><ele>386.0</ele><time>2026-04-19T08:39:17.378Z</time></trkpt><trkpt lat="40.9488243" lon="16.1404179"><ele>387.0</ele><time>2026-04-19T08:39:18.378Z</time></trkpt><trkpt lat="40.9487661" lon="16.1401222"><ele>388.0</ele><time>2026-04-19T08:39:19.378Z</time></trkpt><trkpt lat="40.9487342" lon="16.1398276"><ele>389.0</ele><time>2026-04-19T08:39:20.378Z</time></trkpt><trkpt lat="40.948749" lon="16.1395223"><ele>390.0</ele><time>2026-04-19T08:39:21.378Z</time></trkpt><trkpt lat="40.9487956" lon="16.1392097"><ele>392.5</ele><time>2026-04-19T08:39:22.378Z</time></trkpt><trkpt lat="40.9488801" lon="16.1388848"><ele>395.0</ele><time>2026-04-19T08:39:23.378Z</time></trkpt><trkpt lat="40.9489739" lon="16.1385755"><ele>395.0</ele><time>2026-04-19T08:39:24.378Z</time></trkpt><trkpt lat="40.949083" lon="16.1383194"><ele>395.0</ele><time>2026-04-19T08:39:25.378Z</time></trkpt><trkpt lat="40.9492311" lon="16.1380915"><ele>395.0</ele><time>2026-04-19T08:39:26.377Z</time></trkpt><trkpt lat="40.9494094" lon="16.1378786"><ele>397.0</ele><time>2026-04-19T08:39:27.378Z</time></trkpt><trkpt lat="40.9495897" lon="16.1377003"><ele>399.0</ele><time>2026-04-19T08:39:28.378Z</time></trkpt><trkpt lat="40.9497795" lon="16.1375632"><ele>401.0</ele><time>2026-04-19T08:39:29.378Z</time></trkpt><trkpt lat="40.9499829" lon="16.1374554"><ele>402.0</ele><time>2026-04-19T08:39:30.378Z</time></trkpt><trkpt lat="40.9501713" lon="16.1373718"><ele>403.0</ele><time>2026-04-19T08:39:31.378Z</time></trkpt><trkpt lat="40.9503381" lon="16.1372603"><ele>404.0</ele><time>2026-04-19T08:39:32.378Z</time></trkpt><trkpt lat="40.9504973" lon="16.1371099"><ele>404.0</ele><time>2026-04-19T08:39:33.378Z</time></trkpt><trkpt lat="40.9506281" lon="16.1369005"><ele>404.0</ele><time>2026-04-19T08:39:34.378Z</time></trkpt><trkpt lat="40.950747" lon="16.1366437"><ele>404.0</ele><time>2026-04-19T08:39:35.378Z</time></trkpt><trkpt lat="40.9508671" lon="16.1363703"><ele>403.3333333333333</ele><time>2026-04-19T08:39:36.378Z</time></trkpt><trkpt lat="40.9509888" lon="16.1361228"><ele>402.66666666666663</ele><time>2026-04-19T08:39:37.378Z</time></trkpt><trkpt lat="40.9511144" lon="16.1358962"><ele>402.0</ele><time>2026-04-19T08:39:38.378Z</time></trkpt><trkpt lat="40.9512227" lon="16.1356446"><ele>405.5</ele><time>2026-04-19T08:39:39.378Z</time></trkpt><trkpt lat="40.9513079" lon="16.1353383"><ele>409.0</ele><time>2026-04-19T08:39:40.378Z</time></trkpt><trkpt lat="40.9513938" lon="16.1350291"><ele>412.5</ele><time>2026-04-19T08:39:41.378Z</time></trkpt><trkpt lat="40.9514968" lon="16.1347346"><ele>416.0</ele><time>2026-04-19T08:39:42.378Z</time></trkpt><trkpt lat="40.9515979" lon="16.1344266"><ele>416.0</ele><time>2026-04-19T08:39:43.378Z</time></trkpt><trkpt lat="40.9516616" lon="16.1341273"><ele>416.0</ele><time>2026-04-19T08:39:44.378Z</time></trkpt><trkpt lat="40.9517058" lon="16.1338671"><ele>416.0</ele><time>2026-04-19T08:39:45.378Z</time></trkpt><trkpt lat="40.9517384" lon="16.1336473"><ele>415.75</ele><time>2026-04-19T08:39:46.378Z</time></trkpt><trkpt lat="40.9517573" lon="16.1334573"><ele>415.5</ele><time>2026-04-19T08:39:47.378Z</time></trkpt><trkpt lat="40.9517394" lon="16.1332753"><ele>415.25</ele><time>2026-04-19T08:39:48.378Z</time></trkpt><trkpt lat="40.9516779" lon="16.1331108"><ele>415.0</ele><time>2026-04-19T08:39:49.378Z</time></trkpt><trkpt lat="40.951572" lon="16.1329402"><ele>415.0</ele><time>2026-04-19T08:39:50.378Z</time></trkpt><trkpt lat="40.9514269" lon="16.1327638"><ele>415.0</ele><time>2026-04-19T08:39:51.378Z</time></trkpt><trkpt lat="40.9512576" lon="16.1325819"><ele>415.0</ele><time>2026-04-19T08:39:52.378Z</time></trkpt><trkpt lat="40.9510815" lon="16.1323938"><ele>417.0</ele><time>2026-04-19T08:39:53.378Z</time></trkpt><trkpt lat="40.9509445" lon="16.1322317"><ele>419.0</ele><time>2026-04-19T08:39:54.378Z</time></trkpt><trkpt lat="40.9508264" lon="16.1320767"><ele>421.0</ele><time>2026-04-19T08:39:55.378Z</time></trkpt><trkpt lat="40.9507129" lon="16.1319396"><ele>421.0</ele><time>2026-04-19T08:39:56.378Z</time></trkpt><trkpt lat="40.950565" lon="16.1318368"><ele>421.0</ele><time>2026-04-19T08:39:57.378Z</time></trkpt><trkpt lat="40.9503842" lon="16.1317783"><ele>421.0</ele><time>2026-04-19T08:39:58.378Z</time></trkpt><trkpt lat="40.9501661" lon="16.1317512"><ele>425.5</ele><time>2026-04-19T08:39:59.378Z</time></trkpt><trkpt lat="40.9499145" lon="16.131744"><ele>430.0</ele><time>2026-04-19T08:40:00.378Z</time></trkpt><trkpt lat="40.9496367" lon="16.1317288"><ele>430.0</ele><time>2026-04-19T08:40:01.378Z</time></trkpt><trkpt lat="40.9493485" lon="16.131744"><ele>430.0</ele><time>2026-04-19T08:40:02.378Z</time></trkpt><trkpt lat="40.949071" lon="16.1317626"><ele>431.5</ele><time>2026-04-19T08:40:03.378Z</time></trkpt><trkpt lat="40.9488146" lon="16.13179"><ele>433.0</ele><time>2026-04-19T08:40:04.378Z</time></trkpt><trkpt lat="40.948583" lon="16.131814"><ele>433.0</ele><time>2026-04-19T08:40:05.378Z</time></trkpt><trkpt lat="40.9483827" lon="16.1318346"><ele>433.0</ele><time>2026-04-19T08:40:06.378Z</time></trkpt><trkpt lat="40.9482231" lon="16.1318293"><ele>433.0</ele><time>2026-04-19T08:40:07.378Z</time></trkpt><trkpt lat="40.9480939" lon="16.1318164"><ele>433.25</ele><time>2026-04-19T08:40:08.378Z</time></trkpt><trkpt lat="40.9479878" lon="16.1317793"><ele>433.5</ele><time>2026-04-19T08:40:09.378Z</time></trkpt><trkpt lat="40.9479055" lon="16.1316987"><ele>433.75</ele><time>2026-04-19T08:40:10.378Z</time></trkpt><trkpt lat="40.9478408" lon="16.1315727"><ele>434.0</ele><time>2026-04-19T08:40:11.378Z</time></trkpt><trkpt lat="40.9477841" lon="16.1313828"><ele>434.0</ele><time>2026-04-19T08:40:12.378Z</time></trkpt><trkpt lat="40.9477558" lon="16.1311472"><ele>434.0</ele><time>2026-04-19T08:40:13.378Z</time></trkpt><trkpt lat="40.9477368" lon="16.1308673"><ele>434.0</ele><time>2026-04-19T08:40:14.378Z</time></trkpt><trkpt lat="40.9477145" lon="16.130567"><ele>434.5</ele><time>2026-04-19T08:40:15.378Z</time></trkpt><trkpt lat="40.9476933" lon="16.1302651"><ele>435.0</ele><time>2026-04-19T08:40:16.378Z</time></trkpt><trkpt lat="40.9476655" lon="16.1299211"><ele>438.5</ele><time>2026-04-19T08:40:17.378Z</time></trkpt><trkpt lat="40.9476514" lon="16.129549"><ele>442.0</ele><time>2026-04-19T08:40:18.378Z</time></trkpt><trkpt lat="40.9476456" lon="16.1291776"><ele>445.0</ele><time>2026-04-19T08:40:19.378Z</time></trkpt><trkpt lat="40.9476414" lon="16.1288284"><ele>448.0</ele><time>2026-04-19T08:40:20.378Z</time></trkpt><trkpt lat="40.9476439" lon="16.1285034"><ele>450.0</ele><time>2026-04-19T08:40:21.378Z</time></trkpt><trkpt lat="40.9476457" lon="16.1281699"><ele>452.0</ele><time>2026-04-19T08:40:22.378Z</time></trkpt><trkpt lat="40.9476483" lon="16.1278154"><ele>452.0</ele><time>2026-04-19T08:40:23.378Z</time></trkpt><trkpt lat="40.9476592" lon="16.1274262"><ele>452.0</ele><time>2026-04-19T08:40:24.378Z</time></trkpt><trkpt lat="40.9476732" lon="16.126996"><ele>454.0</ele><time>2026-04-19T08:40:25.378Z</time></trkpt><trkpt lat="40.9476874" lon="16.126562"><ele>456.0</ele><time>2026-04-19T08:40:26.378Z</time></trkpt><trkpt lat="40.9476975" lon="16.1261279"><ele>456.5</ele><time>2026-04-19T08:40:27.378Z</time></trkpt><trkpt lat="40.9477081" lon="16.1257252"><ele>457.0</ele><time>2026-04-19T08:40:28.378Z</time></trkpt><trkpt lat="40.9477208" lon="16.1253593"><ele>457.0</ele><time>2026-04-19T08:40:29.378Z</time></trkpt><trkpt lat="40.9477433" lon="16.1249768"><ele>457.0</ele><time>2026-04-19T08:40:30.378Z</time></trkpt><trkpt lat="40.9477588" lon="16.1245736"><ele>458.5</ele><time>2026-04-19T08:40:31.378Z</time></trkpt><trkpt lat="40.9477814" lon="16.1241779"><ele>460.0</ele><time>2026-04-19T08:40:32.378Z</time></trkpt><trkpt lat="40.9478023" lon="16.1238103"><ele>460.5</ele><time>2026-04-19T08:40:33.378Z</time></trkpt><trkpt lat="40.9478304" lon="16.1234269"><ele>461.0</ele><time>2026-04-19T08:40:34.378Z</time></trkpt><trkpt lat="40.9478584" lon="16.1230157"><ele>461.0</ele><time>2026-04-19T08:40:35.378Z</time></trkpt><trkpt lat="40.9478846" lon="16.1226223"><ele>461.0</ele><time>2026-04-19T08:40:36.378Z</time></trkpt><trkpt lat="40.9479144" lon="16.1222446"><ele>461.0</ele><time>2026-04-19T08:40:37.378Z</time></trkpt><trkpt lat="40.9479562" lon="16.1218551"><ele>461.0</ele><time>2026-04-19T08:40:38.378Z</time></trkpt><trkpt lat="40.9480117" lon="16.1214555"><ele>461.0</ele><time>2026-04-19T08:40:39.378Z</time></trkpt><trkpt lat="40.9480811" lon="16.121064"><ele>461.0</ele><time>2026-04-19T08:40:40.378Z</time></trkpt><trkpt lat="40.9481598" lon="16.1207016"><ele>462.0</ele><time>2026-04-19T08:40:41.378Z</time></trkpt><trkpt lat="40.948251" lon="16.1203391"><ele>463.0</ele><time>2026-04-19T08:40:42.378Z</time></trkpt><trkpt lat="40.9483539" lon="16.1199613"><ele>463.5</ele><time>2026-04-19T08:40:43.378Z</time></trkpt><trkpt lat="40.94847" lon="16.119585"><ele>464.0</ele><time>2026-04-19T08:40:44.378Z</time></trkpt><trkpt lat="40.9485917" lon="16.1192215"><ele>463.5</ele><time>2026-04-19T08:40:45.378Z</time></trkpt><trkpt lat="40.9487209" lon="16.118875"><ele>463.0</ele><time>2026-04-19T08:40:46.378Z</time></trkpt><trkpt lat="40.9488629" lon="16.1185408"><ele>464.0</ele><time>2026-04-19T08:40:47.378Z</time></trkpt><trkpt lat="40.9490161" lon="16.1182037"><ele>465.0</ele><time>2026-04-19T08:40:48.378Z</time></trkpt><trkpt lat="40.9491908" lon="16.1178567"><ele>464.0</ele><time>2026-04-19T08:40:49.378Z</time></trkpt><trkpt lat="40.9493656" lon="16.1175091"><ele>463.0</ele><time>2026-04-19T08:40:50.378Z</time></trkpt><trkpt lat="40.9495398" lon="16.1171752"><ele>463.0</ele><time>2026-04-19T08:40:51.378Z</time></trkpt><trkpt lat="40.9497053" lon="16.116859"><ele>463.0</ele><time>2026-04-19T08:40:52.378Z</time></trkpt><trkpt lat="40.9498635" lon="16.116561"><ele>463.5</ele><time>2026-04-19T08:40:53.378Z</time></trkpt><trkpt lat="40.9500107" lon="16.1162872"><ele>464.0</ele><time>2026-04-19T08:40:54.378Z</time></trkpt><trkpt lat="40.9501346" lon="16.1160405"><ele>464.0</ele><time>2026-04-19T08:40:55.378Z</time></trkpt><trkpt lat="40.950244" lon="16.1158342"><ele>464.0</ele><time>2026-04-19T08:40:56.378Z</time></trkpt><trkpt lat="40.9503256" lon="16.1156792"><ele>464.0</ele><time>2026-04-19T08:40:57.378Z</time></trkpt><trkpt lat="40.9504064" lon="16.1155347"><ele>464.75</ele><time>2026-04-19T08:40:58.378Z</time></trkpt><trkpt lat="40.950466" lon="16.1153971"><ele>465.5</ele><time>2026-04-19T08:40:59.378Z</time></trkpt><trkpt lat="40.95051" lon="16.1152519"><ele>466.25</ele><time>2026-04-19T08:41:00.378Z</time></trkpt><trkpt lat="40.9505277" lon="16.1150631"><ele>467.0</ele><time>2026-04-19T08:41:01.378Z</time></trkpt><trkpt lat="40.9505352" lon="16.1148151"><ele>467.0</ele><time>2026-04-19T08:41:02.377Z</time></trkpt><trkpt lat="40.9505508" lon="16.1145439"><ele>467.0</ele><time>2026-04-19T08:41:03.377Z</time></trkpt><trkpt lat="40.9505901" lon="16.1142165"><ele>467.5</ele><time>2026-04-19T08:41:04.377Z</time></trkpt><trkpt lat="40.950629" lon="16.1138327"><ele>468.0</ele><time>2026-04-19T08:41:05.377Z</time></trkpt><trkpt lat="40.9506708" lon="16.1134342"><ele>467.0</ele><time>2026-04-19T08:41:06.377Z</time></trkpt><trkpt lat="40.9507188" lon="16.1130374"><ele>466.0</ele><time>2026-04-19T08:41:07.377Z</time></trkpt><trkpt lat="40.9507598" lon="16.1126451"><ele>465.5</ele><time>2026-04-19T08:41:08.377Z</time></trkpt><trkpt lat="40.9508022" lon="16.1122695"><ele>465.0</ele><time>2026-04-19T08:41:09.377Z</time></trkpt><trkpt lat="40.9508422" lon="16.1119153"><ele>465.0</ele><time>2026-04-19T08:41:10.377Z</time></trkpt><trkpt lat="40.9508808" lon="16.1115569"><ele>465.0</ele><time>2026-04-19T08:41:11.377Z</time></trkpt><trkpt lat="40.9509198" lon="16.1112004"><ele>465.0</ele><time>2026-04-19T08:41:12.377Z</time></trkpt><trkpt lat="40.9509562" lon="16.110866"><ele>465.0</ele><time>2026-04-19T08:41:13.377Z</time></trkpt><trkpt lat="40.9509836" lon="16.1105648"><ele>463.5</ele><time>2026-04-19T08:41:14.377Z</time></trkpt><trkpt lat="40.9510159" lon="16.1102662"><ele>462.0</ele><time>2026-04-19T08:41:15.377Z</time></trkpt><trkpt lat="40.9510539" lon="16.1099383"><ele>461.5</ele><time>2026-04-19T08:41:16.377Z</time></trkpt><trkpt lat="40.9510884" lon="16.1095881"><ele>461.0</ele><time>2026-04-19T08:41:17.377Z</time></trkpt><trkpt lat="40.951114" lon="16.1092521"><ele>459.5</ele><time>2026-04-19T08:41:18.377Z</time></trkpt><trkpt lat="40.9511355" lon="16.1089288"><ele>458.0</ele><time>2026-04-19T08:41:19.377Z</time></trkpt><trkpt lat="40.9511707" lon="16.1085967"><ele>458.0</ele><time>2026-04-19T08:41:20.377Z</time></trkpt><trkpt lat="40.9512099" lon="16.1082556"><ele>458.0</ele><time>2026-04-19T08:41:21.377Z</time></trkpt><trkpt lat="40.9512501" lon="16.1078865"><ele>456.0</ele><time>2026-04-19T08:41:22.377Z</time></trkpt><trkpt lat="40.9512995" lon="16.1074838"><ele>454.0</ele><time>2026-04-19T08:41:23.377Z</time></trkpt><trkpt lat="40.9513524" lon="16.1070791"><ele>452.5</ele><time>2026-04-19T08:41:24.377Z</time></trkpt><trkpt lat="40.9513983" lon="16.1066828"><ele>451.0</ele><time>2026-04-19T08:41:25.377Z</time></trkpt><trkpt lat="40.9514424" lon="16.1062817"><ele>448.0</ele><time>2026-04-19T08:41:26.377Z</time></trkpt><trkpt lat="40.9514861" lon="16.1058786"><ele>445.0</ele><time>2026-04-19T08:41:27.377Z</time></trkpt><trkpt lat="40.9515287" lon="16.1054815"><ele>445.0</ele><time>2026-04-19T08:41:28.377Z</time></trkpt><trkpt lat="40.9515709" lon="16.1051028"><ele>445.0</ele><time>2026-04-19T08:41:29.377Z</time></trkpt><trkpt lat="40.9516158" lon="16.1047346"><ele>445.0</ele><time>2026-04-19T08:41:30.377Z</time></trkpt><trkpt lat="40.9516599" lon="16.1043747"><ele>445.0</ele><time>2026-04-19T08:41:31.377Z</time></trkpt><trkpt lat="40.9517039" lon="16.1040141"><ele>444.5</ele><time>2026-04-19T08:41:32.377Z</time></trkpt><trkpt lat="40.9517424" lon="16.1036374"><ele>444.0</ele><time>2026-04-19T08:41:33.377Z</time></trkpt><trkpt lat="40.9517795" lon="16.1032377"><ele>443.0</ele><time>2026-04-19T08:41:34.377Z</time></trkpt><trkpt lat="40.9518169" lon="16.1028342"><ele>442.0</ele><time>2026-04-19T08:41:35.377Z</time></trkpt><trkpt lat="40.9518586" lon="16.1024209"><ele>444.0</ele><time>2026-04-19T08:41:36.377Z</time></trkpt><trkpt lat="40.9518964" lon="16.1020161"><ele>446.0</ele><time>2026-04-19T08:41:37.377Z</time></trkpt><trkpt lat="40.9519331" lon="16.1016305"><ele>447.0</ele><time>2026-04-19T08:41:38.377Z</time></trkpt><trkpt lat="40.9519741" lon="16.1012379"><ele>448.0</ele><time>2026-04-19T08:41:39.377Z</time></trkpt><trkpt lat="40.952018" lon="16.1008578"><ele>447.5</ele><time>2026-04-19T08:41:40.377Z</time></trkpt><trkpt lat="40.9520526" lon="16.1005132"><ele>447.0</ele><time>2026-04-19T08:41:41.377Z</time></trkpt><trkpt lat="40.9520757" lon="16.1001788"><ele>446.5</ele><time>2026-04-19T08:41:42.377Z</time></trkpt><trkpt lat="40.9520766" lon="16.099791"><ele>446.0</ele><time>2026-04-19T08:41:43.377Z</time></trkpt><trkpt lat="40.9520709" lon="16.0993773"><ele>446.0</ele><time>2026-04-19T08:41:44.377Z</time></trkpt><trkpt lat="40.9520639" lon="16.0989436"><ele>446.0</ele><time>2026-04-19T08:41:45.377Z</time></trkpt><trkpt lat="40.952063" lon="16.0985145"><ele>445.5</ele><time>2026-04-19T08:41:46.377Z</time></trkpt><trkpt lat="40.9520629" lon="16.0980572"><ele>445.0</ele><time>2026-04-19T08:41:47.377Z</time></trkpt><trkpt lat="40.952062" lon="16.0975778"><ele>443.5</ele><time>2026-04-19T08:41:48.377Z</time></trkpt><trkpt lat="40.9520588" lon="16.0970701"><ele>442.0</ele><time>2026-04-19T08:41:49.377Z</time></trkpt><trkpt lat="40.9520573" lon="16.0965392"><ele>441.5</ele><time>2026-04-19T08:41:50.377Z</time></trkpt><trkpt lat="40.9520567" lon="16.0960185"><ele>441.0</ele><time>2026-04-19T08:41:51.377Z</time></trkpt><trkpt lat="40.9520577" lon="16.0955208"><ele>441.0</ele><time>2026-04-19T08:41:52.377Z</time></trkpt><trkpt lat="40.9520553" lon="16.0950198"><ele>441.0</ele><time>2026-04-19T08:41:53.377Z</time></trkpt><trkpt lat="40.9520493" lon="16.0945398"><ele>442.5</ele><time>2026-04-19T08:41:54.377Z</time></trkpt><trkpt lat="40.9520495" lon="16.0940761"><ele>444.0</ele><time>2026-04-19T08:41:55.377Z</time></trkpt><trkpt lat="40.952053" lon="16.0936159"><ele>444.0</ele><time>2026-04-19T08:41:56.377Z</time></trkpt><trkpt lat="40.9520493" lon="16.0931719"><ele>444.0</ele><time>2026-04-19T08:41:57.377Z</time></trkpt><trkpt lat="40.9520449" lon="16.0927605"><ele>444.0</ele><time>2026-04-19T08:41:58.377Z</time></trkpt><trkpt lat="40.9520401" lon="16.0923597"><ele>444.0</ele><time>2026-04-19T08:41:59.377Z</time></trkpt><trkpt lat="40.952038" lon="16.0919802"><ele>444.0</ele><time>2026-04-19T08:42:00.377Z</time></trkpt><trkpt lat="40.9520398" lon="16.0916261"><ele>444.0</ele><time>2026-04-19T08:42:01.377Z</time></trkpt><trkpt lat="40.9520378" lon="16.0912967"><ele>443.5</ele><time>2026-04-19T08:42:02.377Z</time></trkpt><trkpt lat="40.9520383" lon="16.0909811"><ele>443.0</ele><time>2026-04-19T08:42:03.377Z</time></trkpt><trkpt lat="40.9520359" lon="16.0906905"><ele>443.0</ele><time>2026-04-19T08:42:04.377Z</time></trkpt><trkpt lat="40.9520393" lon="16.0904265"><ele>443.0</ele><time>2026-04-19T08:42:05.377Z</time></trkpt><trkpt lat="40.9520439" lon="16.0901684"><ele>443.0</ele><time>2026-04-19T08:42:06.377Z</time></trkpt><trkpt lat="40.9520454" lon="16.0898884"><ele>443.5</ele><time>2026-04-19T08:42:07.376Z</time></trkpt><trkpt lat="40.9520359" lon="16.089581"><ele>444.0</ele><time>2026-04-19T08:42:08.377Z</time></trkpt><trkpt lat="40.9520242" lon="16.0892298"><ele>443.5</ele><time>2026-04-19T08:42:09.377Z</time></trkpt><trkpt lat="40.9520226" lon="16.0888543"><ele>443.0</ele><time>2026-04-19T08:42:10.377Z</time></trkpt><trkpt lat="40.9520205" lon="16.0884717"><ele>442.0</ele><time>2026-04-19T08:42:11.377Z</time></trkpt><trkpt lat="40.9520196" lon="16.088126"><ele>441.0</ele><time>2026-04-19T08:42:12.377Z</time></trkpt><trkpt lat="40.9520169" lon="16.0877903"><ele>441.0</ele><time>2026-04-19T08:42:13.377Z</time></trkpt><trkpt lat="40.9520132" lon="16.0874559"><ele>441.0</ele><time>2026-04-19T08:42:14.377Z</time></trkpt><trkpt lat="40.952008" lon="16.0871286"><ele>440.0</ele><time>2026-04-19T08:42:15.377Z</time></trkpt><trkpt lat="40.9520008" lon="16.0867953"><ele>439.0</ele><time>2026-04-19T08:42:16.377Z</time></trkpt><trkpt lat="40.9519925" lon="16.0864381"><ele>438.0</ele><time>2026-04-19T08:42:17.377Z</time></trkpt><trkpt lat="40.952003" lon="16.0860547"><ele>437.0</ele><time>2026-04-19T08:42:18.377Z</time></trkpt><trkpt lat="40.9520062" lon="16.085657"><ele>437.0</ele><time>2026-04-19T08:42:19.377Z</time></trkpt><trkpt lat="40.9519996" lon="16.0852455"><ele>437.0</ele><time>2026-04-19T08:42:20.377Z</time></trkpt><trkpt lat="40.951993" lon="16.0848523"><ele>437.0</ele><time>2026-04-19T08:42:21.377Z</time></trkpt><trkpt lat="40.9519937" lon="16.0844802"><ele>437.0</ele><time>2026-04-19T08:42:22.377Z</time></trkpt><trkpt lat="40.9519954" lon="16.0841363"><ele>437.3333333333333</ele><time>2026-04-19T08:42:23.377Z</time></trkpt><trkpt lat="40.9519916" lon="16.0838362"><ele>437.66666666666663</ele><time>2026-04-19T08:42:24.377Z</time></trkpt><trkpt lat="40.9519893" lon="16.0835661"><ele>438.0</ele><time>2026-04-19T08:42:25.377Z</time></trkpt><trkpt lat="40.9519909" lon="16.0833134"><ele>438.0</ele><time>2026-04-19T08:42:26.377Z</time></trkpt><trkpt lat="40.9519921" lon="16.0830344"><ele>438.0</ele><time>2026-04-19T08:42:27.377Z</time></trkpt><trkpt lat="40.9519777" lon="16.0827217"><ele>438.0</ele><time>2026-04-19T08:42:28.377Z</time></trkpt><trkpt lat="40.9519725" lon="16.0823776"><ele>438.0</ele><time>2026-04-19T08:42:29.377Z</time></trkpt><trkpt lat="40.9519735" lon="16.0819872"><ele>438.0</ele><time>2026-04-19T08:42:30.377Z</time></trkpt><trkpt lat="40.9519771" lon="16.0815574"><ele>438.0</ele><time>2026-04-19T08:42:31.377Z</time></trkpt><trkpt lat="40.951979" lon="16.0811216"><ele>438.0</ele><time>2026-04-19T08:42:32.377Z</time></trkpt><trkpt lat="40.9519791" lon="16.0806997"><ele>439.0</ele><time>2026-04-19T08:42:33.377Z</time></trkpt><trkpt lat="40.9519786" lon="16.0802483"><ele>440.0</ele><time>2026-04-19T08:42:34.377Z</time></trkpt><trkpt lat="40.9519733" lon="16.0797646"><ele>440.0</ele><time>2026-04-19T08:42:35.377Z</time></trkpt><trkpt lat="40.9519725" lon="16.0792764"><ele>440.0</ele><time>2026-04-19T08:42:36.377Z</time></trkpt><trkpt lat="40.9519745" lon="16.0788336"><ele>441.5</ele><time>2026-04-19T08:42:37.377Z</time></trkpt><trkpt lat="40.9519727" lon="16.0784102"><ele>443.0</ele><time>2026-04-19T08:42:38.377Z</time></trkpt><trkpt lat="40.9519717" lon="16.0779667"><ele>443.0</ele><time>2026-04-19T08:42:39.377Z</time></trkpt><trkpt lat="40.9519713" lon="16.0774797"><ele>443.0</ele><time>2026-04-19T08:42:40.377Z</time></trkpt><trkpt lat="40.9519677" lon="16.0769779"><ele>443.0</ele><time>2026-04-19T08:42:41.377Z</time></trkpt><trkpt lat="40.9519606" lon="16.076495"><ele>443.0</ele><time>2026-04-19T08:42:42.377Z</time></trkpt><trkpt lat="40.9519565" lon="16.0760532"><ele>442.5</ele><time>2026-04-19T08:42:43.377Z</time></trkpt><trkpt lat="40.9519539" lon="16.0756093"><ele>442.0</ele><time>2026-04-19T08:42:44.377Z</time></trkpt><trkpt lat="40.9519557" lon="16.0751526"><ele>441.5</ele><time>2026-04-19T08:42:45.377Z</time></trkpt><trkpt lat="40.9519553" lon="16.0746955"><ele>441.0</ele><time>2026-04-19T08:42:46.377Z</time></trkpt><trkpt lat="40.9519544" lon="16.0742548"><ele>441.0</ele><time>2026-04-19T08:42:47.377Z</time></trkpt><trkpt lat="40.9519497" lon="16.0738284"><ele>441.0</ele><time>2026-04-19T08:42:48.377Z</time></trkpt><trkpt lat="40.9519468" lon="16.073379"><ele>441.5</ele><time>2026-04-19T08:42:49.377Z</time></trkpt><trkpt lat="40.9519444" lon="16.0729173"><ele>442.0</ele><time>2026-04-19T08:42:50.377Z</time></trkpt><trkpt lat="40.9519388" lon="16.0724725"><ele>442.0</ele><time>2026-04-19T08:42:51.377Z</time></trkpt><trkpt lat="40.9519299" lon="16.0720577"><ele>442.0</ele><time>2026-04-19T08:42:52.377Z</time></trkpt><trkpt lat="40.9519269" lon="16.0716788"><ele>441.5</ele><time>2026-04-19T08:42:53.377Z</time></trkpt><trkpt lat="40.9519238" lon="16.071326"><ele>441.0</ele><time>2026-04-19T08:42:54.377Z</time></trkpt><trkpt lat="40.9519246" lon="16.0710039"><ele>439.66666666666663</ele><time>2026-04-19T08:42:55.377Z</time></trkpt><trkpt lat="40.9519234" lon="16.07071"><ele>438.3333333333333</ele><time>2026-04-19T08:42:56.377Z</time></trkpt><trkpt lat="40.951929" lon="16.0704553"><ele>437.0</ele><time>2026-04-19T08:42:57.377Z</time></trkpt><trkpt lat="40.9519341" lon="16.0702448"><ele>437.0</ele><time>2026-04-19T08:42:58.377Z</time></trkpt><trkpt lat="40.951933" lon="16.0700713"><ele>437.00000000000006</ele><time>2026-04-19T08:42:59.377Z</time></trkpt><trkpt lat="40.9519326" lon="16.0699233"><ele>437.00000000000006</ele><time>2026-04-19T08:43:00.377Z</time></trkpt><trkpt lat="40.9519335" lon="16.0697949"><ele>437.0</ele><time>2026-04-19T08:43:01.377Z</time></trkpt><trkpt lat="40.9519372" lon="16.0696963"><ele>437.0</ele><time>2026-04-19T08:43:02.377Z</time></trkpt><trkpt lat="40.9519291" lon="16.0698273"><ele>437.0</ele><time>2026-04-19T08:43:10.377Z</time></trkpt><trkpt lat="40.9519267" lon="16.0699753"><ele>437.0</ele><time>2026-04-19T08:43:11.377Z</time></trkpt><trkpt lat="40.9519183" lon="16.0701613"><ele>437.0</ele><time>2026-04-19T08:43:12.377Z</time></trkpt><trkpt lat="40.9519156" lon="16.0703731"><ele>437.0</ele><time>2026-04-19T08:43:13.377Z</time></trkpt><trkpt lat="40.9519188" lon="16.0706071"><ele>438.3333333333333</ele><time>2026-04-19T08:43:14.377Z</time></trkpt><trkpt lat="40.9519187" lon="16.0708921"><ele>439.66666666666663</ele><time>2026-04-19T08:43:15.377Z</time></trkpt><trkpt lat="40.9519201" lon="16.0711936"><ele>441.0</ele><time>2026-04-19T08:43:16.377Z</time></trkpt><trkpt lat="40.9519217" lon="16.071497"><ele>441.5</ele><time>2026-04-19T08:43:17.377Z</time></trkpt><trkpt lat="40.9519279" lon="16.0718316"><ele>442.0</ele><time>2026-04-19T08:43:18.377Z</time></trkpt><trkpt lat="40.9519286" lon="16.0721825"><ele>442.0</ele><time>2026-04-19T08:43:19.377Z</time></trkpt><trkpt lat="40.9519305" lon="16.0725226"><ele>442.0</ele><time>2026-04-19T08:43:20.377Z</time></trkpt><trkpt lat="40.9519375" lon="16.0728473"><ele>442.0</ele><time>2026-04-19T08:43:21.377Z</time></trkpt><trkpt lat="40.9519421" lon="16.0731313"><ele>442.0</ele><time>2026-04-19T08:43:22.377Z</time></trkpt><trkpt lat="40.9519455" lon="16.0734131"><ele>442.0</ele><time>2026-04-19T08:43:23.377Z</time></trkpt><trkpt lat="40.9519447" lon="16.0737001"><ele>441.6666666666667</ele><time>2026-04-19T08:43:24.377Z</time></trkpt><trkpt lat="40.9519459" lon="16.0739794"><ele>441.33333333333337</ele><time>2026-04-19T08:43:25.377Z</time></trkpt><trkpt lat="40.9519481" lon="16.0742374"><ele>441.0</ele><time>2026-04-19T08:43:26.377Z</time></trkpt><trkpt lat="40.9519522" lon="16.074472"><ele>441.0</ele><time>2026-04-19T08:43:27.377Z</time></trkpt><trkpt lat="40.9519576" lon="16.0746853"><ele>441.0</ele><time>2026-04-19T08:43:28.377Z</time></trkpt><trkpt lat="40.9519569" lon="16.0748756"><ele>441.0</ele><time>2026-04-19T08:43:29.377Z</time></trkpt><trkpt lat="40.9519552" lon="16.0750324"><ele>441.0</ele><time>2026-04-19T08:43:30.377Z</time></trkpt><trkpt lat="40.951944" lon="16.0751387"><ele>441.1666666666667</ele><time>2026-04-19T08:43:31.377Z</time></trkpt><trkpt lat="40.951847" lon="16.075241"><ele>441.33333333333337</ele><time>2026-04-19T08:43:33.377Z</time></trkpt><trkpt lat="40.9517701" lon="16.0752669"><ele>441.5</ele><time>2026-04-19T08:43:34.377Z</time></trkpt><trkpt lat="40.9517029" lon="16.0752753"><ele>441.6666666666667</ele><time>2026-04-19T08:43:35.377Z</time></trkpt><trkpt lat="40.9516322" lon="16.0752728"><ele>441.83333333333337</ele><time>2026-04-19T08:43:36.377Z</time></trkpt><trkpt lat="40.9515478" lon="16.0752375"><ele>442.0</ele><time>2026-04-19T08:43:37.377Z</time></trkpt><trkpt lat="40.951441" lon="16.0751461"><ele>442.6666666666667</ele><time>2026-04-19T08:43:38.377Z</time></trkpt><trkpt lat="40.9512972" lon="16.0750065"><ele>443.33333333333337</ele><time>2026-04-19T08:43:39.377Z</time></trkpt><trkpt lat="40.9511224" lon="16.0748496"><ele>444.0</ele><time>2026-04-19T08:43:40.377Z</time></trkpt><trkpt lat="40.9509329" lon="16.0746838"><ele>444.5</ele><time>2026-04-19T08:43:41.377Z</time></trkpt><trkpt lat="40.9507324" lon="16.0745075"><ele>445.0</ele><time>2026-04-19T08:43:42.377Z</time></trkpt><trkpt lat="40.9505084" lon="16.0743053"><ele>444.5</ele><time>2026-04-19T08:43:43.377Z</time></trkpt><trkpt lat="40.950254" lon="16.0740966"><ele>444.0</ele><time>2026-04-19T08:43:44.377Z</time></trkpt><trkpt lat="40.9499943" lon="16.0738665"><ele>445.0</ele><time>2026-04-19T08:43:45.377Z</time></trkpt><trkpt lat="40.9497464" lon="16.0736466"><ele>446.0</ele><time>2026-04-19T08:43:46.377Z</time></trkpt><trkpt lat="40.9495274" lon="16.0734389"><ele>446.0</ele><time>2026-04-19T08:43:47.377Z</time></trkpt><trkpt lat="40.9493256" lon="16.0732546"><ele>446.0</ele><time>2026-04-19T08:43:48.377Z</time></trkpt><trkpt lat="40.949142" lon="16.0730927"><ele>446.0</ele><time>2026-04-19T08:43:49.377Z</time></trkpt><trkpt lat="40.9489494" lon="16.072928"><ele>446.0</ele><time>2026-04-19T08:43:50.377Z</time></trkpt><trkpt lat="40.9487429" lon="16.0727517"><ele>446.0</ele><time>2026-04-19T08:43:51.377Z</time></trkpt><trkpt lat="40.9485225" lon="16.0725687"><ele>446.0</ele><time>2026-04-19T08:43:52.377Z</time></trkpt><trkpt lat="40.9482851" lon="16.0723787"><ele>442.5</ele><time>2026-04-19T08:43:53.377Z</time></trkpt><trkpt lat="40.9480764" lon="16.0721989"><ele>439.0</ele><time>2026-04-19T08:43:54.377Z</time></trkpt><trkpt lat="40.9478956" lon="16.0720312"><ele>439.0</ele><time>2026-04-19T08:43:55.377Z</time></trkpt><trkpt lat="40.9477276" lon="16.071864"><ele>439.0</ele><time>2026-04-19T08:43:56.377Z</time></trkpt><trkpt lat="40.9475688" lon="16.0717121"><ele>439.0</ele><time>2026-04-19T08:43:57.377Z</time></trkpt><trkpt lat="40.9474166" lon="16.0715761"><ele>436.33333333333337</ele><time>2026-04-19T08:43:58.377Z</time></trkpt><trkpt lat="40.9472562" lon="16.0714625"><ele>433.66666666666663</ele><time>2026-04-19T08:43:59.377Z</time></trkpt><trkpt lat="40.9470686" lon="16.0713795"><ele>431.0</ele><time>2026-04-19T08:44:00.377Z</time></trkpt><trkpt lat="40.9468534" lon="16.0713309"><ele>431.0</ele><time>2026-04-19T08:44:01.377Z</time></trkpt><trkpt lat="40.9466061" lon="16.0712928"><ele>431.0</ele><time>2026-04-19T08:44:02.377Z</time></trkpt><trkpt lat="40.9463344" lon="16.0712498"><ele>431.0</ele><time>2026-04-19T08:44:03.377Z</time></trkpt><trkpt lat="40.9460635" lon="16.0712014"><ele>431.0</ele><time>2026-04-19T08:44:04.377Z</time></trkpt><trkpt lat="40.9458113" lon="16.0711588"><ele>430.5</ele><time>2026-04-19T08:44:05.377Z</time></trkpt><trkpt lat="40.9455429" lon="16.0711268"><ele>430.0</ele><time>2026-04-19T08:44:06.377Z</time></trkpt><trkpt lat="40.9452545" lon="16.0710937"><ele>429.0</ele><time>2026-04-19T08:44:07.377Z</time></trkpt><trkpt lat="40.9449507" lon="16.0710515"><ele>428.0</ele><time>2026-04-19T08:44:08.377Z</time></trkpt><trkpt lat="40.9446507" lon="16.0710039"><ele>428.0</ele><time>2026-04-19T08:44:09.377Z</time></trkpt><trkpt lat="40.9443627" lon="16.070956"><ele>428.0</ele><time>2026-04-19T08:44:10.377Z</time></trkpt><trkpt lat="40.9440683" lon="16.0709079"><ele>426.5</ele><time>2026-04-19T08:44:11.377Z</time></trkpt><trkpt lat="40.9437609" lon="16.0708572"><ele>425.0</ele><time>2026-04-19T08:44:12.377Z</time></trkpt><trkpt lat="40.9434362" lon="16.0708036"><ele>422.5</ele><time>2026-04-19T08:44:13.377Z</time></trkpt><trkpt lat="40.9431028" lon="16.070754"><ele>420.0</ele><time>2026-04-19T08:44:14.377Z</time></trkpt><trkpt lat="40.9427792" lon="16.0707044"><ele>417.5</ele><time>2026-04-19T08:44:15.377Z</time></trkpt><trkpt lat="40.9424671" lon="16.0706497"><ele>415.0</ele><time>2026-04-19T08:44:16.377Z</time></trkpt><trkpt lat="40.9421722" lon="16.0706013"><ele>415.0</ele><time>2026-04-19T08:44:17.377Z</time></trkpt><trkpt lat="40.9419066" lon="16.0705654"><ele>415.0</ele><time>2026-04-19T08:44:18.377Z</time></trkpt><trkpt lat="40.9416606" lon="16.0705282"><ele>414.0</ele><time>2026-04-19T08:44:19.377Z</time></trkpt><trkpt lat="40.9414283" lon="16.0704935"><ele>413.0</ele><time>2026-04-19T08:44:20.377Z</time></trkpt><trkpt lat="40.9412162" lon="16.0704636"><ele>412.0</ele><time>2026-04-19T08:44:21.377Z</time></trkpt><trkpt lat="40.9410308" lon="16.0704332"><ele>411.0</ele><time>2026-04-19T08:44:22.377Z</time></trkpt><trkpt lat="40.9408663" lon="16.0703784"><ele>410.0</ele><time>2026-04-19T08:44:23.377Z</time></trkpt><trkpt lat="40.9407021" lon="16.0702492"><ele>409.0</ele><time>2026-04-19T08:44:24.377Z</time></trkpt><trkpt lat="40.940499" lon="16.0700624"><ele>407.5</ele><time>2026-04-19T08:44:25.377Z</time></trkpt><trkpt lat="40.9402806" lon="16.0698492"><ele>406.0</ele><time>2026-04-19T08:44:26.377Z</time></trkpt><trkpt lat="40.9400554" lon="16.069631"><ele>405.0</ele><time>2026-04-19T08:44:27.377Z</time></trkpt><trkpt lat="40.9398239" lon="16.0693895"><ele>404.0</ele><time>2026-04-19T08:44:28.377Z</time></trkpt><trkpt lat="40.9395928" lon="16.0691667"><ele>402.5</ele><time>2026-04-19T08:44:29.377Z</time></trkpt><trkpt lat="40.9393617" lon="16.0689471"><ele>401.0</ele><time>2026-04-19T08:44:30.377Z</time></trkpt><trkpt lat="40.9391423" lon="16.0687358"><ele>401.0</ele><time>2026-04-19T08:44:31.377Z</time></trkpt><trkpt lat="40.9389633" lon="16.0685618"><ele>401.0</ele><time>2026-04-19T08:44:32.377Z</time></trkpt><trkpt lat="40.9388043" lon="16.0684105"><ele>401.0</ele><time>2026-04-19T08:44:33.377Z</time></trkpt><trkpt lat="40.9386429" lon="16.0682745"><ele>401.0</ele><time>2026-04-19T08:44:34.377Z</time></trkpt><trkpt lat="40.938465" lon="16.0681567"><ele>401.0</ele><time>2026-04-19T08:44:35.377Z</time></trkpt><trkpt lat="40.9382469" lon="16.0680661"><ele>401.0</ele><time>2026-04-19T08:44:36.377Z</time></trkpt><trkpt lat="40.9380003" lon="16.0680024"><ele>398.5</ele><time>2026-04-19T08:44:37.377Z</time></trkpt><trkpt lat="40.9377193" lon="16.067945"><ele>396.0</ele><time>2026-04-19T08:44:38.377Z</time></trkpt><trkpt lat="40.9374428" lon="16.0678815"><ele>393.5</ele><time>2026-04-19T08:44:39.377Z</time></trkpt><trkpt lat="40.9371644" lon="16.0678103"><ele>391.0</ele><time>2026-04-19T08:44:40.377Z</time></trkpt><trkpt lat="40.9368657" lon="16.0677403"><ele>390.0</ele><time>2026-04-19T08:44:41.377Z</time></trkpt><trkpt lat="40.9365504" lon="16.0676706"><ele>389.0</ele><time>2026-04-19T08:44:42.377Z</time></trkpt><trkpt lat="40.9362508" lon="16.0676071"><ele>389.0</ele><time>2026-04-19T08:44:43.377Z</time></trkpt><trkpt lat="40.9359731" lon="16.0675427"><ele>389.0</ele><time>2026-04-19T08:44:44.377Z</time></trkpt><trkpt lat="40.935717" lon="16.0674822"><ele>387.66666666666663</ele><time>2026-04-19T08:44:45.376Z</time></trkpt><trkpt lat="40.9354898" lon="16.067433"><ele>386.33333333333337</ele><time>2026-04-19T08:44:46.376Z</time></trkpt><trkpt lat="40.935287" lon="16.0673869"><ele>385.0</ele><time>2026-04-19T08:44:47.376Z</time></trkpt><trkpt lat="40.9351016" lon="16.0673357"><ele>384.6666666666667</ele><time>2026-04-19T08:44:48.376Z</time></trkpt><trkpt lat="40.9349299" lon="16.0672956"><ele>384.33333333333337</ele><time>2026-04-19T08:44:49.376Z</time></trkpt><trkpt lat="40.934772" lon="16.0672617"><ele>384.0</ele><time>2026-04-19T08:44:50.376Z</time></trkpt><trkpt lat="40.9346197" lon="16.0672231"><ele>384.0</ele><time>2026-04-19T08:44:51.376Z</time></trkpt><trkpt lat="40.9344732" lon="16.0671853"><ele>384.0</ele><time>2026-04-19T08:44:52.376Z</time></trkpt><trkpt lat="40.9343302" lon="16.0671555"><ele>384.0</ele><time>2026-04-19T08:44:53.376Z</time></trkpt><trkpt lat="40.9341988" lon="16.0671202"><ele>384.0</ele><time>2026-04-19T08:44:54.376Z</time></trkpt><trkpt lat="40.934101" lon="16.0670907"><ele>383.25</ele><time>2026-04-19T08:44:55.376Z</time></trkpt><trkpt lat="40.9340081" lon="16.06707"><ele>382.5</ele><time>2026-04-19T08:44:56.376Z</time></trkpt><trkpt lat="40.9338967" lon="16.0670513"><ele>381.75</ele><time>2026-04-19T08:44:57.376Z</time></trkpt><trkpt lat="40.9337593" lon="16.0670211"><ele>381.0</ele><time>2026-04-19T08:44:58.376Z</time></trkpt><trkpt lat="40.9335889" lon="16.0669912"><ele>380.6666666666667</ele><time>2026-04-19T08:44:59.376Z</time></trkpt><trkpt lat="40.9333859" lon="16.0669482"><ele>380.33333333333337</ele><time>2026-04-19T08:45:00.376Z</time></trkpt><trkpt lat="40.9331719" lon="16.0669031"><ele>380.0</ele><time>2026-04-19T08:45:01.376Z</time></trkpt><trkpt lat="40.9329345" lon="16.066842"><ele>380.0</ele><time>2026-04-19T08:45:02.376Z</time></trkpt><trkpt lat="40.9326716" lon="16.0667805"><ele>380.0</ele><time>2026-04-19T08:45:03.376Z</time></trkpt><trkpt lat="40.9323991" lon="16.0667231"><ele>379.0</ele><time>2026-04-19T08:45:04.376Z</time></trkpt><trkpt lat="40.9321212" lon="16.066663"><ele>378.0</ele><time>2026-04-19T08:45:05.376Z</time></trkpt><trkpt lat="40.9318665" lon="16.0666048"><ele>376.5</ele><time>2026-04-19T08:45:06.376Z</time></trkpt><trkpt lat="40.9316332" lon="16.0665415"><ele>375.0</ele><time>2026-04-19T08:45:07.376Z</time></trkpt><trkpt lat="40.9313756" lon="16.0664799"><ele>375.0</ele><time>2026-04-19T08:45:08.376Z</time></trkpt><trkpt lat="40.931108" lon="16.0664208"><ele>375.0</ele><time>2026-04-19T08:45:09.376Z</time></trkpt><trkpt lat="40.9308427" lon="16.0663691"><ele>374.0</ele><time>2026-04-19T08:45:10.376Z</time></trkpt><trkpt lat="40.9305756" lon="16.066311"><ele>373.0</ele><time>2026-04-19T08:45:11.376Z</time></trkpt><trkpt lat="40.9303111" lon="16.0662515"><ele>373.5</ele><time>2026-04-19T08:45:12.376Z</time></trkpt><trkpt lat="40.9300535" lon="16.0661616"><ele>374.0</ele><time>2026-04-19T08:45:13.376Z</time></trkpt><trkpt lat="40.9297896" lon="16.0660303"><ele>374.0</ele><time>2026-04-19T08:45:14.376Z</time></trkpt><trkpt lat="40.9295177" lon="16.0658868"><ele>374.0</ele><time>2026-04-19T08:45:15.376Z</time></trkpt><trkpt lat="40.9292897" lon="16.065749"><ele>372.5</ele><time>2026-04-19T08:45:16.376Z</time></trkpt><trkpt lat="40.9290758" lon="16.0656067"><ele>371.0</ele><time>2026-04-19T08:45:17.376Z</time></trkpt><trkpt lat="40.928843" lon="16.0654669"><ele>371.0</ele><time>2026-04-19T08:45:18.376Z</time></trkpt><trkpt lat="40.9286221" lon="16.0653348"><ele>371.0</ele><time>2026-04-19T08:45:19.376Z</time></trkpt><trkpt lat="40.9283988" lon="16.0652117"><ele>370.5</ele><time>2026-04-19T08:45:20.376Z</time></trkpt><trkpt lat="40.9281784" lon="16.0651103"><ele>370.0</ele><time>2026-04-19T08:45:21.376Z</time></trkpt><trkpt lat="40.927957" lon="16.0650445"><ele>370.0</ele><time>2026-04-19T08:45:22.376Z</time></trkpt><trkpt lat="40.9277184" lon="16.0650055"><ele>370.0</ele><time>2026-04-19T08:45:23.376Z</time></trkpt><trkpt lat="40.9274667" lon="16.0649959"><ele>368.0</ele><time>2026-04-19T08:45:24.376Z</time></trkpt><trkpt lat="40.9272122" lon="16.0650032"><ele>366.0</ele><time>2026-04-19T08:45:25.376Z</time></trkpt><trkpt lat="40.9269634" lon="16.0650394"><ele>366.0</ele><time>2026-04-19T08:45:26.376Z</time></trkpt><trkpt lat="40.92672" lon="16.0650657"><ele>366.0</ele><time>2026-04-19T08:45:27.376Z</time></trkpt><trkpt lat="40.9264621" lon="16.0650963"><ele>366.0</ele><time>2026-04-19T08:45:28.376Z</time></trkpt><trkpt lat="40.9261682" lon="16.0651236"><ele>366.0</ele><time>2026-04-19T08:45:29.376Z</time></trkpt><trkpt lat="40.9258402" lon="16.0651512"><ele>366.0</ele><time>2026-04-19T08:45:30.376Z</time></trkpt><trkpt lat="40.9255239" lon="16.065184"><ele>366.0</ele><time>2026-04-19T08:45:31.376Z</time></trkpt><trkpt lat="40.9252047" lon="16.06522"><ele>367.0</ele><time>2026-04-19T08:45:32.376Z</time></trkpt><trkpt lat="40.9248647" lon="16.0652496"><ele>368.0</ele><time>2026-04-19T08:45:33.376Z</time></trkpt><trkpt lat="40.9245352" lon="16.0652801"><ele>368.0</ele><time>2026-04-19T08:45:34.376Z</time></trkpt><trkpt lat="40.9242342" lon="16.065318"><ele>368.0</ele><time>2026-04-19T08:45:35.376Z</time></trkpt><trkpt lat="40.923941" lon="16.0653352"><ele>369.5</ele><time>2026-04-19T08:45:36.376Z</time></trkpt><trkpt lat="40.9236315" lon="16.0653433"><ele>371.0</ele><time>2026-04-19T08:45:37.376Z</time></trkpt><trkpt lat="40.9232975" lon="16.0653247"><ele>371.0</ele><time>2026-04-19T08:45:38.376Z</time></trkpt><trkpt lat="40.9229305" lon="16.0652888"><ele>371.0</ele><time>2026-04-19T08:45:39.376Z</time></trkpt><trkpt lat="40.9225442" lon="16.0652475"><ele>372.0</ele><time>2026-04-19T08:45:40.376Z</time></trkpt><trkpt lat="40.9221665" lon="16.0652043"><ele>373.0</ele><time>2026-04-19T08:45:41.376Z</time></trkpt><trkpt lat="40.9218097" lon="16.0651596"><ele>373.5</ele><time>2026-04-19T08:45:42.376Z</time></trkpt><trkpt lat="40.921455" lon="16.065115"><ele>374.0</ele><time>2026-04-19T08:45:43.376Z</time></trkpt><trkpt lat="40.9210845" lon="16.0650721"><ele>373.5</ele><time>2026-04-19T08:45:44.376Z</time></trkpt><trkpt lat="40.9206997" lon="16.0650259"><ele>373.0</ele><time>2026-04-19T08:45:45.376Z</time></trkpt><trkpt lat="40.9203354" lon="16.064984"><ele>373.0</ele><time>2026-04-19T08:45:46.376Z</time></trkpt><trkpt lat="40.9199964" lon="16.0649383"><ele>373.0</ele><time>2026-04-19T08:45:47.376Z</time></trkpt><trkpt lat="40.9196804" lon="16.064895"><ele>373.0</ele><time>2026-04-19T08:45:48.376Z</time></trkpt><trkpt lat="40.9193906" lon="16.0648559"><ele>373.0</ele><time>2026-04-19T08:45:49.376Z</time></trkpt><trkpt lat="40.9191179" lon="16.0648052"><ele>375.0</ele><time>2026-04-19T08:45:50.376Z</time></trkpt><trkpt lat="40.9188652" lon="16.0647347"><ele>377.0</ele><time>2026-04-19T08:45:51.376Z</time></trkpt><trkpt lat="40.9186394" lon="16.0646481"><ele>377.0</ele><time>2026-04-19T08:45:52.376Z</time></trkpt><trkpt lat="40.9184032" lon="16.0645568"><ele>377.0</ele><time>2026-04-19T08:45:53.376Z</time></trkpt><trkpt lat="40.9181696" lon="16.0644592"><ele>378.0</ele><time>2026-04-19T08:45:54.376Z</time></trkpt><trkpt lat="40.9179302" lon="16.0643591"><ele>379.0</ele><time>2026-04-19T08:45:55.376Z</time></trkpt><trkpt lat="40.9176845" lon="16.0642658"><ele>378.5</ele><time>2026-04-19T08:45:56.376Z</time></trkpt><trkpt lat="40.9174292" lon="16.0641623"><ele>378.0</ele><time>2026-04-19T08:45:57.376Z</time></trkpt><trkpt lat="40.9171656" lon="16.0640542"><ele>378.0</ele><time>2026-04-19T08:45:58.376Z</time></trkpt><trkpt lat="40.9168866" lon="16.0639354"><ele>378.0</ele><time>2026-04-19T08:45:59.376Z</time></trkpt><trkpt lat="40.9165844" lon="16.0638051"><ele>378.5</ele><time>2026-04-19T08:46:00.376Z</time></trkpt><trkpt lat="40.9162534" lon="16.0636617"><ele>379.0</ele><time>2026-04-19T08:46:01.376Z</time></trkpt><trkpt lat="40.9159312" lon="16.0635252"><ele>380.0</ele><time>2026-04-19T08:46:02.376Z</time></trkpt><trkpt lat="40.9156049" lon="16.0633941"><ele>381.0</ele><time>2026-04-19T08:46:03.376Z</time></trkpt><trkpt lat="40.9152982" lon="16.06326"><ele>381.0</ele><time>2026-04-19T08:46:04.376Z</time></trkpt><trkpt lat="40.9150098" lon="16.0631396"><ele>381.0</ele><time>2026-04-19T08:46:05.376Z</time></trkpt><trkpt lat="40.9147166" lon="16.0630128"><ele>381.0</ele><time>2026-04-19T08:46:06.376Z</time></trkpt><trkpt lat="40.9144113" lon="16.0628893"><ele>381.0</ele><time>2026-04-19T08:46:07.376Z</time></trkpt><trkpt lat="40.9141066" lon="16.0627621"><ele>383.5</ele><time>2026-04-19T08:46:08.376Z</time></trkpt><trkpt lat="40.913793" lon="16.0626259"><ele>386.0</ele><time>2026-04-19T08:46:09.376Z</time></trkpt><trkpt lat="40.9134593" lon="16.0624909"><ele>386.5</ele><time>2026-04-19T08:46:10.376Z</time></trkpt><trkpt lat="40.9131239" lon="16.062356"><ele>387.0</ele><time>2026-04-19T08:46:11.376Z</time></trkpt><trkpt lat="40.9128116" lon="16.0622371"><ele>388.0</ele><time>2026-04-19T08:46:12.376Z</time></trkpt><trkpt lat="40.912521" lon="16.0621182"><ele>389.0</ele><time>2026-04-19T08:46:13.376Z</time></trkpt><trkpt lat="40.9122276" lon="16.0619929"><ele>389.0</ele><time>2026-04-19T08:46:14.376Z</time></trkpt><trkpt lat="40.911931" lon="16.0618686"><ele>389.0</ele><time>2026-04-19T08:46:15.376Z</time></trkpt><trkpt lat="40.9116513" lon="16.061762"><ele>390.0</ele><time>2026-04-19T08:46:16.376Z</time></trkpt><trkpt lat="40.9113812" lon="16.0616609"><ele>391.0</ele><time>2026-04-19T08:46:17.376Z</time></trkpt><trkpt lat="40.9110936" lon="16.0615697"><ele>391.5</ele><time>2026-04-19T08:46:18.376Z</time></trkpt><trkpt lat="40.9107924" lon="16.0614977"><ele>392.0</ele><time>2026-04-19T08:46:19.376Z</time></trkpt><trkpt lat="40.9104764" lon="16.0614257"><ele>392.0</ele><time>2026-04-19T08:46:20.376Z</time></trkpt><trkpt lat="40.9101668" lon="16.0613444"><ele>392.0</ele><time>2026-04-19T08:46:21.376Z</time></trkpt><trkpt lat="40.9098284" lon="16.0612605"><ele>394.0</ele><time>2026-04-19T08:46:22.376Z</time></trkpt><trkpt lat="40.9094978" lon="16.061177"><ele>396.0</ele><time>2026-04-19T08:46:23.376Z</time></trkpt><trkpt lat="40.9091847" lon="16.0610989"><ele>396.0</ele><time>2026-04-19T08:46:24.376Z</time></trkpt><trkpt lat="40.9088732" lon="16.0610166"><ele>396.0</ele><time>2026-04-19T08:46:25.376Z</time></trkpt><trkpt lat="40.9085549" lon="16.0609373"><ele>396.0</ele><time>2026-04-19T08:46:26.376Z</time></trkpt><trkpt lat="40.9082179" lon="16.0608505"><ele>396.0</ele><time>2026-04-19T08:46:27.376Z</time></trkpt><trkpt lat="40.9078643" lon="16.06075"><ele>399.0</ele><time>2026-04-19T08:46:28.376Z</time></trkpt><trkpt lat="40.9075317" lon="16.0606378"><ele>402.0</ele><time>2026-04-19T08:46:29.376Z</time></trkpt><trkpt lat="40.9072217" lon="16.0605429"><ele>402.0</ele><time>2026-04-19T08:46:30.376Z</time></trkpt><trkpt lat="40.9069083" lon="16.0604476"><ele>402.0</ele><time>2026-04-19T08:46:31.376Z</time></trkpt><trkpt lat="40.9065831" lon="16.060342"><ele>403.5</ele><time>2026-04-19T08:46:32.376Z</time></trkpt><trkpt lat="40.9062673" lon="16.0602278"><ele>405.0</ele><time>2026-04-19T08:46:33.376Z</time></trkpt><trkpt lat="40.9059645" lon="16.06011"><ele>405.0</ele><time>2026-04-19T08:46:34.376Z</time></trkpt><trkpt lat="40.9056622" lon="16.0599691"><ele>405.0</ele><time>2026-04-19T08:46:35.376Z</time></trkpt><trkpt lat="40.9053687" lon="16.0598269"><ele>407.0</ele><time>2026-04-19T08:46:36.376Z</time></trkpt><trkpt lat="40.905106" lon="16.0596791"><ele>409.0</ele><time>2026-04-19T08:46:37.376Z</time></trkpt><trkpt lat="40.9048534" lon="16.0595213"><ele>409.5</ele><time>2026-04-19T08:46:38.376Z</time></trkpt><trkpt lat="40.9045974" lon="16.0593759"><ele>410.0</ele><time>2026-04-19T08:46:39.376Z</time></trkpt><trkpt lat="40.9043202" lon="16.059255"><ele>411.0</ele><time>2026-04-19T08:46:40.376Z</time></trkpt><trkpt lat="40.9040158" lon="16.0591603"><ele>412.0</ele><time>2026-04-19T08:46:41.376Z</time></trkpt><trkpt lat="40.9036988" lon="16.059068"><ele>412.5</ele><time>2026-04-19T08:46:42.376Z</time></trkpt><trkpt lat="40.9033501" lon="16.058968"><ele>413.0</ele><time>2026-04-19T08:46:43.376Z</time></trkpt><trkpt lat="40.9030092" lon="16.0588616"><ele>413.0</ele><time>2026-04-19T08:46:44.376Z</time></trkpt><trkpt lat="40.9027045" lon="16.0587639"><ele>413.0</ele><time>2026-04-19T08:46:45.376Z</time></trkpt><trkpt lat="40.9024069" lon="16.0586704"><ele>416.5</ele><time>2026-04-19T08:46:46.376Z</time></trkpt><trkpt lat="40.9021083" lon="16.0585766"><ele>420.0</ele><time>2026-04-19T08:46:47.376Z</time></trkpt><trkpt lat="40.9018227" lon="16.0584889"><ele>424.0</ele><time>2026-04-19T08:46:48.376Z</time></trkpt><trkpt lat="40.9015663" lon="16.0584098"><ele>428.0</ele><time>2026-04-19T08:46:49.376Z</time></trkpt><trkpt lat="40.9013219" lon="16.0583534"><ele>428.0</ele><time>2026-04-19T08:46:50.376Z</time></trkpt><trkpt lat="40.9010523" lon="16.0583151"><ele>428.0</ele><time>2026-04-19T08:46:51.376Z</time></trkpt><trkpt lat="40.900771" lon="16.0582873"><ele>431.0</ele><time>2026-04-19T08:46:52.376Z</time></trkpt><trkpt lat="40.900514" lon="16.0582481"><ele>434.0</ele><time>2026-04-19T08:46:53.376Z</time></trkpt><trkpt lat="40.900251" lon="16.0581924"><ele>433.5</ele><time>2026-04-19T08:46:54.376Z</time></trkpt><trkpt lat="40.8999763" lon="16.058125"><ele>433.0</ele><time>2026-04-19T08:46:55.376Z</time></trkpt><trkpt lat="40.8997145" lon="16.0580654"><ele>433.0</ele><time>2026-04-19T08:46:56.376Z</time></trkpt><trkpt lat="40.8994843" lon="16.0580149"><ele>433.0</ele><time>2026-04-19T08:46:57.376Z</time></trkpt><trkpt lat="40.8992859" lon="16.057972"><ele>433.0</ele><time>2026-04-19T08:46:58.376Z</time></trkpt><trkpt lat="40.8991247" lon="16.0579311"><ele>432.5</ele><time>2026-04-19T08:46:59.376Z</time></trkpt><trkpt lat="40.8989971" lon="16.0578848"><ele>432.0</ele><time>2026-04-19T08:47:00.376Z</time></trkpt><trkpt lat="40.8988831" lon="16.0577959"><ele>431.5</ele><time>2026-04-19T08:47:01.376Z</time></trkpt><trkpt lat="40.8987517" lon="16.0576369"><ele>431.0</ele><time>2026-04-19T08:47:02.376Z</time></trkpt><trkpt lat="40.8986049" lon="16.0574386"><ele>431.0</ele><time>2026-04-19T08:47:03.376Z</time></trkpt><trkpt lat="40.8984476" lon="16.0572279"><ele>431.0</ele><time>2026-04-19T08:47:04.376Z</time></trkpt><trkpt lat="40.8982984" lon="16.0570345"><ele>431.0</ele><time>2026-04-19T08:47:05.376Z</time></trkpt><trkpt lat="40.8981656" lon="16.0568664"><ele>429.0</ele><time>2026-04-19T08:47:06.376Z</time></trkpt><trkpt lat="40.898055" lon="16.0567259"><ele>427.0</ele><time>2026-04-19T08:47:07.376Z</time></trkpt><trkpt lat="40.8979589" lon="16.0565769"><ele>425.0</ele><time>2026-04-19T08:47:08.376Z</time></trkpt><trkpt lat="40.8978749" lon="16.0563982"><ele>425.0</ele><time>2026-04-19T08:47:09.376Z</time></trkpt><trkpt lat="40.8978001" lon="16.0562243"><ele>425.0</ele><time>2026-04-19T08:47:10.376Z</time></trkpt><trkpt lat="40.8977222" lon="16.056097"><ele>425.0</ele><time>2026-04-19T08:47:11.376Z</time></trkpt><trkpt lat="40.8976176" lon="16.0560074"><ele>425.0</ele><time>2026-04-19T08:47:12.376Z</time></trkpt><trkpt lat="40.8974709" lon="16.0559263"><ele>423.0</ele><time>2026-04-19T08:47:13.376Z</time></trkpt><trkpt lat="40.8973013" lon="16.0558438"><ele>421.0</ele><time>2026-04-19T08:47:14.376Z</time></trkpt><trkpt lat="40.8971423" lon="16.0557611"><ele>419.0</ele><time>2026-04-19T08:47:15.376Z</time></trkpt><trkpt lat="40.8970077" lon="16.0557019"><ele>419.0</ele><time>2026-04-19T08:47:16.376Z</time></trkpt><trkpt lat="40.8968671" lon="16.0556891"><ele>419.0</ele><time>2026-04-19T08:47:17.376Z</time></trkpt><trkpt lat="40.8967094" lon="16.0557248"><ele>419.0</ele><time>2026-04-19T08:47:18.376Z</time></trkpt><trkpt lat="40.8965465" lon="16.055817"><ele>417.0</ele><time>2026-04-19T08:47:19.376Z</time></trkpt><trkpt lat="40.8964034" lon="16.0559277"><ele>415.0</ele><time>2026-04-19T08:47:20.376Z</time></trkpt><trkpt lat="40.8962925" lon="16.0560305"><ele>413.0</ele><time>2026-04-19T08:47:21.376Z</time></trkpt><trkpt lat="40.8962243" lon="16.0561682"><ele>411.0</ele><time>2026-04-19T08:47:22.376Z</time></trkpt><trkpt lat="40.8961857" lon="16.0563593"><ele>411.0</ele><time>2026-04-19T08:47:23.376Z</time></trkpt><trkpt lat="40.8961862" lon="16.0565991"><ele>411.0</ele><time>2026-04-19T08:47:24.376Z</time></trkpt><trkpt lat="40.8962098" lon="16.0568795"><ele>411.0</ele><time>2026-04-19T08:47:25.376Z</time></trkpt><trkpt lat="40.8962358" lon="16.0572017"><ele>410.0</ele><time>2026-04-19T08:47:26.376Z</time></trkpt><trkpt lat="40.8962588" lon="16.0575353"><ele>409.0</ele><time>2026-04-19T08:47:27.376Z</time></trkpt><trkpt lat="40.896277" lon="16.0578565"><ele>409.0</ele><time>2026-04-19T08:47:28.376Z</time></trkpt><trkpt lat="40.8963121" lon="16.0581555"><ele>409.0</ele><time>2026-04-19T08:47:29.376Z</time></trkpt><trkpt lat="40.8963614" lon="16.0584482"><ele>409.5</ele><time>2026-04-19T08:47:30.376Z</time></trkpt><trkpt lat="40.8964373" lon="16.0587655"><ele>410.0</ele><time>2026-04-19T08:47:31.376Z</time></trkpt><trkpt lat="40.8965166" lon="16.0590687"><ele>411.66666666666663</ele><time>2026-04-19T08:47:32.376Z</time></trkpt><trkpt lat="40.8965745" lon="16.0593268"><ele>413.33333333333337</ele><time>2026-04-19T08:47:33.376Z</time></trkpt><trkpt lat="40.8966165" lon="16.0595897"><ele>415.0</ele><time>2026-04-19T08:47:34.376Z</time></trkpt><trkpt lat="40.8966412" lon="16.0598504"><ele>417.33333333333337</ele><time>2026-04-19T08:47:35.376Z</time></trkpt><trkpt lat="40.8966658" lon="16.0601108"><ele>419.66666666666663</ele><time>2026-04-19T08:47:36.376Z</time></trkpt><trkpt lat="40.8967128" lon="16.0603806"><ele>422.0</ele><time>2026-04-19T08:47:37.376Z</time></trkpt><trkpt lat="40.8967765" lon="16.06061"><ele>422.20000000000005</ele><time>2026-04-19T08:47:38.376Z</time></trkpt><trkpt lat="40.8968407" lon="16.0607876"><ele>422.4</ele><time>2026-04-19T08:47:39.376Z</time></trkpt><trkpt lat="40.8968618" lon="16.0609276"><ele>422.6</ele><time>2026-04-19T08:47:40.376Z</time></trkpt><trkpt lat="40.8968615" lon="16.0610452"><ele>422.79999999999995</ele><time>2026-04-19T08:47:41.376Z</time></trkpt><trkpt lat="40.8968046" lon="16.0611485"><ele>423.0</ele><time>2026-04-19T08:47:42.376Z</time></trkpt><trkpt lat="40.8967185" lon="16.0612407"><ele>423.0</ele><time>2026-04-19T08:47:43.376Z</time></trkpt><trkpt lat="40.896611" lon="16.0612729"><ele>423.0</ele><time>2026-04-19T08:47:44.376Z</time></trkpt><trkpt lat="40.8965034" lon="16.0612332"><ele>423.0</ele><time>2026-04-19T08:47:45.376Z</time></trkpt><trkpt lat="40.8963765" lon="16.061128"><ele>423.0</ele><time>2026-04-19T08:47:46.376Z</time></trkpt><trkpt lat="40.8962315" lon="16.0609906"><ele>423.0</ele><time>2026-04-19T08:47:47.376Z</time></trkpt><trkpt lat="40.8960769" lon="16.0608453"><ele>423.0</ele><time>2026-04-19T08:47:48.376Z</time></trkpt><trkpt lat="40.8959218" lon="16.0606966"><ele>423.0</ele><time>2026-04-19T08:47:49.376Z</time></trkpt><trkpt lat="40.8957572" lon="16.0605544"><ele>428.5</ele><time>2026-04-19T08:47:50.376Z</time></trkpt><trkpt lat="40.8955748" lon="16.0603936"><ele>434.0</ele><time>2026-04-19T08:47:51.376Z</time></trkpt><trkpt lat="40.8953601" lon="16.0602131"><ele>434.0</ele><time>2026-04-19T08:47:52.376Z</time></trkpt><trkpt lat="40.895143" lon="16.0600294"><ele>434.0</ele><time>2026-04-19T08:47:53.376Z</time></trkpt><trkpt lat="40.8949151" lon="16.0598384"><ele>435.0</ele><time>2026-04-19T08:47:54.376Z</time></trkpt><trkpt lat="40.8946661" lon="16.059628"><ele>436.0</ele><time>2026-04-19T08:47:55.376Z</time></trkpt><trkpt lat="40.8944052" lon="16.0594109"><ele>437.5</ele><time>2026-04-19T08:47:56.376Z</time></trkpt><trkpt lat="40.8941443" lon="16.0591901"><ele>439.0</ele><time>2026-04-19T08:47:57.376Z</time></trkpt><trkpt lat="40.8938842" lon="16.0589719"><ele>440.0</ele><time>2026-04-19T08:47:58.376Z</time></trkpt><trkpt lat="40.8936167" lon="16.0587417"><ele>441.0</ele><time>2026-04-19T08:47:59.376Z</time></trkpt><trkpt lat="40.8933338" lon="16.0584901"><ele>441.0</ele><time>2026-04-19T08:48:00.376Z</time></trkpt><trkpt lat="40.8930492" lon="16.0582369"><ele>441.0</ele><time>2026-04-19T08:48:01.376Z</time></trkpt><trkpt lat="40.8927751" lon="16.057999"><ele>442.5</ele><time>2026-04-19T08:48:02.376Z</time></trkpt><trkpt lat="40.8925113" lon="16.0577649"><ele>444.0</ele><time>2026-04-19T08:48:03.376Z</time></trkpt><trkpt lat="40.8922715" lon="16.0575606"><ele>444.0</ele><time>2026-04-19T08:48:04.376Z</time></trkpt><trkpt lat="40.8920462" lon="16.0573563"><ele>444.0</ele><time>2026-04-19T08:48:05.376Z</time></trkpt><trkpt lat="40.8918376" lon="16.057167"><ele>446.0</ele><time>2026-04-19T08:48:06.376Z</time></trkpt><trkpt lat="40.8916518" lon="16.0569952"><ele>448.0</ele><time>2026-04-19T08:48:07.376Z</time></trkpt><trkpt lat="40.8914783" lon="16.0568161"><ele>450.0</ele><time>2026-04-19T08:48:08.376Z</time></trkpt><trkpt lat="40.8913288" lon="16.0566264"><ele>451.0</ele><time>2026-04-19T08:48:09.376Z</time></trkpt><trkpt lat="40.8912199" lon="16.0564601"><ele>452.0</ele><time>2026-04-19T08:48:10.376Z</time></trkpt><trkpt lat="40.8911471" lon="16.0563078"><ele>453.0</ele><time>2026-04-19T08:48:11.376Z</time></trkpt><trkpt lat="40.8911107" lon="16.0561534"><ele>454.0</ele><time>2026-04-19T08:48:12.376Z</time></trkpt><trkpt lat="40.8911187" lon="16.0559937"><ele>454.0</ele><time>2026-04-19T08:48:13.376Z</time></trkpt><trkpt lat="40.8911683" lon="16.0558076"><ele>454.0</ele><time>2026-04-19T08:48:14.376Z</time></trkpt><trkpt lat="40.8912418" lon="16.055594"><ele>454.0</ele><time>2026-04-19T08:48:15.376Z</time></trkpt><trkpt lat="40.8913295" lon="16.0553793"><ele>455.0</ele><time>2026-04-19T08:48:16.376Z</time></trkpt><trkpt lat="40.8913929" lon="16.0551985"><ele>456.0</ele><time>2026-04-19T08:48:17.376Z</time></trkpt><trkpt lat="40.8914254" lon="16.0550443"><ele>457.0</ele><time>2026-04-19T08:48:18.376Z</time></trkpt><trkpt lat="40.8914253" lon="16.0548743"><ele>458.0</ele><time>2026-04-19T08:48:19.376Z</time></trkpt><trkpt lat="40.8913805" lon="16.0546763"><ele>458.0</ele><time>2026-04-19T08:48:20.376Z</time></trkpt><trkpt lat="40.8913102" lon="16.0544555"><ele>458.0</ele><time>2026-04-19T08:48:21.376Z</time></trkpt><trkpt lat="40.8912278" lon="16.0542275"><ele>458.0</ele><time>2026-04-19T08:48:22.376Z</time></trkpt><trkpt lat="40.8911548" lon="16.0540064"><ele>456.66666666666663</ele><time>2026-04-19T08:48:23.376Z</time></trkpt><trkpt lat="40.8910787" lon="16.0538265"><ele>455.33333333333337</ele><time>2026-04-19T08:48:24.376Z</time></trkpt><trkpt lat="40.8909829" lon="16.0536625"><ele>454.0</ele><time>2026-04-19T08:48:25.376Z</time></trkpt><trkpt lat="40.8908677" lon="16.0535071"><ele>457.25</ele><time>2026-04-19T08:48:26.376Z</time></trkpt><trkpt lat="40.8907674" lon="16.0533681"><ele>460.5</ele><time>2026-04-19T08:48:27.376Z</time></trkpt><trkpt lat="40.8907181" lon="16.0532069"><ele>463.75</ele><time>2026-04-19T08:48:28.376Z</time></trkpt><trkpt lat="40.8906854" lon="16.0530056"><ele>467.0</ele><time>2026-04-19T08:48:29.376Z</time></trkpt><trkpt lat="40.8906616" lon="16.0528029"><ele>467.3333333333333</ele><time>2026-04-19T08:48:30.376Z</time></trkpt><trkpt lat="40.8906469" lon="16.0526059"><ele>467.66666666666663</ele><time>2026-04-19T08:48:31.376Z</time></trkpt><trkpt lat="40.8906403" lon="16.052396"><ele>468.0</ele><time>2026-04-19T08:48:32.376Z</time></trkpt><trkpt lat="40.890659" lon="16.0521556"><ele>468.75</ele><time>2026-04-19T08:48:33.376Z</time></trkpt><trkpt lat="40.8906893" lon="16.0519179"><ele>469.5</ele><time>2026-04-19T08:48:34.376Z</time></trkpt><trkpt lat="40.8907255" lon="16.0517309"><ele>470.25</ele><time>2026-04-19T08:48:35.376Z</time></trkpt><trkpt lat="40.8907318" lon="16.0516057"><ele>471.0</ele><time>2026-04-19T08:48:36.376Z</time></trkpt><trkpt lat="40.890691" lon="16.0514669"><ele>471.0</ele><time>2026-04-19T08:48:38.375Z</time></trkpt><trkpt lat="40.8906261" lon="16.0514484"><ele>471.0</ele><time>2026-04-19T08:48:39.375Z</time></trkpt><trkpt lat="40.8905525" lon="16.0514862"><ele>471.0</ele><time>2026-04-19T08:48:40.375Z</time></trkpt><trkpt lat="40.8904853" lon="16.051589"><ele>471.0</ele><time>2026-04-19T08:48:41.375Z</time></trkpt><trkpt lat="40.8904058" lon="16.0517426"><ele>471.0</ele><time>2026-04-19T08:48:42.375Z</time></trkpt><trkpt lat="40.8903115" lon="16.0519343"><ele>471.33333333333337</ele><time>2026-04-19T08:48:43.375Z</time></trkpt><trkpt lat="40.8902003" lon="16.0521622"><ele>471.6666666666667</ele><time>2026-04-19T08:48:44.375Z</time></trkpt><trkpt lat="40.8900737" lon="16.0523951"><ele>472.0</ele><time>2026-04-19T08:48:45.375Z</time></trkpt><trkpt lat="40.8899448" lon="16.05261"><ele>476.0</ele><time>2026-04-19T08:48:46.375Z</time></trkpt><trkpt lat="40.8898304" lon="16.0527889"><ele>480.0</ele><time>2026-04-19T08:48:47.375Z</time></trkpt><trkpt lat="40.8897053" lon="16.0529512"><ele>484.0</ele><time>2026-04-19T08:48:48.375Z</time></trkpt><trkpt lat="40.8895431" lon="16.0531188"><ele>484.0</ele><time>2026-04-19T08:48:49.375Z</time></trkpt><trkpt lat="40.8893825" lon="16.0532534"><ele>484.0</ele><time>2026-04-19T08:48:50.375Z</time></trkpt><trkpt lat="40.8892527" lon="16.0533555"><ele>484.0</ele><time>2026-04-19T08:48:51.375Z</time></trkpt><trkpt lat="40.8891553" lon="16.053444"><ele>485.25</ele><time>2026-04-19T08:48:52.375Z</time></trkpt><trkpt lat="40.8890681" lon="16.0535078"><ele>486.5</ele><time>2026-04-19T08:48:53.375Z</time></trkpt><trkpt lat="40.8889769" lon="16.0535249"><ele>487.75</ele><time>2026-04-19T08:48:54.375Z</time></trkpt><trkpt lat="40.8888653" lon="16.0534745"><ele>489.0</ele><time>2026-04-19T08:48:55.375Z</time></trkpt><trkpt lat="40.8887518" lon="16.0533529"><ele>491.25</ele><time>2026-04-19T08:48:56.375Z</time></trkpt><trkpt lat="40.8886708" lon="16.0532269"><ele>493.5</ele><time>2026-04-19T08:48:57.375Z</time></trkpt><trkpt lat="40.8886127" lon="16.0530826"><ele>495.75</ele><time>2026-04-19T08:48:58.375Z</time></trkpt><trkpt lat="40.8885776" lon="16.0528892"><ele>498.0</ele><time>2026-04-19T08:48:59.375Z</time></trkpt><trkpt lat="40.888549" lon="16.0526604"><ele>500.0</ele><time>2026-04-19T08:49:00.375Z</time></trkpt><trkpt lat="40.8885106" lon="16.0524122"><ele>502.0</ele><time>2026-04-19T08:49:01.375Z</time></trkpt><trkpt lat="40.8884463" lon="16.0521901"><ele>504.0</ele><time>2026-04-19T08:49:02.375Z</time></trkpt><trkpt lat="40.8883716" lon="16.0520158"><ele>504.75</ele><time>2026-04-19T08:49:03.375Z</time></trkpt><trkpt lat="40.8882867" lon="16.0518737"><ele>505.5</ele><time>2026-04-19T08:49:04.375Z</time></trkpt><trkpt lat="40.8882037" lon="16.0517611"><ele>506.25</ele><time>2026-04-19T08:49:05.375Z</time></trkpt><trkpt lat="40.8881033" lon="16.0516855"><ele>507.0</ele><time>2026-04-19T08:49:06.375Z</time></trkpt><trkpt lat="40.8879673" lon="16.0516443"><ele>507.0</ele><time>2026-04-19T08:49:07.375Z</time></trkpt><trkpt lat="40.8878169" lon="16.0516417"><ele>507.0</ele><time>2026-04-19T08:49:08.375Z</time></trkpt><trkpt lat="40.8876456" lon="16.0517093"><ele>507.0</ele><time>2026-04-19T08:49:09.375Z</time></trkpt><trkpt lat="40.8875008" lon="16.0517821"><ele>508.25</ele><time>2026-04-19T08:49:10.375Z</time></trkpt><trkpt lat="40.8873722" lon="16.0518111"><ele>509.5</ele><time>2026-04-19T08:49:11.375Z</time></trkpt><trkpt lat="40.8872408" lon="16.0518105"><ele>510.75</ele><time>2026-04-19T08:49:12.375Z</time></trkpt><trkpt lat="40.8871051" lon="16.0517546"><ele>512.0</ele><time>2026-04-19T08:49:13.375Z</time></trkpt><trkpt lat="40.8869779" lon="16.0516431"><ele>516.0</ele><time>2026-04-19T08:49:14.375Z</time></trkpt><trkpt lat="40.8868309" lon="16.0515089"><ele>520.0</ele><time>2026-04-19T08:49:15.375Z</time></trkpt><trkpt lat="40.886651" lon="16.0513697"><ele>524.0</ele><time>2026-04-19T08:49:16.375Z</time></trkpt><trkpt lat="40.8864285" lon="16.0512286"><ele>526.0</ele><time>2026-04-19T08:49:17.375Z</time></trkpt><trkpt lat="40.8861939" lon="16.0511129"><ele>528.0</ele><time>2026-04-19T08:49:18.375Z</time></trkpt><trkpt lat="40.8859488" lon="16.0509842"><ele>526.0</ele><time>2026-04-19T08:49:19.375Z</time></trkpt><trkpt lat="40.8857185" lon="16.050851"><ele>524.0</ele><time>2026-04-19T08:49:20.375Z</time></trkpt><trkpt lat="40.8855201" lon="16.0507227"><ele>530.0</ele><time>2026-04-19T08:49:21.375Z</time></trkpt><trkpt lat="40.8853144" lon="16.0506171"><ele>536.0</ele><time>2026-04-19T08:49:22.375Z</time></trkpt><trkpt lat="40.8850956" lon="16.0505154"><ele>536.6666666666666</ele><time>2026-04-19T08:49:23.375Z</time></trkpt><trkpt lat="40.8848967" lon="16.0504592"><ele>537.3333333333334</ele><time>2026-04-19T08:49:24.375Z</time></trkpt><trkpt lat="40.8847077" lon="16.0504133"><ele>538.0</ele><time>2026-04-19T08:49:25.375Z</time></trkpt><trkpt lat="40.8845011" lon="16.0504051"><ele>538.0</ele><time>2026-04-19T08:49:26.375Z</time></trkpt><trkpt lat="40.8842985" lon="16.0504156"><ele>538.0</ele><time>2026-04-19T08:49:27.375Z</time></trkpt><trkpt lat="40.8840908" lon="16.0504782"><ele>538.0</ele><time>2026-04-19T08:49:28.375Z</time></trkpt><trkpt lat="40.8838614" lon="16.0505847"><ele>539.6666666666667</ele><time>2026-04-19T08:49:29.375Z</time></trkpt><trkpt lat="40.8836398" lon="16.0507025"><ele>541.3333333333334</ele><time>2026-04-19T08:49:30.375Z</time></trkpt><trkpt lat="40.8834619" lon="16.0507977"><ele>543.0</ele><time>2026-04-19T08:49:31.375Z</time></trkpt><trkpt lat="40.883287" lon="16.0508736"><ele>543.0</ele><time>2026-04-19T08:49:32.375Z</time></trkpt><trkpt lat="40.8831104" lon="16.0509227"><ele>543.0</ele><time>2026-04-19T08:49:33.375Z</time></trkpt><trkpt lat="40.8829517" lon="16.0509394"><ele>543.0</ele><time>2026-04-19T08:49:34.375Z</time></trkpt><trkpt lat="40.8828015" lon="16.0509226"><ele>543.0</ele><time>2026-04-19T08:49:35.375Z</time></trkpt><trkpt lat="40.8826121" lon="16.0508895"><ele>543.0</ele><time>2026-04-19T08:49:36.375Z</time></trkpt><trkpt lat="40.8824242" lon="16.0508252"><ele>543.0</ele><time>2026-04-19T08:49:37.375Z</time></trkpt><trkpt lat="40.8822658" lon="16.0507723"><ele>546.0</ele><time>2026-04-19T08:49:38.375Z</time></trkpt><trkpt lat="40.8821001" lon="16.0507467"><ele>549.0</ele><time>2026-04-19T08:49:39.375Z</time></trkpt><trkpt lat="40.8819157" lon="16.0507758"><ele>552.0</ele><time>2026-04-19T08:49:40.375Z</time></trkpt><trkpt lat="40.881694" lon="16.0508601"><ele>552.0</ele><time>2026-04-19T08:49:41.375Z</time></trkpt><trkpt lat="40.8814721" lon="16.0509535"><ele>552.0</ele><time>2026-04-19T08:49:42.375Z</time></trkpt><trkpt lat="40.8812222" lon="16.0510334"><ele>552.0</ele><time>2026-04-19T08:49:43.375Z</time></trkpt><trkpt lat="40.8809831" lon="16.0510809"><ele>552.0</ele><time>2026-04-19T08:49:44.375Z</time></trkpt><trkpt lat="40.8807549" lon="16.051109"><ele>554.0</ele><time>2026-04-19T08:49:45.375Z</time></trkpt><trkpt lat="40.8805488" lon="16.0511353"><ele>556.0</ele><time>2026-04-19T08:49:46.375Z</time></trkpt><trkpt lat="40.88033" lon="16.0511999"><ele>558.0</ele><time>2026-04-19T08:49:47.375Z</time></trkpt><trkpt lat="40.8800987" lon="16.0513071"><ele>559.0</ele><time>2026-04-19T08:49:48.375Z</time></trkpt><trkpt lat="40.8798514" lon="16.0514188"><ele>560.0</ele><time>2026-04-19T08:49:49.375Z</time></trkpt><trkpt lat="40.8796098" lon="16.0515259"><ele>561.5</ele><time>2026-04-19T08:49:50.375Z</time></trkpt><trkpt lat="40.8793647" lon="16.0516308"><ele>563.0</ele><time>2026-04-19T08:49:51.375Z</time></trkpt><trkpt lat="40.8791456" lon="16.0517298"><ele>563.6666666666666</ele><time>2026-04-19T08:49:52.375Z</time></trkpt><trkpt lat="40.8789584" lon="16.0518058"><ele>564.3333333333334</ele><time>2026-04-19T08:49:53.375Z</time></trkpt><trkpt lat="40.8787866" lon="16.0518743"><ele>565.0</ele><time>2026-04-19T08:49:54.375Z</time></trkpt><trkpt lat="40.8785758" lon="16.0519237"><ele>563.5</ele><time>2026-04-19T08:49:55.375Z</time></trkpt><trkpt lat="40.8783178" lon="16.0519522"><ele>562.0</ele><time>2026-04-19T08:49:56.375Z</time></trkpt><trkpt lat="40.8780223" lon="16.0519736"><ele>562.0</ele><time>2026-04-19T08:49:57.375Z</time></trkpt><trkpt lat="40.8777123" lon="16.0519958"><ele>562.0</ele><time>2026-04-19T08:49:58.375Z</time></trkpt><trkpt lat="40.8774045" lon="16.0520289"><ele>563.0</ele><time>2026-04-19T08:49:59.375Z</time></trkpt><trkpt lat="40.8771182" lon="16.0520645"><ele>564.0</ele><time>2026-04-19T08:50:00.375Z</time></trkpt><trkpt lat="40.8768497" lon="16.0520995"><ele>564.5</ele><time>2026-04-19T08:50:01.375Z</time></trkpt><trkpt lat="40.8765913" lon="16.0521354"><ele>565.0</ele><time>2026-04-19T08:50:02.375Z</time></trkpt><trkpt lat="40.8763324" lon="16.052167"><ele>565.0</ele><time>2026-04-19T08:50:03.375Z</time></trkpt><trkpt lat="40.8760788" lon="16.052193"><ele>565.0</ele><time>2026-04-19T08:50:04.375Z</time></trkpt><trkpt lat="40.8758356" lon="16.0522213"><ele>565.0</ele><time>2026-04-19T08:50:05.375Z</time></trkpt><trkpt lat="40.8756092" lon="16.0522469"><ele>565.0</ele><time>2026-04-19T08:50:06.375Z</time></trkpt><trkpt lat="40.8753742" lon="16.0522727"><ele>565.0</ele><time>2026-04-19T08:50:07.375Z</time></trkpt><trkpt lat="40.8751234" lon="16.052302"><ele>565.0</ele><time>2026-04-19T08:50:08.374Z</time></trkpt><trkpt lat="40.874864" lon="16.0523372"><ele>565.0</ele><time>2026-04-19T08:50:09.375Z</time></trkpt><trkpt lat="40.8745753" lon="16.0523733"><ele>565.0</ele><time>2026-04-19T08:50:10.375Z</time></trkpt><trkpt lat="40.8742553" lon="16.0524107"><ele>565.0</ele><time>2026-04-19T08:50:11.375Z</time></trkpt><trkpt lat="40.8739218" lon="16.0524579"><ele>565.0</ele><time>2026-04-19T08:50:12.375Z</time></trkpt><trkpt lat="40.8735977" lon="16.0525014"><ele>566.5</ele><time>2026-04-19T08:50:13.375Z</time></trkpt><trkpt lat="40.8732889" lon="16.0525396"><ele>568.0</ele><time>2026-04-19T08:50:14.375Z</time></trkpt><trkpt lat="40.8730111" lon="16.0525656"><ele>568.0</ele><time>2026-04-19T08:50:15.375Z</time></trkpt><trkpt lat="40.8727385" lon="16.0525891"><ele>568.0</ele><time>2026-04-19T08:50:16.375Z</time></trkpt><trkpt lat="40.8724815" lon="16.0526242"><ele>568.6666666666667</ele><time>2026-04-19T08:50:17.375Z</time></trkpt><trkpt lat="40.8722487" lon="16.0526593"><ele>569.3333333333334</ele><time>2026-04-19T08:50:18.375Z</time></trkpt><trkpt lat="40.8720441" lon="16.0526908"><ele>570.0</ele><time>2026-04-19T08:50:19.375Z</time></trkpt><trkpt lat="40.8718715" lon="16.0527415"><ele>569.6</ele><time>2026-04-19T08:50:20.375Z</time></trkpt><trkpt lat="40.8717329" lon="16.0527945"><ele>569.2</ele><time>2026-04-19T08:50:21.375Z</time></trkpt><trkpt lat="40.8716273" lon="16.0528028"><ele>568.8</ele><time>2026-04-19T08:50:22.374Z</time></trkpt><trkpt lat="40.8715522" lon="16.0527558"><ele>568.4</ele><time>2026-04-19T08:50:23.375Z</time></trkpt><trkpt lat="40.8714977" lon="16.0526569"><ele>568.0</ele><time>2026-04-19T08:50:24.375Z</time></trkpt><trkpt lat="40.8714618" lon="16.0525005"><ele>567.6666666666667</ele><time>2026-04-19T08:50:25.375Z</time></trkpt><trkpt lat="40.8714415" lon="16.052305"><ele>567.3333333333334</ele><time>2026-04-19T08:50:26.375Z</time></trkpt><trkpt lat="40.871427" lon="16.0520481"><ele>567.0</ele><time>2026-04-19T08:50:27.375Z</time></trkpt><trkpt lat="40.8714024" lon="16.0517476"><ele>566.0</ele><time>2026-04-19T08:50:28.375Z</time></trkpt><trkpt lat="40.8713785" lon="16.0514432"><ele>565.0</ele><time>2026-04-19T08:50:29.375Z</time></trkpt><trkpt lat="40.871352" lon="16.0511755"><ele>564.0</ele><time>2026-04-19T08:50:30.374Z</time></trkpt><trkpt lat="40.8713275" lon="16.0509445"><ele>564.0</ele><time>2026-04-19T08:50:31.375Z</time></trkpt><trkpt lat="40.871302" lon="16.050717"><ele>564.0</ele><time>2026-04-19T08:50:32.375Z</time></trkpt><trkpt lat="40.8712787" lon="16.0504877"><ele>564.0</ele><time>2026-04-19T08:50:33.375Z</time></trkpt><trkpt lat="40.8712642" lon="16.0502783"><ele>564.0</ele><time>2026-04-19T08:50:34.374Z</time></trkpt><trkpt lat="40.8712421" lon="16.0501111"><ele>564.0</ele><time>2026-04-19T08:50:35.375Z</time></trkpt><trkpt lat="40.8711954" lon="16.0499574"><ele>564.0</ele><time>2026-04-19T08:50:36.375Z</time></trkpt><trkpt lat="40.8710967" lon="16.0497941"><ele>564.0</ele><time>2026-04-19T08:50:37.375Z</time></trkpt><trkpt lat="40.8709663" lon="16.0496299"><ele>562.25</ele><time>2026-04-19T08:50:38.375Z</time></trkpt><trkpt lat="40.8708368" lon="16.0494988"><ele>560.5</ele><time>2026-04-19T08:50:39.375Z</time></trkpt><trkpt lat="40.8707509" lon="16.0493766"><ele>558.75</ele><time>2026-04-19T08:50:40.375Z</time></trkpt><trkpt lat="40.8706875" lon="16.0492079"><ele>557.0</ele><time>2026-04-19T08:50:41.375Z</time></trkpt><trkpt lat="40.8706489" lon="16.0489894"><ele>557.0</ele><time>2026-04-19T08:50:42.375Z</time></trkpt><trkpt lat="40.8706346" lon="16.04876"><ele>557.0</ele><time>2026-04-19T08:50:43.375Z</time></trkpt><trkpt lat="40.8706341" lon="16.048575"><ele>557.0</ele><time>2026-04-19T08:50:44.375Z</time></trkpt><trkpt lat="40.8706425" lon="16.0484187"><ele>557.0</ele><time>2026-04-19T08:50:45.375Z</time></trkpt><trkpt lat="40.8706401" lon="16.0482982"><ele>557.0</ele><time>2026-04-19T08:50:46.375Z</time></trkpt><trkpt lat="40.8706134" lon="16.0482159"><ele>557.0</ele><time>2026-04-19T08:50:47.375Z</time></trkpt><trkpt lat="40.8705573" lon="16.0481561"><ele>557.0</ele><time>2026-04-19T08:50:48.375Z</time></trkpt><trkpt lat="40.8704925" lon="16.0481517"><ele>557.0</ele><time>2026-04-19T08:50:49.375Z</time></trkpt><trkpt lat="40.870432" lon="16.0482101"><ele>557.0</ele><time>2026-04-19T08:50:50.375Z</time></trkpt><trkpt lat="40.8704015" lon="16.0483414"><ele>557.0</ele><time>2026-04-19T08:50:51.375Z</time></trkpt><trkpt lat="40.8703941" lon="16.0484827"><ele>557.0</ele><time>2026-04-19T08:50:52.374Z</time></trkpt><trkpt lat="40.8704094" lon="16.0486776"><ele>557.0</ele><time>2026-04-19T08:50:53.375Z</time></trkpt><trkpt lat="40.8704187" lon="16.0488905"><ele>557.0</ele><time>2026-04-19T08:50:54.375Z</time></trkpt><trkpt lat="40.8704169" lon="16.0490935"><ele>556.0</ele><time>2026-04-19T08:50:55.375Z</time></trkpt><trkpt lat="40.8704384" lon="16.0492991"><ele>555.0</ele><time>2026-04-19T08:50:56.375Z</time></trkpt><trkpt lat="40.870468" lon="16.0494961"><ele>554.0</ele><time>2026-04-19T08:50:57.375Z</time></trkpt><trkpt lat="40.8705049" lon="16.0496569"><ele>553.0</ele><time>2026-04-19T08:50:58.375Z</time></trkpt><trkpt lat="40.8705187" lon="16.049765"><ele>553.0</ele><time>2026-04-19T08:50:59.375Z</time></trkpt><trkpt lat="40.8704952" lon="16.0498663"><ele>553.0</ele><time>2026-04-19T08:51:00.375Z</time></trkpt><trkpt lat="40.8704359" lon="16.0499451"><ele>553.0</ele><time>2026-04-19T08:51:01.375Z</time></trkpt><trkpt lat="40.8703552" lon="16.0499673"><ele>553.0</ele><time>2026-04-19T08:51:02.375Z</time></trkpt><trkpt lat="40.8702571" lon="16.0499535"><ele>553.0</ele><time>2026-04-19T08:51:03.375Z</time></trkpt><trkpt lat="40.8701436" lon="16.0498781"><ele>547.3333333333334</ele><time>2026-04-19T08:51:04.375Z</time></trkpt><trkpt lat="40.8700128" lon="16.0497655"><ele>541.6666666666666</ele><time>2026-04-19T08:51:05.375Z</time></trkpt><trkpt lat="40.8698797" lon="16.0496364"><ele>536.0</ele><time>2026-04-19T08:51:06.375Z</time></trkpt><trkpt lat="40.8697463" lon="16.0495321"><ele>536.0</ele><time>2026-04-19T08:51:07.375Z</time></trkpt><trkpt lat="40.8695904" lon="16.0494671"><ele>536.0</ele><time>2026-04-19T08:51:08.375Z</time></trkpt><trkpt lat="40.8694273" lon="16.0494139"><ele>536.0</ele><time>2026-04-19T08:51:09.375Z</time></trkpt><trkpt lat="40.8692485" lon="16.0494073"><ele>532.5</ele><time>2026-04-19T08:51:10.375Z</time></trkpt><trkpt lat="40.8690445" lon="16.0494711"><ele>529.0</ele><time>2026-04-19T08:51:11.375Z</time></trkpt><trkpt lat="40.868814" lon="16.0495655"><ele>529.0</ele><time>2026-04-19T08:51:12.375Z</time></trkpt><trkpt lat="40.8685762" lon="16.0496741"><ele>529.0</ele><time>2026-04-19T08:51:13.375Z</time></trkpt><trkpt lat="40.8683518" lon="16.0497694"><ele>528.3333333333334</ele><time>2026-04-19T08:51:14.375Z</time></trkpt><trkpt lat="40.8681459" lon="16.0498544"><ele>527.6666666666666</ele><time>2026-04-19T08:51:15.375Z</time></trkpt><trkpt lat="40.8679679" lon="16.0499316"><ele>527.0</ele><time>2026-04-19T08:51:16.375Z</time></trkpt><trkpt lat="40.8678118" lon="16.0500153"><ele>527.0</ele><time>2026-04-19T08:51:17.375Z</time></trkpt><trkpt lat="40.8676977" lon="16.0501294"><ele>527.0</ele><time>2026-04-19T08:51:18.375Z</time></trkpt><trkpt lat="40.8675896" lon="16.0502344"><ele>527.0</ele><time>2026-04-19T08:51:19.375Z</time></trkpt><trkpt lat="40.8674822" lon="16.0502952"><ele>527.0</ele><time>2026-04-19T08:51:20.375Z</time></trkpt><trkpt lat="40.8673856" lon="16.0503065"><ele>525.25</ele><time>2026-04-19T08:51:21.375Z</time></trkpt><trkpt lat="40.8672886" lon="16.0502553"><ele>523.5</ele><time>2026-04-19T08:51:22.375Z</time></trkpt><trkpt lat="40.8671949" lon="16.0501477"><ele>521.75</ele><time>2026-04-19T08:51:23.375Z</time></trkpt><trkpt lat="40.8671146" lon="16.0500244"><ele>520.0</ele><time>2026-04-19T08:51:24.375Z</time></trkpt><trkpt lat="40.8670214" lon="16.0499067"><ele>520.0</ele><time>2026-04-19T08:51:25.375Z</time></trkpt><trkpt lat="40.8669115" lon="16.049832"><ele>520.0</ele><time>2026-04-19T08:51:26.375Z</time></trkpt><trkpt lat="40.8667843" lon="16.0497987"><ele>520.0</ele><time>2026-04-19T08:51:27.375Z</time></trkpt><trkpt lat="40.866652" lon="16.0498296"><ele>520.0</ele><time>2026-04-19T08:51:28.375Z</time></trkpt><trkpt lat="40.866517" lon="16.0499027"><ele>517.3333333333334</ele><time>2026-04-19T08:51:29.375Z</time></trkpt><trkpt lat="40.8663755" lon="16.0500214"><ele>514.6666666666666</ele><time>2026-04-19T08:51:30.375Z</time></trkpt><trkpt lat="40.866248" lon="16.050116"><ele>512.0</ele><time>2026-04-19T08:51:31.375Z</time></trkpt><trkpt lat="40.8661128" lon="16.0501968"><ele>512.0</ele><time>2026-04-19T08:51:32.375Z</time></trkpt><trkpt lat="40.8659499" lon="16.0502485"><ele>512.0</ele><time>2026-04-19T08:51:33.375Z</time></trkpt><trkpt lat="40.8657835" lon="16.0502817"><ele>512.0</ele><time>2026-04-19T08:51:34.375Z</time></trkpt><trkpt lat="40.8656248" lon="16.0503299"><ele>509.0</ele><time>2026-04-19T08:51:35.375Z</time></trkpt><trkpt lat="40.8654606" lon="16.0504231"><ele>506.0</ele><time>2026-04-19T08:51:36.375Z</time></trkpt><trkpt lat="40.8652756" lon="16.0505351"><ele>503.0</ele><time>2026-04-19T08:51:37.375Z</time></trkpt><trkpt lat="40.865113" lon="16.0506206"><ele>503.3333333333333</ele><time>2026-04-19T08:51:38.375Z</time></trkpt><trkpt lat="40.8649667" lon="16.0506987"><ele>503.66666666666663</ele><time>2026-04-19T08:51:39.375Z</time></trkpt><trkpt lat="40.8648207" lon="16.0507781"><ele>504.0</ele><time>2026-04-19T08:51:40.375Z</time></trkpt><trkpt lat="40.8646607" lon="16.0509277"><ele>504.0</ele><time>2026-04-19T08:51:41.375Z</time></trkpt><trkpt lat="40.8644935" lon="16.0510916"><ele>504.0</ele><time>2026-04-19T08:51:42.375Z</time></trkpt><trkpt lat="40.8643449" lon="16.0512403"><ele>504.0</ele><time>2026-04-19T08:51:43.375Z</time></trkpt><trkpt lat="40.8641877" lon="16.0513602"><ele>500.66666666666663</ele><time>2026-04-19T08:51:44.375Z</time></trkpt><trkpt lat="40.8640274" lon="16.0514712"><ele>497.3333333333333</ele><time>2026-04-19T08:51:45.375Z</time></trkpt><trkpt lat="40.8638563" lon="16.0515482"><ele>494.0</ele><time>2026-04-19T08:51:46.375Z</time></trkpt><trkpt lat="40.8636443" lon="16.0515965"><ele>493.3333333333333</ele><time>2026-04-19T08:51:47.375Z</time></trkpt><trkpt lat="40.8634337" lon="16.0516242"><ele>492.66666666666663</ele><time>2026-04-19T08:51:48.375Z</time></trkpt><trkpt lat="40.8632576" lon="16.0516549"><ele>492.0</ele><time>2026-04-19T08:51:49.375Z</time></trkpt><trkpt lat="40.8631168" lon="16.0516988"><ele>492.0</ele><time>2026-04-19T08:51:50.375Z</time></trkpt><trkpt lat="40.8630107" lon="16.0517705"><ele>492.0</ele><time>2026-04-19T08:51:51.375Z</time></trkpt><trkpt lat="40.8629079" lon="16.0518959"><ele>492.0</ele><time>2026-04-19T08:51:52.375Z</time></trkpt><trkpt lat="40.8628016" lon="16.0520461"><ele>492.0</ele><time>2026-04-19T08:51:53.375Z</time></trkpt><trkpt lat="40.8626734" lon="16.0521538"><ele>488.66666666666663</ele><time>2026-04-19T08:51:54.375Z</time></trkpt><trkpt lat="40.8625153" lon="16.0522003"><ele>485.3333333333333</ele><time>2026-04-19T08:51:55.375Z</time></trkpt><trkpt lat="40.8623402" lon="16.0522407"><ele>482.0</ele><time>2026-04-19T08:51:56.375Z</time></trkpt><trkpt lat="40.8621868" lon="16.0522813"><ele>482.0</ele><time>2026-04-19T08:51:57.375Z</time></trkpt><trkpt lat="40.8620415" lon="16.0523517"><ele>482.0</ele><time>2026-04-19T08:51:58.375Z</time></trkpt><trkpt lat="40.8619083" lon="16.0524842"><ele>482.0</ele><time>2026-04-19T08:51:59.375Z</time></trkpt><trkpt lat="40.8617573" lon="16.0526766"><ele>481.0</ele><time>2026-04-19T08:52:00.375Z</time></trkpt><trkpt lat="40.8615988" lon="16.0528868"><ele>480.0</ele><time>2026-04-19T08:52:01.375Z</time></trkpt><trkpt lat="40.8614108" lon="16.0530862"><ele>480.0</ele><time>2026-04-19T08:52:02.375Z</time></trkpt><trkpt lat="40.8612248" lon="16.0532544"><ele>480.0</ele><time>2026-04-19T08:52:03.375Z</time></trkpt><trkpt lat="40.8610582" lon="16.0534166"><ele>480.0</ele><time>2026-04-19T08:52:04.375Z</time></trkpt><trkpt lat="40.8609107" lon="16.0535725"><ele>480.33333333333337</ele><time>2026-04-19T08:52:05.375Z</time></trkpt><trkpt lat="40.8607749" lon="16.0537354"><ele>480.6666666666667</ele><time>2026-04-19T08:52:06.375Z</time></trkpt><trkpt lat="40.860639" lon="16.0539454"><ele>481.0</ele><time>2026-04-19T08:52:07.375Z</time></trkpt><trkpt lat="40.8605344" lon="16.0541907"><ele>481.0</ele><time>2026-04-19T08:52:08.375Z</time></trkpt><trkpt lat="40.8604469" lon="16.0543865"><ele>481.0</ele><time>2026-04-19T08:52:09.375Z</time></trkpt><trkpt lat="40.8603623" lon="16.0545237"><ele>481.0</ele><time>2026-04-19T08:52:10.375Z</time></trkpt><trkpt lat="40.8602616" lon="16.0546638"><ele>481.0</ele><time>2026-04-19T08:52:11.375Z</time></trkpt><trkpt lat="40.8601581" lon="16.0547886"><ele>481.0</ele><time>2026-04-19T08:52:12.375Z</time></trkpt><trkpt lat="40.8600465" lon="16.0549047"><ele>481.0</ele><time>2026-04-19T08:52:13.375Z</time></trkpt><trkpt lat="40.8599384" lon="16.0549994"><ele>481.0</ele><time>2026-04-19T08:52:14.375Z</time></trkpt><trkpt lat="40.859851" lon="16.0550855"><ele>479.20000000000005</ele><time>2026-04-19T08:52:15.375Z</time></trkpt><trkpt lat="40.8597616" lon="16.0551768"><ele>477.40000000000003</ele><time>2026-04-19T08:52:16.375Z</time></trkpt><trkpt lat="40.8596807" lon="16.0552773"><ele>475.6</ele><time>2026-04-19T08:52:17.375Z</time></trkpt><trkpt lat="40.8596233" lon="16.0553885"><ele>473.8</ele><time>2026-04-19T08:52:18.375Z</time></trkpt><trkpt lat="40.8595904" lon="16.0555043"><ele>472.0</ele><time>2026-04-19T08:52:19.375Z</time></trkpt><trkpt lat="40.8595648" lon="16.0556203"><ele>472.0</ele><time>2026-04-19T08:52:20.375Z</time></trkpt><trkpt lat="40.8595445" lon="16.055731"><ele>472.00000000000006</ele><time>2026-04-19T08:52:21.375Z</time></trkpt><trkpt lat="40.8595167" lon="16.0558106"><ele>472.00000000000006</ele><time>2026-04-19T08:52:22.375Z</time></trkpt><trkpt lat="40.8594108" lon="16.0558842"><ele>472.0</ele><time>2026-04-19T08:52:24.375Z</time></trkpt><trkpt lat="40.8593185" lon="16.0559104"><ele>472.0</ele><time>2026-04-19T08:52:25.375Z</time></trkpt><trkpt lat="40.8592112" lon="16.0559186"><ele>471.20000000000005</ele><time>2026-04-19T08:52:26.375Z</time></trkpt><trkpt lat="40.8590974" lon="16.0559188"><ele>470.40000000000003</ele><time>2026-04-19T08:52:27.375Z</time></trkpt><trkpt lat="40.8589949" lon="16.0559234"><ele>469.59999999999997</ele><time>2026-04-19T08:52:28.375Z</time></trkpt><trkpt lat="40.8589076" lon="16.0559047"><ele>468.79999999999995</ele><time>2026-04-19T08:52:29.374Z</time></trkpt><trkpt lat="40.8588024" lon="16.0558747"><ele>468.0</ele><time>2026-04-19T08:52:30.374Z</time></trkpt><trkpt lat="40.8586793" lon="16.0558317"><ele>466.75</ele><time>2026-04-19T08:52:31.374Z</time></trkpt><trkpt lat="40.8585438" lon="16.0557855"><ele>465.5</ele><time>2026-04-19T08:52:32.374Z</time></trkpt><trkpt lat="40.858416" lon="16.0557378"><ele>464.25</ele><time>2026-04-19T08:52:33.374Z</time></trkpt><trkpt lat="40.8582992" lon="16.0556795"><ele>463.0</ele><time>2026-04-19T08:52:34.374Z</time></trkpt><trkpt lat="40.8581936" lon="16.0556141"><ele>461.25</ele><time>2026-04-19T08:52:35.374Z</time></trkpt><trkpt lat="40.8580925" lon="16.0555346"><ele>459.5</ele><time>2026-04-19T08:52:36.374Z</time></trkpt><trkpt lat="40.8579925" lon="16.055445"><ele>457.75</ele><time>2026-04-19T08:52:37.374Z</time></trkpt><trkpt lat="40.8578944" lon="16.0553465"><ele>456.0</ele><time>2026-04-19T08:52:38.374Z</time></trkpt><trkpt lat="40.8577938" lon="16.0552346"><ele>456.0</ele><time>2026-04-19T08:52:39.374Z</time></trkpt><trkpt lat="40.8576855" lon="16.0551104"><ele>456.0</ele><time>2026-04-19T08:52:40.374Z</time></trkpt><trkpt lat="40.8575816" lon="16.0550125"><ele>456.0</ele><time>2026-04-19T08:52:41.374Z</time></trkpt><trkpt lat="40.8574819" lon="16.0549408"><ele>456.0</ele><time>2026-04-19T08:52:42.374Z</time></trkpt><trkpt lat="40.8573825" lon="16.0548907"><ele>455.8</ele><time>2026-04-19T08:52:43.374Z</time></trkpt><trkpt lat="40.8572785" lon="16.0548831"><ele>455.6</ele><time>2026-04-19T08:52:44.374Z</time></trkpt><trkpt lat="40.8571773" lon="16.0549086"><ele>455.4</ele><time>2026-04-19T08:52:45.374Z</time></trkpt><trkpt lat="40.857087" lon="16.0549545"><ele>455.2</ele><time>2026-04-19T08:52:46.374Z</time></trkpt><trkpt lat="40.8569753" lon="16.0550082"><ele>455.0</ele><time>2026-04-19T08:52:47.374Z</time></trkpt><trkpt lat="40.8568429" lon="16.0550574"><ele>454.25</ele><time>2026-04-19T08:52:48.374Z</time></trkpt><trkpt lat="40.8566881" lon="16.0550935"><ele>453.5</ele><time>2026-04-19T08:52:49.374Z</time></trkpt><trkpt lat="40.8565463" lon="16.0551366"><ele>452.75</ele><time>2026-04-19T08:52:50.374Z</time></trkpt><trkpt lat="40.8564054" lon="16.0551557"><ele>452.0</ele><time>2026-04-19T08:52:51.374Z</time></trkpt><trkpt lat="40.8562731" lon="16.0551539"><ele>452.0</ele><time>2026-04-19T08:52:52.374Z</time></trkpt><trkpt lat="40.8561551" lon="16.0551251"><ele>452.0</ele><time>2026-04-19T08:52:53.374Z</time></trkpt><trkpt lat="40.8560549" lon="16.0550625"><ele>452.0</ele><time>2026-04-19T08:52:54.374Z</time></trkpt><trkpt lat="40.8559685" lon="16.0549757"><ele>452.0</ele><time>2026-04-19T08:52:55.374Z</time></trkpt><trkpt lat="40.8558647" lon="16.0548431"><ele>448.66666666666663</ele><time>2026-04-19T08:52:56.374Z</time></trkpt><trkpt lat="40.8557437" lon="16.0546599"><ele>445.33333333333337</ele><time>2026-04-19T08:52:57.374Z</time></trkpt><trkpt lat="40.8555945" lon="16.0544345"><ele>442.0</ele><time>2026-04-19T08:52:58.374Z</time></trkpt><trkpt lat="40.8554431" lon="16.0542127"><ele>437.5</ele><time>2026-04-19T08:52:59.374Z</time></trkpt><trkpt lat="40.8552927" lon="16.053971"><ele>433.0</ele><time>2026-04-19T08:53:00.374Z</time></trkpt><trkpt lat="40.8551224" lon="16.0537191"><ele>432.0</ele><time>2026-04-19T08:53:01.374Z</time></trkpt><trkpt lat="40.8549303" lon="16.053425"><ele>431.0</ele><time>2026-04-19T08:53:02.374Z</time></trkpt><trkpt lat="40.8547199" lon="16.0531112"><ele>426.5</ele><time>2026-04-19T08:53:03.374Z</time></trkpt><trkpt lat="40.8545142" lon="16.052798"><ele>422.0</ele><time>2026-04-19T08:53:04.374Z</time></trkpt><trkpt lat="40.8543111" lon="16.0524884"><ele>417.5</ele><time>2026-04-19T08:53:05.374Z</time></trkpt><trkpt lat="40.8540973" lon="16.052175"><ele>413.0</ele><time>2026-04-19T08:53:06.374Z</time></trkpt><trkpt lat="40.853869" lon="16.0518331"><ele>411.0</ele><time>2026-04-19T08:53:07.374Z</time></trkpt><trkpt lat="40.8536199" lon="16.0514613"><ele>409.0</ele><time>2026-04-19T08:53:08.374Z</time></trkpt><trkpt lat="40.8533613" lon="16.0510826"><ele>406.0</ele><time>2026-04-19T08:53:09.374Z</time></trkpt><trkpt lat="40.8531174" lon="16.0507265"><ele>403.0</ele><time>2026-04-19T08:53:10.374Z</time></trkpt><trkpt lat="40.8528789" lon="16.0503688"><ele>403.0</ele><time>2026-04-19T08:53:11.374Z</time></trkpt><trkpt lat="40.8526291" lon="16.0499917"><ele>403.0</ele><time>2026-04-19T08:53:12.374Z</time></trkpt><trkpt lat="40.8523762" lon="16.0495969"><ele>401.5</ele><time>2026-04-19T08:53:13.374Z</time></trkpt><trkpt lat="40.8521275" lon="16.0492205"><ele>400.0</ele><time>2026-04-19T08:53:14.374Z</time></trkpt><trkpt lat="40.8518804" lon="16.0488426"><ele>409.5</ele><time>2026-04-19T08:53:15.374Z</time></trkpt><trkpt lat="40.851628" lon="16.0484754"><ele>419.0</ele><time>2026-04-19T08:53:16.374Z</time></trkpt><trkpt lat="40.8513963" lon="16.0481258"><ele>421.5</ele><time>2026-04-19T08:53:17.374Z</time></trkpt><trkpt lat="40.8511842" lon="16.0478041"><ele>424.0</ele><time>2026-04-19T08:53:18.374Z</time></trkpt><trkpt lat="40.8509853" lon="16.0475068"><ele>432.5</ele><time>2026-04-19T08:53:19.374Z</time></trkpt><trkpt lat="40.8508012" lon="16.0472257"><ele>441.0</ele><time>2026-04-19T08:53:20.374Z</time></trkpt><trkpt lat="40.8506222" lon="16.0469662"><ele>441.0</ele><time>2026-04-19T08:53:21.374Z</time></trkpt><trkpt lat="40.8504761" lon="16.0467318"><ele>441.0</ele><time>2026-04-19T08:53:22.374Z</time></trkpt><trkpt lat="40.8503381" lon="16.0465325"><ele>441.0</ele><time>2026-04-19T08:53:23.374Z</time></trkpt><trkpt lat="40.8502252" lon="16.0463697"><ele>442.75</ele><time>2026-04-19T08:53:24.374Z</time></trkpt><trkpt lat="40.8501339" lon="16.0462252"><ele>444.5</ele><time>2026-04-19T08:53:25.374Z</time></trkpt><trkpt lat="40.8500583" lon="16.0461087"><ele>446.25</ele><time>2026-04-19T08:53:26.374Z</time></trkpt><trkpt lat="40.8499923" lon="16.0459942"><ele>448.0</ele><time>2026-04-19T08:53:27.374Z</time></trkpt><trkpt lat="40.8499471" lon="16.045866"><ele>450.0</ele><time>2026-04-19T08:53:28.374Z</time></trkpt><trkpt lat="40.8499024" lon="16.0457017"><ele>452.0</ele><time>2026-04-19T08:53:29.374Z</time></trkpt><trkpt lat="40.8498466" lon="16.0455138"><ele>454.0</ele><time>2026-04-19T08:53:30.374Z</time></trkpt><trkpt lat="40.8497879" lon="16.0453531"><ele>456.0</ele><time>2026-04-19T08:53:31.374Z</time></trkpt><trkpt lat="40.8497369" lon="16.0452207"><ele>456.0</ele><time>2026-04-19T08:53:32.374Z</time></trkpt><trkpt lat="40.8496643" lon="16.0451304"><ele>456.0</ele><time>2026-04-19T08:53:33.374Z</time></trkpt><trkpt lat="40.849561" lon="16.0450568"><ele>456.0</ele><time>2026-04-19T08:53:34.374Z</time></trkpt><trkpt lat="40.8494138" lon="16.0449552"><ele>456.0</ele><time>2026-04-19T08:53:35.374Z</time></trkpt><trkpt lat="40.8492633" lon="16.0448499"><ele>455.6</ele><time>2026-04-19T08:53:36.374Z</time></trkpt><trkpt lat="40.8491428" lon="16.0447603"><ele>455.20000000000005</ele><time>2026-04-19T08:53:37.374Z</time></trkpt><trkpt lat="40.8490353" lon="16.0447054"><ele>454.79999999999995</ele><time>2026-04-19T08:53:38.374Z</time></trkpt><trkpt lat="40.8489612" lon="16.0446898"><ele>454.4</ele><time>2026-04-19T08:53:39.374Z</time></trkpt><trkpt lat="40.8488873" lon="16.0447126"><ele>454.0</ele><time>2026-04-19T08:53:40.374Z</time></trkpt><trkpt lat="40.8531174" lon="16.0507265"><ele>428.5</ele><time>2026-04-19T08:53:10.374Z</time></trkpt><trkpt lat="40.8528789" lon="16.0503688"><ele>403.0</ele><time>2026-04-19T08:53:11.374Z</time></trkpt><trkpt lat="40.8526291" lon="16.0499917"><ele>401.5</ele><time>2026-04-19T08:53:12.374Z</time></trkpt><trkpt lat="40.8523762" lon="16.0495969"><ele>400.0</ele><time>2026-04-19T08:53:13.374Z</time></trkpt><trkpt lat="40.8521275" lon="16.0492205"><ele>403.5</ele><time>2026-04-19T08:53:14.374Z</time></trkpt><trkpt lat="40.8518804" lon="16.0488426"><ele>407.0</ele><time>2026-04-19T08:53:15.374Z</time></trkpt><trkpt lat="40.851628" lon="16.0484754"><ele>415.5</ele><time>2026-04-19T08:53:16.374Z</time></trkpt><trkpt lat="40.8513963" lon="16.0481258"><ele>424.0</ele><time>2026-04-19T08:53:17.374Z</time></trkpt><trkpt lat="40.8511842" lon="16.0478041"><ele>424.0</ele><time>2026-04-19T08:53:18.374Z</time></trkpt><trkpt lat="40.8509853" lon="16.0475068"><ele>424.0</ele><time>2026-04-19T08:53:19.374Z</time></trkpt><trkpt lat="40.8508012" lon="16.0472257"><ele>432.5</ele><time>2026-04-19T08:53:20.374Z</time></trkpt><trkpt lat="40.8506222" lon="16.0469662"><ele>441.0</ele><time>2026-04-19T08:53:21.374Z</time></trkpt><trkpt lat="40.8504761" lon="16.0467318"><ele>443.33333333333337</ele><time>2026-04-19T08:53:22.374Z</time></trkpt><trkpt lat="40.8503381" lon="16.0465325"><ele>445.6666666666667</ele><time>2026-04-19T08:53:23.374Z</time></trkpt><trkpt lat="40.8502252" lon="16.0463697"><ele>448.0</ele><time>2026-04-19T08:53:24.374Z</time></trkpt><trkpt lat="40.8501339" lon="16.0462252"><ele>448.0</ele><time>2026-04-19T08:53:25.374Z</time></trkpt><trkpt lat="40.8500583" lon="16.0461087"><ele>448.0</ele><time>2026-04-19T08:53:26.374Z</time></trkpt><trkpt lat="40.8499923" lon="16.0459942"><ele>448.0</ele><time>2026-04-19T08:53:27.374Z</time></trkpt><trkpt lat="40.8499471" lon="16.045866"><ele>448.0</ele><time>2026-04-19T08:53:28.374Z</time></trkpt><trkpt lat="40.8499024" lon="16.0457017"><ele>450.0</ele><time>2026-04-19T08:53:29.374Z</time></trkpt><trkpt lat="40.8498466" lon="16.0455138"><ele>452.0</ele><time>2026-04-19T08:53:30.374Z</time></trkpt><trkpt lat="40.8497879" lon="16.0453531"><ele>454.0</ele><time>2026-04-19T08:53:31.374Z</time></trkpt><trkpt lat="40.8497369" lon="16.0452207"><ele>456.0</ele><time>2026-04-19T08:53:32.374Z</time></trkpt><trkpt lat="40.8496643" lon="16.0451304"><ele>456.0</ele><time>2026-04-19T08:53:33.374Z</time></trkpt><trkpt lat="40.849561" lon="16.0450568"><ele>456.0</ele><time>2026-04-19T08:53:34.374Z</time></trkpt><trkpt lat="40.8494138" lon="16.0449552"><ele>456.0</ele><time>2026-04-19T08:53:35.374Z</time></trkpt><trkpt lat="40.8492633" lon="16.0448499"><ele>455.6</ele><time>2026-04-19T08:53:36.374Z</time></trkpt><trkpt lat="40.8491428" lon="16.0447603"><ele>455.20000000000005</ele><time>2026-04-19T08:53:37.374Z</time></trkpt><trkpt lat="40.8490353" lon="16.0447054"><ele>454.79999999999995</ele><time>2026-04-19T08:53:38.374Z</time></trkpt><trkpt lat="40.8489612" lon="16.0446898"><ele>454.4</ele><time>2026-04-19T08:53:39.374Z</time></trkpt><trkpt lat="40.8488873" lon="16.0447126"><ele>454.0</ele><time>2026-04-19T08:53:40.374Z</time></trkpt><trkpt lat="40.8487896" lon="16.0447914"><ele>454.0</ele><time>2026-04-19T08:53:41.374Z</time></trkpt><trkpt lat="40.8486675" lon="16.0449009"><ele>454.0</ele><time>2026-04-19T08:53:42.374Z</time></trkpt><trkpt lat="40.8485341" lon="16.0450327"><ele>454.0</ele><time>2026-04-19T08:53:43.374Z</time></trkpt><trkpt lat="40.848408" lon="16.0451615"><ele>453.25</ele><time>2026-04-19T08:53:44.374Z</time></trkpt><trkpt lat="40.8482795" lon="16.045271"><ele>452.5</ele><time>2026-04-19T08:53:45.374Z</time></trkpt><trkpt lat="40.848158" lon="16.0453499"><ele>451.75</ele><time>2026-04-19T08:53:46.374Z</time></trkpt><trkpt lat="40.8480388" lon="16.0454497"><ele>451.0</ele><time>2026-04-19T08:53:47.374Z</time></trkpt><trkpt lat="40.8479179" lon="16.0455939"><ele>451.0</ele><time>2026-04-19T08:53:48.374Z</time></trkpt><trkpt lat="40.8478035" lon="16.0457518"><ele>451.0</ele><time>2026-04-19T08:53:49.374Z</time></trkpt><trkpt lat="40.8477126" lon="16.0459006"><ele>451.0</ele><time>2026-04-19T08:53:50.374Z</time></trkpt><trkpt lat="40.8476389" lon="16.0460537"><ele>451.0</ele><time>2026-04-19T08:53:51.374Z</time></trkpt><trkpt lat="40.8475776" lon="16.0462574"><ele>455.0</ele><time>2026-04-19T08:53:52.374Z</time></trkpt><trkpt lat="40.8475247" lon="16.0464948"><ele>459.0</ele><time>2026-04-19T08:53:53.374Z</time></trkpt><trkpt lat="40.8474873" lon="16.0467416"><ele>463.0</ele><time>2026-04-19T08:53:54.374Z</time></trkpt><trkpt lat="40.8474566" lon="16.0469904"><ele>463.25</ele><time>2026-04-19T08:53:55.374Z</time></trkpt><trkpt lat="40.8474294" lon="16.0472087"><ele>463.5</ele><time>2026-04-19T08:53:56.374Z</time></trkpt><trkpt lat="40.8474109" lon="16.0473809"><ele>463.75</ele><time>2026-04-19T08:53:57.374Z</time></trkpt><trkpt lat="40.8473797" lon="16.0475363"><ele>464.0</ele><time>2026-04-19T08:53:58.374Z</time></trkpt><trkpt lat="40.8473251" lon="16.0476875"><ele>464.0</ele><time>2026-04-19T08:53:59.374Z</time></trkpt><trkpt lat="40.8472395" lon="16.0478067"><ele>464.0</ele><time>2026-04-19T08:54:00.374Z</time></trkpt><trkpt lat="40.847127" lon="16.0478845"><ele>464.0</ele><time>2026-04-19T08:54:01.374Z</time></trkpt><trkpt lat="40.8469772" lon="16.0478978"><ele>464.0</ele><time>2026-04-19T08:54:02.374Z</time></trkpt><trkpt lat="40.8468057" lon="16.047877"><ele>467.0</ele><time>2026-04-19T08:54:03.374Z</time></trkpt><trkpt lat="40.8466254" lon="16.0478507"><ele>470.0</ele><time>2026-04-19T08:54:04.374Z</time></trkpt><trkpt lat="40.8464626" lon="16.0478547"><ele>473.0</ele><time>2026-04-19T08:54:05.374Z</time></trkpt><trkpt lat="40.8462935" lon="16.0479124"><ele>473.0</ele><time>2026-04-19T08:54:06.374Z</time></trkpt><trkpt lat="40.8461159" lon="16.0480025"><ele>473.0</ele><time>2026-04-19T08:54:07.374Z</time></trkpt><trkpt lat="40.8459509" lon="16.0481042"><ele>473.0</ele><time>2026-04-19T08:54:08.374Z</time></trkpt><trkpt lat="40.8458089" lon="16.0481854"><ele>475.5</ele><time>2026-04-19T08:54:09.374Z</time></trkpt><trkpt lat="40.8456785" lon="16.0481995"><ele>478.0</ele><time>2026-04-19T08:54:10.374Z</time></trkpt><trkpt lat="40.8455285" lon="16.0481799"><ele>480.5</ele><time>2026-04-19T08:54:11.374Z</time></trkpt><trkpt lat="40.8453801" lon="16.0481368"><ele>483.0</ele><time>2026-04-19T08:54:12.374Z</time></trkpt><trkpt lat="40.84524" lon="16.0480606"><ele>484.33333333333337</ele><time>2026-04-19T08:54:13.374Z</time></trkpt><trkpt lat="40.8451126" lon="16.0479464"><ele>485.6666666666667</ele><time>2026-04-19T08:54:14.374Z</time></trkpt><trkpt lat="40.8449963" lon="16.0477704"><ele>487.0</ele><time>2026-04-19T08:54:15.374Z</time></trkpt><trkpt lat="40.8448858" lon="16.047537"><ele>489.6666666666667</ele><time>2026-04-19T08:54:16.374Z</time></trkpt><trkpt lat="40.8447721" lon="16.0472856"><ele>492.33333333333337</ele><time>2026-04-19T08:54:17.374Z</time></trkpt><trkpt lat="40.8446709" lon="16.0470167"><ele>495.0</ele><time>2026-04-19T08:54:18.374Z</time></trkpt><trkpt lat="40.844581" lon="16.046768"><ele>496.5</ele><time>2026-04-19T08:54:19.374Z</time></trkpt><trkpt lat="40.8445018" lon="16.0465742"><ele>498.0</ele><time>2026-04-19T08:54:20.374Z</time></trkpt><trkpt lat="40.8444282" lon="16.0464179"><ele>499.5</ele><time>2026-04-19T08:54:21.374Z</time></trkpt><trkpt lat="40.8443346" lon="16.0462788"><ele>501.0</ele><time>2026-04-19T08:54:22.374Z</time></trkpt><trkpt lat="40.844188" lon="16.046163"><ele>501.0</ele><time>2026-04-19T08:54:23.374Z</time></trkpt><trkpt lat="40.8440174" lon="16.0460469"><ele>501.0</ele><time>2026-04-19T08:54:24.374Z</time></trkpt><trkpt lat="40.843851" lon="16.0459688"><ele>501.0</ele><time>2026-04-19T08:54:25.374Z</time></trkpt><trkpt lat="40.8437332" lon="16.0459011"><ele>501.0</ele><time>2026-04-19T08:54:26.374Z</time></trkpt><trkpt lat="40.8436372" lon="16.0457976"><ele>501.0</ele><time>2026-04-19T08:54:27.374Z</time></trkpt><trkpt lat="40.8435589" lon="16.0456096"><ele>501.0</ele><time>2026-04-19T08:54:28.374Z</time></trkpt><trkpt lat="40.843477" lon="16.0453935"><ele>503.33333333333337</ele><time>2026-04-19T08:54:29.374Z</time></trkpt><trkpt lat="40.8433972" lon="16.0452109"><ele>505.6666666666667</ele><time>2026-04-19T08:54:30.374Z</time></trkpt><trkpt lat="40.8432838" lon="16.0450451"><ele>508.0</ele><time>2026-04-19T08:54:31.374Z</time></trkpt><trkpt lat="40.8431654" lon="16.0449257"><ele>509.6666666666667</ele><time>2026-04-19T08:54:32.374Z</time></trkpt><trkpt lat="40.843095" lon="16.0448449"><ele>511.33333333333337</ele><time>2026-04-19T08:54:33.374Z</time></trkpt><trkpt lat="40.8430592" lon="16.0447759"><ele>513.0</ele><time>2026-04-19T08:54:34.374Z</time></trkpt><trkpt lat="40.8431206" lon="16.0446484"><ele>514.6666666666666</ele><time>2026-04-19T08:54:36.374Z</time></trkpt><trkpt lat="40.8431905" lon="16.0446273"><ele>516.3333333333333</ele><time>2026-04-19T08:54:37.374Z</time></trkpt><trkpt lat="40.8432898" lon="16.0446501"><ele>518.0</ele><time>2026-04-19T08:54:38.374Z</time></trkpt><trkpt lat="40.8434194" lon="16.0447147"><ele>517.6666666666666</ele><time>2026-04-19T08:54:39.374Z</time></trkpt><trkpt lat="40.84359" lon="16.0448125"><ele>517.3333333333334</ele><time>2026-04-19T08:54:40.374Z</time></trkpt><trkpt lat="40.8437786" lon="16.0449012"><ele>517.0</ele><time>2026-04-19T08:54:41.374Z</time></trkpt><trkpt lat="40.8439947" lon="16.0450121"><ele>517.0</ele><time>2026-04-19T08:54:42.374Z</time></trkpt><trkpt lat="40.8441994" lon="16.0450956"><ele>517.0</ele><time>2026-04-19T08:54:43.374Z</time></trkpt><trkpt lat="40.8443632" lon="16.0451548"><ele>517.0</ele><time>2026-04-19T08:54:44.374Z</time></trkpt><trkpt lat="40.8445384" lon="16.0451786"><ele>518.6666666666667</ele><time>2026-04-19T08:54:45.374Z</time></trkpt><trkpt lat="40.8447489" lon="16.0451764"><ele>520.3333333333334</ele><time>2026-04-19T08:54:46.374Z</time></trkpt><trkpt lat="40.8449541" lon="16.0451979"><ele>522.0</ele><time>2026-04-19T08:54:47.374Z</time></trkpt><trkpt lat="40.8451398" lon="16.0452279"><ele>518.75</ele><time>2026-04-19T08:54:48.374Z</time></trkpt><trkpt lat="40.845301" lon="16.0452445"><ele>515.5</ele><time>2026-04-19T08:54:49.374Z</time></trkpt><trkpt lat="40.8454186" lon="16.0452555"><ele>512.25</ele><time>2026-04-19T08:54:50.374Z</time></trkpt><trkpt lat="40.845522" lon="16.0452347"><ele>509.0</ele><time>2026-04-19T08:54:51.374Z</time></trkpt><trkpt lat="40.8456143" lon="16.0451356"><ele>509.0</ele><time>2026-04-19T08:54:52.374Z</time></trkpt><trkpt lat="40.8456918" lon="16.0449923"><ele>509.0</ele><time>2026-04-19T08:54:53.374Z</time></trkpt><trkpt lat="40.8457389" lon="16.0448078"><ele>509.0</ele><time>2026-04-19T08:54:54.374Z</time></trkpt><trkpt lat="40.8457439" lon="16.0445889"><ele>509.0</ele><time>2026-04-19T08:54:55.374Z</time></trkpt><trkpt lat="40.845757" lon="16.0443326"><ele>519.3333333333333</ele><time>2026-04-19T08:54:56.374Z</time></trkpt><trkpt lat="40.8457656" lon="16.0441055"><ele>529.6666666666666</ele><time>2026-04-19T08:54:57.374Z</time></trkpt><trkpt lat="40.8458019" lon="16.0438617"><ele>540.0</ele><time>2026-04-19T08:54:58.374Z</time></trkpt><trkpt lat="40.8458634" lon="16.0435809"><ele>545.5</ele><time>2026-04-19T08:54:59.374Z</time></trkpt><trkpt lat="40.8459432" lon="16.043258"><ele>551.0</ele><time>2026-04-19T08:55:00.374Z</time></trkpt><trkpt lat="40.8460233" lon="16.0429292"><ele>543.6666666666666</ele><time>2026-04-19T08:55:01.374Z</time></trkpt><trkpt lat="40.8460989" lon="16.0426483"><ele>536.3333333333334</ele><time>2026-04-19T08:55:02.374Z</time></trkpt><trkpt lat="40.8461693" lon="16.0424127"><ele>529.0</ele><time>2026-04-19T08:55:03.374Z</time></trkpt><trkpt lat="40.8462235" lon="16.0422061"><ele>529.0</ele><time>2026-04-19T08:55:04.374Z</time></trkpt><trkpt lat="40.846253" lon="16.0420195"><ele>529.0</ele><time>2026-04-19T08:55:05.374Z</time></trkpt><trkpt lat="40.8462539" lon="16.0418216"><ele>529.0</ele><time>2026-04-19T08:55:06.374Z</time></trkpt><trkpt lat="40.846239" lon="16.0416039"><ele>534.0</ele><time>2026-04-19T08:55:07.374Z</time></trkpt><trkpt lat="40.8462194" lon="16.0413942"><ele>539.0</ele><time>2026-04-19T08:55:08.374Z</time></trkpt><trkpt lat="40.8462229" lon="16.0412107"><ele>544.0</ele><time>2026-04-19T08:55:09.374Z</time></trkpt><trkpt lat="40.846253" lon="16.0410827"><ele>549.0</ele><time>2026-04-19T08:55:10.374Z</time></trkpt><trkpt lat="40.8463006" lon="16.0409985"><ele>549.0</ele><time>2026-04-19T08:55:11.374Z</time></trkpt><trkpt lat="40.8463604" lon="16.0409229"><ele>549.0</ele><time>2026-04-19T08:55:12.374Z</time></trkpt><trkpt lat="40.8464466" lon="16.04089"><ele>549.0</ele><time>2026-04-19T08:55:13.374Z</time></trkpt><trkpt lat="40.846556" lon="16.0408783"><ele>549.0</ele><time>2026-04-19T08:55:14.374Z</time></trkpt><trkpt lat="40.8466917" lon="16.0408789"><ele>549.0</ele><time>2026-04-19T08:55:15.374Z</time></trkpt><trkpt lat="40.8468373" lon="16.0409286"><ele>546.0</ele><time>2026-04-19T08:55:16.374Z</time></trkpt><trkpt lat="40.8469592" lon="16.0409803"><ele>543.0</ele><time>2026-04-19T08:55:17.374Z</time></trkpt><trkpt lat="40.8470565" lon="16.0410028"><ele>540.0</ele><time>2026-04-19T08:55:18.374Z</time></trkpt><trkpt lat="40.8471686" lon="16.0409519"><ele>537.0</ele><time>2026-04-19T08:55:19.374Z</time></trkpt><trkpt lat="40.8472793" lon="16.0408482"><ele>543.0</ele><time>2026-04-19T08:55:20.374Z</time></trkpt><trkpt lat="40.8473901" lon="16.0406866"><ele>549.0</ele><time>2026-04-19T08:55:21.374Z</time></trkpt><trkpt lat="40.8475029" lon="16.0405202"><ele>555.0</ele><time>2026-04-19T08:55:22.374Z</time></trkpt><trkpt lat="40.8476206" lon="16.0403618"><ele>549.2</ele><time>2026-04-19T08:55:23.374Z</time></trkpt><trkpt lat="40.8477251" lon="16.0402342"><ele>543.4</ele><time>2026-04-19T08:55:24.374Z</time></trkpt><trkpt lat="40.8478009" lon="16.0401252"><ele>537.6</ele><time>2026-04-19T08:55:25.374Z</time></trkpt><trkpt lat="40.8478581" lon="16.0400133"><ele>531.8</ele><time>2026-04-19T08:55:26.374Z</time></trkpt><trkpt lat="40.8478986" lon="16.0399064"><ele>526.0</ele><time>2026-04-19T08:55:27.374Z</time></trkpt><trkpt lat="40.8479252" lon="16.0398006"><ele>526.0</ele><time>2026-04-19T08:55:28.374Z</time></trkpt><trkpt lat="40.8479136" lon="16.0396305"><ele>526.0</ele><time>2026-04-19T08:55:30.374Z</time></trkpt><trkpt lat="40.8478448" lon="16.0395228"><ele>526.0</ele><time>2026-04-19T08:55:31.374Z</time></trkpt><trkpt lat="40.8477454" lon="16.0394279"><ele>526.0</ele><time>2026-04-19T08:55:32.374Z</time></trkpt><trkpt lat="40.8476228" lon="16.0393841"><ele>531.0</ele><time>2026-04-19T08:55:33.374Z</time></trkpt><trkpt lat="40.8475071" lon="16.0393501"><ele>536.0</ele><time>2026-04-19T08:55:34.374Z</time></trkpt><trkpt lat="40.8474158" lon="16.0393241"><ele>541.0</ele><time>2026-04-19T08:55:35.374Z</time></trkpt><trkpt lat="40.8473368" lon="16.0392876"><ele>546.0</ele><time>2026-04-19T08:55:36.374Z</time></trkpt><trkpt lat="40.8472556" lon="16.0392233"><ele>551.0</ele><time>2026-04-19T08:55:37.374Z</time></trkpt><trkpt lat="40.847217" lon="16.0391274"><ele>551.0</ele><time>2026-04-19T08:55:38.374Z</time></trkpt><trkpt lat="40.8472081" lon="16.0389756"><ele>551.0</ele><time>2026-04-19T08:55:39.374Z</time></trkpt><trkpt lat="40.8472548" lon="16.0387964"><ele>551.0</ele><time>2026-04-19T08:55:40.374Z</time></trkpt><trkpt lat="40.8472972" lon="16.0385721"><ele>551.0</ele><time>2026-04-19T08:55:41.374Z</time></trkpt><trkpt lat="40.8473303" lon="16.0383555"><ele>550.5</ele><time>2026-04-19T08:55:42.374Z</time></trkpt><trkpt lat="40.8473286" lon="16.0381799"><ele>550.0</ele><time>2026-04-19T08:55:43.374Z</time></trkpt><trkpt lat="40.8473002" lon="16.0380089"><ele>549.5</ele><time>2026-04-19T08:55:44.374Z</time></trkpt><trkpt lat="40.8472341" lon="16.0377986"><ele>549.0</ele><time>2026-04-19T08:55:45.374Z</time></trkpt><trkpt lat="40.8471692" lon="16.0375819"><ele>546.25</ele><time>2026-04-19T08:55:46.374Z</time></trkpt><trkpt lat="40.8471312" lon="16.0373764"><ele>543.5</ele><time>2026-04-19T08:55:47.374Z</time></trkpt><trkpt lat="40.8471018" lon="16.0371769"><ele>540.75</ele><time>2026-04-19T08:55:48.374Z</time></trkpt><trkpt lat="40.8470802" lon="16.0370176"><ele>538.0</ele><time>2026-04-19T08:55:49.374Z</time></trkpt><trkpt lat="40.8470298" lon="16.036878"><ele>538.0</ele><time>2026-04-19T08:55:50.374Z</time></trkpt><trkpt lat="40.8469694" lon="16.0367395"><ele>538.0</ele><time>2026-04-19T08:55:51.374Z</time></trkpt><trkpt lat="40.8468771" lon="16.0366188"><ele>538.0</ele><time>2026-04-19T08:55:52.374Z</time></trkpt><trkpt lat="40.8467697" lon="16.0365087"><ele>538.0</ele><time>2026-04-19T08:55:53.374Z</time></trkpt><trkpt lat="40.8466454" lon="16.0364037"><ele>544.5</ele><time>2026-04-19T08:55:54.374Z</time></trkpt><trkpt lat="40.8465268" lon="16.0363018"><ele>551.0</ele><time>2026-04-19T08:55:55.374Z</time></trkpt><trkpt lat="40.8464194" lon="16.0362088"><ele>557.5</ele><time>2026-04-19T08:55:56.374Z</time></trkpt><trkpt lat="40.8463289" lon="16.036123"><ele>564.0</ele><time>2026-04-19T08:55:57.374Z</time></trkpt><trkpt lat="40.8462379" lon="16.0360572"><ele>564.0</ele><time>2026-04-19T08:55:58.374Z</time></trkpt><trkpt lat="40.8461313" lon="16.0359898"><ele>564.0</ele><time>2026-04-19T08:55:59.374Z</time></trkpt><trkpt lat="40.8460282" lon="16.0359137"><ele>564.0</ele><time>2026-04-19T08:56:00.374Z</time></trkpt><trkpt lat="40.8459302" lon="16.0358484"><ele>564.0</ele><time>2026-04-19T08:56:01.374Z</time></trkpt><trkpt lat="40.8458277" lon="16.035759"><ele>567.6666666666666</ele><time>2026-04-19T08:56:02.374Z</time></trkpt><trkpt lat="40.8457508" lon="16.0355727"><ele>571.3333333333333</ele><time>2026-04-19T08:56:03.374Z</time></trkpt><trkpt lat="40.8456996" lon="16.0353653"><ele>575.0</ele><time>2026-04-19T08:56:04.374Z</time></trkpt><trkpt lat="40.8456431" lon="16.0351693"><ele>575.0</ele><time>2026-04-19T08:56:05.374Z</time></trkpt><trkpt lat="40.8455943" lon="16.0349777"><ele>575.0</ele><time>2026-04-19T08:56:06.374Z</time></trkpt><trkpt lat="40.8455687" lon="16.0347981"><ele>575.0</ele><time>2026-04-19T08:56:07.374Z</time></trkpt><trkpt lat="40.8455778" lon="16.0346197"><ele>575.0</ele><time>2026-04-19T08:56:08.374Z</time></trkpt><trkpt lat="40.8456157" lon="16.0344682"><ele>576.0</ele><time>2026-04-19T08:56:09.374Z</time></trkpt><trkpt lat="40.8456638" lon="16.034352"><ele>577.0</ele><time>2026-04-19T08:56:10.374Z</time></trkpt><trkpt lat="40.8457068" lon="16.0342512"><ele>578.0</ele><time>2026-04-19T08:56:11.374Z</time></trkpt><trkpt lat="40.8457409" lon="16.0341615"><ele>579.0</ele><time>2026-04-19T08:56:12.374Z</time></trkpt><trkpt lat="40.8457804" lon="16.0340264"><ele>580.0</ele><time>2026-04-19T08:56:14.374Z</time></trkpt><trkpt lat="40.8457861" lon="16.0339344"><ele>581.0</ele><time>2026-04-19T08:56:16.374Z</time></trkpt><trkpt lat="40.8457537" lon="16.0338578"><ele>583.5</ele><time>2026-04-19T08:56:19.373Z</time></trkpt><trkpt lat="40.8458124" lon="16.03378"><ele>586.0</ele><time>2026-04-19T08:56:40.373Z</time></trkpt><trkpt lat="40.8458119" lon="16.033866"><ele>588.5</ele><time>2026-04-19T08:58:00.373Z</time></trkpt><trkpt lat="40.8458355" lon="16.0339497"><ele>591.0</ele><time>2026-04-19T08:59:49.372Z</time></trkpt><trkpt lat="40.8457905" lon="16.0340426"><ele>593.5</ele><time>2026-04-19T09:00:13.372Z</time></trkpt><trkpt lat="40.8458646" lon="16.0340137"><ele>596.0</ele><time>2026-04-19T09:00:17.372Z</time></trkpt><trkpt lat="40.8459351" lon="16.0339328"><ele>593.0</ele><time>2026-04-19T09:00:18.372Z</time></trkpt><trkpt lat="40.8460229" lon="16.0338442"><ele>590.0</ele><time>2026-04-19T09:00:19.372Z</time></trkpt><trkpt lat="40.8461036" lon="16.0337484"><ele>587.0</ele><time>2026-04-19T09:00:20.372Z</time></trkpt><trkpt lat="40.8461755" lon="16.0336617"><ele>584.0</ele><time>2026-04-19T09:00:21.372Z</time></trkpt><trkpt lat="40.846246" lon="16.0335796"><ele>581.0</ele><time>2026-04-19T09:00:22.372Z</time></trkpt><trkpt lat="40.8463227" lon="16.0335024"><ele>581.0</ele><time>2026-04-19T09:00:23.372Z</time></trkpt><trkpt lat="40.8464123" lon="16.0334274"><ele>581.0</ele><time>2026-04-19T09:00:24.372Z</time></trkpt><trkpt lat="40.8465079" lon="16.0333564"><ele>581.0</ele><time>2026-04-19T09:00:25.372Z</time></trkpt><trkpt lat="40.8466144" lon="16.0332879"><ele>581.0</ele><time>2026-04-19T09:00:26.372Z</time></trkpt><trkpt lat="40.8467381" lon="16.0332232"><ele>583.6</ele><time>2026-04-19T09:00:27.372Z</time></trkpt><trkpt lat="40.846853" lon="16.0331867"><ele>586.2</ele><time>2026-04-19T09:00:28.372Z</time></trkpt><trkpt lat="40.8469598" lon="16.0331498"><ele>588.8</ele><time>2026-04-19T09:00:29.372Z</time></trkpt><trkpt lat="40.8470557" lon="16.0331349"><ele>591.4</ele><time>2026-04-19T09:00:30.372Z</time></trkpt><trkpt lat="40.8471565" lon="16.0331409"><ele>594.0</ele><time>2026-04-19T09:00:31.372Z</time></trkpt><trkpt lat="40.8472538" lon="16.0331327"><ele>594.0</ele><time>2026-04-19T09:00:32.372Z</time></trkpt><trkpt lat="40.8473431" lon="16.0331313"><ele>594.0</ele><time>2026-04-19T09:00:33.372Z</time></trkpt><trkpt lat="40.8474328" lon="16.0331114"><ele>594.0</ele><time>2026-04-19T09:00:34.372Z</time></trkpt><trkpt lat="40.8475221" lon="16.0331201"><ele>594.0</ele><time>2026-04-19T09:00:35.372Z</time></trkpt><trkpt lat="40.8476181" lon="16.0331128"><ele>594.0</ele><time>2026-04-19T09:00:36.372Z</time></trkpt><trkpt lat="40.8477204" lon="16.033123"><ele>593.4</ele><time>2026-04-19T09:00:37.372Z</time></trkpt><trkpt lat="40.8478063" lon="16.0331248"><ele>592.8</ele><time>2026-04-19T09:00:38.372Z</time></trkpt><trkpt lat="40.8478696" lon="16.0331344"><ele>592.2</ele><time>2026-04-19T09:00:39.372Z</time></trkpt><trkpt lat="40.8479843" lon="16.0331418"><ele>591.6</ele><time>2026-04-19T09:00:41.372Z</time></trkpt><trkpt lat="40.8480559" lon="16.0331482"><ele>591.0</ele><time>2026-04-19T09:00:42.372Z</time></trkpt><trkpt lat="40.8481711" lon="16.0331422"><ele>591.0</ele><time>2026-04-19T09:00:43.372Z</time></trkpt><trkpt lat="40.8483293" lon="16.0331494"><ele>591.0</ele><time>2026-04-19T09:00:44.372Z</time></trkpt><trkpt lat="40.8484583" lon="16.0331485"><ele>591.0</ele><time>2026-04-19T09:00:45.372Z</time></trkpt><trkpt lat="40.8485648" lon="16.0331428"><ele>591.0</ele><time>2026-04-19T09:00:46.372Z</time></trkpt><trkpt lat="40.8486488" lon="16.0331525"><ele>590.8333333333334</ele><time>2026-04-19T09:00:47.372Z</time></trkpt><trkpt lat="40.8487282" lon="16.0331491"><ele>590.6666666666666</ele><time>2026-04-19T09:00:48.372Z</time></trkpt><trkpt lat="40.8487988" lon="16.0331066"><ele>590.5</ele><time>2026-04-19T09:00:49.372Z</time></trkpt><trkpt lat="40.8488558" lon="16.0330364"><ele>590.3333333333333</ele><time>2026-04-19T09:00:50.372Z</time></trkpt><trkpt lat="40.8488981" lon="16.0329336"><ele>590.1666666666666</ele><time>2026-04-19T09:00:51.372Z</time></trkpt><trkpt lat="40.848928" lon="16.0328161"><ele>590.0</ele><time>2026-04-19T09:00:52.372Z</time></trkpt><trkpt lat="40.8489601" lon="16.0327068"><ele>590.0</ele><time>2026-04-19T09:00:53.372Z</time></trkpt><trkpt lat="40.8489851" lon="16.0326095"><ele>590.0</ele><time>2026-04-19T09:00:54.372Z</time></trkpt><trkpt lat="40.8489983" lon="16.0325258"><ele>590.0</ele><time>2026-04-19T09:00:55.372Z</time></trkpt><trkpt lat="40.849025" lon="16.032449"><ele>590.0</ele><time>2026-04-19T09:00:57.372Z</time></trkpt><trkpt lat="40.8491077" lon="16.0324068"><ele>590.0</ele><time>2026-04-19T09:01:07.372Z</time></trkpt><trkpt lat="40.8491694" lon="16.0324386"><ele>590.0</ele><time>2026-04-19T09:01:08.372Z</time></trkpt><trkpt lat="40.8492935" lon="16.0324617"><ele>589.5</ele><time>2026-04-19T09:01:10.372Z</time></trkpt><trkpt lat="40.8493554" lon="16.0324891"><ele>589.0</ele><time>2026-04-19T09:01:11.372Z</time></trkpt><trkpt lat="40.8494389" lon="16.0325195"><ele>588.5</ele><time>2026-04-19T09:01:13.372Z</time></trkpt><trkpt lat="40.8495029" lon="16.0325193"><ele>588.0</ele><time>2026-04-19T09:01:19.372Z</time></trkpt><trkpt lat="40.8495683" lon="16.03236"><ele>587.5</ele><time>2026-04-19T09:01:21.372Z</time></trkpt><trkpt lat="40.8496014" lon="16.0322561"><ele>587.0</ele><time>2026-04-19T09:01:22.372Z</time></trkpt><trkpt lat="40.8496511" lon="16.0321637"><ele>586.0</ele><time>2026-04-19T09:01:23.372Z</time></trkpt><trkpt lat="40.8497044" lon="16.0320771"><ele>585.0</ele><time>2026-04-19T09:01:24.372Z</time></trkpt><trkpt lat="40.8497405" lon="16.0319898"><ele>584.0</ele><time>2026-04-19T09:01:25.372Z</time></trkpt><trkpt lat="40.8497623" lon="16.0318962"><ele>583.0</ele><time>2026-04-19T09:01:26.372Z</time></trkpt><trkpt lat="40.8497954" lon="16.0317996"><ele>582.0</ele><time>2026-04-19T09:01:28.372Z</time></trkpt><trkpt lat="40.8497322" lon="16.0316991"><ele>581.0</ele><time>2026-04-19T09:01:32.372Z</time></trkpt><trkpt lat="40.8496539" lon="16.0316528"><ele>581.1666666666666</ele><time>2026-04-19T09:01:33.372Z</time></trkpt><trkpt lat="40.8495813" lon="16.0316006"><ele>581.3333333333333</ele><time>2026-04-19T09:01:34.372Z</time></trkpt><trkpt lat="40.8494903" lon="16.0315713"><ele>581.5</ele><time>2026-04-19T09:01:35.372Z</time></trkpt><trkpt lat="40.8493884" lon="16.0315749"><ele>581.6666666666666</ele><time>2026-04-19T09:01:36.372Z</time></trkpt><trkpt lat="40.8492968" lon="16.0315769"><ele>581.8333333333334</ele><time>2026-04-19T09:01:37.372Z</time></trkpt><trkpt lat="40.8492208" lon="16.0315917"><ele>582.0</ele><time>2026-04-19T09:01:38.372Z</time></trkpt><trkpt lat="40.8491514" lon="16.0315922"><ele>582.0</ele><time>2026-04-19T09:01:39.372Z</time></trkpt><trkpt lat="40.8490668" lon="16.0315884"><ele>582.0</ele><time>2026-04-19T09:01:40.372Z</time></trkpt><trkpt lat="40.8489797" lon="16.0315839"><ele>582.0</ele><time>2026-04-19T09:01:41.372Z</time></trkpt><trkpt lat="40.8488906" lon="16.0315724"><ele>582.0</ele><time>2026-04-19T09:01:42.372Z</time></trkpt><trkpt lat="40.8488012" lon="16.0315542"><ele>582.0</ele><time>2026-04-19T09:01:43.372Z</time></trkpt><trkpt lat="40.8487221" lon="16.0315515"><ele>582.0</ele><time>2026-04-19T09:01:44.372Z</time></trkpt><trkpt lat="40.848639" lon="16.0315527"><ele>582.0</ele><time>2026-04-19T09:01:45.372Z</time></trkpt><trkpt lat="40.8485474" lon="16.0315493"><ele>582.0</ele><time>2026-04-19T09:01:46.372Z</time></trkpt><trkpt lat="40.8484408" lon="16.0315406"><ele>582.0</ele><time>2026-04-19T09:01:47.372Z</time></trkpt><trkpt lat="40.8483323" lon="16.0315277"><ele>582.0</ele><time>2026-04-19T09:01:48.372Z</time></trkpt><trkpt lat="40.848217" lon="16.0315206"><ele>582.0</ele><time>2026-04-19T09:01:49.372Z</time></trkpt><trkpt lat="40.8481167" lon="16.0315101"><ele>583.1666666666666</ele><time>2026-04-19T09:01:50.372Z</time></trkpt><trkpt lat="40.8480286" lon="16.0315075"><ele>584.3333333333334</ele><time>2026-04-19T09:01:51.372Z</time></trkpt><trkpt lat="40.8479517" lon="16.0314941"><ele>585.5</ele><time>2026-04-19T09:01:52.372Z</time></trkpt><trkpt lat="40.8478797" lon="16.0314895"><ele>586.6666666666667</ele><time>2026-04-19T09:01:53.372Z</time></trkpt><trkpt lat="40.8477628" lon="16.0314838"><ele>587.8333333333334</ele><time>2026-04-19T09:01:55.372Z</time></trkpt><trkpt lat="40.8476795" lon="16.0314856"><ele>589.0</ele><time>2026-04-19T09:01:56.372Z</time></trkpt><trkpt lat="40.8475881" lon="16.0314902"><ele>590.0</ele><time>2026-04-19T09:01:57.372Z</time></trkpt><trkpt lat="40.8474848" lon="16.0314882"><ele>591.0</ele><time>2026-04-19T09:01:58.372Z</time></trkpt><trkpt lat="40.8473851" lon="16.0314862"><ele>592.0</ele><time>2026-04-19T09:01:59.372Z</time></trkpt><trkpt lat="40.8472999" lon="16.0314863"><ele>593.0</ele><time>2026-04-19T09:02:00.372Z</time></trkpt><trkpt lat="40.8472239" lon="16.0314828"><ele>594.0</ele><time>2026-04-19T09:02:01.372Z</time></trkpt><trkpt lat="40.8471499" lon="16.0314734"><ele>595.0</ele><time>2026-04-19T09:02:02.372Z</time></trkpt><trkpt lat="40.8470757" lon="16.0314714"><ele>595.0</ele><time>2026-04-19T09:02:03.372Z</time></trkpt><trkpt lat="40.8470054" lon="16.0314694"><ele>595.0</ele><time>2026-04-19T09:02:04.372Z</time></trkpt><trkpt lat="40.8468945" lon="16.0314518"><ele>595.0</ele><time>2026-04-19T09:02:06.372Z</time></trkpt><trkpt lat="40.8468555" lon="16.0313647"><ele>595.0</ele><time>2026-04-19T09:02:11.372Z</time></trkpt><trkpt lat="40.8468738" lon="16.031256"><ele>595.0</ele><time>2026-04-19T09:02:12.372Z</time></trkpt><trkpt lat="40.8468984" lon="16.031133"><ele>595.0</ele><time>2026-04-19T09:02:13.372Z</time></trkpt><trkpt lat="40.8469209" lon="16.0309927"><ele>595.0</ele><time>2026-04-19T09:02:14.372Z</time></trkpt><trkpt lat="40.8469373" lon="16.0308587"><ele>595.0</ele><time>2026-04-19T09:02:15.372Z</time></trkpt><trkpt lat="40.8469569" lon="16.0307331"><ele>595.0</ele><time>2026-04-19T09:02:16.372Z</time></trkpt><trkpt lat="40.8469677" lon="16.0306201"><ele>595.0</ele><time>2026-04-19T09:02:17.372Z</time></trkpt><trkpt lat="40.8469811" lon="16.0305271"><ele>595.0</ele><time>2026-04-19T09:02:18.372Z</time></trkpt><trkpt lat="40.8469805" lon="16.0304186"><ele>595.0</ele><time>2026-04-19T09:02:20.372Z</time></trkpt><trkpt lat="40.8468908" lon="16.0303487"><ele>595.0</ele><time>2026-04-19T09:02:22.372Z</time></trkpt><trkpt lat="40.84682" lon="16.0303293"><ele>595.0</ele><time>2026-04-19T09:02:23.372Z</time></trkpt><trkpt lat="40.8467434" lon="16.0303196"><ele>595.0</ele><time>2026-04-19T09:02:24.372Z</time></trkpt><trkpt lat="40.8466204" lon="16.0303283"><ele>595.0</ele><time>2026-04-19T09:02:26.372Z</time></trkpt><trkpt lat="40.8465323" lon="16.0302956"><ele>595.0</ele><time>2026-04-19T09:02:28.372Z</time></trkpt><trkpt lat="40.8464678" lon="16.0301415"><ele>595.2</ele><time>2026-04-19T09:02:30.372Z</time></trkpt><trkpt lat="40.8464239" lon="16.0300339"><ele>595.4</ele><time>2026-04-19T09:02:32.372Z</time></trkpt><trkpt lat="40.846358" lon="16.029945"><ele>595.6</ele><time>2026-04-19T09:02:35.372Z</time></trkpt><trkpt lat="40.8463067" lon="16.0298149"><ele>595.8</ele><time>2026-04-19T09:02:37.371Z</time></trkpt><trkpt lat="40.8462624" lon="16.029728"><ele>596.0</ele><time>2026-04-19T09:02:38.372Z</time></trkpt><trkpt lat="40.8462095" lon="16.0296293"><ele>596.0</ele><time>2026-04-19T09:02:39.372Z</time></trkpt><trkpt lat="40.8461495" lon="16.0295168"><ele>596.0</ele><time>2026-04-19T09:02:40.372Z</time></trkpt><trkpt lat="40.8460831" lon="16.0294114"><ele>596.0</ele><time>2026-04-19T09:02:41.372Z</time></trkpt><trkpt lat="40.846004" lon="16.02929"><ele>596.0</ele><time>2026-04-19T09:02:42.372Z</time></trkpt><trkpt lat="40.8459242" lon="16.0291341"><ele>596.75</ele><time>2026-04-19T09:02:43.372Z</time></trkpt><trkpt lat="40.845836" lon="16.0289804"><ele>597.5</ele><time>2026-04-19T09:02:44.372Z</time></trkpt><trkpt lat="40.8457638" lon="16.0288367"><ele>598.25</ele><time>2026-04-19T09:02:45.372Z</time></trkpt><trkpt lat="40.8457016" lon="16.0287046"><ele>599.0</ele><time>2026-04-19T09:02:46.372Z</time></trkpt><trkpt lat="40.8456428" lon="16.0285911"><ele>599.0</ele><time>2026-04-19T09:02:47.372Z</time></trkpt><trkpt lat="40.8455894" lon="16.0284901"><ele>599.0</ele><time>2026-04-19T09:02:48.372Z</time></trkpt><trkpt lat="40.8455389" lon="16.0284045"><ele>599.0</ele><time>2026-04-19T09:02:49.372Z</time></trkpt><trkpt lat="40.8454919" lon="16.0283168"><ele>599.0</ele><time>2026-04-19T09:02:50.372Z</time></trkpt><trkpt lat="40.8454607" lon="16.0282244"><ele>599.0</ele><time>2026-04-19T09:02:51.372Z</time></trkpt><trkpt lat="40.8454123" lon="16.0281251"><ele>599.0</ele><time>2026-04-19T09:02:52.372Z</time></trkpt><trkpt lat="40.8453555" lon="16.0280134"><ele>599.25</ele><time>2026-04-19T09:02:53.372Z</time></trkpt><trkpt lat="40.8452778" lon="16.0278917"><ele>599.5</ele><time>2026-04-19T09:02:54.372Z</time></trkpt><trkpt lat="40.8451937" lon="16.027737"><ele>599.75</ele><time>2026-04-19T09:02:55.372Z</time></trkpt><trkpt lat="40.8450978" lon="16.0275909"><ele>600.0</ele><time>2026-04-19T09:02:56.372Z</time></trkpt><trkpt lat="40.845036" lon="16.0274446"><ele>600.2</ele><time>2026-04-19T09:02:57.372Z</time></trkpt><trkpt lat="40.8449806" lon="16.0273409"><ele>600.4</ele><time>2026-04-19T09:02:58.372Z</time></trkpt><trkpt lat="40.8449354" lon="16.0272744"><ele>600.6</ele><time>2026-04-19T09:02:59.372Z</time></trkpt><trkpt lat="40.8448979" lon="16.0272057"><ele>600.8</ele><time>2026-04-19T09:03:03.371Z</time></trkpt><trkpt lat="40.8448061" lon="16.027085"><ele>601.0</ele><time>2026-04-19T09:03:05.371Z</time></trkpt><trkpt lat="40.8447403" lon="16.026984"><ele>601.0</ele><time>2026-04-19T09:03:06.371Z</time></trkpt><trkpt lat="40.8446762" lon="16.0269119"><ele>601.0</ele><time>2026-04-19T09:03:07.371Z</time></trkpt><trkpt lat="40.844582" lon="16.0268483"><ele>601.0</ele><time>2026-04-19T09:03:08.371Z</time></trkpt><trkpt lat="40.8444475" lon="16.0267589"><ele>601.0</ele><time>2026-04-19T09:03:09.371Z</time></trkpt><trkpt lat="40.844301" lon="16.0266517"><ele>600.6666666666667</ele><time>2026-04-19T09:03:10.371Z</time></trkpt><trkpt lat="40.8441538" lon="16.0265398"><ele>600.3333333333334</ele><time>2026-04-19T09:03:11.371Z</time></trkpt><trkpt lat="40.8440243" lon="16.0264399"><ele>600.0</ele><time>2026-04-19T09:03:12.371Z</time></trkpt><trkpt lat="40.8438999" lon="16.0263545"><ele>600.0</ele><time>2026-04-19T09:03:13.371Z</time></trkpt><trkpt lat="40.8437907" lon="16.0262779"><ele>600.0</ele><time>2026-04-19T09:03:14.371Z</time></trkpt><trkpt lat="40.8436802" lon="16.0262077"><ele>600.0</ele><time>2026-04-19T09:03:15.371Z</time></trkpt><trkpt lat="40.8435436" lon="16.0261291"><ele>600.0</ele><time>2026-04-19T09:03:16.371Z</time></trkpt><trkpt lat="40.8434174" lon="16.0260407"><ele>600.4</ele><time>2026-04-19T09:03:17.371Z</time></trkpt><trkpt lat="40.8433129" lon="16.0259672"><ele>600.8</ele><time>2026-04-19T09:03:18.371Z</time></trkpt><trkpt lat="40.8432139" lon="16.0259316"><ele>601.2</ele><time>2026-04-19T09:03:19.371Z</time></trkpt><trkpt lat="40.8431243" lon="16.0259094"><ele>601.6</ele><time>2026-04-19T09:03:20.371Z</time></trkpt><trkpt lat="40.8430321" lon="16.0259057"><ele>602.0</ele><time>2026-04-19T09:03:21.371Z</time></trkpt><trkpt lat="40.8429359" lon="16.0259015"><ele>602.0</ele><time>2026-04-19T09:03:22.371Z</time></trkpt><trkpt lat="40.8428201" lon="16.0258959"><ele>602.0</ele><time>2026-04-19T09:03:23.371Z</time></trkpt><trkpt lat="40.8427019" lon="16.0258533"><ele>602.0</ele><time>2026-04-19T09:03:24.371Z</time></trkpt><trkpt lat="40.8426016" lon="16.0257918"><ele>602.0</ele><time>2026-04-19T09:03:25.371Z</time></trkpt><trkpt lat="40.8425137" lon="16.0257084"><ele>601.75</ele><time>2026-04-19T09:03:26.371Z</time></trkpt><trkpt lat="40.8424386" lon="16.0256059"><ele>601.5</ele><time>2026-04-19T09:03:27.371Z</time></trkpt><trkpt lat="40.8423739" lon="16.0254781"><ele>601.25</ele><time>2026-04-19T09:03:28.371Z</time></trkpt><trkpt lat="40.8423436" lon="16.0253136"><ele>601.0</ele><time>2026-04-19T09:03:29.371Z</time></trkpt><trkpt lat="40.8423454" lon="16.0250899"><ele>601.3333333333334</ele><time>2026-04-19T09:03:30.371Z</time></trkpt><trkpt lat="40.8423518" lon="16.024845"><ele>601.6666666666666</ele><time>2026-04-19T09:03:31.371Z</time></trkpt><trkpt lat="40.8423511" lon="16.0246002"><ele>602.0</ele><time>2026-04-19T09:03:32.371Z</time></trkpt><trkpt lat="40.8423622" lon="16.0243888"><ele>602.0</ele><time>2026-04-19T09:03:33.371Z</time></trkpt><trkpt lat="40.8423902" lon="16.024188"><ele>602.0</ele><time>2026-04-19T09:03:34.371Z</time></trkpt><trkpt lat="40.8424319" lon="16.0239835"><ele>602.0</ele><time>2026-04-19T09:03:35.371Z</time></trkpt><trkpt lat="40.8424807" lon="16.0237431"><ele>603.0</ele><time>2026-04-19T09:03:36.371Z</time></trkpt><trkpt lat="40.8425321" lon="16.0234705"><ele>604.0</ele><time>2026-04-19T09:03:37.371Z</time></trkpt><trkpt lat="40.8425876" lon="16.0231747"><ele>605.0</ele><time>2026-04-19T09:03:38.371Z</time></trkpt><trkpt lat="40.8426716" lon="16.022847"><ele>605.0</ele><time>2026-04-19T09:03:39.371Z</time></trkpt><trkpt lat="40.8427522" lon="16.0225037"><ele>605.0</ele><time>2026-04-19T09:03:40.371Z</time></trkpt><trkpt lat="40.842822" lon="16.0221713"><ele>604.5</ele><time>2026-04-19T09:03:41.371Z</time></trkpt><trkpt lat="40.8428934" lon="16.0218669"><ele>604.0</ele><time>2026-04-19T09:03:42.371Z</time></trkpt><trkpt lat="40.842953" lon="16.0215934"><ele>604.0</ele><time>2026-04-19T09:03:43.371Z</time></trkpt><trkpt lat="40.8430013" lon="16.021331"><ele>604.0</ele><time>2026-04-19T09:03:44.371Z</time></trkpt><trkpt lat="40.8430316" lon="16.0210908"><ele>604.0</ele><time>2026-04-19T09:03:45.371Z</time></trkpt><trkpt lat="40.8430442" lon="16.0208583"><ele>603.0</ele><time>2026-04-19T09:03:46.371Z</time></trkpt><trkpt lat="40.8430454" lon="16.020629"><ele>602.0</ele><time>2026-04-19T09:03:47.371Z</time></trkpt><trkpt lat="40.84305" lon="16.0203729"><ele>601.0</ele><time>2026-04-19T09:03:48.371Z</time></trkpt><trkpt lat="40.8430587" lon="16.0201097"><ele>600.6666666666667</ele><time>2026-04-19T09:03:49.371Z</time></trkpt><trkpt lat="40.8430664" lon="16.0198814"><ele>600.3333333333334</ele><time>2026-04-19T09:03:50.371Z</time></trkpt><trkpt lat="40.8430974" lon="16.0196673"><ele>600.0</ele><time>2026-04-19T09:03:51.371Z</time></trkpt><trkpt lat="40.8431807" lon="16.0194315"><ele>600.0</ele><time>2026-04-19T09:03:52.371Z</time></trkpt><trkpt lat="40.8432836" lon="16.019184"><ele>600.0</ele><time>2026-04-19T09:03:53.371Z</time></trkpt><trkpt lat="40.8434143" lon="16.0189092"><ele>599.5</ele><time>2026-04-19T09:03:54.371Z</time></trkpt><trkpt lat="40.8435569" lon="16.0186113"><ele>599.0</ele><time>2026-04-19T09:03:55.371Z</time></trkpt><trkpt lat="40.8436856" lon="16.0183094"><ele>599.0</ele><time>2026-04-19T09:03:56.371Z</time></trkpt><trkpt lat="40.8438014" lon="16.0180264"><ele>599.0</ele><time>2026-04-19T09:03:57.371Z</time></trkpt><trkpt lat="40.8439186" lon="16.0177528"><ele>598.0</ele><time>2026-04-19T09:03:58.371Z</time></trkpt><trkpt lat="40.8440383" lon="16.0174756"><ele>597.0</ele><time>2026-04-19T09:03:59.371Z</time></trkpt><trkpt lat="40.8441612" lon="16.0172127"><ele>597.0</ele><time>2026-04-19T09:04:00.371Z</time></trkpt><trkpt lat="40.8442758" lon="16.0169704"><ele>597.0</ele><time>2026-04-19T09:04:01.371Z</time></trkpt><trkpt lat="40.8444069" lon="16.0167309"><ele>597.0</ele><time>2026-04-19T09:04:02.371Z</time></trkpt><trkpt lat="40.8445487" lon="16.0165018"><ele>597.3333333333334</ele><time>2026-04-19T09:04:03.371Z</time></trkpt><trkpt lat="40.8446757" lon="16.0163117"><ele>597.6666666666667</ele><time>2026-04-19T09:04:04.371Z</time></trkpt><trkpt lat="40.8447995" lon="16.0161338"><ele>598.0</ele><time>2026-04-19T09:04:05.371Z</time></trkpt><trkpt lat="40.8448987" lon="16.0159679"><ele>597.6666666666667</ele><time>2026-04-19T09:04:06.371Z</time></trkpt><trkpt lat="40.8449752" lon="16.015802"><ele>597.3333333333334</ele><time>2026-04-19T09:04:07.371Z</time></trkpt><trkpt lat="40.8450364" lon="16.0156257"><ele>597.0</ele><time>2026-04-19T09:04:08.371Z</time></trkpt><trkpt lat="40.8450627" lon="16.0154197"><ele>597.0</ele><time>2026-04-19T09:04:09.371Z</time></trkpt><trkpt lat="40.8450706" lon="16.0152227"><ele>597.0</ele><time>2026-04-19T09:04:10.371Z</time></trkpt><trkpt lat="40.8450429" lon="16.0150315"><ele>597.0</ele><time>2026-04-19T09:04:11.371Z</time></trkpt><trkpt lat="40.8449846" lon="16.0148078"><ele>598.0</ele><time>2026-04-19T09:04:12.371Z</time></trkpt><trkpt lat="40.8448978" lon="16.0145831"><ele>599.0</ele><time>2026-04-19T09:04:13.371Z</time></trkpt><trkpt lat="40.8448049" lon="16.0143539"><ele>600.0</ele><time>2026-04-19T09:04:14.371Z</time></trkpt><trkpt lat="40.8447218" lon="16.0141588"><ele>600.75</ele><time>2026-04-19T09:04:15.371Z</time></trkpt><trkpt lat="40.8446488" lon="16.014005"><ele>601.5</ele><time>2026-04-19T09:04:16.371Z</time></trkpt><trkpt lat="40.8445761" lon="16.0138866"><ele>602.25</ele><time>2026-04-19T09:04:17.371Z</time></trkpt><trkpt lat="40.8444938" lon="16.0138006"><ele>603.0</ele><time>2026-04-19T09:04:18.371Z</time></trkpt><trkpt lat="40.8443857" lon="16.0137453"><ele>603.0</ele><time>2026-04-19T09:04:19.371Z</time></trkpt><trkpt lat="40.8442697" lon="16.013748"><ele>603.0</ele><time>2026-04-19T09:04:20.371Z</time></trkpt><trkpt lat="40.8441398" lon="16.0137833"><ele>603.0</ele><time>2026-04-19T09:04:21.371Z</time></trkpt><trkpt lat="40.844005" lon="16.0138442"><ele>603.0</ele><time>2026-04-19T09:04:22.371Z</time></trkpt><trkpt lat="40.8438873" lon="16.0139002"><ele>603.0</ele><time>2026-04-19T09:04:23.371Z</time></trkpt><trkpt lat="40.8437881" lon="16.01392"><ele>603.0</ele><time>2026-04-19T09:04:24.371Z</time></trkpt><trkpt lat="40.8436946" lon="16.0138767"><ele>603.0</ele><time>2026-04-19T09:04:25.371Z</time></trkpt><trkpt lat="40.8435931" lon="16.0137945"><ele>603.0</ele><time>2026-04-19T09:04:26.371Z</time></trkpt><trkpt lat="40.8435033" lon="16.0136689"><ele>603.0</ele><time>2026-04-19T09:04:27.371Z</time></trkpt><trkpt lat="40.8434246" lon="16.0135058"><ele>602.3333333333334</ele><time>2026-04-19T09:04:28.371Z</time></trkpt><trkpt lat="40.8433341" lon="16.0133562"><ele>601.6666666666667</ele><time>2026-04-19T09:04:29.371Z</time></trkpt><trkpt lat="40.8432196" lon="16.0132321"><ele>601.0</ele><time>2026-04-19T09:04:30.371Z</time></trkpt><trkpt lat="40.8430801" lon="16.0130938"><ele>601.0</ele><time>2026-04-19T09:04:31.371Z</time></trkpt><trkpt lat="40.8429131" lon="16.0129377"><ele>601.0</ele><time>2026-04-19T09:04:32.371Z</time></trkpt><trkpt lat="40.8427278" lon="16.0127648"><ele>601.0</ele><time>2026-04-19T09:04:33.371Z</time></trkpt><trkpt lat="40.8425466" lon="16.0125998"><ele>600.6666666666667</ele><time>2026-04-19T09:04:34.371Z</time></trkpt><trkpt lat="40.8423788" lon="16.0124546"><ele>600.3333333333334</ele><time>2026-04-19T09:04:35.371Z</time></trkpt><trkpt lat="40.8422397" lon="16.012315"><ele>600.0</ele><time>2026-04-19T09:04:36.371Z</time></trkpt><trkpt lat="40.8421309" lon="16.0121564"><ele>600.0</ele><time>2026-04-19T09:04:37.371Z</time></trkpt><trkpt lat="40.8420413" lon="16.01197"><ele>600.0</ele><time>2026-04-19T09:04:38.371Z</time></trkpt><trkpt lat="40.8419762" lon="16.0117575"><ele>600.0</ele><time>2026-04-19T09:04:39.371Z</time></trkpt><trkpt lat="40.8419431" lon="16.0115532"><ele>601.0</ele><time>2026-04-19T09:04:40.371Z</time></trkpt><trkpt lat="40.8419379" lon="16.0113234"><ele>602.0</ele><time>2026-04-19T09:04:41.371Z</time></trkpt><trkpt lat="40.8419578" lon="16.0110793"><ele>603.0</ele><time>2026-04-19T09:04:42.371Z</time></trkpt><trkpt lat="40.8420122" lon="16.0108356"><ele>604.0</ele><time>2026-04-19T09:04:43.371Z</time></trkpt><trkpt lat="40.8420665" lon="16.0105706"><ele>605.0</ele><time>2026-04-19T09:04:44.371Z</time></trkpt><trkpt lat="40.8421188" lon="16.0103017"><ele>606.0</ele><time>2026-04-19T09:04:45.371Z</time></trkpt><trkpt lat="40.842169" lon="16.0100249"><ele>606.5</ele><time>2026-04-19T09:04:46.371Z</time></trkpt><trkpt lat="40.8422233" lon="16.0097204"><ele>607.0</ele><time>2026-04-19T09:04:47.371Z</time></trkpt><trkpt lat="40.8422847" lon="16.0094164"><ele>607.3333333333334</ele><time>2026-04-19T09:04:48.371Z</time></trkpt><trkpt lat="40.8423367" lon="16.0091324"><ele>607.6666666666666</ele><time>2026-04-19T09:04:49.371Z</time></trkpt><trkpt lat="40.8423857" lon="16.0088747"><ele>608.0</ele><time>2026-04-19T09:04:50.371Z</time></trkpt><trkpt lat="40.8424349" lon="16.0086448"><ele>608.0</ele><time>2026-04-19T09:04:51.371Z</time></trkpt><trkpt lat="40.8424836" lon="16.008437"><ele>608.0</ele><time>2026-04-19T09:04:52.371Z</time></trkpt><trkpt lat="40.8425145" lon="16.0082689"><ele>608.0</ele><time>2026-04-19T09:04:53.371Z</time></trkpt><trkpt lat="40.8425162" lon="16.008115"><ele>608.0</ele><time>2026-04-19T09:04:54.371Z</time></trkpt><trkpt lat="40.8424996" lon="16.0079567"><ele>608.6666666666666</ele><time>2026-04-19T09:04:55.371Z</time></trkpt><trkpt lat="40.8424508" lon="16.0077932"><ele>609.3333333333334</ele><time>2026-04-19T09:04:56.371Z</time></trkpt><trkpt lat="40.8423697" lon="16.0076473"><ele>610.0</ele><time>2026-04-19T09:04:57.371Z</time></trkpt><trkpt lat="40.842253" lon="16.0074569"><ele>608.0</ele><time>2026-04-19T09:04:58.371Z</time></trkpt><trkpt lat="40.8421057" lon="16.0072629"><ele>606.0</ele><time>2026-04-19T09:04:59.371Z</time></trkpt><trkpt lat="40.8419691" lon="16.007074"><ele>604.0</ele><time>2026-04-19T09:05:00.371Z</time></trkpt><trkpt lat="40.8418609" lon="16.0069177"><ele>606.0</ele><time>2026-04-19T09:05:01.371Z</time></trkpt><trkpt lat="40.8417762" lon="16.0067747"><ele>608.0</ele><time>2026-04-19T09:05:02.371Z</time></trkpt><trkpt lat="40.8417212" lon="16.0066114"><ele>610.0</ele><time>2026-04-19T09:05:03.371Z</time></trkpt><trkpt lat="40.8416836" lon="16.0064074"><ele>612.0</ele><time>2026-04-19T09:05:04.371Z</time></trkpt><trkpt lat="40.8416651" lon="16.0061592"><ele>612.5</ele><time>2026-04-19T09:05:05.371Z</time></trkpt><trkpt lat="40.8416565" lon="16.0058762"><ele>613.0</ele><time>2026-04-19T09:05:06.371Z</time></trkpt><trkpt lat="40.8416347" lon="16.0055627"><ele>613.0</ele><time>2026-04-19T09:05:07.371Z</time></trkpt><trkpt lat="40.8416103" lon="16.0052725"><ele>613.0</ele><time>2026-04-19T09:05:08.371Z</time></trkpt><trkpt lat="40.8415952" lon="16.005032"><ele>613.0</ele><time>2026-04-19T09:05:09.371Z</time></trkpt><trkpt lat="40.8415769" lon="16.0048174"><ele>613.25</ele><time>2026-04-19T09:05:10.37Z</time></trkpt><trkpt lat="40.8415639" lon="16.0046416"><ele>613.5</ele><time>2026-04-19T09:05:11.371Z</time></trkpt><trkpt lat="40.8415901" lon="16.0044886"><ele>613.75</ele><time>2026-04-19T09:05:12.371Z</time></trkpt><trkpt lat="40.8416513" lon="16.0043488"><ele>614.0</ele><time>2026-04-19T09:05:13.371Z</time></trkpt><trkpt lat="40.8417461" lon="16.0042226"><ele>615.0</ele><time>2026-04-19T09:05:14.371Z</time></trkpt><trkpt lat="40.8418704" lon="16.0040738"><ele>616.0</ele><time>2026-04-19T09:05:15.371Z</time></trkpt><trkpt lat="40.842012" lon="16.0039128"><ele>617.0</ele><time>2026-04-19T09:05:16.371Z</time></trkpt><trkpt lat="40.8421475" lon="16.0037504"><ele>617.0</ele><time>2026-04-19T09:05:17.371Z</time></trkpt><trkpt lat="40.8422673" lon="16.0036106"><ele>617.0</ele><time>2026-04-19T09:05:18.371Z</time></trkpt><trkpt lat="40.8423543" lon="16.0034795"><ele>617.0</ele><time>2026-04-19T09:05:19.371Z</time></trkpt><trkpt lat="40.8424208" lon="16.0033393"><ele>617.0</ele><time>2026-04-19T09:05:20.371Z</time></trkpt><trkpt lat="40.8424649" lon="16.0031786"><ele>617.3333333333333</ele><time>2026-04-19T09:05:21.371Z</time></trkpt><trkpt lat="40.8424843" lon="16.0029749"><ele>617.6666666666666</ele><time>2026-04-19T09:05:22.371Z</time></trkpt><trkpt lat="40.8424831" lon="16.0027373"><ele>618.0</ele><time>2026-04-19T09:05:23.371Z</time></trkpt><trkpt lat="40.842469" lon="16.0024726"><ele>617.3333333333334</ele><time>2026-04-19T09:05:24.371Z</time></trkpt><trkpt lat="40.8424521" lon="16.0021816"><ele>616.6666666666667</ele><time>2026-04-19T09:05:25.371Z</time></trkpt><trkpt lat="40.842436" lon="16.0018951"><ele>616.0</ele><time>2026-04-19T09:05:26.371Z</time></trkpt><trkpt lat="40.8424172" lon="16.0016268"><ele>616.0</ele><time>2026-04-19T09:05:27.371Z</time></trkpt><trkpt lat="40.842404" lon="16.0013926"><ele>616.0</ele><time>2026-04-19T09:05:28.371Z</time></trkpt><trkpt lat="40.8424075" lon="16.0011827"><ele>616.0</ele><time>2026-04-19T09:05:29.371Z</time></trkpt><trkpt lat="40.842441" lon="16.0009472"><ele>617.0</ele><time>2026-04-19T09:05:30.371Z</time></trkpt><trkpt lat="40.8424971" lon="16.0007185"><ele>618.0</ele><time>2026-04-19T09:05:31.371Z</time></trkpt><trkpt lat="40.8425477" lon="16.0005065"><ele>619.0</ele><time>2026-04-19T09:05:32.371Z</time></trkpt><trkpt lat="40.8425878" lon="16.0003352"><ele>619.0</ele><time>2026-04-19T09:05:33.371Z</time></trkpt><trkpt lat="40.8426262" lon="16.0001878"><ele>619.0</ele><time>2026-04-19T09:05:34.371Z</time></trkpt><trkpt lat="40.8426575" lon="16.0000497"><ele>619.0</ele><time>2026-04-19T09:05:35.371Z</time></trkpt><trkpt lat="40.8426824" lon="15.9999285"><ele>619.0</ele><time>2026-04-19T09:05:36.371Z</time></trkpt><trkpt lat="40.8427044" lon="15.999835"><ele>619.0</ele><time>2026-04-19T09:05:37.371Z</time></trkpt><trkpt lat="40.8427134" lon="15.9997503"><ele>617.8</ele><time>2026-04-19T09:05:38.371Z</time></trkpt><trkpt lat="40.8427424" lon="15.999643"><ele>616.5999999999999</ele><time>2026-04-19T09:05:40.371Z</time></trkpt><trkpt lat="40.8428314" lon="15.9996881"><ele>615.4</ele><time>2026-04-19T09:05:43.371Z</time></trkpt><trkpt lat="40.8428581" lon="15.9998023"><ele>614.1999999999999</ele><time>2026-04-19T09:05:45.371Z</time></trkpt><trkpt lat="40.8428773" lon="15.9999731"><ele>613.0</ele><time>2026-04-19T09:05:47.371Z</time></trkpt><trkpt lat="40.8428934" lon="16.0000584"><ele>613.0</ele><time>2026-04-19T09:05:48.371Z</time></trkpt><trkpt lat="40.842914" lon="16.0001842"><ele>613.0</ele><time>2026-04-19T09:05:50.371Z</time></trkpt><trkpt lat="40.8429255" lon="16.0003036"><ele>613.0</ele><time>2026-04-19T09:05:52.371Z</time></trkpt><trkpt lat="40.8429592" lon="16.0004614"><ele>613.0</ele><time>2026-04-19T09:05:54.371Z</time></trkpt><trkpt lat="40.8429744" lon="16.0005693"><ele>613.0</ele><time>2026-04-19T09:05:55.371Z</time></trkpt><trkpt lat="40.8429883" lon="16.0007105"><ele>612.0</ele><time>2026-04-19T09:05:56.371Z</time></trkpt><trkpt lat="40.843" lon="16.0008662"><ele>611.0</ele><time>2026-04-19T09:05:57.371Z</time></trkpt><trkpt lat="40.8430118" lon="16.0010432"><ele>610.0</ele><time>2026-04-19T09:05:58.371Z</time></trkpt><trkpt lat="40.8430309" lon="16.0012644"><ele>609.0</ele><time>2026-04-19T09:05:59.371Z</time></trkpt><trkpt lat="40.843039" lon="16.0015307"><ele>608.3333333333334</ele><time>2026-04-19T09:06:00.371Z</time></trkpt><trkpt lat="40.8430504" lon="16.0017875"><ele>607.6666666666667</ele><time>2026-04-19T09:06:01.37Z</time></trkpt><trkpt lat="40.843068" lon="16.0020248"><ele>607.0</ele><time>2026-04-19T09:06:02.37Z</time></trkpt><trkpt lat="40.8430814" lon="16.002241"><ele>607.0</ele><time>2026-04-19T09:06:03.371Z</time></trkpt><trkpt lat="40.843086" lon="16.0024396"><ele>607.0</ele><time>2026-04-19T09:06:04.371Z</time></trkpt><trkpt lat="40.8430875" lon="16.0026185"><ele>607.0</ele><time>2026-04-19T09:06:05.371Z</time></trkpt><trkpt lat="40.8430911" lon="16.0028154"><ele>607.0</ele><time>2026-04-19T09:06:06.371Z</time></trkpt><trkpt lat="40.8430905" lon="16.0030058"><ele>606.75</ele><time>2026-04-19T09:06:07.371Z</time></trkpt><trkpt lat="40.8430767" lon="16.0031738"><ele>606.5</ele><time>2026-04-19T09:06:08.371Z</time></trkpt><trkpt lat="40.843048" lon="16.0033441"><ele>606.25</ele><time>2026-04-19T09:06:09.371Z</time></trkpt><trkpt lat="40.8430144" lon="16.0035184"><ele>606.0</ele><time>2026-04-19T09:06:10.371Z</time></trkpt><trkpt lat="40.8429691" lon="16.0036689"><ele>607.25</ele><time>2026-04-19T09:06:11.371Z</time></trkpt><trkpt lat="40.8429207" lon="16.0038025"><ele>608.5</ele><time>2026-04-19T09:06:12.371Z</time></trkpt><trkpt lat="40.8428651" lon="16.0039117"><ele>609.75</ele><time>2026-04-19T09:06:13.371Z</time></trkpt><trkpt lat="40.8427987" lon="16.0040333"><ele>611.0</ele><time>2026-04-19T09:06:14.371Z</time></trkpt><trkpt lat="40.8427164" lon="16.0041871"><ele>611.0</ele><time>2026-04-19T09:06:15.371Z</time></trkpt><trkpt lat="40.8426342" lon="16.0043472"><ele>611.0</ele><time>2026-04-19T09:06:16.371Z</time></trkpt><trkpt lat="40.8425499" lon="16.0044749"><ele>611.0</ele><time>2026-04-19T09:06:17.371Z</time></trkpt><trkpt lat="40.8424614" lon="16.0045891"><ele>611.0</ele><time>2026-04-19T09:06:18.371Z</time></trkpt><trkpt lat="40.8423824" lon="16.0047213"><ele>610.75</ele><time>2026-04-19T09:06:19.371Z</time></trkpt><trkpt lat="40.8423289" lon="16.0048792"><ele>610.5</ele><time>2026-04-19T09:06:20.371Z</time></trkpt><trkpt lat="40.8422948" lon="16.0050507"><ele>610.25</ele><time>2026-04-19T09:06:21.37Z</time></trkpt><trkpt lat="40.8422804" lon="16.0052517"><ele>610.0</ele><time>2026-04-19T09:06:22.37Z</time></trkpt><trkpt lat="40.8422848" lon="16.0054643"><ele>610.0</ele><time>2026-04-19T09:06:23.37Z</time></trkpt><trkpt lat="40.8422918" lon="16.0056523"><ele>610.0</ele><time>2026-04-19T09:06:24.37Z</time></trkpt><trkpt lat="40.8423104" lon="16.0058348"><ele>610.0</ele><time>2026-04-19T09:06:25.37Z</time></trkpt><trkpt lat="40.8423253" lon="16.0060117"><ele>610.0</ele><time>2026-04-19T09:06:26.37Z</time></trkpt><trkpt lat="40.8423451" lon="16.006149"><ele>603.0</ele><time>2026-04-19T09:06:27.37Z</time></trkpt><trkpt lat="40.8423593" lon="16.00624"><ele>603.0</ele><time>2026-04-19T09:06:28.37Z</time></trkpt><trkpt lat="40.8423694" lon="16.0063348"><ele>603.0</ele><time>2026-04-19T09:06:30.37Z</time></trkpt></trkseg><trkseg><trkpt lat="40.8424284" lon="16.0064731"><ele>603.0</ele><time>2026-04-19T09:24:03.367Z</time></trkpt><trkpt lat="40.8424505" lon="16.0065867"><ele>603.0</ele><time>2026-04-19T09:24:05.367Z</time></trkpt><trkpt lat="40.8424565" lon="16.0066727"><ele>603.0</ele><time>2026-04-19T09:24:06.367Z</time></trkpt><trkpt lat="40.8424831" lon="16.0068399"><ele>603.0</ele><time>2026-04-19T09:24:08.367Z</time></trkpt><trkpt lat="40.842499" lon="16.0069332"><ele>603.0</ele><time>2026-04-19T09:24:09.367Z</time></trkpt><trkpt lat="40.8425159" lon="16.0070407"><ele>603.0</ele><time>2026-04-19T09:24:10.367Z</time></trkpt><trkpt lat="40.8425337" lon="16.0071533"><ele>603.0</ele><time>2026-04-19T09:24:11.367Z</time></trkpt><trkpt lat="40.8425539" lon="16.0072739"><ele>603.0</ele><time>2026-04-19T09:24:12.367Z</time></trkpt><trkpt lat="40.8425747" lon="16.0073966"><ele>603.0</ele><time>2026-04-19T09:24:13.367Z</time></trkpt><trkpt lat="40.8425956" lon="16.0075271"><ele>603.0</ele><time>2026-04-19T09:24:14.367Z</time></trkpt><trkpt lat="40.8426173" lon="16.0076509"><ele>603.0</ele><time>2026-04-19T09:24:15.367Z</time></trkpt><trkpt lat="40.8426365" lon="16.0077724"><ele>603.0</ele><time>2026-04-19T09:24:16.367Z</time></trkpt><trkpt lat="40.8426489" lon="16.0078947"><ele>603.0</ele><time>2026-04-19T09:24:17.367Z</time></trkpt><trkpt lat="40.8426542" lon="16.0080153"><ele>603.0</ele><time>2026-04-19T09:24:18.367Z</time></trkpt><trkpt lat="40.8426603" lon="16.0081408"><ele>603.0</ele><time>2026-04-19T09:24:19.367Z</time></trkpt><trkpt lat="40.8426631" lon="16.0082779"><ele>603.0</ele><time>2026-04-19T09:24:20.367Z</time></trkpt><trkpt lat="40.8426649" lon="16.0084338"><ele>603.5</ele><time>2026-04-19T09:24:21.367Z</time></trkpt><trkpt lat="40.8426741" lon="16.0086011"><ele>604.0</ele><time>2026-04-19T09:24:22.367Z</time></trkpt><trkpt lat="40.8426813" lon="16.0087783"><ele>604.5</ele><time>2026-04-19T09:24:23.367Z</time></trkpt><trkpt lat="40.8426831" lon="16.0089445"><ele>605.0</ele><time>2026-04-19T09:24:24.367Z</time></trkpt><trkpt lat="40.8426816" lon="16.0091096"><ele>605.0</ele><time>2026-04-19T09:24:25.367Z</time></trkpt><trkpt lat="40.8426727" lon="16.0092642"><ele>605.0</ele><time>2026-04-19T09:24:26.367Z</time></trkpt><trkpt lat="40.8426549" lon="16.0094128"><ele>605.0</ele><time>2026-04-19T09:24:27.367Z</time></trkpt><trkpt lat="40.8426403" lon="16.0095584"><ele>605.0</ele><time>2026-04-19T09:24:28.367Z</time></trkpt><trkpt lat="40.8426297" lon="16.0096992"><ele>605.0</ele><time>2026-04-19T09:24:29.367Z</time></trkpt><trkpt lat="40.8426213" lon="16.0098358"><ele>605.2</ele><time>2026-04-19T09:24:30.367Z</time></trkpt><trkpt lat="40.8426148" lon="16.0099707"><ele>605.4</ele><time>2026-04-19T09:24:31.367Z</time></trkpt><trkpt lat="40.8426063" lon="16.0101079"><ele>605.6</ele><time>2026-04-19T09:24:32.367Z</time></trkpt><trkpt lat="40.8425983" lon="16.0102425"><ele>605.8</ele><time>2026-04-19T09:24:33.367Z</time></trkpt><trkpt lat="40.8425829" lon="16.0103729"><ele>606.0</ele><time>2026-04-19T09:24:34.367Z</time></trkpt><trkpt lat="40.8425737" lon="16.0104982"><ele>606.0</ele><time>2026-04-19T09:24:35.367Z</time></trkpt><trkpt lat="40.8425671" lon="16.0106251"><ele>606.0</ele><time>2026-04-19T09:24:36.367Z</time></trkpt><trkpt lat="40.8425631" lon="16.0107504"><ele>606.0</ele><time>2026-04-19T09:24:37.367Z</time></trkpt><trkpt lat="40.8425687" lon="16.0108688"><ele>606.0</ele><time>2026-04-19T09:24:38.367Z</time></trkpt><trkpt lat="40.842588" lon="16.0109843"><ele>606.0</ele><time>2026-04-19T09:24:39.367Z</time></trkpt><trkpt lat="40.8426202" lon="16.0111015"><ele>605.0</ele><time>2026-04-19T09:24:40.367Z</time></trkpt><trkpt lat="40.8426584" lon="16.0112121"><ele>604.0</ele><time>2026-04-19T09:24:41.367Z</time></trkpt><trkpt lat="40.8426983" lon="16.0113178"><ele>603.0</ele><time>2026-04-19T09:24:42.367Z</time></trkpt><trkpt lat="40.8427416" lon="16.0114137"><ele>602.0</ele><time>2026-04-19T09:24:43.367Z</time></trkpt><trkpt lat="40.8427867" lon="16.0115038"><ele>601.0</ele><time>2026-04-19T09:24:44.367Z</time></trkpt><trkpt lat="40.8428328" lon="16.011594"><ele>600.0</ele><time>2026-04-19T09:24:45.367Z</time></trkpt><trkpt lat="40.8428756" lon="16.0116777"><ele>600.0</ele><time>2026-04-19T09:24:46.367Z</time></trkpt><trkpt lat="40.8429107" lon="16.0117494"><ele>600.0</ele><time>2026-04-19T09:24:47.367Z</time></trkpt><trkpt lat="40.8429704" lon="16.0118733"><ele>600.0</ele><time>2026-04-19T09:24:49.367Z</time></trkpt><trkpt lat="40.8430286" lon="16.0119768"><ele>600.0</ele><time>2026-04-19T09:24:51.367Z</time></trkpt><trkpt lat="40.8430945" lon="16.0120776"><ele>600.0</ele><time>2026-04-19T09:24:53.367Z</time></trkpt><trkpt lat="40.8431603" lon="16.012202"><ele>600.0</ele><time>2026-04-19T09:24:55.367Z</time></trkpt><trkpt lat="40.8432096" lon="16.0123232"><ele>600.0</ele><time>2026-04-19T09:24:57.367Z</time></trkpt><trkpt lat="40.8432739" lon="16.0124605"><ele>600.0</ele><time>2026-04-19T09:24:59.367Z</time></trkpt><trkpt lat="40.843319" lon="16.0125991"><ele>600.0</ele><time>2026-04-19T09:25:01.367Z</time></trkpt><trkpt lat="40.8433095" lon="16.0127027"><ele>600.0</ele><time>2026-04-19T09:25:03.367Z</time></trkpt><trkpt lat="40.8432812" lon="16.0128389"><ele>600.1666666666666</ele><time>2026-04-19T09:25:05.367Z</time></trkpt><trkpt lat="40.8432402" lon="16.0129678"><ele>600.3333333333334</ele><time>2026-04-19T09:25:07.367Z</time></trkpt><trkpt lat="40.8432061" lon="16.013056"><ele>600.5</ele><time>2026-04-19T09:25:24.367Z</time></trkpt><trkpt lat="40.8431679" lon="16.0131599"><ele>600.6666666666667</ele><time>2026-04-19T09:25:27.367Z</time></trkpt><trkpt lat="40.8431298" lon="16.013243"><ele>600.8333333333334</ele><time>2026-04-19T09:25:29.367Z</time></trkpt><trkpt lat="40.8430898" lon="16.013308"><ele>601.0</ele><time>2026-04-19T09:25:30.367Z</time></trkpt><trkpt lat="40.8430431" lon="16.0133939"><ele>600.6666666666667</ele><time>2026-04-19T09:25:31.367Z</time></trkpt><trkpt lat="40.8429937" lon="16.0134944"><ele>600.3333333333334</ele><time>2026-04-19T09:25:32.367Z</time></trkpt><trkpt lat="40.8429453" lon="16.0136018"><ele>600.0</ele><time>2026-04-19T09:25:33.367Z</time></trkpt><trkpt lat="40.8428991" lon="16.0137087"><ele>599.6666666666666</ele><time>2026-04-19T09:25:34.367Z</time></trkpt><trkpt lat="40.8428567" lon="16.0138116"><ele>599.3333333333333</ele><time>2026-04-19T09:25:35.367Z</time></trkpt><trkpt lat="40.8428181" lon="16.0139012"><ele>599.0</ele><time>2026-04-19T09:25:36.367Z</time></trkpt><trkpt lat="40.8427824" lon="16.0140146"><ele>599.0</ele><time>2026-04-19T09:25:38.367Z</time></trkpt><trkpt lat="40.8427799" lon="16.0141098"><ele>599.0</ele><time>2026-04-19T09:25:40.367Z</time></trkpt><trkpt lat="40.842811" lon="16.0142038"><ele>599.0</ele><time>2026-04-19T09:25:42.367Z</time></trkpt><trkpt lat="40.8428588" lon="16.0142857"><ele>599.0</ele><time>2026-04-19T09:25:44.367Z</time></trkpt><trkpt lat="40.8428884" lon="16.0143764"><ele>599.0</ele><time>2026-04-19T09:25:46.367Z</time></trkpt><trkpt lat="40.8429122" lon="16.014508"><ele>599.0</ele><time>2026-04-19T09:25:48.367Z</time></trkpt><trkpt lat="40.8428989" lon="16.0145983"><ele>598.8333333333333</ele><time>2026-04-19T09:25:50.367Z</time></trkpt><trkpt lat="40.8428796" lon="16.0146996"><ele>598.6666666666666</ele><time>2026-04-19T09:25:53.367Z</time></trkpt><trkpt lat="40.8428479" lon="16.0147753"><ele>598.5</ele><time>2026-04-19T09:25:58.367Z</time></trkpt><trkpt lat="40.8429136" lon="16.0146905"><ele>598.3333333333334</ele><time>2026-04-19T09:26:14.367Z</time></trkpt><trkpt lat="40.8429534" lon="16.0145934"><ele>598.1666666666667</ele><time>2026-04-19T09:26:16.367Z</time></trkpt><trkpt lat="40.8430274" lon="16.0145285"><ele>598.0</ele><time>2026-04-19T09:26:19.367Z</time></trkpt><trkpt lat="40.8430871" lon="16.0144978"><ele>598.0</ele><time>2026-04-19T09:26:22.367Z</time></trkpt><trkpt lat="40.843192" lon="16.0145249"><ele>598.0</ele><time>2026-04-19T09:26:38.367Z</time></trkpt><trkpt lat="40.8432564" lon="16.0145521"><ele>598.0</ele><time>2026-04-19T09:26:39.367Z</time></trkpt><trkpt lat="40.8433209" lon="16.0145867"><ele>598.0</ele><time>2026-04-19T09:26:40.367Z</time></trkpt><trkpt lat="40.8434576" lon="16.0146851"><ele>598.0</ele><time>2026-04-19T09:26:42.367Z</time></trkpt><trkpt lat="40.8435141" lon="16.0147327"><ele>598.0</ele><time>2026-04-19T09:26:43.367Z</time></trkpt><trkpt lat="40.8436012" lon="16.0148382"><ele>598.0</ele><time>2026-04-19T09:26:45.367Z</time></trkpt><trkpt lat="40.8436789" lon="16.0149627"><ele>598.0</ele><time>2026-04-19T09:26:47.367Z</time></trkpt><trkpt lat="40.8437438" lon="16.0150995"><ele>598.0</ele><time>2026-04-19T09:26:49.367Z</time></trkpt><trkpt lat="40.8437903" lon="16.0152457"><ele>598.0</ele><time>2026-04-19T09:26:51.367Z</time></trkpt><trkpt lat="40.8438177" lon="16.0153291"><ele>598.0</ele><time>2026-04-19T09:26:52.367Z</time></trkpt><trkpt lat="40.8438605" lon="16.0154846"><ele>598.0</ele><time>2026-04-19T09:26:54.367Z</time></trkpt><trkpt lat="40.8438715" lon="16.0155728"><ele>598.0</ele><time>2026-04-19T09:26:55.367Z</time></trkpt><trkpt lat="40.843878" lon="16.0156846"><ele>598.0</ele><time>2026-04-19T09:26:56.367Z</time></trkpt><trkpt lat="40.8438741" lon="16.015806"><ele>598.0</ele><time>2026-04-19T09:26:57.367Z</time></trkpt><trkpt lat="40.8438678" lon="16.0159451"><ele>598.0</ele><time>2026-04-19T09:26:58.367Z</time></trkpt><trkpt lat="40.8438608" lon="16.0160891"><ele>598.0</ele><time>2026-04-19T09:26:59.367Z</time></trkpt><trkpt lat="40.8438489" lon="16.0162117"><ele>598.0</ele><time>2026-04-19T09:27:00.367Z</time></trkpt><trkpt lat="40.8438331" lon="16.0163155"><ele>598.0</ele><time>2026-04-19T09:27:01.367Z</time></trkpt><trkpt lat="40.8438191" lon="16.0164143"><ele>598.0</ele><time>2026-04-19T09:27:02.367Z</time></trkpt><trkpt lat="40.8438074" lon="16.0165318"><ele>598.0</ele><time>2026-04-19T09:27:03.367Z</time></trkpt><trkpt lat="40.8437904" lon="16.016653"><ele>597.8333333333334</ele><time>2026-04-19T09:27:04.367Z</time></trkpt><trkpt lat="40.8437732" lon="16.0167687"><ele>597.6666666666667</ele><time>2026-04-19T09:27:05.366Z</time></trkpt><trkpt lat="40.8437551" lon="16.0168887"><ele>597.5</ele><time>2026-04-19T09:27:06.366Z</time></trkpt><trkpt lat="40.8437369" lon="16.017007"><ele>597.3333333333334</ele><time>2026-04-19T09:27:07.366Z</time></trkpt><trkpt lat="40.8437179" lon="16.0171123"><ele>597.1666666666666</ele><time>2026-04-19T09:27:08.366Z</time></trkpt><trkpt lat="40.8437009" lon="16.0172196"><ele>597.0</ele><time>2026-04-19T09:27:09.366Z</time></trkpt><trkpt lat="40.8436776" lon="16.0173214"><ele>597.0</ele><time>2026-04-19T09:27:10.366Z</time></trkpt><trkpt lat="40.843658" lon="16.0174386"><ele>597.0</ele><time>2026-04-19T09:27:11.366Z</time></trkpt><trkpt lat="40.8436345" lon="16.0175577"><ele>597.0</ele><time>2026-04-19T09:27:12.366Z</time></trkpt><trkpt lat="40.8436156" lon="16.017677"><ele>597.0</ele><time>2026-04-19T09:27:13.366Z</time></trkpt><trkpt lat="40.843599" lon="16.0177781"><ele>597.0</ele><time>2026-04-19T09:27:14.366Z</time></trkpt><trkpt lat="40.8435809" lon="16.0178832"><ele>597.0</ele><time>2026-04-19T09:27:15.366Z</time></trkpt><trkpt lat="40.8435601" lon="16.0179879"><ele>597.2</ele><time>2026-04-19T09:27:16.366Z</time></trkpt><trkpt lat="40.8435475" lon="16.0180968"><ele>597.4000000000001</ele><time>2026-04-19T09:27:17.366Z</time></trkpt><trkpt lat="40.8435371" lon="16.0181931"><ele>597.5999999999999</ele><time>2026-04-19T09:27:18.366Z</time></trkpt><trkpt lat="40.8435094" lon="16.0183475"><ele>597.8</ele><time>2026-04-19T09:27:20.366Z</time></trkpt><trkpt lat="40.8434881" lon="16.0184916"><ele>598.0</ele><time>2026-04-19T09:27:22.366Z</time></trkpt><trkpt lat="40.8434609" lon="16.0186151"><ele>598.5</ele><time>2026-04-19T09:27:25.366Z</time></trkpt><trkpt lat="40.8434312" lon="16.0187791"><ele>599.0</ele><time>2026-04-19T09:27:27.366Z</time></trkpt><trkpt lat="40.8433958" lon="16.0188854"><ele>599.5</ele><time>2026-04-19T09:27:28.366Z</time></trkpt><trkpt lat="40.8433466" lon="16.0190203"><ele>600.0</ele><time>2026-04-19T09:27:29.366Z</time></trkpt><trkpt lat="40.8432906" lon="16.0191635"><ele>600.0</ele><time>2026-04-19T09:27:30.366Z</time></trkpt><trkpt lat="40.8432409" lon="16.0192829"><ele>600.0</ele><time>2026-04-19T09:27:31.366Z</time></trkpt><trkpt lat="40.8431966" lon="16.0193927"><ele>600.0</ele><time>2026-04-19T09:27:32.366Z</time></trkpt><trkpt lat="40.8431477" lon="16.0194974"><ele>600.0</ele><time>2026-04-19T09:27:33.366Z</time></trkpt><trkpt lat="40.8431169" lon="16.0196119"><ele>600.0</ele><time>2026-04-19T09:27:34.366Z</time></trkpt><trkpt lat="40.843098" lon="16.0197267"><ele>600.0</ele><time>2026-04-19T09:27:35.366Z</time></trkpt><trkpt lat="40.8430845" lon="16.0198384"><ele>600.0</ele><time>2026-04-19T09:27:36.366Z</time></trkpt><trkpt lat="40.8430719" lon="16.019958"><ele>600.0</ele><time>2026-04-19T09:27:37.366Z</time></trkpt><trkpt lat="40.8430672" lon="16.0200857"><ele>600.0</ele><time>2026-04-19T09:27:38.366Z</time></trkpt><trkpt lat="40.8430636" lon="16.0202247"><ele>600.0</ele><time>2026-04-19T09:27:39.366Z</time></trkpt><trkpt lat="40.8430596" lon="16.0203755"><ele>600.3333333333334</ele><time>2026-04-19T09:27:40.366Z</time></trkpt><trkpt lat="40.8430509" lon="16.0205628"><ele>600.6666666666667</ele><time>2026-04-19T09:27:41.366Z</time></trkpt><trkpt lat="40.8430395" lon="16.0207732"><ele>601.0</ele><time>2026-04-19T09:27:42.366Z</time></trkpt><trkpt lat="40.8430316" lon="16.0209869"><ele>602.0</ele><time>2026-04-19T09:27:43.366Z</time></trkpt><trkpt lat="40.8430134" lon="16.0212077"><ele>603.0</ele><time>2026-04-19T09:27:44.366Z</time></trkpt><trkpt lat="40.8429796" lon="16.0214281"><ele>604.0</ele><time>2026-04-19T09:27:45.366Z</time></trkpt><trkpt lat="40.8429351" lon="16.0216228"><ele>605.25</ele><time>2026-04-19T09:27:46.366Z</time></trkpt><trkpt lat="40.8428906" lon="16.0217948"><ele>606.5</ele><time>2026-04-19T09:27:47.366Z</time></trkpt><trkpt lat="40.8428546" lon="16.0219548"><ele>607.75</ele><time>2026-04-19T09:27:48.366Z</time></trkpt><trkpt lat="40.8428277" lon="16.0221043"><ele>609.0</ele><time>2026-04-19T09:27:49.366Z</time></trkpt><trkpt lat="40.8428023" lon="16.022253"><ele>609.0</ele><time>2026-04-19T09:27:50.366Z</time></trkpt><trkpt lat="40.8427733" lon="16.022374"><ele>609.0</ele><time>2026-04-19T09:27:51.366Z</time></trkpt><trkpt lat="40.8427472" lon="16.0224744"><ele>609.0</ele><time>2026-04-19T09:27:52.366Z</time></trkpt><trkpt lat="40.8427192" lon="16.0225713"><ele>609.0</ele><time>2026-04-19T09:27:53.366Z</time></trkpt><trkpt lat="40.8426989" lon="16.0226665"><ele>609.0</ele><time>2026-04-19T09:27:54.366Z</time></trkpt><trkpt lat="40.842675" lon="16.0227546"><ele>609.0</ele><time>2026-04-19T09:27:55.366Z</time></trkpt><trkpt lat="40.842654" lon="16.0228391"><ele>608.6666666666666</ele><time>2026-04-19T09:27:56.366Z</time></trkpt><trkpt lat="40.8426392" lon="16.0229441"><ele>608.3333333333334</ele><time>2026-04-19T09:27:57.366Z</time></trkpt><trkpt lat="40.8426177" lon="16.0230464"><ele>608.0</ele><time>2026-04-19T09:27:58.366Z</time></trkpt><trkpt lat="40.8425911" lon="16.0231634"><ele>607.6666666666667</ele><time>2026-04-19T09:27:59.366Z</time></trkpt><trkpt lat="40.8425643" lon="16.02328"><ele>607.3333333333334</ele><time>2026-04-19T09:28:00.366Z</time></trkpt><trkpt lat="40.8425374" lon="16.0233974"><ele>607.0</ele><time>2026-04-19T09:28:01.366Z</time></trkpt><trkpt lat="40.842515" lon="16.0235141"><ele>606.8000000000001</ele><time>2026-04-19T09:28:02.366Z</time></trkpt><trkpt lat="40.8424889" lon="16.0236326"><ele>606.6</ele><time>2026-04-19T09:28:03.366Z</time></trkpt><trkpt lat="40.842463" lon="16.0237453"><ele>606.4000000000001</ele><time>2026-04-19T09:28:04.366Z</time></trkpt><trkpt lat="40.8424348" lon="16.0238739"><ele>606.2</ele><time>2026-04-19T09:28:05.366Z</time></trkpt><trkpt lat="40.8424029" lon="16.0240022"><ele>606.0</ele><time>2026-04-19T09:28:06.366Z</time></trkpt><trkpt lat="40.8423784" lon="16.0241254"><ele>605.3333333333334</ele><time>2026-04-19T09:28:07.366Z</time></trkpt><trkpt lat="40.8423543" lon="16.0242417"><ele>604.6666666666666</ele><time>2026-04-19T09:28:08.366Z</time></trkpt><trkpt lat="40.8423378" lon="16.0243516"><ele>604.0</ele><time>2026-04-19T09:28:09.366Z</time></trkpt><trkpt lat="40.8423301" lon="16.02445"><ele>603.3333333333333</ele><time>2026-04-19T09:28:10.366Z</time></trkpt><trkpt lat="40.8423273" lon="16.0245401"><ele>602.6666666666666</ele><time>2026-04-19T09:28:11.366Z</time></trkpt><trkpt lat="40.8423264" lon="16.0246343"><ele>602.0</ele><time>2026-04-19T09:28:12.366Z</time></trkpt><trkpt lat="40.8423242" lon="16.0247208"><ele>602.0</ele><time>2026-04-19T09:28:13.366Z</time></trkpt><trkpt lat="40.8423239" lon="16.0248662"><ele>602.0</ele><time>2026-04-19T09:28:15.366Z</time></trkpt><trkpt lat="40.84233" lon="16.0250188"><ele>602.0</ele><time>2026-04-19T09:28:17.366Z</time></trkpt><trkpt lat="40.8423399" lon="16.0251097"><ele>602.0</ele><time>2026-04-19T09:28:18.366Z</time></trkpt><trkpt lat="40.842349" lon="16.0252308"><ele>602.0</ele><time>2026-04-19T09:28:20.366Z</time></trkpt><trkpt lat="40.8423553" lon="16.025319"><ele>601.8333333333333</ele><time>2026-04-19T09:28:22.366Z</time></trkpt><trkpt lat="40.8423651" lon="16.0254058"><ele>601.6666666666666</ele><time>2026-04-19T09:28:27.366Z</time></trkpt><trkpt lat="40.8423881" lon="16.0255365"><ele>601.5</ele><time>2026-04-19T09:28:41.366Z</time></trkpt><trkpt lat="40.8424032" lon="16.025654"><ele>601.3333333333334</ele><time>2026-04-19T09:28:42.366Z</time></trkpt><trkpt lat="40.8424283" lon="16.0257511"><ele>601.1666666666667</ele><time>2026-04-19T09:28:43.366Z</time></trkpt><trkpt lat="40.8424845" lon="16.0258275"><ele>601.0</ele><time>2026-04-19T09:28:44.366Z</time></trkpt><trkpt lat="40.8425605" lon="16.0258672"><ele>601.1666666666667</ele><time>2026-04-19T09:28:45.366Z</time></trkpt><trkpt lat="40.8426315" lon="16.0259007"><ele>601.3333333333334</ele><time>2026-04-19T09:28:46.366Z</time></trkpt><trkpt lat="40.8427003" lon="16.0259231"><ele>601.5</ele><time>2026-04-19T09:28:47.366Z</time></trkpt><trkpt lat="40.8427861" lon="16.0259443"><ele>601.6666666666666</ele><time>2026-04-19T09:28:48.366Z</time></trkpt><trkpt lat="40.8428661" lon="16.025958"><ele>601.8333333333333</ele><time>2026-04-19T09:28:49.366Z</time></trkpt><trkpt lat="40.8429604" lon="16.0259691"><ele>602.0</ele><time>2026-04-19T09:28:50.366Z</time></trkpt><trkpt lat="40.84306" lon="16.0259755"><ele>602.0</ele><time>2026-04-19T09:28:51.366Z</time></trkpt><trkpt lat="40.8431543" lon="16.0259879"><ele>602.0</ele><time>2026-04-19T09:28:52.366Z</time></trkpt><trkpt lat="40.8432418" lon="16.0260082"><ele>602.0</ele><time>2026-04-19T09:28:53.366Z</time></trkpt><trkpt lat="40.8433351" lon="16.0260542"><ele>602.0</ele><time>2026-04-19T09:28:54.366Z</time></trkpt><trkpt lat="40.8434304" lon="16.0261171"><ele>602.0</ele><time>2026-04-19T09:28:55.366Z</time></trkpt><trkpt lat="40.843529" lon="16.026197"><ele>601.5</ele><time>2026-04-19T09:28:56.366Z</time></trkpt><trkpt lat="40.8436404" lon="16.0262736"><ele>601.0</ele><time>2026-04-19T09:28:57.366Z</time></trkpt><trkpt lat="40.8437525" lon="16.0263534"><ele>600.5</ele><time>2026-04-19T09:28:58.366Z</time></trkpt><trkpt lat="40.8438609" lon="16.0264087"><ele>600.0</ele><time>2026-04-19T09:28:59.366Z</time></trkpt><trkpt lat="40.8439631" lon="16.0264643"><ele>600.0</ele><time>2026-04-19T09:29:00.366Z</time></trkpt><trkpt lat="40.8440675" lon="16.0265285"><ele>600.0</ele><time>2026-04-19T09:29:01.366Z</time></trkpt><trkpt lat="40.8441758" lon="16.0266056"><ele>600.0</ele><time>2026-04-19T09:29:02.366Z</time></trkpt><trkpt lat="40.8442819" lon="16.0266805"><ele>600.0</ele><time>2026-04-19T09:29:03.366Z</time></trkpt><trkpt lat="40.8443809" lon="16.0267566"><ele>600.2</ele><time>2026-04-19T09:29:04.366Z</time></trkpt><trkpt lat="40.8444742" lon="16.026819"><ele>600.4</ele><time>2026-04-19T09:29:05.366Z</time></trkpt><trkpt lat="40.8445611" lon="16.0268929"><ele>600.6</ele><time>2026-04-19T09:29:06.366Z</time></trkpt><trkpt lat="40.8446484" lon="16.0269551"><ele>600.8</ele><time>2026-04-19T09:29:07.366Z</time></trkpt><trkpt lat="40.8447176" lon="16.027033"><ele>601.0</ele><time>2026-04-19T09:29:08.366Z</time></trkpt><trkpt lat="40.8447834" lon="16.0271175"><ele>601.0</ele><time>2026-04-19T09:29:09.366Z</time></trkpt><trkpt lat="40.8448356" lon="16.0272218"><ele>601.0</ele><time>2026-04-19T09:29:10.366Z</time></trkpt><trkpt lat="40.8448961" lon="16.0273215"><ele>601.0</ele><time>2026-04-19T09:29:11.366Z</time></trkpt><trkpt lat="40.8449512" lon="16.0274209"><ele>601.0</ele><time>2026-04-19T09:29:12.366Z</time></trkpt><trkpt lat="40.8450034" lon="16.0275173"><ele>601.0</ele><time>2026-04-19T09:29:13.366Z</time></trkpt><trkpt lat="40.8450563" lon="16.0276079"><ele>600.8333333333334</ele><time>2026-04-19T09:29:14.366Z</time></trkpt><trkpt lat="40.8451095" lon="16.0277001"><ele>600.6666666666667</ele><time>2026-04-19T09:29:15.366Z</time></trkpt><trkpt lat="40.8451563" lon="16.0277873"><ele>600.5</ele><time>2026-04-19T09:29:16.366Z</time></trkpt><trkpt lat="40.845204" lon="16.0278698"><ele>600.3333333333334</ele><time>2026-04-19T09:29:17.366Z</time></trkpt><trkpt lat="40.8452481" lon="16.0279518"><ele>600.1666666666666</ele><time>2026-04-19T09:29:18.366Z</time></trkpt><trkpt lat="40.8452892" lon="16.0280331"><ele>600.0</ele><time>2026-04-19T09:29:19.366Z</time></trkpt><trkpt lat="40.8453325" lon="16.0281162"><ele>600.0</ele><time>2026-04-19T09:29:20.366Z</time></trkpt><trkpt lat="40.8453733" lon="16.0281896"><ele>600.0</ele><time>2026-04-19T09:29:21.366Z</time></trkpt><trkpt lat="40.8454161" lon="16.0282629"><ele>600.0</ele><time>2026-04-19T09:29:22.366Z</time></trkpt><trkpt lat="40.8454884" lon="16.028388"><ele>600.0</ele><time>2026-04-19T09:29:24.366Z</time></trkpt><trkpt lat="40.8455549" lon="16.0284919"><ele>600.0</ele><time>2026-04-19T09:29:26.366Z</time></trkpt><trkpt lat="40.8456168" lon="16.0285894"><ele>599.8333333333334</ele><time>2026-04-19T09:29:28.366Z</time></trkpt><trkpt lat="40.8456563" lon="16.0286841"><ele>599.6666666666666</ele><time>2026-04-19T09:29:41.366Z</time></trkpt><trkpt lat="40.8457236" lon="16.0287848"><ele>599.5</ele><time>2026-04-19T09:29:43.366Z</time></trkpt><trkpt lat="40.8457583" lon="16.0288574"><ele>599.3333333333333</ele><time>2026-04-19T09:29:44.366Z</time></trkpt><trkpt lat="40.8457955" lon="16.0289347"><ele>599.1666666666666</ele><time>2026-04-19T09:29:45.366Z</time></trkpt><trkpt lat="40.845844" lon="16.0290058"><ele>599.0</ele><time>2026-04-19T09:29:46.366Z</time></trkpt><trkpt lat="40.8458861" lon="16.02908"><ele>599.0</ele><time>2026-04-19T09:29:47.366Z</time></trkpt><trkpt lat="40.8459333" lon="16.0291677"><ele>599.0</ele><time>2026-04-19T09:29:48.366Z</time></trkpt><trkpt lat="40.845984" lon="16.0292567"><ele>599.0</ele><time>2026-04-19T09:29:49.366Z</time></trkpt><trkpt lat="40.8460273" lon="16.0293589"><ele>599.0</ele><time>2026-04-19T09:29:50.366Z</time></trkpt><trkpt lat="40.8460787" lon="16.0294514"><ele>599.0</ele><time>2026-04-19T09:29:51.366Z</time></trkpt><trkpt lat="40.8461257" lon="16.029531"><ele>599.0</ele><time>2026-04-19T09:29:52.366Z</time></trkpt><trkpt lat="40.8461742" lon="16.0296111"><ele>598.4</ele><time>2026-04-19T09:29:53.366Z</time></trkpt><trkpt lat="40.8462144" lon="16.0296905"><ele>597.8</ele><time>2026-04-19T09:29:54.366Z</time></trkpt><trkpt lat="40.8462642" lon="16.0298168"><ele>597.2</ele><time>2026-04-19T09:29:56.366Z</time></trkpt><trkpt lat="40.8462633" lon="16.0299626"><ele>596.6</ele><time>2026-04-19T09:29:58.366Z</time></trkpt><trkpt lat="40.8462492" lon="16.0300611"><ele>596.0</ele><time>2026-04-19T09:29:59.366Z</time></trkpt><trkpt lat="40.8462378" lon="16.0302302"><ele>596.0</ele><time>2026-04-19T09:30:01.366Z</time></trkpt><trkpt lat="40.846216" lon="16.0303781"><ele>596.0</ele><time>2026-04-19T09:30:03.366Z</time></trkpt><trkpt lat="40.8461849" lon="16.0305756"><ele>596.0</ele><time>2026-04-19T09:30:06.366Z</time></trkpt><trkpt lat="40.8461841" lon="16.0306792"><ele>596.0</ele><time>2026-04-19T09:30:08.366Z</time></trkpt><trkpt lat="40.8461758" lon="16.0308146"><ele>596.0</ele><time>2026-04-19T09:30:10.366Z</time></trkpt><trkpt lat="40.8461625" lon="16.0309064"><ele>596.1666666666666</ele><time>2026-04-19T09:30:11.366Z</time></trkpt><trkpt lat="40.8461527" lon="16.031019"><ele>596.3333333333333</ele><time>2026-04-19T09:30:12.366Z</time></trkpt><trkpt lat="40.8461442" lon="16.0311155"><ele>596.5</ele><time>2026-04-19T09:30:13.366Z</time></trkpt><trkpt lat="40.8461444" lon="16.0312298"><ele>596.6666666666666</ele><time>2026-04-19T09:30:14.366Z</time></trkpt><trkpt lat="40.8461382" lon="16.0313446"><ele>596.8333333333334</ele><time>2026-04-19T09:30:15.366Z</time></trkpt><trkpt lat="40.846137" lon="16.0314498"><ele>597.0</ele><time>2026-04-19T09:30:16.366Z</time></trkpt><trkpt lat="40.8461266" lon="16.0315478"><ele>596.75</ele><time>2026-04-19T09:30:17.366Z</time></trkpt><trkpt lat="40.8461061" lon="16.0316711"><ele>596.5</ele><time>2026-04-19T09:30:19.366Z</time></trkpt><trkpt lat="40.8460441" lon="16.0317376"><ele>596.25</ele><time>2026-04-19T09:30:22.366Z</time></trkpt><trkpt lat="40.8458735" lon="16.0317262"><ele>596.0</ele><time>2026-04-19T09:30:24.366Z</time></trkpt><trkpt lat="40.8457389" lon="16.0317469"><ele>596.0</ele><time>2026-04-19T09:30:25.366Z</time></trkpt><trkpt lat="40.8455915" lon="16.0317489"><ele>596.0</ele><time>2026-04-19T09:30:26.366Z</time></trkpt><trkpt lat="40.8454529" lon="16.0317673"><ele>596.0</ele><time>2026-04-19T09:30:27.366Z</time></trkpt><trkpt lat="40.8453273" lon="16.0317759"><ele>596.0</ele><time>2026-04-19T09:30:28.366Z</time></trkpt><trkpt lat="40.8452092" lon="16.0318019"><ele>594.6</ele><time>2026-04-19T09:30:29.366Z</time></trkpt><trkpt lat="40.8450967" lon="16.0318173"><ele>593.2</ele><time>2026-04-19T09:30:30.366Z</time></trkpt><trkpt lat="40.8449876" lon="16.031842"><ele>591.8</ele><time>2026-04-19T09:30:31.366Z</time></trkpt><trkpt lat="40.844885" lon="16.0318962"><ele>590.4</ele><time>2026-04-19T09:30:32.366Z</time></trkpt><trkpt lat="40.844803" lon="16.0319584"><ele>589.0</ele><time>2026-04-19T09:30:33.366Z</time></trkpt><trkpt lat="40.8447387" lon="16.0320095"><ele>589.0</ele><time>2026-04-19T09:30:34.366Z</time></trkpt><trkpt lat="40.8446842" lon="16.0320613"><ele>589.0</ele><time>2026-04-19T09:30:35.366Z</time></trkpt><trkpt lat="40.844622" lon="16.0321181"><ele>589.0</ele><time>2026-04-19T09:30:36.366Z</time></trkpt><trkpt lat="40.8445554" lon="16.0321936"><ele>589.0</ele><time>2026-04-19T09:30:37.366Z</time></trkpt><trkpt lat="40.8444715" lon="16.0322862"><ele>589.0</ele><time>2026-04-19T09:30:38.366Z</time></trkpt><trkpt lat="40.8443732" lon="16.0323813"><ele>588.5</ele><time>2026-04-19T09:30:39.366Z</time></trkpt><trkpt lat="40.8442719" lon="16.0324745"><ele>588.0</ele><time>2026-04-19T09:30:40.366Z</time></trkpt><trkpt lat="40.8441608" lon="16.0325705"><ele>587.5</ele><time>2026-04-19T09:30:41.365Z</time></trkpt><trkpt lat="40.8440396" lon="16.0326699"><ele>587.0</ele><time>2026-04-19T09:30:42.365Z</time></trkpt><trkpt lat="40.8439152" lon="16.0327628"><ele>587.0</ele><time>2026-04-19T09:30:43.365Z</time></trkpt><trkpt lat="40.8438041" lon="16.0328234"><ele>587.0</ele><time>2026-04-19T09:30:44.365Z</time></trkpt><trkpt lat="40.8436829" lon="16.0328572"><ele>587.0</ele><time>2026-04-19T09:30:45.365Z</time></trkpt><trkpt lat="40.8435426" lon="16.0328507"><ele>587.0</ele><time>2026-04-19T09:30:46.365Z</time></trkpt><trkpt lat="40.8433877" lon="16.0328186"><ele>582.6666666666666</ele><time>2026-04-19T09:30:47.365Z</time></trkpt><trkpt lat="40.8432252" lon="16.032772"><ele>578.3333333333334</ele><time>2026-04-19T09:30:48.365Z</time></trkpt><trkpt lat="40.8430671" lon="16.0327341"><ele>574.0</ele><time>2026-04-19T09:30:49.365Z</time></trkpt><trkpt lat="40.8429117" lon="16.0327062"><ele>574.0</ele><time>2026-04-19T09:30:50.365Z</time></trkpt><trkpt lat="40.8427577" lon="16.0326799"><ele>574.0</ele><time>2026-04-19T09:30:51.365Z</time></trkpt><trkpt lat="40.8425969" lon="16.0326953"><ele>574.0</ele><time>2026-04-19T09:30:52.365Z</time></trkpt><trkpt lat="40.8424032" lon="16.0327474"><ele>571.6666666666667</ele><time>2026-04-19T09:30:53.365Z</time></trkpt><trkpt lat="40.8421913" lon="16.0328118"><ele>569.3333333333334</ele><time>2026-04-19T09:30:54.365Z</time></trkpt><trkpt lat="40.8419831" lon="16.0328737"><ele>567.0</ele><time>2026-04-19T09:30:55.365Z</time></trkpt><trkpt lat="40.8417969" lon="16.0329214"><ele>564.3333333333334</ele><time>2026-04-19T09:30:56.365Z</time></trkpt><trkpt lat="40.841624" lon="16.0329597"><ele>561.6666666666667</ele><time>2026-04-19T09:30:57.365Z</time></trkpt><trkpt lat="40.8414603" lon="16.0330302"><ele>559.0</ele><time>2026-04-19T09:30:58.365Z</time></trkpt><trkpt lat="40.8412881" lon="16.0331434"><ele>559.0</ele><time>2026-04-19T09:30:59.365Z</time></trkpt><trkpt lat="40.841105" lon="16.0332619"><ele>559.0</ele><time>2026-04-19T09:31:00.365Z</time></trkpt><trkpt lat="40.8409316" lon="16.0333733"><ele>559.0</ele><time>2026-04-19T09:31:01.365Z</time></trkpt><trkpt lat="40.8407646" lon="16.0334557"><ele>559.0</ele><time>2026-04-19T09:31:02.365Z</time></trkpt><trkpt lat="40.8406096" lon="16.0334799"><ele>559.0</ele><time>2026-04-19T09:31:03.365Z</time></trkpt><trkpt lat="40.8404518" lon="16.0335382"><ele>559.0</ele><time>2026-04-19T09:31:04.365Z</time></trkpt><trkpt lat="40.8402678" lon="16.033642"><ele>554.5</ele><time>2026-04-19T09:31:05.365Z</time></trkpt><trkpt lat="40.8400568" lon="16.0337821"><ele>550.0</ele><time>2026-04-19T09:31:06.365Z</time></trkpt><trkpt lat="40.8398411" lon="16.0339129"><ele>550.0</ele><time>2026-04-19T09:31:07.365Z</time></trkpt><trkpt lat="40.8396463" lon="16.0340291"><ele>550.0</ele><time>2026-04-19T09:31:08.365Z</time></trkpt><trkpt lat="40.8394577" lon="16.0341318"><ele>550.0</ele><time>2026-04-19T09:31:09.365Z</time></trkpt><trkpt lat="40.8392796" lon="16.0342462"><ele>549.0</ele><time>2026-04-19T09:31:10.365Z</time></trkpt><trkpt lat="40.8391011" lon="16.0343892"><ele>548.0</ele><time>2026-04-19T09:31:11.365Z</time></trkpt><trkpt lat="40.8389254" lon="16.0345538"><ele>547.0</ele><time>2026-04-19T09:31:12.365Z</time></trkpt><trkpt lat="40.8387655" lon="16.0346964"><ele>547.0</ele><time>2026-04-19T09:31:13.365Z</time></trkpt><trkpt lat="40.8385991" lon="16.0348132"><ele>547.0</ele><time>2026-04-19T09:31:14.365Z</time></trkpt><trkpt lat="40.838413" lon="16.0349274"><ele>547.0</ele><time>2026-04-19T09:31:15.365Z</time></trkpt><trkpt lat="40.8382176" lon="16.0350342"><ele>548.0</ele><time>2026-04-19T09:31:16.365Z</time></trkpt><trkpt lat="40.8380393" lon="16.0351244"><ele>549.0</ele><time>2026-04-19T09:31:17.365Z</time></trkpt><trkpt lat="40.8378664" lon="16.0352097"><ele>550.0</ele><time>2026-04-19T09:31:18.365Z</time></trkpt><trkpt lat="40.8377032" lon="16.0353207"><ele>541.5</ele><time>2026-04-19T09:31:19.365Z</time></trkpt><trkpt lat="40.8375372" lon="16.0354832"><ele>533.0</ele><time>2026-04-19T09:31:20.365Z</time></trkpt><trkpt lat="40.837342" lon="16.0357117"><ele>541.0</ele><time>2026-04-19T09:31:21.365Z</time></trkpt><trkpt lat="40.8371376" lon="16.035939"><ele>549.0</ele><time>2026-04-19T09:31:22.365Z</time></trkpt><trkpt lat="40.8369401" lon="16.0361519"><ele>541.0</ele><time>2026-04-19T09:31:23.365Z</time></trkpt><trkpt lat="40.8367708" lon="16.0363304"><ele>533.0</ele><time>2026-04-19T09:31:24.365Z</time></trkpt><trkpt lat="40.8366153" lon="16.0364752"><ele>525.0</ele><time>2026-04-19T09:31:25.365Z</time></trkpt><trkpt lat="40.8364763" lon="16.0365952"><ele>527.0</ele><time>2026-04-19T09:31:26.365Z</time></trkpt><trkpt lat="40.8363631" lon="16.0367031"><ele>529.0</ele><time>2026-04-19T09:31:27.365Z</time></trkpt><trkpt lat="40.8362952" lon="16.0368266"><ele>531.0</ele><time>2026-04-19T09:31:28.365Z</time></trkpt><trkpt lat="40.8362645" lon="16.0369764"><ele>533.0</ele><time>2026-04-19T09:31:29.365Z</time></trkpt><trkpt lat="40.8362487" lon="16.0371831"><ele>533.0</ele><time>2026-04-19T09:31:30.365Z</time></trkpt><trkpt lat="40.8362349" lon="16.037405"><ele>533.0</ele><time>2026-04-19T09:31:31.365Z</time></trkpt><trkpt lat="40.8362164" lon="16.0376185"><ele>533.0</ele><time>2026-04-19T09:31:32.365Z</time></trkpt><trkpt lat="40.8361836" lon="16.0378147"><ele>533.5</ele><time>2026-04-19T09:31:33.365Z</time></trkpt><trkpt lat="40.8361297" lon="16.0380095"><ele>534.0</ele><time>2026-04-19T09:31:34.365Z</time></trkpt><trkpt lat="40.8360604" lon="16.038179"><ele>534.5</ele><time>2026-04-19T09:31:35.365Z</time></trkpt><trkpt lat="40.8359898" lon="16.0383256"><ele>535.0</ele><time>2026-04-19T09:31:36.365Z</time></trkpt><trkpt lat="40.8359307" lon="16.0384649"><ele>530.25</ele><time>2026-04-19T09:31:37.365Z</time></trkpt><trkpt lat="40.8358775" lon="16.0385998"><ele>525.5</ele><time>2026-04-19T09:31:38.365Z</time></trkpt><trkpt lat="40.835823" lon="16.0387428"><ele>520.75</ele><time>2026-04-19T09:31:39.365Z</time></trkpt><trkpt lat="40.8357545" lon="16.0389039"><ele>516.0</ele><time>2026-04-19T09:31:40.365Z</time></trkpt><trkpt lat="40.8356587" lon="16.039115"><ele>516.6666666666666</ele><time>2026-04-19T09:31:41.365Z</time></trkpt><trkpt lat="40.8355645" lon="16.0393534"><ele>517.3333333333333</ele><time>2026-04-19T09:31:42.365Z</time></trkpt><trkpt lat="40.8354611" lon="16.0396105"><ele>518.0</ele><time>2026-04-19T09:31:43.365Z</time></trkpt><trkpt lat="40.8353469" lon="16.0398695"><ele>518.5</ele><time>2026-04-19T09:31:44.365Z</time></trkpt><trkpt lat="40.8352508" lon="16.0401433"><ele>519.0</ele><time>2026-04-19T09:31:45.365Z</time></trkpt><trkpt lat="40.8351666" lon="16.0404204"><ele>514.3333333333334</ele><time>2026-04-19T09:31:46.365Z</time></trkpt><trkpt lat="40.8350883" lon="16.0406897"><ele>509.6666666666667</ele><time>2026-04-19T09:31:47.365Z</time></trkpt><trkpt lat="40.8350226" lon="16.040942"><ele>505.0</ele><time>2026-04-19T09:31:48.365Z</time></trkpt><trkpt lat="40.8349547" lon="16.0411887"><ele>505.0</ele><time>2026-04-19T09:31:49.365Z</time></trkpt><trkpt lat="40.8348815" lon="16.0414632"><ele>505.0</ele><time>2026-04-19T09:31:50.365Z</time></trkpt><trkpt lat="40.8348142" lon="16.0417439"><ele>505.0</ele><time>2026-04-19T09:31:51.365Z</time></trkpt><trkpt lat="40.8347485" lon="16.0419967"><ele>505.0</ele><time>2026-04-19T09:31:52.365Z</time></trkpt><trkpt lat="40.8346852" lon="16.0422058"><ele>505.0</ele><time>2026-04-19T09:31:53.365Z</time></trkpt><trkpt lat="40.8346253" lon="16.0423589"><ele>505.0</ele><time>2026-04-19T09:31:54.365Z</time></trkpt><trkpt lat="40.8345499" lon="16.0424949"><ele>505.0</ele><time>2026-04-19T09:31:55.365Z</time></trkpt><trkpt lat="40.83445" lon="16.0425902"><ele>504.75</ele><time>2026-04-19T09:31:56.365Z</time></trkpt><trkpt lat="40.8343294" lon="16.0426647"><ele>504.5</ele><time>2026-04-19T09:31:57.365Z</time></trkpt><trkpt lat="40.8342163" lon="16.0427402"><ele>504.25</ele><time>2026-04-19T09:31:58.365Z</time></trkpt><trkpt lat="40.83414" lon="16.0428366"><ele>504.0</ele><time>2026-04-19T09:31:59.365Z</time></trkpt><trkpt lat="40.8340953" lon="16.0429649"><ele>501.25</ele><time>2026-04-19T09:32:00.365Z</time></trkpt><trkpt lat="40.834091" lon="16.04312"><ele>498.5</ele><time>2026-04-19T09:32:01.365Z</time></trkpt><trkpt lat="40.8341017" lon="16.0432802"><ele>495.75</ele><time>2026-04-19T09:32:02.365Z</time></trkpt><trkpt lat="40.8341351" lon="16.0434285"><ele>493.0</ele><time>2026-04-19T09:32:03.365Z</time></trkpt><trkpt lat="40.8341652" lon="16.0435466"><ele>493.00000000000006</ele><time>2026-04-19T09:32:04.365Z</time></trkpt><trkpt lat="40.8341875" lon="16.0436516"><ele>493.0</ele><time>2026-04-19T09:32:05.365Z</time></trkpt><trkpt lat="40.8341795" lon="16.0437634"><ele>493.0</ele><time>2026-04-19T09:32:06.365Z</time></trkpt><trkpt lat="40.8341489" lon="16.0438651"><ele>493.0</ele><time>2026-04-19T09:32:07.365Z</time></trkpt><trkpt lat="40.8340948" lon="16.0439599"><ele>493.00000000000006</ele><time>2026-04-19T09:32:08.365Z</time></trkpt><trkpt lat="40.834014" lon="16.0440506"><ele>493.0</ele><time>2026-04-19T09:32:09.365Z</time></trkpt><trkpt lat="40.8339114" lon="16.0441387"><ele>493.0</ele><time>2026-04-19T09:32:10.365Z</time></trkpt><trkpt lat="40.8338092" lon="16.0442124"><ele>492.99999999999994</ele><time>2026-04-19T09:32:11.365Z</time></trkpt><trkpt lat="40.8337171" lon="16.044285"><ele>492.99999999999994</ele><time>2026-04-19T09:32:12.365Z</time></trkpt><trkpt lat="40.833645" lon="16.0443491"><ele>493.0</ele><time>2026-04-19T09:32:13.365Z</time></trkpt><trkpt lat="40.8335719" lon="16.0444092"><ele>493.0</ele><time>2026-04-19T09:32:14.365Z</time></trkpt><trkpt lat="40.8335011" lon="16.0444711"><ele>491.1666666666667</ele><time>2026-04-19T09:32:15.365Z</time></trkpt><trkpt lat="40.8334398" lon="16.0445426"><ele>489.33333333333337</ele><time>2026-04-19T09:32:16.365Z</time></trkpt><trkpt lat="40.8333904" lon="16.0446213"><ele>487.5</ele><time>2026-04-19T09:32:17.365Z</time></trkpt><trkpt lat="40.8333532" lon="16.0447103"><ele>485.66666666666663</ele><time>2026-04-19T09:32:18.365Z</time></trkpt><trkpt lat="40.8333328" lon="16.0448082"><ele>483.8333333333333</ele><time>2026-04-19T09:32:19.365Z</time></trkpt><trkpt lat="40.8333193" lon="16.0449142"><ele>482.0</ele><time>2026-04-19T09:32:20.365Z</time></trkpt><trkpt lat="40.8333183" lon="16.0450121"><ele>481.99999999999994</ele><time>2026-04-19T09:32:21.365Z</time></trkpt><trkpt lat="40.8333174" lon="16.0450975"><ele>482.0</ele><time>2026-04-19T09:32:22.365Z</time></trkpt><trkpt lat="40.8332812" lon="16.0451801"><ele>482.0</ele><time>2026-04-19T09:32:23.365Z</time></trkpt><trkpt lat="40.8332204" lon="16.0452249"><ele>482.0</ele><time>2026-04-19T09:32:24.365Z</time></trkpt><trkpt lat="40.8331496" lon="16.0452214"><ele>481.99999999999994</ele><time>2026-04-19T09:32:25.365Z</time></trkpt><trkpt lat="40.833061" lon="16.0451845"><ele>482.0</ele><time>2026-04-19T09:32:26.365Z</time></trkpt><trkpt lat="40.8329631" lon="16.0451317"><ele>482.0</ele><time>2026-04-19T09:32:27.365Z</time></trkpt><trkpt lat="40.8328666" lon="16.0450678"><ele>482.00000000000006</ele><time>2026-04-19T09:32:28.365Z</time></trkpt><trkpt lat="40.8327816" lon="16.0449989"><ele>482.00000000000006</ele><time>2026-04-19T09:32:29.365Z</time></trkpt><trkpt lat="40.8327209" lon="16.0449243"><ele>482.0</ele><time>2026-04-19T09:32:30.365Z</time></trkpt><trkpt lat="40.8326801" lon="16.0448087"><ele>482.0</ele><time>2026-04-19T09:32:31.365Z</time></trkpt><trkpt lat="40.8326712" lon="16.044681"><ele>481.8</ele><time>2026-04-19T09:32:32.365Z</time></trkpt><trkpt lat="40.8326752" lon="16.0445441"><ele>481.6</ele><time>2026-04-19T09:32:33.365Z</time></trkpt><trkpt lat="40.8326787" lon="16.0443939"><ele>481.40000000000003</ele><time>2026-04-19T09:32:34.365Z</time></trkpt><trkpt lat="40.8326749" lon="16.0442658"><ele>481.20000000000005</ele><time>2026-04-19T09:32:35.365Z</time></trkpt><trkpt lat="40.8326648" lon="16.0441597"><ele>481.0</ele><time>2026-04-19T09:32:36.365Z</time></trkpt><trkpt lat="40.8326642" lon="16.0440298"><ele>480.4</ele><time>2026-04-19T09:32:38.365Z</time></trkpt><trkpt lat="40.8326535" lon="16.0439453"><ele>479.8</ele><time>2026-04-19T09:32:40.365Z</time></trkpt><trkpt lat="40.8326161" lon="16.0437827"><ele>479.19999999999993</ele><time>2026-04-19T09:33:05.365Z</time></trkpt><trkpt lat="40.8325932" lon="16.0436441"><ele>478.59999999999997</ele><time>2026-04-19T09:33:06.365Z</time></trkpt><trkpt lat="40.8325637" lon="16.0434844"><ele>478.0</ele><time>2026-04-19T09:33:07.365Z</time></trkpt><trkpt lat="40.8325516" lon="16.0433155"><ele>475.0</ele><time>2026-04-19T09:33:08.365Z</time></trkpt><trkpt lat="40.8325512" lon="16.0431212"><ele>472.0</ele><time>2026-04-19T09:33:09.365Z</time></trkpt><trkpt lat="40.8325651" lon="16.0429203"><ele>469.0</ele><time>2026-04-19T09:33:10.365Z</time></trkpt><trkpt lat="40.8325725" lon="16.0427462"><ele>466.0</ele><time>2026-04-19T09:33:11.365Z</time></trkpt><trkpt lat="40.8325564" lon="16.0425997"><ele>467.33333333333337</ele><time>2026-04-19T09:33:12.365Z</time></trkpt><trkpt lat="40.8325052" lon="16.0424639"><ele>468.66666666666663</ele><time>2026-04-19T09:33:13.365Z</time></trkpt><trkpt lat="40.8324162" lon="16.0423153"><ele>470.0</ele><time>2026-04-19T09:33:14.365Z</time></trkpt><trkpt lat="40.832266" lon="16.0421478"><ele>470.0</ele><time>2026-04-19T09:33:15.365Z</time></trkpt><trkpt lat="40.8321214" lon="16.0419889"><ele>470.0</ele><time>2026-04-19T09:33:16.365Z</time></trkpt><trkpt lat="40.8319943" lon="16.0418241"><ele>470.0</ele><time>2026-04-19T09:33:17.365Z</time></trkpt><trkpt lat="40.8318854" lon="16.0416827"><ele>469.25</ele><time>2026-04-19T09:33:18.365Z</time></trkpt><trkpt lat="40.8317838" lon="16.0415907"><ele>468.5</ele><time>2026-04-19T09:33:19.365Z</time></trkpt><trkpt lat="40.8316683" lon="16.0415401"><ele>467.75</ele><time>2026-04-19T09:33:20.365Z</time></trkpt><trkpt lat="40.8315159" lon="16.0415289"><ele>467.0</ele><time>2026-04-19T09:33:21.365Z</time></trkpt><trkpt lat="40.8313205" lon="16.0415442"><ele>467.0</ele><time>2026-04-19T09:33:22.365Z</time></trkpt><trkpt lat="40.8311157" lon="16.0415809"><ele>467.0</ele><time>2026-04-19T09:33:23.365Z</time></trkpt><trkpt lat="40.8309176" lon="16.0416441"><ele>467.0</ele><time>2026-04-19T09:33:24.365Z</time></trkpt><trkpt lat="40.8307023" lon="16.041743"><ele>464.3333333333333</ele><time>2026-04-19T09:33:25.365Z</time></trkpt><trkpt lat="40.8304954" lon="16.0418522"><ele>461.66666666666663</ele><time>2026-04-19T09:33:26.365Z</time></trkpt><trkpt lat="40.8303058" lon="16.0419515"><ele>459.0</ele><time>2026-04-19T09:33:27.365Z</time></trkpt><trkpt lat="40.8301429" lon="16.0420247"><ele>458.33333333333337</ele><time>2026-04-19T09:33:28.365Z</time></trkpt><trkpt lat="40.82998" lon="16.0420597"><ele>457.6666666666667</ele><time>2026-04-19T09:33:29.365Z</time></trkpt><trkpt lat="40.8297856" lon="16.0420564"><ele>457.0</ele><time>2026-04-19T09:33:30.365Z</time></trkpt><trkpt lat="40.8295694" lon="16.0420195"><ele>457.0</ele><time>2026-04-19T09:33:31.365Z</time></trkpt><trkpt lat="40.8293174" lon="16.0419608"><ele>457.0</ele><time>2026-04-19T09:33:32.365Z</time></trkpt><trkpt lat="40.8290675" lon="16.0419039"><ele>456.5</ele><time>2026-04-19T09:33:33.365Z</time></trkpt><trkpt lat="40.8288261" lon="16.0418643"><ele>456.0</ele><time>2026-04-19T09:33:34.365Z</time></trkpt><trkpt lat="40.82861" lon="16.0418257"><ele>455.25</ele><time>2026-04-19T09:33:35.365Z</time></trkpt><trkpt lat="40.8284448" lon="16.0417904"><ele>454.5</ele><time>2026-04-19T09:33:36.365Z</time></trkpt><trkpt lat="40.828315" lon="16.0417514"><ele>453.75</ele><time>2026-04-19T09:33:37.365Z</time></trkpt><trkpt lat="40.8282032" lon="16.0417189"><ele>453.0</ele><time>2026-04-19T09:33:38.365Z</time></trkpt><trkpt lat="40.8280676" lon="16.0416606"><ele>454.66666666666663</ele><time>2026-04-19T09:33:39.365Z</time></trkpt><trkpt lat="40.827945" lon="16.0415501"><ele>456.3333333333333</ele><time>2026-04-19T09:33:40.365Z</time></trkpt><trkpt lat="40.8278135" lon="16.0414187"><ele>458.0</ele><time>2026-04-19T09:33:41.365Z</time></trkpt><trkpt lat="40.8277121" lon="16.0412603"><ele>455.75</ele><time>2026-04-19T09:33:42.365Z</time></trkpt><trkpt lat="40.8276303" lon="16.0411094"><ele>453.5</ele><time>2026-04-19T09:33:43.365Z</time></trkpt><trkpt lat="40.8275655" lon="16.040993"><ele>451.25</ele><time>2026-04-19T09:33:44.365Z</time></trkpt><trkpt lat="40.8275042" lon="16.0409008"><ele>449.0</ele><time>2026-04-19T09:33:45.365Z</time></trkpt><trkpt lat="40.8274251" lon="16.0407999"><ele>449.0</ele><time>2026-04-19T09:33:47.365Z</time></trkpt><trkpt lat="40.8273073" lon="16.0407942"><ele>449.0</ele><time>2026-04-19T09:33:49.365Z</time></trkpt><trkpt lat="40.8272384" lon="16.040828"><ele>449.0</ele><time>2026-04-19T09:33:50.365Z</time></trkpt><trkpt lat="40.8271389" lon="16.0409509"><ele>449.0</ele><time>2026-04-19T09:33:51.365Z</time></trkpt><trkpt lat="40.827025" lon="16.0411031"><ele>449.0</ele><time>2026-04-19T09:33:52.365Z</time></trkpt><trkpt lat="40.826903" lon="16.0412855"><ele>449.0</ele><time>2026-04-19T09:33:53.365Z</time></trkpt><trkpt lat="40.8267564" lon="16.0414956"><ele>449.0</ele><time>2026-04-19T09:33:54.365Z</time></trkpt><trkpt lat="40.826596" lon="16.0417388"><ele>443.5</ele><time>2026-04-19T09:33:55.365Z</time></trkpt><trkpt lat="40.8264281" lon="16.0419925"><ele>438.0</ele><time>2026-04-19T09:33:56.365Z</time></trkpt><trkpt lat="40.8262508" lon="16.0422411"><ele>438.0</ele><time>2026-04-19T09:33:57.365Z</time></trkpt><trkpt lat="40.8260757" lon="16.0424946"><ele>438.0</ele><time>2026-04-19T09:33:58.365Z</time></trkpt><trkpt lat="40.825908" lon="16.0427359"><ele>432.0</ele><time>2026-04-19T09:33:59.365Z</time></trkpt><trkpt lat="40.8257455" lon="16.0429778"><ele>426.0</ele><time>2026-04-19T09:34:00.365Z</time></trkpt><trkpt lat="40.8255641" lon="16.0432323"><ele>425.0</ele><time>2026-04-19T09:34:01.364Z</time></trkpt><trkpt lat="40.8253891" lon="16.0434749"><ele>424.0</ele><time>2026-04-19T09:34:02.365Z</time></trkpt><trkpt lat="40.8252132" lon="16.0436998"><ele>418.0</ele><time>2026-04-19T09:34:03.365Z</time></trkpt><trkpt lat="40.8250231" lon="16.0439078"><ele>412.0</ele><time>2026-04-19T09:34:04.365Z</time></trkpt><trkpt lat="40.8248295" lon="16.0440868"><ele>410.5</ele><time>2026-04-19T09:34:05.365Z</time></trkpt><trkpt lat="40.8246421" lon="16.0442412"><ele>409.0</ele><time>2026-04-19T09:34:06.365Z</time></trkpt><trkpt lat="40.8244335" lon="16.0443816"><ele>405.0</ele><time>2026-04-19T09:34:07.365Z</time></trkpt><trkpt lat="40.8241911" lon="16.0445494"><ele>401.0</ele><time>2026-04-19T09:34:08.365Z</time></trkpt><trkpt lat="40.8239365" lon="16.044733"><ele>401.0</ele><time>2026-04-19T09:34:09.364Z</time></trkpt><trkpt lat="40.8236785" lon="16.0449042"><ele>401.0</ele><time>2026-04-19T09:34:10.364Z</time></trkpt><trkpt lat="40.8234098" lon="16.0450949"><ele>396.0</ele><time>2026-04-19T09:34:11.364Z</time></trkpt><trkpt lat="40.8231402" lon="16.0452857"><ele>391.0</ele><time>2026-04-19T09:34:12.364Z</time></trkpt><trkpt lat="40.8228605" lon="16.0454722"><ele>390.0</ele><time>2026-04-19T09:34:13.364Z</time></trkpt><trkpt lat="40.8225614" lon="16.0456561"><ele>389.0</ele><time>2026-04-19T09:34:14.364Z</time></trkpt><trkpt lat="40.8222547" lon="16.0458467"><ele>387.0</ele><time>2026-04-19T09:34:15.364Z</time></trkpt><trkpt lat="40.8219494" lon="16.0460354"><ele>385.0</ele><time>2026-04-19T09:34:16.364Z</time></trkpt><trkpt lat="40.8216458" lon="16.0462159"><ele>384.0</ele><time>2026-04-19T09:34:17.364Z</time></trkpt><trkpt lat="40.8213538" lon="16.0463694"><ele>383.0</ele><time>2026-04-19T09:34:18.364Z</time></trkpt><trkpt lat="40.8210602" lon="16.0464982"><ele>381.5</ele><time>2026-04-19T09:34:19.364Z</time></trkpt><trkpt lat="40.8207772" lon="16.0466424"><ele>380.0</ele><time>2026-04-19T09:34:20.364Z</time></trkpt><trkpt lat="40.8204888" lon="16.0468301"><ele>380.0</ele><time>2026-04-19T09:34:21.364Z</time></trkpt><trkpt lat="40.8201827" lon="16.0470444"><ele>380.0</ele><time>2026-04-19T09:34:22.364Z</time></trkpt><trkpt lat="40.8198668" lon="16.0472806"><ele>378.5</ele><time>2026-04-19T09:34:23.364Z</time></trkpt><trkpt lat="40.8195527" lon="16.0475098"><ele>377.0</ele><time>2026-04-19T09:34:24.364Z</time></trkpt><trkpt lat="40.8192487" lon="16.0477078"><ele>374.0</ele><time>2026-04-19T09:34:25.364Z</time></trkpt><trkpt lat="40.8189353" lon="16.0478965"><ele>371.0</ele><time>2026-04-19T09:34:26.364Z</time></trkpt><trkpt lat="40.8186195" lon="16.0480904"><ele>370.0</ele><time>2026-04-19T09:34:27.364Z</time></trkpt><trkpt lat="40.8183237" lon="16.048278"><ele>369.0</ele><time>2026-04-19T09:34:28.364Z</time></trkpt><trkpt lat="40.8180407" lon="16.0484644"><ele>369.0</ele><time>2026-04-19T09:34:29.364Z</time></trkpt><trkpt lat="40.8177657" lon="16.0486497"><ele>369.0</ele><time>2026-04-19T09:34:30.364Z</time></trkpt><trkpt lat="40.8175152" lon="16.0488203"><ele>368.5</ele><time>2026-04-19T09:34:31.364Z</time></trkpt><trkpt lat="40.8172915" lon="16.0489849"><ele>368.0</ele><time>2026-04-19T09:34:32.364Z</time></trkpt><trkpt lat="40.8170823" lon="16.0491662"><ele>368.0</ele><time>2026-04-19T09:34:33.364Z</time></trkpt><trkpt lat="40.8168663" lon="16.0494017"><ele>368.0</ele><time>2026-04-19T09:34:34.364Z</time></trkpt><trkpt lat="40.8166452" lon="16.0496741"><ele>366.5</ele><time>2026-04-19T09:34:35.364Z</time></trkpt><trkpt lat="40.8164409" lon="16.0499419"><ele>365.0</ele><time>2026-04-19T09:34:36.364Z</time></trkpt><trkpt lat="40.8162614" lon="16.0501765"><ele>365.0</ele><time>2026-04-19T09:34:37.364Z</time></trkpt><trkpt lat="40.816109" lon="16.0503539"><ele>365.0</ele><time>2026-04-19T09:34:38.364Z</time></trkpt><trkpt lat="40.8159534" lon="16.0504842"><ele>365.0</ele><time>2026-04-19T09:34:39.364Z</time></trkpt><trkpt lat="40.8157739" lon="16.0505981"><ele>363.6666666666667</ele><time>2026-04-19T09:34:40.364Z</time></trkpt><trkpt lat="40.815567" lon="16.0506867"><ele>362.3333333333333</ele><time>2026-04-19T09:34:41.364Z</time></trkpt><trkpt lat="40.8153588" lon="16.0507328"><ele>361.0</ele><time>2026-04-19T09:34:42.364Z</time></trkpt><trkpt lat="40.8151202" lon="16.0507434"><ele>361.0</ele><time>2026-04-19T09:34:43.364Z</time></trkpt><trkpt lat="40.8148587" lon="16.0507467"><ele>361.0</ele><time>2026-04-19T09:34:44.364Z</time></trkpt><trkpt lat="40.8145823" lon="16.0507439"><ele>361.0</ele><time>2026-04-19T09:34:45.364Z</time></trkpt><trkpt lat="40.8143294" lon="16.0507421"><ele>361.0</ele><time>2026-04-19T09:34:46.364Z</time></trkpt><trkpt lat="40.8140673" lon="16.0507309"><ele>361.5</ele><time>2026-04-19T09:34:47.364Z</time></trkpt><trkpt lat="40.8137964" lon="16.0507276"><ele>362.0</ele><time>2026-04-19T09:34:48.364Z</time></trkpt><trkpt lat="40.8134875" lon="16.0507487"><ele>361.5</ele><time>2026-04-19T09:34:49.364Z</time></trkpt><trkpt lat="40.8131665" lon="16.050797"><ele>361.0</ele><time>2026-04-19T09:34:50.364Z</time></trkpt><trkpt lat="40.8128714" lon="16.0508508"><ele>360.5</ele><time>2026-04-19T09:34:51.364Z</time></trkpt><trkpt lat="40.8125955" lon="16.0509074"><ele>360.0</ele><time>2026-04-19T09:34:52.364Z</time></trkpt><trkpt lat="40.8122889" lon="16.0509612"><ele>360.0</ele><time>2026-04-19T09:34:53.364Z</time></trkpt><trkpt lat="40.8119593" lon="16.0509972"><ele>360.0</ele><time>2026-04-19T09:34:54.364Z</time></trkpt><trkpt lat="40.8116327" lon="16.051012"><ele>357.0</ele><time>2026-04-19T09:34:55.364Z</time></trkpt><trkpt lat="40.8113331" lon="16.0510203"><ele>354.0</ele><time>2026-04-19T09:34:56.364Z</time></trkpt><trkpt lat="40.8110466" lon="16.0510409"><ele>351.0</ele><time>2026-04-19T09:34:57.364Z</time></trkpt><trkpt lat="40.8107545" lon="16.0510834"><ele>348.0</ele><time>2026-04-19T09:34:58.364Z</time></trkpt><trkpt lat="40.8104468" lon="16.0511538"><ele>344.5</ele><time>2026-04-19T09:34:59.364Z</time></trkpt><trkpt lat="40.8101139" lon="16.051255"><ele>341.0</ele><time>2026-04-19T09:35:00.364Z</time></trkpt><trkpt lat="40.8097716" lon="16.0513693"><ele>341.0</ele><time>2026-04-19T09:35:01.364Z</time></trkpt><trkpt lat="40.809438" lon="16.0514767"><ele>341.0</ele><time>2026-04-19T09:35:02.364Z</time></trkpt><trkpt lat="40.809081" lon="16.0515913"><ele>342.0</ele><time>2026-04-19T09:35:03.364Z</time></trkpt><trkpt lat="40.80872" lon="16.0517111"><ele>343.0</ele><time>2026-04-19T09:35:04.364Z</time></trkpt><trkpt lat="40.8083814" lon="16.0518209"><ele>343.0</ele><time>2026-04-19T09:35:05.364Z</time></trkpt><trkpt lat="40.8080532" lon="16.05192"><ele>343.0</ele><time>2026-04-19T09:35:06.364Z</time></trkpt><trkpt lat="40.8077459" lon="16.0520159"><ele>340.5</ele><time>2026-04-19T09:35:07.364Z</time></trkpt><trkpt lat="40.8074575" lon="16.0520965"><ele>338.0</ele><time>2026-04-19T09:35:08.364Z</time></trkpt><trkpt lat="40.8071801" lon="16.0521826"><ele>338.0</ele><time>2026-04-19T09:35:09.364Z</time></trkpt><trkpt lat="40.8068925" lon="16.0523017"><ele>338.0</ele><time>2026-04-19T09:35:10.364Z</time></trkpt><trkpt lat="40.8065795" lon="16.0524662"><ele>338.0</ele><time>2026-04-19T09:35:11.364Z</time></trkpt><trkpt lat="40.8062514" lon="16.0526371"><ele>338.0</ele><time>2026-04-19T09:35:12.364Z</time></trkpt><trkpt lat="40.8059319" lon="16.0528146"><ele>333.5</ele><time>2026-04-19T09:35:13.364Z</time></trkpt><trkpt lat="40.8056195" lon="16.0529875"><ele>329.0</ele><time>2026-04-19T09:35:14.364Z</time></trkpt><trkpt lat="40.8053141" lon="16.053156"><ele>329.0</ele><time>2026-04-19T09:35:15.364Z</time></trkpt><trkpt lat="40.8050202" lon="16.0533213"><ele>329.0</ele><time>2026-04-19T09:35:16.364Z</time></trkpt><trkpt lat="40.8047404" lon="16.0534809"><ele>329.0</ele><time>2026-04-19T09:35:17.364Z</time></trkpt><trkpt lat="40.804481" lon="16.0536198"><ele>329.0</ele><time>2026-04-19T09:35:18.364Z</time></trkpt><trkpt lat="40.8042307" lon="16.0537479"><ele>325.5</ele><time>2026-04-19T09:35:19.364Z</time></trkpt><trkpt lat="40.8039847" lon="16.0538572"><ele>322.0</ele><time>2026-04-19T09:35:20.364Z</time></trkpt><trkpt lat="40.8037276" lon="16.0539445"><ele>320.5</ele><time>2026-04-19T09:35:21.364Z</time></trkpt><trkpt lat="40.8034392" lon="16.0540193"><ele>319.0</ele><time>2026-04-19T09:35:22.364Z</time></trkpt><trkpt lat="40.803124" lon="16.0540645"><ele>319.0</ele><time>2026-04-19T09:35:23.364Z</time></trkpt><trkpt lat="40.8027772" lon="16.0541011"><ele>319.0</ele><time>2026-04-19T09:35:24.364Z</time></trkpt><trkpt lat="40.802425" lon="16.0541346"><ele>319.5</ele><time>2026-04-19T09:35:25.364Z</time></trkpt><trkpt lat="40.8020717" lon="16.0541662"><ele>320.0</ele><time>2026-04-19T09:35:26.364Z</time></trkpt><trkpt lat="40.8016908" lon="16.0542076"><ele>320.0</ele><time>2026-04-19T09:35:27.364Z</time></trkpt><trkpt lat="40.8013109" lon="16.0542585"><ele>320.0</ele><time>2026-04-19T09:35:28.364Z</time></trkpt><trkpt lat="40.8009626" lon="16.0543082"><ele>318.0</ele><time>2026-04-19T09:35:29.364Z</time></trkpt><trkpt lat="40.8006388" lon="16.054343"><ele>316.0</ele><time>2026-04-19T09:35:30.364Z</time></trkpt><trkpt lat="40.8003276" lon="16.0543619"><ele>316.0</ele><time>2026-04-19T09:35:31.364Z</time></trkpt><trkpt lat="40.8000445" lon="16.0543668"><ele>316.0</ele><time>2026-04-19T09:35:32.364Z</time></trkpt><trkpt lat="40.7997951" lon="16.0543678"><ele>316.0</ele><time>2026-04-19T09:35:33.364Z</time></trkpt><trkpt lat="40.7995451" lon="16.0543624"><ele>316.0</ele><time>2026-04-19T09:35:34.364Z</time></trkpt><trkpt lat="40.799243" lon="16.0543692"><ele>315.0</ele><time>2026-04-19T09:35:35.364Z</time></trkpt><trkpt lat="40.79891" lon="16.0543809"><ele>314.0</ele><time>2026-04-19T09:35:36.364Z</time></trkpt><trkpt lat="40.7985718" lon="16.0543922"><ele>312.5</ele><time>2026-04-19T09:35:37.364Z</time></trkpt><trkpt lat="40.7982338" lon="16.054412"><ele>311.0</ele><time>2026-04-19T09:35:38.364Z</time></trkpt><trkpt lat="40.7978818" lon="16.0544314"><ele>309.5</ele><time>2026-04-19T09:35:39.364Z</time></trkpt><trkpt lat="40.7975288" lon="16.0544564"><ele>308.0</ele><time>2026-04-19T09:35:40.364Z</time></trkpt><trkpt lat="40.7971789" lon="16.0544846"><ele>306.0</ele><time>2026-04-19T09:35:41.364Z</time></trkpt><trkpt lat="40.7968238" lon="16.0545116"><ele>304.0</ele><time>2026-04-19T09:35:42.364Z</time></trkpt><trkpt lat="40.7964814" lon="16.0545422"><ele>304.0</ele><time>2026-04-19T09:35:43.364Z</time></trkpt><trkpt lat="40.7961547" lon="16.0545575"><ele>304.0</ele><time>2026-04-19T09:35:44.364Z</time></trkpt><trkpt lat="40.7958468" lon="16.054572"><ele>302.5</ele><time>2026-04-19T09:35:45.364Z</time></trkpt><trkpt lat="40.7955668" lon="16.0545927"><ele>301.0</ele><time>2026-04-19T09:35:46.363Z</time></trkpt><trkpt lat="40.7952908" lon="16.0546153"><ele>302.0</ele><time>2026-04-19T09:35:47.364Z</time></trkpt><trkpt lat="40.7949895" lon="16.0546459"><ele>303.0</ele><time>2026-04-19T09:35:48.364Z</time></trkpt><trkpt lat="40.794658" lon="16.05469"><ele>301.5</ele><time>2026-04-19T09:35:49.364Z</time></trkpt><trkpt lat="40.7943223" lon="16.0547515"><ele>300.0</ele><time>2026-04-19T09:35:50.364Z</time></trkpt><trkpt lat="40.7939937" lon="16.0548424"><ele>300.0</ele><time>2026-04-19T09:35:51.364Z</time></trkpt><trkpt lat="40.7936643" lon="16.0549451"><ele>300.0</ele><time>2026-04-19T09:35:52.364Z</time></trkpt><trkpt lat="40.7933464" lon="16.0550435"><ele>298.0</ele><time>2026-04-19T09:35:53.364Z</time></trkpt><trkpt lat="40.7930705" lon="16.0551247"><ele>296.0</ele><time>2026-04-19T09:35:54.364Z</time></trkpt><trkpt lat="40.7928268" lon="16.0551856"><ele>292.6666666666667</ele><time>2026-04-19T09:35:55.364Z</time></trkpt><trkpt lat="40.7926094" lon="16.055236"><ele>289.3333333333333</ele><time>2026-04-19T09:35:56.364Z</time></trkpt><trkpt lat="40.7923862" lon="16.0552601"><ele>286.0</ele><time>2026-04-19T09:35:57.364Z</time></trkpt><trkpt lat="40.792124" lon="16.0552387"><ele>282.0</ele><time>2026-04-19T09:35:58.364Z</time></trkpt><trkpt lat="40.7918316" lon="16.0552175"><ele>278.0</ele><time>2026-04-19T09:35:59.364Z</time></trkpt><trkpt lat="40.7915289" lon="16.0551783"><ele>278.0</ele><time>2026-04-19T09:36:00.364Z</time></trkpt><trkpt lat="40.7912241" lon="16.0551514"><ele>278.0</ele><time>2026-04-19T09:36:01.364Z</time></trkpt><trkpt lat="40.7909378" lon="16.0551209"><ele>276.5</ele><time>2026-04-19T09:36:02.364Z</time></trkpt><trkpt lat="40.7906474" lon="16.0551256"><ele>275.0</ele><time>2026-04-19T09:36:03.364Z</time></trkpt><trkpt lat="40.7903245" lon="16.0551472"><ele>273.0</ele><time>2026-04-19T09:36:04.364Z</time></trkpt><trkpt lat="40.7899701" lon="16.055195"><ele>271.0</ele><time>2026-04-19T09:36:05.364Z</time></trkpt><trkpt lat="40.7895951" lon="16.055251"><ele>270.5</ele><time>2026-04-19T09:36:06.364Z</time></trkpt><trkpt lat="40.7892182" lon="16.0552989"><ele>270.0</ele><time>2026-04-19T09:36:07.364Z</time></trkpt><trkpt lat="40.788835" lon="16.0553447"><ele>270.0</ele><time>2026-04-19T09:36:08.364Z</time></trkpt><trkpt lat="40.7884432" lon="16.0553913"><ele>270.0</ele><time>2026-04-19T09:36:09.364Z</time></trkpt><trkpt lat="40.7880545" lon="16.0554447"><ele>270.0</ele><time>2026-04-19T09:36:10.364Z</time></trkpt><trkpt lat="40.7876793" lon="16.0554932"><ele>270.0</ele><time>2026-04-19T09:36:11.364Z</time></trkpt><trkpt lat="40.7873185" lon="16.0555352"><ele>270.0</ele><time>2026-04-19T09:36:12.364Z</time></trkpt><trkpt lat="40.7869685" lon="16.0555851"><ele>270.0</ele><time>2026-04-19T09:36:13.364Z</time></trkpt><trkpt lat="40.7866215" lon="16.0556282"><ele>272.5</ele><time>2026-04-19T09:36:14.364Z</time></trkpt><trkpt lat="40.7862921" lon="16.0556683"><ele>275.0</ele><time>2026-04-19T09:36:15.364Z</time></trkpt><trkpt lat="40.7859972" lon="16.0557091"><ele>282.0</ele><time>2026-04-19T09:36:16.364Z</time></trkpt><trkpt lat="40.7856908" lon="16.05574"><ele>289.0</ele><time>2026-04-19T09:36:17.364Z</time></trkpt><trkpt lat="40.785367" lon="16.0557579"><ele>291.0</ele><time>2026-04-19T09:36:18.364Z</time></trkpt><trkpt lat="40.7850322" lon="16.0557788"><ele>293.0</ele><time>2026-04-19T09:36:19.364Z</time></trkpt><trkpt lat="40.7847067" lon="16.0558032"><ele>293.0</ele><time>2026-04-19T09:36:20.364Z</time></trkpt><trkpt lat="40.7844057" lon="16.0558268"><ele>293.0</ele><time>2026-04-19T09:36:21.364Z</time></trkpt><trkpt lat="40.784135" lon="16.0558392"><ele>292.5</ele><time>2026-04-19T09:36:22.364Z</time></trkpt><trkpt lat="40.7838732" lon="16.0558519"><ele>292.0</ele><time>2026-04-19T09:36:23.364Z</time></trkpt><trkpt lat="40.7835874" lon="16.0558639"><ele>294.0</ele><time>2026-04-19T09:36:24.364Z</time></trkpt><trkpt lat="40.7832879" lon="16.0558795"><ele>296.0</ele><time>2026-04-19T09:36:25.364Z</time></trkpt><trkpt lat="40.7830259" lon="16.055892"><ele>296.0</ele><time>2026-04-19T09:36:26.364Z</time></trkpt><trkpt lat="40.7827841" lon="16.0558811"><ele>296.0</ele><time>2026-04-19T09:36:27.364Z</time></trkpt><trkpt lat="40.7825486" lon="16.0558357"><ele>297.0</ele><time>2026-04-19T09:36:28.364Z</time></trkpt><trkpt lat="40.78231" lon="16.0557845"><ele>298.0</ele><time>2026-04-19T09:36:29.364Z</time></trkpt><trkpt lat="40.7820397" lon="16.0557158"><ele>297.0</ele><time>2026-04-19T09:36:30.364Z</time></trkpt><trkpt lat="40.7817512" lon="16.0556173"><ele>296.0</ele><time>2026-04-19T09:36:31.364Z</time></trkpt><trkpt lat="40.7814523" lon="16.0555042"><ele>296.0</ele><time>2026-04-19T09:36:32.364Z</time></trkpt><trkpt lat="40.7811536" lon="16.0553896"><ele>296.0</ele><time>2026-04-19T09:36:33.364Z</time></trkpt><trkpt lat="40.7808381" lon="16.0552523"><ele>296.5</ele><time>2026-04-19T09:36:34.364Z</time></trkpt><trkpt lat="40.7805065" lon="16.0551196"><ele>297.0</ele><time>2026-04-19T09:36:35.364Z</time></trkpt><trkpt lat="40.7801892" lon="16.0549842"><ele>300.0</ele><time>2026-04-19T09:36:36.364Z</time></trkpt><trkpt lat="40.7798732" lon="16.054847"><ele>303.0</ele><time>2026-04-19T09:36:37.364Z</time></trkpt><trkpt lat="40.7795616" lon="16.0546929"><ele>305.0</ele><time>2026-04-19T09:36:38.364Z</time></trkpt><trkpt lat="40.7792514" lon="16.0545367"><ele>307.0</ele><time>2026-04-19T09:36:39.364Z</time></trkpt><trkpt lat="40.7789537" lon="16.0543862"><ele>307.0</ele><time>2026-04-19T09:36:40.364Z</time></trkpt><trkpt lat="40.7786586" lon="16.0542392"><ele>307.0</ele><time>2026-04-19T09:36:41.364Z</time></trkpt><trkpt lat="40.7783957" lon="16.0541104"><ele>309.5</ele><time>2026-04-19T09:36:42.364Z</time></trkpt><trkpt lat="40.7781622" lon="16.0539917"><ele>312.0</ele><time>2026-04-19T09:36:43.364Z</time></trkpt><trkpt lat="40.7779225" lon="16.0538948"><ele>312.5</ele><time>2026-04-19T09:36:44.364Z</time></trkpt><trkpt lat="40.7776592" lon="16.0538265"><ele>313.0</ele><time>2026-04-19T09:36:45.364Z</time></trkpt><trkpt lat="40.7773932" lon="16.0537816"><ele>313.0</ele><time>2026-04-19T09:36:46.364Z</time></trkpt><trkpt lat="40.7771284" lon="16.0537736"><ele>313.0</ele><time>2026-04-19T09:36:47.364Z</time></trkpt><trkpt lat="40.7768373" lon="16.0537931"><ele>313.0</ele><time>2026-04-19T09:36:48.364Z</time></trkpt><trkpt lat="40.7765325" lon="16.0538177"><ele>313.0</ele><time>2026-04-19T09:36:49.364Z</time></trkpt><trkpt lat="40.7762208" lon="16.0538403"><ele>313.5</ele><time>2026-04-19T09:36:50.364Z</time></trkpt><trkpt lat="40.7759135" lon="16.0538636"><ele>314.0</ele><time>2026-04-19T09:36:51.364Z</time></trkpt><trkpt lat="40.7755938" lon="16.0538669"><ele>314.0</ele><time>2026-04-19T09:36:52.364Z</time></trkpt><trkpt lat="40.7752476" lon="16.0538353"><ele>314.0</ele><time>2026-04-19T09:36:53.364Z</time></trkpt><trkpt lat="40.7748843" lon="16.0537913"><ele>314.5</ele><time>2026-04-19T09:36:54.364Z</time></trkpt><trkpt lat="40.7744992" lon="16.0537565"><ele>315.0</ele><time>2026-04-19T09:36:55.364Z</time></trkpt><trkpt lat="40.7741179" lon="16.0537161"><ele>315.0</ele><time>2026-04-19T09:36:56.364Z</time></trkpt><trkpt lat="40.7737403" lon="16.0536783"><ele>315.0</ele><time>2026-04-19T09:36:57.364Z</time></trkpt><trkpt lat="40.7733692" lon="16.053644"><ele>316.0</ele><time>2026-04-19T09:36:58.364Z</time></trkpt><trkpt lat="40.772998" lon="16.0536057"><ele>317.0</ele><time>2026-04-19T09:36:59.364Z</time></trkpt><trkpt lat="40.7726174" lon="16.0535684"><ele>317.5</ele><time>2026-04-19T09:37:00.364Z</time></trkpt><trkpt lat="40.7722202" lon="16.0535286"><ele>318.0</ele><time>2026-04-19T09:37:01.364Z</time></trkpt><trkpt lat="40.771836" lon="16.053489"><ele>319.5</ele><time>2026-04-19T09:37:02.364Z</time></trkpt><trkpt lat="40.771466" lon="16.053448"><ele>321.0</ele><time>2026-04-19T09:37:03.364Z</time></trkpt><trkpt lat="40.7711043" lon="16.053409"><ele>322.0</ele><time>2026-04-19T09:37:04.364Z</time></trkpt><trkpt lat="40.7707462" lon="16.0533713"><ele>323.0</ele><time>2026-04-19T09:37:05.364Z</time></trkpt><trkpt lat="40.7703763" lon="16.0533488"><ele>323.0</ele><time>2026-04-19T09:37:06.364Z</time></trkpt><trkpt lat="40.7699964" lon="16.0533328"><ele>323.0</ele><time>2026-04-19T09:37:07.363Z</time></trkpt><trkpt lat="40.7696066" lon="16.0533174"><ele>325.0</ele><time>2026-04-19T09:37:08.364Z</time></trkpt><trkpt lat="40.7692198" lon="16.0532915"><ele>327.0</ele><time>2026-04-19T09:37:09.364Z</time></trkpt><trkpt lat="40.7688489" lon="16.0532667"><ele>327.5</ele><time>2026-04-19T09:37:10.364Z</time></trkpt><trkpt lat="40.7685083" lon="16.0532587"><ele>328.0</ele><time>2026-04-19T09:37:11.364Z</time></trkpt><trkpt lat="40.7681875" lon="16.053239"><ele>328.0</ele><time>2026-04-19T09:37:12.364Z</time></trkpt><trkpt lat="40.7678862" lon="16.0532155"><ele>328.0</ele><time>2026-04-19T09:37:13.364Z</time></trkpt><trkpt lat="40.7675945" lon="16.0531794"><ele>328.5</ele><time>2026-04-19T09:37:14.364Z</time></trkpt><trkpt lat="40.7673037" lon="16.0531045"><ele>329.0</ele><time>2026-04-19T09:37:15.364Z</time></trkpt><trkpt lat="40.7670091" lon="16.0529943"><ele>330.0</ele><time>2026-04-19T09:37:16.364Z</time></trkpt><trkpt lat="40.7666863" lon="16.0528353"><ele>331.0</ele><time>2026-04-19T09:37:17.364Z</time></trkpt><trkpt lat="40.7663587" lon="16.052668"><ele>331.0</ele><time>2026-04-19T09:37:18.364Z</time></trkpt><trkpt lat="40.7660307" lon="16.0524817"><ele>331.0</ele><time>2026-04-19T09:37:19.364Z</time></trkpt><trkpt lat="40.7657152" lon="16.0522962"><ele>333.0</ele><time>2026-04-19T09:37:20.364Z</time></trkpt><trkpt lat="40.7654072" lon="16.0521142"><ele>335.0</ele><time>2026-04-19T09:37:21.364Z</time></trkpt><trkpt lat="40.7651031" lon="16.0519294"><ele>336.0</ele><time>2026-04-19T09:37:22.364Z</time></trkpt><trkpt lat="40.7647929" lon="16.0517259"><ele>337.0</ele><time>2026-04-19T09:37:23.364Z</time></trkpt><trkpt lat="40.7645113" lon="16.0515315"><ele>342.0</ele><time>2026-04-19T09:37:24.364Z</time></trkpt><trkpt lat="40.7642626" lon="16.0513421"><ele>347.0</ele><time>2026-04-19T09:37:25.364Z</time></trkpt><trkpt lat="40.7640326" lon="16.0511769"><ele>347.0</ele><time>2026-04-19T09:37:26.364Z</time></trkpt><trkpt lat="40.763821" lon="16.0510305"><ele>347.0</ele><time>2026-04-19T09:37:27.364Z</time></trkpt><trkpt lat="40.7636269" lon="16.05091"><ele>347.33333333333337</ele><time>2026-04-19T09:37:28.364Z</time></trkpt><trkpt lat="40.7634281" lon="16.0508041"><ele>347.6666666666667</ele><time>2026-04-19T09:37:29.364Z</time></trkpt><trkpt lat="40.7632344" lon="16.0507381"><ele>348.0</ele><time>2026-04-19T09:37:30.364Z</time></trkpt><trkpt lat="40.763021" lon="16.0506889"><ele>347.5</ele><time>2026-04-19T09:37:31.364Z</time></trkpt><trkpt lat="40.7627701" lon="16.0506865"><ele>347.0</ele><time>2026-04-19T09:37:32.364Z</time></trkpt><trkpt lat="40.7625239" lon="16.05069"><ele>347.0</ele><time>2026-04-19T09:37:33.364Z</time></trkpt><trkpt lat="40.7622754" lon="16.050697"><ele>347.0</ele><time>2026-04-19T09:37:34.364Z</time></trkpt><trkpt lat="40.7619981" lon="16.0507017"><ele>348.5</ele><time>2026-04-19T09:37:35.364Z</time></trkpt><trkpt lat="40.7617039" lon="16.0507248"><ele>350.0</ele><time>2026-04-19T09:37:36.364Z</time></trkpt><trkpt lat="40.7614059" lon="16.0507476"><ele>350.0</ele><time>2026-04-19T09:37:37.364Z</time></trkpt><trkpt lat="40.7611321" lon="16.050765"><ele>350.0</ele><time>2026-04-19T09:37:38.364Z</time></trkpt><trkpt lat="40.7608879" lon="16.0507923"><ele>354.5</ele><time>2026-04-19T09:37:39.364Z</time></trkpt><trkpt lat="40.7606664" lon="16.0508075"><ele>359.0</ele><time>2026-04-19T09:37:40.364Z</time></trkpt><trkpt lat="40.760433" lon="16.0508218"><ele>361.5</ele><time>2026-04-19T09:37:41.364Z</time></trkpt><trkpt lat="40.7601773" lon="16.0508355"><ele>364.0</ele><time>2026-04-19T09:37:42.363Z</time></trkpt><trkpt lat="40.7599038" lon="16.0508551"><ele>364.0</ele><time>2026-04-19T09:37:43.363Z</time></trkpt><trkpt lat="40.759629" lon="16.0508759"><ele>364.0</ele><time>2026-04-19T09:37:44.363Z</time></trkpt><trkpt lat="40.7593531" lon="16.0508977"><ele>364.5</ele><time>2026-04-19T09:37:45.363Z</time></trkpt><trkpt lat="40.7590623" lon="16.0509223"><ele>365.0</ele><time>2026-04-19T09:37:46.363Z</time></trkpt><trkpt lat="40.7587528" lon="16.0509467"><ele>364.5</ele><time>2026-04-19T09:37:47.363Z</time></trkpt><trkpt lat="40.7584125" lon="16.0509804"><ele>364.0</ele><time>2026-04-19T09:37:48.363Z</time></trkpt><trkpt lat="40.7580788" lon="16.0510163"><ele>364.0</ele><time>2026-04-19T09:37:49.363Z</time></trkpt><trkpt lat="40.7577756" lon="16.0510392"><ele>364.0</ele><time>2026-04-19T09:37:50.363Z</time></trkpt><trkpt lat="40.757485" lon="16.0510384"><ele>364.0</ele><time>2026-04-19T09:37:51.363Z</time></trkpt><trkpt lat="40.7572009" lon="16.0510567"><ele>364.0</ele><time>2026-04-19T09:37:52.363Z</time></trkpt><trkpt lat="40.7569018" lon="16.0511096"><ele>365.0</ele><time>2026-04-19T09:37:53.363Z</time></trkpt><trkpt lat="40.7565801" lon="16.0512209"><ele>366.0</ele><time>2026-04-19T09:37:54.363Z</time></trkpt><trkpt lat="40.7562499" lon="16.0513414"><ele>366.5</ele><time>2026-04-19T09:37:55.363Z</time></trkpt><trkpt lat="40.7559109" lon="16.0514576"><ele>367.0</ele><time>2026-04-19T09:37:56.363Z</time></trkpt><trkpt lat="40.7555771" lon="16.0515757"><ele>366.5</ele><time>2026-04-19T09:37:57.363Z</time></trkpt><trkpt lat="40.7552353" lon="16.0517029"><ele>366.0</ele><time>2026-04-19T09:37:58.363Z</time></trkpt><trkpt lat="40.7548906" lon="16.051824"><ele>366.0</ele><time>2026-04-19T09:37:59.363Z</time></trkpt><trkpt lat="40.7545498" lon="16.0519439"><ele>366.0</ele><time>2026-04-19T09:38:00.363Z</time></trkpt><trkpt lat="40.7542141" lon="16.0520559"><ele>366.0</ele><time>2026-04-19T09:38:01.363Z</time></trkpt><trkpt lat="40.7538671" lon="16.0521559"><ele>366.0</ele><time>2026-04-19T09:38:02.363Z</time></trkpt><trkpt lat="40.7535189" lon="16.0522614"><ele>366.0</ele><time>2026-04-19T09:38:03.363Z</time></trkpt><trkpt lat="40.7531895" lon="16.0523699"><ele>366.0</ele><time>2026-04-19T09:38:04.363Z</time></trkpt><trkpt lat="40.7528696" lon="16.0524695"><ele>365.0</ele><time>2026-04-19T09:38:05.363Z</time></trkpt><trkpt lat="40.7525629" lon="16.0525675"><ele>364.0</ele><time>2026-04-19T09:38:06.363Z</time></trkpt><trkpt lat="40.7522562" lon="16.052663"><ele>364.0</ele><time>2026-04-19T09:38:07.363Z</time></trkpt><trkpt lat="40.7519505" lon="16.0527687"><ele>364.0</ele><time>2026-04-19T09:38:08.363Z</time></trkpt><trkpt lat="40.7516587" lon="16.0528922"><ele>362.0</ele><time>2026-04-19T09:38:09.363Z</time></trkpt><trkpt lat="40.7513855" lon="16.0530309"><ele>360.0</ele><time>2026-04-19T09:38:10.363Z</time></trkpt><trkpt lat="40.7511076" lon="16.0531983"><ele>357.5</ele><time>2026-04-19T09:38:11.363Z</time></trkpt><trkpt lat="40.7507998" lon="16.053418"><ele>355.0</ele><time>2026-04-19T09:38:12.363Z</time></trkpt><trkpt lat="40.7504779" lon="16.053659"><ele>353.0</ele><time>2026-04-19T09:38:13.363Z</time></trkpt><trkpt lat="40.7501581" lon="16.0538938"><ele>351.0</ele><time>2026-04-19T09:38:14.363Z</time></trkpt><trkpt lat="40.7498248" lon="16.0541331"><ele>351.0</ele><time>2026-04-19T09:38:15.363Z</time></trkpt><trkpt lat="40.7494962" lon="16.0543822"><ele>351.0</ele><time>2026-04-19T09:38:16.363Z</time></trkpt><trkpt lat="40.7491847" lon="16.0546099"><ele>349.5</ele><time>2026-04-19T09:38:17.363Z</time></trkpt><trkpt lat="40.7488979" lon="16.0548202"><ele>348.0</ele><time>2026-04-19T09:38:18.363Z</time></trkpt><trkpt lat="40.7486318" lon="16.0550125"><ele>347.5</ele><time>2026-04-19T09:38:19.363Z</time></trkpt><trkpt lat="40.7483809" lon="16.0551961"><ele>347.0</ele><time>2026-04-19T09:38:20.363Z</time></trkpt><trkpt lat="40.7481332" lon="16.0553663"><ele>347.0</ele><time>2026-04-19T09:38:21.363Z</time></trkpt><trkpt lat="40.7478578" lon="16.0555233"><ele>347.0</ele><time>2026-04-19T09:38:22.363Z</time></trkpt><trkpt lat="40.7475511" lon="16.0556659"><ele>345.5</ele><time>2026-04-19T09:38:23.363Z</time></trkpt><trkpt lat="40.7472088" lon="16.0558034"><ele>344.0</ele><time>2026-04-19T09:38:24.363Z</time></trkpt><trkpt lat="40.7468758" lon="16.0559389"><ele>344.0</ele><time>2026-04-19T09:38:25.363Z</time></trkpt><trkpt lat="40.7465484" lon="16.05608"><ele>344.0</ele><time>2026-04-19T09:38:26.363Z</time></trkpt><trkpt lat="40.7462211" lon="16.0562367"><ele>343.5</ele><time>2026-04-19T09:38:27.363Z</time></trkpt><trkpt lat="40.7459087" lon="16.0563994"><ele>343.0</ele><time>2026-04-19T09:38:28.363Z</time></trkpt><trkpt lat="40.7456304" lon="16.0565573"><ele>342.5</ele><time>2026-04-19T09:38:29.363Z</time></trkpt><trkpt lat="40.7453614" lon="16.0566942"><ele>342.0</ele><time>2026-04-19T09:38:30.363Z</time></trkpt><trkpt lat="40.7451109" lon="16.0567965"><ele>345.5</ele><time>2026-04-19T09:38:31.363Z</time></trkpt><trkpt lat="40.7448417" lon="16.0568698"><ele>349.0</ele><time>2026-04-19T09:38:32.363Z</time></trkpt><trkpt lat="40.744565" lon="16.0569045"><ele>351.0</ele><time>2026-04-19T09:38:33.363Z</time></trkpt><trkpt lat="40.7442863" lon="16.0569234"><ele>353.0</ele><time>2026-04-19T09:38:34.363Z</time></trkpt><trkpt lat="40.744016" lon="16.0569034"><ele>353.0</ele><time>2026-04-19T09:38:35.363Z</time></trkpt><trkpt lat="40.7437299" lon="16.0568375"><ele>353.0</ele><time>2026-04-19T09:38:36.363Z</time></trkpt><trkpt lat="40.74345" lon="16.0567328"><ele>356.0</ele><time>2026-04-19T09:38:37.363Z</time></trkpt><trkpt lat="40.7431781" lon="16.056617"><ele>359.0</ele><time>2026-04-19T09:38:38.363Z</time></trkpt><trkpt lat="40.7429178" lon="16.0564493"><ele>355.5</ele><time>2026-04-19T09:38:39.363Z</time></trkpt><trkpt lat="40.7426554" lon="16.0562492"><ele>352.0</ele><time>2026-04-19T09:38:40.363Z</time></trkpt><trkpt lat="40.7423876" lon="16.0560258"><ele>352.0</ele><time>2026-04-19T09:38:41.363Z</time></trkpt><trkpt lat="40.7421045" lon="16.0558071"><ele>352.0</ele><time>2026-04-19T09:38:42.363Z</time></trkpt><trkpt lat="40.741803" lon="16.0556088"><ele>350.0</ele><time>2026-04-19T09:38:43.363Z</time></trkpt><trkpt lat="40.7414869" lon="16.0554442"><ele>348.0</ele><time>2026-04-19T09:38:44.363Z</time></trkpt><trkpt lat="40.7411365" lon="16.0553059"><ele>348.0</ele><time>2026-04-19T09:38:45.363Z</time></trkpt><trkpt lat="40.7407636" lon="16.0551689"><ele>348.0</ele><time>2026-04-19T09:38:46.363Z</time></trkpt><trkpt lat="40.7403759" lon="16.0550229"><ele>353.0</ele><time>2026-04-19T09:38:47.363Z</time></trkpt><trkpt lat="40.7400004" lon="16.0548824"><ele>358.0</ele><time>2026-04-19T09:38:48.363Z</time></trkpt><trkpt lat="40.73964" lon="16.0547636"><ele>357.5</ele><time>2026-04-19T09:38:49.363Z</time></trkpt><trkpt lat="40.7392876" lon="16.0546471"><ele>357.0</ele><time>2026-04-19T09:38:50.363Z</time></trkpt><trkpt lat="40.7389517" lon="16.0545457"><ele>357.0</ele><time>2026-04-19T09:38:51.363Z</time></trkpt><trkpt lat="40.7386499" lon="16.054441"><ele>357.0</ele><time>2026-04-19T09:38:52.363Z</time></trkpt><trkpt lat="40.7383547" lon="16.0543481"><ele>358.0</ele><time>2026-04-19T09:38:53.363Z</time></trkpt><trkpt lat="40.7380418" lon="16.0542618"><ele>359.0</ele><time>2026-04-19T09:38:54.363Z</time></trkpt><trkpt lat="40.7377128" lon="16.0541994"><ele>360.0</ele><time>2026-04-19T09:38:55.363Z</time></trkpt><trkpt lat="40.7373661" lon="16.0541568"><ele>361.0</ele><time>2026-04-19T09:38:56.363Z</time></trkpt><trkpt lat="40.7370105" lon="16.0541223"><ele>360.5</ele><time>2026-04-19T09:38:57.363Z</time></trkpt><trkpt lat="40.7366431" lon="16.0541051"><ele>360.0</ele><time>2026-04-19T09:38:58.363Z</time></trkpt><trkpt lat="40.7362864" lon="16.0540891"><ele>362.5</ele><time>2026-04-19T09:38:59.363Z</time></trkpt><trkpt lat="40.7359548" lon="16.0540707"><ele>365.0</ele><time>2026-04-19T09:39:00.363Z</time></trkpt><trkpt lat="40.7356381" lon="16.0540531"><ele>365.0</ele><time>2026-04-19T09:39:01.363Z</time></trkpt><trkpt lat="40.7353355" lon="16.0540292"><ele>365.0</ele><time>2026-04-19T09:39:02.363Z</time></trkpt><trkpt lat="40.7350495" lon="16.0540128"><ele>367.0</ele><time>2026-04-19T09:39:03.363Z</time></trkpt><trkpt lat="40.7347767" lon="16.0539972"><ele>369.0</ele><time>2026-04-19T09:39:04.363Z</time></trkpt><trkpt lat="40.7344947" lon="16.0539493"><ele>371.5</ele><time>2026-04-19T09:39:05.363Z</time></trkpt><trkpt lat="40.734204" lon="16.0538687"><ele>374.0</ele><time>2026-04-19T09:39:06.363Z</time></trkpt><trkpt lat="40.7339082" lon="16.0537214"><ele>374.0</ele><time>2026-04-19T09:39:07.363Z</time></trkpt><trkpt lat="40.7336032" lon="16.0535444"><ele>374.0</ele><time>2026-04-19T09:39:08.363Z</time></trkpt><trkpt lat="40.7333027" lon="16.053335"><ele>379.0</ele><time>2026-04-19T09:39:09.363Z</time></trkpt><trkpt lat="40.7330148" lon="16.0531163"><ele>384.0</ele><time>2026-04-19T09:39:10.363Z</time></trkpt><trkpt lat="40.7327244" lon="16.0528872"><ele>384.0</ele><time>2026-04-19T09:39:11.363Z</time></trkpt><trkpt lat="40.7324286" lon="16.0526521"><ele>384.0</ele><time>2026-04-19T09:39:12.363Z</time></trkpt><trkpt lat="40.7321454" lon="16.0524248"><ele>384.5</ele><time>2026-04-19T09:39:13.363Z</time></trkpt><trkpt lat="40.7318746" lon="16.0522173"><ele>385.0</ele><time>2026-04-19T09:39:14.363Z</time></trkpt><trkpt lat="40.7316048" lon="16.0519979"><ele>385.0</ele><time>2026-04-19T09:39:15.363Z</time></trkpt><trkpt lat="40.7313241" lon="16.0517919"><ele>385.0</ele><time>2026-04-19T09:39:16.363Z</time></trkpt><trkpt lat="40.7310158" lon="16.0515861"><ele>389.0</ele><time>2026-04-19T09:39:17.363Z</time></trkpt><trkpt lat="40.7306947" lon="16.0513911"><ele>393.0</ele><time>2026-04-19T09:39:18.363Z</time></trkpt><trkpt lat="40.7303607" lon="16.0512053"><ele>397.0</ele><time>2026-04-19T09:39:19.363Z</time></trkpt><trkpt lat="40.7300408" lon="16.0510344"><ele>401.0</ele><time>2026-04-19T09:39:20.363Z</time></trkpt><trkpt lat="40.7297216" lon="16.0508666"><ele>401.5</ele><time>2026-04-19T09:39:21.363Z</time></trkpt><trkpt lat="40.7294165" lon="16.050704"><ele>402.0</ele><time>2026-04-19T09:39:22.368Z</time></trkpt><trkpt lat="40.7291304" lon="16.0505537"><ele>404.0</ele><time>2026-04-19T09:39:23.368Z</time></trkpt><trkpt lat="40.7288659" lon="16.0504033"><ele>406.0</ele><time>2026-04-19T09:39:24.368Z</time></trkpt><trkpt lat="40.7286295" lon="16.0502787"><ele>409.0</ele><time>2026-04-19T09:39:25.368Z</time></trkpt><trkpt lat="40.7284031" lon="16.0501549"><ele>412.0</ele><time>2026-04-19T09:39:26.368Z</time></trkpt><trkpt lat="40.7281712" lon="16.0500094"><ele>414.0</ele><time>2026-04-19T09:39:27.368Z</time></trkpt><trkpt lat="40.7279218" lon="16.0498377"><ele>416.0</ele><time>2026-04-19T09:39:28.368Z</time></trkpt><trkpt lat="40.7276517" lon="16.0496556"><ele>416.5</ele><time>2026-04-19T09:39:29.368Z</time></trkpt><trkpt lat="40.7273808" lon="16.049476"><ele>417.0</ele><time>2026-04-19T09:39:30.368Z</time></trkpt><trkpt lat="40.727117" lon="16.049294"><ele>420.0</ele><time>2026-04-19T09:39:31.368Z</time></trkpt><trkpt lat="40.7268674" lon="16.0491244"><ele>423.0</ele><time>2026-04-19T09:39:32.368Z</time></trkpt><trkpt lat="40.7266375" lon="16.0489658"><ele>423.0</ele><time>2026-04-19T09:39:33.368Z</time></trkpt><trkpt lat="40.7264081" lon="16.0488412"><ele>423.0</ele><time>2026-04-19T09:39:34.368Z</time></trkpt><trkpt lat="40.7261881" lon="16.0487507"><ele>420.0</ele><time>2026-04-19T09:39:35.368Z</time></trkpt><trkpt lat="40.7259715" lon="16.0486802"><ele>417.0</ele><time>2026-04-19T09:39:36.368Z</time></trkpt><trkpt lat="40.7255685" lon="16.048499"><ele>417.0</ele><time>2026-04-19T09:39:38.368Z</time></trkpt><trkpt lat="40.7253874" lon="16.0484065"><ele>417.0</ele><time>2026-04-19T09:39:39.368Z</time></trkpt><trkpt lat="40.7251428" lon="16.0483623"><ele>417.0</ele><time>2026-04-19T09:39:40.368Z</time></trkpt><trkpt lat="40.7248912" lon="16.0483048"><ele>405.5</ele><time>2026-04-19T09:39:41.368Z</time></trkpt><trkpt lat="40.7246392" lon="16.0482568"><ele>394.0</ele><time>2026-04-19T09:39:42.368Z</time></trkpt><trkpt lat="40.7244006" lon="16.0481875"><ele>382.0</ele><time>2026-04-19T09:39:43.368Z</time></trkpt><trkpt lat="40.7241656" lon="16.0480925"><ele>370.0</ele><time>2026-04-19T09:39:44.368Z</time></trkpt><trkpt lat="40.7239249" lon="16.0479721"><ele>370.0</ele><time>2026-04-19T09:39:45.368Z</time></trkpt><trkpt lat="40.7237032" lon="16.0478328"><ele>370.0</ele><time>2026-04-19T09:39:46.368Z</time></trkpt><trkpt lat="40.723502" lon="16.0476842"><ele>363.5</ele><time>2026-04-19T09:39:47.368Z</time></trkpt><trkpt lat="40.7232925" lon="16.0475046"><ele>357.0</ele><time>2026-04-19T09:39:48.368Z</time></trkpt><trkpt lat="40.7230856" lon="16.0472857"><ele>352.0</ele><time>2026-04-19T09:39:49.368Z</time></trkpt><trkpt lat="40.7228849" lon="16.0470425"><ele>347.0</ele><time>2026-04-19T09:39:50.368Z</time></trkpt><trkpt lat="40.7226943" lon="16.046767"><ele>345.5</ele><time>2026-04-19T09:39:51.368Z</time></trkpt><trkpt lat="40.7225167" lon="16.0464753"><ele>344.0</ele><time>2026-04-19T09:39:52.368Z</time></trkpt><trkpt lat="40.7223619" lon="16.046167"><ele>344.0</ele><time>2026-04-19T09:39:53.368Z</time></trkpt><trkpt lat="40.7222271" lon="16.0458433"><ele>344.0</ele><time>2026-04-19T09:39:54.368Z</time></trkpt><trkpt lat="40.7221132" lon="16.0455026"><ele>343.5</ele><time>2026-04-19T09:39:55.368Z</time></trkpt><trkpt lat="40.7220272" lon="16.0451351"><ele>343.0</ele><time>2026-04-19T09:39:56.368Z</time></trkpt><trkpt lat="40.7219682" lon="16.0447588"><ele>343.0</ele><time>2026-04-19T09:39:57.368Z</time></trkpt><trkpt lat="40.7219288" lon="16.0443822"><ele>343.0</ele><time>2026-04-19T09:39:58.368Z</time></trkpt><trkpt lat="40.7219137" lon="16.0440144"><ele>343.0</ele><time>2026-04-19T09:39:59.368Z</time></trkpt><trkpt lat="40.7219221" lon="16.0436609"><ele>343.0</ele><time>2026-04-19T09:40:00.368Z</time></trkpt><trkpt lat="40.7219518" lon="16.0433093"><ele>346.0</ele><time>2026-04-19T09:40:01.368Z</time></trkpt><trkpt lat="40.721993" lon="16.0429543"><ele>349.0</ele><time>2026-04-19T09:40:02.368Z</time></trkpt><trkpt lat="40.7220501" lon="16.0425916"><ele>353.5</ele><time>2026-04-19T09:40:03.368Z</time></trkpt><trkpt lat="40.7221101" lon="16.042227"><ele>358.0</ele><time>2026-04-19T09:40:04.368Z</time></trkpt><trkpt lat="40.7221604" lon="16.0418894"><ele>360.0</ele><time>2026-04-19T09:40:05.368Z</time></trkpt><trkpt lat="40.7222087" lon="16.0415597"><ele>362.0</ele><time>2026-04-19T09:40:06.368Z</time></trkpt><trkpt lat="40.722267" lon="16.0412498"><ele>362.0</ele><time>2026-04-19T09:40:07.368Z</time></trkpt><trkpt lat="40.7223206" lon="16.0409543"><ele>362.0</ele><time>2026-04-19T09:40:08.368Z</time></trkpt><trkpt lat="40.7223695" lon="16.0406769"><ele>362.0</ele><time>2026-04-19T09:40:09.368Z</time></trkpt><trkpt lat="40.7224075" lon="16.0403931"><ele>360.0</ele><time>2026-04-19T09:40:10.367Z</time></trkpt><trkpt lat="40.7224268" lon="16.0401037"><ele>358.0</ele><time>2026-04-19T09:40:11.368Z</time></trkpt><trkpt lat="40.7224204" lon="16.0397969"><ele>356.5</ele><time>2026-04-19T09:40:12.368Z</time></trkpt><trkpt lat="40.7223942" lon="16.0394493"><ele>355.0</ele><time>2026-04-19T09:40:13.368Z</time></trkpt><trkpt lat="40.722367" lon="16.0390715"><ele>355.0</ele><time>2026-04-19T09:40:14.368Z</time></trkpt><trkpt lat="40.7223327" lon="16.0386762"><ele>355.0</ele><time>2026-04-19T09:40:15.368Z</time></trkpt><trkpt lat="40.7223004" lon="16.0383034"><ele>353.0</ele><time>2026-04-19T09:40:16.368Z</time></trkpt><trkpt lat="40.722268" lon="16.0379714"><ele>351.0</ele><time>2026-04-19T09:40:17.368Z</time></trkpt><trkpt lat="40.7222414" lon="16.037662"><ele>351.3333333333333</ele><time>2026-04-19T09:40:18.368Z</time></trkpt><trkpt lat="40.7222175" lon="16.0373702"><ele>351.66666666666663</ele><time>2026-04-19T09:40:19.368Z</time></trkpt><trkpt lat="40.7221833" lon="16.0371157"><ele>352.0</ele><time>2026-04-19T09:40:20.368Z</time></trkpt><trkpt lat="40.7221236" lon="16.0368966"><ele>352.0</ele><time>2026-04-19T09:40:21.368Z</time></trkpt><trkpt lat="40.7220331" lon="16.03668"><ele>352.0</ele><time>2026-04-19T09:40:22.368Z</time></trkpt><trkpt lat="40.7219189" lon="16.0364693"><ele>352.0</ele><time>2026-04-19T09:40:23.368Z</time></trkpt><trkpt lat="40.7217869" lon="16.0362853"><ele>355.3333333333333</ele><time>2026-04-19T09:40:24.367Z</time></trkpt><trkpt lat="40.7216296" lon="16.03614"><ele>358.6666666666667</ele><time>2026-04-19T09:40:25.367Z</time></trkpt><trkpt lat="40.7214541" lon="16.0360282"><ele>362.0</ele><time>2026-04-19T09:40:26.367Z</time></trkpt><trkpt lat="40.7212579" lon="16.0359558"><ele>365.5</ele><time>2026-04-19T09:40:27.367Z</time></trkpt><trkpt lat="40.7210347" lon="16.0359215"><ele>369.0</ele><time>2026-04-19T09:40:28.367Z</time></trkpt><trkpt lat="40.7207989" lon="16.0358998"><ele>369.0</ele><time>2026-04-19T09:40:29.367Z</time></trkpt><trkpt lat="40.7205701" lon="16.0358725"><ele>369.0</ele><time>2026-04-19T09:40:30.367Z</time></trkpt><trkpt lat="40.7203385" lon="16.0358236"><ele>374.0</ele><time>2026-04-19T09:40:31.367Z</time></trkpt><trkpt lat="40.7200823" lon="16.0357612"><ele>379.0</ele><time>2026-04-19T09:40:32.367Z</time></trkpt><trkpt lat="40.71983" lon="16.0356872"><ele>379.0</ele><time>2026-04-19T09:40:33.366Z</time></trkpt><trkpt lat="40.7195971" lon="16.0356043"><ele>379.0</ele><time>2026-04-19T09:40:34.367Z</time></trkpt><trkpt lat="40.7193794" lon="16.0355045"><ele>375.0</ele><time>2026-04-19T09:40:35.367Z</time></trkpt><trkpt lat="40.7191722" lon="16.035359"><ele>371.0</ele><time>2026-04-19T09:40:36.367Z</time></trkpt><trkpt lat="40.7189585" lon="16.0351846"><ele>371.0</ele><time>2026-04-19T09:40:37.367Z</time></trkpt><trkpt lat="40.7187673" lon="16.0349903"><ele>371.0</ele><time>2026-04-19T09:40:38.367Z</time></trkpt><trkpt lat="40.7186042" lon="16.0347743"><ele>371.5</ele><time>2026-04-19T09:40:39.367Z</time></trkpt><trkpt lat="40.7184586" lon="16.0345332"><ele>372.0</ele><time>2026-04-19T09:40:40.367Z</time></trkpt><trkpt lat="40.7183185" lon="16.0342642"><ele>374.5</ele><time>2026-04-19T09:40:41.367Z</time></trkpt><trkpt lat="40.718216" lon="16.0339909"><ele>377.0</ele><time>2026-04-19T09:40:42.367Z</time></trkpt><trkpt lat="40.7181414" lon="16.0337094"><ele>377.0</ele><time>2026-04-19T09:40:43.367Z</time></trkpt><trkpt lat="40.7180728" lon="16.0334087"><ele>377.0</ele><time>2026-04-19T09:40:44.367Z</time></trkpt><trkpt lat="40.7180128" lon="16.0330999"><ele>379.5</ele><time>2026-04-19T09:40:45.367Z</time></trkpt><trkpt lat="40.7179704" lon="16.0328027"><ele>382.0</ele><time>2026-04-19T09:40:46.367Z</time></trkpt><trkpt lat="40.7179279" lon="16.0325002"><ele>383.0</ele><time>2026-04-19T09:40:47.367Z</time></trkpt><trkpt lat="40.7178814" lon="16.0322108"><ele>384.0</ele><time>2026-04-19T09:40:48.367Z</time></trkpt><trkpt lat="40.7178078" lon="16.0319259"><ele>389.0</ele><time>2026-04-19T09:40:49.367Z</time></trkpt><trkpt lat="40.7177075" lon="16.0316319"><ele>394.0</ele><time>2026-04-19T09:40:50.367Z</time></trkpt><trkpt lat="40.7222414" lon="16.037662"><ele>380.0</ele><time>2026-04-19T09:40:18.368Z</time></trkpt><trkpt lat="40.7222175" lon="16.0373702"><ele>366.0</ele><time>2026-04-19T09:40:19.368Z</time></trkpt><trkpt lat="40.7221833" lon="16.0371157"><ele>352.0</ele><time>2026-04-19T09:40:20.368Z</time></trkpt><trkpt lat="40.7221236" lon="16.0368966"><ele>352.0</ele><time>2026-04-19T09:40:21.368Z</time></trkpt><trkpt lat="40.7220331" lon="16.03668"><ele>352.0</ele><time>2026-04-19T09:40:22.368Z</time></trkpt><trkpt lat="40.7219189" lon="16.0364693"><ele>352.0</ele><time>2026-04-19T09:40:23.368Z</time></trkpt><trkpt lat="40.7217869" lon="16.0362853"><ele>355.3333333333333</ele><time>2026-04-19T09:40:24.367Z</time></trkpt><trkpt lat="40.7216296" lon="16.03614"><ele>358.6666666666667</ele><time>2026-04-19T09:40:25.367Z</time></trkpt><trkpt lat="40.7214541" lon="16.0360282"><ele>362.0</ele><time>2026-04-19T09:40:26.367Z</time></trkpt><trkpt lat="40.7212579" lon="16.0359558"><ele>365.5</ele><time>2026-04-19T09:40:27.367Z</time></trkpt><trkpt lat="40.7210347" lon="16.0359215"><ele>369.0</ele><time>2026-04-19T09:40:28.367Z</time></trkpt><trkpt lat="40.7207989" lon="16.0358998"><ele>369.0</ele><time>2026-04-19T09:40:29.367Z</time></trkpt><trkpt lat="40.7205701" lon="16.0358725"><ele>369.0</ele><time>2026-04-19T09:40:30.367Z</time></trkpt><trkpt lat="40.7203385" lon="16.0358236"><ele>374.0</ele><time>2026-04-19T09:40:31.367Z</time></trkpt><trkpt lat="40.7200823" lon="16.0357612"><ele>379.0</ele><time>2026-04-19T09:40:32.367Z</time></trkpt><trkpt lat="40.71983" lon="16.0356872"><ele>379.0</ele><time>2026-04-19T09:40:33.366Z</time></trkpt><trkpt lat="40.7195971" lon="16.0356043"><ele>379.0</ele><time>2026-04-19T09:40:34.367Z</time></trkpt><trkpt lat="40.7193794" lon="16.0355045"><ele>375.0</ele><time>2026-04-19T09:40:35.367Z</time></trkpt><trkpt lat="40.7191722" lon="16.035359"><ele>371.0</ele><time>2026-04-19T09:40:36.367Z</time></trkpt><trkpt lat="40.7189585" lon="16.0351846"><ele>371.0</ele><time>2026-04-19T09:40:37.367Z</time></trkpt><trkpt lat="40.7187673" lon="16.0349903"><ele>371.0</ele><time>2026-04-19T09:40:38.367Z</time></trkpt><trkpt lat="40.7186042" lon="16.0347743"><ele>371.5</ele><time>2026-04-19T09:40:39.367Z</time></trkpt><trkpt lat="40.7184586" lon="16.0345332"><ele>372.0</ele><time>2026-04-19T09:40:40.367Z</time></trkpt><trkpt lat="40.7183185" lon="16.0342642"><ele>374.5</ele><time>2026-04-19T09:40:41.367Z</time></trkpt><trkpt lat="40.718216" lon="16.0339909"><ele>377.0</ele><time>2026-04-19T09:40:42.367Z</time></trkpt><trkpt lat="40.7181414" lon="16.0337094"><ele>377.0</ele><time>2026-04-19T09:40:43.367Z</time></trkpt><trkpt lat="40.7180728" lon="16.0334087"><ele>377.0</ele><time>2026-04-19T09:40:44.367Z</time></trkpt><trkpt lat="40.7180128" lon="16.0330999"><ele>379.5</ele><time>2026-04-19T09:40:45.367Z</time></trkpt><trkpt lat="40.7179704" lon="16.0328027"><ele>382.0</ele><time>2026-04-19T09:40:46.367Z</time></trkpt><trkpt lat="40.7179279" lon="16.0325002"><ele>383.0</ele><time>2026-04-19T09:40:47.367Z</time></trkpt><trkpt lat="40.7178814" lon="16.0322108"><ele>384.0</ele><time>2026-04-19T09:40:48.367Z</time></trkpt><trkpt lat="40.7178078" lon="16.0319259"><ele>389.0</ele><time>2026-04-19T09:40:49.367Z</time></trkpt><trkpt lat="40.7177075" lon="16.0316319"><ele>394.0</ele><time>2026-04-19T09:40:50.367Z</time></trkpt><trkpt lat="40.7175936" lon="16.0313411"><ele>394.0</ele><time>2026-04-19T09:40:51.367Z</time></trkpt><trkpt lat="40.7174983" lon="16.0310838"><ele>394.0</ele><time>2026-04-19T09:40:52.367Z</time></trkpt><trkpt lat="40.7174006" lon="16.0308504"><ele>394.0</ele><time>2026-04-19T09:40:53.367Z</time></trkpt><trkpt lat="40.7172686" lon="16.0306255"><ele>398.0</ele><time>2026-04-19T09:40:54.367Z</time></trkpt><trkpt lat="40.7171018" lon="16.0304049"><ele>402.0</ele><time>2026-04-19T09:40:55.367Z</time></trkpt><trkpt lat="40.7169525" lon="16.0302229"><ele>406.0</ele><time>2026-04-19T09:40:56.367Z</time></trkpt><trkpt lat="40.7168147" lon="16.0300462"><ele>408.6666666666667</ele><time>2026-04-19T09:40:57.367Z</time></trkpt><trkpt lat="40.716686" lon="16.0298547"><ele>411.33333333333337</ele><time>2026-04-19T09:40:58.367Z</time></trkpt><trkpt lat="40.7165869" lon="16.0296301"><ele>414.0</ele><time>2026-04-19T09:40:59.367Z</time></trkpt><trkpt lat="40.716525" lon="16.0293818"><ele>415.0</ele><time>2026-04-19T09:41:00.367Z</time></trkpt><trkpt lat="40.7164673" lon="16.0291038"><ele>416.0</ele><time>2026-04-19T09:41:01.367Z</time></trkpt><trkpt lat="40.7163997" lon="16.0287854"><ele>416.0</ele><time>2026-04-19T09:41:02.367Z</time></trkpt><trkpt lat="40.7163329" lon="16.0284699"><ele>416.0</ele><time>2026-04-19T09:41:03.367Z</time></trkpt><trkpt lat="40.7162756" lon="16.0281751"><ele>416.0</ele><time>2026-04-19T09:41:04.367Z</time></trkpt><trkpt lat="40.7162179" lon="16.0279073"><ele>416.0</ele><time>2026-04-19T09:41:05.367Z</time></trkpt><trkpt lat="40.7161573" lon="16.0276368"><ele>416.0</ele><time>2026-04-19T09:41:06.367Z</time></trkpt><trkpt lat="40.7160818" lon="16.0273718"><ele>412.3333333333333</ele><time>2026-04-19T09:41:07.367Z</time></trkpt><trkpt lat="40.7160007" lon="16.027132"><ele>408.66666666666663</ele><time>2026-04-19T09:41:08.367Z</time></trkpt><trkpt lat="40.7159113" lon="16.0269056"><ele>405.0</ele><time>2026-04-19T09:41:09.366Z</time></trkpt><trkpt lat="40.7158155" lon="16.0266758"><ele>406.33333333333337</ele><time>2026-04-19T09:41:10.367Z</time></trkpt><trkpt lat="40.7157167" lon="16.0264559"><ele>407.6666666666667</ele><time>2026-04-19T09:41:11.367Z</time></trkpt><trkpt lat="40.7156119" lon="16.026229"><ele>409.0</ele><time>2026-04-19T09:41:12.367Z</time></trkpt><trkpt lat="40.7154983" lon="16.0259893"><ele>408.5</ele><time>2026-04-19T09:41:13.367Z</time></trkpt><trkpt lat="40.7153777" lon="16.0257319"><ele>408.0</ele><time>2026-04-19T09:41:14.367Z</time></trkpt><trkpt lat="40.7152696" lon="16.0254745"><ele>407.0</ele><time>2026-04-19T09:41:15.367Z</time></trkpt><trkpt lat="40.7151629" lon="16.0252181"><ele>406.0</ele><time>2026-04-19T09:41:16.367Z</time></trkpt><trkpt lat="40.715057" lon="16.0249624"><ele>405.0</ele><time>2026-04-19T09:41:17.367Z</time></trkpt><trkpt lat="40.7149395" lon="16.0246954"><ele>409.0</ele><time>2026-04-19T09:41:18.367Z</time></trkpt><trkpt lat="40.714814" lon="16.0244001"><ele>413.0</ele><time>2026-04-19T09:41:19.367Z</time></trkpt><trkpt lat="40.7146951" lon="16.0241159"><ele>416.5</ele><time>2026-04-19T09:41:20.367Z</time></trkpt><trkpt lat="40.7145838" lon="16.0238274"><ele>420.0</ele><time>2026-04-19T09:41:21.367Z</time></trkpt><trkpt lat="40.7144521" lon="16.0235339"><ele>418.0</ele><time>2026-04-19T09:41:22.367Z</time></trkpt><trkpt lat="40.714304" lon="16.0232499"><ele>416.0</ele><time>2026-04-19T09:41:23.367Z</time></trkpt><trkpt lat="40.7141477" lon="16.0229821"><ele>416.0</ele><time>2026-04-19T09:41:24.367Z</time></trkpt><trkpt lat="40.7139748" lon="16.0227053"><ele>416.0</ele><time>2026-04-19T09:41:25.367Z</time></trkpt><trkpt lat="40.7137941" lon="16.0224346"><ele>420.0</ele><time>2026-04-19T09:41:26.367Z</time></trkpt><trkpt lat="40.7136164" lon="16.0221559"><ele>424.0</ele><time>2026-04-19T09:41:27.367Z</time></trkpt><trkpt lat="40.7134435" lon="16.0218948"><ele>424.0</ele><time>2026-04-19T09:41:28.367Z</time></trkpt><trkpt lat="40.7132979" lon="16.0216562"><ele>424.0</ele><time>2026-04-19T09:41:29.367Z</time></trkpt><trkpt lat="40.7131375" lon="16.0214331"><ele>426.5</ele><time>2026-04-19T09:41:30.367Z</time></trkpt><trkpt lat="40.7129536" lon="16.0212193"><ele>429.0</ele><time>2026-04-19T09:41:31.367Z</time></trkpt><trkpt lat="40.7127485" lon="16.0210137"><ele>431.5</ele><time>2026-04-19T09:41:32.367Z</time></trkpt><trkpt lat="40.7125212" lon="16.0208068"><ele>434.0</ele><time>2026-04-19T09:41:33.367Z</time></trkpt><trkpt lat="40.7123003" lon="16.0206051"><ele>434.0</ele><time>2026-04-19T09:41:34.367Z</time></trkpt><trkpt lat="40.7120882" lon="16.0204162"><ele>434.0</ele><time>2026-04-19T09:41:35.367Z</time></trkpt><trkpt lat="40.7118824" lon="16.0202375"><ele>437.5</ele><time>2026-04-19T09:41:36.367Z</time></trkpt><trkpt lat="40.7116645" lon="16.0200562"><ele>441.0</ele><time>2026-04-19T09:41:37.367Z</time></trkpt><trkpt lat="40.7114197" lon="16.019878"><ele>441.5</ele><time>2026-04-19T09:41:38.367Z</time></trkpt><trkpt lat="40.7111505" lon="16.0196892"><ele>442.0</ele><time>2026-04-19T09:41:39.367Z</time></trkpt><trkpt lat="40.7108639" lon="16.0194947"><ele>442.0</ele><time>2026-04-19T09:41:40.367Z</time></trkpt><trkpt lat="40.7105899" lon="16.0193094"><ele>442.0</ele><time>2026-04-19T09:41:41.367Z</time></trkpt><trkpt lat="40.7103497" lon="16.0191458"><ele>439.0</ele><time>2026-04-19T09:41:42.367Z</time></trkpt><trkpt lat="40.7101279" lon="16.0189805"><ele>436.0</ele><time>2026-04-19T09:41:43.367Z</time></trkpt><trkpt lat="40.7099065" lon="16.0187915"><ele>436.0</ele><time>2026-04-19T09:41:44.367Z</time></trkpt><trkpt lat="40.7096673" lon="16.0185725"><ele>436.0</ele><time>2026-04-19T09:41:45.367Z</time></trkpt><trkpt lat="40.7093993" lon="16.0183266"><ele>433.0</ele><time>2026-04-19T09:41:46.367Z</time></trkpt><trkpt lat="40.7091153" lon="16.0180711"><ele>430.0</ele><time>2026-04-19T09:41:47.367Z</time></trkpt><trkpt lat="40.7088399" lon="16.0178224"><ele>430.0</ele><time>2026-04-19T09:41:48.367Z</time></trkpt><trkpt lat="40.7085776" lon="16.0175852"><ele>430.0</ele><time>2026-04-19T09:41:49.367Z</time></trkpt><trkpt lat="40.7083284" lon="16.017364"><ele>428.0</ele><time>2026-04-19T09:41:50.367Z</time></trkpt><trkpt lat="40.7080986" lon="16.0171589"><ele>426.0</ele><time>2026-04-19T09:41:51.367Z</time></trkpt><trkpt lat="40.7078899" lon="16.0169731"><ele>426.0</ele><time>2026-04-19T09:41:52.367Z</time></trkpt><trkpt lat="40.7076847" lon="16.016783"><ele>426.0</ele><time>2026-04-19T09:41:53.367Z</time></trkpt><trkpt lat="40.7074592" lon="16.0165794"><ele>426.0</ele><time>2026-04-19T09:41:54.367Z</time></trkpt><trkpt lat="40.7072354" lon="16.0163796"><ele>426.0</ele><time>2026-04-19T09:41:55.367Z</time></trkpt><trkpt lat="40.707019" lon="16.0161967"><ele>429.0</ele><time>2026-04-19T09:41:56.367Z</time></trkpt><trkpt lat="40.7067928" lon="16.016025"><ele>432.0</ele><time>2026-04-19T09:41:57.367Z</time></trkpt><trkpt lat="40.7065541" lon="16.0158768"><ele>432.0</ele><time>2026-04-19T09:41:58.367Z</time></trkpt><trkpt lat="40.7063318" lon="16.0157297"><ele>432.0</ele><time>2026-04-19T09:41:59.367Z</time></trkpt><trkpt lat="40.7061355" lon="16.0155722"><ele>428.5</ele><time>2026-04-19T09:42:00.367Z</time></trkpt><trkpt lat="40.7059543" lon="16.0153944"><ele>425.0</ele><time>2026-04-19T09:42:01.367Z</time></trkpt><trkpt lat="40.7057749" lon="16.0152151"><ele>425.0</ele><time>2026-04-19T09:42:02.367Z</time></trkpt><trkpt lat="40.7056142" lon="16.0150471"><ele>425.0</ele><time>2026-04-19T09:42:03.367Z</time></trkpt><trkpt lat="40.7054623" lon="16.0149066"><ele>425.0</ele><time>2026-04-19T09:42:04.367Z</time></trkpt><trkpt lat="40.7053129" lon="16.0147929"><ele>421.0</ele><time>2026-04-19T09:42:05.367Z</time></trkpt><trkpt lat="40.7051402" lon="16.0147002"><ele>417.0</ele><time>2026-04-19T09:42:06.367Z</time></trkpt><trkpt lat="40.7049218" lon="16.0146308"><ele>413.0</ele><time>2026-04-19T09:42:07.367Z</time></trkpt><trkpt lat="40.7046825" lon="16.0145822"><ele>413.0</ele><time>2026-04-19T09:42:08.367Z</time></trkpt><trkpt lat="40.7044612" lon="16.0145446"><ele>413.0</ele><time>2026-04-19T09:42:09.367Z</time></trkpt><trkpt lat="40.7042558" lon="16.0145129"><ele>413.0</ele><time>2026-04-19T09:42:10.367Z</time></trkpt><trkpt lat="40.7040833" lon="16.014471"><ele>411.25</ele><time>2026-04-19T09:42:11.367Z</time></trkpt><trkpt lat="40.7039485" lon="16.0144353"><ele>409.5</ele><time>2026-04-19T09:42:12.367Z</time></trkpt><trkpt lat="40.7038375" lon="16.0144061"><ele>407.75</ele><time>2026-04-19T09:42:13.367Z</time></trkpt><trkpt lat="40.7037318" lon="16.0143714"><ele>406.0</ele><time>2026-04-19T09:42:14.367Z</time></trkpt><trkpt lat="40.7036363" lon="16.014326"><ele>404.00000000000006</ele><time>2026-04-19T09:42:15.367Z</time></trkpt><trkpt lat="40.7035622" lon="16.0142759"><ele>402.0</ele><time>2026-04-19T09:42:16.367Z</time></trkpt><trkpt lat="40.7035081" lon="16.0142216"><ele>400.0</ele><time>2026-04-19T09:42:17.367Z</time></trkpt><trkpt lat="40.7034572" lon="16.0140912"><ele>398.0</ele><time>2026-04-19T09:42:19.367Z</time></trkpt><trkpt lat="40.7034177" lon="16.0140116"><ele>396.00000000000006</ele><time>2026-04-19T09:42:20.367Z</time></trkpt><trkpt lat="40.7033693" lon="16.01392"><ele>394.0</ele><time>2026-04-19T09:42:21.367Z</time></trkpt><trkpt lat="40.703325" lon="16.013816"><ele>393.5</ele><time>2026-04-19T09:42:22.367Z</time></trkpt><trkpt lat="40.7032622" lon="16.0136927"><ele>393.0</ele><time>2026-04-19T09:42:23.367Z</time></trkpt><trkpt lat="40.7031625" lon="16.0135791"><ele>392.5</ele><time>2026-04-19T09:42:24.367Z</time></trkpt><trkpt lat="40.7030454" lon="16.0134926"><ele>392.0</ele><time>2026-04-19T09:42:25.367Z</time></trkpt><trkpt lat="40.7028961" lon="16.013432"><ele>391.5</ele><time>2026-04-19T09:42:26.367Z</time></trkpt><trkpt lat="40.7027389" lon="16.0133874"><ele>391.0</ele><time>2026-04-19T09:42:27.367Z</time></trkpt><trkpt lat="40.7025959" lon="16.0133527"><ele>390.5</ele><time>2026-04-19T09:42:28.367Z</time></trkpt><trkpt lat="40.7024752" lon="16.0133144"><ele>390.0</ele><time>2026-04-19T09:42:29.367Z</time></trkpt><trkpt lat="40.7023797" lon="16.0132684"><ele>390.0</ele><time>2026-04-19T09:42:30.367Z</time></trkpt><trkpt lat="40.7023189" lon="16.0132212"><ele>390.0</ele><time>2026-04-19T09:42:31.367Z</time></trkpt><trkpt lat="40.7022689" lon="16.0131631"><ele>390.0</ele><time>2026-04-19T09:42:32.367Z</time></trkpt><trkpt lat="40.7022126" lon="16.013082"><ele>390.0</ele><time>2026-04-19T09:42:33.367Z</time></trkpt><trkpt lat="40.7021549" lon="16.0129678"><ele>390.0</ele><time>2026-04-19T09:42:34.367Z</time></trkpt><trkpt lat="40.7021008" lon="16.0128049"><ele>390.0</ele><time>2026-04-19T09:42:35.367Z</time></trkpt><trkpt lat="40.7020509" lon="16.0125855"><ele>390.0</ele><time>2026-04-19T09:42:36.367Z</time></trkpt><trkpt lat="40.7019992" lon="16.0123318"><ele>390.0</ele><time>2026-04-19T09:42:37.367Z</time></trkpt><trkpt lat="40.7019535" lon="16.0120541"><ele>398.5</ele><time>2026-04-19T09:42:38.367Z</time></trkpt><trkpt lat="40.7019003" lon="16.0117613"><ele>407.0</ele><time>2026-04-19T09:42:39.367Z</time></trkpt><trkpt lat="40.7018412" lon="16.011435"><ele>408.5</ele><time>2026-04-19T09:42:40.367Z</time></trkpt><trkpt lat="40.701784" lon="16.0110742"><ele>410.0</ele><time>2026-04-19T09:42:41.367Z</time></trkpt><trkpt lat="40.7017175" lon="16.0107199"><ele>410.5</ele><time>2026-04-19T09:42:42.367Z</time></trkpt><trkpt lat="40.7016621" lon="16.010397"><ele>411.0</ele><time>2026-04-19T09:42:43.367Z</time></trkpt><trkpt lat="40.7016207" lon="16.0101161"><ele>412.0</ele><time>2026-04-19T09:42:44.367Z</time></trkpt><trkpt lat="40.7015794" lon="16.0098712"><ele>413.0</ele><time>2026-04-19T09:42:45.367Z</time></trkpt><trkpt lat="40.7015242" lon="16.0096482"><ele>414.0</ele><time>2026-04-19T09:42:46.367Z</time></trkpt><trkpt lat="40.7014467" lon="16.0094378"><ele>414.0</ele><time>2026-04-19T09:42:47.367Z</time></trkpt><trkpt lat="40.7013391" lon="16.0092582"><ele>414.0</ele><time>2026-04-19T09:42:48.367Z</time></trkpt><trkpt lat="40.7012121" lon="16.0091197"><ele>414.0</ele><time>2026-04-19T09:42:49.367Z</time></trkpt><trkpt lat="40.7010597" lon="16.0089967"><ele>416.33333333333337</ele><time>2026-04-19T09:42:50.367Z</time></trkpt><trkpt lat="40.7008859" lon="16.0088958"><ele>418.6666666666667</ele><time>2026-04-19T09:42:51.367Z</time></trkpt><trkpt lat="40.7006832" lon="16.0088022"><ele>421.0</ele><time>2026-04-19T09:42:52.367Z</time></trkpt><trkpt lat="40.7004601" lon="16.0087093"><ele>421.0</ele><time>2026-04-19T09:42:53.367Z</time></trkpt><trkpt lat="40.7002525" lon="16.0086141"><ele>421.0</ele><time>2026-04-19T09:42:54.367Z</time></trkpt><trkpt lat="40.7000784" lon="16.0085302"><ele>421.0</ele><time>2026-04-19T09:42:55.367Z</time></trkpt><trkpt lat="40.6999212" lon="16.0084617"><ele>424.33333333333337</ele><time>2026-04-19T09:42:56.367Z</time></trkpt><trkpt lat="40.6997768" lon="16.0083891"><ele>427.66666666666663</ele><time>2026-04-19T09:42:57.367Z</time></trkpt><trkpt lat="40.6996401" lon="16.008295"><ele>431.0</ele><time>2026-04-19T09:42:58.367Z</time></trkpt><trkpt lat="40.6995209" lon="16.0081746"><ele>434.0</ele><time>2026-04-19T09:42:59.367Z</time></trkpt><trkpt lat="40.699415" lon="16.0080142"><ele>437.0</ele><time>2026-04-19T09:43:00.367Z</time></trkpt><trkpt lat="40.6993205" lon="16.0077793"><ele>440.0</ele><time>2026-04-19T09:43:01.367Z</time></trkpt><trkpt lat="40.6992342" lon="16.0074958"><ele>442.0</ele><time>2026-04-19T09:43:02.367Z</time></trkpt><trkpt lat="40.6991752" lon="16.0071888"><ele>444.0</ele><time>2026-04-19T09:43:03.367Z</time></trkpt><trkpt lat="40.6991106" lon="16.0068742"><ele>446.0</ele><time>2026-04-19T09:43:04.367Z</time></trkpt><trkpt lat="40.6990348" lon="16.0065678"><ele>448.0</ele><time>2026-04-19T09:43:05.367Z</time></trkpt><trkpt lat="40.6989571" lon="16.0062509"><ele>448.0</ele><time>2026-04-19T09:43:06.367Z</time></trkpt><trkpt lat="40.6988751" lon="16.0059098"><ele>448.0</ele><time>2026-04-19T09:43:07.367Z</time></trkpt><trkpt lat="40.6987879" lon="16.0055429"><ele>453.0</ele><time>2026-04-19T09:43:08.367Z</time></trkpt><trkpt lat="40.6986983" lon="16.0051905"><ele>458.0</ele><time>2026-04-19T09:43:09.367Z</time></trkpt><trkpt lat="40.6986092" lon="16.0048655"><ele>466.0</ele><time>2026-04-19T09:43:10.367Z</time></trkpt><trkpt lat="40.6985276" lon="16.00454"><ele>474.0</ele><time>2026-04-19T09:43:11.367Z</time></trkpt><trkpt lat="40.6984596" lon="16.0042396"><ele>476.0</ele><time>2026-04-19T09:43:12.367Z</time></trkpt><trkpt lat="40.6983926" lon="16.0039732"><ele>478.0</ele><time>2026-04-19T09:43:13.367Z</time></trkpt><trkpt lat="40.6983314" lon="16.0037323"><ele>480.0</ele><time>2026-04-19T09:43:14.367Z</time></trkpt><trkpt lat="40.6982888" lon="16.0035142"><ele>482.0</ele><time>2026-04-19T09:43:15.367Z</time></trkpt><trkpt lat="40.6982553" lon="16.0033298"><ele>484.0</ele><time>2026-04-19T09:43:16.367Z</time></trkpt><trkpt lat="40.6982581" lon="16.0031616"><ele>486.0</ele><time>2026-04-19T09:43:17.367Z</time></trkpt><trkpt lat="40.6982927" lon="16.0030105"><ele>488.0</ele><time>2026-04-19T09:43:18.367Z</time></trkpt><trkpt lat="40.6983898" lon="16.0029011"><ele>488.0</ele><time>2026-04-19T09:43:19.367Z</time></trkpt><trkpt lat="40.6985067" lon="16.0028282"><ele>488.0</ele><time>2026-04-19T09:43:20.367Z</time></trkpt><trkpt lat="40.6986579" lon="16.0028148"><ele>488.0</ele><time>2026-04-19T09:43:21.367Z</time></trkpt><trkpt lat="40.6988232" lon="16.0028264"><ele>488.0</ele><time>2026-04-19T09:43:22.367Z</time></trkpt><trkpt lat="40.6990056" lon="16.0028356"><ele>491.3333333333333</ele><time>2026-04-19T09:43:23.367Z</time></trkpt><trkpt lat="40.6991959" lon="16.0028403"><ele>494.66666666666663</ele><time>2026-04-19T09:43:24.367Z</time></trkpt><trkpt lat="40.6993604" lon="16.0028327"><ele>498.0</ele><time>2026-04-19T09:43:25.367Z</time></trkpt><trkpt lat="40.6994942" lon="16.0028154"><ele>499.5</ele><time>2026-04-19T09:43:26.367Z</time></trkpt><trkpt lat="40.6996254" lon="16.0027523"><ele>501.0</ele><time>2026-04-19T09:43:27.367Z</time></trkpt><trkpt lat="40.6997443" lon="16.0026502"><ele>502.5</ele><time>2026-04-19T09:43:28.367Z</time></trkpt><trkpt lat="40.6998306" lon="16.002507"><ele>504.0</ele><time>2026-04-19T09:43:29.367Z</time></trkpt><trkpt lat="40.6998825" lon="16.0023389"><ele>505.66666666666663</ele><time>2026-04-19T09:43:30.367Z</time></trkpt><trkpt lat="40.6998932" lon="16.0021395"><ele>507.3333333333333</ele><time>2026-04-19T09:43:31.367Z</time></trkpt><trkpt lat="40.6998714" lon="16.0019405"><ele>509.0</ele><time>2026-04-19T09:43:32.367Z</time></trkpt><trkpt lat="40.6998007" lon="16.001729"><ele>509.0</ele><time>2026-04-19T09:43:33.367Z</time></trkpt><trkpt lat="40.699701" lon="16.0014975"><ele>509.0</ele><time>2026-04-19T09:43:34.367Z</time></trkpt><trkpt lat="40.6996033" lon="16.0012385"><ele>509.0</ele><time>2026-04-19T09:43:35.367Z</time></trkpt><trkpt lat="40.6995073" lon="16.0009398"><ele>516.5</ele><time>2026-04-19T09:43:36.367Z</time></trkpt><trkpt lat="40.6994093" lon="16.0006316"><ele>524.0</ele><time>2026-04-19T09:43:37.367Z</time></trkpt><trkpt lat="40.6993376" lon="16.0003289"><ele>524.0</ele><time>2026-04-19T09:43:38.367Z</time></trkpt><trkpt lat="40.6992914" lon="16.0000217"><ele>524.0</ele><time>2026-04-19T09:43:39.367Z</time></trkpt><trkpt lat="40.6992328" lon="15.9996865"><ele>524.0</ele><time>2026-04-19T09:43:40.367Z</time></trkpt><trkpt lat="40.6991749" lon="15.9993277"><ele>524.0</ele><time>2026-04-19T09:43:41.367Z</time></trkpt><trkpt lat="40.699108" lon="15.9989196"><ele>526.5</ele><time>2026-04-19T09:43:42.367Z</time></trkpt><trkpt lat="40.699052" lon="15.9985295"><ele>529.0</ele><time>2026-04-19T09:43:43.367Z</time></trkpt><trkpt lat="40.6989957" lon="15.998173"><ele>532.5</ele><time>2026-04-19T09:43:44.367Z</time></trkpt><trkpt lat="40.6989484" lon="15.9978426"><ele>536.0</ele><time>2026-04-19T09:43:45.367Z</time></trkpt><trkpt lat="40.6989015" lon="15.9975325"><ele>537.0</ele><time>2026-04-19T09:43:46.367Z</time></trkpt><trkpt lat="40.698846" lon="15.9972286"><ele>538.0</ele><time>2026-04-19T09:43:47.367Z</time></trkpt><trkpt lat="40.6987768" lon="15.996917"><ele>538.3333333333334</ele><time>2026-04-19T09:43:48.367Z</time></trkpt><trkpt lat="40.6987024" lon="15.9966397"><ele>538.6666666666666</ele><time>2026-04-19T09:43:49.367Z</time></trkpt><trkpt lat="40.6986172" lon="15.9963742"><ele>539.0</ele><time>2026-04-19T09:43:50.367Z</time></trkpt><trkpt lat="40.6985056" lon="15.9961055"><ele>546.0</ele><time>2026-04-19T09:43:51.367Z</time></trkpt><trkpt lat="40.6983767" lon="15.9958347"><ele>553.0</ele><time>2026-04-19T09:43:52.367Z</time></trkpt><trkpt lat="40.698227" lon="15.9955524"><ele>553.0</ele><time>2026-04-19T09:43:53.367Z</time></trkpt><trkpt lat="40.6980656" lon="15.9952515"><ele>553.0</ele><time>2026-04-19T09:43:54.367Z</time></trkpt><trkpt lat="40.6978989" lon="15.9949567"><ele>553.0</ele><time>2026-04-19T09:43:55.367Z</time></trkpt><trkpt lat="40.6977568" lon="15.9946839"><ele>553.0</ele><time>2026-04-19T09:43:56.367Z</time></trkpt><trkpt lat="40.6976227" lon="15.9944295"><ele>556.6666666666667</ele><time>2026-04-19T09:43:57.366Z</time></trkpt><trkpt lat="40.6975048" lon="15.9941844"><ele>560.3333333333334</ele><time>2026-04-19T09:43:58.366Z</time></trkpt><trkpt lat="40.6973974" lon="15.9939575"><ele>564.0</ele><time>2026-04-19T09:43:59.366Z</time></trkpt><trkpt lat="40.697293" lon="15.9937583"><ele>564.0</ele><time>2026-04-19T09:44:00.366Z</time></trkpt><trkpt lat="40.6971904" lon="15.993605"><ele>564.0</ele><time>2026-04-19T09:44:01.366Z</time></trkpt><trkpt lat="40.6970794" lon="15.9934755"><ele>564.0</ele><time>2026-04-19T09:44:02.366Z</time></trkpt><trkpt lat="40.6969344" lon="15.9933443"><ele>567.5</ele><time>2026-04-19T09:44:03.366Z</time></trkpt><trkpt lat="40.6967463" lon="15.9932194"><ele>571.0</ele><time>2026-04-19T09:44:04.366Z</time></trkpt><trkpt lat="40.6965297" lon="15.9930805"><ele>571.0</ele><time>2026-04-19T09:44:05.366Z</time></trkpt><trkpt lat="40.6963208" lon="15.9929279"><ele>571.0</ele><time>2026-04-19T09:44:06.366Z</time></trkpt><trkpt lat="40.696119" lon="15.9927473"><ele>572.5</ele><time>2026-04-19T09:44:07.366Z</time></trkpt><trkpt lat="40.6959134" lon="15.9925437"><ele>574.0</ele><time>2026-04-19T09:44:08.366Z</time></trkpt><trkpt lat="40.695697" lon="15.9922983"><ele>574.5</ele><time>2026-04-19T09:44:09.366Z</time></trkpt><trkpt lat="40.6954791" lon="15.9920279"><ele>575.0</ele><time>2026-04-19T09:44:10.366Z</time></trkpt><trkpt lat="40.6952615" lon="15.9917577"><ele>577.0</ele><time>2026-04-19T09:44:11.366Z</time></trkpt><trkpt lat="40.6950505" lon="15.9914581"><ele>579.0</ele><time>2026-04-19T09:44:12.366Z</time></trkpt><trkpt lat="40.6948389" lon="15.9911649"><ele>579.0</ele><time>2026-04-19T09:44:13.366Z</time></trkpt><trkpt lat="40.6946545" lon="15.9909057"><ele>579.0</ele><time>2026-04-19T09:44:14.365Z</time></trkpt><trkpt lat="40.6944802" lon="15.9906553"><ele>584.5</ele><time>2026-04-19T09:44:15.366Z</time></trkpt><trkpt lat="40.6943114" lon="15.9903848"><ele>590.0</ele><time>2026-04-19T09:44:16.366Z</time></trkpt><trkpt lat="40.6941453" lon="15.9900993"><ele>591.5</ele><time>2026-04-19T09:44:17.366Z</time></trkpt><trkpt lat="40.6939884" lon="15.9898446"><ele>593.0</ele><time>2026-04-19T09:44:18.366Z</time></trkpt><trkpt lat="40.6938473" lon="15.9896077"><ele>593.0</ele><time>2026-04-19T09:44:19.366Z</time></trkpt><trkpt lat="40.6936866" lon="15.9893781"><ele>593.0</ele><time>2026-04-19T09:44:20.366Z</time></trkpt><trkpt lat="40.6934968" lon="15.9891563"><ele>597.0</ele><time>2026-04-19T09:44:21.366Z</time></trkpt><trkpt lat="40.6933166" lon="15.9889546"><ele>601.0</ele><time>2026-04-19T09:44:22.366Z</time></trkpt><trkpt lat="40.6931615" lon="15.9887797"><ele>605.0</ele><time>2026-04-19T09:44:23.366Z</time></trkpt><trkpt lat="40.6930342" lon="15.9886049"><ele>605.0</ele><time>2026-04-19T09:44:24.366Z</time></trkpt><trkpt lat="40.6929243" lon="15.988395"><ele>605.0</ele><time>2026-04-19T09:44:25.366Z</time></trkpt><trkpt lat="40.6928099" lon="15.9881373"><ele>605.0</ele><time>2026-04-19T09:44:26.366Z</time></trkpt><trkpt lat="40.6926856" lon="15.9878517"><ele>605.0</ele><time>2026-04-19T09:44:27.366Z</time></trkpt><trkpt lat="40.6925811" lon="15.9875881"><ele>605.0</ele><time>2026-04-19T09:44:28.366Z</time></trkpt><trkpt lat="40.6924797" lon="15.9873819"><ele>605.0</ele><time>2026-04-19T09:44:29.366Z</time></trkpt><trkpt lat="40.692393" lon="15.9872086"><ele>608.75</ele><time>2026-04-19T09:44:30.366Z</time></trkpt><trkpt lat="40.692314" lon="15.9870969"><ele>612.5</ele><time>2026-04-19T09:44:31.366Z</time></trkpt><trkpt lat="40.6922102" lon="15.9870232"><ele>616.25</ele><time>2026-04-19T09:44:32.366Z</time></trkpt><trkpt lat="40.6920892" lon="15.9870046"><ele>620.0</ele><time>2026-04-19T09:44:33.366Z</time></trkpt><trkpt lat="40.69195" lon="15.98704"><ele>621.6666666666666</ele><time>2026-04-19T09:44:34.366Z</time></trkpt><trkpt lat="40.691773" lon="15.9871274"><ele>623.3333333333334</ele><time>2026-04-19T09:44:35.366Z</time></trkpt><trkpt lat="40.6916053" lon="15.9872215"><ele>625.0</ele><time>2026-04-19T09:44:36.366Z</time></trkpt><trkpt lat="40.6914628" lon="15.9872912"><ele>625.0</ele><time>2026-04-19T09:44:37.366Z</time></trkpt><trkpt lat="40.6913237" lon="15.9873134"><ele>625.0</ele><time>2026-04-19T09:44:38.366Z</time></trkpt><trkpt lat="40.6911639" lon="15.9873169"><ele>625.0</ele><time>2026-04-19T09:44:39.366Z</time></trkpt><trkpt lat="40.6909938" lon="15.9872927"><ele>628.6666666666667</ele><time>2026-04-19T09:44:40.366Z</time></trkpt><trkpt lat="40.6908106" lon="15.9872166"><ele>632.3333333333334</ele><time>2026-04-19T09:44:41.366Z</time></trkpt><trkpt lat="40.6906019" lon="15.9871202"><ele>636.0</ele><time>2026-04-19T09:44:42.366Z</time></trkpt><trkpt lat="40.6903941" lon="15.98701"><ele>636.3333333333334</ele><time>2026-04-19T09:44:43.366Z</time></trkpt><trkpt lat="40.6902171" lon="15.986927"><ele>636.6666666666667</ele><time>2026-04-19T09:44:44.365Z</time></trkpt><trkpt lat="40.6900726" lon="15.9868498"><ele>637.0</ele><time>2026-04-19T09:44:45.366Z</time></trkpt><trkpt lat="40.6899487" lon="15.9867513"><ele>639.75</ele><time>2026-04-19T09:44:46.366Z</time></trkpt><trkpt lat="40.6898648" lon="15.9866147"><ele>642.5</ele><time>2026-04-19T09:44:47.366Z</time></trkpt><trkpt lat="40.6898023" lon="15.9864803"><ele>645.25</ele><time>2026-04-19T09:44:48.366Z</time></trkpt><trkpt lat="40.6897703" lon="15.9862975"><ele>648.0</ele><time>2026-04-19T09:44:49.366Z</time></trkpt><trkpt lat="40.6897505" lon="15.9860697"><ele>650.3333333333334</ele><time>2026-04-19T09:44:50.366Z</time></trkpt><trkpt lat="40.6897508" lon="15.9858138"><ele>652.6666666666667</ele><time>2026-04-19T09:44:51.366Z</time></trkpt><trkpt lat="40.6897496" lon="15.985521"><ele>655.0</ele><time>2026-04-19T09:44:52.366Z</time></trkpt><trkpt lat="40.689734" lon="15.9852341"><ele>658.3333333333334</ele><time>2026-04-19T09:44:53.366Z</time></trkpt><trkpt lat="40.6897349" lon="15.9849878"><ele>661.6666666666666</ele><time>2026-04-19T09:44:54.366Z</time></trkpt><trkpt lat="40.6897251" lon="15.9847777"><ele>665.0</ele><time>2026-04-19T09:44:55.366Z</time></trkpt><trkpt lat="40.6897015" lon="15.9846074"><ele>665.0</ele><time>2026-04-19T09:44:56.366Z</time></trkpt><trkpt lat="40.6896441" lon="15.9844655"><ele>665.0</ele><time>2026-04-19T09:44:57.366Z</time></trkpt><trkpt lat="40.6895558" lon="15.9843376"><ele>665.0</ele><time>2026-04-19T09:44:58.366Z</time></trkpt><trkpt lat="40.6894446" lon="15.984254"><ele>665.0</ele><time>2026-04-19T09:44:59.366Z</time></trkpt><trkpt lat="40.6893302" lon="15.9841992"><ele>668.3333333333333</ele><time>2026-04-19T09:45:00.366Z</time></trkpt><trkpt lat="40.6891973" lon="15.9841835"><ele>671.6666666666666</ele><time>2026-04-19T09:45:01.366Z</time></trkpt><trkpt lat="40.6890414" lon="15.9841924"><ele>675.0</ele><time>2026-04-19T09:45:02.366Z</time></trkpt><trkpt lat="40.6888635" lon="15.984214"><ele>675.0</ele><time>2026-04-19T09:45:03.366Z</time></trkpt><trkpt lat="40.6886935" lon="15.9842331"><ele>675.0</ele><time>2026-04-19T09:45:04.366Z</time></trkpt><trkpt lat="40.6885519" lon="15.9842405"><ele>675.0</ele><time>2026-04-19T09:45:05.366Z</time></trkpt><trkpt lat="40.6884248" lon="15.9842425"><ele>675.0</ele><time>2026-04-19T09:45:06.366Z</time></trkpt><trkpt lat="40.6882965" lon="15.9842485"><ele>677.0</ele><time>2026-04-19T09:45:07.366Z</time></trkpt><trkpt lat="40.6881522" lon="15.9842613"><ele>679.0</ele><time>2026-04-19T09:45:08.366Z</time></trkpt><trkpt lat="40.6880027" lon="15.9842697"><ele>681.0</ele><time>2026-04-19T09:45:09.366Z</time></trkpt><trkpt lat="40.6878702" lon="15.9842672"><ele>683.0</ele><time>2026-04-19T09:45:10.366Z</time></trkpt><trkpt lat="40.687744" lon="15.9842308"><ele>685.0</ele><time>2026-04-19T09:45:11.365Z</time></trkpt><trkpt lat="40.6876152" lon="15.9841807"><ele>687.0</ele><time>2026-04-19T09:45:12.366Z</time></trkpt><trkpt lat="40.6874828" lon="15.9841063"><ele>689.0</ele><time>2026-04-19T09:45:13.366Z</time></trkpt><trkpt lat="40.6873372" lon="15.9840052"><ele>691.0</ele><time>2026-04-19T09:45:14.366Z</time></trkpt><trkpt lat="40.6871903" lon="15.9838903"><ele>695.0</ele><time>2026-04-19T09:45:15.366Z</time></trkpt><trkpt lat="40.6870385" lon="15.9837765"><ele>699.0</ele><time>2026-04-19T09:45:16.366Z</time></trkpt><trkpt lat="40.6868882" lon="15.9836664"><ele>703.0</ele><time>2026-04-19T09:45:17.366Z</time></trkpt><trkpt lat="40.6867399" lon="15.9835594"><ele>703.0</ele><time>2026-04-19T09:45:18.366Z</time></trkpt><trkpt lat="40.6866089" lon="15.9834561"><ele>703.0</ele><time>2026-04-19T09:45:19.366Z</time></trkpt><trkpt lat="40.6864836" lon="15.9833087"><ele>703.0</ele><time>2026-04-19T09:45:20.366Z</time></trkpt><trkpt lat="40.6863802" lon="15.9831214"><ele>707.6666666666667</ele><time>2026-04-19T09:45:21.366Z</time></trkpt><trkpt lat="40.6862975" lon="15.9829136"><ele>712.3333333333334</ele><time>2026-04-19T09:45:22.366Z</time></trkpt><trkpt lat="40.6862475" lon="15.9827031"><ele>717.0</ele><time>2026-04-19T09:45:23.366Z</time></trkpt><trkpt lat="40.6862294" lon="15.982478"><ele>720.0</ele><time>2026-04-19T09:45:24.366Z</time></trkpt><trkpt lat="40.686248" lon="15.982231"><ele>723.0</ele><time>2026-04-19T09:45:25.366Z</time></trkpt><trkpt lat="40.686284" lon="15.9819614"><ele>726.0</ele><time>2026-04-19T09:45:26.366Z</time></trkpt><trkpt lat="40.6863151" lon="15.9816651"><ele>729.5</ele><time>2026-04-19T09:45:27.366Z</time></trkpt><trkpt lat="40.686341" lon="15.9813657"><ele>733.0</ele><time>2026-04-19T09:45:28.366Z</time></trkpt><trkpt lat="40.6863577" lon="15.9810665"><ele>734.5</ele><time>2026-04-19T09:45:29.366Z</time></trkpt><trkpt lat="40.6863517" lon="15.9807703"><ele>736.0</ele><time>2026-04-19T09:45:30.366Z</time></trkpt><trkpt lat="40.6863275" lon="15.9804662"><ele>736.0</ele><time>2026-04-19T09:45:31.366Z</time></trkpt><trkpt lat="40.6862824" lon="15.9801563"><ele>736.0</ele><time>2026-04-19T09:45:32.366Z</time></trkpt><trkpt lat="40.6862361" lon="15.9798879"><ele>736.0</ele><time>2026-04-19T09:45:33.366Z</time></trkpt><trkpt lat="40.6861869" lon="15.9796712"><ele>736.3333333333334</ele><time>2026-04-19T09:45:34.366Z</time></trkpt><trkpt lat="40.6861155" lon="15.9794931"><ele>736.6666666666666</ele><time>2026-04-19T09:45:35.366Z</time></trkpt><trkpt lat="40.6860202" lon="15.9793331"><ele>737.0</ele><time>2026-04-19T09:45:36.366Z</time></trkpt><trkpt lat="40.6858839" lon="15.9792304"><ele>744.0</ele><time>2026-04-19T09:45:37.366Z</time></trkpt><trkpt lat="40.6857251" lon="15.9791469"><ele>751.0</ele><time>2026-04-19T09:45:38.366Z</time></trkpt><trkpt lat="40.6855614" lon="15.9791011"><ele>758.0</ele><time>2026-04-19T09:45:39.366Z</time></trkpt><trkpt lat="40.6853912" lon="15.9790797"><ele>763.6666666666666</ele><time>2026-04-19T09:45:40.366Z</time></trkpt><trkpt lat="40.6852431" lon="15.97903"><ele>769.3333333333333</ele><time>2026-04-19T09:45:41.366Z</time></trkpt><trkpt lat="40.6851122" lon="15.9789212"><ele>775.0</ele><time>2026-04-19T09:45:42.366Z</time></trkpt><trkpt lat="40.6849942" lon="15.9787684"><ele>775.0</ele><time>2026-04-19T09:45:43.366Z</time></trkpt><trkpt lat="40.6849031" lon="15.9785594"><ele>775.0</ele><time>2026-04-19T09:45:44.366Z</time></trkpt><trkpt lat="40.6848542" lon="15.9783062"><ele>775.0</ele><time>2026-04-19T09:45:45.366Z</time></trkpt><trkpt lat="40.6848271" lon="15.9780091"><ele>774.0</ele><time>2026-04-19T09:45:46.366Z</time></trkpt><trkpt lat="40.6848056" lon="15.9777059"><ele>773.0</ele><time>2026-04-19T09:45:47.366Z</time></trkpt><trkpt lat="40.6847854" lon="15.9774161"><ele>773.0</ele><time>2026-04-19T09:45:48.366Z</time></trkpt><trkpt lat="40.6847664" lon="15.9771771"><ele>773.0</ele><time>2026-04-19T09:45:49.366Z</time></trkpt><trkpt lat="40.6847384" lon="15.976972"><ele>773.0</ele><time>2026-04-19T09:45:50.366Z</time></trkpt><trkpt lat="40.6846862" lon="15.9767831"><ele>775.3333333333334</ele><time>2026-04-19T09:45:51.366Z</time></trkpt><trkpt lat="40.6845992" lon="15.9765917"><ele>777.6666666666667</ele><time>2026-04-19T09:45:52.366Z</time></trkpt><trkpt lat="40.6844876" lon="15.9764489"><ele>780.0</ele><time>2026-04-19T09:45:53.366Z</time></trkpt><trkpt lat="40.6843573" lon="15.976345"><ele>784.6666666666667</ele><time>2026-04-19T09:45:54.366Z</time></trkpt><trkpt lat="40.6842231" lon="15.9762758"><ele>789.3333333333334</ele><time>2026-04-19T09:45:55.366Z</time></trkpt><trkpt lat="40.6840686" lon="15.9762652"><ele>794.0</ele><time>2026-04-19T09:45:56.366Z</time></trkpt><trkpt lat="40.6839026" lon="15.9763258"><ele>794.0</ele><time>2026-04-19T09:45:57.366Z</time></trkpt><trkpt lat="40.6837292" lon="15.9764346"><ele>794.0</ele><time>2026-04-19T09:45:58.366Z</time></trkpt><trkpt lat="40.6835448" lon="15.9765792"><ele>794.0</ele><time>2026-04-19T09:45:59.366Z</time></trkpt><trkpt lat="40.6833853" lon="15.9767431"><ele>796.6666666666667</ele><time>2026-04-19T09:46:00.366Z</time></trkpt><trkpt lat="40.6832346" lon="15.9768911"><ele>799.3333333333333</ele><time>2026-04-19T09:46:01.366Z</time></trkpt><trkpt lat="40.6830704" lon="15.9770301"><ele>802.0</ele><time>2026-04-19T09:46:02.366Z</time></trkpt><trkpt lat="40.6829076" lon="15.9771356"><ele>806.3333333333333</ele><time>2026-04-19T09:46:03.366Z</time></trkpt><trkpt lat="40.6827395" lon="15.97721"><ele>810.6666666666667</ele><time>2026-04-19T09:46:04.366Z</time></trkpt><trkpt lat="40.6825641" lon="15.9772428"><ele>815.0</ele><time>2026-04-19T09:46:05.366Z</time></trkpt><trkpt lat="40.6823659" lon="15.9772461"><ele>815.0</ele><time>2026-04-19T09:46:06.366Z</time></trkpt><trkpt lat="40.6821474" lon="15.9771912"><ele>815.0</ele><time>2026-04-19T09:46:07.366Z</time></trkpt><trkpt lat="40.6819105" lon="15.977118"><ele>817.5</ele><time>2026-04-19T09:46:08.366Z</time></trkpt><trkpt lat="40.6816385" lon="15.9770346"><ele>820.0</ele><time>2026-04-19T09:46:09.366Z</time></trkpt><trkpt lat="40.681365" lon="15.9769519"><ele>820.0</ele><time>2026-04-19T09:46:10.366Z</time></trkpt><trkpt lat="40.6811141" lon="15.97688"><ele>820.0</ele><time>2026-04-19T09:46:11.366Z</time></trkpt><trkpt lat="40.680881" lon="15.9768134"><ele>821.3333333333333</ele><time>2026-04-19T09:46:12.366Z</time></trkpt><trkpt lat="40.6806627" lon="15.9767328"><ele>822.6666666666667</ele><time>2026-04-19T09:46:13.366Z</time></trkpt><trkpt lat="40.6804549" lon="15.9766745"><ele>824.0</ele><time>2026-04-19T09:46:14.366Z</time></trkpt><trkpt lat="40.6802589" lon="15.9766083"><ele>825.3333333333334</ele><time>2026-04-19T09:46:15.366Z</time></trkpt><trkpt lat="40.6800475" lon="15.976534"><ele>826.6666666666667</ele><time>2026-04-19T09:46:16.366Z</time></trkpt><trkpt lat="40.6798309" lon="15.9764485"><ele>828.0</ele><time>2026-04-19T09:46:17.366Z</time></trkpt><trkpt lat="40.6796186" lon="15.9763533"><ele>827.0</ele><time>2026-04-19T09:46:18.366Z</time></trkpt><trkpt lat="40.6794006" lon="15.9762391"><ele>826.0</ele><time>2026-04-19T09:46:19.366Z</time></trkpt><trkpt lat="40.6791504" lon="15.9761416"><ele>826.0</ele><time>2026-04-19T09:46:20.366Z</time></trkpt><trkpt lat="40.6788481" lon="15.9760747"><ele>826.0</ele><time>2026-04-19T09:46:21.366Z</time></trkpt><trkpt lat="40.6785501" lon="15.9760282"><ele>826.5</ele><time>2026-04-19T09:46:22.366Z</time></trkpt><trkpt lat="40.6782642" lon="15.9759629"><ele>827.0</ele><time>2026-04-19T09:46:23.366Z</time></trkpt><trkpt lat="40.6779847" lon="15.9759064"><ele>829.0</ele><time>2026-04-19T09:46:24.365Z</time></trkpt><trkpt lat="40.677726" lon="15.9758319"><ele>831.0</ele><time>2026-04-19T09:46:25.366Z</time></trkpt><trkpt lat="40.6774649" lon="15.97574"><ele>831.0</ele><time>2026-04-19T09:46:26.366Z</time></trkpt><trkpt lat="40.6771936" lon="15.9756363"><ele>831.0</ele><time>2026-04-19T09:46:27.366Z</time></trkpt><trkpt lat="40.6769161" lon="15.9755101"><ele>832.0</ele><time>2026-04-19T09:46:28.366Z</time></trkpt><trkpt lat="40.6766502" lon="15.9753516"><ele>833.0</ele><time>2026-04-19T09:46:29.366Z</time></trkpt><trkpt lat="40.6764009" lon="15.9751932"><ele>833.0</ele><time>2026-04-19T09:46:30.366Z</time></trkpt><trkpt lat="40.6761716" lon="15.9750394"><ele>833.0</ele><time>2026-04-19T09:46:31.366Z</time></trkpt><trkpt lat="40.6759178" lon="15.9749191"><ele>835.5</ele><time>2026-04-19T09:46:32.366Z</time></trkpt><trkpt lat="40.6756411" lon="15.9748174"><ele>838.0</ele><time>2026-04-19T09:46:33.366Z</time></trkpt><trkpt lat="40.6753376" lon="15.9747292"><ele>841.0</ele><time>2026-04-19T09:46:34.366Z</time></trkpt><trkpt lat="40.6750188" lon="15.974631"><ele>844.0</ele><time>2026-04-19T09:46:35.366Z</time></trkpt><trkpt lat="40.6747067" lon="15.9745258"><ele>847.0</ele><time>2026-04-19T09:46:36.366Z</time></trkpt><trkpt lat="40.6744108" lon="15.974421"><ele>850.0</ele><time>2026-04-19T09:46:37.366Z</time></trkpt><trkpt lat="40.6741369" lon="15.9743238"><ele>850.0</ele><time>2026-04-19T09:46:38.366Z</time></trkpt><trkpt lat="40.6738792" lon="15.9742464"><ele>850.0</ele><time>2026-04-19T09:46:39.366Z</time></trkpt><trkpt lat="40.6736369" lon="15.9741664"><ele>852.5</ele><time>2026-04-19T09:46:40.366Z</time></trkpt><trkpt lat="40.6734028" lon="15.9740886"><ele>855.0</ele><time>2026-04-19T09:46:41.366Z</time></trkpt><trkpt lat="40.6731627" lon="15.9739861"><ele>855.0</ele><time>2026-04-19T09:46:42.366Z</time></trkpt><trkpt lat="40.6729111" lon="15.9738561"><ele>855.0</ele><time>2026-04-19T09:46:43.366Z</time></trkpt><trkpt lat="40.6726475" lon="15.9737202"><ele>856.0</ele><time>2026-04-19T09:46:44.366Z</time></trkpt><trkpt lat="40.6723547" lon="15.9735762"><ele>857.0</ele><time>2026-04-19T09:46:45.366Z</time></trkpt><trkpt lat="40.6720666" lon="15.9734423"><ele>859.0</ele><time>2026-04-19T09:46:46.366Z</time></trkpt><trkpt lat="40.6718168" lon="15.9733202"><ele>861.0</ele><time>2026-04-19T09:46:47.366Z</time></trkpt><trkpt lat="40.6716204" lon="15.9732197"><ele>861.0</ele><time>2026-04-19T09:46:48.366Z</time></trkpt><trkpt lat="40.671481" lon="15.9731464"><ele>860.9999999999999</ele><time>2026-04-19T09:46:49.366Z</time></trkpt><trkpt lat="40.6713707" lon="15.9730743"><ele>860.9999999999999</ele><time>2026-04-19T09:46:50.366Z</time></trkpt><trkpt lat="40.6713016" lon="15.9730012"><ele>861.0</ele><time>2026-04-19T09:46:51.366Z</time></trkpt><trkpt lat="40.6712456" lon="15.9729194"><ele>861.0</ele><time>2026-04-19T09:46:52.366Z</time></trkpt><trkpt lat="40.6712117" lon="15.972836"><ele>861.0</ele><time>2026-04-19T09:46:53.366Z</time></trkpt><trkpt lat="40.6711843" lon="15.972745"><ele>860.9999999999999</ele><time>2026-04-19T09:46:54.366Z</time></trkpt><trkpt lat="40.671172" lon="15.9726372"><ele>860.9999999999999</ele><time>2026-04-19T09:46:55.366Z</time></trkpt><trkpt lat="40.6711726" lon="15.9724922"><ele>861.0</ele><time>2026-04-19T09:46:56.366Z</time></trkpt><trkpt lat="40.6711761" lon="15.972304"><ele>861.0</ele><time>2026-04-19T09:46:57.366Z</time></trkpt><trkpt lat="40.6711764" lon="15.9721108"><ele>860.75</ele><time>2026-04-19T09:46:58.366Z</time></trkpt><trkpt lat="40.6711599" lon="15.9719322"><ele>860.5</ele><time>2026-04-19T09:46:59.366Z</time></trkpt><trkpt lat="40.6711119" lon="15.9717796"><ele>860.25</ele><time>2026-04-19T09:47:00.366Z</time></trkpt><trkpt lat="40.6710306" lon="15.9716093"><ele>860.0</ele><time>2026-04-19T09:47:01.366Z</time></trkpt><trkpt lat="40.6709289" lon="15.9714268"><ele>860.3333333333334</ele><time>2026-04-19T09:47:02.366Z</time></trkpt><trkpt lat="40.6708256" lon="15.9712024"><ele>860.6666666666667</ele><time>2026-04-19T09:47:03.366Z</time></trkpt><trkpt lat="40.6707502" lon="15.9709859"><ele>861.0</ele><time>2026-04-19T09:47:04.366Z</time></trkpt><trkpt lat="40.670711" lon="15.9707921"><ele>861.0</ele><time>2026-04-19T09:47:05.366Z</time></trkpt><trkpt lat="40.6707034" lon="15.9705733"><ele>861.0</ele><time>2026-04-19T09:47:06.366Z</time></trkpt><trkpt lat="40.6707221" lon="15.9703305"><ele>861.0</ele><time>2026-04-19T09:47:07.366Z</time></trkpt><trkpt lat="40.6707687" lon="15.9700619"><ele>860.6666666666667</ele><time>2026-04-19T09:47:08.366Z</time></trkpt><trkpt lat="40.6708156" lon="15.9698083"><ele>860.3333333333334</ele><time>2026-04-19T09:47:09.366Z</time></trkpt><trkpt lat="40.6708545" lon="15.9696265"><ele>860.0</ele><time>2026-04-19T09:47:10.366Z</time></trkpt><trkpt lat="40.6708567" lon="15.9694207"><ele>860.0</ele><time>2026-04-19T09:47:11.366Z</time></trkpt><trkpt lat="40.6708277" lon="15.9692155"><ele>860.0</ele><time>2026-04-19T09:47:12.366Z</time></trkpt><trkpt lat="40.6707906" lon="15.9690221"><ele>860.0</ele><time>2026-04-19T09:47:13.366Z</time></trkpt><trkpt lat="40.6707582" lon="15.9688179"><ele>859.0</ele><time>2026-04-19T09:47:14.366Z</time></trkpt><trkpt lat="40.6707425" lon="15.9686389"><ele>858.0</ele><time>2026-04-19T09:47:15.366Z</time></trkpt><trkpt lat="40.6707672" lon="15.9683888"><ele>857.0</ele><time>2026-04-19T09:47:16.366Z</time></trkpt><trkpt lat="40.6708173" lon="15.9681054"><ele>855.3333333333334</ele><time>2026-04-19T09:47:17.366Z</time></trkpt><trkpt lat="40.6708549" lon="15.9678969"><ele>853.6666666666667</ele><time>2026-04-19T09:47:18.366Z</time></trkpt><trkpt lat="40.6709118" lon="15.9677123"><ele>852.0</ele><time>2026-04-19T09:47:19.366Z</time></trkpt><trkpt lat="40.6710077" lon="15.9675555"><ele>851.5</ele><time>2026-04-19T09:47:20.366Z</time></trkpt><trkpt lat="40.6711011" lon="15.9674406"><ele>851.0</ele><time>2026-04-19T09:47:21.366Z</time></trkpt><trkpt lat="40.6711705" lon="15.9673162"><ele>850.5</ele><time>2026-04-19T09:47:22.366Z</time></trkpt><trkpt lat="40.6712006" lon="15.9671719"><ele>850.0</ele><time>2026-04-19T09:47:23.366Z</time></trkpt><trkpt lat="40.6712014" lon="15.9669664"><ele>847.0</ele><time>2026-04-19T09:47:24.366Z</time></trkpt><trkpt lat="40.6711767" lon="15.9667079"><ele>844.0</ele><time>2026-04-19T09:47:25.366Z</time></trkpt><trkpt lat="40.6711522" lon="15.9664204"><ele>841.0</ele><time>2026-04-19T09:47:26.366Z</time></trkpt><trkpt lat="40.6711253" lon="15.9661393"><ele>843.3333333333333</ele><time>2026-04-19T09:47:27.366Z</time></trkpt><trkpt lat="40.6711043" lon="15.9658873"><ele>845.6666666666667</ele><time>2026-04-19T09:47:28.365Z</time></trkpt><trkpt lat="40.671076" lon="15.9656653"><ele>848.0</ele><time>2026-04-19T09:47:29.365Z</time></trkpt><trkpt lat="40.6710174" lon="15.9654554"><ele>848.0</ele><time>2026-04-19T09:47:30.365Z</time></trkpt><trkpt lat="40.6709137" lon="15.9652221"><ele>848.0</ele><time>2026-04-19T09:47:31.365Z</time></trkpt><trkpt lat="40.6707882" lon="15.964947"><ele>848.0</ele><time>2026-04-19T09:47:32.365Z</time></trkpt><trkpt lat="40.6706918" lon="15.9647053"><ele>845.3333333333334</ele><time>2026-04-19T09:47:33.365Z</time></trkpt><trkpt lat="40.6706026" lon="15.9645"><ele>842.6666666666667</ele><time>2026-04-19T09:47:34.365Z</time></trkpt><trkpt lat="40.6704957" lon="15.9643422"><ele>840.0</ele><time>2026-04-19T09:47:35.365Z</time></trkpt><trkpt lat="40.6703884" lon="15.9642116"><ele>840.0</ele><time>2026-04-19T09:47:36.365Z</time></trkpt><trkpt lat="40.6702837" lon="15.96409"><ele>840.0</ele><time>2026-04-19T09:47:37.365Z</time></trkpt><trkpt lat="40.6701918" lon="15.9639768"><ele>840.0</ele><time>2026-04-19T09:47:38.365Z</time></trkpt><trkpt lat="40.6701127" lon="15.9638606"><ele>840.0</ele><time>2026-04-19T09:47:39.365Z</time></trkpt><trkpt lat="40.6700397" lon="15.9637452"><ele>840.0</ele><time>2026-04-19T09:47:40.365Z</time></trkpt><trkpt lat="40.6699761" lon="15.9636375"><ele>840.0</ele><time>2026-04-19T09:47:41.365Z</time></trkpt><trkpt lat="40.6699316" lon="15.9635513"><ele>840.0</ele><time>2026-04-19T09:47:42.365Z</time></trkpt><trkpt lat="40.6698594" lon="15.9635038"><ele>840.0</ele><time>2026-04-19T09:47:44.365Z</time></trkpt><trkpt lat="40.6698125" lon="15.9635943"><ele>840.0</ele><time>2026-04-19T09:47:49.365Z</time></trkpt><trkpt lat="40.6698236" lon="15.9637164"><ele>840.0</ele><time>2026-04-19T09:47:51.365Z</time></trkpt><trkpt lat="40.669812" lon="15.9638294"><ele>840.0</ele><time>2026-04-19T09:47:52.365Z</time></trkpt><trkpt lat="40.6697952" lon="15.9639714"><ele>840.0</ele><time>2026-04-19T09:47:53.365Z</time></trkpt><trkpt lat="40.6697648" lon="15.9641455"><ele>840.0</ele><time>2026-04-19T09:47:54.365Z</time></trkpt><trkpt lat="40.6697364" lon="15.96429"><ele>840.0</ele><time>2026-04-19T09:47:55.365Z</time></trkpt><trkpt lat="40.6696974" lon="15.9644109"><ele>841.25</ele><time>2026-04-19T09:47:56.365Z</time></trkpt><trkpt lat="40.6696349" lon="15.9645197"><ele>842.5</ele><time>2026-04-19T09:47:57.365Z</time></trkpt><trkpt lat="40.6695382" lon="15.9646039"><ele>843.75</ele><time>2026-04-19T09:47:58.365Z</time></trkpt><trkpt lat="40.6694307" lon="15.9646787"><ele>845.0</ele><time>2026-04-19T09:47:59.365Z</time></trkpt><trkpt lat="40.6693091" lon="15.9647015"><ele>845.0</ele><time>2026-04-19T09:48:00.365Z</time></trkpt><trkpt lat="40.6691783" lon="15.964696"><ele>845.0</ele><time>2026-04-19T09:48:01.365Z</time></trkpt><trkpt lat="40.6690444" lon="15.9646559"><ele>845.0</ele><time>2026-04-19T09:48:02.365Z</time></trkpt><trkpt lat="40.6688959" lon="15.9646013"><ele>845.0</ele><time>2026-04-19T09:48:03.365Z</time></trkpt><trkpt lat="40.6687407" lon="15.9645842"><ele>846.3333333333334</ele><time>2026-04-19T09:48:04.365Z</time></trkpt><trkpt lat="40.6685846" lon="15.9646147"><ele>847.6666666666667</ele><time>2026-04-19T09:48:05.365Z</time></trkpt><trkpt lat="40.6684191" lon="15.9646914"><ele>849.0</ele><time>2026-04-19T09:48:06.365Z</time></trkpt><trkpt lat="40.6682181" lon="15.9647769"><ele>849.0</ele><time>2026-04-19T09:48:07.365Z</time></trkpt><trkpt lat="40.6679967" lon="15.9648733"><ele>849.0</ele><time>2026-04-19T09:48:08.365Z</time></trkpt><trkpt lat="40.6677817" lon="15.964967"><ele>850.6666666666667</ele><time>2026-04-19T09:48:09.365Z</time></trkpt><trkpt lat="40.6676073" lon="15.9650577"><ele>852.3333333333334</ele><time>2026-04-19T09:48:10.365Z</time></trkpt><trkpt lat="40.6674632" lon="15.9651558"><ele>854.0</ele><time>2026-04-19T09:48:11.365Z</time></trkpt><trkpt lat="40.6673452" lon="15.9652923"><ele>854.0</ele><time>2026-04-19T09:48:12.365Z</time></trkpt><trkpt lat="40.6672491" lon="15.9654686"><ele>854.0</ele><time>2026-04-19T09:48:13.365Z</time></trkpt><trkpt lat="40.6671699" lon="15.9656769"><ele>854.0</ele><time>2026-04-19T09:48:14.365Z</time></trkpt><trkpt lat="40.6671177" lon="15.9659342"><ele>859.0</ele><time>2026-04-19T09:48:15.365Z</time></trkpt><trkpt lat="40.6670669" lon="15.9662192"><ele>864.0</ele><time>2026-04-19T09:48:16.365Z</time></trkpt><trkpt lat="40.6670034" lon="15.9665558"><ele>857.5</ele><time>2026-04-19T09:48:17.365Z</time></trkpt><trkpt lat="40.6669381" lon="15.9668811"><ele>851.0</ele><time>2026-04-19T09:48:18.365Z</time></trkpt><trkpt lat="40.6668786" lon="15.9671754"><ele>851.0</ele><time>2026-04-19T09:48:19.365Z</time></trkpt><trkpt lat="40.6668196" lon="15.967425"><ele>851.0</ele><time>2026-04-19T09:48:20.365Z</time></trkpt><trkpt lat="40.6667629" lon="15.9676334"><ele>851.0</ele><time>2026-04-19T09:48:21.365Z</time></trkpt><trkpt lat="40.6666719" lon="15.967827"><ele>853.3333333333334</ele><time>2026-04-19T09:48:22.365Z</time></trkpt><trkpt lat="40.6665491" lon="15.9680259"><ele>855.6666666666667</ele><time>2026-04-19T09:48:23.365Z</time></trkpt><trkpt lat="40.6663918" lon="15.9682314"><ele>858.0</ele><time>2026-04-19T09:48:24.365Z</time></trkpt><trkpt lat="40.6662083" lon="15.9684668"><ele>856.5</ele><time>2026-04-19T09:48:25.365Z</time></trkpt><trkpt lat="40.6660228" lon="15.9687279"><ele>855.0</ele><time>2026-04-19T09:48:26.365Z</time></trkpt><trkpt lat="40.6658379" lon="15.9689775"><ele>859.0</ele><time>2026-04-19T09:48:27.365Z</time></trkpt><trkpt lat="40.6656438" lon="15.9692628"><ele>863.0</ele><time>2026-04-19T09:48:28.365Z</time></trkpt><trkpt lat="40.6654515" lon="15.9695711"><ele>863.0</ele><time>2026-04-19T09:48:29.365Z</time></trkpt><trkpt lat="40.6652744" lon="15.9698688"><ele>863.0</ele><time>2026-04-19T09:48:30.364Z</time></trkpt><trkpt lat="40.6651047" lon="15.9701299"><ele>863.0</ele><time>2026-04-19T09:48:31.365Z</time></trkpt><trkpt lat="40.6649594" lon="15.9703519"><ele>863.0</ele><time>2026-04-19T09:48:32.365Z</time></trkpt><trkpt lat="40.6648531" lon="15.970541"><ele>863.0</ele><time>2026-04-19T09:48:33.365Z</time></trkpt><trkpt lat="40.6647645" lon="15.9706667"><ele>863.0</ele><time>2026-04-19T09:48:34.365Z</time></trkpt><trkpt lat="40.6646783" lon="15.9707945"><ele>863.0</ele><time>2026-04-19T09:48:35.365Z</time></trkpt><trkpt lat="40.6645748" lon="15.970858"><ele>863.0</ele><time>2026-04-19T09:48:36.365Z</time></trkpt><trkpt lat="40.6644595" lon="15.9708667"><ele>863.0</ele><time>2026-04-19T09:48:37.365Z</time></trkpt><trkpt lat="40.6643458" lon="15.9708499"><ele>861.75</ele><time>2026-04-19T09:48:38.365Z</time></trkpt><trkpt lat="40.664254" lon="15.9707755"><ele>860.5</ele><time>2026-04-19T09:48:39.365Z</time></trkpt><trkpt lat="40.6641987" lon="15.9706364"><ele>859.25</ele><time>2026-04-19T09:48:40.365Z</time></trkpt><trkpt lat="40.6641887" lon="15.9704548"><ele>858.0</ele><time>2026-04-19T09:48:41.365Z</time></trkpt><trkpt lat="40.664211" lon="15.9702177"><ele>859.0</ele><time>2026-04-19T09:48:42.365Z</time></trkpt><trkpt lat="40.6642289" lon="15.9699799"><ele>860.0</ele><time>2026-04-19T09:48:43.365Z</time></trkpt><trkpt lat="40.664227" lon="15.9697666"><ele>861.0</ele><time>2026-04-19T09:48:44.365Z</time></trkpt><trkpt lat="40.6642146" lon="15.9695764"><ele>861.0</ele><time>2026-04-19T09:48:45.365Z</time></trkpt><trkpt lat="40.6641569" lon="15.9693894"><ele>861.0</ele><time>2026-04-19T09:48:46.365Z</time></trkpt><trkpt lat="40.6640889" lon="15.9692098"><ele>861.0</ele><time>2026-04-19T09:48:47.365Z</time></trkpt><trkpt lat="40.6640127" lon="15.9690589"><ele>861.0</ele><time>2026-04-19T09:48:48.365Z</time></trkpt><trkpt lat="40.6639137" lon="15.968929"><ele>861.0</ele><time>2026-04-19T09:48:49.365Z</time></trkpt><trkpt lat="40.6637296" lon="15.9688118"><ele>861.0</ele><time>2026-04-19T09:48:50.365Z</time></trkpt><trkpt lat="40.6635169" lon="15.9686802"><ele>861.0</ele><time>2026-04-19T09:48:51.365Z</time></trkpt><trkpt lat="40.6633063" lon="15.9685428"><ele>862.0</ele><time>2026-04-19T09:48:52.365Z</time></trkpt><trkpt lat="40.6631034" lon="15.9684134"><ele>863.0</ele><time>2026-04-19T09:48:53.365Z</time></trkpt><trkpt lat="40.6629391" lon="15.9682953"><ele>864.0</ele><time>2026-04-19T09:48:54.365Z</time></trkpt><trkpt lat="40.6627826" lon="15.968158"><ele>866.6666666666667</ele><time>2026-04-19T09:48:55.365Z</time></trkpt><trkpt lat="40.6626506" lon="15.9679848"><ele>869.3333333333334</ele><time>2026-04-19T09:48:56.365Z</time></trkpt><trkpt lat="40.6625239" lon="15.9677785"><ele>872.0</ele><time>2026-04-19T09:48:57.365Z</time></trkpt><trkpt lat="40.6623888" lon="15.9675342"><ele>870.3333333333334</ele><time>2026-04-19T09:48:58.365Z</time></trkpt><trkpt lat="40.6622647" lon="15.9673188"><ele>868.6666666666667</ele><time>2026-04-19T09:48:59.365Z</time></trkpt><trkpt lat="40.6621593" lon="15.9671335"><ele>867.0</ele><time>2026-04-19T09:49:00.365Z</time></trkpt><trkpt lat="40.662054" lon="15.9669908"><ele>870.3333333333333</ele><time>2026-04-19T09:49:01.365Z</time></trkpt><trkpt lat="40.6619255" lon="15.9668914"><ele>873.6666666666666</ele><time>2026-04-19T09:49:02.365Z</time></trkpt><trkpt lat="40.6617649" lon="15.9668093"><ele>877.0</ele><time>2026-04-19T09:49:03.365Z</time></trkpt><trkpt lat="40.6615858" lon="15.9667523"><ele>877.0</ele><time>2026-04-19T09:49:04.365Z</time></trkpt><trkpt lat="40.6613753" lon="15.9666973"><ele>877.0</ele><time>2026-04-19T09:49:05.365Z</time></trkpt><trkpt lat="40.6611432" lon="15.9666343"><ele>876.5</ele><time>2026-04-19T09:49:06.365Z</time></trkpt><trkpt lat="40.6608972" lon="15.9665615"><ele>876.0</ele><time>2026-04-19T09:49:07.365Z</time></trkpt><trkpt lat="40.6606702" lon="15.9664968"><ele>876.0</ele><time>2026-04-19T09:49:08.365Z</time></trkpt><trkpt lat="40.6604573" lon="15.9664323"><ele>876.0</ele><time>2026-04-19T09:49:09.365Z</time></trkpt><trkpt lat="40.6602629" lon="15.9663497"><ele>876.0</ele><time>2026-04-19T09:49:10.365Z</time></trkpt><trkpt lat="40.6600833" lon="15.9662553"><ele>876.6666666666667</ele><time>2026-04-19T09:49:11.365Z</time></trkpt><trkpt lat="40.659901" lon="15.96616"><ele>877.3333333333334</ele><time>2026-04-19T09:49:12.365Z</time></trkpt><trkpt lat="40.6597228" lon="15.9660205"><ele>878.0</ele><time>2026-04-19T09:49:13.365Z</time></trkpt><trkpt lat="40.6595484" lon="15.9658371"><ele>884.0</ele><time>2026-04-19T09:49:14.365Z</time></trkpt><trkpt lat="40.6593537" lon="15.9656306"><ele>890.0</ele><time>2026-04-19T09:49:15.365Z</time></trkpt><trkpt lat="40.6591505" lon="15.965427"><ele>890.0</ele><time>2026-04-19T09:49:16.365Z</time></trkpt><trkpt lat="40.6589603" lon="15.965245"><ele>890.0</ele><time>2026-04-19T09:49:17.365Z</time></trkpt><trkpt lat="40.658793" lon="15.965072"><ele>890.0</ele><time>2026-04-19T09:49:18.365Z</time></trkpt><trkpt lat="40.6586269" lon="15.9649055"><ele>890.3333333333334</ele><time>2026-04-19T09:49:19.365Z</time></trkpt><trkpt lat="40.6584885" lon="15.9647758"><ele>890.6666666666667</ele><time>2026-04-19T09:49:20.365Z</time></trkpt><trkpt lat="40.6583614" lon="15.9646842"><ele>891.0</ele><time>2026-04-19T09:49:21.365Z</time></trkpt><trkpt lat="40.6582329" lon="15.9646253"><ele>891.0</ele><time>2026-04-19T09:49:22.365Z</time></trkpt><trkpt lat="40.6580752" lon="15.9646186"><ele>891.0</ele><time>2026-04-19T09:49:23.365Z</time></trkpt><trkpt lat="40.657899" lon="15.964653"><ele>891.0</ele><time>2026-04-19T09:49:24.365Z</time></trkpt><trkpt lat="40.6577067" lon="15.9646919"><ele>894.0</ele><time>2026-04-19T09:49:25.365Z</time></trkpt><trkpt lat="40.6574786" lon="15.9647657"><ele>897.0</ele><time>2026-04-19T09:49:26.365Z</time></trkpt><trkpt lat="40.6572169" lon="15.9648614"><ele>894.0</ele><time>2026-04-19T09:49:27.365Z</time></trkpt><trkpt lat="40.6569315" lon="15.9649386"><ele>891.0</ele><time>2026-04-19T09:49:28.365Z</time></trkpt><trkpt lat="40.6566686" lon="15.9650063"><ele>895.0</ele><time>2026-04-19T09:49:29.364Z</time></trkpt><trkpt lat="40.6564208" lon="15.9650593"><ele>899.0</ele><time>2026-04-19T09:49:30.365Z</time></trkpt><trkpt lat="40.6561771" lon="15.9651176"><ele>902.0</ele><time>2026-04-19T09:49:31.365Z</time></trkpt><trkpt lat="40.6559514" lon="15.9651725"><ele>905.0</ele><time>2026-04-19T09:49:32.365Z</time></trkpt><trkpt lat="40.6557319" lon="15.9652385"><ele>905.0</ele><time>2026-04-19T09:49:33.365Z</time></trkpt><trkpt lat="40.6555149" lon="15.9652985"><ele>905.0</ele><time>2026-04-19T09:49:34.365Z</time></trkpt><trkpt lat="40.6552872" lon="15.9653572"><ele>903.5</ele><time>2026-04-19T09:49:35.365Z</time></trkpt><trkpt lat="40.6550613" lon="15.9654214"><ele>902.0</ele><time>2026-04-19T09:49:36.365Z</time></trkpt><trkpt lat="40.6548466" lon="15.9654951"><ele>902.0</ele><time>2026-04-19T09:49:37.365Z</time></trkpt><trkpt lat="40.654638" lon="15.9655491"><ele>902.0</ele><time>2026-04-19T09:49:38.365Z</time></trkpt><trkpt lat="40.6544415" lon="15.9655859"><ele>902.0</ele><time>2026-04-19T09:49:39.365Z</time></trkpt><trkpt lat="40.6542662" lon="15.9656286"><ele>901.6666666666667</ele><time>2026-04-19T09:49:40.365Z</time></trkpt><trkpt lat="40.6540925" lon="15.9656742"><ele>901.3333333333333</ele><time>2026-04-19T09:49:41.365Z</time></trkpt><trkpt lat="40.6539312" lon="15.9657208"><ele>901.0</ele><time>2026-04-19T09:49:42.365Z</time></trkpt><trkpt lat="40.6537774" lon="15.9657596"><ele>900.3333333333333</ele><time>2026-04-19T09:49:43.365Z</time></trkpt><trkpt lat="40.6536205" lon="15.9657899"><ele>899.6666666666667</ele><time>2026-04-19T09:49:44.365Z</time></trkpt><trkpt lat="40.6534464" lon="15.9657993"><ele>899.0</ele><time>2026-04-19T09:49:45.365Z</time></trkpt><trkpt lat="40.6532953" lon="15.9657962"><ele>899.0</ele><time>2026-04-19T09:49:46.365Z</time></trkpt><trkpt lat="40.6531661" lon="15.9657648"><ele>899.0</ele><time>2026-04-19T09:49:47.365Z</time></trkpt><trkpt lat="40.6530329" lon="15.9657281"><ele>899.0</ele><time>2026-04-19T09:49:48.365Z</time></trkpt><trkpt lat="40.6528981" lon="15.965668"><ele>899.0</ele><time>2026-04-19T09:49:49.365Z</time></trkpt><trkpt lat="40.6527446" lon="15.9655954"><ele>900.0</ele><time>2026-04-19T09:49:50.365Z</time></trkpt><trkpt lat="40.6525724" lon="15.9655207"><ele>901.0</ele><time>2026-04-19T09:49:51.365Z</time></trkpt><trkpt lat="40.6523751" lon="15.9654418"><ele>902.0</ele><time>2026-04-19T09:49:52.365Z</time></trkpt><trkpt lat="40.6521498" lon="15.965341"><ele>901.6666666666667</ele><time>2026-04-19T09:49:53.365Z</time></trkpt><trkpt lat="40.6519329" lon="15.9652388"><ele>901.3333333333333</ele><time>2026-04-19T09:49:54.365Z</time></trkpt><trkpt lat="40.6517414" lon="15.9651413"><ele>901.0</ele><time>2026-04-19T09:49:55.365Z</time></trkpt><trkpt lat="40.6515627" lon="15.9650483"><ele>898.25</ele><time>2026-04-19T09:49:56.365Z</time></trkpt><trkpt lat="40.6514092" lon="15.9649719"><ele>895.5</ele><time>2026-04-19T09:49:57.365Z</time></trkpt><trkpt lat="40.6512701" lon="15.9649076"><ele>892.75</ele><time>2026-04-19T09:49:58.365Z</time></trkpt><trkpt lat="40.6511481" lon="15.9648737"><ele>890.0</ele><time>2026-04-19T09:49:59.365Z</time></trkpt><trkpt lat="40.6510314" lon="15.964895"><ele>890.6666666666667</ele><time>2026-04-19T09:50:00.365Z</time></trkpt><trkpt lat="40.6509281" lon="15.9649986"><ele>891.3333333333333</ele><time>2026-04-19T09:50:01.365Z</time></trkpt><trkpt lat="40.6508131" lon="15.9651452"><ele>892.0</ele><time>2026-04-19T09:50:02.365Z</time></trkpt><trkpt lat="40.6506946" lon="15.9653283"><ele>892.0</ele><time>2026-04-19T09:50:03.365Z</time></trkpt><trkpt lat="40.6505646" lon="15.9655193"><ele>892.0</ele><time>2026-04-19T09:50:04.365Z</time></trkpt><trkpt lat="40.6504481" lon="15.9656918"><ele>892.0</ele><time>2026-04-19T09:50:05.365Z</time></trkpt><trkpt lat="40.6503486" lon="15.9658353"><ele>888.5</ele><time>2026-04-19T09:50:06.365Z</time></trkpt><trkpt lat="40.6502722" lon="15.9659797"><ele>885.0</ele><time>2026-04-19T09:50:07.365Z</time></trkpt><trkpt lat="40.6502072" lon="15.9661251"><ele>881.5</ele><time>2026-04-19T09:50:08.365Z</time></trkpt><trkpt lat="40.6501806" lon="15.9663273"><ele>878.0</ele><time>2026-04-19T09:50:09.365Z</time></trkpt><trkpt lat="40.6501745" lon="15.9665727"><ele>878.0</ele><time>2026-04-19T09:50:10.365Z</time></trkpt><trkpt lat="40.6501474" lon="15.9668436"><ele>878.0</ele><time>2026-04-19T09:50:11.365Z</time></trkpt><trkpt lat="40.6501241" lon="15.9671069"><ele>878.0</ele><time>2026-04-19T09:50:12.365Z</time></trkpt><trkpt lat="40.6500999" lon="15.9673355"><ele>878.3333333333334</ele><time>2026-04-19T09:50:13.365Z</time></trkpt><trkpt lat="40.6500681" lon="15.9675585"><ele>878.6666666666667</ele><time>2026-04-19T09:50:14.365Z</time></trkpt><trkpt lat="40.650027" lon="15.9677793"><ele>879.0</ele><time>2026-04-19T09:50:15.365Z</time></trkpt><trkpt lat="40.6499714" lon="15.9679825"><ele>879.0</ele><time>2026-04-19T09:50:16.365Z</time></trkpt><trkpt lat="40.6499153" lon="15.9681738"><ele>879.0</ele><time>2026-04-19T09:50:17.365Z</time></trkpt><trkpt lat="40.6498464" lon="15.968375"><ele>879.0</ele><time>2026-04-19T09:50:18.365Z</time></trkpt><trkpt lat="40.6497757" lon="15.9685905"><ele>878.6666666666667</ele><time>2026-04-19T09:50:19.365Z</time></trkpt><trkpt lat="40.6497408" lon="15.9687971"><ele>878.3333333333334</ele><time>2026-04-19T09:50:20.365Z</time></trkpt><trkpt lat="40.6497601" lon="15.9690316"><ele>878.0</ele><time>2026-04-19T09:50:21.365Z</time></trkpt><trkpt lat="40.6497884" lon="15.9692902"><ele>876.3333333333334</ele><time>2026-04-19T09:50:22.365Z</time></trkpt><trkpt lat="40.6498121" lon="15.9695411"><ele>874.6666666666667</ele><time>2026-04-19T09:50:23.365Z</time></trkpt><trkpt lat="40.6498206" lon="15.9697581"><ele>873.0</ele><time>2026-04-19T09:50:24.365Z</time></trkpt><trkpt lat="40.6498303" lon="15.9699205"><ele>874.25</ele><time>2026-04-19T09:50:25.365Z</time></trkpt><trkpt lat="40.6498174" lon="15.970088"><ele>875.5</ele><time>2026-04-19T09:50:26.365Z</time></trkpt><trkpt lat="40.6497742" lon="15.9702527"><ele>876.75</ele><time>2026-04-19T09:50:27.365Z</time></trkpt><trkpt lat="40.6496967" lon="15.9703998"><ele>878.0</ele><time>2026-04-19T09:50:28.365Z</time></trkpt><trkpt lat="40.649588" lon="15.9705421"><ele>877.6666666666667</ele><time>2026-04-19T09:50:29.365Z</time></trkpt><trkpt lat="40.6494391" lon="15.970663"><ele>877.3333333333333</ele><time>2026-04-19T09:50:30.365Z</time></trkpt><trkpt lat="40.6492626" lon="15.9707725"><ele>877.0</ele><time>2026-04-19T09:50:31.365Z</time></trkpt><trkpt lat="40.6490698" lon="15.9708858"><ele>877.0</ele><time>2026-04-19T09:50:32.365Z</time></trkpt><trkpt lat="40.6488867" lon="15.9709968"><ele>877.0</ele><time>2026-04-19T09:50:33.365Z</time></trkpt><trkpt lat="40.6487311" lon="15.9710946"><ele>877.0</ele><time>2026-04-19T09:50:34.365Z</time></trkpt><trkpt lat="40.6486094" lon="15.9711861"><ele>871.0</ele><time>2026-04-19T09:50:35.365Z</time></trkpt><trkpt lat="40.6485147" lon="15.9713285"><ele>865.0</ele><time>2026-04-19T09:50:36.365Z</time></trkpt><trkpt lat="40.6484288" lon="15.9715157"><ele>859.0</ele><time>2026-04-19T09:50:37.365Z</time></trkpt><trkpt lat="40.6483647" lon="15.9717189"><ele>859.0</ele><time>2026-04-19T09:50:38.365Z</time></trkpt><trkpt lat="40.6483162" lon="15.971911"><ele>859.0</ele><time>2026-04-19T09:50:39.365Z</time></trkpt><trkpt lat="40.6482741" lon="15.9720849"><ele>859.0</ele><time>2026-04-19T09:50:40.365Z</time></trkpt><trkpt lat="40.6482153" lon="15.9722367"><ele>859.0</ele><time>2026-04-19T09:50:41.365Z</time></trkpt><trkpt lat="40.6481216" lon="15.9723679"><ele>859.0</ele><time>2026-04-19T09:50:42.365Z</time></trkpt><trkpt lat="40.6479865" lon="15.9724917"><ele>859.0</ele><time>2026-04-19T09:50:43.365Z</time></trkpt><trkpt lat="40.6478195" lon="15.972611"><ele>859.0</ele><time>2026-04-19T09:50:44.365Z</time></trkpt><trkpt lat="40.6476408" lon="15.9727527"><ele>854.3333333333333</ele><time>2026-04-19T09:50:45.365Z</time></trkpt><trkpt lat="40.6474742" lon="15.9728975"><ele>849.6666666666667</ele><time>2026-04-19T09:50:46.365Z</time></trkpt><trkpt lat="40.6473321" lon="15.9730479"><ele>845.0</ele><time>2026-04-19T09:50:47.365Z</time></trkpt><trkpt lat="40.6471915" lon="15.9732389"><ele>844.3333333333334</ele><time>2026-04-19T09:50:48.365Z</time></trkpt><trkpt lat="40.6470673" lon="15.9734661"><ele>843.6666666666667</ele><time>2026-04-19T09:50:49.364Z</time></trkpt><trkpt lat="40.6469637" lon="15.9736857"><ele>843.0</ele><time>2026-04-19T09:50:50.365Z</time></trkpt><trkpt lat="40.6468942" lon="15.9738978"><ele>840.0</ele><time>2026-04-19T09:50:51.365Z</time></trkpt><trkpt lat="40.6468419" lon="15.9741163"><ele>837.0</ele><time>2026-04-19T09:50:52.365Z</time></trkpt><trkpt lat="40.6468287" lon="15.9743384"><ele>834.0</ele><time>2026-04-19T09:50:53.365Z</time></trkpt><trkpt lat="40.646849" lon="15.9745858"><ele>832.5</ele><time>2026-04-19T09:50:54.365Z</time></trkpt><trkpt lat="40.6469146" lon="15.9748909"><ele>831.0</ele><time>2026-04-19T09:50:55.365Z</time></trkpt><trkpt lat="40.6469935" lon="15.975191"><ele>831.0</ele><time>2026-04-19T09:50:56.365Z</time></trkpt><trkpt lat="40.6470615" lon="15.9754635"><ele>831.0</ele><time>2026-04-19T09:50:57.365Z</time></trkpt><trkpt lat="40.6471404" lon="15.9757145"><ele>831.0</ele><time>2026-04-19T09:50:58.365Z</time></trkpt><trkpt lat="40.6472483" lon="15.9759789"><ele>827.0</ele><time>2026-04-19T09:50:59.364Z</time></trkpt><trkpt lat="40.6473897" lon="15.976256"><ele>823.0</ele><time>2026-04-19T09:51:00.364Z</time></trkpt><trkpt lat="40.6475524" lon="15.9765305"><ele>822.0</ele><time>2026-04-19T09:51:01.364Z</time></trkpt><trkpt lat="40.6477183" lon="15.9767913"><ele>821.0</ele><time>2026-04-19T09:51:02.364Z</time></trkpt><trkpt lat="40.6478871" lon="15.9770305"><ele>821.0</ele><time>2026-04-19T09:51:03.364Z</time></trkpt><trkpt lat="40.648048" lon="15.9772594"><ele>821.0</ele><time>2026-04-19T09:51:04.364Z</time></trkpt><trkpt lat="40.6481991" lon="15.977495"><ele>816.5</ele><time>2026-04-19T09:51:05.364Z</time></trkpt><trkpt lat="40.6483343" lon="15.9777436"><ele>812.0</ele><time>2026-04-19T09:51:06.364Z</time></trkpt><trkpt lat="40.6484688" lon="15.9780119"><ele>812.0</ele><time>2026-04-19T09:51:07.364Z</time></trkpt><trkpt lat="40.6486124" lon="15.9782907"><ele>812.0</ele><time>2026-04-19T09:51:08.364Z</time></trkpt><trkpt lat="40.6487549" lon="15.9785674"><ele>814.0</ele><time>2026-04-19T09:51:09.364Z</time></trkpt><trkpt lat="40.6488915" lon="15.978838"><ele>816.0</ele><time>2026-04-19T09:51:10.364Z</time></trkpt><trkpt lat="40.6490302" lon="15.9790985"><ele>813.0</ele><time>2026-04-19T09:51:11.364Z</time></trkpt><trkpt lat="40.6491644" lon="15.9793439"><ele>810.0</ele><time>2026-04-19T09:51:12.364Z</time></trkpt><trkpt lat="40.649286" lon="15.9795738"><ele>807.0</ele><time>2026-04-19T09:51:13.364Z</time></trkpt><trkpt lat="40.6494082" lon="15.9797825"><ele>806.0</ele><time>2026-04-19T09:51:14.364Z</time></trkpt><trkpt lat="40.6495356" lon="15.9799671"><ele>805.0</ele><time>2026-04-19T09:51:15.364Z</time></trkpt><trkpt lat="40.6496522" lon="15.9801277"><ele>804.0</ele><time>2026-04-19T09:51:16.364Z</time></trkpt><trkpt lat="40.6497573" lon="15.9802805"><ele>804.0</ele><time>2026-04-19T09:51:17.364Z</time></trkpt><trkpt lat="40.6498395" lon="15.9804012"><ele>804.0</ele><time>2026-04-19T09:51:18.364Z</time></trkpt><trkpt lat="40.6499044" lon="15.9805073"><ele>804.0</ele><time>2026-04-19T09:51:19.364Z</time></trkpt><trkpt lat="40.6499594" lon="15.9805996"><ele>804.0</ele><time>2026-04-19T09:51:20.364Z</time></trkpt><trkpt lat="40.6500007" lon="15.9806726"><ele>804.0</ele><time>2026-04-19T09:51:21.364Z</time></trkpt><trkpt lat="40.6500457" lon="15.9808027"><ele>803.2</ele><time>2026-04-19T09:51:23.364Z</time></trkpt><trkpt lat="40.6500731" lon="15.9809456"><ele>802.4000000000001</ele><time>2026-04-19T09:51:25.364Z</time></trkpt><trkpt lat="40.6500697" lon="15.9810913"><ele>801.6</ele><time>2026-04-19T09:51:27.364Z</time></trkpt><trkpt lat="40.6500611" lon="15.9811735"><ele>800.8</ele><time>2026-04-19T09:51:28.364Z</time></trkpt><trkpt lat="40.6500433" lon="15.9812536"><ele>800.0</ele><time>2026-04-19T09:51:29.364Z</time></trkpt><trkpt lat="40.649987" lon="15.9814102"><ele>800.0</ele><time>2026-04-19T09:51:31.364Z</time></trkpt><trkpt lat="40.6499417" lon="15.9815279"><ele>800.0</ele><time>2026-04-19T09:51:32.364Z</time></trkpt><trkpt lat="40.6498676" lon="15.9816962"><ele>800.0</ele><time>2026-04-19T09:51:33.364Z</time></trkpt><trkpt lat="40.6497746" lon="15.9818874"><ele>800.0</ele><time>2026-04-19T09:51:34.364Z</time></trkpt><trkpt lat="40.6496713" lon="15.9821029"><ele>798.6666666666667</ele><time>2026-04-19T09:51:35.364Z</time></trkpt><trkpt lat="40.6495636" lon="15.9823385"><ele>797.3333333333333</ele><time>2026-04-19T09:51:36.364Z</time></trkpt><trkpt lat="40.6494748" lon="15.9825619"><ele>796.0</ele><time>2026-04-19T09:51:37.364Z</time></trkpt><trkpt lat="40.6493929" lon="15.9827703"><ele>795.3333333333333</ele><time>2026-04-19T09:51:38.364Z</time></trkpt><trkpt lat="40.6493389" lon="15.9829914"><ele>794.6666666666667</ele><time>2026-04-19T09:51:39.364Z</time></trkpt><trkpt lat="40.649305" lon="15.9832554"><ele>794.0</ele><time>2026-04-19T09:51:40.364Z</time></trkpt><trkpt lat="40.649292" lon="15.9835472"><ele>793.5</ele><time>2026-04-19T09:51:41.364Z</time></trkpt><trkpt lat="40.6492767" lon="15.9838539"><ele>793.0</ele><time>2026-04-19T09:51:42.364Z</time></trkpt><trkpt lat="40.6492549" lon="15.9841549"><ele>793.0</ele><time>2026-04-19T09:51:43.364Z</time></trkpt><trkpt lat="40.6492334" lon="15.9844551"><ele>793.0</ele><time>2026-04-19T09:51:44.364Z</time></trkpt><trkpt lat="40.6492129" lon="15.9847254"><ele>793.0</ele><time>2026-04-19T09:51:45.364Z</time></trkpt><trkpt lat="40.649199" lon="15.9849748"><ele>791.3333333333333</ele><time>2026-04-19T09:51:46.364Z</time></trkpt><trkpt lat="40.6491704" lon="15.9851976"><ele>789.6666666666667</ele><time>2026-04-19T09:51:47.364Z</time></trkpt><trkpt lat="40.6491015" lon="15.9854227"><ele>788.0</ele><time>2026-04-19T09:51:48.364Z</time></trkpt><trkpt lat="40.6490051" lon="15.9856399"><ele>788.0</ele><time>2026-04-19T09:51:49.364Z</time></trkpt><trkpt lat="40.6488643" lon="15.9858347"><ele>788.0</ele><time>2026-04-19T09:51:50.364Z</time></trkpt><trkpt lat="40.6486835" lon="15.9860399"><ele>788.0</ele><time>2026-04-19T09:51:51.364Z</time></trkpt><trkpt lat="40.6484807" lon="15.9862578"><ele>786.5</ele><time>2026-04-19T09:51:52.364Z</time></trkpt><trkpt lat="40.6482826" lon="15.9864955"><ele>785.0</ele><time>2026-04-19T09:51:53.364Z</time></trkpt><trkpt lat="40.6480785" lon="15.9867363"><ele>786.0</ele><time>2026-04-19T09:51:54.364Z</time></trkpt><trkpt lat="40.6478629" lon="15.9869948"><ele>787.0</ele><time>2026-04-19T09:51:55.364Z</time></trkpt><trkpt lat="40.6476485" lon="15.9872399"><ele>787.0</ele><time>2026-04-19T09:51:56.364Z</time></trkpt><trkpt lat="40.6474562" lon="15.9874686"><ele>787.0</ele><time>2026-04-19T09:51:57.364Z</time></trkpt><trkpt lat="40.6472863" lon="15.9876618"><ele>786.3333333333333</ele><time>2026-04-19T09:51:58.364Z</time></trkpt><trkpt lat="40.647132" lon="15.987823"><ele>785.6666666666667</ele><time>2026-04-19T09:51:59.364Z</time></trkpt><trkpt lat="40.6469573" lon="15.987969"><ele>785.0</ele><time>2026-04-19T09:52:00.364Z</time></trkpt><trkpt lat="40.6467414" lon="15.9881008"><ele>789.5</ele><time>2026-04-19T09:52:01.364Z</time></trkpt><trkpt lat="40.6465085" lon="15.9882392"><ele>794.0</ele><time>2026-04-19T09:52:02.364Z</time></trkpt><trkpt lat="40.6462751" lon="15.9883549"><ele>799.3333333333334</ele><time>2026-04-19T09:52:03.364Z</time></trkpt><trkpt lat="40.6460667" lon="15.9884542"><ele>804.6666666666667</ele><time>2026-04-19T09:52:04.364Z</time></trkpt><trkpt lat="40.6458668" lon="15.9885308"><ele>810.0</ele><time>2026-04-19T09:52:05.364Z</time></trkpt><trkpt lat="40.6456695" lon="15.9886158"><ele>810.0</ele><time>2026-04-19T09:52:06.364Z</time></trkpt><trkpt lat="40.6454971" lon="15.9887145"><ele>810.0</ele><time>2026-04-19T09:52:07.364Z</time></trkpt><trkpt lat="40.6453314" lon="15.9888539"><ele>810.0</ele><time>2026-04-19T09:52:08.364Z</time></trkpt><trkpt lat="40.6451828" lon="15.9890427"><ele>812.0</ele><time>2026-04-19T09:52:09.364Z</time></trkpt><trkpt lat="40.6450427" lon="15.9892565"><ele>814.0</ele><time>2026-04-19T09:52:10.364Z</time></trkpt><trkpt lat="40.6449181" lon="15.9895113"><ele>816.0</ele><time>2026-04-19T09:52:11.364Z</time></trkpt><trkpt lat="40.644793" lon="15.9898007"><ele>814.5</ele><time>2026-04-19T09:52:12.364Z</time></trkpt><trkpt lat="40.6446747" lon="15.9901046"><ele>813.0</ele><time>2026-04-19T09:52:13.364Z</time></trkpt><trkpt lat="40.6445753" lon="15.990379"><ele>813.0</ele><time>2026-04-19T09:52:14.364Z</time></trkpt><trkpt lat="40.6444795" lon="15.9905876"><ele>813.0</ele><time>2026-04-19T09:52:15.364Z</time></trkpt><trkpt lat="40.6443602" lon="15.9907743"><ele>813.0</ele><time>2026-04-19T09:52:16.364Z</time></trkpt><trkpt lat="40.6442237" lon="15.9909538"><ele>813.3333333333333</ele><time>2026-04-19T09:52:17.364Z</time></trkpt><trkpt lat="40.6440813" lon="15.9911309"><ele>813.6666666666666</ele><time>2026-04-19T09:52:18.364Z</time></trkpt><trkpt lat="40.6439307" lon="15.9912927"><ele>814.0</ele><time>2026-04-19T09:52:19.364Z</time></trkpt><trkpt lat="40.6437556" lon="15.9914684"><ele>814.0</ele><time>2026-04-19T09:52:20.364Z</time></trkpt><trkpt lat="40.6435523" lon="15.9916542"><ele>814.0</ele><time>2026-04-19T09:52:21.364Z</time></trkpt><trkpt lat="40.6433093" lon="15.991845"><ele>814.0</ele><time>2026-04-19T09:52:22.364Z</time></trkpt><trkpt lat="40.6430697" lon="15.9920386"><ele>814.0</ele><time>2026-04-19T09:52:23.364Z</time></trkpt><trkpt lat="40.6428387" lon="15.9922097"><ele>815.0</ele><time>2026-04-19T09:52:24.364Z</time></trkpt><trkpt lat="40.6426391" lon="15.9923565"><ele>816.0</ele><time>2026-04-19T09:52:25.364Z</time></trkpt><trkpt lat="40.6424679" lon="15.9925088"><ele>817.0</ele><time>2026-04-19T09:52:26.364Z</time></trkpt><trkpt lat="40.6422951" lon="15.9926935"><ele>817.0</ele><time>2026-04-19T09:52:27.364Z</time></trkpt><trkpt lat="40.6420972" lon="15.9929394"><ele>817.0</ele><time>2026-04-19T09:52:28.364Z</time></trkpt><trkpt lat="40.6418817" lon="15.9932007"><ele>823.0</ele><time>2026-04-19T09:52:29.364Z</time></trkpt><trkpt lat="40.6416867" lon="15.9934458"><ele>829.0</ele><time>2026-04-19T09:52:30.364Z</time></trkpt><trkpt lat="40.6415066" lon="15.9936616"><ele>829.0</ele><time>2026-04-19T09:52:31.364Z</time></trkpt><trkpt lat="40.6413345" lon="15.9938588"><ele>829.0</ele><time>2026-04-19T09:52:32.364Z</time></trkpt><trkpt lat="40.6411557" lon="15.9940335"><ele>831.0</ele><time>2026-04-19T09:52:33.364Z</time></trkpt><trkpt lat="40.6409408" lon="15.9942056"><ele>833.0</ele><time>2026-04-19T09:52:34.364Z</time></trkpt><trkpt lat="40.6406719" lon="15.9943508"><ele>833.0</ele><time>2026-04-19T09:52:35.364Z</time></trkpt><trkpt lat="40.6403908" lon="15.9944971"><ele>833.0</ele><time>2026-04-19T09:52:36.364Z</time></trkpt><trkpt lat="40.6401034" lon="15.9946695"><ele>833.5</ele><time>2026-04-19T09:52:37.364Z</time></trkpt><trkpt lat="40.6398165" lon="15.994834"><ele>834.0</ele><time>2026-04-19T09:52:38.364Z</time></trkpt><trkpt lat="40.6395478" lon="15.9949698"><ele>835.0</ele><time>2026-04-19T09:52:39.364Z</time></trkpt><trkpt lat="40.6392989" lon="15.9950985"><ele>836.0</ele><time>2026-04-19T09:52:40.364Z</time></trkpt><trkpt lat="40.6390722" lon="15.9952259"><ele>836.0</ele><time>2026-04-19T09:52:41.364Z</time></trkpt><trkpt lat="40.6388715" lon="15.995347"><ele>836.0</ele><time>2026-04-19T09:52:42.364Z</time></trkpt><trkpt lat="40.6386897" lon="15.9954712"><ele>836.0</ele><time>2026-04-19T09:52:43.364Z</time></trkpt><trkpt lat="40.6385163" lon="15.9955985"><ele>836.3333333333334</ele><time>2026-04-19T09:52:44.364Z</time></trkpt><trkpt lat="40.6383602" lon="15.9957462"><ele>836.6666666666667</ele><time>2026-04-19T09:52:45.364Z</time></trkpt><trkpt lat="40.6382198" lon="15.9959039"><ele>837.0</ele><time>2026-04-19T09:52:46.364Z</time></trkpt><trkpt lat="40.6380945" lon="15.9960878"><ele>837.0</ele><time>2026-04-19T09:52:47.364Z</time></trkpt><trkpt lat="40.6379765" lon="15.9963253"><ele>837.0</ele><time>2026-04-19T09:52:48.364Z</time></trkpt><trkpt lat="40.6378759" lon="15.9965939"><ele>837.0</ele><time>2026-04-19T09:52:49.364Z</time></trkpt><trkpt lat="40.6377905" lon="15.9968269"><ele>841.3333333333333</ele><time>2026-04-19T09:52:50.364Z</time></trkpt><trkpt lat="40.6377217" lon="15.9970251"><ele>845.6666666666666</ele><time>2026-04-19T09:52:51.364Z</time></trkpt><trkpt lat="40.637683" lon="15.9972456"><ele>850.0</ele><time>2026-04-19T09:52:52.364Z</time></trkpt><trkpt lat="40.6376665" lon="15.9975175"><ele>850.0</ele><time>2026-04-19T09:52:53.364Z</time></trkpt><trkpt lat="40.6376658" lon="15.9977826"><ele>850.0</ele><time>2026-04-19T09:52:54.364Z</time></trkpt><trkpt lat="40.63766" lon="15.9979977"><ele>850.0</ele><time>2026-04-19T09:52:55.364Z</time></trkpt><trkpt lat="40.6376214" lon="15.9981805"><ele>849.3333333333333</ele><time>2026-04-19T09:52:56.364Z</time></trkpt><trkpt lat="40.6375387" lon="15.9983679"><ele>848.6666666666667</ele><time>2026-04-19T09:52:57.364Z</time></trkpt><trkpt lat="40.6374184" lon="15.9985627"><ele>848.0</ele><time>2026-04-19T09:52:58.364Z</time></trkpt><trkpt lat="40.6372842" lon="15.99878"><ele>848.0</ele><time>2026-04-19T09:52:59.364Z</time></trkpt><trkpt lat="40.6371239" lon="15.9990426"><ele>848.0</ele><time>2026-04-19T09:53:00.364Z</time></trkpt><trkpt lat="40.6369523" lon="15.9993163"><ele>853.0</ele><time>2026-04-19T09:53:01.364Z</time></trkpt><trkpt lat="40.6367457" lon="15.9996344"><ele>858.0</ele><time>2026-04-19T09:53:02.364Z</time></trkpt><trkpt lat="40.6365367" lon="15.9999798"><ele>858.0</ele><time>2026-04-19T09:53:03.364Z</time></trkpt><trkpt lat="40.6363414" lon="16.0002904"><ele>858.0</ele><time>2026-04-19T09:53:04.364Z</time></trkpt><trkpt lat="40.6361705" lon="16.0005818"><ele>857.6666666666667</ele><time>2026-04-19T09:53:05.364Z</time></trkpt><trkpt lat="40.6360147" lon="16.0008126"><ele>857.3333333333334</ele><time>2026-04-19T09:53:06.364Z</time></trkpt><trkpt lat="40.635908" lon="16.0009997"><ele>857.0</ele><time>2026-04-19T09:53:07.364Z</time></trkpt><trkpt lat="40.6358101" lon="16.0011642"><ele>857.0</ele><time>2026-04-19T09:53:08.364Z</time></trkpt><trkpt lat="40.6357236" lon="16.0013321"><ele>857.0</ele><time>2026-04-19T09:53:09.364Z</time></trkpt><trkpt lat="40.635674" lon="16.0015267"><ele>857.0</ele><time>2026-04-19T09:53:10.364Z</time></trkpt><trkpt lat="40.6356542" lon="16.0017267"><ele>860.0</ele><time>2026-04-19T09:53:11.364Z</time></trkpt><trkpt lat="40.6356709" lon="16.0019523"><ele>863.0</ele><time>2026-04-19T09:53:12.364Z</time></trkpt><trkpt lat="40.6357158" lon="16.002181"><ele>866.0</ele><time>2026-04-19T09:53:13.364Z</time></trkpt><trkpt lat="40.6357574" lon="16.0023868"><ele>865.0</ele><time>2026-04-19T09:53:14.364Z</time></trkpt><trkpt lat="40.6357554" lon="16.0025782"><ele>864.0</ele><time>2026-04-19T09:53:15.364Z</time></trkpt><trkpt lat="40.6356773" lon="16.0027781"><ele>863.0</ele><time>2026-04-19T09:53:16.364Z</time></trkpt><trkpt lat="40.6355629" lon="16.0030067"><ele>863.0</ele><time>2026-04-19T09:53:17.364Z</time></trkpt><trkpt lat="40.6354323" lon="16.0032248"><ele>863.0</ele><time>2026-04-19T09:53:18.364Z</time></trkpt><trkpt lat="40.6353399" lon="16.0034001"><ele>863.0</ele><time>2026-04-19T09:53:19.364Z</time></trkpt><trkpt lat="40.635304" lon="16.0035707"><ele>862.6666666666667</ele><time>2026-04-19T09:53:20.364Z</time></trkpt><trkpt lat="40.6352831" lon="16.0037624"><ele>862.3333333333333</ele><time>2026-04-19T09:53:21.364Z</time></trkpt><trkpt lat="40.635325" lon="16.0039716"><ele>862.0</ele><time>2026-04-19T09:53:22.364Z</time></trkpt><trkpt lat="40.6354096" lon="16.0042107"><ele>862.0</ele><time>2026-04-19T09:53:23.364Z</time></trkpt><trkpt lat="40.6355421" lon="16.0044636"><ele>862.0</ele><time>2026-04-19T09:53:24.364Z</time></trkpt><trkpt lat="40.6356866" lon="16.0047449"><ele>857.5</ele><time>2026-04-19T09:53:25.364Z</time></trkpt><trkpt lat="40.6358195" lon="16.0050454"><ele>853.0</ele><time>2026-04-19T09:53:26.364Z</time></trkpt><trkpt lat="40.6359395" lon="16.0053096"><ele>853.0</ele><time>2026-04-19T09:53:27.364Z</time></trkpt><trkpt lat="40.6360282" lon="16.0055378"><ele>853.0</ele><time>2026-04-19T09:53:28.364Z</time></trkpt><trkpt lat="40.6361048" lon="16.0057576"><ele>853.0</ele><time>2026-04-19T09:53:29.364Z</time></trkpt><trkpt lat="40.6361816" lon="16.0060068"><ele>852.5</ele><time>2026-04-19T09:53:30.364Z</time></trkpt><trkpt lat="40.6361973" lon="16.0063326"><ele>852.0</ele><time>2026-04-19T09:53:31.364Z</time></trkpt><trkpt lat="40.6362053" lon="16.0067085"><ele>848.0</ele><time>2026-04-19T09:53:32.364Z</time></trkpt><trkpt lat="40.6361955" lon="16.0071174"><ele>844.0</ele><time>2026-04-19T09:53:33.364Z</time></trkpt><trkpt lat="40.6361851" lon="16.0075195"><ele>842.0</ele><time>2026-04-19T09:53:34.364Z</time></trkpt><trkpt lat="40.6361794" lon="16.0079271"><ele>840.0</ele><time>2026-04-19T09:53:35.364Z</time></trkpt><trkpt lat="40.6361637" lon="16.0082716"><ele>840.5</ele><time>2026-04-19T09:53:36.364Z</time></trkpt><trkpt lat="40.6361592" lon="16.0086162"><ele>841.0</ele><time>2026-04-19T09:53:37.364Z</time></trkpt><trkpt lat="40.6361568" lon="16.009001"><ele>843.0</ele><time>2026-04-19T09:53:38.364Z</time></trkpt><trkpt lat="40.63615" lon="16.0094018"><ele>845.0</ele><time>2026-04-19T09:53:39.364Z</time></trkpt><trkpt lat="40.636137" lon="16.0097781"><ele>852.5</ele><time>2026-04-19T09:53:40.364Z</time></trkpt><trkpt lat="40.6361343" lon="16.0101209"><ele>860.0</ele><time>2026-04-19T09:53:41.364Z</time></trkpt><trkpt lat="40.6361209" lon="16.0104155"><ele>860.0</ele><time>2026-04-19T09:53:42.364Z</time></trkpt><trkpt lat="40.6361086" lon="16.0106697"><ele>860.0</ele><time>2026-04-19T09:53:43.364Z</time></trkpt><trkpt lat="40.6361027" lon="16.0108831"><ele>860.0</ele><time>2026-04-19T09:53:44.364Z</time></trkpt><trkpt lat="40.6360819" lon="16.0110863"><ele>860.0</ele><time>2026-04-19T09:53:45.364Z</time></trkpt><trkpt lat="40.6360329" lon="16.0112902"><ele>860.0</ele><time>2026-04-19T09:53:46.364Z</time></trkpt><trkpt lat="40.6359504" lon="16.0114981"><ele>860.0</ele><time>2026-04-19T09:53:47.364Z</time></trkpt><trkpt lat="40.6358132" lon="16.0117439"><ele>860.0</ele><time>2026-04-19T09:53:48.364Z</time></trkpt><trkpt lat="40.6356589" lon="16.0120149"><ele>860.0</ele><time>2026-04-19T09:53:49.364Z</time></trkpt><trkpt lat="40.6355096" lon="16.0122723"><ele>859.5</ele><time>2026-04-19T09:53:50.364Z</time></trkpt><trkpt lat="40.6353717" lon="16.0125082"><ele>859.0</ele><time>2026-04-19T09:53:51.364Z</time></trkpt><trkpt lat="40.6352177" lon="16.0127645"><ele>858.5</ele><time>2026-04-19T09:53:52.364Z</time></trkpt><trkpt lat="40.6350503" lon="16.0130407"><ele>858.0</ele><time>2026-04-19T09:53:53.364Z</time></trkpt><trkpt lat="40.6349011" lon="16.0133087"><ele>859.0</ele><time>2026-04-19T09:53:54.364Z</time></trkpt><trkpt lat="40.6347596" lon="16.0135504"><ele>860.0</ele><time>2026-04-19T09:53:55.364Z</time></trkpt><trkpt lat="40.634616" lon="16.0138002"><ele>861.0</ele><time>2026-04-19T09:53:56.364Z</time></trkpt><trkpt lat="40.6344712" lon="16.0140679"><ele>862.0</ele><time>2026-04-19T09:53:57.364Z</time></trkpt><trkpt lat="40.6343261" lon="16.0143666"><ele>865.5</ele><time>2026-04-19T09:53:58.364Z</time></trkpt><trkpt lat="40.6341629" lon="16.0146896"><ele>869.0</ele><time>2026-04-19T09:53:59.364Z</time></trkpt><trkpt lat="40.6340017" lon="16.0150235"><ele>872.0</ele><time>2026-04-19T09:54:00.364Z</time></trkpt><trkpt lat="40.6338399" lon="16.0153392"><ele>875.0</ele><time>2026-04-19T09:54:01.364Z</time></trkpt><trkpt lat="40.6336942" lon="16.0156409"><ele>877.0</ele><time>2026-04-19T09:54:02.364Z</time></trkpt><trkpt lat="40.6335593" lon="16.0158983"><ele>879.0</ele><time>2026-04-19T09:54:03.364Z</time></trkpt><trkpt lat="40.6334309" lon="16.0161366"><ele>879.0</ele><time>2026-04-19T09:54:04.364Z</time></trkpt><trkpt lat="40.6333135" lon="16.0163808"><ele>879.0</ele><time>2026-04-19T09:54:05.364Z</time></trkpt><trkpt lat="40.6332105" lon="16.0165988"><ele>879.0</ele><time>2026-04-19T09:54:06.364Z</time></trkpt><trkpt lat="40.633117" lon="16.0167903"><ele>880.75</ele><time>2026-04-19T09:54:07.364Z</time></trkpt><trkpt lat="40.63303" lon="16.0169504"><ele>882.5</ele><time>2026-04-19T09:54:08.364Z</time></trkpt><trkpt lat="40.6329424" lon="16.0170831"><ele>884.25</ele><time>2026-04-19T09:54:09.364Z</time></trkpt><trkpt lat="40.6328317" lon="16.0172036"><ele>886.0</ele><time>2026-04-19T09:54:10.364Z</time></trkpt><trkpt lat="40.6326923" lon="16.0173009"><ele>886.3333333333333</ele><time>2026-04-19T09:54:11.364Z</time></trkpt><trkpt lat="40.6325424" lon="16.0173482"><ele>886.6666666666667</ele><time>2026-04-19T09:54:12.364Z</time></trkpt><trkpt lat="40.6323618" lon="16.0173021"><ele>887.0</ele><time>2026-04-19T09:54:13.364Z</time></trkpt><trkpt lat="40.6321569" lon="16.0172063"><ele>887.0</ele><time>2026-04-19T09:54:14.364Z</time></trkpt><trkpt lat="40.6319264" lon="16.0171163"><ele>887.0</ele><time>2026-04-19T09:54:15.364Z</time></trkpt><trkpt lat="40.6317088" lon="16.0170351"><ele>887.0</ele><time>2026-04-19T09:54:16.364Z</time></trkpt><trkpt lat="40.6315226" lon="16.0169785"><ele>887.0</ele><time>2026-04-19T09:54:17.364Z</time></trkpt><trkpt lat="40.6313451" lon="16.0169356"><ele>887.0</ele><time>2026-04-19T09:54:18.364Z</time></trkpt><trkpt lat="40.6311494" lon="16.0169197"><ele>889.3333333333334</ele><time>2026-04-19T09:54:19.364Z</time></trkpt><trkpt lat="40.6309331" lon="16.0169311"><ele>891.6666666666667</ele><time>2026-04-19T09:54:20.364Z</time></trkpt><trkpt lat="40.6307476" lon="16.0169458"><ele>894.0</ele><time>2026-04-19T09:54:21.364Z</time></trkpt><trkpt lat="40.6305677" lon="16.0169488"><ele>894.0</ele><time>2026-04-19T09:54:22.364Z</time></trkpt><trkpt lat="40.6303823" lon="16.0169192"><ele>894.0</ele><time>2026-04-19T09:54:23.364Z</time></trkpt><trkpt lat="40.6301801" lon="16.0168496"><ele>894.0</ele><time>2026-04-19T09:54:24.364Z</time></trkpt><trkpt lat="40.6299536" lon="16.01675"><ele>891.0</ele><time>2026-04-19T09:54:25.364Z</time></trkpt><trkpt lat="40.6297141" lon="16.0166433"><ele>888.0</ele><time>2026-04-19T09:54:26.364Z</time></trkpt><trkpt lat="40.6294751" lon="16.0165453"><ele>888.0</ele><time>2026-04-19T09:54:27.364Z</time></trkpt><trkpt lat="40.6292574" lon="16.0164604"><ele>888.0</ele><time>2026-04-19T09:54:28.364Z</time></trkpt><trkpt lat="40.629062" lon="16.0163811"><ele>888.0</ele><time>2026-04-19T09:54:29.364Z</time></trkpt><trkpt lat="40.6288919" lon="16.0163111"><ele>888.0</ele><time>2026-04-19T09:54:30.364Z</time></trkpt><trkpt lat="40.6287566" lon="16.0162581"><ele>888.0</ele><time>2026-04-19T09:54:31.364Z</time></trkpt><trkpt lat="40.6286393" lon="16.0162529"><ele>888.0</ele><time>2026-04-19T09:54:32.364Z</time></trkpt><trkpt lat="40.6285182" lon="16.0163217"><ele>888.0</ele><time>2026-04-19T09:54:33.364Z</time></trkpt><trkpt lat="40.6283698" lon="16.0164559"><ele>890.6666666666667</ele><time>2026-04-19T09:54:34.364Z</time></trkpt><trkpt lat="40.6282278" lon="16.0166042"><ele>893.3333333333334</ele><time>2026-04-19T09:54:35.364Z</time></trkpt><trkpt lat="40.6280675" lon="16.0167118"><ele>896.0</ele><time>2026-04-19T09:54:36.364Z</time></trkpt><trkpt lat="40.6278646" lon="16.0167657"><ele>904.0</ele><time>2026-04-19T09:54:37.364Z</time></trkpt><trkpt lat="40.6276275" lon="16.0168119"><ele>912.0</ele><time>2026-04-19T09:54:38.364Z</time></trkpt><trkpt lat="40.6274099" lon="16.016849"><ele>912.0</ele><time>2026-04-19T09:54:39.364Z</time></trkpt><trkpt lat="40.6272195" lon="16.0169036"><ele>912.0</ele><time>2026-04-19T09:54:40.364Z</time></trkpt><trkpt lat="40.6270425" lon="16.0169746"><ele>912.0</ele><time>2026-04-19T09:54:41.364Z</time></trkpt><trkpt lat="40.626871" lon="16.0170623"><ele>911.6666666666667</ele><time>2026-04-19T09:54:42.364Z</time></trkpt><trkpt lat="40.6267131" lon="16.0171931"><ele>911.3333333333334</ele><time>2026-04-19T09:54:43.364Z</time></trkpt><trkpt lat="40.6265495" lon="16.0173331"><ele>911.0</ele><time>2026-04-19T09:54:44.364Z</time></trkpt><trkpt lat="40.6263964" lon="16.017414"><ele>911.0</ele><time>2026-04-19T09:54:45.364Z</time></trkpt><trkpt lat="40.6262116" lon="16.0174836"><ele>911.0</ele><time>2026-04-19T09:54:46.363Z</time></trkpt><trkpt lat="40.6260281" lon="16.0175493"><ele>911.0</ele><time>2026-04-19T09:54:47.363Z</time></trkpt><trkpt lat="40.6258167" lon="16.0176715"><ele>917.5</ele><time>2026-04-19T09:54:48.363Z</time></trkpt><trkpt lat="40.6256077" lon="16.0178177"><ele>924.0</ele><time>2026-04-19T09:54:49.363Z</time></trkpt><trkpt lat="40.6254034" lon="16.0179598"><ele>924.0</ele><time>2026-04-19T09:54:50.363Z</time></trkpt><trkpt lat="40.6252132" lon="16.0180903"><ele>924.0</ele><time>2026-04-19T09:54:51.363Z</time></trkpt><trkpt lat="40.6250523" lon="16.0182011"><ele>924.0</ele><time>2026-04-19T09:54:52.363Z</time></trkpt><trkpt lat="40.6249239" lon="16.0183082"><ele>927.5</ele><time>2026-04-19T09:54:53.363Z</time></trkpt><trkpt lat="40.6248158" lon="16.0183951"><ele>931.0</ele><time>2026-04-19T09:54:54.363Z</time></trkpt><trkpt lat="40.6247523" lon="16.0185148"><ele>934.5</ele><time>2026-04-19T09:54:55.363Z</time></trkpt><trkpt lat="40.6247429" lon="16.0186922"><ele>938.0</ele><time>2026-04-19T09:54:56.363Z</time></trkpt><trkpt lat="40.6247418" lon="16.0188772"><ele>938.0000000000001</ele><time>2026-04-19T09:54:57.363Z</time></trkpt><trkpt lat="40.6247418" lon="16.0190255"><ele>938.0</ele><time>2026-04-19T09:54:58.363Z</time></trkpt><trkpt lat="40.6247485" lon="16.0191235"><ele>938.0</ele><time>2026-04-19T09:54:59.363Z</time></trkpt><trkpt lat="40.6247618" lon="16.0192254"><ele>938.0</ele><time>2026-04-19T09:55:01.363Z</time></trkpt><trkpt lat="40.6247168" lon="16.0192954"><ele>938.0000000000001</ele><time>2026-04-19T09:55:04.363Z</time></trkpt><trkpt lat="40.6246412" lon="16.0193281"><ele>938.0</ele><time>2026-04-19T09:55:19.363Z</time></trkpt><trkpt lat="40.6245881" lon="16.0193738"><ele>938.8</ele><time>2026-04-19T09:55:22.363Z</time></trkpt><trkpt lat="40.6246043" lon="16.0194544"><ele>939.5999999999999</ele><time>2026-04-19T09:55:53.363Z</time></trkpt><trkpt lat="40.6246031" lon="16.0196522"><ele>940.4000000000001</ele><time>2026-04-19T09:55:55.363Z</time></trkpt><trkpt lat="40.6245865" lon="16.0197788"><ele>941.2</ele><time>2026-04-19T09:55:56.363Z</time></trkpt><trkpt lat="40.6245636" lon="16.0198969"><ele>942.0</ele><time>2026-04-19T09:55:57.363Z</time></trkpt><trkpt lat="40.6245376" lon="16.0200179"><ele>942.3333333333334</ele><time>2026-04-19T09:55:58.363Z</time></trkpt><trkpt lat="40.6244996" lon="16.0201237"><ele>942.6666666666667</ele><time>2026-04-19T09:55:59.363Z</time></trkpt><trkpt lat="40.6244588" lon="16.0202128"><ele>943.0</ele><time>2026-04-19T09:56:00.363Z</time></trkpt><trkpt lat="40.624397" lon="16.0202755"><ele>943.3333333333334</ele><time>2026-04-19T09:56:01.363Z</time></trkpt><trkpt lat="40.6243187" lon="16.0203511"><ele>943.6666666666667</ele><time>2026-04-19T09:56:02.363Z</time></trkpt><trkpt lat="40.6242313" lon="16.0204261"><ele>944.0</ele><time>2026-04-19T09:56:03.363Z</time></trkpt><trkpt lat="40.6241362" lon="16.0205144"><ele>944.0</ele><time>2026-04-19T09:56:04.363Z</time></trkpt><trkpt lat="40.624049" lon="16.0206148"><ele>944.0000000000001</ele><time>2026-04-19T09:56:05.363Z</time></trkpt><trkpt lat="40.6239789" lon="16.0206952"><ele>944.0000000000001</ele><time>2026-04-19T09:56:06.363Z</time></trkpt><trkpt lat="40.6239075" lon="16.0207655"><ele>944.0</ele><time>2026-04-19T09:56:07.363Z</time></trkpt><trkpt lat="40.6238506" lon="16.020829"><ele>944.0</ele><time>2026-04-19T09:56:08.363Z</time></trkpt><trkpt lat="40.6237721" lon="16.0209016"><ele>944.0</ele><time>2026-04-19T09:56:10.363Z</time></trkpt><trkpt lat="40.6236889" lon="16.0209802"><ele>944.0000000000001</ele><time>2026-04-19T09:56:13.363Z</time></trkpt><trkpt lat="40.6235673" lon="16.0210356"><ele>944.0000000000001</ele><time>2026-04-19T09:56:15.363Z</time></trkpt><trkpt lat="40.6234826" lon="16.021072"><ele>944.0</ele><time>2026-04-19T09:56:16.363Z</time></trkpt><trkpt lat="40.6233949" lon="16.0211219"><ele>944.0</ele><time>2026-04-19T09:56:17.363Z</time></trkpt><trkpt lat="40.6232945" lon="16.0211657"><ele>944.2</ele><time>2026-04-19T09:56:18.363Z</time></trkpt><trkpt lat="40.6231893" lon="16.0212129"><ele>944.4000000000001</ele><time>2026-04-19T09:56:19.363Z</time></trkpt><trkpt lat="40.6230788" lon="16.0212491"><ele>944.6</ele><time>2026-04-19T09:56:20.363Z</time></trkpt><trkpt lat="40.6229901" lon="16.0212981"><ele>944.8</ele><time>2026-04-19T09:56:21.363Z</time></trkpt><trkpt lat="40.6228876" lon="16.0212934"><ele>945.0</ele><time>2026-04-19T09:56:23.363Z</time></trkpt><trkpt lat="40.6227747" lon="16.0212484"><ele>945.0</ele><time>2026-04-19T09:56:25.363Z</time></trkpt><trkpt lat="40.6227189" lon="16.0212065"><ele>945.0</ele><time>2026-04-19T09:56:26.363Z</time></trkpt><trkpt lat="40.6226478" lon="16.0211445"><ele>945.0</ele><time>2026-04-19T09:56:27.363Z</time></trkpt><trkpt lat="40.6225767" lon="16.0210544"><ele>945.0</ele><time>2026-04-19T09:56:28.363Z</time></trkpt><trkpt lat="40.6225028" lon="16.0209507"><ele>945.0</ele><time>2026-04-19T09:56:29.363Z</time></trkpt><trkpt lat="40.6224247" lon="16.0208287"><ele>941.0</ele><time>2026-04-19T09:56:30.363Z</time></trkpt><trkpt lat="40.6223524" lon="16.0207142"><ele>937.0</ele><time>2026-04-19T09:56:31.363Z</time></trkpt><trkpt lat="40.6222859" lon="16.0206269"><ele>933.0</ele><time>2026-04-19T09:56:32.363Z</time></trkpt><trkpt lat="40.6222212" lon="16.0205581"><ele>929.0</ele><time>2026-04-19T09:56:33.363Z</time></trkpt><trkpt lat="40.6221496" lon="16.0205055"><ele>925.0</ele><time>2026-04-19T09:56:34.363Z</time></trkpt><trkpt lat="40.6220445" lon="16.020442"><ele>926.4999999999999</ele><time>2026-04-19T09:56:36.363Z</time></trkpt><trkpt lat="40.6219494" lon="16.0204216"><ele>928.0</ele><time>2026-04-19T09:56:38.363Z</time></trkpt><trkpt lat="40.6218575" lon="16.0204065"><ele>929.5</ele><time>2026-04-19T09:56:40.363Z</time></trkpt><trkpt lat="40.6217656" lon="16.0204151"><ele>931.0</ele><time>2026-04-19T09:56:42.363Z</time></trkpt><trkpt lat="40.6216863" lon="16.0204387"><ele>932.4999999999999</ele><time>2026-04-19T09:56:43.363Z</time></trkpt><trkpt lat="40.6216036" lon="16.0204605"><ele>934.0</ele><time>2026-04-19T09:56:44.363Z</time></trkpt><trkpt lat="40.6215348" lon="16.0204998"><ele>934.0</ele><time>2026-04-19T09:56:45.363Z</time></trkpt><trkpt lat="40.6214687" lon="16.0205598"><ele>934.0</ele><time>2026-04-19T09:56:46.363Z</time></trkpt><trkpt lat="40.6213944" lon="16.0206687"><ele>934.0</ele><time>2026-04-19T09:56:47.363Z</time></trkpt><trkpt lat="40.6213093" lon="16.0207971"><ele>934.0</ele><time>2026-04-19T09:56:48.363Z</time></trkpt><trkpt lat="40.6211981" lon="16.020922"><ele>934.5</ele><time>2026-04-19T09:56:49.363Z</time></trkpt><trkpt lat="40.6210684" lon="16.0210336"><ele>935.0</ele><time>2026-04-19T09:56:50.363Z</time></trkpt><trkpt lat="40.6209504" lon="16.0211454"><ele>935.5</ele><time>2026-04-19T09:56:51.362Z</time></trkpt><trkpt lat="40.6208444" lon="16.0212609"><ele>936.0</ele><time>2026-04-19T09:56:52.363Z</time></trkpt><trkpt lat="40.6207182" lon="16.0213276"><ele>936.0</ele><time>2026-04-19T09:56:53.363Z</time></trkpt><trkpt lat="40.6205699" lon="16.0213763"><ele>936.0</ele><time>2026-04-19T09:56:54.363Z</time></trkpt><trkpt lat="40.6204193" lon="16.0214022"><ele>936.0</ele><time>2026-04-19T09:56:55.363Z</time></trkpt><trkpt lat="40.6202718" lon="16.0214358"><ele>931.75</ele><time>2026-04-19T09:56:56.363Z</time></trkpt><trkpt lat="40.6201323" lon="16.0214655"><ele>927.5</ele><time>2026-04-19T09:56:57.363Z</time></trkpt><trkpt lat="40.6199961" lon="16.0214726"><ele>923.25</ele><time>2026-04-19T09:56:58.363Z</time></trkpt><trkpt lat="40.6198487" lon="16.0214672"><ele>919.0</ele><time>2026-04-19T09:56:59.363Z</time></trkpt><trkpt lat="40.6196924" lon="16.0214523"><ele>919.0</ele><time>2026-04-19T09:57:00.363Z</time></trkpt><trkpt lat="40.6195353" lon="16.0214218"><ele>919.0</ele><time>2026-04-19T09:57:01.363Z</time></trkpt><trkpt lat="40.6194028" lon="16.0214039"><ele>919.0</ele><time>2026-04-19T09:57:02.363Z</time></trkpt><trkpt lat="40.6192663" lon="16.0213938"><ele>919.0</ele><time>2026-04-19T09:57:03.363Z</time></trkpt><trkpt lat="40.6191386" lon="16.0214037"><ele>917.0</ele><time>2026-04-19T09:57:04.363Z</time></trkpt><trkpt lat="40.6190195" lon="16.0214222"><ele>915.0</ele><time>2026-04-19T09:57:05.363Z</time></trkpt><trkpt lat="40.6189247" lon="16.021508"><ele>913.0</ele><time>2026-04-19T09:57:06.363Z</time></trkpt><trkpt lat="40.6188301" lon="16.021625"><ele>911.0</ele><time>2026-04-19T09:57:07.363Z</time></trkpt><trkpt lat="40.6187323" lon="16.0217781"><ele>911.25</ele><time>2026-04-19T09:57:08.363Z</time></trkpt><trkpt lat="40.6186581" lon="16.0219488"><ele>911.5</ele><time>2026-04-19T09:57:09.363Z</time></trkpt><trkpt lat="40.6185767" lon="16.0220881"><ele>911.75</ele><time>2026-04-19T09:57:10.363Z</time></trkpt><trkpt lat="40.6185102" lon="16.0221856"><ele>912.0</ele><time>2026-04-19T09:57:11.363Z</time></trkpt><trkpt lat="40.6184416" lon="16.0222576"><ele>912.0</ele><time>2026-04-19T09:57:12.363Z</time></trkpt><trkpt lat="40.6183637" lon="16.0223107"><ele>912.0</ele><time>2026-04-19T09:57:13.363Z</time></trkpt><trkpt lat="40.618242" lon="16.022377"><ele>912.0</ele><time>2026-04-19T09:57:14.363Z</time></trkpt><trkpt lat="40.6181076" lon="16.0224485"><ele>912.0</ele><time>2026-04-19T09:57:15.363Z</time></trkpt><trkpt lat="40.6179617" lon="16.0225364"><ele>911.5</ele><time>2026-04-19T09:57:16.363Z</time></trkpt><trkpt lat="40.6178376" lon="16.0226075"><ele>911.0</ele><time>2026-04-19T09:57:17.363Z</time></trkpt><trkpt lat="40.6177138" lon="16.022685"><ele>910.5</ele><time>2026-04-19T09:57:18.363Z</time></trkpt><trkpt lat="40.6175939" lon="16.0227754"><ele>910.0</ele><time>2026-04-19T09:57:19.363Z</time></trkpt><trkpt lat="40.6174754" lon="16.0228743"><ele>909.9999999999999</ele><time>2026-04-19T09:57:20.363Z</time></trkpt><trkpt lat="40.6173888" lon="16.0229553"><ele>910.0</ele><time>2026-04-19T09:57:21.363Z</time></trkpt><trkpt lat="40.6173184" lon="16.0230283"><ele>910.0</ele><time>2026-04-19T09:57:22.363Z</time></trkpt><trkpt lat="40.6172602" lon="16.0230971"><ele>910.0</ele><time>2026-04-19T09:57:23.363Z</time></trkpt><trkpt lat="40.617211" lon="16.0231521"><ele>909.9999999999999</ele><time>2026-04-19T09:57:24.363Z</time></trkpt><trkpt lat="40.6171555" lon="16.0232043"><ele>910.0</ele><time>2026-04-19T09:57:25.363Z</time></trkpt><trkpt lat="40.6171033" lon="16.0232518"><ele>910.0</ele><time>2026-04-19T09:57:26.363Z</time></trkpt><trkpt lat="40.6170288" lon="16.0232985"><ele>910.0</ele><time>2026-04-19T09:57:27.363Z</time></trkpt><trkpt lat="40.6169269" lon="16.0233348"><ele>910.0</ele><time>2026-04-19T09:57:28.363Z</time></trkpt><trkpt lat="40.6168102" lon="16.0233675"><ele>910.0</ele><time>2026-04-19T09:57:29.363Z</time></trkpt><trkpt lat="40.6166857" lon="16.0234018"><ele>910.0</ele><time>2026-04-19T09:57:30.363Z</time></trkpt><trkpt lat="40.6165391" lon="16.0234597"><ele>910.75</ele><time>2026-04-19T09:57:31.363Z</time></trkpt><trkpt lat="40.616402" lon="16.0235266"><ele>911.5</ele><time>2026-04-19T09:57:32.363Z</time></trkpt><trkpt lat="40.6162763" lon="16.0235906"><ele>912.25</ele><time>2026-04-19T09:57:33.363Z</time></trkpt><trkpt lat="40.6161625" lon="16.0236441"><ele>913.0</ele><time>2026-04-19T09:57:34.363Z</time></trkpt><trkpt lat="40.6160641" lon="16.0236849"><ele>911.8333333333333</ele><time>2026-04-19T09:57:35.363Z</time></trkpt><trkpt lat="40.6159867" lon="16.0237238"><ele>910.6666666666666</ele><time>2026-04-19T09:57:36.363Z</time></trkpt><trkpt lat="40.6159251" lon="16.0237431"><ele>909.5</ele><time>2026-04-19T09:57:37.363Z</time></trkpt><trkpt lat="40.6158582" lon="16.0237635"><ele>908.3333333333333</ele><time>2026-04-19T09:57:38.363Z</time></trkpt><trkpt lat="40.6157708" lon="16.023796"><ele>907.1666666666666</ele><time>2026-04-19T09:57:39.363Z</time></trkpt><trkpt lat="40.615658" lon="16.0238414"><ele>906.0</ele><time>2026-04-19T09:57:40.363Z</time></trkpt><trkpt lat="40.6155386" lon="16.0239002"><ele>906.0</ele><time>2026-04-19T09:57:41.363Z</time></trkpt><trkpt lat="40.6154329" lon="16.0239632"><ele>905.9999999999999</ele><time>2026-04-19T09:57:42.363Z</time></trkpt><trkpt lat="40.6153485" lon="16.0240192"><ele>905.9999999999999</ele><time>2026-04-19T09:57:43.363Z</time></trkpt><trkpt lat="40.6152769" lon="16.0240648"><ele>906.0</ele><time>2026-04-19T09:57:44.363Z</time></trkpt><trkpt lat="40.6151703" lon="16.0241542"><ele>906.0</ele><time>2026-04-19T09:57:46.363Z</time></trkpt><trkpt lat="40.6150774" lon="16.0242124"><ele>908.0</ele><time>2026-04-19T09:57:47.363Z</time></trkpt><trkpt lat="40.6149799" lon="16.024289"><ele>909.9999999999999</ele><time>2026-04-19T09:57:48.363Z</time></trkpt><trkpt lat="40.6148791" lon="16.0243724"><ele>911.9999999999999</ele><time>2026-04-19T09:57:49.363Z</time></trkpt><trkpt lat="40.6147817" lon="16.024444"><ele>914.0</ele><time>2026-04-19T09:57:50.363Z</time></trkpt><trkpt lat="40.6146857" lon="16.0244843"><ele>916.0</ele><time>2026-04-19T09:57:51.363Z</time></trkpt><trkpt lat="40.6145844" lon="16.024508"><ele>915.0</ele><time>2026-04-19T09:57:52.363Z</time></trkpt><trkpt lat="40.6144727" lon="16.024533"><ele>914.0</ele><time>2026-04-19T09:57:53.363Z</time></trkpt><trkpt lat="40.6143516" lon="16.0245555"><ele>913.0</ele><time>2026-04-19T09:57:54.363Z</time></trkpt><trkpt lat="40.6142135" lon="16.02457"><ele>912.0</ele><time>2026-04-19T09:57:55.363Z</time></trkpt><trkpt lat="40.6140983" lon="16.0245786"><ele>912.0</ele><time>2026-04-19T09:57:56.363Z</time></trkpt><trkpt lat="40.6139937" lon="16.0245826"><ele>912.0</ele><time>2026-04-19T09:57:57.363Z</time></trkpt><trkpt lat="40.6138835" lon="16.0245895"><ele>912.0</ele><time>2026-04-19T09:57:58.363Z</time></trkpt><trkpt lat="40.6137774" lon="16.024633"><ele>912.0</ele><time>2026-04-19T09:57:59.363Z</time></trkpt><trkpt lat="40.613673" lon="16.0246937"><ele>912.0</ele><time>2026-04-19T09:58:00.363Z</time></trkpt><trkpt lat="40.6135747" lon="16.0247702"><ele>911.75</ele><time>2026-04-19T09:58:01.363Z</time></trkpt><trkpt lat="40.6134776" lon="16.024859"><ele>911.5</ele><time>2026-04-19T09:58:02.363Z</time></trkpt><trkpt lat="40.6133764" lon="16.0249456"><ele>911.25</ele><time>2026-04-19T09:58:03.363Z</time></trkpt><trkpt lat="40.6132815" lon="16.0250217"><ele>911.0</ele><time>2026-04-19T09:58:04.363Z</time></trkpt><trkpt lat="40.6131928" lon="16.0251042"><ele>911.1666666666667</ele><time>2026-04-19T09:58:05.363Z</time></trkpt><trkpt lat="40.6131107" lon="16.025186"><ele>911.3333333333334</ele><time>2026-04-19T09:58:06.363Z</time></trkpt><trkpt lat="40.6130404" lon="16.0252492"><ele>911.5</ele><time>2026-04-19T09:58:07.363Z</time></trkpt><trkpt lat="40.6129729" lon="16.0253171"><ele>911.6666666666667</ele><time>2026-04-19T09:58:08.363Z</time></trkpt><trkpt lat="40.6129102" lon="16.0254002"><ele>911.8333333333334</ele><time>2026-04-19T09:58:09.363Z</time></trkpt><trkpt lat="40.6128578" lon="16.025476"><ele>912.0</ele><time>2026-04-19T09:58:10.363Z</time></trkpt><trkpt lat="40.6128195" lon="16.0255566"><ele>912.0</ele><time>2026-04-19T09:58:11.363Z</time></trkpt><trkpt lat="40.6127715" lon="16.0256387"><ele>912.0</ele><time>2026-04-19T09:58:12.363Z</time></trkpt><trkpt lat="40.6127234" lon="16.0257316"><ele>912.0</ele><time>2026-04-19T09:58:13.363Z</time></trkpt><trkpt lat="40.6126575" lon="16.0258276"><ele>912.0</ele><time>2026-04-19T09:58:14.363Z</time></trkpt><trkpt lat="40.6125764" lon="16.0259011"><ele>912.0</ele><time>2026-04-19T09:58:15.363Z</time></trkpt><trkpt lat="40.612473" lon="16.0259669"><ele>914.0</ele><time>2026-04-19T09:58:16.363Z</time></trkpt><trkpt lat="40.6123414" lon="16.0260415"><ele>916.0</ele><time>2026-04-19T09:58:17.363Z</time></trkpt><trkpt lat="40.6122047" lon="16.0261173"><ele>918.0</ele><time>2026-04-19T09:58:18.363Z</time></trkpt><trkpt lat="40.6120687" lon="16.0261917"><ele>920.0</ele><time>2026-04-19T09:58:19.363Z</time></trkpt><trkpt lat="40.6119273" lon="16.0262859"><ele>922.0</ele><time>2026-04-19T09:58:20.363Z</time></trkpt><trkpt lat="40.6117742" lon="16.0263626"><ele>924.0</ele><time>2026-04-19T09:58:21.363Z</time></trkpt><trkpt lat="40.6116232" lon="16.0264414"><ele>926.0</ele><time>2026-04-19T09:58:22.363Z</time></trkpt><trkpt lat="40.611488" lon="16.0265009"><ele>926.0</ele><time>2026-04-19T09:58:23.363Z</time></trkpt><trkpt lat="40.6113428" lon="16.0265393"><ele>926.0</ele><time>2026-04-19T09:58:24.363Z</time></trkpt><trkpt lat="40.6111919" lon="16.0265716"><ele>926.0</ele><time>2026-04-19T09:58:25.363Z</time></trkpt><trkpt lat="40.6110436" lon="16.0266076"><ele>929.0</ele><time>2026-04-19T09:58:26.363Z</time></trkpt><trkpt lat="40.6108987" lon="16.0266362"><ele>932.0</ele><time>2026-04-19T09:58:27.363Z</time></trkpt><trkpt lat="40.6107391" lon="16.0266549"><ele>935.0</ele><time>2026-04-19T09:58:28.363Z</time></trkpt><trkpt lat="40.6105808" lon="16.0266693"><ele>934.75</ele><time>2026-04-19T09:58:29.363Z</time></trkpt><trkpt lat="40.6104427" lon="16.0266782"><ele>934.5</ele><time>2026-04-19T09:58:30.363Z</time></trkpt><trkpt lat="40.610305" lon="16.0266741"><ele>934.25</ele><time>2026-04-19T09:58:31.363Z</time></trkpt><trkpt lat="40.6101691" lon="16.0266782"><ele>934.0</ele><time>2026-04-19T09:58:32.363Z</time></trkpt><trkpt lat="40.6100337" lon="16.0266979"><ele>934.0</ele><time>2026-04-19T09:58:33.363Z</time></trkpt><trkpt lat="40.6098864" lon="16.0267422"><ele>934.0</ele><time>2026-04-19T09:58:34.363Z</time></trkpt><trkpt lat="40.6097276" lon="16.0268205"><ele>934.0</ele><time>2026-04-19T09:58:35.362Z</time></trkpt><trkpt lat="40.6095784" lon="16.0269103"><ele>931.5</ele><time>2026-04-19T09:58:36.362Z</time></trkpt><trkpt lat="40.6094348" lon="16.0269974"><ele>929.0</ele><time>2026-04-19T09:58:37.362Z</time></trkpt><trkpt lat="40.6093105" lon="16.0270595"><ele>926.5</ele><time>2026-04-19T09:58:38.362Z</time></trkpt><trkpt lat="40.6092165" lon="16.0271396"><ele>924.0</ele><time>2026-04-19T09:58:39.362Z</time></trkpt><trkpt lat="40.6091423" lon="16.0272376"><ele>924.0</ele><time>2026-04-19T09:58:40.362Z</time></trkpt><trkpt lat="40.6090859" lon="16.0273795"><ele>924.0000000000001</ele><time>2026-04-19T09:58:41.362Z</time></trkpt><trkpt lat="40.6090236" lon="16.0275253"><ele>924.0000000000001</ele><time>2026-04-19T09:58:42.362Z</time></trkpt><trkpt lat="40.6089701" lon="16.0276407"><ele>924.0</ele><time>2026-04-19T09:58:43.362Z</time></trkpt><trkpt lat="40.6089171" lon="16.0277225"><ele>924.0</ele><time>2026-04-19T09:58:44.362Z</time></trkpt><trkpt lat="40.6088537" lon="16.0277815"><ele>924.6</ele><time>2026-04-19T09:58:45.362Z</time></trkpt><trkpt lat="40.6087766" lon="16.0278475"><ele>925.2</ele><time>2026-04-19T09:58:46.362Z</time></trkpt><trkpt lat="40.6087028" lon="16.0279153"><ele>925.8000000000001</ele><time>2026-04-19T09:58:47.362Z</time></trkpt><trkpt lat="40.6086319" lon="16.0280146"><ele>926.4000000000001</ele><time>2026-04-19T09:58:48.362Z</time></trkpt><trkpt lat="40.6085613" lon="16.0281331"><ele>927.0</ele><time>2026-04-19T09:58:49.362Z</time></trkpt><trkpt lat="40.6084911" lon="16.0282683"><ele>925.25</ele><time>2026-04-19T09:58:50.362Z</time></trkpt><trkpt lat="40.6083917" lon="16.0283776"><ele>923.5</ele><time>2026-04-19T09:58:51.362Z</time></trkpt><trkpt lat="40.608256" lon="16.0284668"><ele>921.75</ele><time>2026-04-19T09:58:52.362Z</time></trkpt><trkpt lat="40.6081044" lon="16.0285403"><ele>920.0</ele><time>2026-04-19T09:58:53.362Z</time></trkpt><trkpt lat="40.6079573" lon="16.0285774"><ele>917.5</ele><time>2026-04-19T09:58:54.362Z</time></trkpt><trkpt lat="40.6078189" lon="16.0285942"><ele>915.0</ele><time>2026-04-19T09:58:55.362Z</time></trkpt><trkpt lat="40.6076828" lon="16.028574"><ele>912.5</ele><time>2026-04-19T09:58:56.362Z</time></trkpt><trkpt lat="40.6075548" lon="16.0285289"><ele>910.0</ele><time>2026-04-19T09:58:57.362Z</time></trkpt><trkpt lat="40.6074388" lon="16.0284844"><ele>910.0</ele><time>2026-04-19T09:58:58.362Z</time></trkpt><trkpt lat="40.6073195" lon="16.0284234"><ele>910.0</ele><time>2026-04-19T09:58:59.362Z</time></trkpt><trkpt lat="40.6072106" lon="16.0283559"><ele>910.0</ele><time>2026-04-19T09:59:00.362Z</time></trkpt><trkpt lat="40.6070977" lon="16.0283279"><ele>910.0</ele><time>2026-04-19T09:59:01.362Z</time></trkpt><trkpt lat="40.6069693" lon="16.0283482"><ele>907.0</ele><time>2026-04-19T09:59:02.362Z</time></trkpt><trkpt lat="40.6068143" lon="16.0284224"><ele>904.0</ele><time>2026-04-19T09:59:03.362Z</time></trkpt><trkpt lat="40.6066343" lon="16.0284994"><ele>901.0</ele><time>2026-04-19T09:59:04.362Z</time></trkpt><trkpt lat="40.6064694" lon="16.0285574"><ele>901.0</ele><time>2026-04-19T09:59:05.362Z</time></trkpt><trkpt lat="40.6063356" lon="16.0286098"><ele>901.0</ele><time>2026-04-19T09:59:06.362Z</time></trkpt><trkpt lat="40.6062332" lon="16.0286667"><ele>901.0</ele><time>2026-04-19T09:59:07.362Z</time></trkpt><trkpt lat="40.6061519" lon="16.0287667"><ele>901.0</ele><time>2026-04-19T09:59:08.362Z</time></trkpt><trkpt lat="40.6061038" lon="16.0289116"><ele>903.25</ele><time>2026-04-19T09:59:09.362Z</time></trkpt><trkpt lat="40.6060842" lon="16.029076"><ele>905.5</ele><time>2026-04-19T09:59:10.362Z</time></trkpt><trkpt lat="40.6061057" lon="16.0292445"><ele>907.75</ele><time>2026-04-19T09:59:11.362Z</time></trkpt><trkpt lat="40.6061554" lon="16.029416"><ele>910.0</ele><time>2026-04-19T09:59:12.362Z</time></trkpt><trkpt lat="40.606218" lon="16.0295793"><ele>910.0</ele><time>2026-04-19T09:59:13.362Z</time></trkpt><trkpt lat="40.6062882" lon="16.0297491"><ele>910.0</ele><time>2026-04-19T09:59:14.362Z</time></trkpt><trkpt lat="40.6063331" lon="16.0299256"><ele>910.0</ele><time>2026-04-19T09:59:15.362Z</time></trkpt><trkpt lat="40.6063583" lon="16.0300996"><ele>910.0</ele><time>2026-04-19T09:59:16.362Z</time></trkpt><trkpt lat="40.6063647" lon="16.0302728"><ele>910.5</ele><time>2026-04-19T09:59:17.362Z</time></trkpt><trkpt lat="40.6063577" lon="16.0304534"><ele>911.0</ele><time>2026-04-19T09:59:18.362Z</time></trkpt><trkpt lat="40.6063378" lon="16.0306483"><ele>911.5</ele><time>2026-04-19T09:59:19.362Z</time></trkpt><trkpt lat="40.6063166" lon="16.0308521"><ele>912.0</ele><time>2026-04-19T09:59:20.362Z</time></trkpt><trkpt lat="40.6063092" lon="16.0310667"><ele>912.3333333333333</ele><time>2026-04-19T09:59:21.362Z</time></trkpt><trkpt lat="40.6063079" lon="16.0312806"><ele>912.6666666666666</ele><time>2026-04-19T09:59:22.362Z</time></trkpt><trkpt lat="40.6062775" lon="16.0314723"><ele>913.0</ele><time>2026-04-19T09:59:23.362Z</time></trkpt><trkpt lat="40.6062241" lon="16.0316523"><ele>902.0</ele><time>2026-04-19T09:59:24.362Z</time></trkpt><trkpt lat="40.6061293" lon="16.0318569"><ele>891.0</ele><time>2026-04-19T09:59:25.362Z</time></trkpt><trkpt lat="40.6060346" lon="16.0320715"><ele>880.0</ele><time>2026-04-19T09:59:26.362Z</time></trkpt><trkpt lat="40.6059384" lon="16.0323228"><ele>882.0</ele><time>2026-04-19T09:59:27.362Z</time></trkpt><trkpt lat="40.6058438" lon="16.0325775"><ele>884.0</ele><time>2026-04-19T09:59:28.362Z</time></trkpt><trkpt lat="40.6057478" lon="16.0328239"><ele>886.0</ele><time>2026-04-19T09:59:29.362Z</time></trkpt><trkpt lat="40.60566" lon="16.0330486"><ele>886.0</ele><time>2026-04-19T09:59:30.362Z</time></trkpt><trkpt lat="40.60559" lon="16.0332444"><ele>886.0</ele><time>2026-04-19T09:59:31.362Z</time></trkpt><trkpt lat="40.6055356" lon="16.0334101"><ele>886.0</ele><time>2026-04-19T09:59:32.362Z</time></trkpt><trkpt lat="40.605535" lon="16.0335531"><ele>886.0</ele><time>2026-04-19T09:59:33.362Z</time></trkpt><trkpt lat="40.60556" lon="16.0337382"><ele>886.0</ele><time>2026-04-19T09:59:34.362Z</time></trkpt><trkpt lat="40.6056165" lon="16.0339469"><ele>886.0</ele><time>2026-04-19T09:59:35.362Z</time></trkpt><trkpt lat="40.6056771" lon="16.0341286"><ele>886.0</ele><time>2026-04-19T09:59:36.362Z</time></trkpt><trkpt lat="40.6057154" lon="16.0342856"><ele>886.0</ele><time>2026-04-19T09:59:37.362Z</time></trkpt><trkpt lat="40.6057275" lon="16.0344405"><ele>886.0</ele><time>2026-04-19T09:59:38.362Z</time></trkpt><trkpt lat="40.6057011" lon="16.0345881"><ele>886.0</ele><time>2026-04-19T09:59:39.362Z</time></trkpt><trkpt lat="40.6056702" lon="16.034744"><ele>886.0</ele><time>2026-04-19T09:59:40.362Z</time></trkpt><trkpt lat="40.6056013" lon="16.0349103"><ele>886.0</ele><time>2026-04-19T09:59:41.362Z</time></trkpt><trkpt lat="40.6055351" lon="16.035102"><ele>883.6666666666666</ele><time>2026-04-19T09:59:42.362Z</time></trkpt><trkpt lat="40.6054967" lon="16.0353206"><ele>881.3333333333333</ele><time>2026-04-19T09:59:43.362Z</time></trkpt><trkpt lat="40.6054592" lon="16.0355216"><ele>879.0</ele><time>2026-04-19T09:59:44.362Z</time></trkpt><trkpt lat="40.6054075" lon="16.0357081"><ele>875.75</ele><time>2026-04-19T09:59:45.362Z</time></trkpt><trkpt lat="40.6053283" lon="16.0358604"><ele>872.5</ele><time>2026-04-19T09:59:46.362Z</time></trkpt><trkpt lat="40.6052244" lon="16.0359594"><ele>869.25</ele><time>2026-04-19T09:59:47.362Z</time></trkpt><trkpt lat="40.6051024" lon="16.0360344"><ele>866.0</ele><time>2026-04-19T09:59:48.362Z</time></trkpt><trkpt lat="40.6049511" lon="16.0360615"><ele>866.0</ele><time>2026-04-19T09:59:49.361Z</time></trkpt><trkpt lat="40.6047867" lon="16.0360503"><ele>866.0</ele><time>2026-04-19T09:59:50.362Z</time></trkpt><trkpt lat="40.6046324" lon="16.0360586"><ele>866.0</ele><time>2026-04-19T09:59:51.362Z</time></trkpt><trkpt lat="40.6045096" lon="16.0360897"><ele>866.0</ele><time>2026-04-19T09:59:52.362Z</time></trkpt><trkpt lat="40.6044244" lon="16.0361903"><ele>864.75</ele><time>2026-04-19T09:59:53.362Z</time></trkpt><trkpt lat="40.6043609" lon="16.0363256"><ele>863.5</ele><time>2026-04-19T09:59:54.362Z</time></trkpt><trkpt lat="40.604335" lon="16.0364714"><ele>862.25</ele><time>2026-04-19T09:59:55.362Z</time></trkpt><trkpt lat="40.6043423" lon="16.0366703"><ele>861.0</ele><time>2026-04-19T09:59:56.362Z</time></trkpt><trkpt lat="40.6043552" lon="16.0368898"><ele>861.0</ele><time>2026-04-19T09:59:57.362Z</time></trkpt><trkpt lat="40.6043574" lon="16.0371117"><ele>861.0</ele><time>2026-04-19T09:59:58.362Z</time></trkpt><trkpt lat="40.6043587" lon="16.0373023"><ele>861.0</ele><time>2026-04-19T09:59:59.362Z</time></trkpt><trkpt lat="40.6043252" lon="16.0374776"><ele>859.3333333333333</ele><time>2026-04-19T10:00:00.362Z</time></trkpt><trkpt lat="40.6042504" lon="16.0376336"><ele>857.6666666666666</ele><time>2026-04-19T10:00:01.362Z</time></trkpt><trkpt lat="40.604135" lon="16.0377663"><ele>856.0</ele><time>2026-04-19T10:00:02.362Z</time></trkpt><trkpt lat="40.6039686" lon="16.0379088"><ele>856.0</ele><time>2026-04-19T10:00:03.362Z</time></trkpt><trkpt lat="40.6038089" lon="16.0380792"><ele>856.0</ele><time>2026-04-19T10:00:04.362Z</time></trkpt><trkpt lat="40.6036637" lon="16.0382718"><ele>856.0</ele><time>2026-04-19T10:00:05.362Z</time></trkpt><trkpt lat="40.6035152" lon="16.0385191"><ele>852.6666666666666</ele><time>2026-04-19T10:00:06.362Z</time></trkpt><trkpt lat="40.6033759" lon="16.0387617"><ele>849.3333333333333</ele><time>2026-04-19T10:00:07.362Z</time></trkpt><trkpt lat="40.603247" lon="16.0389669"><ele>846.0</ele><time>2026-04-19T10:00:08.362Z</time></trkpt><trkpt lat="40.6031478" lon="16.0391321"><ele>846.6666666666667</ele><time>2026-04-19T10:00:09.362Z</time></trkpt><trkpt lat="40.6030705" lon="16.0392942"><ele>847.3333333333334</ele><time>2026-04-19T10:00:10.362Z</time></trkpt><trkpt lat="40.6030147" lon="16.0394917"><ele>848.0</ele><time>2026-04-19T10:00:11.362Z</time></trkpt><trkpt lat="40.6029907" lon="16.0396962"><ele>848.0</ele><time>2026-04-19T10:00:12.362Z</time></trkpt><trkpt lat="40.6029651" lon="16.0398474"><ele>848.0</ele><time>2026-04-19T10:00:13.362Z</time></trkpt><trkpt lat="40.6029043" lon="16.0399365"><ele>848.0</ele><time>2026-04-19T10:00:14.362Z</time></trkpt><trkpt lat="40.6028156" lon="16.0400101"><ele>848.0</ele><time>2026-04-19T10:00:15.362Z</time></trkpt><trkpt lat="40.6026964" lon="16.0400426"><ele>848.0</ele><time>2026-04-19T10:00:16.362Z</time></trkpt><trkpt lat="40.6025579" lon="16.0400368"><ele>846.6666666666667</ele><time>2026-04-19T10:00:17.362Z</time></trkpt><trkpt lat="40.6024166" lon="16.0400487"><ele>845.3333333333333</ele><time>2026-04-19T10:00:18.362Z</time></trkpt><trkpt lat="40.6022593" lon="16.0401075"><ele>844.0</ele><time>2026-04-19T10:00:19.362Z</time></trkpt><trkpt lat="40.6020695" lon="16.0402209"><ele>840.0</ele><time>2026-04-19T10:00:20.362Z</time></trkpt><trkpt lat="40.6018621" lon="16.0403513"><ele>836.0</ele><time>2026-04-19T10:00:21.362Z</time></trkpt><trkpt lat="40.6016745" lon="16.0404678"><ele>832.0</ele><time>2026-04-19T10:00:22.362Z</time></trkpt><trkpt lat="40.6015307" lon="16.0405607"><ele>832.0</ele><time>2026-04-19T10:00:23.362Z</time></trkpt><trkpt lat="40.6014038" lon="16.0406361"><ele>832.0</ele><time>2026-04-19T10:00:24.362Z</time></trkpt><trkpt lat="40.6012816" lon="16.0406882"><ele>832.0</ele><time>2026-04-19T10:00:25.362Z</time></trkpt><trkpt lat="40.6011241" lon="16.0406742"><ele>832.0</ele><time>2026-04-19T10:00:26.362Z</time></trkpt><trkpt lat="40.6009351" lon="16.0406458"><ele>830.0</ele><time>2026-04-19T10:00:27.362Z</time></trkpt><trkpt lat="40.600744" lon="16.0406055"><ele>828.0</ele><time>2026-04-19T10:00:28.362Z</time></trkpt><trkpt lat="40.6005926" lon="16.0405768"><ele>826.0</ele><time>2026-04-19T10:00:29.362Z</time></trkpt><trkpt lat="40.6004843" lon="16.0405771"><ele>826.0</ele><time>2026-04-19T10:00:30.362Z</time></trkpt><trkpt lat="40.6003785" lon="16.0406224"><ele>826.0</ele><time>2026-04-19T10:00:31.362Z</time></trkpt><trkpt lat="40.6002855" lon="16.04072"><ele>826.0</ele><time>2026-04-19T10:00:32.362Z</time></trkpt><trkpt lat="40.6002143" lon="16.0408744"><ele>826.0</ele><time>2026-04-19T10:00:33.362Z</time></trkpt><trkpt lat="40.6001494" lon="16.0410539"><ele>826.25</ele><time>2026-04-19T10:00:34.362Z</time></trkpt><trkpt lat="40.6000856" lon="16.0412094"><ele>826.5</ele><time>2026-04-19T10:00:35.362Z</time></trkpt><trkpt lat="40.6000203" lon="16.0413308"><ele>826.75</ele><time>2026-04-19T10:00:36.362Z</time></trkpt><trkpt lat="40.5999105" lon="16.0414442"><ele>827.0</ele><time>2026-04-19T10:00:37.362Z</time></trkpt><trkpt lat="40.5997753" lon="16.0415404"><ele>827.0</ele><time>2026-04-19T10:00:38.362Z</time></trkpt><trkpt lat="40.5996487" lon="16.041631"><ele>827.0</ele><time>2026-04-19T10:00:39.362Z</time></trkpt><trkpt lat="40.5995406" lon="16.0417384"><ele>827.0</ele><time>2026-04-19T10:00:40.362Z</time></trkpt><trkpt lat="40.5994685" lon="16.0419252"><ele>827.0</ele><time>2026-04-19T10:00:41.362Z</time></trkpt><trkpt lat="40.5994049" lon="16.0421263"><ele>824.0</ele><time>2026-04-19T10:00:42.362Z</time></trkpt><trkpt lat="40.5993205" lon="16.042295"><ele>821.0</ele><time>2026-04-19T10:00:43.362Z</time></trkpt><trkpt lat="40.5992213" lon="16.0424636"><ele>818.0</ele><time>2026-04-19T10:00:44.362Z</time></trkpt><trkpt lat="40.59909" lon="16.0426421"><ele>818.0</ele><time>2026-04-19T10:00:45.362Z</time></trkpt><trkpt lat="40.5989466" lon="16.0428414"><ele>818.0</ele><time>2026-04-19T10:00:46.362Z</time></trkpt><trkpt lat="40.5988095" lon="16.0430143"><ele>818.0</ele><time>2026-04-19T10:00:47.362Z</time></trkpt><trkpt lat="40.5986889" lon="16.0431493"><ele>817.0</ele><time>2026-04-19T10:00:48.362Z</time></trkpt><trkpt lat="40.5985673" lon="16.043255"><ele>816.0</ele><time>2026-04-19T10:00:49.362Z</time></trkpt><trkpt lat="40.5984603" lon="16.0433409"><ele>815.0</ele><time>2026-04-19T10:00:50.362Z</time></trkpt><trkpt lat="40.5983852" lon="16.0434222"><ele>814.0</ele><time>2026-04-19T10:00:51.362Z</time></trkpt><trkpt lat="40.59832" lon="16.0435167"><ele>814.0</ele><time>2026-04-19T10:00:52.362Z</time></trkpt><trkpt lat="40.5982757" lon="16.0436139"><ele>814.0</ele><time>2026-04-19T10:00:53.362Z</time></trkpt><trkpt lat="40.5982457" lon="16.0437402"><ele>814.0</ele><time>2026-04-19T10:00:54.362Z</time></trkpt><trkpt lat="40.598222" lon="16.0439049"><ele>814.0</ele><time>2026-04-19T10:00:55.362Z</time></trkpt><trkpt lat="40.5982061" lon="16.044069"><ele>814.0</ele><time>2026-04-19T10:00:56.362Z</time></trkpt><trkpt lat="40.5981941" lon="16.0441879"><ele>813.9999999999999</ele><time>2026-04-19T10:00:57.362Z</time></trkpt><trkpt lat="40.5981311" lon="16.0442576"><ele>814.0</ele><time>2026-04-19T10:00:58.362Z</time></trkpt><trkpt lat="40.5980609" lon="16.0443108"><ele>814.0</ele><time>2026-04-19T10:00:59.362Z</time></trkpt><trkpt lat="40.5979826" lon="16.0443137"><ele>814.0</ele><time>2026-04-19T10:01:00.362Z</time></trkpt><trkpt lat="40.5978969" lon="16.044249"><ele>813.9999999999999</ele><time>2026-04-19T10:01:01.362Z</time></trkpt><trkpt lat="40.5978412" lon="16.044128"><ele>814.0</ele><time>2026-04-19T10:01:02.362Z</time></trkpt><trkpt lat="40.5978239" lon="16.0439367"><ele>812.0</ele><time>2026-04-19T10:01:03.362Z</time></trkpt><trkpt lat="40.5978299" lon="16.0437315"><ele>810.0</ele><time>2026-04-19T10:01:04.362Z</time></trkpt><trkpt lat="40.5978269" lon="16.0435577"><ele>808.0</ele><time>2026-04-19T10:01:05.362Z</time></trkpt><trkpt lat="40.5977983" lon="16.043402"><ele>806.0</ele><time>2026-04-19T10:01:06.362Z</time></trkpt><trkpt lat="40.5977364" lon="16.0432993"><ele>805.5</ele><time>2026-04-19T10:01:07.362Z</time></trkpt><trkpt lat="40.5976605" lon="16.0432136"><ele>805.0</ele><time>2026-04-19T10:01:08.362Z</time></trkpt><trkpt lat="40.5975758" lon="16.0431407"><ele>804.5</ele><time>2026-04-19T10:01:09.362Z</time></trkpt><trkpt lat="40.5974776" lon="16.0430504"><ele>804.0</ele><time>2026-04-19T10:01:10.362Z</time></trkpt><trkpt lat="40.5973482" lon="16.0429166"><ele>804.0</ele><time>2026-04-19T10:01:11.362Z</time></trkpt><trkpt lat="40.5972098" lon="16.042763"><ele>804.0</ele><time>2026-04-19T10:01:12.362Z</time></trkpt><trkpt lat="40.5970692" lon="16.0426157"><ele>804.0</ele><time>2026-04-19T10:01:13.362Z</time></trkpt><trkpt lat="40.596939" lon="16.0424783"><ele>802.25</ele><time>2026-04-19T10:01:14.362Z</time></trkpt><trkpt lat="40.5968239" lon="16.0423693"><ele>800.5</ele><time>2026-04-19T10:01:15.362Z</time></trkpt><trkpt lat="40.5967089" lon="16.0423021"><ele>798.75</ele><time>2026-04-19T10:01:16.362Z</time></trkpt><trkpt lat="40.5965743" lon="16.0422828"><ele>797.0</ele><time>2026-04-19T10:01:17.362Z</time></trkpt><trkpt lat="40.5964246" lon="16.0422991"><ele>797.0</ele><time>2026-04-19T10:01:18.362Z</time></trkpt><trkpt lat="40.5962671" lon="16.042354"><ele>797.0</ele><time>2026-04-19T10:01:19.362Z</time></trkpt><trkpt lat="40.5961466" lon="16.0423861"><ele>797.0</ele><time>2026-04-19T10:01:20.362Z</time></trkpt><trkpt lat="40.5960442" lon="16.0423265"><ele>797.0</ele><time>2026-04-19T10:01:21.362Z</time></trkpt><trkpt lat="40.5959491" lon="16.0422293"><ele>799.0</ele><time>2026-04-19T10:01:22.362Z</time></trkpt><trkpt lat="40.5958716" lon="16.042062"><ele>801.0</ele><time>2026-04-19T10:01:23.362Z</time></trkpt><trkpt lat="40.5958073" lon="16.0418674"><ele>803.0</ele><time>2026-04-19T10:01:24.362Z</time></trkpt><trkpt lat="40.5957291" lon="16.0416439"><ele>801.6666666666667</ele><time>2026-04-19T10:01:25.362Z</time></trkpt><trkpt lat="40.5956465" lon="16.0414347"><ele>800.3333333333333</ele><time>2026-04-19T10:01:26.362Z</time></trkpt><trkpt lat="40.5955568" lon="16.0412476"><ele>799.0</ele><time>2026-04-19T10:01:27.362Z</time></trkpt><trkpt lat="40.5954557" lon="16.0410896"><ele>799.0</ele><time>2026-04-19T10:01:28.362Z</time></trkpt><trkpt lat="40.5953465" lon="16.0409721"><ele>799.0</ele><time>2026-04-19T10:01:29.362Z</time></trkpt><trkpt lat="40.5952223" lon="16.0408832"><ele>799.0</ele><time>2026-04-19T10:01:30.362Z</time></trkpt><trkpt lat="40.5950665" lon="16.0408248"><ele>799.0</ele><time>2026-04-19T10:01:31.362Z</time></trkpt><trkpt lat="40.5949159" lon="16.040798"><ele>801.0</ele><time>2026-04-19T10:01:32.362Z</time></trkpt><trkpt lat="40.5947796" lon="16.0407988"><ele>803.0</ele><time>2026-04-19T10:01:33.362Z</time></trkpt><trkpt lat="40.5946184" lon="16.0408465"><ele>805.0</ele><time>2026-04-19T10:01:34.362Z</time></trkpt><trkpt lat="40.5944051" lon="16.0409418"><ele>805.3333333333333</ele><time>2026-04-19T10:01:35.362Z</time></trkpt><trkpt lat="40.5941905" lon="16.0410517"><ele>805.6666666666667</ele><time>2026-04-19T10:01:36.362Z</time></trkpt><trkpt lat="40.5939888" lon="16.0411564"><ele>806.0</ele><time>2026-04-19T10:01:37.362Z</time></trkpt><trkpt lat="40.5938166" lon="16.041224"><ele>805.3333333333334</ele><time>2026-04-19T10:01:38.362Z</time></trkpt><trkpt lat="40.5936535" lon="16.0412652"><ele>804.6666666666667</ele><time>2026-04-19T10:01:39.362Z</time></trkpt><trkpt lat="40.593504" lon="16.041265"><ele>804.0</ele><time>2026-04-19T10:01:40.362Z</time></trkpt><trkpt lat="40.5933553" lon="16.0412077"><ele>804.0</ele><time>2026-04-19T10:01:41.362Z</time></trkpt><trkpt lat="40.5932089" lon="16.0411176"><ele>804.0</ele><time>2026-04-19T10:01:42.362Z</time></trkpt><trkpt lat="40.5930715" lon="16.0410082"><ele>804.0</ele><time>2026-04-19T10:01:43.362Z</time></trkpt><trkpt lat="40.5929133" lon="16.0409369"><ele>804.3333333333333</ele><time>2026-04-19T10:01:44.362Z</time></trkpt><trkpt lat="40.5927287" lon="16.0409077"><ele>804.6666666666666</ele><time>2026-04-19T10:01:45.362Z</time></trkpt><trkpt lat="40.5925286" lon="16.0408878"><ele>805.0</ele><time>2026-04-19T10:01:46.362Z</time></trkpt><trkpt lat="40.5923348" lon="16.0408378"><ele>803.3333333333333</ele><time>2026-04-19T10:01:47.362Z</time></trkpt><trkpt lat="40.592144" lon="16.0407565"><ele>801.6666666666667</ele><time>2026-04-19T10:01:48.362Z</time></trkpt><trkpt lat="40.5919611" lon="16.0406524"><ele>800.0</ele><time>2026-04-19T10:01:49.362Z</time></trkpt><trkpt lat="40.5917954" lon="16.0405677"><ele>800.0</ele><time>2026-04-19T10:01:50.362Z</time></trkpt><trkpt lat="40.5916176" lon="16.0405247"><ele>800.0</ele><time>2026-04-19T10:01:51.362Z</time></trkpt><trkpt lat="40.5914195" lon="16.0405321"><ele>800.0</ele><time>2026-04-19T10:01:52.362Z</time></trkpt><trkpt lat="40.5912074" lon="16.0405446"><ele>801.6666666666667</ele><time>2026-04-19T10:01:53.362Z</time></trkpt><trkpt lat="40.5910205" lon="16.0405656"><ele>803.3333333333333</ele><time>2026-04-19T10:01:54.362Z</time></trkpt><trkpt lat="40.5908421" lon="16.0405649"><ele>805.0</ele><time>2026-04-19T10:01:55.362Z</time></trkpt><trkpt lat="40.5906679" lon="16.0405467"><ele>805.0</ele><time>2026-04-19T10:01:56.362Z</time></trkpt><trkpt lat="40.5904806" lon="16.040474"><ele>805.0</ele><time>2026-04-19T10:01:57.361Z</time></trkpt><trkpt lat="40.5902726" lon="16.0403499"><ele>805.0</ele><time>2026-04-19T10:01:58.362Z</time></trkpt><trkpt lat="40.5900561" lon="16.0402128"><ele>807.5</ele><time>2026-04-19T10:01:59.362Z</time></trkpt><trkpt lat="40.5898408" lon="16.0400946"><ele>810.0</ele><time>2026-04-19T10:02:00.362Z</time></trkpt><trkpt lat="40.589635" lon="16.0399932"><ele>814.25</ele><time>2026-04-19T10:02:01.362Z</time></trkpt><trkpt lat="40.5894582" lon="16.0399193"><ele>818.5</ele><time>2026-04-19T10:02:02.361Z</time></trkpt><trkpt lat="40.5893277" lon="16.0398435"><ele>822.75</ele><time>2026-04-19T10:02:03.362Z</time></trkpt><trkpt lat="40.5892215" lon="16.0397856"><ele>827.0</ele><time>2026-04-19T10:02:04.362Z</time></trkpt><trkpt lat="40.5891724" lon="16.039719"><ele>827.0</ele><time>2026-04-19T10:02:05.362Z</time></trkpt><trkpt lat="40.5891693" lon="16.0396034"><ele>827.0</ele><time>2026-04-19T10:02:07.362Z</time></trkpt><trkpt lat="40.5892899" lon="16.0395993"><ele>827.0</ele><time>2026-04-19T10:02:09.362Z</time></trkpt><trkpt lat="40.5893933" lon="16.039661"><ele>827.0</ele><time>2026-04-19T10:02:10.362Z</time></trkpt><trkpt lat="40.5894834" lon="16.0397185"><ele>827.0</ele><time>2026-04-19T10:02:11.362Z</time></trkpt><trkpt lat="40.5895725" lon="16.0396959"><ele>825.4000000000001</ele><time>2026-04-19T10:02:12.362Z</time></trkpt><trkpt lat="40.5896501" lon="16.0396475"><ele>823.8000000000001</ele><time>2026-04-19T10:02:13.362Z</time></trkpt><trkpt lat="40.5897092" lon="16.0395395"><ele>822.2</ele><time>2026-04-19T10:02:14.362Z</time></trkpt><trkpt lat="40.5897242" lon="16.0393847"><ele>820.6</ele><time>2026-04-19T10:02:15.362Z</time></trkpt><trkpt lat="40.5897216" lon="16.0392103"><ele>819.0</ele><time>2026-04-19T10:02:16.362Z</time></trkpt><trkpt lat="40.589728" lon="16.038983"><ele>819.0</ele><time>2026-04-19T10:02:17.362Z</time></trkpt><trkpt lat="40.5897526" lon="16.0387076"><ele>819.0</ele><time>2026-04-19T10:02:18.362Z</time></trkpt><trkpt lat="40.5897707" lon="16.0384296"><ele>819.0</ele><time>2026-04-19T10:02:19.361Z</time></trkpt><trkpt lat="40.5897735" lon="16.0381499"><ele>819.0</ele><time>2026-04-19T10:02:20.361Z</time></trkpt><trkpt lat="40.5897763" lon="16.0378999"><ele>819.0</ele><time>2026-04-19T10:02:21.361Z</time></trkpt><trkpt lat="40.5897963" lon="16.0376557"><ele>819.0</ele><time>2026-04-19T10:02:22.361Z</time></trkpt><trkpt lat="40.5898282" lon="16.0374061"><ele>819.0</ele><time>2026-04-19T10:02:23.361Z</time></trkpt><trkpt lat="40.5898643" lon="16.0371824"><ele>819.0</ele><time>2026-04-19T10:02:24.361Z</time></trkpt><trkpt lat="40.5898823" lon="16.0370171"><ele>819.0</ele><time>2026-04-19T10:02:25.361Z</time></trkpt><trkpt lat="40.5898709" lon="16.0368889"><ele>819.0</ele><time>2026-04-19T10:02:26.361Z</time></trkpt><trkpt lat="40.589837" lon="16.036805"><ele>819.0</ele><time>2026-04-19T10:02:27.361Z</time></trkpt><trkpt lat="40.5897794" lon="16.0367649"><ele>819.0</ele><time>2026-04-19T10:02:28.361Z</time></trkpt><trkpt lat="40.5897216" lon="16.0368108"><ele>819.0</ele><time>2026-04-19T10:02:30.361Z</time></trkpt><trkpt lat="40.5897223" lon="16.0369982"><ele>819.0</ele><time>2026-04-19T10:02:32.361Z</time></trkpt><trkpt lat="40.589724" lon="16.0371232"><ele>819.0</ele><time>2026-04-19T10:02:33.361Z</time></trkpt><trkpt lat="40.5897022" lon="16.037246"><ele>819.0</ele><time>2026-04-19T10:02:34.361Z</time></trkpt><trkpt lat="40.5896441" lon="16.0373933"><ele>819.0</ele><time>2026-04-19T10:02:35.361Z</time></trkpt><trkpt lat="40.5895468" lon="16.0375625"><ele>819.0</ele><time>2026-04-19T10:02:36.361Z</time></trkpt><trkpt lat="40.5894325" lon="16.0377594"><ele>831.3333333333333</ele><time>2026-04-19T10:02:37.361Z</time></trkpt><trkpt lat="40.5893124" lon="16.0379605"><ele>843.6666666666666</ele><time>2026-04-19T10:02:38.361Z</time></trkpt><trkpt lat="40.5891971" lon="16.0381208"><ele>856.0</ele><time>2026-04-19T10:02:39.361Z</time></trkpt><trkpt lat="40.5891128" lon="16.0382459"><ele>853.8</ele><time>2026-04-19T10:02:40.361Z</time></trkpt><trkpt lat="40.589031" lon="16.0383421"><ele>851.5999999999999</ele><time>2026-04-19T10:02:41.361Z</time></trkpt><trkpt lat="40.588954" lon="16.0384177"><ele>849.4</ele><time>2026-04-19T10:02:42.361Z</time></trkpt><trkpt lat="40.5888803" lon="16.0384781"><ele>847.2</ele><time>2026-04-19T10:02:43.361Z</time></trkpt><trkpt lat="40.5888049" lon="16.0385216"><ele>845.0</ele><time>2026-04-19T10:02:44.361Z</time></trkpt><trkpt lat="40.5887251" lon="16.0385294"><ele>848.75</ele><time>2026-04-19T10:02:45.361Z</time></trkpt><trkpt lat="40.5886333" lon="16.0385232"><ele>852.5</ele><time>2026-04-19T10:02:46.361Z</time></trkpt><trkpt lat="40.5885188" lon="16.0385032"><ele>856.25</ele><time>2026-04-19T10:02:47.361Z</time></trkpt><trkpt lat="40.588389" lon="16.0384368"><ele>860.0</ele><time>2026-04-19T10:02:48.361Z</time></trkpt><trkpt lat="40.5882478" lon="16.0383185"><ele>861.3333333333334</ele><time>2026-04-19T10:02:49.361Z</time></trkpt><trkpt lat="40.5881104" lon="16.0381865"><ele>862.6666666666667</ele><time>2026-04-19T10:02:50.361Z</time></trkpt><trkpt lat="40.5879744" lon="16.038085"><ele>864.0</ele><time>2026-04-19T10:02:51.361Z</time></trkpt><trkpt lat="40.5878356" lon="16.0380029"><ele>864.75</ele><time>2026-04-19T10:02:52.361Z</time></trkpt><trkpt lat="40.5876882" lon="16.0379392"><ele>865.5</ele><time>2026-04-19T10:02:53.361Z</time></trkpt><trkpt lat="40.5875559" lon="16.0379017"><ele>866.25</ele><time>2026-04-19T10:02:54.361Z</time></trkpt><trkpt lat="40.5874383" lon="16.037864"><ele>867.0</ele><time>2026-04-19T10:02:55.361Z</time></trkpt><trkpt lat="40.587325" lon="16.0378335"><ele>867.0</ele><time>2026-04-19T10:02:56.361Z</time></trkpt><trkpt lat="40.5872159" lon="16.0378064"><ele>867.0</ele><time>2026-04-19T10:02:57.361Z</time></trkpt><trkpt lat="40.5871282" lon="16.037787"><ele>867.0</ele><time>2026-04-19T10:02:58.361Z</time></trkpt><trkpt lat="40.5870518" lon="16.0377625"><ele>867.0</ele><time>2026-04-19T10:02:59.361Z</time></trkpt><trkpt lat="40.5869714" lon="16.0377376"><ele>867.0</ele><time>2026-04-19T10:03:00.361Z</time></trkpt><trkpt lat="40.586885" lon="16.0377141"><ele>867.0</ele><time>2026-04-19T10:03:01.361Z</time></trkpt><trkpt lat="40.5867958" lon="16.0376935"><ele>868.0</ele><time>2026-04-19T10:03:02.361Z</time></trkpt><trkpt lat="40.5867054" lon="16.0376738"><ele>869.0</ele><time>2026-04-19T10:03:03.361Z</time></trkpt><trkpt lat="40.586604" lon="16.0376503"><ele>870.0</ele><time>2026-04-19T10:03:04.361Z</time></trkpt><trkpt lat="40.586507" lon="16.0376273"><ele>871.0</ele><time>2026-04-19T10:03:05.361Z</time></trkpt><trkpt lat="40.586404" lon="16.0375976"><ele>872.0</ele><time>2026-04-19T10:03:06.361Z</time></trkpt><trkpt lat="40.5862952" lon="16.037555"><ele>872.0000000000001</ele><time>2026-04-19T10:03:07.361Z</time></trkpt><trkpt lat="40.5861988" lon="16.0375105"><ele>872.0</ele><time>2026-04-19T10:03:08.361Z</time></trkpt><trkpt lat="40.5861194" lon="16.0374653"><ele>872.0</ele><time>2026-04-19T10:03:09.361Z</time></trkpt><trkpt lat="40.5860421" lon="16.0374421"><ele>872.0</ele><time>2026-04-19T10:03:10.361Z</time></trkpt><trkpt lat="40.5859603" lon="16.0374168"><ele>872.0000000000001</ele><time>2026-04-19T10:03:11.361Z</time></trkpt><trkpt lat="40.585884" lon="16.0373988"><ele>872.0</ele><time>2026-04-19T10:03:12.361Z</time></trkpt><trkpt lat="40.5858228" lon="16.0373714"><ele>875.8</ele><time>2026-04-19T10:03:13.361Z</time></trkpt><trkpt lat="40.5857131" lon="16.0373034"><ele>879.6</ele><time>2026-04-19T10:03:15.361Z</time></trkpt><trkpt lat="40.5856411" lon="16.037229"><ele>883.3999999999999</ele><time>2026-04-19T10:03:16.361Z</time></trkpt><trkpt lat="40.5855484" lon="16.0371682"><ele>887.1999999999999</ele><time>2026-04-19T10:03:17.361Z</time></trkpt><trkpt lat="40.5854511" lon="16.0371283"><ele>891.0</ele><time>2026-04-19T10:03:18.361Z</time></trkpt><trkpt lat="40.5853468" lon="16.0371284"><ele>889.5999999999999</ele><time>2026-04-19T10:03:19.361Z</time></trkpt><trkpt lat="40.5852338" lon="16.03716"><ele>888.1999999999999</ele><time>2026-04-19T10:03:20.361Z</time></trkpt><trkpt lat="40.5851237" lon="16.0371932"><ele>886.8000000000001</ele><time>2026-04-19T10:03:21.361Z</time></trkpt><trkpt lat="40.5850157" lon="16.0372188"><ele>885.4000000000001</ele><time>2026-04-19T10:03:22.361Z</time></trkpt><trkpt lat="40.5849073" lon="16.0372372"><ele>884.0</ele><time>2026-04-19T10:03:23.361Z</time></trkpt><trkpt lat="40.5848103" lon="16.0372495"><ele>884.0000000000001</ele><time>2026-04-19T10:03:24.361Z</time></trkpt><trkpt lat="40.5847287" lon="16.0372536"><ele>884.0</ele><time>2026-04-19T10:03:25.361Z</time></trkpt><trkpt lat="40.584646" lon="16.0372641"><ele>884.0</ele><time>2026-04-19T10:03:26.361Z</time></trkpt><trkpt lat="40.5845702" lon="16.0372992"><ele>884.0</ele><time>2026-04-19T10:03:27.361Z</time></trkpt><trkpt lat="40.5845056" lon="16.0373419"><ele>884.0000000000001</ele><time>2026-04-19T10:03:28.361Z</time></trkpt><trkpt lat="40.5844522" lon="16.0373885"><ele>884.0</ele><time>2026-04-19T10:03:29.361Z</time></trkpt><trkpt lat="40.5843388" lon="16.0373782"><ele>881.1666666666667</ele><time>2026-04-19T10:03:31.361Z</time></trkpt><trkpt lat="40.5842744" lon="16.0373539"><ele>878.3333333333334</ele><time>2026-04-19T10:03:32.361Z</time></trkpt><trkpt lat="40.5842115" lon="16.037305"><ele>875.5</ele><time>2026-04-19T10:03:33.361Z</time></trkpt><trkpt lat="40.5841453" lon="16.0372533"><ele>872.6666666666667</ele><time>2026-04-19T10:03:34.361Z</time></trkpt><trkpt lat="40.5840881" lon="16.0371833"><ele>869.8333333333334</ele><time>2026-04-19T10:03:35.361Z</time></trkpt><trkpt lat="40.5840334" lon="16.0371296"><ele>867.0</ele><time>2026-04-19T10:03:36.361Z</time></trkpt><trkpt lat="40.5839233" lon="16.0370657"><ele>867.0</ele><time>2026-04-19T10:03:38.361Z</time></trkpt><trkpt lat="40.58386" lon="16.0370509"><ele>867.0</ele><time>2026-04-19T10:03:39.361Z</time></trkpt><trkpt lat="40.5837943" lon="16.0370357"><ele>867.0</ele><time>2026-04-19T10:03:40.361Z</time></trkpt><trkpt lat="40.5836706" lon="16.0370298"><ele>867.0</ele><time>2026-04-19T10:03:42.361Z</time></trkpt><trkpt lat="40.5836045" lon="16.0370278"><ele>867.0</ele><time>2026-04-19T10:03:43.361Z</time></trkpt><trkpt lat="40.5835387" lon="16.0370287"><ele>867.0</ele><time>2026-04-19T10:03:44.361Z</time></trkpt><trkpt lat="40.5834698" lon="16.0370289"><ele>864.0</ele><time>2026-04-19T10:03:45.361Z</time></trkpt><trkpt lat="40.5833974" lon="16.0370373"><ele>861.0</ele><time>2026-04-19T10:03:46.361Z</time></trkpt><trkpt lat="40.5833315" lon="16.037039"><ele>858.0</ele><time>2026-04-19T10:03:47.361Z</time></trkpt><trkpt lat="40.5832677" lon="16.0370377"><ele>855.0</ele><time>2026-04-19T10:03:48.36Z</time></trkpt><trkpt lat="40.5831485" lon="16.0370391"><ele>852.0</ele><time>2026-04-19T10:03:50.361Z</time></trkpt><trkpt lat="40.5830373" lon="16.0370522"><ele>849.0</ele><time>2026-04-19T10:03:52.361Z</time></trkpt><trkpt lat="40.5829376" lon="16.0370284"><ele>849.0</ele><time>2026-04-19T10:03:54.361Z</time></trkpt><trkpt lat="40.5829105" lon="16.0369436"><ele>849.0</ele><time>2026-04-19T10:03:56.361Z</time></trkpt><trkpt lat="40.5828445" lon="16.0368974"><ele>849.0</ele><time>2026-04-19T10:03:59.361Z</time></trkpt><trkpt lat="40.5828733" lon="16.0367928"><ele>849.0</ele><time>2026-04-19T10:06:37.36Z</time></trkpt><trkpt lat="40.5829676" lon="16.0366363"><ele>849.0</ele><time>2026-04-19T10:06:39.36Z</time></trkpt><trkpt lat="40.5830181" lon="16.036526"><ele>848.6666666666666</ele><time>2026-04-19T10:06:40.36Z</time></trkpt><trkpt lat="40.5830599" lon="16.0364232"><ele>848.3333333333333</ele><time>2026-04-19T10:06:41.36Z</time></trkpt><trkpt lat="40.5830997" lon="16.036326"><ele>848.0</ele><time>2026-04-19T10:06:42.36Z</time></trkpt><trkpt lat="40.5831413" lon="16.0362339"><ele>847.6666666666666</ele><time>2026-04-19T10:06:43.36Z</time></trkpt><trkpt lat="40.5831858" lon="16.0361338"><ele>847.3333333333333</ele><time>2026-04-19T10:06:44.36Z</time></trkpt><trkpt lat="40.5832238" lon="16.0360359"><ele>847.0</ele><time>2026-04-19T10:06:45.36Z</time></trkpt><trkpt lat="40.5832647" lon="16.0359462"><ele>846.9999999999999</ele><time>2026-04-19T10:06:46.36Z</time></trkpt><trkpt lat="40.5833013" lon="16.0358581"><ele>847.0</ele><time>2026-04-19T10:06:47.36Z</time></trkpt><trkpt lat="40.5833179" lon="16.0357547"><ele>847.0</ele><time>2026-04-19T10:06:48.36Z</time></trkpt><trkpt lat="40.5833024" lon="16.0356415"><ele>847.0</ele><time>2026-04-19T10:06:49.36Z</time></trkpt><trkpt lat="40.5832646" lon="16.0355312"><ele>846.9999999999999</ele><time>2026-04-19T10:06:50.36Z</time></trkpt><trkpt lat="40.5832039" lon="16.0354523"><ele>847.0</ele><time>2026-04-19T10:06:51.36Z</time></trkpt><trkpt lat="40.5831243" lon="16.0354288"><ele>844.8333333333333</ele><time>2026-04-19T10:06:52.36Z</time></trkpt><trkpt lat="40.5830535" lon="16.0354301"><ele>842.6666666666666</ele><time>2026-04-19T10:06:53.36Z</time></trkpt><trkpt lat="40.5829859" lon="16.0354619"><ele>840.5</ele><time>2026-04-19T10:06:54.36Z</time></trkpt><trkpt lat="40.5829331" lon="16.03552"><ele>838.3333333333333</ele><time>2026-04-19T10:06:55.36Z</time></trkpt><trkpt lat="40.5828659" lon="16.0355713"><ele>836.1666666666666</ele><time>2026-04-19T10:06:56.36Z</time></trkpt><trkpt lat="40.5827948" lon="16.0356382"><ele>834.0</ele><time>2026-04-19T10:06:57.36Z</time></trkpt><trkpt lat="40.5827191" lon="16.0357"><ele>833.1666666666666</ele><time>2026-04-19T10:06:58.36Z</time></trkpt><trkpt lat="40.5826445" lon="16.0357716"><ele>832.3333333333333</ele><time>2026-04-19T10:06:59.36Z</time></trkpt><trkpt lat="40.5825871" lon="16.0358194"><ele>831.5</ele><time>2026-04-19T10:07:00.36Z</time></trkpt><trkpt lat="40.5825238" lon="16.0358726"><ele>830.6666666666666</ele><time>2026-04-19T10:07:01.36Z</time></trkpt><trkpt lat="40.582456" lon="16.0359225"><ele>829.8333333333333</ele><time>2026-04-19T10:07:02.36Z</time></trkpt><trkpt lat="40.5823842" lon="16.0359483"><ele>829.0</ele><time>2026-04-19T10:07:03.36Z</time></trkpt><trkpt lat="40.5823079" lon="16.0359441"><ele>828.9999999999999</ele><time>2026-04-19T10:07:04.36Z</time></trkpt><trkpt lat="40.5822466" lon="16.0358929"><ele>829.0</ele><time>2026-04-19T10:07:05.36Z</time></trkpt><trkpt lat="40.582215" lon="16.0358201"><ele>829.0</ele><time>2026-04-19T10:07:06.36Z</time></trkpt><trkpt lat="40.5822308" lon="16.0357174"><ele>829.0</ele><time>2026-04-19T10:07:07.36Z</time></trkpt><trkpt lat="40.5823183" lon="16.0355987"><ele>828.9999999999999</ele><time>2026-04-19T10:07:09.36Z</time></trkpt><trkpt lat="40.5824022" lon="16.0355612"><ele>829.0</ele><time>2026-04-19T10:07:10.36Z</time></trkpt><trkpt lat="40.5825113" lon="16.035496"><ele>830.6666666666666</ele><time>2026-04-19T10:07:11.36Z</time></trkpt><trkpt lat="40.5826307" lon="16.035404"><ele>832.3333333333333</ele><time>2026-04-19T10:07:12.36Z</time></trkpt><trkpt lat="40.5827657" lon="16.0352632"><ele>834.0</ele><time>2026-04-19T10:07:13.36Z</time></trkpt><trkpt lat="40.5829039" lon="16.0351304"><ele>834.0</ele><time>2026-04-19T10:07:14.36Z</time></trkpt><trkpt lat="40.5830129" lon="16.03499"><ele>834.0</ele><time>2026-04-19T10:07:15.36Z</time></trkpt><trkpt lat="40.58311" lon="16.0348228"><ele>834.0</ele><time>2026-04-19T10:07:16.36Z</time></trkpt><trkpt lat="40.5831959" lon="16.0346438"><ele>828.2</ele><time>2026-04-19T10:07:17.36Z</time></trkpt><trkpt lat="40.5832504" lon="16.0345206"><ele>822.4000000000001</ele><time>2026-04-19T10:07:18.36Z</time></trkpt><trkpt lat="40.583328" lon="16.0344343"><ele>816.6</ele><time>2026-04-19T10:07:19.36Z</time></trkpt><trkpt lat="40.5834179" lon="16.0343761"><ele>810.8</ele><time>2026-04-19T10:07:20.36Z</time></trkpt><trkpt lat="40.583519" lon="16.0343602"><ele>805.0</ele><time>2026-04-19T10:07:21.36Z</time></trkpt><trkpt lat="40.5836129" lon="16.0343497"><ele>804.9999999999999</ele><time>2026-04-19T10:07:22.36Z</time></trkpt><trkpt lat="40.5836915" lon="16.034316"><ele>805.0</ele><time>2026-04-19T10:07:23.36Z</time></trkpt><trkpt lat="40.5837354" lon="16.0342416"><ele>805.0</ele><time>2026-04-19T10:07:24.36Z</time></trkpt><trkpt lat="40.5837279" lon="16.0341447"><ele>805.0</ele><time>2026-04-19T10:07:25.36Z</time></trkpt><trkpt lat="40.583685" lon="16.0340776"><ele>804.9999999999999</ele><time>2026-04-19T10:07:26.36Z</time></trkpt><trkpt lat="40.5836225" lon="16.03406"><ele>805.0</ele><time>2026-04-19T10:07:27.36Z</time></trkpt><trkpt lat="40.5835287" lon="16.0340872"><ele>805.0</ele><time>2026-04-19T10:07:29.36Z</time></trkpt><trkpt lat="40.5834255" lon="16.0341571"><ele>805.0</ele><time>2026-04-19T10:09:14.359Z</time></trkpt><trkpt lat="40.5833439" lon="16.0342277"><ele>805.0</ele><time>2026-04-19T10:09:15.359Z</time></trkpt><trkpt lat="40.5832277" lon="16.0343221"><ele>805.0</ele><time>2026-04-19T10:09:16.359Z</time></trkpt><trkpt lat="40.5831174" lon="16.0344341"><ele>805.0</ele><time>2026-04-19T10:09:17.359Z</time></trkpt><trkpt lat="40.583" lon="16.034565"><ele>805.0</ele><time>2026-04-19T10:09:18.358Z</time></trkpt><trkpt lat="40.5828863" lon="16.0347023"><ele>805.0</ele><time>2026-04-19T10:09:19.359Z</time></trkpt><trkpt lat="40.5827867" lon="16.0348196"><ele>805.0</ele><time>2026-04-19T10:09:20.359Z</time></trkpt><trkpt lat="40.5826738" lon="16.0349264"><ele>806.5</ele><time>2026-04-19T10:09:21.359Z</time></trkpt><trkpt lat="40.5825549" lon="16.0350029"><ele>808.0</ele><time>2026-04-19T10:09:22.359Z</time></trkpt><trkpt lat="40.5824321" lon="16.0350455"><ele>809.5</ele><time>2026-04-19T10:09:23.36Z</time></trkpt><trkpt lat="40.5823059" lon="16.035054"><ele>811.0</ele><time>2026-04-19T10:09:24.36Z</time></trkpt><trkpt lat="40.5821654" lon="16.0350325"><ele>796.3333333333333</ele><time>2026-04-19T10:09:25.36Z</time></trkpt><trkpt lat="40.5820124" lon="16.0349678"><ele>781.6666666666666</ele><time>2026-04-19T10:09:26.36Z</time></trkpt><trkpt lat="40.5818519" lon="16.034878"><ele>767.0</ele><time>2026-04-19T10:09:27.36Z</time></trkpt><trkpt lat="40.581693" lon="16.0347935"><ele>767.0</ele><time>2026-04-19T10:09:28.36Z</time></trkpt><trkpt lat="40.5815409" lon="16.0347163"><ele>767.0</ele><time>2026-04-19T10:09:29.36Z</time></trkpt><trkpt lat="40.5814076" lon="16.034672"><ele>767.0</ele><time>2026-04-19T10:09:30.359Z</time></trkpt><trkpt lat="40.5812885" lon="16.0346622"><ele>767.0</ele><time>2026-04-19T10:09:31.359Z</time></trkpt><trkpt lat="40.5811777" lon="16.0346835"><ele>766.0</ele><time>2026-04-19T10:09:32.359Z</time></trkpt><trkpt lat="40.5810912" lon="16.0347319"><ele>765.0</ele><time>2026-04-19T10:09:33.359Z</time></trkpt><trkpt lat="40.5810178" lon="16.0348036"><ele>764.0</ele><time>2026-04-19T10:09:34.359Z</time></trkpt><trkpt lat="40.5809847" lon="16.0349321"><ele>763.0</ele><time>2026-04-19T10:09:35.359Z</time></trkpt><trkpt lat="40.5809791" lon="16.0350914"><ele>762.0</ele><time>2026-04-19T10:09:36.359Z</time></trkpt><trkpt lat="40.5810394" lon="16.0352774"><ele>765.75</ele><time>2026-04-19T10:09:37.359Z</time></trkpt><trkpt lat="40.5811096" lon="16.0354496"><ele>769.5</ele><time>2026-04-19T10:09:38.359Z</time></trkpt><trkpt lat="40.5811933" lon="16.0355924"><ele>773.25</ele><time>2026-04-19T10:09:39.359Z</time></trkpt><trkpt lat="40.5813121" lon="16.0356981"><ele>777.0</ele><time>2026-04-19T10:09:40.359Z</time></trkpt><trkpt lat="40.5814214" lon="16.0357925"><ele>783.75</ele><time>2026-04-19T10:09:41.359Z</time></trkpt><trkpt lat="40.5815028" lon="16.0358846"><ele>790.5</ele><time>2026-04-19T10:09:42.359Z</time></trkpt><trkpt lat="40.5815455" lon="16.0360128"><ele>797.25</ele><time>2026-04-19T10:09:43.359Z</time></trkpt><trkpt lat="40.5815544" lon="16.0361619"><ele>804.0</ele><time>2026-04-19T10:09:44.359Z</time></trkpt><trkpt lat="40.5815092" lon="16.0363446"><ele>804.0</ele><time>2026-04-19T10:09:45.359Z</time></trkpt><trkpt lat="40.5814328" lon="16.0365391"><ele>804.0</ele><time>2026-04-19T10:09:46.359Z</time></trkpt><trkpt lat="40.5813217" lon="16.0367355"><ele>804.0</ele><time>2026-04-19T10:09:47.359Z</time></trkpt><trkpt lat="40.5811931" lon="16.0369228"><ele>788.6666666666666</ele><time>2026-04-19T10:09:48.359Z</time></trkpt><trkpt lat="40.5810592" lon="16.0370931"><ele>773.3333333333333</ele><time>2026-04-19T10:09:49.359Z</time></trkpt><trkpt lat="40.580927" lon="16.0372337"><ele>758.0</ele><time>2026-04-19T10:09:50.359Z</time></trkpt><trkpt lat="40.5807761" lon="16.0373506"><ele>758.0</ele><time>2026-04-19T10:09:51.359Z</time></trkpt><trkpt lat="40.5805939" lon="16.0374533"><ele>758.0</ele><time>2026-04-19T10:09:52.359Z</time></trkpt><trkpt lat="40.5804204" lon="16.0375207"><ele>758.0</ele><time>2026-04-19T10:09:53.359Z</time></trkpt><trkpt lat="40.5802441" lon="16.0375709"><ele>758.0</ele><time>2026-04-19T10:09:54.358Z</time></trkpt><trkpt lat="40.5800593" lon="16.0376152"><ele>758.0</ele><time>2026-04-19T10:09:55.359Z</time></trkpt><trkpt lat="40.5798788" lon="16.0376691"><ele>758.0</ele><time>2026-04-19T10:09:56.359Z</time></trkpt><trkpt lat="40.5797131" lon="16.0377153"><ele>758.0</ele><time>2026-04-19T10:09:57.359Z</time></trkpt><trkpt lat="40.5795548" lon="16.0378025"><ele>758.0</ele><time>2026-04-19T10:09:58.359Z</time></trkpt><trkpt lat="40.5793888" lon="16.037925"><ele>758.0</ele><time>2026-04-19T10:09:59.359Z</time></trkpt><trkpt lat="40.5792365" lon="16.0380446"><ele>758.2</ele><time>2026-04-19T10:10:00.359Z</time></trkpt><trkpt lat="40.5791225" lon="16.0381422"><ele>758.4</ele><time>2026-04-19T10:10:01.359Z</time></trkpt><trkpt lat="40.5790208" lon="16.0382411"><ele>758.6</ele><time>2026-04-19T10:10:02.359Z</time></trkpt><trkpt lat="40.5789444" lon="16.0383392"><ele>758.8000000000001</ele><time>2026-04-19T10:10:03.359Z</time></trkpt><trkpt lat="40.5788992" lon="16.0384166"><ele>759.0</ele><time>2026-04-19T10:10:04.359Z</time></trkpt><trkpt lat="40.5788139" lon="16.0383942"><ele>752.4000000000001</ele><time>2026-04-19T10:10:06.359Z</time></trkpt><trkpt lat="40.5788065" lon="16.0382766"><ele>745.8</ele><time>2026-04-19T10:10:08.359Z</time></trkpt><trkpt lat="40.5788554" lon="16.0382197"><ele>739.2</ele><time>2026-04-19T10:10:09.359Z</time></trkpt><trkpt lat="40.5789388" lon="16.0381758"><ele>732.5999999999999</ele><time>2026-04-19T10:10:10.359Z</time></trkpt><trkpt lat="40.5790754" lon="16.0380892"><ele>726.0</ele><time>2026-04-19T10:10:11.359Z</time></trkpt><trkpt lat="40.5792142" lon="16.0379795"><ele>726.0</ele><time>2026-04-19T10:10:12.359Z</time></trkpt><trkpt lat="40.5793422" lon="16.0378653"><ele>726.0</ele><time>2026-04-19T10:10:13.359Z</time></trkpt><trkpt lat="40.5794538" lon="16.0377573"><ele>726.0</ele><time>2026-04-19T10:10:14.359Z</time></trkpt><trkpt lat="40.5795568" lon="16.0376559"><ele>726.0</ele><time>2026-04-19T10:10:15.359Z</time></trkpt><trkpt lat="40.5796558" lon="16.0375775"><ele>725.8333333333334</ele><time>2026-04-19T10:10:16.359Z</time></trkpt><trkpt lat="40.5797502" lon="16.0375296"><ele>725.6666666666666</ele><time>2026-04-19T10:10:17.359Z</time></trkpt><trkpt lat="40.5798358" lon="16.0374877"><ele>725.5</ele><time>2026-04-19T10:10:18.359Z</time></trkpt><trkpt lat="40.5799158" lon="16.0374362"><ele>725.3333333333333</ele><time>2026-04-19T10:10:20.359Z</time></trkpt><trkpt lat="40.5798374" lon="16.0374345"><ele>725.1666666666666</ele><time>2026-04-19T10:10:31.359Z</time></trkpt><trkpt lat="40.5797602" lon="16.0374839"><ele>725.0</ele><time>2026-04-19T10:10:32.359Z</time></trkpt><trkpt lat="40.5796602" lon="16.0375329"><ele>725.1666666666666</ele><time>2026-04-19T10:10:33.359Z</time></trkpt><trkpt lat="40.5795647" lon="16.0375988"><ele>725.3333333333333</ele><time>2026-04-19T10:10:34.359Z</time></trkpt><trkpt lat="40.5794793" lon="16.0376674"><ele>725.5</ele><time>2026-04-19T10:10:35.359Z</time></trkpt><trkpt lat="40.5794089" lon="16.0377329"><ele>725.6666666666666</ele><time>2026-04-19T10:10:36.359Z</time></trkpt><trkpt lat="40.5793496" lon="16.0377985"><ele>725.8333333333334</ele><time>2026-04-19T10:10:37.359Z</time></trkpt><trkpt lat="40.5792913" lon="16.0378524"><ele>726.0</ele><time>2026-04-19T10:10:38.359Z</time></trkpt><trkpt lat="40.5791944" lon="16.0379398"><ele>726.0</ele><time>2026-04-19T10:10:40.359Z</time></trkpt><trkpt lat="40.5791136" lon="16.0380059"><ele>726.0</ele><time>2026-04-19T10:10:42.359Z</time></trkpt><trkpt lat="40.5790516" lon="16.0380545"><ele>726.0</ele><time>2026-04-19T10:10:44.359Z</time></trkpt><trkpt lat="40.5791227" lon="16.0380109"><ele>726.0</ele><time>2026-04-19T10:10:57.359Z</time></trkpt><trkpt lat="40.5791817" lon="16.0379686"><ele>726.0</ele><time>2026-04-19T10:10:59.359Z</time></trkpt><trkpt lat="40.5792736" lon="16.0378915"><ele>726.0</ele><time>2026-04-19T10:11:01.359Z</time></trkpt><trkpt lat="40.57936" lon="16.0378146"><ele>726.0</ele><time>2026-04-19T10:11:02.359Z</time></trkpt><trkpt lat="40.5794659" lon="16.0377222"><ele>726.0</ele><time>2026-04-19T10:11:03.359Z</time></trkpt><trkpt lat="40.5795734" lon="16.0376327"><ele>726.0</ele><time>2026-04-19T10:11:04.359Z</time></trkpt><trkpt lat="40.5796721" lon="16.0375656"><ele>726.0</ele><time>2026-04-19T10:11:05.359Z</time></trkpt><trkpt lat="40.5797669" lon="16.0375078"><ele>725.75</ele><time>2026-04-19T10:11:06.359Z</time></trkpt><trkpt lat="40.5798838" lon="16.0374416"><ele>725.5</ele><time>2026-04-19T10:11:07.359Z</time></trkpt><trkpt lat="40.5800299" lon="16.0373512"><ele>725.25</ele><time>2026-04-19T10:11:08.359Z</time></trkpt><trkpt lat="40.5801638" lon="16.0372678"><ele>725.0</ele><time>2026-04-19T10:11:09.359Z</time></trkpt><trkpt lat="40.5802683" lon="16.0371876"><ele>733.25</ele><time>2026-04-19T10:11:10.359Z</time></trkpt><trkpt lat="40.580382" lon="16.0371015"><ele>741.5</ele><time>2026-04-19T10:11:11.359Z</time></trkpt><trkpt lat="40.5805051" lon="16.0369699"><ele>749.75</ele><time>2026-04-19T10:11:12.359Z</time></trkpt><trkpt lat="40.58062" lon="16.036826"><ele>758.0</ele><time>2026-04-19T10:11:13.359Z</time></trkpt><trkpt lat="40.5807131" lon="16.0366936"><ele>759.2</ele><time>2026-04-19T10:11:14.359Z</time></trkpt><trkpt lat="40.5807832" lon="16.036596"><ele>760.4</ele><time>2026-04-19T10:11:15.359Z</time></trkpt><trkpt lat="40.5808286" lon="16.0364953"><ele>761.6</ele><time>2026-04-19T10:11:16.359Z</time></trkpt><trkpt lat="40.5808309" lon="16.0363779"><ele>762.8000000000001</ele><time>2026-04-19T10:11:17.359Z</time></trkpt><trkpt lat="40.5808037" lon="16.036273"><ele>764.0</ele><time>2026-04-19T10:11:18.359Z</time></trkpt><trkpt lat="40.5807301" lon="16.0361641"><ele>764.0</ele><time>2026-04-19T10:11:19.359Z</time></trkpt><trkpt lat="40.5806409" lon="16.0360372"><ele>764.0</ele><time>2026-04-19T10:11:20.359Z</time></trkpt><trkpt lat="40.5805624" lon="16.0359198"><ele>764.0</ele><time>2026-04-19T10:11:21.359Z</time></trkpt><trkpt lat="40.5804946" lon="16.0357641"><ele>764.0</ele><time>2026-04-19T10:11:22.359Z</time></trkpt><trkpt lat="40.5804199" lon="16.0356357"><ele>766.6</ele><time>2026-04-19T10:11:23.359Z</time></trkpt><trkpt lat="40.5803611" lon="16.0355187"><ele>769.2</ele><time>2026-04-19T10:11:24.359Z</time></trkpt><trkpt lat="40.5803375" lon="16.0353869"><ele>771.8000000000001</ele><time>2026-04-19T10:11:25.359Z</time></trkpt><trkpt lat="40.5803354" lon="16.0352422"><ele>774.4000000000001</ele><time>2026-04-19T10:11:26.359Z</time></trkpt><trkpt lat="40.5803336" lon="16.0350869"><ele>777.0</ele><time>2026-04-19T10:11:27.359Z</time></trkpt><trkpt lat="40.580273" lon="16.0349699"><ele>767.0</ele><time>2026-04-19T10:11:28.359Z</time></trkpt><trkpt lat="40.5801605" lon="16.0348522"><ele>757.0</ele><time>2026-04-19T10:11:29.359Z</time></trkpt><trkpt lat="40.580008" lon="16.0346925"><ele>747.0</ele><time>2026-04-19T10:11:30.359Z</time></trkpt><trkpt lat="40.5798741" lon="16.0345497"><ele>747.0</ele><time>2026-04-19T10:11:31.359Z</time></trkpt><trkpt lat="40.5797316" lon="16.0344338"><ele>747.0</ele><time>2026-04-19T10:11:32.359Z</time></trkpt><trkpt lat="40.5795835" lon="16.0343136"><ele>747.0</ele><time>2026-04-19T10:11:33.359Z</time></trkpt><trkpt lat="40.5794083" lon="16.0341948"><ele>743.0</ele><time>2026-04-19T10:11:34.359Z</time></trkpt><trkpt lat="40.5792559" lon="16.0340484"><ele>739.0</ele><time>2026-04-19T10:11:35.359Z</time></trkpt><trkpt lat="40.5791211" lon="16.0338953"><ele>735.0</ele><time>2026-04-19T10:11:36.359Z</time></trkpt><trkpt lat="40.5790088" lon="16.0337464"><ele>735.0</ele><time>2026-04-19T10:11:37.359Z</time></trkpt><trkpt lat="40.5789101" lon="16.0336436"><ele>735.0</ele><time>2026-04-19T10:11:38.359Z</time></trkpt><trkpt lat="40.5787686" lon="16.0335913"><ele>735.0</ele><time>2026-04-19T10:11:39.359Z</time></trkpt><trkpt lat="40.5785991" lon="16.0335801"><ele>735.0</ele><time>2026-04-19T10:11:40.359Z</time></trkpt><trkpt lat="40.5783912" lon="16.0335197"><ele>735.6666666666666</ele><time>2026-04-19T10:11:41.359Z</time></trkpt><trkpt lat="40.5781778" lon="16.0334467"><ele>736.3333333333333</ele><time>2026-04-19T10:11:42.359Z</time></trkpt><trkpt lat="40.5779702" lon="16.0333781"><ele>737.0</ele><time>2026-04-19T10:11:43.359Z</time></trkpt><trkpt lat="40.5777632" lon="16.0333082"><ele>736.0</ele><time>2026-04-19T10:11:44.359Z</time></trkpt><trkpt lat="40.5775285" lon="16.0332544"><ele>735.0</ele><time>2026-04-19T10:11:45.359Z</time></trkpt><trkpt lat="40.5772713" lon="16.0332148"><ele>735.0</ele><time>2026-04-19T10:11:46.359Z</time></trkpt><trkpt lat="40.5770276" lon="16.0331957"><ele>735.0</ele><time>2026-04-19T10:11:47.359Z</time></trkpt><trkpt lat="40.5768135" lon="16.0331799"><ele>729.3333333333334</ele><time>2026-04-19T10:11:48.359Z</time></trkpt><trkpt lat="40.5766319" lon="16.0331474"><ele>723.6666666666667</ele><time>2026-04-19T10:11:49.359Z</time></trkpt><trkpt lat="40.5764635" lon="16.0331439"><ele>718.0</ele><time>2026-04-19T10:11:50.359Z</time></trkpt><trkpt lat="40.5763282" lon="16.0331574"><ele>718.0</ele><time>2026-04-19T10:11:51.359Z</time></trkpt><trkpt lat="40.5762065" lon="16.0331694"><ele>718.0</ele><time>2026-04-19T10:11:52.359Z</time></trkpt><trkpt lat="40.5761043" lon="16.0331724"><ele>718.0</ele><time>2026-04-19T10:11:53.359Z</time></trkpt><trkpt lat="40.5760268" lon="16.033142"><ele>718.0</ele><time>2026-04-19T10:11:54.359Z</time></trkpt><trkpt lat="40.5759775" lon="16.0330557"><ele>718.0</ele><time>2026-04-19T10:11:55.359Z</time></trkpt><trkpt lat="40.5759532" lon="16.032937"><ele>711.5</ele><time>2026-04-19T10:11:56.359Z</time></trkpt><trkpt lat="40.575964" lon="16.0327992"><ele>705.0</ele><time>2026-04-19T10:11:57.359Z</time></trkpt><trkpt lat="40.5759954" lon="16.0326578"><ele>698.5</ele><time>2026-04-19T10:11:58.359Z</time></trkpt><trkpt lat="40.5761006" lon="16.0325339"><ele>692.0</ele><time>2026-04-19T10:11:59.359Z</time></trkpt><trkpt lat="40.5762559" lon="16.0324139"><ele>687.0</ele><time>2026-04-19T10:12:00.359Z</time></trkpt><trkpt lat="40.576434" lon="16.0323157"><ele>682.0</ele><time>2026-04-19T10:12:01.359Z</time></trkpt><trkpt lat="40.576628" lon="16.0322161"><ele>677.0</ele><time>2026-04-19T10:12:02.359Z</time></trkpt><trkpt lat="40.5768321" lon="16.0320894"><ele>689.0</ele><time>2026-04-19T10:12:03.359Z</time></trkpt><trkpt lat="40.577045" lon="16.0319557"><ele>701.0</ele><time>2026-04-19T10:12:04.359Z</time></trkpt><trkpt lat="40.5772433" lon="16.0318282"><ele>701.0</ele><time>2026-04-19T10:12:05.359Z</time></trkpt><trkpt lat="40.5774223" lon="16.031722"><ele>701.0</ele><time>2026-04-19T10:12:06.359Z</time></trkpt><trkpt lat="40.5775912" lon="16.0316198"><ele>701.0</ele><time>2026-04-19T10:12:07.359Z</time></trkpt><trkpt lat="40.5777287" lon="16.031531"><ele>690.0</ele><time>2026-04-19T10:12:08.359Z</time></trkpt><trkpt lat="40.5778425" lon="16.0314707"><ele>679.0</ele><time>2026-04-19T10:12:09.359Z</time></trkpt><trkpt lat="40.5779758" lon="16.0314254"><ele>668.0</ele><time>2026-04-19T10:12:10.358Z</time></trkpt><trkpt lat="40.5781291" lon="16.0314195"><ele>657.0</ele><time>2026-04-19T10:12:11.359Z</time></trkpt><trkpt lat="40.5782651" lon="16.0314302"><ele>657.0</ele><time>2026-04-19T10:12:12.359Z</time></trkpt><trkpt lat="40.5783548" lon="16.0314619"><ele>657.0</ele><time>2026-04-19T10:12:13.359Z</time></trkpt><trkpt lat="40.5784773" lon="16.0315588"><ele>657.0</ele><time>2026-04-19T10:12:14.359Z</time></trkpt><trkpt lat="40.5786377" lon="16.0316914"><ele>657.0</ele><time>2026-04-19T10:12:15.359Z</time></trkpt><trkpt lat="40.5787879" lon="16.0318276"><ele>663.25</ele><time>2026-04-19T10:12:16.359Z</time></trkpt><trkpt lat="40.5789044" lon="16.0319597"><ele>669.5</ele><time>2026-04-19T10:12:17.359Z</time></trkpt><trkpt lat="40.5790044" lon="16.0320618"><ele>675.75</ele><time>2026-04-19T10:12:18.359Z</time></trkpt><trkpt lat="40.5791132" lon="16.0321443"><ele>682.0</ele><time>2026-04-19T10:12:19.359Z</time></trkpt><trkpt lat="40.5792472" lon="16.0321897"><ele>682.0</ele><time>2026-04-19T10:12:20.359Z</time></trkpt><trkpt lat="40.5794166" lon="16.0322057"><ele>682.0</ele><time>2026-04-19T10:12:21.359Z</time></trkpt><trkpt lat="40.5796076" lon="16.0321809"><ele>682.0</ele><time>2026-04-19T10:12:22.359Z</time></trkpt><trkpt lat="40.5797786" lon="16.0321581"><ele>678.25</ele><time>2026-04-19T10:12:23.359Z</time></trkpt><trkpt lat="40.5799182" lon="16.0321358"><ele>674.5</ele><time>2026-04-19T10:12:24.359Z</time></trkpt><trkpt lat="40.5800481" lon="16.032154"><ele>670.75</ele><time>2026-04-19T10:12:25.359Z</time></trkpt><trkpt lat="40.5801775" lon="16.0322293"><ele>667.0</ele><time>2026-04-19T10:12:26.359Z</time></trkpt><trkpt lat="40.5803199" lon="16.0323021"><ele>667.25</ele><time>2026-04-19T10:12:27.359Z</time></trkpt><trkpt lat="40.5804417" lon="16.0323332"><ele>667.5</ele><time>2026-04-19T10:12:28.359Z</time></trkpt><trkpt lat="40.5805698" lon="16.0323033"><ele>667.75</ele><time>2026-04-19T10:12:29.359Z</time></trkpt><trkpt lat="40.5807135" lon="16.032246"><ele>668.0</ele><time>2026-04-19T10:12:30.359Z</time></trkpt><trkpt lat="40.5808882" lon="16.0321362"><ele>668.0</ele><time>2026-04-19T10:12:31.359Z</time></trkpt><trkpt lat="40.5810717" lon="16.0320196"><ele>668.0</ele><time>2026-04-19T10:12:32.359Z</time></trkpt><trkpt lat="40.581239" lon="16.0319197"><ele>668.0</ele><time>2026-04-19T10:12:33.359Z</time></trkpt><trkpt lat="40.5813662" lon="16.0318249"><ele>667.6666666666666</ele><time>2026-04-19T10:12:34.359Z</time></trkpt><trkpt lat="40.5814822" lon="16.0317161"><ele>667.3333333333334</ele><time>2026-04-19T10:12:35.359Z</time></trkpt><trkpt lat="40.5815898" lon="16.0315357"><ele>667.0</ele><time>2026-04-19T10:12:36.359Z</time></trkpt><trkpt lat="40.581697" lon="16.031317"><ele>667.0</ele><time>2026-04-19T10:12:37.359Z</time></trkpt><trkpt lat="40.5818059" lon="16.0311116"><ele>667.0</ele><time>2026-04-19T10:12:38.359Z</time></trkpt><trkpt lat="40.5818965" lon="16.0309398"><ele>667.0</ele><time>2026-04-19T10:12:39.359Z</time></trkpt><trkpt lat="40.5819764" lon="16.0307771"><ele>673.3333333333334</ele><time>2026-04-19T10:12:40.359Z</time></trkpt><trkpt lat="40.5820316" lon="16.03059"><ele>679.6666666666666</ele><time>2026-04-19T10:12:41.359Z</time></trkpt><trkpt lat="40.5820584" lon="16.0303882"><ele>686.0</ele><time>2026-04-19T10:12:42.359Z</time></trkpt><trkpt lat="40.5820556" lon="16.0301823"><ele>685.0</ele><time>2026-04-19T10:12:43.359Z</time></trkpt><trkpt lat="40.5820179" lon="16.0299353"><ele>684.0</ele><time>2026-04-19T10:12:44.359Z</time></trkpt><trkpt lat="40.581967" lon="16.0296928"><ele>683.0</ele><time>2026-04-19T10:12:45.359Z</time></trkpt><trkpt lat="40.581935" lon="16.0294691"><ele>675.6666666666666</ele><time>2026-04-19T10:12:46.358Z</time></trkpt><trkpt lat="40.5819306" lon="16.029229"><ele>668.3333333333334</ele><time>2026-04-19T10:12:47.357Z</time></trkpt><trkpt lat="40.5819332" lon="16.0289889"><ele>661.0</ele><time>2026-04-19T10:12:48.358Z</time></trkpt><trkpt lat="40.581941" lon="16.0287627"><ele>660.6666666666667</ele><time>2026-04-19T10:12:49.358Z</time></trkpt><trkpt lat="40.5819525" lon="16.0285569"><ele>660.3333333333334</ele><time>2026-04-19T10:12:50.358Z</time></trkpt><trkpt lat="40.5819586" lon="16.0283535"><ele>660.0</ele><time>2026-04-19T10:12:51.358Z</time></trkpt><trkpt lat="40.581941" lon="16.0281642"><ele>660.0</ele><time>2026-04-19T10:12:52.358Z</time></trkpt><trkpt lat="40.5818713" lon="16.0279682"><ele>660.0</ele><time>2026-04-19T10:12:53.358Z</time></trkpt><trkpt lat="40.5817534" lon="16.0277801"><ele>660.0</ele><time>2026-04-19T10:12:54.358Z</time></trkpt><trkpt lat="40.581624" lon="16.0276058"><ele>657.25</ele><time>2026-04-19T10:12:55.358Z</time></trkpt><trkpt lat="40.5815109" lon="16.0274481"><ele>654.5</ele><time>2026-04-19T10:12:56.358Z</time></trkpt><trkpt lat="40.581421" lon="16.0273055"><ele>651.75</ele><time>2026-04-19T10:12:57.358Z</time></trkpt><trkpt lat="40.5813412" lon="16.0271653"><ele>649.0</ele><time>2026-04-19T10:12:58.358Z</time></trkpt><trkpt lat="40.5813044" lon="16.0269876"><ele>649.0</ele><time>2026-04-19T10:12:59.358Z</time></trkpt><trkpt lat="40.5812814" lon="16.0268007"><ele>649.0</ele><time>2026-04-19T10:13:00.358Z</time></trkpt><trkpt lat="40.5812355" lon="16.0266426"><ele>649.0</ele><time>2026-04-19T10:13:01.358Z</time></trkpt><trkpt lat="40.5811781" lon="16.0265105"><ele>649.0</ele><time>2026-04-19T10:13:02.358Z</time></trkpt><trkpt lat="40.5811748" lon="16.0264144"><ele>643.8000000000001</ele><time>2026-04-19T10:13:03.358Z</time></trkpt><trkpt lat="40.5812142" lon="16.0263418"><ele>638.6</ele><time>2026-04-19T10:13:04.358Z</time></trkpt><trkpt lat="40.5813398" lon="16.0263373"><ele>633.4</ele><time>2026-04-19T10:13:06.358Z</time></trkpt><trkpt lat="40.5814255" lon="16.0264143"><ele>628.2</ele><time>2026-04-19T10:13:07.358Z</time></trkpt><trkpt lat="40.5815407" lon="16.0265183"><ele>623.0</ele><time>2026-04-19T10:13:08.358Z</time></trkpt><trkpt lat="40.5816495" lon="16.0266228"><ele>624.0</ele><time>2026-04-19T10:13:09.358Z</time></trkpt><trkpt lat="40.581746" lon="16.0266949"><ele>625.0</ele><time>2026-04-19T10:13:10.358Z</time></trkpt><trkpt lat="40.5818449" lon="16.0267248"><ele>626.0</ele><time>2026-04-19T10:13:11.358Z</time></trkpt><trkpt lat="40.581951" lon="16.0266964"><ele>627.0</ele><time>2026-04-19T10:13:12.358Z</time></trkpt><trkpt lat="40.5820625" lon="16.0266241"><ele>628.0</ele><time>2026-04-19T10:13:13.358Z</time></trkpt><trkpt lat="40.582141" lon="16.0264902"><ele>628.0</ele><time>2026-04-19T10:13:14.358Z</time></trkpt><trkpt lat="40.5822085" lon="16.0263637"><ele>628.0</ele><time>2026-04-19T10:13:15.358Z</time></trkpt><trkpt lat="40.5822896" lon="16.026286"><ele>628.0</ele><time>2026-04-19T10:13:16.358Z</time></trkpt><trkpt lat="40.5824026" lon="16.0263008"><ele>628.0</ele><time>2026-04-19T10:13:17.358Z</time></trkpt><trkpt lat="40.5825228" lon="16.0263316"><ele>628.0</ele><time>2026-04-19T10:13:18.358Z</time></trkpt><trkpt lat="40.5826528" lon="16.0263565"><ele>628.0</ele><time>2026-04-19T10:13:19.358Z</time></trkpt><trkpt lat="40.5827986" lon="16.0263198"><ele>628.0</ele><time>2026-04-19T10:13:20.358Z</time></trkpt><trkpt lat="40.5829663" lon="16.0262491"><ele>629.0</ele><time>2026-04-19T10:13:21.358Z</time></trkpt><trkpt lat="40.583132" lon="16.0261669"><ele>630.0</ele><time>2026-04-19T10:13:22.358Z</time></trkpt><trkpt lat="40.5832772" lon="16.0260793"><ele>631.0</ele><time>2026-04-19T10:13:23.358Z</time></trkpt><trkpt lat="40.5833863" lon="16.0259757"><ele>631.0</ele><time>2026-04-19T10:13:24.358Z</time></trkpt><trkpt lat="40.5834835" lon="16.02587"><ele>631.0</ele><time>2026-04-19T10:13:25.358Z</time></trkpt><trkpt lat="40.583584" lon="16.0258135"><ele>631.0</ele><time>2026-04-19T10:13:26.358Z</time></trkpt><trkpt lat="40.5837187" lon="16.0258345"><ele>631.0</ele><time>2026-04-19T10:13:27.358Z</time></trkpt><trkpt lat="40.5838747" lon="16.0258851"><ele>630.6666666666667</ele><time>2026-04-19T10:13:28.358Z</time></trkpt><trkpt lat="40.584039" lon="16.0259528"><ele>630.3333333333334</ele><time>2026-04-19T10:13:29.358Z</time></trkpt><trkpt lat="40.5841973" lon="16.0260071"><ele>630.0</ele><time>2026-04-19T10:13:30.358Z</time></trkpt><trkpt lat="40.5843345" lon="16.0260048"><ele>630.0</ele><time>2026-04-19T10:13:31.358Z</time></trkpt><trkpt lat="40.5844486" lon="16.0260115"><ele>630.0</ele><time>2026-04-19T10:13:32.358Z</time></trkpt><trkpt lat="40.5845375" lon="16.0260568"><ele>630.0</ele><time>2026-04-19T10:13:33.358Z</time></trkpt><trkpt lat="40.5846349" lon="16.0261798"><ele>630.0</ele><time>2026-04-19T10:13:34.358Z</time></trkpt><trkpt lat="40.5847584" lon="16.02635"><ele>630.3333333333334</ele><time>2026-04-19T10:13:35.358Z</time></trkpt><trkpt lat="40.584901" lon="16.0265566"><ele>630.6666666666667</ele><time>2026-04-19T10:13:36.358Z</time></trkpt><trkpt lat="40.5850555" lon="16.0267484"><ele>631.0</ele><time>2026-04-19T10:13:37.358Z</time></trkpt><trkpt lat="40.5851998" lon="16.026924"><ele>621.3333333333334</ele><time>2026-04-19T10:13:38.358Z</time></trkpt><trkpt lat="40.5853458" lon="16.0270802"><ele>611.6666666666666</ele><time>2026-04-19T10:13:39.358Z</time></trkpt><trkpt lat="40.585474" lon="16.0272221"><ele>602.0</ele><time>2026-04-19T10:13:40.358Z</time></trkpt><trkpt lat="40.5855867" lon="16.0273206"><ele>602.0</ele><time>2026-04-19T10:13:41.358Z</time></trkpt><trkpt lat="40.5856874" lon="16.0273981"><ele>602.0</ele><time>2026-04-19T10:13:42.358Z</time></trkpt><trkpt lat="40.5857683" lon="16.0274424"><ele>602.0</ele><time>2026-04-19T10:13:43.358Z</time></trkpt><trkpt lat="40.5858463" lon="16.0274532"><ele>602.0</ele><time>2026-04-19T10:13:44.358Z</time></trkpt><trkpt lat="40.5859105" lon="16.0274012"><ele>602.0</ele><time>2026-04-19T10:13:45.358Z</time></trkpt><trkpt lat="40.5859341" lon="16.0273241"><ele>602.0</ele><time>2026-04-19T10:13:46.358Z</time></trkpt><trkpt lat="40.5858981" lon="16.0272557"><ele>602.0</ele><time>2026-04-19T10:13:47.358Z</time></trkpt><trkpt lat="40.5858276" lon="16.0271968"><ele>602.0</ele><time>2026-04-19T10:13:48.358Z</time></trkpt><trkpt lat="40.5857135" lon="16.0271506"><ele>602.0</ele><time>2026-04-19T10:13:49.358Z</time></trkpt><trkpt lat="40.5856034" lon="16.0270972"><ele>602.0</ele><time>2026-04-19T10:13:50.358Z</time></trkpt><trkpt lat="40.5855001" lon="16.0269916"><ele>602.0</ele><time>2026-04-19T10:13:51.358Z</time></trkpt><trkpt lat="40.5853945" lon="16.026825"><ele>602.0</ele><time>2026-04-19T10:13:52.358Z</time></trkpt><trkpt lat="40.5852548" lon="16.0265888"><ele>602.0</ele><time>2026-04-19T10:13:53.358Z</time></trkpt><trkpt lat="40.585112" lon="16.0263626"><ele>603.0</ele><time>2026-04-19T10:13:54.358Z</time></trkpt><trkpt lat="40.5849813" lon="16.0261597"><ele>604.0</ele><time>2026-04-19T10:13:55.358Z</time></trkpt><trkpt lat="40.584869" lon="16.0259682"><ele>605.0</ele><time>2026-04-19T10:13:56.358Z</time></trkpt><trkpt lat="40.5847776" lon="16.0257815"><ele>602.3333333333333</ele><time>2026-04-19T10:13:57.358Z</time></trkpt><trkpt lat="40.5846888" lon="16.0256174"><ele>599.6666666666666</ele><time>2026-04-19T10:13:58.358Z</time></trkpt><trkpt lat="40.5845805" lon="16.0254922"><ele>597.0</ele><time>2026-04-19T10:13:59.358Z</time></trkpt><trkpt lat="40.5844426" lon="16.0253832"><ele>597.0</ele><time>2026-04-19T10:14:00.358Z</time></trkpt><trkpt lat="40.584279" lon="16.0253094"><ele>597.0</ele><time>2026-04-19T10:14:01.358Z</time></trkpt><trkpt lat="40.5841126" lon="16.0252467"><ele>597.0</ele><time>2026-04-19T10:14:02.358Z</time></trkpt><trkpt lat="40.5839673" lon="16.0251737"><ele>597.0</ele><time>2026-04-19T10:14:03.358Z</time></trkpt><trkpt lat="40.5838694" lon="16.0250745"><ele>597.0</ele><time>2026-04-19T10:14:04.358Z</time></trkpt><trkpt lat="40.5838126" lon="16.0249837"><ele>597.0</ele><time>2026-04-19T10:14:05.358Z</time></trkpt><trkpt lat="40.5837734" lon="16.0248777"><ele>597.0</ele><time>2026-04-19T10:14:06.358Z</time></trkpt><trkpt lat="40.5837372" lon="16.0247773"><ele>597.0</ele><time>2026-04-19T10:14:07.358Z</time></trkpt><trkpt lat="40.5836753" lon="16.0247156"><ele>592.0</ele><time>2026-04-19T10:14:08.358Z</time></trkpt><trkpt lat="40.5835854" lon="16.0247122"><ele>587.0</ele><time>2026-04-19T10:14:09.358Z</time></trkpt><trkpt lat="40.5834516" lon="16.0247703"><ele>582.0</ele><time>2026-04-19T10:14:10.358Z</time></trkpt><trkpt lat="40.5832983" lon="16.0248229"><ele>577.0</ele><time>2026-04-19T10:14:11.358Z</time></trkpt><trkpt lat="40.5831441" lon="16.0248384"><ele>577.0</ele><time>2026-04-19T10:14:12.358Z</time></trkpt><trkpt lat="40.5829903" lon="16.0248195"><ele>577.0</ele><time>2026-04-19T10:14:13.358Z</time></trkpt><trkpt lat="40.5828232" lon="16.0247483"><ele>577.0</ele><time>2026-04-19T10:14:14.358Z</time></trkpt><trkpt lat="40.5826491" lon="16.0246905"><ele>577.25</ele><time>2026-04-19T10:14:15.358Z</time></trkpt><trkpt lat="40.5824881" lon="16.02469"><ele>577.5</ele><time>2026-04-19T10:14:16.358Z</time></trkpt><trkpt lat="40.5823544" lon="16.0247362"><ele>577.75</ele><time>2026-04-19T10:14:17.358Z</time></trkpt><trkpt lat="40.5822379" lon="16.024762"><ele>578.0</ele><time>2026-04-19T10:14:18.358Z</time></trkpt><trkpt lat="40.5821189" lon="16.0247299"><ele>579.3333333333333</ele><time>2026-04-19T10:14:19.358Z</time></trkpt><trkpt lat="40.5819698" lon="16.0246441"><ele>580.6666666666666</ele><time>2026-04-19T10:14:20.358Z</time></trkpt><trkpt lat="40.5817651" lon="16.0245095"><ele>582.0</ele><time>2026-04-19T10:14:21.358Z</time></trkpt><trkpt lat="40.5815628" lon="16.024378"><ele>582.0</ele><time>2026-04-19T10:14:22.358Z</time></trkpt><trkpt lat="40.5813535" lon="16.0242632"><ele>582.0</ele><time>2026-04-19T10:14:23.358Z</time></trkpt><trkpt lat="40.5811713" lon="16.0241621"><ele>582.0</ele><time>2026-04-19T10:14:24.358Z</time></trkpt><trkpt lat="40.5810295" lon="16.0240704"><ele>576.75</ele><time>2026-04-19T10:14:25.358Z</time></trkpt><trkpt lat="40.5809101" lon="16.0240072"><ele>571.5</ele><time>2026-04-19T10:14:26.358Z</time></trkpt><trkpt lat="40.5807941" lon="16.0239663"><ele>566.25</ele><time>2026-04-19T10:14:27.358Z</time></trkpt><trkpt lat="40.5806659" lon="16.0239986"><ele>561.0</ele><time>2026-04-19T10:14:28.358Z</time></trkpt><trkpt lat="40.5805" lon="16.0240925"><ele>566.3333333333334</ele><time>2026-04-19T10:14:29.358Z</time></trkpt><trkpt lat="40.5803494" lon="16.0241723"><ele>571.6666666666667</ele><time>2026-04-19T10:14:30.358Z</time></trkpt><trkpt lat="40.5802177" lon="16.0242212"><ele>577.0</ele><time>2026-04-19T10:14:31.358Z</time></trkpt><trkpt lat="40.5800577" lon="16.0242367"><ele>577.0</ele><time>2026-04-19T10:14:32.358Z</time></trkpt><trkpt lat="40.5798565" lon="16.024237"><ele>577.0</ele><time>2026-04-19T10:14:33.358Z</time></trkpt><trkpt lat="40.5796396" lon="16.0242509"><ele>577.0</ele><time>2026-04-19T10:14:34.358Z</time></trkpt><trkpt lat="40.5794299" lon="16.0242687"><ele>575.0</ele><time>2026-04-19T10:14:35.358Z</time></trkpt><trkpt lat="40.5792549" lon="16.0242648"><ele>573.0</ele><time>2026-04-19T10:14:36.358Z</time></trkpt><trkpt lat="40.5790888" lon="16.0242593"><ele>571.0</ele><time>2026-04-19T10:14:37.358Z</time></trkpt><trkpt lat="40.578906" lon="16.0242669"><ele>571.0</ele><time>2026-04-19T10:14:38.358Z</time></trkpt><trkpt lat="40.5787439" lon="16.0242669"><ele>571.0</ele><time>2026-04-19T10:14:39.358Z</time></trkpt><trkpt lat="40.5786073" lon="16.0242835"><ele>571.0</ele><time>2026-04-19T10:14:40.358Z</time></trkpt><trkpt lat="40.5785114" lon="16.0243079"><ele>571.0</ele><time>2026-04-19T10:14:41.358Z</time></trkpt><trkpt lat="40.5784333" lon="16.0243834"><ele>570.4</ele><time>2026-04-19T10:14:42.358Z</time></trkpt><trkpt lat="40.5783636" lon="16.0244957"><ele>569.8</ele><time>2026-04-19T10:14:43.358Z</time></trkpt><trkpt lat="40.5783344" lon="16.0246214"><ele>569.1999999999999</ele><time>2026-04-19T10:14:44.358Z</time></trkpt><trkpt lat="40.5783419" lon="16.0247605"><ele>568.6</ele><time>2026-04-19T10:14:45.358Z</time></trkpt><trkpt lat="40.5783738" lon="16.0248964"><ele>568.0</ele><time>2026-04-19T10:14:46.358Z</time></trkpt><trkpt lat="40.5783878" lon="16.0250138"><ele>568.0</ele><time>2026-04-19T10:14:47.358Z</time></trkpt><trkpt lat="40.5783584" lon="16.0251579"><ele>568.0</ele><time>2026-04-19T10:14:48.358Z</time></trkpt><trkpt lat="40.5782969" lon="16.0253512"><ele>568.0</ele><time>2026-04-19T10:14:49.358Z</time></trkpt><trkpt lat="40.5782585" lon="16.0255548"><ele>568.0</ele><time>2026-04-19T10:14:50.358Z</time></trkpt><trkpt lat="40.5782317" lon="16.0257341"><ele>569.0</ele><time>2026-04-19T10:14:51.358Z</time></trkpt><trkpt lat="40.578202" lon="16.0258809"><ele>570.0</ele><time>2026-04-19T10:14:52.358Z</time></trkpt><trkpt lat="40.5781351" lon="16.0260116"><ele>571.0</ele><time>2026-04-19T10:14:53.358Z</time></trkpt><trkpt lat="40.5780405" lon="16.0260955"><ele>572.0</ele><time>2026-04-19T10:14:54.358Z</time></trkpt><trkpt lat="40.5779068" lon="16.0261889"><ele>568.0</ele><time>2026-04-19T10:14:55.358Z</time></trkpt><trkpt lat="40.5777687" lon="16.0262604"><ele>564.0</ele><time>2026-04-19T10:14:56.358Z</time></trkpt><trkpt lat="40.5776394" lon="16.0263072"><ele>560.0</ele><time>2026-04-19T10:14:57.358Z</time></trkpt><trkpt lat="40.5775347" lon="16.0263368"><ele>556.0</ele><time>2026-04-19T10:14:58.358Z</time></trkpt><trkpt lat="40.5774183" lon="16.0263103"><ele>556.0</ele><time>2026-04-19T10:14:59.358Z</time></trkpt><trkpt lat="40.5772893" lon="16.026227"><ele>556.0</ele><time>2026-04-19T10:15:00.358Z</time></trkpt><trkpt lat="40.577187" lon="16.0261347"><ele>556.0</ele><time>2026-04-19T10:15:01.358Z</time></trkpt><trkpt lat="40.5771212" lon="16.0260285"><ele>556.0</ele><time>2026-04-19T10:15:02.358Z</time></trkpt><trkpt lat="40.5770963" lon="16.0259276"><ele>556.0</ele><time>2026-04-19T10:15:03.358Z</time></trkpt><trkpt lat="40.5771163" lon="16.025827"><ele>556.0</ele><time>2026-04-19T10:15:04.358Z</time></trkpt><trkpt lat="40.5771698" lon="16.0257271"><ele>556.0</ele><time>2026-04-19T10:15:05.358Z</time></trkpt><trkpt lat="40.5772573" lon="16.0256659"><ele>556.0</ele><time>2026-04-19T10:15:06.358Z</time></trkpt><trkpt lat="40.5773685" lon="16.0256447"><ele>556.0</ele><time>2026-04-19T10:15:07.358Z</time></trkpt><trkpt lat="40.577507" lon="16.0256696"><ele>554.2</ele><time>2026-04-19T10:15:08.358Z</time></trkpt><trkpt lat="40.5776328" lon="16.0257187"><ele>552.4000000000001</ele><time>2026-04-19T10:15:09.358Z</time></trkpt><trkpt lat="40.5777438" lon="16.0257079"><ele>550.6</ele><time>2026-04-19T10:15:10.358Z</time></trkpt><trkpt lat="40.5778002" lon="16.025631"><ele>548.8000000000001</ele><time>2026-04-19T10:15:11.358Z</time></trkpt><trkpt lat="40.5778473" lon="16.0255084"><ele>547.0</ele><time>2026-04-19T10:15:12.358Z</time></trkpt><trkpt lat="40.5778719" lon="16.0253411"><ele>545.5</ele><time>2026-04-19T10:15:13.358Z</time></trkpt><trkpt lat="40.5778745" lon="16.0251544"><ele>544.0</ele><time>2026-04-19T10:15:14.358Z</time></trkpt><trkpt lat="40.5778642" lon="16.0249615"><ele>542.5</ele><time>2026-04-19T10:15:15.358Z</time></trkpt><trkpt lat="40.5778438" lon="16.024799"><ele>541.0</ele><time>2026-04-19T10:15:16.358Z</time></trkpt><trkpt lat="40.5778" lon="16.024634"><ele>541.0</ele><time>2026-04-19T10:15:17.358Z</time></trkpt><trkpt lat="40.5777252" lon="16.0244501"><ele>541.0</ele><time>2026-04-19T10:15:18.358Z</time></trkpt><trkpt lat="40.5776526" lon="16.0242849"><ele>541.0</ele><time>2026-04-19T10:15:19.358Z</time></trkpt><trkpt lat="40.5775932" lon="16.0241435"><ele>541.0</ele><time>2026-04-19T10:15:20.358Z</time></trkpt><trkpt lat="40.5775811" lon="16.0239915"><ele>541.75</ele><time>2026-04-19T10:15:21.358Z</time></trkpt><trkpt lat="40.5776076" lon="16.0238305"><ele>542.5</ele><time>2026-04-19T10:15:22.358Z</time></trkpt><trkpt lat="40.5776742" lon="16.0236793"><ele>543.25</ele><time>2026-04-19T10:15:23.358Z</time></trkpt><trkpt lat="40.5777857" lon="16.0235327"><ele>544.0</ele><time>2026-04-19T10:15:24.358Z</time></trkpt><trkpt lat="40.5779011" lon="16.023424"><ele>544.0</ele><time>2026-04-19T10:15:25.358Z</time></trkpt><trkpt lat="40.5780209" lon="16.0233532"><ele>544.0</ele><time>2026-04-19T10:15:26.358Z</time></trkpt><trkpt lat="40.5781711" lon="16.0233078"><ele>544.0</ele><time>2026-04-19T10:15:27.358Z</time></trkpt><trkpt lat="40.5783371" lon="16.0232871"><ele>543.4</ele><time>2026-04-19T10:15:28.358Z</time></trkpt><trkpt lat="40.5784671" lon="16.0232664"><ele>542.8</ele><time>2026-04-19T10:15:29.358Z</time></trkpt><trkpt lat="40.5785454" lon="16.0232318"><ele>542.2</ele><time>2026-04-19T10:15:30.358Z</time></trkpt><trkpt lat="40.5786157" lon="16.0231474"><ele>541.6</ele><time>2026-04-19T10:15:31.358Z</time></trkpt><trkpt lat="40.578654" lon="16.0229988"><ele>541.0</ele><time>2026-04-19T10:15:32.358Z</time></trkpt><trkpt lat="40.5786928" lon="16.0228033"><ele>541.0</ele><time>2026-04-19T10:15:33.358Z</time></trkpt><trkpt lat="40.5787166" lon="16.0225892"><ele>541.0</ele><time>2026-04-19T10:15:34.358Z</time></trkpt><trkpt lat="40.5787332" lon="16.0224169"><ele>541.0</ele><time>2026-04-19T10:15:35.358Z</time></trkpt><trkpt lat="40.5788001" lon="16.022241"><ele>541.0</ele><time>2026-04-19T10:15:36.358Z</time></trkpt><trkpt lat="40.5789118" lon="16.022064"><ele>539.0</ele><time>2026-04-19T10:15:37.358Z</time></trkpt><trkpt lat="40.5790062" lon="16.0219029"><ele>537.0</ele><time>2026-04-19T10:15:38.358Z</time></trkpt><trkpt lat="40.5790843" lon="16.0218169"><ele>535.0</ele><time>2026-04-19T10:15:39.358Z</time></trkpt><trkpt lat="40.5791897" lon="16.0217436"><ele>533.0</ele><time>2026-04-19T10:15:40.358Z</time></trkpt><trkpt lat="40.579342" lon="16.0217076"><ele>533.0</ele><time>2026-04-19T10:15:41.358Z</time></trkpt><trkpt lat="40.5794949" lon="16.021672"><ele>533.0</ele><time>2026-04-19T10:15:42.358Z</time></trkpt><trkpt lat="40.5795982" lon="16.0216025"><ele>533.0</ele><time>2026-04-19T10:15:43.358Z</time></trkpt><trkpt lat="40.5796485" lon="16.0215139"><ele>533.0</ele><time>2026-04-19T10:15:44.358Z</time></trkpt><trkpt lat="40.5796785" lon="16.0214274"><ele>533.0</ele><time>2026-04-19T10:15:45.358Z</time></trkpt><trkpt lat="40.5796509" lon="16.0213366"><ele>526.75</ele><time>2026-04-19T10:15:46.358Z</time></trkpt><trkpt lat="40.5795818" lon="16.0212535"><ele>520.5</ele><time>2026-04-19T10:15:47.358Z</time></trkpt><trkpt lat="40.579493" lon="16.0212222"><ele>514.25</ele><time>2026-04-19T10:15:48.358Z</time></trkpt><trkpt lat="40.5793721" lon="16.0212442"><ele>508.0</ele><time>2026-04-19T10:15:49.358Z</time></trkpt><trkpt lat="40.5792002" lon="16.0213054"><ele>507.33333333333337</ele><time>2026-04-19T10:15:50.358Z</time></trkpt><trkpt lat="40.5790336" lon="16.0213941"><ele>506.66666666666663</ele><time>2026-04-19T10:15:51.358Z</time></trkpt><trkpt lat="40.5788721" lon="16.0214654"><ele>506.0</ele><time>2026-04-19T10:15:52.358Z</time></trkpt><trkpt lat="40.5787333" lon="16.0215243"><ele>505.0</ele><time>2026-04-19T10:15:53.358Z</time></trkpt><trkpt lat="40.5786423" lon="16.0215787"><ele>504.0</ele><time>2026-04-19T10:15:54.358Z</time></trkpt><trkpt lat="40.5785634" lon="16.0216883"><ele>503.0</ele><time>2026-04-19T10:15:55.358Z</time></trkpt><trkpt lat="40.5785117" lon="16.021871"><ele>502.0</ele><time>2026-04-19T10:15:56.358Z</time></trkpt><trkpt lat="40.5784508" lon="16.0220814"><ele>505.75</ele><time>2026-04-19T10:15:57.358Z</time></trkpt><trkpt lat="40.5783852" lon="16.0222774"><ele>509.5</ele><time>2026-04-19T10:15:58.358Z</time></trkpt><trkpt lat="40.5783341" lon="16.0224183"><ele>513.25</ele><time>2026-04-19T10:15:59.358Z</time></trkpt><trkpt lat="40.5782781" lon="16.0225243"><ele>517.0</ele><time>2026-04-19T10:16:00.357Z</time></trkpt><trkpt lat="40.578203" lon="16.0225929"><ele>516.75</ele><time>2026-04-19T10:16:01.357Z</time></trkpt><trkpt lat="40.5780818" lon="16.0226118"><ele>516.5</ele><time>2026-04-19T10:16:02.357Z</time></trkpt><trkpt lat="40.5779334" lon="16.0225738"><ele>516.25</ele><time>2026-04-19T10:16:03.357Z</time></trkpt><trkpt lat="40.5777834" lon="16.0224959"><ele>516.0</ele><time>2026-04-19T10:16:04.357Z</time></trkpt><trkpt lat="40.5776402" lon="16.0224626"><ele>516.0</ele><time>2026-04-19T10:16:05.357Z</time></trkpt><trkpt lat="40.5775251" lon="16.0224727"><ele>516.0</ele><time>2026-04-19T10:16:06.357Z</time></trkpt><trkpt lat="40.5774143" lon="16.0225216"><ele>516.0</ele><time>2026-04-19T10:16:07.357Z</time></trkpt><trkpt lat="40.5772875" lon="16.0226168"><ele>516.0</ele><time>2026-04-19T10:16:08.357Z</time></trkpt><trkpt lat="40.5771441" lon="16.0227464"><ele>511.33333333333337</ele><time>2026-04-19T10:16:09.357Z</time></trkpt><trkpt lat="40.5769878" lon="16.0229162"><ele>506.6666666666667</ele><time>2026-04-19T10:16:10.357Z</time></trkpt><trkpt lat="40.5768421" lon="16.0230725"><ele>502.0</ele><time>2026-04-19T10:16:11.357Z</time></trkpt><trkpt lat="40.5767068" lon="16.0232086"><ele>505.0</ele><time>2026-04-19T10:16:12.357Z</time></trkpt><trkpt lat="40.5765981" lon="16.0233337"><ele>508.0</ele><time>2026-04-19T10:16:13.357Z</time></trkpt><trkpt lat="40.5765023" lon="16.0234203"><ele>511.0</ele><time>2026-04-19T10:16:14.357Z</time></trkpt><trkpt lat="40.5764111" lon="16.0234354"><ele>514.0</ele><time>2026-04-19T10:16:15.357Z</time></trkpt><trkpt lat="40.5763061" lon="16.0233827"><ele>514.0</ele><time>2026-04-19T10:16:16.357Z</time></trkpt><trkpt lat="40.5762249" lon="16.0233361"><ele>514.0</ele><time>2026-04-19T10:16:17.357Z</time></trkpt><trkpt lat="40.5761715" lon="16.0232646"><ele>514.0</ele><time>2026-04-19T10:16:18.357Z</time></trkpt><trkpt lat="40.5761476" lon="16.0231773"><ele>514.0</ele><time>2026-04-19T10:16:19.357Z</time></trkpt><trkpt lat="40.5761752" lon="16.0230574"><ele>514.0</ele><time>2026-04-19T10:16:20.357Z</time></trkpt><trkpt lat="40.5762472" lon="16.0229028"><ele>511.0</ele><time>2026-04-19T10:16:21.357Z</time></trkpt><trkpt lat="40.5763326" lon="16.0227199"><ele>508.0</ele><time>2026-04-19T10:16:22.357Z</time></trkpt><trkpt lat="40.5764025" lon="16.0225422"><ele>505.0</ele><time>2026-04-19T10:16:23.357Z</time></trkpt><trkpt lat="40.5764631" lon="16.022403"><ele>502.0</ele><time>2026-04-19T10:16:24.357Z</time></trkpt><trkpt lat="40.5765372" lon="16.0222652"><ele>498.33333333333337</ele><time>2026-04-19T10:16:25.357Z</time></trkpt><trkpt lat="40.5766315" lon="16.0220864"><ele>494.66666666666663</ele><time>2026-04-19T10:16:26.357Z</time></trkpt><trkpt lat="40.5767588" lon="16.0218988"><ele>491.0</ele><time>2026-04-19T10:16:27.357Z</time></trkpt><trkpt lat="40.5768874" lon="16.0217362"><ele>489.6</ele><time>2026-04-19T10:16:28.357Z</time></trkpt><trkpt lat="40.5770038" lon="16.0215884"><ele>488.20000000000005</ele><time>2026-04-19T10:16:29.357Z</time></trkpt><trkpt lat="40.5770777" lon="16.0214746"><ele>486.79999999999995</ele><time>2026-04-19T10:16:30.357Z</time></trkpt><trkpt lat="40.5771236" lon="16.0213721"><ele>485.4</ele><time>2026-04-19T10:16:31.357Z</time></trkpt><trkpt lat="40.5771371" lon="16.0212637"><ele>484.0</ele><time>2026-04-19T10:16:32.357Z</time></trkpt><trkpt lat="40.5770982" lon="16.0211557"><ele>484.0</ele><time>2026-04-19T10:16:33.357Z</time></trkpt><trkpt lat="40.5770344" lon="16.021094"><ele>484.0</ele><time>2026-04-19T10:16:34.357Z</time></trkpt><trkpt lat="40.5769714" lon="16.0210824"><ele>484.0</ele><time>2026-04-19T10:16:35.357Z</time></trkpt><trkpt lat="40.5768853" lon="16.021112"><ele>484.0</ele><time>2026-04-19T10:16:36.357Z</time></trkpt><trkpt lat="40.576763" lon="16.0211819"><ele>484.0</ele><time>2026-04-19T10:16:37.357Z</time></trkpt><trkpt lat="40.5766258" lon="16.0212817"><ele>482.33333333333337</ele><time>2026-04-19T10:16:38.357Z</time></trkpt><trkpt lat="40.5764758" lon="16.0213833"><ele>480.66666666666663</ele><time>2026-04-19T10:16:39.357Z</time></trkpt><trkpt lat="40.5763325" lon="16.0214961"><ele>479.0</ele><time>2026-04-19T10:16:40.357Z</time></trkpt><trkpt lat="40.5762016" lon="16.0215728"><ele>479.2</ele><time>2026-04-19T10:16:41.357Z</time></trkpt><trkpt lat="40.5760886" lon="16.0216342"><ele>479.4</ele><time>2026-04-19T10:16:42.357Z</time></trkpt><trkpt lat="40.5759999" lon="16.0216539"><ele>479.6</ele><time>2026-04-19T10:16:43.357Z</time></trkpt><trkpt lat="40.5759391" lon="16.0216303"><ele>479.8</ele><time>2026-04-19T10:16:44.357Z</time></trkpt><trkpt lat="40.575886" lon="16.0214984"><ele>480.0</ele><time>2026-04-19T10:16:46.357Z</time></trkpt><trkpt lat="40.5759061" lon="16.0213929"><ele>477.8333333333333</ele><time>2026-04-19T10:16:47.357Z</time></trkpt><trkpt lat="40.5759546" lon="16.0212669"><ele>475.66666666666663</ele><time>2026-04-19T10:16:48.357Z</time></trkpt><trkpt lat="40.5759982" lon="16.021156"><ele>473.5</ele><time>2026-04-19T10:16:49.357Z</time></trkpt><trkpt lat="40.5760087" lon="16.0210547"><ele>471.3333333333333</ele><time>2026-04-19T10:16:50.357Z</time></trkpt><trkpt lat="40.5759744" lon="16.020968"><ele>469.16666666666663</ele><time>2026-04-19T10:16:51.357Z</time></trkpt><trkpt lat="40.5759135" lon="16.0209344"><ele>467.0</ele><time>2026-04-19T10:16:52.357Z</time></trkpt><trkpt lat="40.5758205" lon="16.0209244"><ele>467.0</ele><time>2026-04-19T10:16:53.357Z</time></trkpt><trkpt lat="40.5757213" lon="16.0209636"><ele>467.00000000000006</ele><time>2026-04-19T10:16:54.357Z</time></trkpt><trkpt lat="40.5756325" lon="16.0210353"><ele>467.00000000000006</ele><time>2026-04-19T10:16:55.357Z</time></trkpt><trkpt lat="40.5755733" lon="16.0211302"><ele>467.0</ele><time>2026-04-19T10:16:56.357Z</time></trkpt><trkpt lat="40.5755219" lon="16.0212712"><ele>467.0</ele><time>2026-04-19T10:16:57.357Z</time></trkpt><trkpt lat="40.5754579" lon="16.0214306"><ele>467.0</ele><time>2026-04-19T10:16:58.357Z</time></trkpt><trkpt lat="40.5753855" lon="16.0215727"><ele>467.0</ele><time>2026-04-19T10:16:59.357Z</time></trkpt><trkpt lat="40.5753187" lon="16.0217054"><ele>467.0</ele><time>2026-04-19T10:17:00.357Z</time></trkpt><trkpt lat="40.5752525" lon="16.0218095"><ele>467.0</ele><time>2026-04-19T10:17:01.357Z</time></trkpt><trkpt lat="40.575188" lon="16.0219024"><ele>466.16666666666663</ele><time>2026-04-19T10:17:02.357Z</time></trkpt><trkpt lat="40.5751073" lon="16.0219628"><ele>465.3333333333333</ele><time>2026-04-19T10:17:03.357Z</time></trkpt><trkpt lat="40.5750121" lon="16.0219997"><ele>464.5</ele><time>2026-04-19T10:17:04.357Z</time></trkpt><trkpt lat="40.5749322" lon="16.0220075"><ele>463.66666666666663</ele><time>2026-04-19T10:17:05.357Z</time></trkpt><trkpt lat="40.5748773" lon="16.0219637"><ele>462.8333333333333</ele><time>2026-04-19T10:17:06.357Z</time></trkpt><trkpt lat="40.5748389" lon="16.0218884"><ele>462.0</ele><time>2026-04-19T10:17:07.357Z</time></trkpt><trkpt lat="40.574879" lon="16.021727"><ele>460.40000000000003</ele><time>2026-04-19T10:17:09.357Z</time></trkpt><trkpt lat="40.574947" lon="16.0216422"><ele>458.80000000000007</ele><time>2026-04-19T10:17:10.357Z</time></trkpt><trkpt lat="40.5750168" lon="16.0215309"><ele>457.2</ele><time>2026-04-19T10:17:11.357Z</time></trkpt><trkpt lat="40.5750792" lon="16.0214271"><ele>455.6</ele><time>2026-04-19T10:17:12.357Z</time></trkpt><trkpt lat="40.5751355" lon="16.0213218"><ele>454.0</ele><time>2026-04-19T10:17:13.357Z</time></trkpt><trkpt lat="40.575181" lon="16.0212186"><ele>454.00000000000006</ele><time>2026-04-19T10:17:14.357Z</time></trkpt><trkpt lat="40.5752184" lon="16.0211136"><ele>454.0</ele><time>2026-04-19T10:17:15.357Z</time></trkpt><trkpt lat="40.5752455" lon="16.0210256"><ele>454.0</ele><time>2026-04-19T10:17:16.357Z</time></trkpt><trkpt lat="40.5752708" lon="16.0209472"><ele>454.0</ele><time>2026-04-19T10:17:17.357Z</time></trkpt><trkpt lat="40.5753071" lon="16.020867"><ele>454.00000000000006</ele><time>2026-04-19T10:17:18.357Z</time></trkpt><trkpt lat="40.575361" lon="16.020775"><ele>454.0</ele><time>2026-04-19T10:17:19.357Z</time></trkpt><trkpt lat="40.5754485" lon="16.0206748"><ele>454.2</ele><time>2026-04-19T10:17:20.357Z</time></trkpt><trkpt lat="40.5755415" lon="16.0205599"><ele>454.4</ele><time>2026-04-19T10:17:21.357Z</time></trkpt><trkpt lat="40.5756298" lon="16.0204508"><ele>454.6</ele><time>2026-04-19T10:17:22.357Z</time></trkpt><trkpt lat="40.5757073" lon="16.0203529"><ele>454.8</ele><time>2026-04-19T10:17:23.357Z</time></trkpt><trkpt lat="40.5757718" lon="16.0202641"><ele>455.0</ele><time>2026-04-19T10:17:24.357Z</time></trkpt><trkpt lat="40.575816" lon="16.0201769"><ele>454.99999999999994</ele><time>2026-04-19T10:17:25.357Z</time></trkpt><trkpt lat="40.575819" lon="16.0200827"><ele>455.0</ele><time>2026-04-19T10:17:26.357Z</time></trkpt><trkpt lat="40.5757832" lon="16.0199936"><ele>455.0</ele><time>2026-04-19T10:17:27.357Z</time></trkpt><trkpt lat="40.5757388" lon="16.0199181"><ele>455.0</ele><time>2026-04-19T10:17:28.357Z</time></trkpt><trkpt lat="40.5756944" lon="16.0198563"><ele>454.99999999999994</ele><time>2026-04-19T10:17:29.357Z</time></trkpt><trkpt lat="40.5755951" lon="16.0197995"><ele>455.0</ele><time>2026-04-19T10:17:31.357Z</time></trkpt><trkpt lat="40.5754758" lon="16.0198818"><ele>454.16666666666663</ele><time>2026-04-19T10:17:33.357Z</time></trkpt><trkpt lat="40.5754012" lon="16.0199616"><ele>453.3333333333333</ele><time>2026-04-19T10:17:35.357Z</time></trkpt><trkpt lat="40.5753477" lon="16.0200305"><ele>452.5</ele><time>2026-04-19T10:17:39.357Z</time></trkpt><trkpt lat="40.5753089" lon="16.020098"><ele>451.66666666666663</ele><time>2026-04-19T10:17:41.357Z</time></trkpt><trkpt lat="40.5752475" lon="16.0201766"><ele>450.8333333333333</ele><time>2026-04-19T10:17:43.357Z</time></trkpt><trkpt lat="40.5752022" lon="16.0202431"><ele>450.0</ele><time>2026-04-19T10:17:44.357Z</time></trkpt><trkpt lat="40.5751527" lon="16.0203131"><ele>450.0</ele><time>2026-04-19T10:17:45.357Z</time></trkpt><trkpt lat="40.5750924" lon="16.0203841"><ele>450.0</ele><time>2026-04-19T10:17:46.357Z</time></trkpt><trkpt lat="40.5750317" lon="16.0204506"><ele>450.0</ele><time>2026-04-19T10:17:47.357Z</time></trkpt><trkpt lat="40.5749636" lon="16.0205078"><ele>450.0</ele><time>2026-04-19T10:17:48.357Z</time></trkpt><trkpt lat="40.5748885" lon="16.0205428"><ele>450.0</ele><time>2026-04-19T10:17:49.357Z</time></trkpt><trkpt lat="40.5748068" lon="16.0205589"><ele>450.0</ele><time>2026-04-19T10:17:50.357Z</time></trkpt><trkpt lat="40.5747241" lon="16.0205362"><ele>450.0</ele><time>2026-04-19T10:17:51.357Z</time></trkpt><trkpt lat="40.5746477" lon="16.0205086"><ele>450.0</ele><time>2026-04-19T10:17:52.357Z</time></trkpt><trkpt lat="40.5745818" lon="16.020468"><ele>450.0</ele><time>2026-04-19T10:17:53.357Z</time></trkpt><trkpt lat="40.5745234" lon="16.0204041"><ele>450.0</ele><time>2026-04-19T10:17:54.357Z</time></trkpt><trkpt lat="40.5744854" lon="16.0202765"><ele>450.0</ele><time>2026-04-19T10:17:56.357Z</time></trkpt><trkpt lat="40.5744356" lon="16.0201297"><ele>448.25</ele><time>2026-04-19T10:17:58.357Z</time></trkpt><trkpt lat="40.5744084" lon="16.0199807"><ele>446.5</ele><time>2026-04-19T10:18:00.357Z</time></trkpt><trkpt lat="40.5743558" lon="16.0197752"><ele>444.75</ele><time>2026-04-19T10:18:02.357Z</time></trkpt><trkpt lat="40.5743037" lon="16.0196174"><ele>443.0</ele><time>2026-04-19T10:18:03.357Z</time></trkpt><trkpt lat="40.5742569" lon="16.0194559"><ele>443.0</ele><time>2026-04-19T10:18:04.357Z</time></trkpt><trkpt lat="40.5742008" lon="16.0192876"><ele>443.0</ele><time>2026-04-19T10:18:05.357Z</time></trkpt><trkpt lat="40.5741447" lon="16.0191102"><ele>443.0</ele><time>2026-04-19T10:18:06.357Z</time></trkpt><trkpt lat="40.5740921" lon="16.0189378"><ele>443.0</ele><time>2026-04-19T10:18:07.357Z</time></trkpt><trkpt lat="40.574047" lon="16.0187923"><ele>444.16666666666663</ele><time>2026-04-19T10:18:08.357Z</time></trkpt><trkpt lat="40.5740049" lon="16.0186666"><ele>445.3333333333333</ele><time>2026-04-19T10:18:09.357Z</time></trkpt><trkpt lat="40.5739674" lon="16.0185658"><ele>446.5</ele><time>2026-04-19T10:18:10.357Z</time></trkpt><trkpt lat="40.5739227" lon="16.0184903"><ele>447.66666666666663</ele><time>2026-04-19T10:18:11.357Z</time></trkpt><trkpt lat="40.5738605" lon="16.0184515"><ele>448.8333333333333</ele><time>2026-04-19T10:18:12.357Z</time></trkpt><trkpt lat="40.5737794" lon="16.0184411"><ele>450.0</ele><time>2026-04-19T10:18:13.357Z</time></trkpt><trkpt lat="40.5736603" lon="16.0184498"><ele>453.5</ele><time>2026-04-19T10:18:14.357Z</time></trkpt><trkpt lat="40.5735075" lon="16.018493"><ele>457.0</ele><time>2026-04-19T10:18:15.357Z</time></trkpt><trkpt lat="40.5733638" lon="16.0185574"><ele>460.5</ele><time>2026-04-19T10:18:16.357Z</time></trkpt><trkpt lat="40.5732535" lon="16.0186271"><ele>464.0</ele><time>2026-04-19T10:18:17.357Z</time></trkpt><trkpt lat="40.5731624" lon="16.018723"><ele>464.0</ele><time>2026-04-19T10:18:18.357Z</time></trkpt><trkpt lat="40.5730707" lon="16.0188613"><ele>464.0</ele><time>2026-04-19T10:18:19.357Z</time></trkpt><trkpt lat="40.5729666" lon="16.0190331"><ele>464.0</ele><time>2026-04-19T10:18:20.357Z</time></trkpt><trkpt lat="40.5728748" lon="16.0192036"><ele>464.6</ele><time>2026-04-19T10:18:21.357Z</time></trkpt><trkpt lat="40.5728096" lon="16.0193635"><ele>465.2</ele><time>2026-04-19T10:18:22.357Z</time></trkpt><trkpt lat="40.5727775" lon="16.0195107"><ele>465.80000000000007</ele><time>2026-04-19T10:18:23.357Z</time></trkpt><trkpt lat="40.5727558" lon="16.0196276"><ele>466.40000000000003</ele><time>2026-04-19T10:18:24.357Z</time></trkpt><trkpt lat="40.5727561" lon="16.0197553"><ele>467.0</ele><time>2026-04-19T10:18:26.357Z</time></trkpt><trkpt lat="40.5728055" lon="16.0198559"><ele>466.99999999999994</ele><time>2026-04-19T10:18:28.357Z</time></trkpt><trkpt lat="40.5728235" lon="16.0199355"><ele>467.0</ele><time>2026-04-19T10:18:29.357Z</time></trkpt><trkpt lat="40.5728323" lon="16.0200325"><ele>467.0</ele><time>2026-04-19T10:18:30.357Z</time></trkpt><trkpt lat="40.5728001" lon="16.0201364"><ele>467.0</ele><time>2026-04-19T10:18:31.357Z</time></trkpt><trkpt lat="40.5727409" lon="16.0202328"><ele>466.99999999999994</ele><time>2026-04-19T10:18:32.357Z</time></trkpt><trkpt lat="40.5726566" lon="16.0203088"><ele>467.0</ele><time>2026-04-19T10:18:33.357Z</time></trkpt><trkpt lat="40.5725466" lon="16.0203722"><ele>465.75</ele><time>2026-04-19T10:18:34.357Z</time></trkpt><trkpt lat="40.5724352" lon="16.0204026"><ele>464.5</ele><time>2026-04-19T10:18:35.357Z</time></trkpt><trkpt lat="40.5723082" lon="16.0204261"><ele>463.25</ele><time>2026-04-19T10:18:36.357Z</time></trkpt><trkpt lat="40.5721706" lon="16.020444"><ele>462.0</ele><time>2026-04-19T10:18:37.357Z</time></trkpt><trkpt lat="40.5720059" lon="16.0204527"><ele>462.0</ele><time>2026-04-19T10:18:38.357Z</time></trkpt><trkpt lat="40.5718127" lon="16.0204646"><ele>462.0</ele><time>2026-04-19T10:18:39.357Z</time></trkpt><trkpt lat="40.5715932" lon="16.02044"><ele>462.0</ele><time>2026-04-19T10:18:40.357Z</time></trkpt><trkpt lat="40.571374" lon="16.0203974"><ele>460.5</ele><time>2026-04-19T10:18:41.357Z</time></trkpt><trkpt lat="40.5711367" lon="16.0203426"><ele>459.0</ele><time>2026-04-19T10:18:42.357Z</time></trkpt><trkpt lat="40.5708776" lon="16.0202932"><ele>459.0</ele><time>2026-04-19T10:18:43.357Z</time></trkpt><trkpt lat="40.5706213" lon="16.0202361"><ele>459.0</ele><time>2026-04-19T10:18:44.357Z</time></trkpt><trkpt lat="40.5703644" lon="16.0201851"><ele>457.5</ele><time>2026-04-19T10:18:45.357Z</time></trkpt><trkpt lat="40.5700971" lon="16.0201329"><ele>456.0</ele><time>2026-04-19T10:18:46.357Z</time></trkpt><trkpt lat="40.5698335" lon="16.0200828"><ele>456.0</ele><time>2026-04-19T10:18:47.357Z</time></trkpt><trkpt lat="40.5695823" lon="16.0200529"><ele>456.0</ele><time>2026-04-19T10:18:48.357Z</time></trkpt><trkpt lat="40.5693283" lon="16.0200459"><ele>455.5</ele><time>2026-04-19T10:18:49.357Z</time></trkpt><trkpt lat="40.5690572" lon="16.0200584"><ele>455.0</ele><time>2026-04-19T10:18:50.357Z</time></trkpt><trkpt lat="40.5687644" lon="16.0200987"><ele>457.0</ele><time>2026-04-19T10:18:51.357Z</time></trkpt><trkpt lat="40.5684593" lon="16.0201649"><ele>459.0</ele><time>2026-04-19T10:18:52.357Z</time></trkpt><trkpt lat="40.5681529" lon="16.0202527"><ele>461.5</ele><time>2026-04-19T10:18:53.357Z</time></trkpt><trkpt lat="40.567854" lon="16.0203421"><ele>464.0</ele><time>2026-04-19T10:18:54.357Z</time></trkpt><trkpt lat="40.5675688" lon="16.0204236"><ele>464.0</ele><time>2026-04-19T10:18:55.357Z</time></trkpt><trkpt lat="40.567285" lon="16.0205079"><ele>464.0</ele><time>2026-04-19T10:18:56.357Z</time></trkpt><trkpt lat="40.5669932" lon="16.0205912"><ele>461.0</ele><time>2026-04-19T10:18:57.357Z</time></trkpt><trkpt lat="40.5667098" lon="16.0206739"><ele>458.0</ele><time>2026-04-19T10:18:58.357Z</time></trkpt><trkpt lat="40.5664429" lon="16.0207542"><ele>454.5</ele><time>2026-04-19T10:18:59.357Z</time></trkpt><trkpt lat="40.5661727" lon="16.0208072"><ele>451.0</ele><time>2026-04-19T10:19:00.357Z</time></trkpt><trkpt lat="40.5658933" lon="16.02084"><ele>449.5</ele><time>2026-04-19T10:19:01.357Z</time></trkpt><trkpt lat="40.5656059" lon="16.020837"><ele>448.0</ele><time>2026-04-19T10:19:02.357Z</time></trkpt><trkpt lat="40.5653191" lon="16.020794"><ele>448.0</ele><time>2026-04-19T10:19:03.357Z</time></trkpt><trkpt lat="40.5650527" lon="16.020721"><ele>448.0</ele><time>2026-04-19T10:19:04.357Z</time></trkpt><trkpt lat="40.5647946" lon="16.0206159"><ele>448.0</ele><time>2026-04-19T10:19:05.357Z</time></trkpt><trkpt lat="40.5645481" lon="16.0204777"><ele>448.0</ele><time>2026-04-19T10:19:06.357Z</time></trkpt><trkpt lat="40.5643125" lon="16.0203042"><ele>450.5</ele><time>2026-04-19T10:19:07.357Z</time></trkpt><trkpt lat="40.5640935" lon="16.020102"><ele>453.0</ele><time>2026-04-19T10:19:08.357Z</time></trkpt><trkpt lat="40.5638734" lon="16.0198645"><ele>457.0</ele><time>2026-04-19T10:19:09.357Z</time></trkpt><trkpt lat="40.5636666" lon="16.0195665"><ele>461.0</ele><time>2026-04-19T10:19:10.357Z</time></trkpt><trkpt lat="40.5634667" lon="16.0192402"><ele>459.5</ele><time>2026-04-19T10:19:11.357Z</time></trkpt><trkpt lat="40.5632786" lon="16.0188701"><ele>458.0</ele><time>2026-04-19T10:19:12.357Z</time></trkpt><trkpt lat="40.5630788" lon="16.0184787"><ele>458.5</ele><time>2026-04-19T10:19:13.357Z</time></trkpt><trkpt lat="40.5628776" lon="16.0180909"><ele>459.0</ele><time>2026-04-19T10:19:14.356Z</time></trkpt><trkpt lat="40.5626854" lon="16.0177092"><ele>462.5</ele><time>2026-04-19T10:19:15.356Z</time></trkpt><trkpt lat="40.5624875" lon="16.0173412"><ele>466.0</ele><time>2026-04-19T10:19:16.356Z</time></trkpt><trkpt lat="40.5622799" lon="16.016983"><ele>465.5</ele><time>2026-04-19T10:19:17.356Z</time></trkpt><trkpt lat="40.5620653" lon="16.0166227"><ele>465.0</ele><time>2026-04-19T10:19:18.356Z</time></trkpt><trkpt lat="40.5618404" lon="16.0162563"><ele>464.5</ele><time>2026-04-19T10:19:19.356Z</time></trkpt><trkpt lat="40.5616221" lon="16.0159061"><ele>464.0</ele><time>2026-04-19T10:19:20.356Z</time></trkpt><trkpt lat="40.5614264" lon="16.0155858"><ele>464.0</ele><time>2026-04-19T10:19:21.356Z</time></trkpt><trkpt lat="40.5612268" lon="16.0152527"><ele>464.0</ele><time>2026-04-19T10:19:22.356Z</time></trkpt><trkpt lat="40.5610202" lon="16.0149326"><ele>465.5</ele><time>2026-04-19T10:19:23.356Z</time></trkpt><trkpt lat="40.5608075" lon="16.0146013"><ele>467.0</ele><time>2026-04-19T10:19:24.356Z</time></trkpt><trkpt lat="40.5605657" lon="16.0142529"><ele>464.5</ele><time>2026-04-19T10:19:25.356Z</time></trkpt><trkpt lat="40.5603137" lon="16.0138915"><ele>462.0</ele><time>2026-04-19T10:19:26.356Z</time></trkpt><trkpt lat="40.5600662" lon="16.0135272"><ele>463.0</ele><time>2026-04-19T10:19:27.356Z</time></trkpt><trkpt lat="40.5598249" lon="16.0131812"><ele>464.0</ele><time>2026-04-19T10:19:28.356Z</time></trkpt><trkpt lat="40.5595964" lon="16.0128482"><ele>467.0</ele><time>2026-04-19T10:19:29.356Z</time></trkpt><trkpt lat="40.5593815" lon="16.0125348"><ele>470.0</ele><time>2026-04-19T10:19:30.356Z</time></trkpt><trkpt lat="40.5591697" lon="16.0122218"><ele>477.5</ele><time>2026-04-19T10:19:31.356Z</time></trkpt><trkpt lat="40.5589461" lon="16.0119075"><ele>485.0</ele><time>2026-04-19T10:19:32.356Z</time></trkpt><trkpt lat="40.5587186" lon="16.0115816"><ele>480.5</ele><time>2026-04-19T10:19:33.356Z</time></trkpt><trkpt lat="40.5584989" lon="16.0112705"><ele>476.0</ele><time>2026-04-19T10:19:34.356Z</time></trkpt><trkpt lat="40.5582808" lon="16.0109671"><ele>475.0</ele><time>2026-04-19T10:19:35.356Z</time></trkpt><trkpt lat="40.5580588" lon="16.0106503"><ele>474.0</ele><time>2026-04-19T10:19:36.356Z</time></trkpt><trkpt lat="40.5578369" lon="16.0103306"><ele>474.0</ele><time>2026-04-19T10:19:37.356Z</time></trkpt><trkpt lat="40.5576257" lon="16.0100491"><ele>474.0</ele><time>2026-04-19T10:19:38.356Z</time></trkpt><trkpt lat="40.5574328" lon="16.0097754"><ele>472.5</ele><time>2026-04-19T10:19:39.356Z</time></trkpt><trkpt lat="40.5572436" lon="16.0094941"><ele>471.0</ele><time>2026-04-19T10:19:40.356Z</time></trkpt><trkpt lat="40.5570377" lon="16.0092003"><ele>473.5</ele><time>2026-04-19T10:19:41.356Z</time></trkpt><trkpt lat="40.5568229" lon="16.0088916"><ele>476.0</ele><time>2026-04-19T10:19:42.356Z</time></trkpt><trkpt lat="40.5566329" lon="16.0085893"><ele>475.5</ele><time>2026-04-19T10:19:43.356Z</time></trkpt><trkpt lat="40.5564548" lon="16.0083026"><ele>475.0</ele><time>2026-04-19T10:19:44.356Z</time></trkpt><trkpt lat="40.5563031" lon="16.0080392"><ele>478.5</ele><time>2026-04-19T10:19:45.356Z</time></trkpt><trkpt lat="40.556156" lon="16.0077977"><ele>482.0</ele><time>2026-04-19T10:19:46.356Z</time></trkpt><trkpt lat="40.5560001" lon="16.0075837"><ele>480.66666666666663</ele><time>2026-04-19T10:19:47.356Z</time></trkpt><trkpt lat="40.5558343" lon="16.0074062"><ele>479.33333333333337</ele><time>2026-04-19T10:19:48.356Z</time></trkpt><trkpt lat="40.5556469" lon="16.0072496"><ele>478.0</ele><time>2026-04-19T10:19:49.356Z</time></trkpt><trkpt lat="40.5554347" lon="16.0071041"><ele>476.5</ele><time>2026-04-19T10:19:50.356Z</time></trkpt><trkpt lat="40.5551898" lon="16.0069696"><ele>475.0</ele><time>2026-04-19T10:19:51.356Z</time></trkpt><trkpt lat="40.5549452" lon="16.0068712"><ele>475.0</ele><time>2026-04-19T10:19:52.356Z</time></trkpt><trkpt lat="40.5547178" lon="16.0067766"><ele>475.0</ele><time>2026-04-19T10:19:53.356Z</time></trkpt><trkpt lat="40.5545038" lon="16.0066554"><ele>476.0</ele><time>2026-04-19T10:19:54.356Z</time></trkpt><trkpt lat="40.5542913" lon="16.0064995"><ele>477.0</ele><time>2026-04-19T10:19:55.356Z</time></trkpt><trkpt lat="40.5540792" lon="16.0063094"><ele>477.0</ele><time>2026-04-19T10:19:56.356Z</time></trkpt><trkpt lat="40.5538697" lon="16.0060796"><ele>477.0</ele><time>2026-04-19T10:19:57.356Z</time></trkpt><trkpt lat="40.553678" lon="16.0058547"><ele>476.5</ele><time>2026-04-19T10:19:58.356Z</time></trkpt><trkpt lat="40.5534959" lon="16.0056452"><ele>476.0</ele><time>2026-04-19T10:19:59.356Z</time></trkpt><trkpt lat="40.5533068" lon="16.0054444"><ele>476.0</ele><time>2026-04-19T10:20:00.356Z</time></trkpt><trkpt lat="40.5531194" lon="16.0052943"><ele>476.0</ele><time>2026-04-19T10:20:01.356Z</time></trkpt><trkpt lat="40.5529483" lon="16.005197"><ele>476.0</ele><time>2026-04-19T10:20:02.356Z</time></trkpt><trkpt lat="40.5527756" lon="16.0051415"><ele>478.66666666666663</ele><time>2026-04-19T10:20:03.356Z</time></trkpt><trkpt lat="40.5525825" lon="16.0051156"><ele>481.33333333333337</ele><time>2026-04-19T10:20:04.356Z</time></trkpt><trkpt lat="40.5523449" lon="16.0051121"><ele>484.0</ele><time>2026-04-19T10:20:05.356Z</time></trkpt><trkpt lat="40.5521111" lon="16.005143"><ele>487.0</ele><time>2026-04-19T10:20:06.356Z</time></trkpt><trkpt lat="40.5518842" lon="16.0051082"><ele>490.0</ele><time>2026-04-19T10:20:07.356Z</time></trkpt><trkpt lat="40.5516479" lon="16.0050457"><ele>487.5</ele><time>2026-04-19T10:20:08.356Z</time></trkpt><trkpt lat="40.551403" lon="16.0049368"><ele>485.0</ele><time>2026-04-19T10:20:09.356Z</time></trkpt><trkpt lat="40.5511427" lon="16.0048027"><ele>485.0</ele><time>2026-04-19T10:20:10.356Z</time></trkpt><trkpt lat="40.5508652" lon="16.0046392"><ele>485.0</ele><time>2026-04-19T10:20:11.356Z</time></trkpt><trkpt lat="40.5505805" lon="16.004443"><ele>484.5</ele><time>2026-04-19T10:20:12.356Z</time></trkpt><trkpt lat="40.550293" lon="16.0042594"><ele>484.0</ele><time>2026-04-19T10:20:13.356Z</time></trkpt><trkpt lat="40.550037" lon="16.0041069"><ele>484.0</ele><time>2026-04-19T10:20:14.356Z</time></trkpt><trkpt lat="40.5498223" lon="16.0039676"><ele>484.0</ele><time>2026-04-19T10:20:15.356Z</time></trkpt><trkpt lat="40.5496356" lon="16.0038562"><ele>484.0</ele><time>2026-04-19T10:20:16.356Z</time></trkpt><trkpt lat="40.5494725" lon="16.0037068"><ele>485.6666666666667</ele><time>2026-04-19T10:20:17.356Z</time></trkpt><trkpt lat="40.5493153" lon="16.0035352"><ele>487.33333333333337</ele><time>2026-04-19T10:20:18.356Z</time></trkpt><trkpt lat="40.5491772" lon="16.0033221"><ele>489.0</ele><time>2026-04-19T10:20:19.356Z</time></trkpt><trkpt lat="40.549048" lon="16.0030733"><ele>489.0</ele><time>2026-04-19T10:20:20.356Z</time></trkpt><trkpt lat="40.5489414" lon="16.0027861"><ele>489.0</ele><time>2026-04-19T10:20:21.356Z</time></trkpt><trkpt lat="40.5488651" lon="16.0024907"><ele>486.0</ele><time>2026-04-19T10:20:22.356Z</time></trkpt><trkpt lat="40.5488061" lon="16.0021894"><ele>483.0</ele><time>2026-04-19T10:20:23.356Z</time></trkpt><trkpt lat="40.5487555" lon="16.0018427"><ele>487.5</ele><time>2026-04-19T10:20:24.356Z</time></trkpt><trkpt lat="40.5487013" lon="16.0014609"><ele>492.0</ele><time>2026-04-19T10:20:25.356Z</time></trkpt><trkpt lat="40.5486427" lon="16.0010613"><ele>496.5</ele><time>2026-04-19T10:20:26.356Z</time></trkpt><trkpt lat="40.5485756" lon="16.0006735"><ele>501.0</ele><time>2026-04-19T10:20:27.356Z</time></trkpt><trkpt lat="40.5485145" lon="16.0003117"><ele>501.0</ele><time>2026-04-19T10:20:28.356Z</time></trkpt><trkpt lat="40.5484705" lon="15.9999734"><ele>501.0</ele><time>2026-04-19T10:20:29.356Z</time></trkpt><trkpt lat="40.5484182" lon="15.9996442"><ele>501.0</ele><time>2026-04-19T10:20:30.356Z</time></trkpt><trkpt lat="40.5483544" lon="15.9993157"><ele>501.0</ele><time>2026-04-19T10:20:31.356Z</time></trkpt><trkpt lat="40.5482768" lon="15.9990175"><ele>510.5</ele><time>2026-04-19T10:20:32.356Z</time></trkpt><trkpt lat="40.5481652" lon="15.9987636"><ele>520.0</ele><time>2026-04-19T10:20:33.356Z</time></trkpt><trkpt lat="40.5480278" lon="15.9985212"><ele>528.5</ele><time>2026-04-19T10:20:34.356Z</time></trkpt><trkpt lat="40.5478725" lon="15.9982898"><ele>537.0</ele><time>2026-04-19T10:20:35.356Z</time></trkpt><trkpt lat="40.5476964" lon="15.9980905"><ele>537.0</ele><time>2026-04-19T10:20:36.356Z</time></trkpt><trkpt lat="40.5474948" lon="15.997927"><ele>537.0</ele><time>2026-04-19T10:20:37.356Z</time></trkpt><trkpt lat="40.5472686" lon="15.9977731"><ele>535.0</ele><time>2026-04-19T10:20:38.356Z</time></trkpt><trkpt lat="40.547011" lon="15.9976363"><ele>533.0</ele><time>2026-04-19T10:20:39.356Z</time></trkpt><trkpt lat="40.5467248" lon="15.9974901"><ele>541.5</ele><time>2026-04-19T10:20:40.356Z</time></trkpt><trkpt lat="40.5464565" lon="15.9973358"><ele>550.0</ele><time>2026-04-19T10:20:41.356Z</time></trkpt><trkpt lat="40.5462146" lon="15.9971922"><ele>548.5</ele><time>2026-04-19T10:20:42.356Z</time></trkpt><trkpt lat="40.5459825" lon="15.9970461"><ele>547.0</ele><time>2026-04-19T10:20:43.356Z</time></trkpt><trkpt lat="40.5457474" lon="15.9968761"><ele>547.0</ele><time>2026-04-19T10:20:44.356Z</time></trkpt><trkpt lat="40.5454972" lon="15.9966918"><ele>547.0</ele><time>2026-04-19T10:20:45.356Z</time></trkpt><trkpt lat="40.5452402" lon="15.9965048"><ele>554.0</ele><time>2026-04-19T10:20:46.356Z</time></trkpt><trkpt lat="40.5450053" lon="15.9963343"><ele>561.0</ele><time>2026-04-19T10:20:47.356Z</time></trkpt><trkpt lat="40.5447802" lon="15.9961729"><ele>561.0</ele><time>2026-04-19T10:20:48.356Z</time></trkpt><trkpt lat="40.5445699" lon="15.9960111"><ele>561.0</ele><time>2026-04-19T10:20:49.356Z</time></trkpt><trkpt lat="40.544377" lon="15.9958641"><ele>563.3333333333334</ele><time>2026-04-19T10:20:50.356Z</time></trkpt><trkpt lat="40.5441937" lon="15.9957347"><ele>565.6666666666667</ele><time>2026-04-19T10:20:51.356Z</time></trkpt><trkpt lat="40.5440206" lon="15.9956156"><ele>568.0</ele><time>2026-04-19T10:20:52.356Z</time></trkpt><trkpt lat="40.5438621" lon="15.9954996"><ele>561.6666666666667</ele><time>2026-04-19T10:20:53.356Z</time></trkpt><trkpt lat="40.5437056" lon="15.9953827"><ele>555.3333333333334</ele><time>2026-04-19T10:20:54.356Z</time></trkpt><trkpt lat="40.5435495" lon="15.9952634"><ele>549.0</ele><time>2026-04-19T10:20:55.356Z</time></trkpt><trkpt lat="40.5433961" lon="15.9951441"><ele>549.0</ele><time>2026-04-19T10:20:56.356Z</time></trkpt><trkpt lat="40.5432429" lon="15.99502"><ele>549.0</ele><time>2026-04-19T10:20:57.356Z</time></trkpt><trkpt lat="40.5430947" lon="15.9948774"><ele>549.0</ele><time>2026-04-19T10:20:58.356Z</time></trkpt><trkpt lat="40.5429536" lon="15.9947236"><ele>550.0</ele><time>2026-04-19T10:20:59.356Z</time></trkpt><trkpt lat="40.5428252" lon="15.9945503"><ele>551.0</ele><time>2026-04-19T10:21:00.356Z</time></trkpt><trkpt lat="40.5427079" lon="15.9943791"><ele>552.0</ele><time>2026-04-19T10:21:01.356Z</time></trkpt><trkpt lat="40.5425928" lon="15.9942"><ele>559.6666666666666</ele><time>2026-04-19T10:21:02.356Z</time></trkpt><trkpt lat="40.5424824" lon="15.9939871"><ele>567.3333333333333</ele><time>2026-04-19T10:21:03.356Z</time></trkpt><trkpt lat="40.54237" lon="15.993743"><ele>575.0</ele><time>2026-04-19T10:21:04.356Z</time></trkpt><trkpt lat="40.5422576" lon="15.9934535"><ele>579.5</ele><time>2026-04-19T10:21:05.356Z</time></trkpt><trkpt lat="40.5421773" lon="15.9931453"><ele>584.0</ele><time>2026-04-19T10:21:06.356Z</time></trkpt><trkpt lat="40.5421138" lon="15.9928627"><ele>584.0</ele><time>2026-04-19T10:21:07.356Z</time></trkpt><trkpt lat="40.5420643" lon="15.992601"><ele>584.0</ele><time>2026-04-19T10:21:08.356Z</time></trkpt><trkpt lat="40.5419976" lon="15.9923408"><ele>584.0</ele><time>2026-04-19T10:21:09.356Z</time></trkpt><trkpt lat="40.5419004" lon="15.9920824"><ele>583.0</ele><time>2026-04-19T10:21:10.356Z</time></trkpt><trkpt lat="40.541791" lon="15.9918426"><ele>582.0</ele><time>2026-04-19T10:21:11.356Z</time></trkpt><trkpt lat="40.5416646" lon="15.9916197"><ele>581.0</ele><time>2026-04-19T10:21:12.356Z</time></trkpt><trkpt lat="40.5415094" lon="15.9914129"><ele>581.0</ele><time>2026-04-19T10:21:13.356Z</time></trkpt><trkpt lat="40.5413266" lon="15.9912279"><ele>581.0</ele><time>2026-04-19T10:21:14.356Z</time></trkpt><trkpt lat="40.5411261" lon="15.9910965"><ele>578.0</ele><time>2026-04-19T10:21:15.356Z</time></trkpt><trkpt lat="40.5409153" lon="15.9909787"><ele>575.0</ele><time>2026-04-19T10:21:16.356Z</time></trkpt><trkpt lat="40.5406704" lon="15.9908874"><ele>580.0</ele><time>2026-04-19T10:21:17.356Z</time></trkpt><trkpt lat="40.5404135" lon="15.9908152"><ele>585.0</ele><time>2026-04-19T10:21:18.356Z</time></trkpt><trkpt lat="40.5401605" lon="15.9907539"><ele>585.0</ele><time>2026-04-19T10:21:19.356Z</time></trkpt><trkpt lat="40.5399256" lon="15.9906851"><ele>585.0</ele><time>2026-04-19T10:21:20.356Z</time></trkpt><trkpt lat="40.539699" lon="15.9906153"><ele>584.0</ele><time>2026-04-19T10:21:21.356Z</time></trkpt><trkpt lat="40.5394611" lon="15.9905521"><ele>583.0</ele><time>2026-04-19T10:21:22.356Z</time></trkpt><trkpt lat="40.5392253" lon="15.9904998"><ele>583.0</ele><time>2026-04-19T10:21:23.356Z</time></trkpt><trkpt lat="40.5389945" lon="15.9904404"><ele>583.0</ele><time>2026-04-19T10:21:24.356Z</time></trkpt><trkpt lat="40.5387612" lon="15.9903649"><ele>577.0</ele><time>2026-04-19T10:21:25.356Z</time></trkpt><trkpt lat="40.5385255" lon="15.9902524"><ele>571.0</ele><time>2026-04-19T10:21:26.356Z</time></trkpt><trkpt lat="40.5382883" lon="15.9901065"><ele>570.0</ele><time>2026-04-19T10:21:27.356Z</time></trkpt><trkpt lat="40.5380643" lon="15.989925"><ele>569.0</ele><time>2026-04-19T10:21:28.356Z</time></trkpt><trkpt lat="40.537822" lon="15.9896943"><ele>569.0</ele><time>2026-04-19T10:21:29.356Z</time></trkpt><trkpt lat="40.5375675" lon="15.9894292"><ele>569.0</ele><time>2026-04-19T10:21:30.356Z</time></trkpt><trkpt lat="40.5373102" lon="15.9891728"><ele>567.5</ele><time>2026-04-19T10:21:31.356Z</time></trkpt><trkpt lat="40.5370427" lon="15.9889119"><ele>566.0</ele><time>2026-04-19T10:21:32.356Z</time></trkpt><trkpt lat="40.5367672" lon="15.9886422"><ele>566.0</ele><time>2026-04-19T10:21:33.356Z</time></trkpt><trkpt lat="40.5364971" lon="15.988377"><ele>566.0</ele><time>2026-04-19T10:21:34.356Z</time></trkpt><trkpt lat="40.5362409" lon="15.9881301"><ele>562.5</ele><time>2026-04-19T10:21:35.356Z</time></trkpt><trkpt lat="40.5359812" lon="15.9878931"><ele>559.0</ele><time>2026-04-19T10:21:36.356Z</time></trkpt><trkpt lat="40.5357161" lon="15.9876481"><ele>559.5</ele><time>2026-04-19T10:21:37.356Z</time></trkpt><trkpt lat="40.5354459" lon="15.9874194"><ele>560.0</ele><time>2026-04-19T10:21:38.356Z</time></trkpt><trkpt lat="40.5351938" lon="15.987218"><ele>560.0</ele><time>2026-04-19T10:21:39.356Z</time></trkpt><trkpt lat="40.5349442" lon="15.9870286"><ele>560.0</ele><time>2026-04-19T10:21:40.356Z</time></trkpt><trkpt lat="40.5347075" lon="15.9868053"><ele>560.0</ele><time>2026-04-19T10:21:41.356Z</time></trkpt><trkpt lat="40.5344665" lon="15.9865564"><ele>560.0</ele><time>2026-04-19T10:21:42.356Z</time></trkpt><trkpt lat="40.5342269" lon="15.9862904"><ele>560.0</ele><time>2026-04-19T10:21:43.356Z</time></trkpt><trkpt lat="40.533997" lon="15.9860396"><ele>560.0</ele><time>2026-04-19T10:21:44.356Z</time></trkpt><trkpt lat="40.5337856" lon="15.9858119"><ele>561.0</ele><time>2026-04-19T10:21:45.356Z</time></trkpt><trkpt lat="40.5335798" lon="15.9855948"><ele>562.0</ele><time>2026-04-19T10:21:46.356Z</time></trkpt><trkpt lat="40.5333898" lon="15.9853837"><ele>562.0</ele><time>2026-04-19T10:21:47.356Z</time></trkpt><trkpt lat="40.5332116" lon="15.9851943"><ele>562.0</ele><time>2026-04-19T10:21:48.356Z</time></trkpt><trkpt lat="40.5330349" lon="15.9850025"><ele>564.5</ele><time>2026-04-19T10:21:49.356Z</time></trkpt><trkpt lat="40.5328459" lon="15.9847891"><ele>567.0</ele><time>2026-04-19T10:21:50.356Z</time></trkpt><trkpt lat="40.532642" lon="15.984565"><ele>567.0</ele><time>2026-04-19T10:21:51.356Z</time></trkpt><trkpt lat="40.532441" lon="15.9843413"><ele>567.0</ele><time>2026-04-19T10:21:52.356Z</time></trkpt><trkpt lat="40.5322456" lon="15.98415"><ele>565.5</ele><time>2026-04-19T10:21:53.356Z</time></trkpt><trkpt lat="40.5320398" lon="15.9839856"><ele>564.0</ele><time>2026-04-19T10:21:54.356Z</time></trkpt><trkpt lat="40.5318185" lon="15.9838385"><ele>564.0</ele><time>2026-04-19T10:21:55.356Z</time></trkpt><trkpt lat="40.531573" lon="15.9837161"><ele>564.0</ele><time>2026-04-19T10:21:56.356Z</time></trkpt><trkpt lat="40.5313037" lon="15.9836289"><ele>555.0</ele><time>2026-04-19T10:21:57.356Z</time></trkpt><trkpt lat="40.5310264" lon="15.9835366"><ele>546.0</ele><time>2026-04-19T10:21:58.356Z</time></trkpt><trkpt lat="40.5307308" lon="15.9834611"><ele>546.0</ele><time>2026-04-19T10:21:59.356Z</time></trkpt><trkpt lat="40.5304192" lon="15.983387"><ele>546.0</ele><time>2026-04-19T10:22:00.356Z</time></trkpt><trkpt lat="40.5301244" lon="15.9833014"><ele>539.0</ele><time>2026-04-19T10:22:01.356Z</time></trkpt><trkpt lat="40.5298528" lon="15.9832278"><ele>532.0</ele><time>2026-04-19T10:22:02.356Z</time></trkpt><trkpt lat="40.5295957" lon="15.9831585"><ele>532.5</ele><time>2026-04-19T10:22:03.356Z</time></trkpt><trkpt lat="40.5293241" lon="15.9830909"><ele>533.0</ele><time>2026-04-19T10:22:04.356Z</time></trkpt><trkpt lat="40.5290232" lon="15.9830065"><ele>544.0</ele><time>2026-04-19T10:22:05.356Z</time></trkpt><trkpt lat="40.5287087" lon="15.982931"><ele>555.0</ele><time>2026-04-19T10:22:06.356Z</time></trkpt><trkpt lat="40.5283907" lon="15.9828577"><ele>555.0</ele><time>2026-04-19T10:22:07.356Z</time></trkpt><trkpt lat="40.528107" lon="15.9827805"><ele>555.0</ele><time>2026-04-19T10:22:08.356Z</time></trkpt><trkpt lat="40.5278448" lon="15.982711"><ele>555.0</ele><time>2026-04-19T10:22:09.356Z</time></trkpt><trkpt lat="40.5276028" lon="15.9826511"><ele>555.0</ele><time>2026-04-19T10:22:10.356Z</time></trkpt><trkpt lat="40.5273779" lon="15.9825947"><ele>555.0</ele><time>2026-04-19T10:22:11.356Z</time></trkpt><trkpt lat="40.5271727" lon="15.9825213"><ele>555.0</ele><time>2026-04-19T10:22:12.356Z</time></trkpt><trkpt lat="40.5269686" lon="15.9823954"><ele>555.0</ele><time>2026-04-19T10:22:13.356Z</time></trkpt><trkpt lat="40.5267588" lon="15.982226"><ele>555.5</ele><time>2026-04-19T10:22:14.356Z</time></trkpt><trkpt lat="40.5265684" lon="15.9820211"><ele>556.0</ele><time>2026-04-19T10:22:15.356Z</time></trkpt><trkpt lat="40.526411" lon="15.9818136"><ele>555.0</ele><time>2026-04-19T10:22:16.356Z</time></trkpt><trkpt lat="40.5262683" lon="15.9815789"><ele>554.0</ele><time>2026-04-19T10:22:17.356Z</time></trkpt><trkpt lat="40.5261452" lon="15.9812976"><ele>554.0</ele><time>2026-04-19T10:22:18.356Z</time></trkpt><trkpt lat="40.5260231" lon="15.9809841"><ele>554.0</ele><time>2026-04-19T10:22:19.356Z</time></trkpt><trkpt lat="40.5258831" lon="15.9806383"><ele>557.0</ele><time>2026-04-19T10:22:20.356Z</time></trkpt><trkpt lat="40.5257312" lon="15.9802602"><ele>560.0</ele><time>2026-04-19T10:22:21.356Z</time></trkpt><trkpt lat="40.5255836" lon="15.9798855"><ele>560.0</ele><time>2026-04-19T10:22:22.356Z</time></trkpt><trkpt lat="40.5254442" lon="15.9795412"><ele>560.0</ele><time>2026-04-19T10:22:23.356Z</time></trkpt><trkpt lat="40.5253092" lon="15.9791999"><ele>565.5</ele><time>2026-04-19T10:22:24.356Z</time></trkpt><trkpt lat="40.5251645" lon="15.9788241"><ele>571.0</ele><time>2026-04-19T10:22:25.356Z</time></trkpt><trkpt lat="40.5250121" lon="15.9784501"><ele>571.0</ele><time>2026-04-19T10:22:26.356Z</time></trkpt><trkpt lat="40.5248759" lon="15.978115"><ele>571.0</ele><time>2026-04-19T10:22:27.356Z</time></trkpt><trkpt lat="40.5247565" lon="15.9778144"><ele>571.0</ele><time>2026-04-19T10:22:28.356Z</time></trkpt><trkpt lat="40.5246553" lon="15.9775574"><ele>571.0</ele><time>2026-04-19T10:22:29.356Z</time></trkpt><trkpt lat="40.5245628" lon="15.9773239"><ele>571.0</ele><time>2026-04-19T10:22:30.356Z</time></trkpt><trkpt lat="40.5244696" lon="15.9771197"><ele>572.6666666666667</ele><time>2026-04-19T10:22:31.356Z</time></trkpt><trkpt lat="40.5243473" lon="15.9769275"><ele>574.3333333333334</ele><time>2026-04-19T10:22:32.356Z</time></trkpt><trkpt lat="40.524196" lon="15.9767318"><ele>576.0</ele><time>2026-04-19T10:22:33.356Z</time></trkpt><trkpt lat="40.5240251" lon="15.9765459"><ele>574.6666666666666</ele><time>2026-04-19T10:22:34.355Z</time></trkpt><trkpt lat="40.5238466" lon="15.9763866"><ele>573.3333333333333</ele><time>2026-04-19T10:22:35.355Z</time></trkpt><trkpt lat="40.5236913" lon="15.9762257"><ele>572.0</ele><time>2026-04-19T10:22:36.355Z</time></trkpt><trkpt lat="40.5235613" lon="15.9760302"><ele>576.5</ele><time>2026-04-19T10:22:37.355Z</time></trkpt><trkpt lat="40.5234241" lon="15.9757825"><ele>581.0</ele><time>2026-04-19T10:22:38.355Z</time></trkpt><trkpt lat="40.5232874" lon="15.9754964"><ele>581.0</ele><time>2026-04-19T10:22:39.355Z</time></trkpt><trkpt lat="40.5231399" lon="15.9751881"><ele>581.0</ele><time>2026-04-19T10:22:40.355Z</time></trkpt><trkpt lat="40.5229836" lon="15.9748864"><ele>578.0</ele><time>2026-04-19T10:22:41.355Z</time></trkpt><trkpt lat="40.5228371" lon="15.9746143"><ele>575.0</ele><time>2026-04-19T10:22:42.355Z</time></trkpt><trkpt lat="40.5226999" lon="15.9743768"><ele>585.0</ele><time>2026-04-19T10:22:43.355Z</time></trkpt><trkpt lat="40.5225342" lon="15.9741659"><ele>595.0</ele><time>2026-04-19T10:22:44.354Z</time></trkpt><trkpt lat="40.5223444" lon="15.9739853"><ele>595.0</ele><time>2026-04-19T10:22:45.355Z</time></trkpt><trkpt lat="40.5221609" lon="15.9738319"><ele>595.0</ele><time>2026-04-19T10:22:46.355Z</time></trkpt><trkpt lat="40.5220098" lon="15.9736769"><ele>595.0</ele><time>2026-04-19T10:22:47.355Z</time></trkpt><trkpt lat="40.5218711" lon="15.9734784"><ele>595.5</ele><time>2026-04-19T10:22:48.355Z</time></trkpt><trkpt lat="40.5217347" lon="15.9732307"><ele>596.0</ele><time>2026-04-19T10:22:49.355Z</time></trkpt><trkpt lat="40.5216219" lon="15.9729422"><ele>596.0</ele><time>2026-04-19T10:22:50.355Z</time></trkpt><trkpt lat="40.5215049" lon="15.9726223"><ele>596.0</ele><time>2026-04-19T10:22:51.355Z</time></trkpt><trkpt lat="40.5213906" lon="15.9723239"><ele>594.0</ele><time>2026-04-19T10:22:52.355Z</time></trkpt><trkpt lat="40.5212644" lon="15.9720754"><ele>592.0</ele><time>2026-04-19T10:22:53.355Z</time></trkpt><trkpt lat="40.52111" lon="15.9718444"><ele>602.0</ele><time>2026-04-19T10:22:54.355Z</time></trkpt><trkpt lat="40.5209282" lon="15.9716222"><ele>612.0</ele><time>2026-04-19T10:22:55.355Z</time></trkpt><trkpt lat="40.5207056" lon="15.971398"><ele>612.0</ele><time>2026-04-19T10:22:56.355Z</time></trkpt><trkpt lat="40.5204635" lon="15.9711511"><ele>612.0</ele><time>2026-04-19T10:22:57.355Z</time></trkpt><trkpt lat="40.5202173" lon="15.9709031"><ele>633.0</ele><time>2026-04-19T10:22:58.355Z</time></trkpt><trkpt lat="40.5197688" lon="15.9704451"><ele>633.0</ele><time>2026-04-19T10:23:00.355Z</time></trkpt><trkpt lat="40.519597" lon="15.970232"><ele>633.0</ele><time>2026-04-19T10:23:01.355Z</time></trkpt><trkpt lat="40.5194399" lon="15.9701198"><ele>633.0</ele><time>2026-04-19T10:23:02.355Z</time></trkpt><trkpt lat="40.5192643" lon="15.9699999"><ele>628.0</ele><time>2026-04-19T10:23:03.355Z</time></trkpt><trkpt lat="40.5190897" lon="15.9699046"><ele>623.0</ele><time>2026-04-19T10:23:04.355Z</time></trkpt><trkpt lat="40.5189156" lon="15.9698362"><ele>618.0</ele><time>2026-04-19T10:23:05.355Z</time></trkpt><trkpt lat="40.5187554" lon="15.9698102"><ele>618.0</ele><time>2026-04-19T10:23:06.355Z</time></trkpt><trkpt lat="40.5186127" lon="15.9698193"><ele>618.0</ele><time>2026-04-19T10:23:07.355Z</time></trkpt><trkpt lat="40.5184729" lon="15.9698476"><ele>618.0</ele><time>2026-04-19T10:23:08.355Z</time></trkpt><trkpt lat="40.5183424" lon="15.9698877"><ele>618.0</ele><time>2026-04-19T10:23:09.355Z</time></trkpt><trkpt lat="40.5182257" lon="15.9699038"><ele>618.0</ele><time>2026-04-19T10:23:10.355Z</time></trkpt><trkpt lat="40.5181214" lon="15.9699061"><ele>618.0</ele><time>2026-04-19T10:23:11.355Z</time></trkpt><trkpt lat="40.5180105" lon="15.9699049"><ele>618.0</ele><time>2026-04-19T10:23:12.355Z</time></trkpt><trkpt lat="40.5179056" lon="15.9698684"><ele>618.0</ele><time>2026-04-19T10:23:13.355Z</time></trkpt><trkpt lat="40.517818" lon="15.9698118"><ele>618.0</ele><time>2026-04-19T10:23:14.355Z</time></trkpt><trkpt lat="40.5177323" lon="15.9697405"><ele>619.75</ele><time>2026-04-19T10:23:15.355Z</time></trkpt><trkpt lat="40.517634" lon="15.9696477"><ele>621.5</ele><time>2026-04-19T10:23:16.355Z</time></trkpt><trkpt lat="40.5175354" lon="15.9695501"><ele>623.25</ele><time>2026-04-19T10:23:17.355Z</time></trkpt><trkpt lat="40.5174609" lon="15.9694559"><ele>625.0</ele><time>2026-04-19T10:23:18.355Z</time></trkpt><trkpt lat="40.51739" lon="15.9693506"><ele>625.0</ele><time>2026-04-19T10:23:19.355Z</time></trkpt><trkpt lat="40.5173134" lon="15.9692287"><ele>625.0</ele><time>2026-04-19T10:23:20.355Z</time></trkpt><trkpt lat="40.5172342" lon="15.9691061"><ele>625.0</ele><time>2026-04-19T10:23:21.355Z</time></trkpt><trkpt lat="40.5171402" lon="15.9689877"><ele>625.0</ele><time>2026-04-19T10:23:22.355Z</time></trkpt><trkpt lat="40.5170343" lon="15.9688613"><ele>624.0</ele><time>2026-04-19T10:23:23.355Z</time></trkpt><trkpt lat="40.5169301" lon="15.9687335"><ele>623.0</ele><time>2026-04-19T10:23:24.355Z</time></trkpt><trkpt lat="40.5168261" lon="15.9686211"><ele>622.0</ele><time>2026-04-19T10:23:25.355Z</time></trkpt><trkpt lat="40.5167173" lon="15.9685257"><ele>621.0</ele><time>2026-04-19T10:23:26.355Z</time></trkpt><trkpt lat="40.5165962" lon="15.9684413"><ele>621.0</ele><time>2026-04-19T10:23:27.355Z</time></trkpt><trkpt lat="40.5164691" lon="15.9683813"><ele>621.0</ele><time>2026-04-19T10:23:28.355Z</time></trkpt><trkpt lat="40.5163554" lon="15.968337"><ele>621.0</ele><time>2026-04-19T10:23:29.355Z</time></trkpt><trkpt lat="40.5162472" lon="15.9683072"><ele>621.0</ele><time>2026-04-19T10:23:30.355Z</time></trkpt><trkpt lat="40.5161218" lon="15.9682776"><ele>625.5</ele><time>2026-04-19T10:23:31.355Z</time></trkpt><trkpt lat="40.515983" lon="15.9682396"><ele>630.0</ele><time>2026-04-19T10:23:32.355Z</time></trkpt><trkpt lat="40.5158456" lon="15.9682032"><ele>634.5</ele><time>2026-04-19T10:23:33.355Z</time></trkpt><trkpt lat="40.5156968" lon="15.9681599"><ele>639.0</ele><time>2026-04-19T10:23:34.355Z</time></trkpt><trkpt lat="40.515551" lon="15.9680845"><ele>639.0</ele><time>2026-04-19T10:23:35.355Z</time></trkpt><trkpt lat="40.5154226" lon="15.9679815"><ele>639.0</ele><time>2026-04-19T10:23:36.355Z</time></trkpt><trkpt lat="40.5153073" lon="15.9678399"><ele>639.0</ele><time>2026-04-19T10:23:37.355Z</time></trkpt><trkpt lat="40.5151926" lon="15.9676683"><ele>641.6666666666666</ele><time>2026-04-19T10:23:38.355Z</time></trkpt><trkpt lat="40.515081" lon="15.967457"><ele>644.3333333333333</ele><time>2026-04-19T10:23:39.355Z</time></trkpt><trkpt lat="40.5149539" lon="15.9672017"><ele>647.0</ele><time>2026-04-19T10:23:40.355Z</time></trkpt><trkpt lat="40.5148344" lon="15.9669183"><ele>646.6666666666666</ele><time>2026-04-19T10:23:41.355Z</time></trkpt><trkpt lat="40.5147145" lon="15.9666747"><ele>646.3333333333334</ele><time>2026-04-19T10:23:42.355Z</time></trkpt><trkpt lat="40.5146122" lon="15.9664373"><ele>646.0</ele><time>2026-04-19T10:23:43.355Z</time></trkpt><trkpt lat="40.5145132" lon="15.9662306"><ele>646.0</ele><time>2026-04-19T10:23:44.355Z</time></trkpt><trkpt lat="40.5144056" lon="15.9660522"><ele>646.0</ele><time>2026-04-19T10:23:45.355Z</time></trkpt><trkpt lat="40.5142775" lon="15.9658953"><ele>646.0</ele><time>2026-04-19T10:23:46.355Z</time></trkpt><trkpt lat="40.514126" lon="15.9657479"><ele>647.6666666666667</ele><time>2026-04-19T10:23:47.354Z</time></trkpt><trkpt lat="40.5139645" lon="15.9656335"><ele>649.3333333333334</ele><time>2026-04-19T10:23:48.355Z</time></trkpt><trkpt lat="40.5138012" lon="15.9655409"><ele>651.0</ele><time>2026-04-19T10:23:49.355Z</time></trkpt><trkpt lat="40.5136061" lon="15.9654773"><ele>651.0</ele><time>2026-04-19T10:23:50.355Z</time></trkpt><trkpt lat="40.5133794" lon="15.9654794"><ele>651.0</ele><time>2026-04-19T10:23:51.355Z</time></trkpt><trkpt lat="40.5131626" lon="15.9654617"><ele>651.0</ele><time>2026-04-19T10:23:52.355Z</time></trkpt><trkpt lat="40.5129722" lon="15.965435"><ele>653.0</ele><time>2026-04-19T10:23:53.355Z</time></trkpt><trkpt lat="40.5127897" lon="15.9654496"><ele>655.0</ele><time>2026-04-19T10:23:54.355Z</time></trkpt><trkpt lat="40.5126216" lon="15.9654976"><ele>657.0</ele><time>2026-04-19T10:23:55.355Z</time></trkpt><trkpt lat="40.5124619" lon="15.9655845"><ele>657.0</ele><time>2026-04-19T10:23:56.355Z</time></trkpt><trkpt lat="40.5123038" lon="15.96567"><ele>657.0</ele><time>2026-04-19T10:23:57.355Z</time></trkpt><trkpt lat="40.5121495" lon="15.9657411"><ele>657.0</ele><time>2026-04-19T10:23:58.355Z</time></trkpt><trkpt lat="40.5120189" lon="15.965827"><ele>658.0</ele><time>2026-04-19T10:23:59.355Z</time></trkpt><trkpt lat="40.5119079" lon="15.9659473"><ele>659.0</ele><time>2026-04-19T10:24:00.355Z</time></trkpt><trkpt lat="40.5118068" lon="15.9661285"><ele>660.0</ele><time>2026-04-19T10:24:01.355Z</time></trkpt><trkpt lat="40.5117008" lon="15.9663327"><ele>660.0</ele><time>2026-04-19T10:24:02.355Z</time></trkpt><trkpt lat="40.5115633" lon="15.966498"><ele>660.0</ele><time>2026-04-19T10:24:03.355Z</time></trkpt><trkpt lat="40.5114337" lon="15.9666514"><ele>660.0</ele><time>2026-04-19T10:24:04.355Z</time></trkpt><trkpt lat="40.5113142" lon="15.9667922"><ele>658.0</ele><time>2026-04-19T10:24:05.355Z</time></trkpt><trkpt lat="40.5112021" lon="15.9668971"><ele>656.0</ele><time>2026-04-19T10:24:06.355Z</time></trkpt><trkpt lat="40.5111093" lon="15.9669874"><ele>654.0</ele><time>2026-04-19T10:24:07.355Z</time></trkpt><trkpt lat="40.5110143" lon="15.9670228"><ele>652.0</ele><time>2026-04-19T10:24:08.355Z</time></trkpt><trkpt lat="40.5109031" lon="15.9669802"><ele>652.0</ele><time>2026-04-19T10:24:09.355Z</time></trkpt><trkpt lat="40.5108082" lon="15.9669104"><ele>652.0</ele><time>2026-04-19T10:24:10.355Z</time></trkpt><trkpt lat="40.5106939" lon="15.9668179"><ele>652.0</ele><time>2026-04-19T10:24:11.355Z</time></trkpt><trkpt lat="40.510559" lon="15.9667682"><ele>652.0</ele><time>2026-04-19T10:24:12.355Z</time></trkpt><trkpt lat="40.5104004" lon="15.966736"><ele>660.6666666666667</ele><time>2026-04-19T10:24:13.355Z</time></trkpt><trkpt lat="40.5102309" lon="15.9666934"><ele>669.3333333333334</ele><time>2026-04-19T10:24:14.355Z</time></trkpt><trkpt lat="40.5100737" lon="15.9666273"><ele>678.0</ele><time>2026-04-19T10:24:15.355Z</time></trkpt><trkpt lat="40.5099276" lon="15.9665687"><ele>678.0</ele><time>2026-04-19T10:24:16.355Z</time></trkpt><trkpt lat="40.5097806" lon="15.966525"><ele>678.0</ele><time>2026-04-19T10:24:17.355Z</time></trkpt><trkpt lat="40.5096321" lon="15.9665551"><ele>678.0</ele><time>2026-04-19T10:24:18.355Z</time></trkpt><trkpt lat="40.5095018" lon="15.9666006"><ele>678.0</ele><time>2026-04-19T10:24:19.355Z</time></trkpt><trkpt lat="40.5094069" lon="15.966604"><ele>675.5999999999999</ele><time>2026-04-19T10:24:20.355Z</time></trkpt><trkpt lat="40.5093158" lon="15.9665278"><ele>673.1999999999999</ele><time>2026-04-19T10:24:21.355Z</time></trkpt><trkpt lat="40.5092455" lon="15.9664149"><ele>670.8</ele><time>2026-04-19T10:24:22.355Z</time></trkpt><trkpt lat="40.5092043" lon="15.9662901"><ele>668.4</ele><time>2026-04-19T10:24:23.355Z</time></trkpt><trkpt lat="40.5091943" lon="15.9661727"><ele>666.0</ele><time>2026-04-19T10:24:24.355Z</time></trkpt><trkpt lat="40.5092243" lon="15.9660353"><ele>666.0</ele><time>2026-04-19T10:24:25.355Z</time></trkpt><trkpt lat="40.5092758" lon="15.965909"><ele>666.0</ele><time>2026-04-19T10:24:26.355Z</time></trkpt><trkpt lat="40.5092916" lon="15.965789"><ele>666.0</ele><time>2026-04-19T10:24:27.355Z</time></trkpt><trkpt lat="40.5092401" lon="15.9656428"><ele>666.0</ele><time>2026-04-19T10:24:28.355Z</time></trkpt><trkpt lat="40.5091557" lon="15.9654664"><ele>668.75</ele><time>2026-04-19T10:24:29.355Z</time></trkpt><trkpt lat="40.5090712" lon="15.9652878"><ele>671.5</ele><time>2026-04-19T10:24:30.355Z</time></trkpt><trkpt lat="40.5089954" lon="15.9651391"><ele>674.25</ele><time>2026-04-19T10:24:31.355Z</time></trkpt><trkpt lat="40.508918" lon="15.9650283"><ele>677.0</ele><time>2026-04-19T10:24:32.355Z</time></trkpt><trkpt lat="40.5088218" lon="15.9649382"><ele>676.25</ele><time>2026-04-19T10:24:33.355Z</time></trkpt><trkpt lat="40.5086998" lon="15.9648628"><ele>675.5</ele><time>2026-04-19T10:24:34.355Z</time></trkpt><trkpt lat="40.5085764" lon="15.9648065"><ele>674.75</ele><time>2026-04-19T10:24:35.355Z</time></trkpt><trkpt lat="40.5084676" lon="15.9647406"><ele>674.0</ele><time>2026-04-19T10:24:36.355Z</time></trkpt><trkpt lat="40.5083805" lon="15.9646324"><ele>674.0</ele><time>2026-04-19T10:24:37.355Z</time></trkpt><trkpt lat="40.5083101" lon="15.9645058"><ele>674.0</ele><time>2026-04-19T10:24:38.355Z</time></trkpt><trkpt lat="40.5082608" lon="15.9643667"><ele>674.0</ele><time>2026-04-19T10:24:39.355Z</time></trkpt><trkpt lat="40.5082353" lon="15.9642232"><ele>674.0</ele><time>2026-04-19T10:24:40.355Z</time></trkpt><trkpt lat="40.5082214" lon="15.9640606"><ele>675.5</ele><time>2026-04-19T10:24:41.355Z</time></trkpt><trkpt lat="40.5082008" lon="15.9639316"><ele>677.0</ele><time>2026-04-19T10:24:42.355Z</time></trkpt><trkpt lat="40.5081333" lon="15.9638525"><ele>678.5</ele><time>2026-04-19T10:24:43.355Z</time></trkpt><trkpt lat="40.5079991" lon="15.9637829"><ele>680.0</ele><time>2026-04-19T10:24:44.355Z</time></trkpt><trkpt lat="40.5078442" lon="15.9637303"><ele>680.0</ele><time>2026-04-19T10:24:45.355Z</time></trkpt><trkpt lat="40.5076459" lon="15.963686"><ele>680.0</ele><time>2026-04-19T10:24:46.355Z</time></trkpt><trkpt lat="40.5074625" lon="15.9636422"><ele>680.0</ele><time>2026-04-19T10:24:47.355Z</time></trkpt><trkpt lat="40.5073211" lon="15.9635913"><ele>680.0</ele><time>2026-04-19T10:24:48.355Z</time></trkpt><trkpt lat="40.5072181" lon="15.9635673"><ele>680.0</ele><time>2026-04-19T10:24:49.355Z</time></trkpt><trkpt lat="40.5071107" lon="15.9635915"><ele>680.0</ele><time>2026-04-19T10:24:50.355Z</time></trkpt><trkpt lat="40.5069837" lon="15.9636688"><ele>680.0</ele><time>2026-04-19T10:24:51.355Z</time></trkpt><trkpt lat="40.5068352" lon="15.9638106"><ele>677.0</ele><time>2026-04-19T10:24:52.355Z</time></trkpt><trkpt lat="40.5067057" lon="15.9639354"><ele>674.0</ele><time>2026-04-19T10:24:53.355Z</time></trkpt><trkpt lat="40.5066196" lon="15.964063"><ele>671.0</ele><time>2026-04-19T10:24:54.355Z</time></trkpt><trkpt lat="40.5065294" lon="15.9642528"><ele>671.0</ele><time>2026-04-19T10:24:55.355Z</time></trkpt><trkpt lat="40.5064307" lon="15.9644681"><ele>671.0</ele><time>2026-04-19T10:24:56.355Z</time></trkpt><trkpt lat="40.5063272" lon="15.9646758"><ele>671.0</ele><time>2026-04-19T10:24:57.355Z</time></trkpt><trkpt lat="40.5062369" lon="15.9649004"><ele>673.0</ele><time>2026-04-19T10:24:58.355Z</time></trkpt><trkpt lat="40.5061938" lon="15.9650995"><ele>675.0</ele><time>2026-04-19T10:24:59.355Z</time></trkpt><trkpt lat="40.5061501" lon="15.9652464"><ele>677.0</ele><time>2026-04-19T10:25:00.355Z</time></trkpt><trkpt lat="40.5060867" lon="15.965342"><ele>679.0</ele><time>2026-04-19T10:25:01.355Z</time></trkpt><trkpt lat="40.506004" lon="15.965416"><ele>679.0</ele><time>2026-04-19T10:25:02.355Z</time></trkpt><trkpt lat="40.505874" lon="15.965458"><ele>679.0</ele><time>2026-04-19T10:25:03.355Z</time></trkpt><trkpt lat="40.5057358" lon="15.9655006"><ele>679.0</ele><time>2026-04-19T10:25:04.355Z</time></trkpt><trkpt lat="40.505613" lon="15.9655653"><ele>679.0</ele><time>2026-04-19T10:25:05.355Z</time></trkpt><trkpt lat="40.5055179" lon="15.9656163"><ele>679.0</ele><time>2026-04-19T10:25:06.355Z</time></trkpt><trkpt lat="40.5054517" lon="15.9656399"><ele>679.0</ele><time>2026-04-19T10:25:07.355Z</time></trkpt><trkpt lat="40.50538" lon="15.9656303"><ele>679.0</ele><time>2026-04-19T10:25:08.355Z</time></trkpt><trkpt lat="40.5053227" lon="15.9655541"><ele>679.0</ele><time>2026-04-19T10:25:09.355Z</time></trkpt><trkpt lat="40.5052687" lon="15.9654393"><ele>679.0</ele><time>2026-04-19T10:25:10.354Z</time></trkpt><trkpt lat="40.5052251" lon="15.965283"><ele>678.4000000000001</ele><time>2026-04-19T10:25:11.355Z</time></trkpt><trkpt lat="40.5051812" lon="15.9651509"><ele>677.8</ele><time>2026-04-19T10:25:12.355Z</time></trkpt><trkpt lat="40.5051156" lon="15.9650872"><ele>677.2</ele><time>2026-04-19T10:25:13.355Z</time></trkpt><trkpt lat="40.505015" lon="15.9650253"><ele>676.5999999999999</ele><time>2026-04-19T10:25:14.355Z</time></trkpt><trkpt lat="40.5049222" lon="15.9649716"><ele>676.0</ele><time>2026-04-19T10:25:15.355Z</time></trkpt><trkpt lat="40.5048756" lon="15.9648826"><ele>679.8</ele><time>2026-04-19T10:25:16.355Z</time></trkpt><trkpt lat="40.5048602" lon="15.9647526"><ele>683.5999999999999</ele><time>2026-04-19T10:25:17.355Z</time></trkpt><trkpt lat="40.5048715" lon="15.964612"><ele>687.4</ele><time>2026-04-19T10:25:18.355Z</time></trkpt><trkpt lat="40.5048599" lon="15.9644711"><ele>691.2</ele><time>2026-04-19T10:25:19.355Z</time></trkpt><trkpt lat="40.5048061" lon="15.9643666"><ele>695.0</ele><time>2026-04-19T10:25:20.355Z</time></trkpt><trkpt lat="40.5047086" lon="15.9642708"><ele>695.5</ele><time>2026-04-19T10:25:21.355Z</time></trkpt><trkpt lat="40.5045768" lon="15.9641675"><ele>696.0</ele><time>2026-04-19T10:25:22.355Z</time></trkpt><trkpt lat="40.50446" lon="15.964071"><ele>696.5</ele><time>2026-04-19T10:25:23.355Z</time></trkpt><trkpt lat="40.5043739" lon="15.9639648"><ele>697.0</ele><time>2026-04-19T10:25:24.355Z</time></trkpt><trkpt lat="40.5042995" lon="15.9638635"><ele>697.0</ele><time>2026-04-19T10:25:25.355Z</time></trkpt><trkpt lat="40.504211" lon="15.9637839"><ele>697.0</ele><time>2026-04-19T10:25:26.355Z</time></trkpt><trkpt lat="40.504107" lon="15.9637521"><ele>697.0</ele><time>2026-04-19T10:25:27.355Z</time></trkpt><trkpt lat="40.5039758" lon="15.9637563"><ele>697.0</ele><time>2026-04-19T10:25:28.355Z</time></trkpt><trkpt lat="40.5038086" lon="15.9638188"><ele>694.75</ele><time>2026-04-19T10:25:29.355Z</time></trkpt><trkpt lat="40.503663" lon="15.9638756"><ele>692.5</ele><time>2026-04-19T10:25:30.355Z</time></trkpt><trkpt lat="40.5035372" lon="15.9638814"><ele>690.25</ele><time>2026-04-19T10:25:31.355Z</time></trkpt><trkpt lat="40.503394" lon="15.9638417"><ele>688.0</ele><time>2026-04-19T10:25:32.355Z</time></trkpt><trkpt lat="40.5032403" lon="15.9637767"><ele>688.0</ele><time>2026-04-19T10:25:33.355Z</time></trkpt><trkpt lat="40.5030976" lon="15.9637953"><ele>688.0</ele><time>2026-04-19T10:25:34.355Z</time></trkpt><trkpt lat="40.5029763" lon="15.963818"><ele>688.0</ele><time>2026-04-19T10:25:35.355Z</time></trkpt><trkpt lat="40.5028745" lon="15.9638171"><ele>688.0</ele><time>2026-04-19T10:25:36.355Z</time></trkpt><trkpt lat="40.5027882" lon="15.9637752"><ele>687.75</ele><time>2026-04-19T10:25:37.355Z</time></trkpt><trkpt lat="40.5027278" lon="15.9636628"><ele>687.5</ele><time>2026-04-19T10:25:38.355Z</time></trkpt><trkpt lat="40.5026629" lon="15.9635156"><ele>687.25</ele><time>2026-04-19T10:25:39.355Z</time></trkpt><trkpt lat="40.5025904" lon="15.9633652"><ele>687.0</ele><time>2026-04-19T10:25:40.355Z</time></trkpt><trkpt lat="40.5025163" lon="15.9632701"><ele>687.0</ele><time>2026-04-19T10:25:41.355Z</time></trkpt><trkpt lat="40.5024592" lon="15.9632245"><ele>687.0</ele><time>2026-04-19T10:25:42.355Z</time></trkpt><trkpt lat="40.5023824" lon="15.96324"><ele>687.0</ele><time>2026-04-19T10:25:43.355Z</time></trkpt><trkpt lat="40.5022858" lon="15.9633194"><ele>687.0</ele><time>2026-04-19T10:25:44.355Z</time></trkpt><trkpt lat="40.5021942" lon="15.9634358"><ele>687.0</ele><time>2026-04-19T10:25:45.355Z</time></trkpt><trkpt lat="40.5021187" lon="15.9635637"><ele>684.8</ele><time>2026-04-19T10:25:46.355Z</time></trkpt><trkpt lat="40.5020471" lon="15.9636241"><ele>682.6</ele><time>2026-04-19T10:25:47.355Z</time></trkpt><trkpt lat="40.5019657" lon="15.9636219"><ele>680.4</ele><time>2026-04-19T10:25:48.355Z</time></trkpt><trkpt lat="40.5018857" lon="15.9635386"><ele>678.1999999999999</ele><time>2026-04-19T10:25:49.355Z</time></trkpt><trkpt lat="40.5017984" lon="15.9634118"><ele>676.0</ele><time>2026-04-19T10:25:50.355Z</time></trkpt><trkpt lat="40.501702" lon="15.9633021"><ele>683.25</ele><time>2026-04-19T10:25:51.355Z</time></trkpt><trkpt lat="40.5015886" lon="15.9632281"><ele>690.5</ele><time>2026-04-19T10:25:52.355Z</time></trkpt><trkpt lat="40.5014531" lon="15.9632025"><ele>697.75</ele><time>2026-04-19T10:25:53.355Z</time></trkpt><trkpt lat="40.5013078" lon="15.9632059"><ele>705.0</ele><time>2026-04-19T10:25:54.355Z</time></trkpt><trkpt lat="40.5011393" lon="15.9633308"><ele>695.0</ele><time>2026-04-19T10:25:55.354Z</time></trkpt><trkpt lat="40.5009802" lon="15.9634834"><ele>685.0</ele><time>2026-04-19T10:25:56.354Z</time></trkpt><trkpt lat="40.5008426" lon="15.963619"><ele>675.0</ele><time>2026-04-19T10:25:57.354Z</time></trkpt><trkpt lat="40.5007134" lon="15.9637085"><ele>675.0</ele><time>2026-04-19T10:25:58.354Z</time></trkpt><trkpt lat="40.5005558" lon="15.9637807"><ele>675.0</ele><time>2026-04-19T10:25:59.354Z</time></trkpt><trkpt lat="40.5003538" lon="15.9638239"><ele>675.0</ele><time>2026-04-19T10:26:00.354Z</time></trkpt><trkpt lat="40.5001603" lon="15.9638893"><ele>678.6666666666666</ele><time>2026-04-19T10:26:01.354Z</time></trkpt><trkpt lat="40.4999972" lon="15.9639654"><ele>682.3333333333333</ele><time>2026-04-19T10:26:02.354Z</time></trkpt><trkpt lat="40.4998523" lon="15.9640409"><ele>686.0</ele><time>2026-04-19T10:26:03.354Z</time></trkpt><trkpt lat="40.499698" lon="15.9640766"><ele>685.3333333333333</ele><time>2026-04-19T10:26:04.354Z</time></trkpt><trkpt lat="40.4995255" lon="15.9640384"><ele>684.6666666666666</ele><time>2026-04-19T10:26:05.354Z</time></trkpt><trkpt lat="40.4993213" lon="15.9640167"><ele>684.0</ele><time>2026-04-19T10:26:06.354Z</time></trkpt><trkpt lat="40.499124" lon="15.9640121"><ele>684.0</ele><time>2026-04-19T10:26:07.354Z</time></trkpt><trkpt lat="40.4989533" lon="15.9640318"><ele>684.0</ele><time>2026-04-19T10:26:08.354Z</time></trkpt><trkpt lat="40.4988304" lon="15.9640621"><ele>684.0</ele><time>2026-04-19T10:26:09.354Z</time></trkpt><trkpt lat="40.4987162" lon="15.9640565"><ele>684.0</ele><time>2026-04-19T10:26:10.354Z</time></trkpt><trkpt lat="40.4986037" lon="15.9639937"><ele>685.25</ele><time>2026-04-19T10:26:11.354Z</time></trkpt><trkpt lat="40.4985024" lon="15.9638583"><ele>686.5</ele><time>2026-04-19T10:26:12.354Z</time></trkpt><trkpt lat="40.4983975" lon="15.9637342"><ele>687.75</ele><time>2026-04-19T10:26:13.354Z</time></trkpt><trkpt lat="40.4983185" lon="15.9635551"><ele>689.0</ele><time>2026-04-19T10:26:14.354Z</time></trkpt><trkpt lat="40.4982332" lon="15.9633463"><ele>689.0</ele><time>2026-04-19T10:26:15.354Z</time></trkpt><trkpt lat="40.4981342" lon="15.9631389"><ele>689.0</ele><time>2026-04-19T10:26:16.354Z</time></trkpt><trkpt lat="40.4980526" lon="15.962977"><ele>689.0</ele><time>2026-04-19T10:26:17.354Z</time></trkpt><trkpt lat="40.4979348" lon="15.9628463"><ele>682.5</ele><time>2026-04-19T10:26:18.354Z</time></trkpt><trkpt lat="40.4978153" lon="15.9627321"><ele>676.0</ele><time>2026-04-19T10:26:19.354Z</time></trkpt><trkpt lat="40.4977376" lon="15.9626311"><ele>669.5</ele><time>2026-04-19T10:26:20.354Z</time></trkpt><trkpt lat="40.497704" lon="15.9625002"><ele>663.0</ele><time>2026-04-19T10:26:21.354Z</time></trkpt><trkpt lat="40.4977009" lon="15.9623366"><ele>663.0</ele><time>2026-04-19T10:26:22.354Z</time></trkpt><trkpt lat="40.49774" lon="15.9622037"><ele>663.0</ele><time>2026-04-19T10:26:23.354Z</time></trkpt><trkpt lat="40.4978142" lon="15.9620817"><ele>663.0</ele><time>2026-04-19T10:26:24.354Z</time></trkpt><trkpt lat="40.4979268" lon="15.9619439"><ele>663.0</ele><time>2026-04-19T10:26:25.354Z</time></trkpt><trkpt lat="40.4980625" lon="15.9617669"><ele>669.0</ele><time>2026-04-19T10:26:26.354Z</time></trkpt><trkpt lat="40.4981942" lon="15.9615745"><ele>675.0</ele><time>2026-04-19T10:26:27.354Z</time></trkpt><trkpt lat="40.4983" lon="15.9613926"><ele>681.0</ele><time>2026-04-19T10:26:28.354Z</time></trkpt><trkpt lat="40.4983921" lon="15.9612369"><ele>681.0</ele><time>2026-04-19T10:26:29.354Z</time></trkpt><trkpt lat="40.4984566" lon="15.961093"><ele>681.0</ele><time>2026-04-19T10:26:30.354Z</time></trkpt><trkpt lat="40.4984887" lon="15.9609602"><ele>681.0</ele><time>2026-04-19T10:26:31.354Z</time></trkpt><trkpt lat="40.4984778" lon="15.9607945"><ele>681.0</ele><time>2026-04-19T10:26:32.354Z</time></trkpt><trkpt lat="40.4984323" lon="15.9605859"><ele>680.3333333333334</ele><time>2026-04-19T10:26:33.354Z</time></trkpt><trkpt lat="40.4983639" lon="15.9603645"><ele>679.6666666666667</ele><time>2026-04-19T10:26:34.354Z</time></trkpt><trkpt lat="40.4982715" lon="15.9601629"><ele>679.0</ele><time>2026-04-19T10:26:35.354Z</time></trkpt><trkpt lat="40.4981602" lon="15.9599879"><ele>679.0</ele><time>2026-04-19T10:26:36.354Z</time></trkpt><trkpt lat="40.4980374" lon="15.9598393"><ele>679.0</ele><time>2026-04-19T10:26:37.354Z</time></trkpt><trkpt lat="40.4978896" lon="15.9597175"><ele>679.0</ele><time>2026-04-19T10:26:38.354Z</time></trkpt><trkpt lat="40.4977406" lon="15.9596356"><ele>674.6</ele><time>2026-04-19T10:26:39.354Z</time></trkpt><trkpt lat="40.4976183" lon="15.9595605"><ele>670.2</ele><time>2026-04-19T10:26:40.354Z</time></trkpt><trkpt lat="40.497553" lon="15.9594869"><ele>665.8000000000001</ele><time>2026-04-19T10:26:41.354Z</time></trkpt><trkpt lat="40.4975416" lon="15.9593942"><ele>661.4000000000001</ele><time>2026-04-19T10:26:42.354Z</time></trkpt><trkpt lat="40.4975522" lon="15.9592738"><ele>657.0</ele><time>2026-04-19T10:26:43.354Z</time></trkpt><trkpt lat="40.4976065" lon="15.9591195"><ele>657.0</ele><time>2026-04-19T10:26:44.354Z</time></trkpt><trkpt lat="40.4976667" lon="15.9589598"><ele>657.0</ele><time>2026-04-19T10:26:45.354Z</time></trkpt><trkpt lat="40.4976925" lon="15.9588042"><ele>657.0</ele><time>2026-04-19T10:26:46.354Z</time></trkpt><trkpt lat="40.4976867" lon="15.9586378"><ele>657.0</ele><time>2026-04-19T10:26:47.354Z</time></trkpt><trkpt lat="40.4976353" lon="15.9584805"><ele>657.6666666666666</ele><time>2026-04-19T10:26:48.354Z</time></trkpt><trkpt lat="40.4975514" lon="15.9583467"><ele>658.3333333333333</ele><time>2026-04-19T10:26:49.354Z</time></trkpt><trkpt lat="40.4974173" lon="15.9582045"><ele>659.0</ele><time>2026-04-19T10:26:50.354Z</time></trkpt><trkpt lat="40.4972681" lon="15.9580669"><ele>659.0</ele><time>2026-04-19T10:26:51.354Z</time></trkpt><trkpt lat="40.4971426" lon="15.9579439"><ele>659.0</ele><time>2026-04-19T10:26:52.354Z</time></trkpt><trkpt lat="40.4970355" lon="15.9578331"><ele>659.0</ele><time>2026-04-19T10:26:53.354Z</time></trkpt><trkpt lat="40.4969562" lon="15.9577285"><ele>659.0</ele><time>2026-04-19T10:26:54.354Z</time></trkpt><trkpt lat="40.4969241" lon="15.9575916"><ele>655.5</ele><time>2026-04-19T10:26:55.354Z</time></trkpt><trkpt lat="40.4969317" lon="15.9574312"><ele>652.0</ele><time>2026-04-19T10:26:56.353Z</time></trkpt><trkpt lat="40.4969603" lon="15.9572576"><ele>648.5</ele><time>2026-04-19T10:26:57.354Z</time></trkpt><trkpt lat="40.496967" lon="15.957085"><ele>645.0</ele><time>2026-04-19T10:26:58.354Z</time></trkpt><trkpt lat="40.4969182" lon="15.9569493"><ele>645.0</ele><time>2026-04-19T10:26:59.354Z</time></trkpt><trkpt lat="40.4968174" lon="15.9568362"><ele>645.0</ele><time>2026-04-19T10:27:00.354Z</time></trkpt><trkpt lat="40.4966716" lon="15.9567157"><ele>645.0</ele><time>2026-04-19T10:27:01.354Z</time></trkpt><trkpt lat="40.4965069" lon="15.9565792"><ele>647.25</ele><time>2026-04-19T10:27:02.354Z</time></trkpt><trkpt lat="40.496346" lon="15.956461"><ele>649.5</ele><time>2026-04-19T10:27:03.354Z</time></trkpt><trkpt lat="40.496222" lon="15.9563549"><ele>651.75</ele><time>2026-04-19T10:27:04.354Z</time></trkpt><trkpt lat="40.4961199" lon="15.9562827"><ele>654.0</ele><time>2026-04-19T10:27:05.354Z</time></trkpt><trkpt lat="40.4960608" lon="15.9562056"><ele>651.0</ele><time>2026-04-19T10:27:06.354Z</time></trkpt><trkpt lat="40.4960254" lon="15.9561252"><ele>648.0</ele><time>2026-04-19T10:27:07.354Z</time></trkpt><trkpt lat="40.4960251" lon="15.9560121"><ele>645.0</ele><time>2026-04-19T10:27:08.354Z</time></trkpt><trkpt lat="40.4960683" lon="15.9559081"><ele>642.0</ele><time>2026-04-19T10:27:09.354Z</time></trkpt><trkpt lat="40.4961467" lon="15.9557823"><ele>639.0</ele><time>2026-04-19T10:27:10.354Z</time></trkpt><trkpt lat="40.4962337" lon="15.9556723"><ele>643.5</ele><time>2026-04-19T10:27:11.354Z</time></trkpt><trkpt lat="40.4963454" lon="15.9555535"><ele>648.0</ele><time>2026-04-19T10:27:12.354Z</time></trkpt><trkpt lat="40.4964429" lon="15.9553932"><ele>652.5</ele><time>2026-04-19T10:27:13.354Z</time></trkpt><trkpt lat="40.4965081" lon="15.9552306"><ele>657.0</ele><time>2026-04-19T10:27:14.354Z</time></trkpt><trkpt lat="40.4965541" lon="15.955089"><ele>654.75</ele><time>2026-04-19T10:27:15.354Z</time></trkpt><trkpt lat="40.4965413" lon="15.954942"><ele>652.5</ele><time>2026-04-19T10:27:16.354Z</time></trkpt><trkpt lat="40.4965033" lon="15.9548368"><ele>650.25</ele><time>2026-04-19T10:27:17.354Z</time></trkpt><trkpt lat="40.4964268" lon="15.9547136"><ele>648.0</ele><time>2026-04-19T10:27:18.354Z</time></trkpt><trkpt lat="40.4963085" lon="15.9545758"><ele>644.0</ele><time>2026-04-19T10:27:19.354Z</time></trkpt><trkpt lat="40.4961829" lon="15.9544709"><ele>640.0</ele><time>2026-04-19T10:27:20.354Z</time></trkpt><trkpt lat="40.4960602" lon="15.9544017"><ele>636.0</ele><time>2026-04-19T10:27:21.354Z</time></trkpt><trkpt lat="40.4959058" lon="15.9543643"><ele>632.0</ele><time>2026-04-19T10:27:22.354Z</time></trkpt><trkpt lat="40.4957172" lon="15.9543369"><ele>632.0</ele><time>2026-04-19T10:27:23.354Z</time></trkpt><trkpt lat="40.4955168" lon="15.9543189"><ele>632.0</ele><time>2026-04-19T10:27:24.354Z</time></trkpt><trkpt lat="40.4953311" lon="15.9543023"><ele>632.0</ele><time>2026-04-19T10:27:25.354Z</time></trkpt><trkpt lat="40.4951694" lon="15.9542725"><ele>631.6</ele><time>2026-04-19T10:27:26.354Z</time></trkpt><trkpt lat="40.4950325" lon="15.9542369"><ele>631.2</ele><time>2026-04-19T10:27:27.354Z</time></trkpt><trkpt lat="40.4949141" lon="15.9541982"><ele>630.8</ele><time>2026-04-19T10:27:28.354Z</time></trkpt><trkpt lat="40.4948298" lon="15.9541479"><ele>630.4</ele><time>2026-04-19T10:27:29.354Z</time></trkpt><trkpt lat="40.4947714" lon="15.9540705"><ele>630.0</ele><time>2026-04-19T10:27:30.354Z</time></trkpt><trkpt lat="40.4947522" lon="15.9539634"><ele>630.0</ele><time>2026-04-19T10:27:31.354Z</time></trkpt><trkpt lat="40.494772" lon="15.9538306"><ele>630.0</ele><time>2026-04-19T10:27:32.354Z</time></trkpt><trkpt lat="40.4948431" lon="15.9537232"><ele>630.0</ele><time>2026-04-19T10:27:33.354Z</time></trkpt><trkpt lat="40.4949412" lon="15.9536199"><ele>630.0</ele><time>2026-04-19T10:27:34.354Z</time></trkpt><trkpt lat="40.4950684" lon="15.9534911"><ele>628.3333333333334</ele><time>2026-04-19T10:27:35.354Z</time></trkpt><trkpt lat="40.4952013" lon="15.9533197"><ele>626.6666666666667</ele><time>2026-04-19T10:27:36.354Z</time></trkpt><trkpt lat="40.4953331" lon="15.9531099"><ele>625.0</ele><time>2026-04-19T10:27:37.354Z</time></trkpt><trkpt lat="40.4954632" lon="15.9528917"><ele>625.3333333333334</ele><time>2026-04-19T10:27:38.354Z</time></trkpt><trkpt lat="40.4955851" lon="15.9527011"><ele>625.6666666666666</ele><time>2026-04-19T10:27:39.354Z</time></trkpt><trkpt lat="40.4956919" lon="15.9525195"><ele>626.0</ele><time>2026-04-19T10:27:40.354Z</time></trkpt><trkpt lat="40.4957823" lon="15.9523219"><ele>626.0</ele><time>2026-04-19T10:27:41.354Z</time></trkpt><trkpt lat="40.4958598" lon="15.9520826"><ele>626.0</ele><time>2026-04-19T10:27:42.354Z</time></trkpt><trkpt lat="40.4959228" lon="15.9518184"><ele>626.0</ele><time>2026-04-19T10:27:43.354Z</time></trkpt><trkpt lat="40.4959829" lon="15.9515923"><ele>623.0</ele><time>2026-04-19T10:27:44.354Z</time></trkpt><trkpt lat="40.4960161" lon="15.9513757"><ele>620.0</ele><time>2026-04-19T10:27:45.354Z</time></trkpt><trkpt lat="40.4960187" lon="15.9511501"><ele>617.0</ele><time>2026-04-19T10:27:46.354Z</time></trkpt><trkpt lat="40.4960092" lon="15.9508956"><ele>615.3333333333333</ele><time>2026-04-19T10:27:47.354Z</time></trkpt><trkpt lat="40.4959936" lon="15.9506145"><ele>613.6666666666666</ele><time>2026-04-19T10:27:48.354Z</time></trkpt><trkpt lat="40.495969" lon="15.9503295"><ele>612.0</ele><time>2026-04-19T10:27:49.354Z</time></trkpt><trkpt lat="40.4959511" lon="15.9500719"><ele>611.3333333333334</ele><time>2026-04-19T10:27:50.354Z</time></trkpt><trkpt lat="40.4959478" lon="15.9498277"><ele>610.6666666666667</ele><time>2026-04-19T10:27:51.354Z</time></trkpt><trkpt lat="40.4959764" lon="15.9495733"><ele>610.0</ele><time>2026-04-19T10:27:52.354Z</time></trkpt><trkpt lat="40.496027" lon="15.9493351"><ele>608.5</ele><time>2026-04-19T10:27:53.354Z</time></trkpt><trkpt lat="40.4960629" lon="15.9491347"><ele>607.0</ele><time>2026-04-19T10:27:54.354Z</time></trkpt><trkpt lat="40.4960876" lon="15.9489755"><ele>605.5</ele><time>2026-04-19T10:27:55.354Z</time></trkpt><trkpt lat="40.4961027" lon="15.9488411"><ele>604.0</ele><time>2026-04-19T10:27:56.354Z</time></trkpt><trkpt lat="40.4961017" lon="15.9487082"><ele>604.0</ele><time>2026-04-19T10:27:57.354Z</time></trkpt><trkpt lat="40.4960786" lon="15.9485902"><ele>604.0</ele><time>2026-04-19T10:27:58.354Z</time></trkpt><trkpt lat="40.4960337" lon="15.9484419"><ele>604.0</ele><time>2026-04-19T10:27:59.354Z</time></trkpt><trkpt lat="40.4959791" lon="15.9482685"><ele>604.0</ele><time>2026-04-19T10:28:00.354Z</time></trkpt><trkpt lat="40.4959363" lon="15.9481056"><ele>603.3333333333334</ele><time>2026-04-19T10:28:01.354Z</time></trkpt><trkpt lat="40.4958964" lon="15.9479919"><ele>602.6666666666667</ele><time>2026-04-19T10:28:02.354Z</time></trkpt><trkpt lat="40.4958743" lon="15.9479118"><ele>602.0</ele><time>2026-04-19T10:28:03.354Z</time></trkpt><trkpt lat="40.4958264" lon="15.9478411"><ele>601.3333333333334</ele><time>2026-04-19T10:28:05.354Z</time></trkpt><trkpt lat="40.4957657" lon="15.9478129"><ele>600.6666666666666</ele><time>2026-04-19T10:28:08.354Z</time></trkpt><trkpt lat="40.4956822" lon="15.9478878"><ele>600.0</ele><time>2026-04-19T10:28:10.354Z</time></trkpt><trkpt lat="40.4956227" lon="15.9480096"><ele>600.0</ele><time>2026-04-19T10:28:11.354Z</time></trkpt><trkpt lat="40.4955532" lon="15.9481747"><ele>600.0</ele><time>2026-04-19T10:28:12.354Z</time></trkpt><trkpt lat="40.4954721" lon="15.9483638"><ele>600.0</ele><time>2026-04-19T10:28:13.354Z</time></trkpt><trkpt lat="40.4953673" lon="15.9485916"><ele>596.5</ele><time>2026-04-19T10:28:14.354Z</time></trkpt><trkpt lat="40.4952411" lon="15.948857"><ele>593.0</ele><time>2026-04-19T10:28:15.354Z</time></trkpt><trkpt lat="40.4951143" lon="15.9491305"><ele>594.0</ele><time>2026-04-19T10:28:16.354Z</time></trkpt><trkpt lat="40.4949765" lon="15.949423"><ele>595.0</ele><time>2026-04-19T10:28:17.354Z</time></trkpt><trkpt lat="40.4948284" lon="15.9497343"><ele>595.0</ele><time>2026-04-19T10:28:18.354Z</time></trkpt><trkpt lat="40.4946889" lon="15.9500331"><ele>595.0</ele><time>2026-04-19T10:28:19.354Z</time></trkpt><trkpt lat="40.4945664" lon="15.9503039"><ele>594.3333333333334</ele><time>2026-04-19T10:28:20.354Z</time></trkpt><trkpt lat="40.4944494" lon="15.9505485"><ele>593.6666666666666</ele><time>2026-04-19T10:28:21.354Z</time></trkpt><trkpt lat="40.4943483" lon="15.9507569"><ele>593.0</ele><time>2026-04-19T10:28:22.354Z</time></trkpt><trkpt lat="40.494238" lon="15.9509472"><ele>593.0</ele><time>2026-04-19T10:28:23.354Z</time></trkpt><trkpt lat="40.4941185" lon="15.9510937"><ele>593.0</ele><time>2026-04-19T10:28:24.354Z</time></trkpt><trkpt lat="40.4940083" lon="15.9511771"><ele>593.0</ele><time>2026-04-19T10:28:25.354Z</time></trkpt><trkpt lat="40.4938924" lon="15.9512248"><ele>593.0</ele><time>2026-04-19T10:28:26.354Z</time></trkpt><trkpt lat="40.4937598" lon="15.9512155"><ele>591.25</ele><time>2026-04-19T10:28:27.354Z</time></trkpt><trkpt lat="40.4936103" lon="15.9512032"><ele>589.5</ele><time>2026-04-19T10:28:28.354Z</time></trkpt><trkpt lat="40.4934643" lon="15.9511989"><ele>587.75</ele><time>2026-04-19T10:28:29.354Z</time></trkpt><trkpt lat="40.4933324" lon="15.9512431"><ele>586.0</ele><time>2026-04-19T10:28:30.354Z</time></trkpt><trkpt lat="40.4931997" lon="15.9513377"><ele>586.0</ele><time>2026-04-19T10:28:31.354Z</time></trkpt><trkpt lat="40.4930924" lon="15.9514851"><ele>586.0</ele><time>2026-04-19T10:28:32.353Z</time></trkpt><trkpt lat="40.493012" lon="15.951679"><ele>586.0</ele><time>2026-04-19T10:28:33.354Z</time></trkpt><trkpt lat="40.4929362" lon="15.9518957"><ele>583.5</ele><time>2026-04-19T10:28:34.354Z</time></trkpt><trkpt lat="40.4928735" lon="15.9520802"><ele>581.0</ele><time>2026-04-19T10:28:35.354Z</time></trkpt><trkpt lat="40.4928133" lon="15.9522343"><ele>578.5</ele><time>2026-04-19T10:28:36.354Z</time></trkpt><trkpt lat="40.4927259" lon="15.952367"><ele>576.0</ele><time>2026-04-19T10:28:37.354Z</time></trkpt><trkpt lat="40.4926094" lon="15.9525131"><ele>576.3333333333334</ele><time>2026-04-19T10:28:38.354Z</time></trkpt><trkpt lat="40.4924598" lon="15.9526315"><ele>576.6666666666667</ele><time>2026-04-19T10:28:39.354Z</time></trkpt><trkpt lat="40.4922749" lon="15.952711"><ele>577.0</ele><time>2026-04-19T10:28:40.354Z</time></trkpt><trkpt lat="40.4920762" lon="15.9527527"><ele>575.3333333333334</ele><time>2026-04-19T10:28:41.354Z</time></trkpt><trkpt lat="40.4919018" lon="15.9528053"><ele>573.6666666666666</ele><time>2026-04-19T10:28:42.354Z</time></trkpt><trkpt lat="40.4917495" lon="15.9528658"><ele>572.0</ele><time>2026-04-19T10:28:43.354Z</time></trkpt><trkpt lat="40.4916105" lon="15.9529529"><ele>572.0</ele><time>2026-04-19T10:28:44.354Z</time></trkpt><trkpt lat="40.4914674" lon="15.9530975"><ele>572.0</ele><time>2026-04-19T10:28:45.354Z</time></trkpt><trkpt lat="40.4912844" lon="15.9532875"><ele>572.0</ele><time>2026-04-19T10:28:46.354Z</time></trkpt><trkpt lat="40.4910891" lon="15.9535004"><ele>573.0</ele><time>2026-04-19T10:28:47.354Z</time></trkpt><trkpt lat="40.4908946" lon="15.9536881"><ele>574.0</ele><time>2026-04-19T10:28:48.354Z</time></trkpt><trkpt lat="40.490718" lon="15.9538715"><ele>574.0</ele><time>2026-04-19T10:28:49.354Z</time></trkpt><trkpt lat="40.49058" lon="15.954"><ele>574.0</ele><time>2026-04-19T10:28:50.354Z</time></trkpt><trkpt lat="40.4904843" lon="15.9541188"><ele>574.0</ele><time>2026-04-19T10:28:51.354Z</time></trkpt><trkpt lat="40.4904231" lon="15.9542672"><ele>574.0</ele><time>2026-04-19T10:28:52.354Z</time></trkpt><trkpt lat="40.4904119" lon="15.9544512"><ele>574.0</ele><time>2026-04-19T10:28:53.354Z</time></trkpt><trkpt lat="40.4904242" lon="15.95469"><ele>574.0</ele><time>2026-04-19T10:28:54.354Z</time></trkpt><trkpt lat="40.4904531" lon="15.9549399"><ele>574.0</ele><time>2026-04-19T10:28:55.354Z</time></trkpt><trkpt lat="40.4904681" lon="15.955154"><ele>574.0</ele><time>2026-04-19T10:28:56.354Z</time></trkpt><trkpt lat="40.4904565" lon="15.9553676"><ele>574.0</ele><time>2026-04-19T10:28:57.354Z</time></trkpt><trkpt lat="40.4904148" lon="15.9556123"><ele>574.0</ele><time>2026-04-19T10:28:58.354Z</time></trkpt><trkpt lat="40.4903323" lon="15.9558589"><ele>575.0</ele><time>2026-04-19T10:28:59.354Z</time></trkpt><trkpt lat="40.4902503" lon="15.9560797"><ele>576.0</ele><time>2026-04-19T10:29:00.354Z</time></trkpt><trkpt lat="40.4901883" lon="15.9562325"><ele>577.0</ele><time>2026-04-19T10:29:01.354Z</time></trkpt><trkpt lat="40.4901176" lon="15.9563261"><ele>578.0</ele><time>2026-04-19T10:29:02.354Z</time></trkpt><trkpt lat="40.4900298" lon="15.9563844"><ele>578.0</ele><time>2026-04-19T10:29:03.354Z</time></trkpt><trkpt lat="40.4899111" lon="15.9563902"><ele>578.0</ele><time>2026-04-19T10:29:04.354Z</time></trkpt><trkpt lat="40.4897682" lon="15.9563453"><ele>578.0</ele><time>2026-04-19T10:29:05.354Z</time></trkpt><trkpt lat="40.4896048" lon="15.9562764"><ele>578.0</ele><time>2026-04-19T10:29:06.354Z</time></trkpt><trkpt lat="40.4894163" lon="15.9562661"><ele>580.3333333333333</ele><time>2026-04-19T10:29:07.354Z</time></trkpt><trkpt lat="40.4892107" lon="15.956298"><ele>582.6666666666666</ele><time>2026-04-19T10:29:08.354Z</time></trkpt><trkpt lat="40.4889836" lon="15.95636"><ele>585.0</ele><time>2026-04-19T10:29:09.354Z</time></trkpt><trkpt lat="40.4887308" lon="15.9564385"><ele>588.0</ele><time>2026-04-19T10:29:10.354Z</time></trkpt><trkpt lat="40.4884644" lon="15.9565235"><ele>591.0</ele><time>2026-04-19T10:29:11.354Z</time></trkpt><trkpt lat="40.4882054" lon="15.9566234"><ele>587.0</ele><time>2026-04-19T10:29:12.353Z</time></trkpt><trkpt lat="40.4879586" lon="15.9567043"><ele>583.0</ele><time>2026-04-19T10:29:13.353Z</time></trkpt><trkpt lat="40.487725" lon="15.9567734"><ele>583.0</ele><time>2026-04-19T10:29:14.353Z</time></trkpt><trkpt lat="40.4875155" lon="15.9568136"><ele>583.0</ele><time>2026-04-19T10:29:15.353Z</time></trkpt><trkpt lat="40.4873069" lon="15.9568686"><ele>583.0</ele><time>2026-04-19T10:29:16.353Z</time></trkpt><trkpt lat="40.4871048" lon="15.9569645"><ele>589.5</ele><time>2026-04-19T10:29:17.353Z</time></trkpt><trkpt lat="40.4868797" lon="15.9571042"><ele>596.0</ele><time>2026-04-19T10:29:18.353Z</time></trkpt><trkpt lat="40.486638" lon="15.9572775"><ele>596.0</ele><time>2026-04-19T10:29:19.353Z</time></trkpt><trkpt lat="40.4863764" lon="15.957456"><ele>596.0</ele><time>2026-04-19T10:29:20.353Z</time></trkpt><trkpt lat="40.4861321" lon="15.9576226"><ele>594.0</ele><time>2026-04-19T10:29:21.353Z</time></trkpt><trkpt lat="40.4859125" lon="15.9577732"><ele>592.0</ele><time>2026-04-19T10:29:22.353Z</time></trkpt><trkpt lat="40.485698" lon="15.9579142"><ele>592.0</ele><time>2026-04-19T10:29:23.353Z</time></trkpt><trkpt lat="40.4854859" lon="15.9580537"><ele>592.0</ele><time>2026-04-19T10:29:24.353Z</time></trkpt><trkpt lat="40.4852765" lon="15.9581818"><ele>592.5</ele><time>2026-04-19T10:29:25.353Z</time></trkpt><trkpt lat="40.4850648" lon="15.9583193"><ele>593.0</ele><time>2026-04-19T10:29:26.353Z</time></trkpt><trkpt lat="40.4848333" lon="15.9584789"><ele>598.0</ele><time>2026-04-19T10:29:27.353Z</time></trkpt><trkpt lat="40.484573" lon="15.9586551"><ele>603.0</ele><time>2026-04-19T10:29:28.353Z</time></trkpt><trkpt lat="40.4843047" lon="15.9588219"><ele>603.0</ele><time>2026-04-19T10:29:29.353Z</time></trkpt><trkpt lat="40.4840541" lon="15.9589851"><ele>603.0</ele><time>2026-04-19T10:29:30.353Z</time></trkpt><trkpt lat="40.4838233" lon="15.9591387"><ele>600.5</ele><time>2026-04-19T10:29:31.353Z</time></trkpt><trkpt lat="40.4836038" lon="15.9592864"><ele>598.0</ele><time>2026-04-19T10:29:32.353Z</time></trkpt><trkpt lat="40.4833914" lon="15.9594341"><ele>598.0</ele><time>2026-04-19T10:29:33.353Z</time></trkpt><trkpt lat="40.4831627" lon="15.9595811"><ele>598.0</ele><time>2026-04-19T10:29:34.353Z</time></trkpt><trkpt lat="40.4829104" lon="15.9597422"><ele>597.0</ele><time>2026-04-19T10:29:35.353Z</time></trkpt><trkpt lat="40.4826422" lon="15.9599143"><ele>596.0</ele><time>2026-04-19T10:29:36.353Z</time></trkpt><trkpt lat="40.4823986" lon="15.9600749"><ele>596.0</ele><time>2026-04-19T10:29:37.353Z</time></trkpt><trkpt lat="40.4821644" lon="15.9602282"><ele>596.0</ele><time>2026-04-19T10:29:38.353Z</time></trkpt><trkpt lat="40.4819501" lon="15.9603821"><ele>602.0</ele><time>2026-04-19T10:29:39.353Z</time></trkpt><trkpt lat="40.4817608" lon="15.9605541"><ele>608.0</ele><time>2026-04-19T10:29:40.353Z</time></trkpt><trkpt lat="40.4815976" lon="15.9607624"><ele>604.5</ele><time>2026-04-19T10:29:41.353Z</time></trkpt><trkpt lat="40.4814493" lon="15.9610007"><ele>601.0</ele><time>2026-04-19T10:29:42.353Z</time></trkpt><trkpt lat="40.4813242" lon="15.9612643"><ele>601.5</ele><time>2026-04-19T10:29:43.353Z</time></trkpt><trkpt lat="40.4812358" lon="15.9615446"><ele>602.0</ele><time>2026-04-19T10:29:44.353Z</time></trkpt><trkpt lat="40.4811781" lon="15.9618388"><ele>602.0</ele><time>2026-04-19T10:29:45.353Z</time></trkpt><trkpt lat="40.481139" lon="15.9621693"><ele>602.0</ele><time>2026-04-19T10:29:46.353Z</time></trkpt><trkpt lat="40.4811029" lon="15.9624925"><ele>602.3333333333333</ele><time>2026-04-19T10:29:47.353Z</time></trkpt><trkpt lat="40.4810671" lon="15.9627829"><ele>602.6666666666666</ele><time>2026-04-19T10:29:48.353Z</time></trkpt><trkpt lat="40.481024" lon="15.9630412"><ele>603.0</ele><time>2026-04-19T10:29:49.353Z</time></trkpt><trkpt lat="40.4809736" lon="15.9632738"><ele>606.0</ele><time>2026-04-19T10:29:50.353Z</time></trkpt><trkpt lat="40.4808797" lon="15.9634687"><ele>609.0</ele><time>2026-04-19T10:29:51.353Z</time></trkpt><trkpt lat="40.4807591" lon="15.9636482"><ele>612.0</ele><time>2026-04-19T10:29:52.353Z</time></trkpt><trkpt lat="40.4806237" lon="15.9638081"><ele>612.0</ele><time>2026-04-19T10:29:53.353Z</time></trkpt><trkpt lat="40.4804713" lon="15.9639341"><ele>612.0</ele><time>2026-04-19T10:29:54.353Z</time></trkpt><trkpt lat="40.4802878" lon="15.9640225"><ele>612.0</ele><time>2026-04-19T10:29:55.353Z</time></trkpt><trkpt lat="40.4800989" lon="15.9640628"><ele>612.0</ele><time>2026-04-19T10:29:56.353Z</time></trkpt><trkpt lat="40.4798971" lon="15.9640613"><ele>612.0</ele><time>2026-04-19T10:29:57.353Z</time></trkpt><trkpt lat="40.4796756" lon="15.9640245"><ele>612.0</ele><time>2026-04-19T10:29:58.353Z</time></trkpt><trkpt lat="40.4794139" lon="15.9639986"><ele>612.0</ele><time>2026-04-19T10:29:59.353Z</time></trkpt><trkpt lat="40.4791053" lon="15.963958"><ele>612.0</ele><time>2026-04-19T10:30:00.353Z</time></trkpt><trkpt lat="40.4787931" lon="15.963929"><ele>611.5</ele><time>2026-04-19T10:30:01.353Z</time></trkpt><trkpt lat="40.4784574" lon="15.9638898"><ele>611.0</ele><time>2026-04-19T10:30:02.353Z</time></trkpt><trkpt lat="40.4780968" lon="15.9638438"><ele>611.0</ele><time>2026-04-19T10:30:03.353Z</time></trkpt><trkpt lat="40.4777291" lon="15.9637982"><ele>611.0</ele><time>2026-04-19T10:30:04.353Z</time></trkpt><trkpt lat="40.4773571" lon="15.9637471"><ele>612.5</ele><time>2026-04-19T10:30:05.353Z</time></trkpt><trkpt lat="40.4770017" lon="15.9636963"><ele>614.0</ele><time>2026-04-19T10:30:06.353Z</time></trkpt><trkpt lat="40.4766603" lon="15.9636471"><ele>614.0</ele><time>2026-04-19T10:30:07.353Z</time></trkpt><trkpt lat="40.4763225" lon="15.9635922"><ele>614.0</ele><time>2026-04-19T10:30:08.353Z</time></trkpt><trkpt lat="40.4759896" lon="15.9635291"><ele>615.5</ele><time>2026-04-19T10:30:09.353Z</time></trkpt><trkpt lat="40.4756613" lon="15.9634727"><ele>617.0</ele><time>2026-04-19T10:30:10.353Z</time></trkpt><trkpt lat="40.4753389" lon="15.9634133"><ele>617.5</ele><time>2026-04-19T10:30:11.353Z</time></trkpt><trkpt lat="40.4750175" lon="15.9633521"><ele>618.0</ele><time>2026-04-19T10:30:12.353Z</time></trkpt><trkpt lat="40.4747064" lon="15.9632888"><ele>619.5</ele><time>2026-04-19T10:30:13.353Z</time></trkpt><trkpt lat="40.4744218" lon="15.96323"><ele>621.0</ele><time>2026-04-19T10:30:14.353Z</time></trkpt><trkpt lat="40.4741568" lon="15.9631843"><ele>621.0</ele><time>2026-04-19T10:30:15.353Z</time></trkpt><trkpt lat="40.4738997" lon="15.9631364"><ele>621.0</ele><time>2026-04-19T10:30:16.353Z</time></trkpt><trkpt lat="40.4736405" lon="15.9630838"><ele>624.0</ele><time>2026-04-19T10:30:17.353Z</time></trkpt><trkpt lat="40.4733715" lon="15.9630325"><ele>627.0</ele><time>2026-04-19T10:30:18.353Z</time></trkpt><trkpt lat="40.4730897" lon="15.962982"><ele>629.5</ele><time>2026-04-19T10:30:19.353Z</time></trkpt><trkpt lat="40.4728312" lon="15.962938"><ele>632.0</ele><time>2026-04-19T10:30:20.353Z</time></trkpt><trkpt lat="40.4726116" lon="15.9628839"><ele>632.0</ele><time>2026-04-19T10:30:21.353Z</time></trkpt><trkpt lat="40.4724244" lon="15.9628567"><ele>632.0</ele><time>2026-04-19T10:30:22.353Z</time></trkpt><trkpt lat="40.4722765" lon="15.9628211"><ele>632.0</ele><time>2026-04-19T10:30:23.353Z</time></trkpt><trkpt lat="40.472138" lon="15.9627686"><ele>632.5</ele><time>2026-04-19T10:30:24.353Z</time></trkpt><trkpt lat="40.4720246" lon="15.9626893"><ele>633.0</ele><time>2026-04-19T10:30:25.353Z</time></trkpt><trkpt lat="40.4719216" lon="15.9625827"><ele>633.5</ele><time>2026-04-19T10:30:26.353Z</time></trkpt><trkpt lat="40.4718335" lon="15.9624483"><ele>634.0</ele><time>2026-04-19T10:30:27.353Z</time></trkpt><trkpt lat="40.471772" lon="15.9623289"><ele>634.0</ele><time>2026-04-19T10:30:28.353Z</time></trkpt><trkpt lat="40.4717238" lon="15.9622288"><ele>634.0</ele><time>2026-04-19T10:30:29.353Z</time></trkpt><trkpt lat="40.4717004" lon="15.9621293"><ele>634.0</ele><time>2026-04-19T10:30:30.353Z</time></trkpt><trkpt lat="40.4717183" lon="15.9620127"><ele>634.0</ele><time>2026-04-19T10:30:31.353Z</time></trkpt><trkpt lat="40.4717424" lon="15.9618636"><ele>634.0</ele><time>2026-04-19T10:30:32.353Z</time></trkpt><trkpt lat="40.4717335" lon="15.9617273"><ele>633.2</ele><time>2026-04-19T10:30:33.353Z</time></trkpt><trkpt lat="40.4716911" lon="15.9616007"><ele>632.4</ele><time>2026-04-19T10:30:34.353Z</time></trkpt><trkpt lat="40.4716269" lon="15.9615031"><ele>631.6</ele><time>2026-04-19T10:30:35.353Z</time></trkpt><trkpt lat="40.4715377" lon="15.961439"><ele>630.8</ele><time>2026-04-19T10:30:36.353Z</time></trkpt><trkpt lat="40.4714382" lon="15.961428"><ele>630.0</ele><time>2026-04-19T10:30:37.353Z</time></trkpt><trkpt lat="40.4713349" lon="15.9614627"><ele>630.8</ele><time>2026-04-19T10:30:38.353Z</time></trkpt><trkpt lat="40.4712565" lon="15.9615455"><ele>631.6</ele><time>2026-04-19T10:30:39.353Z</time></trkpt><trkpt lat="40.4712282" lon="15.9616816"><ele>632.4</ele><time>2026-04-19T10:30:40.353Z</time></trkpt><trkpt lat="40.4712117" lon="15.9618243"><ele>633.2</ele><time>2026-04-19T10:30:41.353Z</time></trkpt><trkpt lat="40.4712461" lon="15.9619857"><ele>634.0</ele><time>2026-04-19T10:30:42.353Z</time></trkpt><trkpt lat="40.4712915" lon="15.9621391"><ele>634.0</ele><time>2026-04-19T10:30:43.353Z</time></trkpt><trkpt lat="40.4713017" lon="15.9622742"><ele>634.0</ele><time>2026-04-19T10:30:44.353Z</time></trkpt><trkpt lat="40.4712687" lon="15.9624185"><ele>634.0</ele><time>2026-04-19T10:30:45.353Z</time></trkpt><trkpt lat="40.4711973" lon="15.9626032"><ele>634.0</ele><time>2026-04-19T10:30:46.353Z</time></trkpt><trkpt lat="40.4710841" lon="15.9628261"><ele>638.3333333333334</ele><time>2026-04-19T10:30:47.353Z</time></trkpt><trkpt lat="40.4709812" lon="15.9630375"><ele>642.6666666666666</ele><time>2026-04-19T10:30:48.353Z</time></trkpt><trkpt lat="40.4708986" lon="15.9632053"><ele>647.0</ele><time>2026-04-19T10:30:49.353Z</time></trkpt><trkpt lat="40.4708207" lon="15.9633353"><ele>647.0</ele><time>2026-04-19T10:30:50.353Z</time></trkpt><trkpt lat="40.4707536" lon="15.9634323"><ele>647.0</ele><time>2026-04-19T10:30:51.353Z</time></trkpt><trkpt lat="40.4706863" lon="15.9634636"><ele>647.0</ele><time>2026-04-19T10:30:52.353Z</time></trkpt><trkpt lat="40.4706176" lon="15.9634653"><ele>647.0</ele><time>2026-04-19T10:30:53.353Z</time></trkpt><trkpt lat="40.4705362" lon="15.9634294"><ele>647.0</ele><time>2026-04-19T10:30:54.353Z</time></trkpt><trkpt lat="40.4704491" lon="15.9633405"><ele>647.0</ele><time>2026-04-19T10:30:55.353Z</time></trkpt><trkpt lat="40.4703579" lon="15.9632387"><ele>661.0</ele><time>2026-04-19T10:30:56.353Z</time></trkpt><trkpt lat="40.4702542" lon="15.9631345"><ele>661.0</ele><time>2026-04-19T10:30:57.353Z</time></trkpt><trkpt lat="40.4701728" lon="15.9630603"><ele>661.0</ele><time>2026-04-19T10:30:58.353Z</time></trkpt><trkpt lat="40.4701101" lon="15.9630299"><ele>661.0</ele><time>2026-04-19T10:30:59.353Z</time></trkpt><trkpt lat="40.47003" lon="15.9630316"><ele>661.0</ele><time>2026-04-19T10:31:01.353Z</time></trkpt><trkpt lat="40.4699686" lon="15.9630518"><ele>661.0</ele><time>2026-04-19T10:31:05.353Z</time></trkpt></trkseg></trk></gpx>